<?xml version="1.0" encoding="UTF-8"?>
<gpx creator="Garmin Connect" version="1.1"
  xsi:schemaLocation="http://www.topografix.com/GPX/1/1 http://www.topografix.com/GPX/11.xsd"
  xmlns:ns3="http://www.garmin.com/xmlschemas/TrackPointExtension/v1"
  xmlns="http://www.topografix.com/GPX/1/1"
  xmlns:xsi="http://www.w3.org/2001/XMLSchema-instance" xmlns:ns2="http://www.garmin.com/xmlschemas/GpxExtensions/v3">
  <metadata>
    <link href="connect.garmin.com">
      <text>Garmin Connect</text>
    </link>
    <time>2026-08-15T16:31:20.000Z</time>
  </metadata>
  <trk>
    <name>La Trinité-sur-Mer Wingfoiling</name>
    <type>wind_kite_surfing</type>
    <trkseg>
      <trkpt lat="47.57722089998424053192138671875" lon="-3.05174374021589756011962890625">
        <ele>-3</ele>
        <time>2026-08-15T16:31:20.000Z</time>
        <extensions>
          <ns3:TrackPointExtension>
            <ns3:hr>110</ns3:hr>
          </ns3:TrackPointExtension>
        </extensions>
      </trkpt>
      <trkpt lat="47.5772385857999324798583984375" lon="-3.05174793116748332977294921875">
        <ele>-3.400000095367431640625</ele>
        <time>2026-08-15T16:31:21.000Z</time>
        <extensions>
          <ns3:TrackPointExtension>
            <ns3:hr>109</ns3:hr>
          </ns3:TrackPointExtension>
        </extensions>
      </trkpt>
      <trkpt lat="47.577240429818630218505859375" lon="-3.05172731168568134307861328125">
        <ele>-4.19999980926513671875</ele>
        <time>2026-08-15T16:31:22.000Z</time>
        <extensions>
          <ns3:TrackPointExtension>
            <ns3:hr>109</ns3:hr>
          </ns3:TrackPointExtension>
        </extensions>
      </trkpt>
      <trkpt lat="47.57722123526036739349365234375" lon="-3.05173016153275966644287109375">
        <ele>-4</ele>
        <time>2026-08-15T16:31:23.000Z</time>
        <extensions>
          <ns3:TrackPointExtension>
            <ns3:hr>109</ns3:hr>
          </ns3:TrackPointExtension>
        </extensions>
      </trkpt>
      <trkpt lat="47.5772188045084476470947265625" lon="-3.05172798223793506622314453125">
        <ele>-4</ele>
        <time>2026-08-15T16:31:24.000Z</time>
        <extensions>
          <ns3:TrackPointExtension>
            <ns3:hr>109</ns3:hr>
          </ns3:TrackPointExtension>
        </extensions>
      </trkpt>
      <trkpt lat="47.577215619385242462158203125" lon="-3.05172245018184185028076171875">
        <ele>-3.599999904632568359375</ele>
        <time>2026-08-15T16:31:25.000Z</time>
        <extensions>
          <ns3:TrackPointExtension>
            <ns3:hr>109</ns3:hr>
          </ns3:TrackPointExtension>
        </extensions>
      </trkpt>
      <trkpt lat="47.577208913862705230712890625" lon="-3.05171658284962177276611328125">
        <ele>-3.2000000476837158203125</ele>
        <time>2026-08-15T16:31:26.000Z</time>
        <extensions>
          <ns3:TrackPointExtension>
            <ns3:hr>110</ns3:hr>
          </ns3:TrackPointExtension>
        </extensions>
      </trkpt>
      <trkpt lat="47.5772134400904178619384765625" lon="-3.05171482264995574951171875">
        <ele>-3</ele>
        <time>2026-08-15T16:31:27.000Z</time>
        <extensions>
          <ns3:TrackPointExtension>
            <ns3:hr>110</ns3:hr>
          </ns3:TrackPointExtension>
        </extensions>
      </trkpt>
      <trkpt lat="47.57721318863332271575927734375" lon="-3.0517102964222431182861328125">
        <ele>-2.400000095367431640625</ele>
        <time>2026-08-15T16:31:28.000Z</time>
        <extensions>
          <ns3:TrackPointExtension>
            <ns3:hr>111</ns3:hr>
          </ns3:TrackPointExtension>
        </extensions>
      </trkpt>
      <trkpt lat="47.577215619385242462158203125" lon="-3.05170250125229358673095703125">
        <ele>-2</ele>
        <time>2026-08-15T16:31:29.000Z</time>
        <extensions>
          <ns3:TrackPointExtension>
            <ns3:hr>112</ns3:hr>
          </ns3:TrackPointExtension>
        </extensions>
      </trkpt>
      <trkpt lat="47.577216289937496185302734375" lon="-3.0516900122165679931640625">
        <ele>-1.39999997615814208984375</ele>
        <time>2026-08-15T16:31:30.000Z</time>
        <extensions>
          <ns3:TrackPointExtension>
            <ns3:hr>112</ns3:hr>
          </ns3:TrackPointExtension>
        </extensions>
      </trkpt>
      <trkpt lat="47.5772174634039402008056640625" lon="-3.0516841448843479156494140625">
        <ele>-1.2000000476837158203125</ele>
        <time>2026-08-15T16:31:31.000Z</time>
        <extensions>
          <ns3:TrackPointExtension>
            <ns3:hr>112</ns3:hr>
          </ns3:TrackPointExtension>
        </extensions>
      </trkpt>
      <trkpt lat="47.57721922360360622406005859375" lon="-3.0516821332275867462158203125">
        <ele>-1</ele>
        <time>2026-08-15T16:31:32.000Z</time>
        <extensions>
          <ns3:TrackPointExtension>
            <ns3:hr>112</ns3:hr>
          </ns3:TrackPointExtension>
        </extensions>
      </trkpt>
      <trkpt lat="47.57721704430878162384033203125" lon="-3.0516754277050495147705078125">
        <ele>-1</ele>
        <time>2026-08-15T16:31:33.000Z</time>
        <extensions>
          <ns3:TrackPointExtension>
            <ns3:hr>113</ns3:hr>
          </ns3:TrackPointExtension>
        </extensions>
      </trkpt>
      <trkpt lat="47.57721184752881526947021484375" lon="-3.051668219268321990966796875">
        <ele>-1.39999997615814208984375</ele>
        <time>2026-08-15T16:31:34.000Z</time>
        <extensions>
          <ns3:TrackPointExtension>
            <ns3:hr>113</ns3:hr>
          </ns3:TrackPointExtension>
        </extensions>
      </trkpt>
      <trkpt lat="47.5772050581872463226318359375" lon="-3.05166712962090969085693359375">
        <ele>-1.60000002384185791015625</ele>
        <time>2026-08-15T16:31:35.000Z</time>
        <extensions>
          <ns3:TrackPointExtension>
            <ns3:hr>124</ns3:hr>
          </ns3:TrackPointExtension>
        </extensions>
      </trkpt>
      <trkpt lat="47.5772020407021045684814453125" lon="-3.0516603402793407440185546875">
        <ele>-2</ele>
        <time>2026-08-15T16:31:36.000Z</time>
        <extensions>
          <ns3:TrackPointExtension>
            <ns3:hr>128</ns3:hr>
          </ns3:TrackPointExtension>
        </extensions>
      </trkpt>
      <trkpt lat="47.5771991908550262451171875" lon="-3.051660172641277313232421875">
        <ele>-2.400000095367431640625</ele>
        <time>2026-08-15T16:31:37.000Z</time>
        <extensions>
          <ns3:TrackPointExtension>
            <ns3:hr>129</ns3:hr>
          </ns3:TrackPointExtension>
        </extensions>
      </trkpt>
      <trkpt lat="47.57719458080828189849853515625" lon="-3.0516551434993743896484375">
        <ele>-2.599999904632568359375</ele>
        <time>2026-08-15T16:31:38.000Z</time>
        <extensions>
          <ns3:TrackPointExtension>
            <ns3:hr>130</ns3:hr>
          </ns3:TrackPointExtension>
        </extensions>
      </trkpt>
      <trkpt lat="47.5771866180002689361572265625" lon="-3.05164567194879055023193359375">
        <ele>-2.7999999523162841796875</ele>
        <time>2026-08-15T16:31:39.000Z</time>
        <extensions>
          <ns3:TrackPointExtension>
            <ns3:hr>130</ns3:hr>
          </ns3:TrackPointExtension>
        </extensions>
      </trkpt>
      <trkpt lat="47.5771829299628734588623046875" lon="-3.0516449175775051116943359375">
        <ele>-3.2000000476837158203125</ele>
        <time>2026-08-15T16:31:40.000Z</time>
        <extensions>
          <ns3:TrackPointExtension>
            <ns3:hr>131</ns3:hr>
          </ns3:TrackPointExtension>
        </extensions>
      </trkpt>
      <trkpt lat="47.57717764936387538909912109375" lon="-3.05163427256047725677490234375">
        <ele>-3.400000095367431640625</ele>
        <time>2026-08-15T16:31:41.000Z</time>
        <extensions>
          <ns3:TrackPointExtension>
            <ns3:hr>131</ns3:hr>
          </ns3:TrackPointExtension>
        </extensions>
      </trkpt>
      <trkpt lat="47.57717597298324108123779296875" lon="-3.0516229569911956787109375">
        <ele>-3.599999904632568359375</ele>
        <time>2026-08-15T16:31:42.000Z</time>
        <extensions>
          <ns3:TrackPointExtension>
            <ns3:hr>131</ns3:hr>
          </ns3:TrackPointExtension>
        </extensions>
      </trkpt>
      <trkpt lat="47.5771698541939258575439453125" lon="-3.05161633528769016265869140625">
        <ele>-4</ele>
        <time>2026-08-15T16:31:43.000Z</time>
        <extensions>
          <ns3:TrackPointExtension>
            <ns3:hr>130</ns3:hr>
          </ns3:TrackPointExtension>
        </extensions>
      </trkpt>
      <trkpt lat="47.5771658308804035186767578125" lon="-3.0516073666512966156005859375">
        <ele>-4.19999980926513671875</ele>
        <time>2026-08-15T16:31:44.000Z</time>
        <extensions>
          <ns3:TrackPointExtension>
            <ns3:hr>130</ns3:hr>
          </ns3:TrackPointExtension>
        </extensions>
      </trkpt>
      <trkpt lat="47.5771618075668811798095703125" lon="-3.0515907704830169677734375">
        <ele>-4.19999980926513671875</ele>
        <time>2026-08-15T16:31:45.000Z</time>
        <extensions>
          <ns3:TrackPointExtension>
            <ns3:hr>130</ns3:hr>
          </ns3:TrackPointExtension>
        </extensions>
      </trkpt>
      <trkpt lat="47.577157281339168548583984375" lon="-3.05158599279820919036865234375">
        <ele>-4.19999980926513671875</ele>
        <time>2026-08-15T16:31:46.000Z</time>
        <extensions>
          <ns3:TrackPointExtension>
            <ns3:hr>130</ns3:hr>
          </ns3:TrackPointExtension>
        </extensions>
      </trkpt>
      <trkpt lat="47.57713976316154003143310546875" lon="-3.0515698157250881195068359375">
        <ele>-4.19999980926513671875</ele>
        <time>2026-08-15T16:31:47.000Z</time>
        <extensions>
          <ns3:TrackPointExtension>
            <ns3:hr>130</ns3:hr>
          </ns3:TrackPointExtension>
        </extensions>
      </trkpt>
      <trkpt lat="47.57712501101195812225341796875" lon="-3.051557578146457672119140625">
        <ele>-4.19999980926513671875</ele>
        <time>2026-08-15T16:31:48.000Z</time>
        <extensions>
          <ns3:TrackPointExtension>
            <ns3:hr>130</ns3:hr>
          </ns3:TrackPointExtension>
        </extensions>
      </trkpt>
      <trkpt lat="47.5771141983568668365478515625" lon="-3.0515436641871929168701171875">
        <ele>-4.19999980926513671875</ele>
        <time>2026-08-15T16:31:49.000Z</time>
        <extensions>
          <ns3:TrackPointExtension>
            <ns3:hr>131</ns3:hr>
          </ns3:TrackPointExtension>
        </extensions>
      </trkpt>
      <trkpt lat="47.5771011225879192352294921875" lon="-3.05153553374111652374267578125">
        <ele>-4.19999980926513671875</ele>
        <time>2026-08-15T16:31:50.000Z</time>
        <extensions>
          <ns3:TrackPointExtension>
            <ns3:hr>132</ns3:hr>
          </ns3:TrackPointExtension>
        </extensions>
      </trkpt>
      <trkpt lat="47.57709030993282794952392578125" lon="-3.05153553374111652374267578125">
        <ele>-4.19999980926513671875</ele>
        <time>2026-08-15T16:31:51.000Z</time>
        <extensions>
          <ns3:TrackPointExtension>
            <ns3:hr>132</ns3:hr>
          </ns3:TrackPointExtension>
        </extensions>
      </trkpt>
      <trkpt lat="47.57708896882832050323486328125" lon="-3.05153285153210163116455078125">
        <ele>-3.599999904632568359375</ele>
        <time>2026-08-15T16:31:52.000Z</time>
        <extensions>
          <ns3:TrackPointExtension>
            <ns3:hr>132</ns3:hr>
          </ns3:TrackPointExtension>
        </extensions>
      </trkpt>
      <trkpt lat="47.57708176039159297943115234375" lon="-3.05152237415313720703125">
        <ele>-3.599999904632568359375</ele>
        <time>2026-08-15T16:31:53.000Z</time>
        <extensions>
          <ns3:TrackPointExtension>
            <ns3:hr>132</ns3:hr>
          </ns3:TrackPointExtension>
        </extensions>
      </trkpt>
      <trkpt lat="47.57707354612648487091064453125" lon="-3.05152145214378833770751953125">
        <ele>-3</ele>
        <time>2026-08-15T16:31:54.000Z</time>
        <extensions>
          <ns3:TrackPointExtension>
            <ns3:hr>133</ns3:hr>
          </ns3:TrackPointExtension>
        </extensions>
      </trkpt>
      <trkpt lat="47.57706440985202789306640625" lon="-3.05151365697383880615234375">
        <ele>-2.599999904632568359375</ele>
        <time>2026-08-15T16:31:55.000Z</time>
        <extensions>
          <ns3:TrackPointExtension>
            <ns3:hr>134</ns3:hr>
          </ns3:TrackPointExtension>
        </extensions>
      </trkpt>
      <trkpt lat="47.577060721814632415771484375" lon="-3.05150686763226985931396484375">
        <ele>-2.2000000476837158203125</ele>
        <time>2026-08-15T16:31:56.000Z</time>
        <extensions>
          <ns3:TrackPointExtension>
            <ns3:hr>135</ns3:hr>
          </ns3:TrackPointExtension>
        </extensions>
      </trkpt>
      <trkpt lat="47.57705694995820522308349609375" lon="-3.051491193473339080810546875">
        <ele>-1.60000002384185791015625</ele>
        <time>2026-08-15T16:31:57.000Z</time>
        <extensions>
          <ns3:TrackPointExtension>
            <ns3:hr>135</ns3:hr>
          </ns3:TrackPointExtension>
        </extensions>
      </trkpt>
      <trkpt lat="47.577047310769557952880859375" lon="-3.0514776147902011871337890625">
        <ele>-1.39999997615814208984375</ele>
        <time>2026-08-15T16:31:58.000Z</time>
        <extensions>
          <ns3:TrackPointExtension>
            <ns3:hr>135</ns3:hr>
          </ns3:TrackPointExtension>
        </extensions>
      </trkpt>
      <trkpt lat="47.5770417787134647369384765625" lon="-3.05146713741123676300048828125">
        <ele>-0.800000011920928955078125</ele>
        <time>2026-08-15T16:31:59.000Z</time>
        <extensions>
          <ns3:TrackPointExtension>
            <ns3:hr>135</ns3:hr>
          </ns3:TrackPointExtension>
        </extensions>
      </trkpt>
      <trkpt lat="47.5770340673625469207763671875" lon="-3.0514561571180820465087890625">
        <ele>-0.60000002384185791015625</ele>
        <time>2026-08-15T16:32:00.000Z</time>
        <extensions>
          <ns3:TrackPointExtension>
            <ns3:hr>135</ns3:hr>
          </ns3:TrackPointExtension>
        </extensions>
      </trkpt>
      <trkpt lat="47.57702560164034366607666015625" lon="-3.051450289785861968994140625">
        <ele>-0.60000002384185791015625</ele>
        <time>2026-08-15T16:32:01.000Z</time>
        <extensions>
          <ns3:TrackPointExtension>
            <ns3:hr>135</ns3:hr>
          </ns3:TrackPointExtension>
        </extensions>
      </trkpt>
      <trkpt lat="47.57701369933784008026123046875" lon="-3.0514410696923732757568359375">
        <ele>-0.4000000059604644775390625</ele>
        <time>2026-08-15T16:32:02.000Z</time>
        <extensions>
          <ns3:TrackPointExtension>
            <ns3:hr>134</ns3:hr>
          </ns3:TrackPointExtension>
        </extensions>
      </trkpt>
      <trkpt lat="47.5770028866827487945556640625" lon="-3.05143629200756549835205078125">
        <ele>-0.4000000059604644775390625</ele>
        <time>2026-08-15T16:32:03.000Z</time>
        <extensions>
          <ns3:TrackPointExtension>
            <ns3:hr>133</ns3:hr>
          </ns3:TrackPointExtension>
        </extensions>
      </trkpt>
      <trkpt lat="47.5769951753318309783935546875" lon="-3.05142405442893505096435546875">
        <ele>-0.4000000059604644775390625</ele>
        <time>2026-08-15T16:32:04.000Z</time>
        <extensions>
          <ns3:TrackPointExtension>
            <ns3:hr>134</ns3:hr>
          </ns3:TrackPointExtension>
        </extensions>
      </trkpt>
      <trkpt lat="47.57698972709476947784423828125" lon="-3.05141986347734928131103515625">
        <ele>-0.4000000059604644775390625</ele>
        <time>2026-08-15T16:32:05.000Z</time>
        <extensions>
          <ns3:TrackPointExtension>
            <ns3:hr>135</ns3:hr>
          </ns3:TrackPointExtension>
        </extensions>
      </trkpt>
      <trkpt lat="47.57698285393416881561279296875" lon="-3.05140913464128971099853515625">
        <ele>-0.60000002384185791015625</ele>
        <time>2026-08-15T16:32:06.000Z</time>
        <extensions>
          <ns3:TrackPointExtension>
            <ns3:hr>135</ns3:hr>
          </ns3:TrackPointExtension>
        </extensions>
      </trkpt>
      <trkpt lat="47.57698050700128078460693359375" lon="-3.05140159092843532562255859375">
        <ele>-0.60000002384185791015625</ele>
        <time>2026-08-15T16:32:07.000Z</time>
        <extensions>
          <ns3:TrackPointExtension>
            <ns3:hr>137</ns3:hr>
          </ns3:TrackPointExtension>
        </extensions>
      </trkpt>
      <trkpt lat="47.57697053253650665283203125" lon="-3.051389940083026885986328125">
        <ele>-0.800000011920928955078125</ele>
        <time>2026-08-15T16:32:08.000Z</time>
        <extensions>
          <ns3:TrackPointExtension>
            <ns3:hr>137</ns3:hr>
          </ns3:TrackPointExtension>
        </extensions>
      </trkpt>
      <trkpt lat="47.57696919143199920654296875" lon="-3.0513870902359485626220703125">
        <ele>-0.800000011920928955078125</ele>
        <time>2026-08-15T16:32:09.000Z</time>
        <extensions>
          <ns3:TrackPointExtension>
            <ns3:hr>138</ns3:hr>
          </ns3:TrackPointExtension>
        </extensions>
      </trkpt>
      <trkpt lat="47.57696005515754222869873046875" lon="-3.051379881799221038818359375">
        <ele>-1</ele>
        <time>2026-08-15T16:32:10.000Z</time>
        <extensions>
          <ns3:TrackPointExtension>
            <ns3:hr>139</ns3:hr>
          </ns3:TrackPointExtension>
        </extensions>
      </trkpt>
      <trkpt lat="47.5769515894353389739990234375" lon="-3.0513676442205905914306640625">
        <ele>-1</ele>
        <time>2026-08-15T16:32:11.000Z</time>
        <extensions>
          <ns3:TrackPointExtension>
            <ns3:hr>139</ns3:hr>
          </ns3:TrackPointExtension>
        </extensions>
      </trkpt>
      <trkpt lat="47.57693675346672534942626953125" lon="-3.05136077105998992919921875">
        <ele>-1</ele>
        <time>2026-08-15T16:32:12.000Z</time>
        <extensions>
          <ns3:TrackPointExtension>
            <ns3:hr>140</ns3:hr>
          </ns3:TrackPointExtension>
        </extensions>
      </trkpt>
      <trkpt lat="47.57692518644034862518310546875" lon="-3.05135850794613361358642578125">
        <ele>-1</ele>
        <time>2026-08-15T16:32:13.000Z</time>
        <extensions>
          <ns3:TrackPointExtension>
            <ns3:hr>140</ns3:hr>
          </ns3:TrackPointExtension>
        </extensions>
      </trkpt>
      <trkpt lat="47.5769113563001155853271484375" lon="-3.05134543217718601226806640625">
        <ele>-0.800000011920928955078125</ele>
        <time>2026-08-15T16:32:14.000Z</time>
        <extensions>
          <ns3:TrackPointExtension>
            <ns3:hr>141</ns3:hr>
          </ns3:TrackPointExtension>
        </extensions>
      </trkpt>
      <trkpt lat="47.576899789273738861083984375" lon="-3.05133788846433162689208984375">
        <ele>-0.800000011920928955078125</ele>
        <time>2026-08-15T16:32:15.000Z</time>
        <extensions>
          <ns3:TrackPointExtension>
            <ns3:hr>141</ns3:hr>
          </ns3:TrackPointExtension>
        </extensions>
      </trkpt>
      <trkpt lat="47.576897442340850830078125" lon="-3.05133252404630184173583984375">
        <ele>-0.800000011920928955078125</ele>
        <time>2026-08-15T16:32:16.000Z</time>
        <extensions>
          <ns3:TrackPointExtension>
            <ns3:hr>141</ns3:hr>
          </ns3:TrackPointExtension>
        </extensions>
      </trkpt>
      <trkpt lat="47.57688109762966632843017578125" lon="-3.0513193644583225250244140625">
        <ele>-0.800000011920928955078125</ele>
        <time>2026-08-15T16:32:17.000Z</time>
        <extensions>
          <ns3:TrackPointExtension>
            <ns3:hr>141</ns3:hr>
          </ns3:TrackPointExtension>
        </extensions>
      </trkpt>
      <trkpt lat="47.57687791250646114349365234375" lon="-3.0513233877718448638916015625">
        <ele>-0.800000011920928955078125</ele>
        <time>2026-08-15T16:32:18.000Z</time>
        <extensions>
          <ns3:TrackPointExtension>
            <ns3:hr>140</ns3:hr>
          </ns3:TrackPointExtension>
        </extensions>
      </trkpt>
      <trkpt lat="47.576873302459716796875" lon="-3.05131391622126102447509765625">
        <ele>-1</ele>
        <time>2026-08-15T16:32:19.000Z</time>
        <extensions>
          <ns3:TrackPointExtension>
            <ns3:hr>140</ns3:hr>
          </ns3:TrackPointExtension>
        </extensions>
      </trkpt>
      <trkpt lat="47.576862908899784088134765625" lon="-3.0513103120028972625732421875">
        <ele>-1</ele>
        <time>2026-08-15T16:32:20.000Z</time>
        <extensions>
          <ns3:TrackPointExtension>
            <ns3:hr>140</ns3:hr>
          </ns3:TrackPointExtension>
        </extensions>
      </trkpt>
      <trkpt lat="47.57684790529310703277587890625" lon="-3.05129748769104480743408203125">
        <ele>-1.2000000476837158203125</ele>
        <time>2026-08-15T16:32:21.000Z</time>
        <extensions>
          <ns3:TrackPointExtension>
            <ns3:hr>139</ns3:hr>
          </ns3:TrackPointExtension>
        </extensions>
      </trkpt>
      <trkpt lat="47.576836757361888885498046875" lon="-3.05129195563495159149169921875">
        <ele>-1.39999997615814208984375</ele>
        <time>2026-08-15T16:32:22.000Z</time>
        <extensions>
          <ns3:TrackPointExtension>
            <ns3:hr>139</ns3:hr>
          </ns3:TrackPointExtension>
        </extensions>
      </trkpt>
      <trkpt lat="47.57682074792683124542236328125" lon="-3.05128005333244800567626953125">
        <ele>-1.39999997615814208984375</ele>
        <time>2026-08-15T16:32:23.000Z</time>
        <extensions>
          <ns3:TrackPointExtension>
            <ns3:hr>139</ns3:hr>
          </ns3:TrackPointExtension>
        </extensions>
      </trkpt>
      <trkpt lat="47.5768050737679004669189453125" lon="-3.0512680672109127044677734375">
        <ele>-1.39999997615814208984375</ele>
        <time>2026-08-15T16:32:24.000Z</time>
        <extensions>
          <ns3:TrackPointExtension>
            <ns3:hr>138</ns3:hr>
          </ns3:TrackPointExtension>
        </extensions>
      </trkpt>
      <trkpt lat="47.57679124362766742706298828125" lon="-3.05125675164163112640380859375">
        <ele>-1.39999997615814208984375</ele>
        <time>2026-08-15T16:32:25.000Z</time>
        <extensions>
          <ns3:TrackPointExtension>
            <ns3:hr>135</ns3:hr>
          </ns3:TrackPointExtension>
        </extensions>
      </trkpt>
      <trkpt lat="47.5767735578119754791259765625" lon="-3.051235713064670562744140625">
        <ele>-1.39999997615814208984375</ele>
        <time>2026-08-15T16:32:26.000Z</time>
        <extensions>
          <ns3:TrackPointExtension>
            <ns3:hr>132</ns3:hr>
          </ns3:TrackPointExtension>
        </extensions>
      </trkpt>
      <trkpt lat="47.57675553672015666961669921875" lon="-3.05121593177318572998046875">
        <ele>-1.39999997615814208984375</ele>
        <time>2026-08-15T16:32:27.000Z</time>
        <extensions>
          <ns3:TrackPointExtension>
            <ns3:hr>133</ns3:hr>
          </ns3:TrackPointExtension>
        </extensions>
      </trkpt>
      <trkpt lat="47.57674782536923885345458984375" lon="-3.0512026883661746978759765625">
        <ele>-1.2000000476837158203125</ele>
        <time>2026-08-15T16:32:28.000Z</time>
        <extensions>
          <ns3:TrackPointExtension>
            <ns3:hr>135</ns3:hr>
          </ns3:TrackPointExtension>
        </extensions>
      </trkpt>
      <trkpt lat="47.57673290558159351348876953125" lon="-3.05118785239756107330322265625">
        <ele>-1.2000000476837158203125</ele>
        <time>2026-08-15T16:32:29.000Z</time>
        <extensions>
          <ns3:TrackPointExtension>
            <ns3:hr>135</ns3:hr>
          </ns3:TrackPointExtension>
        </extensions>
      </trkpt>
      <trkpt lat="47.5767259486019611358642578125" lon="-3.05117762647569179534912109375">
        <ele>-1</ele>
        <time>2026-08-15T16:32:30.000Z</time>
        <extensions>
          <ns3:TrackPointExtension>
            <ns3:hr>135</ns3:hr>
          </ns3:TrackPointExtension>
        </extensions>
      </trkpt>
      <trkpt lat="47.5767152197659015655517578125" lon="-3.0511691607534885406494140625">
        <ele>-1</ele>
        <time>2026-08-15T16:32:31.000Z</time>
        <extensions>
          <ns3:TrackPointExtension>
            <ns3:hr>135</ns3:hr>
          </ns3:TrackPointExtension>
        </extensions>
      </trkpt>
      <trkpt lat="47.57670004852116107940673828125" lon="-3.0511616170406341552734375">
        <ele>-1</ele>
        <time>2026-08-15T16:32:32.000Z</time>
        <extensions>
          <ns3:TrackPointExtension>
            <ns3:hr>135</ns3:hr>
          </ns3:TrackPointExtension>
        </extensions>
      </trkpt>
      <trkpt lat="47.57668554782867431640625" lon="-3.05114527232944965362548828125">
        <ele>-1.2000000476837158203125</ele>
        <time>2026-08-15T16:32:33.000Z</time>
        <extensions>
          <ns3:TrackPointExtension>
            <ns3:hr>135</ns3:hr>
          </ns3:TrackPointExtension>
        </extensions>
      </trkpt>
      <trkpt lat="47.57667222060263156890869140625" lon="-3.05113789625465869903564453125">
        <ele>-1.2000000476837158203125</ele>
        <time>2026-08-15T16:32:34.000Z</time>
        <extensions>
          <ns3:TrackPointExtension>
            <ns3:hr>136</ns3:hr>
          </ns3:TrackPointExtension>
        </extensions>
      </trkpt>
      <trkpt lat="47.57666199468076229095458984375" lon="-3.0511255748569965362548828125">
        <ele>-1.39999997615814208984375</ele>
        <time>2026-08-15T16:32:35.000Z</time>
        <extensions>
          <ns3:TrackPointExtension>
            <ns3:hr>136</ns3:hr>
          </ns3:TrackPointExtension>
        </extensions>
      </trkpt>
      <trkpt lat="47.5766505114734172821044921875" lon="-3.05111761204898357391357421875">
        <ele>-1.2000000476837158203125</ele>
        <time>2026-08-15T16:32:36.000Z</time>
        <extensions>
          <ns3:TrackPointExtension>
            <ns3:hr>136</ns3:hr>
          </ns3:TrackPointExtension>
        </extensions>
      </trkpt>
      <trkpt lat="47.57664187811315059661865234375" lon="-3.05110822431743144989013671875">
        <ele>-1.2000000476837158203125</ele>
        <time>2026-08-15T16:32:37.000Z</time>
        <extensions>
          <ns3:TrackPointExtension>
            <ns3:hr>136</ns3:hr>
          </ns3:TrackPointExtension>
        </extensions>
      </trkpt>
      <trkpt lat="47.5766340829432010650634765625" lon="-3.0510984174907207489013671875">
        <ele>-1</ele>
        <time>2026-08-15T16:32:38.000Z</time>
        <extensions>
          <ns3:TrackPointExtension>
            <ns3:hr>136</ns3:hr>
          </ns3:TrackPointExtension>
        </extensions>
      </trkpt>
      <trkpt lat="47.57662762887775897979736328125" lon="-3.05108693428337574005126953125">
        <ele>-0.800000011920928955078125</ele>
        <time>2026-08-15T16:32:39.000Z</time>
        <extensions>
          <ns3:TrackPointExtension>
            <ns3:hr>137</ns3:hr>
          </ns3:TrackPointExtension>
        </extensions>
      </trkpt>
      <trkpt lat="47.576615475118160247802734375" lon="-3.05107905529439449310302734375">
        <ele>-0.60000002384185791015625</ele>
        <time>2026-08-15T16:32:40.000Z</time>
        <extensions>
          <ns3:TrackPointExtension>
            <ns3:hr>137</ns3:hr>
          </ns3:TrackPointExtension>
        </extensions>
      </trkpt>
      <trkpt lat="47.5766055844724178314208984375" lon="-3.0510749481618404388427734375">
        <ele>-0.60000002384185791015625</ele>
        <time>2026-08-15T16:32:41.000Z</time>
        <extensions>
          <ns3:TrackPointExtension>
            <ns3:hr>137</ns3:hr>
          </ns3:TrackPointExtension>
        </extensions>
      </trkpt>
      <trkpt lat="47.5765978731215000152587890625" lon="-3.05107109248638153076171875">
        <ele>-0.4000000059604644775390625</ele>
        <time>2026-08-15T16:32:42.000Z</time>
        <extensions>
          <ns3:TrackPointExtension>
            <ns3:hr>137</ns3:hr>
          </ns3:TrackPointExtension>
        </extensions>
      </trkpt>
      <trkpt lat="47.5765884853899478912353515625" lon="-3.051066733896732330322265625">
        <ele>-0.4000000059604644775390625</ele>
        <time>2026-08-15T16:32:43.000Z</time>
        <extensions>
          <ns3:TrackPointExtension>
            <ns3:hr>137</ns3:hr>
          </ns3:TrackPointExtension>
        </extensions>
      </trkpt>
      <trkpt lat="47.57658018730580806732177734375" lon="-3.05105499923229217529296875">
        <ele>-0.4000000059604644775390625</ele>
        <time>2026-08-15T16:32:44.000Z</time>
        <extensions>
          <ns3:TrackPointExtension>
            <ns3:hr>137</ns3:hr>
          </ns3:TrackPointExtension>
        </extensions>
      </trkpt>
      <trkpt lat="47.57657247595489025115966796875" lon="-3.051042258739471435546875">
        <ele>-0.60000002384185791015625</ele>
        <time>2026-08-15T16:32:45.000Z</time>
        <extensions>
          <ns3:TrackPointExtension>
            <ns3:hr>137</ns3:hr>
          </ns3:TrackPointExtension>
        </extensions>
      </trkpt>
      <trkpt lat="47.57656644098460674285888671875" lon="-3.0510350503027439117431640625">
        <ele>-0.4000000059604644775390625</ele>
        <time>2026-08-15T16:32:46.000Z</time>
        <extensions>
          <ns3:TrackPointExtension>
            <ns3:hr>137</ns3:hr>
          </ns3:TrackPointExtension>
        </extensions>
      </trkpt>
      <trkpt lat="47.576561160385608673095703125" lon="-3.05102993734180927276611328125">
        <ele>-0.4000000059604644775390625</ele>
        <time>2026-08-15T16:32:47.000Z</time>
        <extensions>
          <ns3:TrackPointExtension>
            <ns3:hr>136</ns3:hr>
          </ns3:TrackPointExtension>
        </extensions>
      </trkpt>
      <trkpt lat="47.57655319757759571075439453125" lon="-3.05101719684898853302001953125">
        <ele>-0.4000000059604644775390625</ele>
        <time>2026-08-15T16:32:48.000Z</time>
        <extensions>
          <ns3:TrackPointExtension>
            <ns3:hr>136</ns3:hr>
          </ns3:TrackPointExtension>
        </extensions>
      </trkpt>
      <trkpt lat="47.57654531858861446380615234375" lon="-3.0510119162499904632568359375">
        <ele>-0.20000000298023223876953125</ele>
        <time>2026-08-15T16:32:49.000Z</time>
        <extensions>
          <ns3:TrackPointExtension>
            <ns3:hr>137</ns3:hr>
          </ns3:TrackPointExtension>
        </extensions>
      </trkpt>
      <trkpt lat="47.57653777487576007843017578125" lon="-3.05101082660257816314697265625">
        <ele>-0.20000000298023223876953125</ele>
        <time>2026-08-15T16:32:50.000Z</time>
        <extensions>
          <ns3:TrackPointExtension>
            <ns3:hr>137</ns3:hr>
          </ns3:TrackPointExtension>
        </extensions>
      </trkpt>
      <trkpt lat="47.5765308178961277008056640625" lon="-3.05100806057453155517578125">
        <ele>0</ele>
        <time>2026-08-15T16:32:51.000Z</time>
        <extensions>
          <ns3:TrackPointExtension>
            <ns3:hr>137</ns3:hr>
          </ns3:TrackPointExtension>
        </extensions>
      </trkpt>
      <trkpt lat="47.57652260363101959228515625" lon="-3.05100529454648494720458984375">
        <ele>0.20000000298023223876953125</ele>
        <time>2026-08-15T16:32:52.000Z</time>
        <extensions>
          <ns3:TrackPointExtension>
            <ns3:hr>137</ns3:hr>
          </ns3:TrackPointExtension>
        </extensions>
      </trkpt>
      <trkpt lat="47.57652050815522670745849609375" lon="-3.05099640972912311553955078125">
        <ele>0.20000000298023223876953125</ele>
        <time>2026-08-15T16:32:53.000Z</time>
        <extensions>
          <ns3:TrackPointExtension>
            <ns3:hr>138</ns3:hr>
          </ns3:TrackPointExtension>
        </extensions>
      </trkpt>
      <trkpt lat="47.57651682011783123016357421875" lon="-3.050990290939807891845703125">
        <ele>0.20000000298023223876953125</ele>
        <time>2026-08-15T16:32:54.000Z</time>
        <extensions>
          <ns3:TrackPointExtension>
            <ns3:hr>138</ns3:hr>
          </ns3:TrackPointExtension>
        </extensions>
      </trkpt>
      <trkpt lat="47.5765103660523891448974609375" lon="-3.0509777180850505828857421875">
        <ele>0.20000000298023223876953125</ele>
        <time>2026-08-15T16:32:55.000Z</time>
        <extensions>
          <ns3:TrackPointExtension>
            <ns3:hr>138</ns3:hr>
          </ns3:TrackPointExtension>
        </extensions>
      </trkpt>
      <trkpt lat="47.57650709711015224456787109375" lon="-3.05096355266869068145751953125">
        <ele>0</ele>
        <time>2026-08-15T16:32:56.000Z</time>
        <extensions>
          <ns3:TrackPointExtension>
            <ns3:hr>138</ns3:hr>
          </ns3:TrackPointExtension>
        </extensions>
      </trkpt>
      <trkpt lat="47.57650257088243961334228515625" lon="-3.05096120573580265045166015625">
        <ele>-0.20000000298023223876953125</ele>
        <time>2026-08-15T16:32:57.000Z</time>
        <extensions>
          <ns3:TrackPointExtension>
            <ns3:hr>138</ns3:hr>
          </ns3:TrackPointExtension>
        </extensions>
      </trkpt>
      <trkpt lat="47.5764999724924564361572265625" lon="-3.0509589426219463348388671875">
        <ele>-0.20000000298023223876953125</ele>
        <time>2026-08-15T16:32:58.000Z</time>
        <extensions>
          <ns3:TrackPointExtension>
            <ns3:hr>137</ns3:hr>
          </ns3:TrackPointExtension>
        </extensions>
      </trkpt>
      <trkpt lat="47.57649418897926807403564453125" lon="-3.0509552545845508575439453125">
        <ele>-0.20000000298023223876953125</ele>
        <time>2026-08-15T16:32:59.000Z</time>
        <extensions>
          <ns3:TrackPointExtension>
            <ns3:hr>138</ns3:hr>
          </ns3:TrackPointExtension>
        </extensions>
      </trkpt>
      <trkpt lat="47.576492093503475189208984375" lon="-3.05094578303396701812744140625">
        <ele>-0.20000000298023223876953125</ele>
        <time>2026-08-15T16:33:00.000Z</time>
        <extensions>
          <ns3:TrackPointExtension>
            <ns3:hr>138</ns3:hr>
          </ns3:TrackPointExtension>
        </extensions>
      </trkpt>
      <trkpt lat="47.57648010738193988800048828125" lon="-3.050939328968524932861328125">
        <ele>-0.20000000298023223876953125</ele>
        <time>2026-08-15T16:33:01.000Z</time>
        <extensions>
          <ns3:TrackPointExtension>
            <ns3:hr>137</ns3:hr>
          </ns3:TrackPointExtension>
        </extensions>
      </trkpt>
      <trkpt lat="47.57647608406841754913330078125" lon="-3.05094678886234760284423828125">
        <ele>-0.20000000298023223876953125</ele>
        <time>2026-08-15T16:33:02.000Z</time>
        <extensions>
          <ns3:TrackPointExtension>
            <ns3:hr>137</ns3:hr>
          </ns3:TrackPointExtension>
        </extensions>
      </trkpt>
      <trkpt lat="47.57647440768778324127197265625" lon="-3.05094712413847446441650390625">
        <ele>-0.20000000298023223876953125</ele>
        <time>2026-08-15T16:33:03.000Z</time>
        <extensions>
          <ns3:TrackPointExtension>
            <ns3:hr>137</ns3:hr>
          </ns3:TrackPointExtension>
        </extensions>
      </trkpt>
      <trkpt lat="47.57647440768778324127197265625" lon="-3.05094712413847446441650390625">
        <ele>-0.20000000298023223876953125</ele>
        <time>2026-08-15T16:33:04.000Z</time>
        <extensions>
          <ns3:TrackPointExtension>
            <ns3:hr>135</ns3:hr>
          </ns3:TrackPointExtension>
        </extensions>
      </trkpt>
      <trkpt lat="47.5764644332230091094970703125" lon="-3.0509291030466556549072265625">
        <ele>0</ele>
        <time>2026-08-15T16:33:05.000Z</time>
        <extensions>
          <ns3:TrackPointExtension>
            <ns3:hr>135</ns3:hr>
          </ns3:TrackPointExtension>
        </extensions>
      </trkpt>
      <trkpt lat="47.5764642655849456787109375" lon="-3.05092399008572101593017578125">
        <ele>0</ele>
        <time>2026-08-15T16:33:06.000Z</time>
        <extensions>
          <ns3:TrackPointExtension>
            <ns3:hr>135</ns3:hr>
          </ns3:TrackPointExtension>
        </extensions>
      </trkpt>
      <trkpt lat="47.57646133191883563995361328125" lon="-3.0509202182292938232421875">
        <ele>0.20000000298023223876953125</ele>
        <time>2026-08-15T16:33:07.000Z</time>
        <extensions>
          <ns3:TrackPointExtension>
            <ns3:hr>134</ns3:hr>
          </ns3:TrackPointExtension>
        </extensions>
      </trkpt>
      <trkpt lat="47.57645797915756702423095703125" lon="-3.05091225542128086090087890625">
        <ele>0.20000000298023223876953125</ele>
        <time>2026-08-15T16:33:08.000Z</time>
        <extensions>
          <ns3:TrackPointExtension>
            <ns3:hr>134</ns3:hr>
          </ns3:TrackPointExtension>
        </extensions>
      </trkpt>
      <trkpt lat="47.57645362056791782379150390625" lon="-3.05091007612645626068115234375">
        <ele>1</ele>
        <time>2026-08-15T16:33:09.000Z</time>
        <extensions>
          <ns3:TrackPointExtension>
            <ns3:hr>134</ns3:hr>
          </ns3:TrackPointExtension>
        </extensions>
      </trkpt>
      <trkpt lat="47.57644993253052234649658203125" lon="-3.050906471908092498779296875">
        <ele>1.39999997615814208984375</ele>
        <time>2026-08-15T16:33:10.000Z</time>
        <extensions>
          <ns3:TrackPointExtension>
            <ns3:hr>133</ns3:hr>
          </ns3:TrackPointExtension>
        </extensions>
      </trkpt>
      <trkpt lat="47.57644456811249256134033203125" lon="-3.05090387351810932159423828125">
        <ele>1.7999999523162841796875</ele>
        <time>2026-08-15T16:33:11.000Z</time>
        <extensions>
          <ns3:TrackPointExtension>
            <ns3:hr>133</ns3:hr>
          </ns3:TrackPointExtension>
        </extensions>
      </trkpt>
      <trkpt lat="47.576436102390289306640625" lon="-3.0509002692997455596923828125">
        <ele>2</ele>
        <time>2026-08-15T16:33:12.000Z</time>
        <extensions>
          <ns3:TrackPointExtension>
            <ns3:hr>133</ns3:hr>
          </ns3:TrackPointExtension>
        </extensions>
      </trkpt>
      <trkpt lat="47.57643031887710094451904296875" lon="-3.05089767090976238250732421875">
        <ele>2.400000095367431640625</ele>
        <time>2026-08-15T16:33:13.000Z</time>
        <extensions>
          <ns3:TrackPointExtension>
            <ns3:hr>132</ns3:hr>
          </ns3:TrackPointExtension>
        </extensions>
      </trkpt>
      <trkpt lat="47.57642679847776889801025390625" lon="-3.05089347995817661285400390625">
        <ele>2.7999999523162841796875</ele>
        <time>2026-08-15T16:33:14.000Z</time>
        <extensions>
          <ns3:TrackPointExtension>
            <ns3:hr>132</ns3:hr>
          </ns3:TrackPointExtension>
        </extensions>
      </trkpt>
      <trkpt lat="47.57642411626875400543212890625" lon="-3.0508933961391448974609375">
        <ele>3</ele>
        <time>2026-08-15T16:33:15.000Z</time>
        <extensions>
          <ns3:TrackPointExtension>
            <ns3:hr>132</ns3:hr>
          </ns3:TrackPointExtension>
        </extensions>
      </trkpt>
      <trkpt lat="47.5764195062220096588134765625" lon="-3.050886690616607666015625">
        <ele>3</ele>
        <time>2026-08-15T16:33:16.000Z</time>
        <extensions>
          <ns3:TrackPointExtension>
            <ns3:hr>132</ns3:hr>
          </ns3:TrackPointExtension>
        </extensions>
      </trkpt>
      <trkpt lat="47.57641104049980640411376953125" lon="-3.05087638087570667266845703125">
        <ele>3</ele>
        <time>2026-08-15T16:33:17.000Z</time>
        <extensions>
          <ns3:TrackPointExtension>
            <ns3:hr>132</ns3:hr>
          </ns3:TrackPointExtension>
        </extensions>
      </trkpt>
      <trkpt lat="47.57640316151082515716552734375" lon="-3.05086850188672542572021484375">
        <ele>3</ele>
        <time>2026-08-15T16:33:18.000Z</time>
        <extensions>
          <ns3:TrackPointExtension>
            <ns3:hr>132</ns3:hr>
          </ns3:TrackPointExtension>
        </extensions>
      </trkpt>
      <trkpt lat="47.5763967074453830718994140625" lon="-3.0508586950600147247314453125">
        <ele>2.7999999523162841796875</ele>
        <time>2026-08-15T16:33:19.000Z</time>
        <extensions>
          <ns3:TrackPointExtension>
            <ns3:hr>131</ns3:hr>
          </ns3:TrackPointExtension>
        </extensions>
      </trkpt>
      <trkpt lat="47.5763913430273532867431640625" lon="-3.050854168832302093505859375">
        <ele>2.7999999523162841796875</ele>
        <time>2026-08-15T16:33:20.000Z</time>
        <extensions>
          <ns3:TrackPointExtension>
            <ns3:hr>131</ns3:hr>
          </ns3:TrackPointExtension>
        </extensions>
      </trkpt>
      <trkpt lat="47.576379440724849700927734375" lon="-3.050842098891735076904296875">
        <ele>2.599999904632568359375</ele>
        <time>2026-08-15T16:33:21.000Z</time>
        <extensions>
          <ns3:TrackPointExtension>
            <ns3:hr>131</ns3:hr>
          </ns3:TrackPointExtension>
        </extensions>
      </trkpt>
      <trkpt lat="47.57637114264070987701416015625" lon="-3.05083665065467357635498046875">
        <ele>2.599999904632568359375</ele>
        <time>2026-08-15T16:33:22.000Z</time>
        <extensions>
          <ns3:TrackPointExtension>
            <ns3:hr>130</ns3:hr>
          </ns3:TrackPointExtension>
        </extensions>
      </trkpt>
      <trkpt lat="47.57636711932718753814697265625" lon="-3.05083447135984897613525390625">
        <ele>2.400000095367431640625</ele>
        <time>2026-08-15T16:33:23.000Z</time>
        <extensions>
          <ns3:TrackPointExtension>
            <ns3:hr>129</ns3:hr>
          </ns3:TrackPointExtension>
        </extensions>
      </trkpt>
      <trkpt lat="47.576362006366252899169921875" lon="-3.05082541890442371368408203125">
        <ele>2.400000095367431640625</ele>
        <time>2026-08-15T16:33:24.000Z</time>
        <extensions>
          <ns3:TrackPointExtension>
            <ns3:hr>127</ns3:hr>
          </ns3:TrackPointExtension>
        </extensions>
      </trkpt>
      <trkpt lat="47.57635421119630336761474609375" lon="-3.0508130975067615509033203125">
        <ele>2.2000000476837158203125</ele>
        <time>2026-08-15T16:33:25.000Z</time>
        <extensions>
          <ns3:TrackPointExtension>
            <ns3:hr>125</ns3:hr>
          </ns3:TrackPointExtension>
        </extensions>
      </trkpt>
      <trkpt lat="47.5763454101979732513427734375" lon="-3.05080446414649486541748046875">
        <ele>2.2000000476837158203125</ele>
        <time>2026-08-15T16:33:26.000Z</time>
        <extensions>
          <ns3:TrackPointExtension>
            <ns3:hr>125</ns3:hr>
          </ns3:TrackPointExtension>
        </extensions>
      </trkpt>
      <trkpt lat="47.576338537037372589111328125" lon="-3.05079574696719646453857421875">
        <ele>2</ele>
        <time>2026-08-15T16:33:27.000Z</time>
        <extensions>
          <ns3:TrackPointExtension>
            <ns3:hr>124</ns3:hr>
          </ns3:TrackPointExtension>
        </extensions>
      </trkpt>
      <trkpt lat="47.57632537744939327239990234375" lon="-3.05078870616853237152099609375">
        <ele>2</ele>
        <time>2026-08-15T16:33:28.000Z</time>
        <extensions>
          <ns3:TrackPointExtension>
            <ns3:hr>124</ns3:hr>
          </ns3:TrackPointExtension>
        </extensions>
      </trkpt>
      <trkpt lat="47.5763209350407123565673828125" lon="-3.050775043666362762451171875">
        <ele>2</ele>
        <time>2026-08-15T16:33:29.000Z</time>
        <extensions>
          <ns3:TrackPointExtension>
            <ns3:hr>124</ns3:hr>
          </ns3:TrackPointExtension>
        </extensions>
      </trkpt>
      <trkpt lat="47.5763075239956378936767578125" lon="-3.05077143944799900054931640625">
        <ele>2</ele>
        <time>2026-08-15T16:33:30.000Z</time>
        <extensions>
          <ns3:TrackPointExtension>
            <ns3:hr>124</ns3:hr>
          </ns3:TrackPointExtension>
        </extensions>
      </trkpt>
      <trkpt lat="47.57629704661667346954345703125" lon="-3.05076473392546176910400390625">
        <ele>2</ele>
        <time>2026-08-15T16:33:31.000Z</time>
        <extensions>
          <ns3:TrackPointExtension>
            <ns3:hr>124</ns3:hr>
          </ns3:TrackPointExtension>
        </extensions>
      </trkpt>
      <trkpt lat="47.57628430612385272979736328125" lon="-3.05076397955417633056640625">
        <ele>2</ele>
        <time>2026-08-15T16:33:32.000Z</time>
        <extensions>
          <ns3:TrackPointExtension>
            <ns3:hr>125</ns3:hr>
          </ns3:TrackPointExtension>
        </extensions>
      </trkpt>
      <trkpt lat="47.57627625949680805206298828125" lon="-3.050767667591571807861328125">
        <ele>2</ele>
        <time>2026-08-15T16:33:33.000Z</time>
        <extensions>
          <ns3:TrackPointExtension>
            <ns3:hr>125</ns3:hr>
          </ns3:TrackPointExtension>
        </extensions>
      </trkpt>
      <trkpt lat="47.57626636885106563568115234375" lon="-3.050763309001922607421875">
        <ele>2</ele>
        <time>2026-08-15T16:33:34.000Z</time>
        <extensions>
          <ns3:TrackPointExtension>
            <ns3:hr>126</ns3:hr>
          </ns3:TrackPointExtension>
        </extensions>
      </trkpt>
      <trkpt lat="47.57625111378729343414306640625" lon="-3.05075199343264102935791015625">
        <ele>2</ele>
        <time>2026-08-15T16:33:35.000Z</time>
        <extensions>
          <ns3:TrackPointExtension>
            <ns3:hr>129</ns3:hr>
          </ns3:TrackPointExtension>
        </extensions>
      </trkpt>
      <trkpt lat="47.576237954199314117431640625" lon="-3.05074520409107208251953125">
        <ele>2</ele>
        <time>2026-08-15T16:33:36.000Z</time>
        <extensions>
          <ns3:TrackPointExtension>
            <ns3:hr>132</ns3:hr>
          </ns3:TrackPointExtension>
        </extensions>
      </trkpt>
      <trkpt lat="47.5762280635535717010498046875" lon="-3.0507420189678668975830078125">
        <ele>2</ele>
        <time>2026-08-15T16:33:37.000Z</time>
        <extensions>
          <ns3:TrackPointExtension>
            <ns3:hr>133</ns3:hr>
          </ns3:TrackPointExtension>
        </extensions>
      </trkpt>
      <trkpt lat="47.57622177712619304656982421875" lon="-3.05073707364499568939208984375">
        <ele>2.2000000476837158203125</ele>
        <time>2026-08-15T16:33:38.000Z</time>
        <extensions>
          <ns3:TrackPointExtension>
            <ns3:hr>134</ns3:hr>
          </ns3:TrackPointExtension>
        </extensions>
      </trkpt>
      <trkpt lat="47.576209791004657745361328125" lon="-3.05073137395083904266357421875">
        <ele>2.2000000476837158203125</ele>
        <time>2026-08-15T16:33:39.000Z</time>
        <extensions>
          <ns3:TrackPointExtension>
            <ns3:hr>134</ns3:hr>
          </ns3:TrackPointExtension>
        </extensions>
      </trkpt>
      <trkpt lat="47.57619981653988361358642578125" lon="-3.05073422379791736602783203125">
        <ele>2.2000000476837158203125</ele>
        <time>2026-08-15T16:33:40.000Z</time>
        <extensions>
          <ns3:TrackPointExtension>
            <ns3:hr>135</ns3:hr>
          </ns3:TrackPointExtension>
        </extensions>
      </trkpt>
      <trkpt lat="47.57619093172252178192138671875" lon="-3.05072844028472900390625">
        <ele>2.2000000476837158203125</ele>
        <time>2026-08-15T16:33:41.000Z</time>
        <extensions>
          <ns3:TrackPointExtension>
            <ns3:hr>135</ns3:hr>
          </ns3:TrackPointExtension>
        </extensions>
      </trkpt>
      <trkpt lat="47.576184310019016265869140625" lon="-3.050717376172542572021484375">
        <ele>2.2000000476837158203125</ele>
        <time>2026-08-15T16:33:42.000Z</time>
        <extensions>
          <ns3:TrackPointExtension>
            <ns3:hr>135</ns3:hr>
          </ns3:TrackPointExtension>
        </extensions>
      </trkpt>
      <trkpt lat="47.57617768831551074981689453125" lon="-3.050708658993244171142578125">
        <ele>2.400000095367431640625</ele>
        <time>2026-08-15T16:33:43.000Z</time>
        <extensions>
          <ns3:TrackPointExtension>
            <ns3:hr>136</ns3:hr>
          </ns3:TrackPointExtension>
        </extensions>
      </trkpt>
      <trkpt lat="47.57616913877427577972412109375" lon="-3.0507061444222927093505859375">
        <ele>2.400000095367431640625</ele>
        <time>2026-08-15T16:33:44.000Z</time>
        <extensions>
          <ns3:TrackPointExtension>
            <ns3:hr>134</ns3:hr>
          </ns3:TrackPointExtension>
        </extensions>
      </trkpt>
      <trkpt lat="47.57616578601300716400146484375" lon="-3.05070052854716777801513671875">
        <ele>2.400000095367431640625</ele>
        <time>2026-08-15T16:33:45.000Z</time>
        <extensions>
          <ns3:TrackPointExtension>
            <ns3:hr>132</ns3:hr>
          </ns3:TrackPointExtension>
        </extensions>
      </trkpt>
      <trkpt lat="47.5761546380817890167236328125" lon="-3.0507002770900726318359375">
        <ele>2.400000095367431640625</ele>
        <time>2026-08-15T16:33:46.000Z</time>
        <extensions>
          <ns3:TrackPointExtension>
            <ns3:hr>130</ns3:hr>
          </ns3:TrackPointExtension>
        </extensions>
      </trkpt>
      <trkpt lat="47.57614784874022006988525390625" lon="-3.0506923981010913848876953125">
        <ele>2.400000095367431640625</ele>
        <time>2026-08-15T16:33:47.000Z</time>
        <extensions>
          <ns3:TrackPointExtension>
            <ns3:hr>129</ns3:hr>
          </ns3:TrackPointExtension>
        </extensions>
      </trkpt>
      <trkpt lat="47.57614365778863430023193359375" lon="-3.05068292655050754547119140625">
        <ele>2.400000095367431640625</ele>
        <time>2026-08-15T16:33:48.000Z</time>
        <extensions>
          <ns3:TrackPointExtension>
            <ns3:hr>127</ns3:hr>
          </ns3:TrackPointExtension>
        </extensions>
      </trkpt>
      <trkpt lat="47.5761308334767818450927734375" lon="-3.05067571811378002166748046875">
        <ele>2.2000000476837158203125</ele>
        <time>2026-08-15T16:33:49.000Z</time>
        <extensions>
          <ns3:TrackPointExtension>
            <ns3:hr>125</ns3:hr>
          </ns3:TrackPointExtension>
        </extensions>
      </trkpt>
      <trkpt lat="47.5761211104691028594970703125" lon="-3.0506662465631961822509765625">
        <ele>2</ele>
        <time>2026-08-15T16:33:50.000Z</time>
        <extensions>
          <ns3:TrackPointExtension>
            <ns3:hr>122</ns3:hr>
          </ns3:TrackPointExtension>
        </extensions>
      </trkpt>
      <trkpt lat="47.57611733861267566680908203125" lon="-3.05065576918423175811767578125">
        <ele>1.7999999523162841796875</ele>
        <time>2026-08-15T16:33:51.000Z</time>
        <extensions>
          <ns3:TrackPointExtension>
            <ns3:hr>121</ns3:hr>
          </ns3:TrackPointExtension>
        </extensions>
      </trkpt>
      <trkpt lat="47.5761075317859649658203125" lon="-3.050646297633647918701171875">
        <ele>1.7999999523162841796875</ele>
        <time>2026-08-15T16:33:52.000Z</time>
        <extensions>
          <ns3:TrackPointExtension>
            <ns3:hr>120</ns3:hr>
          </ns3:TrackPointExtension>
        </extensions>
      </trkpt>
      <trkpt lat="47.57609236054122447967529296875" lon="-3.05063523352146148681640625">
        <ele>1.7999999523162841796875</ele>
        <time>2026-08-15T16:33:53.000Z</time>
        <extensions>
          <ns3:TrackPointExtension>
            <ns3:hr>120</ns3:hr>
          </ns3:TrackPointExtension>
        </extensions>
      </trkpt>
      <trkpt lat="47.5760755129158496856689453125" lon="-3.0506216548383235931396484375">
        <ele>2</ele>
        <time>2026-08-15T16:33:54.000Z</time>
        <extensions>
          <ns3:TrackPointExtension>
            <ns3:hr>120</ns3:hr>
          </ns3:TrackPointExtension>
        </extensions>
      </trkpt>
      <trkpt lat="47.57606352679431438446044921875" lon="-3.050614111125469207763671875">
        <ele>2.2000000476837158203125</ele>
        <time>2026-08-15T16:33:55.000Z</time>
        <extensions>
          <ns3:TrackPointExtension>
            <ns3:hr>121</ns3:hr>
          </ns3:TrackPointExtension>
        </extensions>
      </trkpt>
      <trkpt lat="47.57605330087244510650634765625" lon="-3.05060380138456821441650390625">
        <ele>2.2000000476837158203125</ele>
        <time>2026-08-15T16:33:56.000Z</time>
        <extensions>
          <ns3:TrackPointExtension>
            <ns3:hr>123</ns3:hr>
          </ns3:TrackPointExtension>
        </extensions>
      </trkpt>
      <trkpt lat="47.5760439969599246978759765625" lon="-3.05059391073882579803466796875">
        <ele>2.400000095367431640625</ele>
        <time>2026-08-15T16:33:57.000Z</time>
        <extensions>
          <ns3:TrackPointExtension>
            <ns3:hr>125</ns3:hr>
          </ns3:TrackPointExtension>
        </extensions>
      </trkpt>
      <trkpt lat="47.57602932862937450408935546875" lon="-3.0505871213972568511962890625">
        <ele>2.400000095367431640625</ele>
        <time>2026-08-15T16:33:58.000Z</time>
        <extensions>
          <ns3:TrackPointExtension>
            <ns3:hr>125</ns3:hr>
          </ns3:TrackPointExtension>
        </extensions>
      </trkpt>
      <trkpt lat="47.57601541467010974884033203125" lon="-3.05057681165635585784912109375">
        <ele>2.400000095367431640625</ele>
        <time>2026-08-15T16:33:59.000Z</time>
        <extensions>
          <ns3:TrackPointExtension>
            <ns3:hr>126</ns3:hr>
          </ns3:TrackPointExtension>
        </extensions>
      </trkpt>
      <trkpt lat="47.57600703276693820953369140625" lon="-3.0505686812102794647216796875">
        <ele>2.400000095367431640625</ele>
        <time>2026-08-15T16:34:00.000Z</time>
        <extensions>
          <ns3:TrackPointExtension>
            <ns3:hr>126</ns3:hr>
          </ns3:TrackPointExtension>
        </extensions>
      </trkpt>
      <trkpt lat="47.57599831558763980865478515625" lon="-3.050555773079395294189453125">
        <ele>2.400000095367431640625</ele>
        <time>2026-08-15T16:34:01.000Z</time>
        <extensions>
          <ns3:TrackPointExtension>
            <ns3:hr>126</ns3:hr>
          </ns3:TrackPointExtension>
        </extensions>
      </trkpt>
      <trkpt lat="47.575987838208675384521484375" lon="-3.050542362034320831298828125">
        <ele>2.599999904632568359375</ele>
        <time>2026-08-15T16:34:02.000Z</time>
        <extensions>
          <ns3:TrackPointExtension>
            <ns3:hr>126</ns3:hr>
          </ns3:TrackPointExtension>
        </extensions>
      </trkpt>
      <trkpt lat="47.57597819902002811431884765625" lon="-3.0505338124930858612060546875">
        <ele>2.7999999523162841796875</ele>
        <time>2026-08-15T16:34:03.000Z</time>
        <extensions>
          <ns3:TrackPointExtension>
            <ns3:hr>126</ns3:hr>
          </ns3:TrackPointExtension>
        </extensions>
      </trkpt>
      <trkpt lat="47.5759707391262054443359375" lon="-3.05052635259926319122314453125">
        <ele>2.7999999523162841796875</ele>
        <time>2026-08-15T16:34:04.000Z</time>
        <extensions>
          <ns3:TrackPointExtension>
            <ns3:hr>125</ns3:hr>
          </ns3:TrackPointExtension>
        </extensions>
      </trkpt>
      <trkpt lat="47.57595992647111415863037109375" lon="-3.0505163781344890594482421875">
        <ele>3</ele>
        <time>2026-08-15T16:34:05.000Z</time>
        <extensions>
          <ns3:TrackPointExtension>
            <ns3:hr>126</ns3:hr>
          </ns3:TrackPointExtension>
        </extensions>
      </trkpt>
      <trkpt lat="47.57595204748213291168212890625" lon="-3.050508834421634674072265625">
        <ele>2.7999999523162841796875</ele>
        <time>2026-08-15T16:34:06.000Z</time>
        <extensions>
          <ns3:TrackPointExtension>
            <ns3:hr>126</ns3:hr>
          </ns3:TrackPointExtension>
        </extensions>
      </trkpt>
      <trkpt lat="47.57594282738864421844482421875" lon="-3.0504885502159595489501953125">
        <ele>2.599999904632568359375</ele>
        <time>2026-08-15T16:34:07.000Z</time>
        <extensions>
          <ns3:TrackPointExtension>
            <ns3:hr>126</ns3:hr>
          </ns3:TrackPointExtension>
        </extensions>
      </trkpt>
      <trkpt lat="47.57593209855258464813232421875" lon="-3.05047027766704559326171875">
        <ele>2.400000095367431640625</ele>
        <time>2026-08-15T16:34:08.000Z</time>
        <extensions>
          <ns3:TrackPointExtension>
            <ns3:hr>126</ns3:hr>
          </ns3:TrackPointExtension>
        </extensions>
      </trkpt>
      <trkpt lat="47.57592321373522281646728515625" lon="-3.05046088993549346923828125">
        <ele>2</ele>
        <time>2026-08-15T16:34:09.000Z</time>
        <extensions>
          <ns3:TrackPointExtension>
            <ns3:hr>125</ns3:hr>
          </ns3:TrackPointExtension>
        </extensions>
      </trkpt>
      <trkpt lat="47.57591701112687587738037109375" lon="-3.0504509992897510528564453125">
        <ele>2</ele>
        <time>2026-08-15T16:34:10.000Z</time>
        <extensions>
          <ns3:TrackPointExtension>
            <ns3:hr>125</ns3:hr>
          </ns3:TrackPointExtension>
        </extensions>
      </trkpt>
      <trkpt lat="47.57590594701468944549560546875" lon="-3.05043767206370830535888671875">
        <ele>2.2000000476837158203125</ele>
        <time>2026-08-15T16:34:11.000Z</time>
        <extensions>
          <ns3:TrackPointExtension>
            <ns3:hr>125</ns3:hr>
          </ns3:TrackPointExtension>
        </extensions>
      </trkpt>
      <trkpt lat="47.575895972549915313720703125" lon="-3.05042945779860019683837890625">
        <ele>2.400000095367431640625</ele>
        <time>2026-08-15T16:34:12.000Z</time>
        <extensions>
          <ns3:TrackPointExtension>
            <ns3:hr>124</ns3:hr>
          </ns3:TrackPointExtension>
        </extensions>
      </trkpt>
      <trkpt lat="47.575886584818363189697265625" lon="-3.05041923187673091888427734375">
        <ele>2.599999904632568359375</ele>
        <time>2026-08-15T16:34:13.000Z</time>
        <extensions>
          <ns3:TrackPointExtension>
            <ns3:hr>124</ns3:hr>
          </ns3:TrackPointExtension>
        </extensions>
      </trkpt>
      <trkpt lat="47.575883567333221435546875" lon="-3.05041487328708171844482421875">
        <ele>3</ele>
        <time>2026-08-15T16:34:14.000Z</time>
        <extensions>
          <ns3:TrackPointExtension>
            <ns3:hr>124</ns3:hr>
          </ns3:TrackPointExtension>
        </extensions>
      </trkpt>
      <trkpt lat="47.57588029839098453521728515625" lon="-3.050418309867382049560546875">
        <ele>3</ele>
        <time>2026-08-15T16:34:15.000Z</time>
        <extensions>
          <ns3:TrackPointExtension>
            <ns3:hr>123</ns3:hr>
          </ns3:TrackPointExtension>
        </extensions>
      </trkpt>
      <trkpt lat="47.5758726708590984344482421875" lon="-3.0504186451435089111328125">
        <ele>3</ele>
        <time>2026-08-15T16:34:16.000Z</time>
        <extensions>
          <ns3:TrackPointExtension>
            <ns3:hr>123</ns3:hr>
          </ns3:TrackPointExtension>
        </extensions>
      </trkpt>
      <trkpt lat="47.5758656300604343414306640625" lon="-3.05041353218257427215576171875">
        <ele>3</ele>
        <time>2026-08-15T16:34:17.000Z</time>
        <extensions>
          <ns3:TrackPointExtension>
            <ns3:hr>123</ns3:hr>
          </ns3:TrackPointExtension>
        </extensions>
      </trkpt>
      <trkpt lat="47.57586169056594371795654296875" lon="-3.05040615610778331756591796875">
        <ele>3</ele>
        <time>2026-08-15T16:34:18.000Z</time>
        <extensions>
          <ns3:TrackPointExtension>
            <ns3:hr>123</ns3:hr>
          </ns3:TrackPointExtension>
        </extensions>
      </trkpt>
      <trkpt lat="47.57586001418530941009521484375" lon="-3.05040397681295871734619140625">
        <ele>2.7999999523162841796875</ele>
        <time>2026-08-15T16:34:19.000Z</time>
        <extensions>
          <ns3:TrackPointExtension>
            <ns3:hr>123</ns3:hr>
          </ns3:TrackPointExtension>
        </extensions>
      </trkpt>
      <trkpt lat="47.57585196755826473236083984375" lon="-3.0503918230533599853515625">
        <ele>2.7999999523162841796875</ele>
        <time>2026-08-15T16:34:20.000Z</time>
        <extensions>
          <ns3:TrackPointExtension>
            <ns3:hr>122</ns3:hr>
          </ns3:TrackPointExtension>
        </extensions>
      </trkpt>
      <trkpt lat="47.57584660314023494720458984375" lon="-3.0503758974373340606689453125">
        <ele>3</ele>
        <time>2026-08-15T16:34:21.000Z</time>
        <extensions>
          <ns3:TrackPointExtension>
            <ns3:hr>122</ns3:hr>
          </ns3:TrackPointExtension>
        </extensions>
      </trkpt>
      <trkpt lat="47.5758428312838077545166015625" lon="-3.05036173202097415924072265625">
        <ele>3</ele>
        <time>2026-08-15T16:34:22.000Z</time>
        <extensions>
          <ns3:TrackPointExtension>
            <ns3:hr>122</ns3:hr>
          </ns3:TrackPointExtension>
        </extensions>
      </trkpt>
      <trkpt lat="47.57584408856928348541259765625" lon="-3.050354607403278350830078125">
        <ele>3.2000000476837158203125</ele>
        <time>2026-08-15T16:34:23.000Z</time>
        <extensions>
          <ns3:TrackPointExtension>
            <ns3:hr>122</ns3:hr>
          </ns3:TrackPointExtension>
        </extensions>
      </trkpt>
      <trkpt lat="47.57584107108414173126220703125" lon="-3.050347901880741119384765625">
        <ele>3.2000000476837158203125</ele>
        <time>2026-08-15T16:34:24.000Z</time>
        <extensions>
          <ns3:TrackPointExtension>
            <ns3:hr>122</ns3:hr>
          </ns3:TrackPointExtension>
        </extensions>
      </trkpt>
      <trkpt lat="47.57583864033222198486328125" lon="-3.05034689605236053466796875">
        <ele>3.400000095367431640625</ele>
        <time>2026-08-15T16:34:25.000Z</time>
        <extensions>
          <ns3:TrackPointExtension>
            <ns3:hr>122</ns3:hr>
          </ns3:TrackPointExtension>
        </extensions>
      </trkpt>
      <trkpt lat="47.57583352737128734588623046875" lon="-3.05034161545336246490478515625">
        <ele>3.400000095367431640625</ele>
        <time>2026-08-15T16:34:26.000Z</time>
        <extensions>
          <ns3:TrackPointExtension>
            <ns3:hr>122</ns3:hr>
          </ns3:TrackPointExtension>
        </extensions>
      </trkpt>
      <trkpt lat="47.57583067752420902252197265625" lon="-3.05033641867339611053466796875">
        <ele>3.2000000476837158203125</ele>
        <time>2026-08-15T16:34:27.000Z</time>
        <extensions>
          <ns3:TrackPointExtension>
            <ns3:hr>122</ns3:hr>
          </ns3:TrackPointExtension>
        </extensions>
      </trkpt>
      <trkpt lat="47.57582447491586208343505859375" lon="-3.05033373646438121795654296875">
        <ele>3.2000000476837158203125</ele>
        <time>2026-08-15T16:34:28.000Z</time>
        <extensions>
          <ns3:TrackPointExtension>
            <ns3:hr>121</ns3:hr>
          </ns3:TrackPointExtension>
        </extensions>
      </trkpt>
      <trkpt lat="47.57582229562103748321533203125" lon="-3.05033775977790355682373046875">
        <ele>3</ele>
        <time>2026-08-15T16:34:29.000Z</time>
        <extensions>
          <ns3:TrackPointExtension>
            <ns3:hr>119</ns3:hr>
          </ns3:TrackPointExtension>
        </extensions>
      </trkpt>
      <trkpt lat="47.57581642828881740570068359375" lon="-3.050341196358203887939453125">
        <ele>3</ele>
        <time>2026-08-15T16:34:30.000Z</time>
        <extensions>
          <ns3:TrackPointExtension>
            <ns3:hr>118</ns3:hr>
          </ns3:TrackPointExtension>
        </extensions>
      </trkpt>
      <trkpt lat="47.5758111476898193359375" lon="-3.05033775977790355682373046875">
        <ele>2.7999999523162841796875</ele>
        <time>2026-08-15T16:34:31.000Z</time>
        <extensions>
          <ns3:TrackPointExtension>
            <ns3:hr>118</ns3:hr>
          </ns3:TrackPointExtension>
        </extensions>
      </trkpt>
      <trkpt lat="47.5758069567382335662841796875" lon="-3.05031646974384784698486328125">
        <ele>2.7999999523162841796875</ele>
        <time>2026-08-15T16:34:32.000Z</time>
        <extensions>
          <ns3:TrackPointExtension>
            <ns3:hr>118</ns3:hr>
          </ns3:TrackPointExtension>
        </extensions>
      </trkpt>
      <trkpt lat="47.5758039392530918121337890625" lon="-3.05031194351613521575927734375">
        <ele>2.7999999523162841796875</ele>
        <time>2026-08-15T16:34:33.000Z</time>
        <extensions>
          <ns3:TrackPointExtension>
            <ns3:hr>118</ns3:hr>
          </ns3:TrackPointExtension>
        </extensions>
      </trkpt>
      <trkpt lat="47.5758017599582672119140625" lon="-3.05030934512615203857421875">
        <ele>2.599999904632568359375</ele>
        <time>2026-08-15T16:34:34.000Z</time>
        <extensions>
          <ns3:TrackPointExtension>
            <ns3:hr>118</ns3:hr>
          </ns3:TrackPointExtension>
        </extensions>
      </trkpt>
      <trkpt lat="47.5758017599582672119140625" lon="-3.05030934512615203857421875">
        <ele>2.599999904632568359375</ele>
        <time>2026-08-15T16:34:35.000Z</time>
        <extensions>
          <ns3:TrackPointExtension>
            <ns3:hr>117</ns3:hr>
          </ns3:TrackPointExtension>
        </extensions>
      </trkpt>
      <trkpt lat="47.5758017599582672119140625" lon="-3.05030934512615203857421875">
        <ele>2.599999904632568359375</ele>
        <time>2026-08-15T16:34:36.000Z</time>
        <extensions>
          <ns3:TrackPointExtension>
            <ns3:hr>117</ns3:hr>
          </ns3:TrackPointExtension>
        </extensions>
      </trkpt>
      <trkpt lat="47.5758022628724575042724609375" lon="-3.0502994544804096221923828125">
        <ele>2.7999999523162841796875</ele>
        <time>2026-08-15T16:34:37.000Z</time>
        <extensions>
          <ns3:TrackPointExtension>
            <ns3:hr>117</ns3:hr>
          </ns3:TrackPointExtension>
        </extensions>
      </trkpt>
      <trkpt lat="47.57579396478831768035888671875" lon="-3.05029551498591899871826171875">
        <ele>3</ele>
        <time>2026-08-15T16:34:38.000Z</time>
        <extensions>
          <ns3:TrackPointExtension>
            <ns3:hr>114</ns3:hr>
          </ns3:TrackPointExtension>
        </extensions>
      </trkpt>
      <trkpt lat="47.575788684189319610595703125" lon="-3.05029056966304779052734375">
        <ele>3</ele>
        <time>2026-08-15T16:34:39.000Z</time>
        <extensions>
          <ns3:TrackPointExtension>
            <ns3:hr>109</ns3:hr>
          </ns3:TrackPointExtension>
        </extensions>
      </trkpt>
      <trkpt lat="47.57578591816127300262451171875" lon="-3.05028118193149566650390625">
        <ele>3</ele>
        <time>2026-08-15T16:34:40.000Z</time>
        <extensions>
          <ns3:TrackPointExtension>
            <ns3:hr>105</ns3:hr>
          </ns3:TrackPointExtension>
        </extensions>
      </trkpt>
      <trkpt lat="47.57578365504741668701171875" lon="-3.0502615682780742645263671875">
        <ele>2.7999999523162841796875</ele>
        <time>2026-08-15T16:34:41.000Z</time>
        <extensions>
          <ns3:TrackPointExtension>
            <ns3:hr>95</ns3:hr>
          </ns3:TrackPointExtension>
        </extensions>
      </trkpt>
      <trkpt lat="47.575779296457767486572265625" lon="-3.05026098154485225677490234375">
        <ele>2.7999999523162841796875</ele>
        <time>2026-08-15T16:34:42.000Z</time>
        <extensions>
          <ns3:TrackPointExtension>
            <ns3:hr>92</ns3:hr>
          </ns3:TrackPointExtension>
        </extensions>
      </trkpt>
      <trkpt lat="47.575779296457767486572265625" lon="-3.05026098154485225677490234375">
        <ele>2.599999904632568359375</ele>
        <time>2026-08-15T16:34:43.000Z</time>
        <extensions>
          <ns3:TrackPointExtension>
            <ns3:hr>94</ns3:hr>
          </ns3:TrackPointExtension>
        </extensions>
      </trkpt>
      <trkpt lat="47.575779296457767486572265625" lon="-3.05026098154485225677490234375">
        <ele>2.599999904632568359375</ele>
        <time>2026-08-15T16:34:44.000Z</time>
        <extensions>
          <ns3:TrackPointExtension>
            <ns3:hr>95</ns3:hr>
          </ns3:TrackPointExtension>
        </extensions>
      </trkpt>
      <trkpt lat="47.575781978666782379150390625" lon="-3.050262741744518280029296875">
        <ele>2.400000095367431640625</ele>
        <time>2026-08-15T16:34:45.000Z</time>
        <extensions>
          <ns3:TrackPointExtension>
            <ns3:hr>96</ns3:hr>
          </ns3:TrackPointExtension>
        </extensions>
      </trkpt>
      <trkpt lat="47.57578407414257526397705078125" lon="-3.05025704205036163330078125">
        <ele>2.599999904632568359375</ele>
        <time>2026-08-15T16:34:46.000Z</time>
        <extensions>
          <ns3:TrackPointExtension>
            <ns3:hr>98</ns3:hr>
          </ns3:TrackPointExtension>
        </extensions>
      </trkpt>
      <trkpt lat="47.57577938027679920196533203125" lon="-3.05025846697390079498291015625">
        <ele>2.599999904632568359375</ele>
        <time>2026-08-15T16:34:47.000Z</time>
        <extensions>
          <ns3:TrackPointExtension>
            <ns3:hr>99</ns3:hr>
          </ns3:TrackPointExtension>
        </extensions>
      </trkpt>
      <trkpt lat="47.57578172720968723297119140625" lon="-3.050247989594936370849609375">
        <ele>2.599999904632568359375</ele>
        <time>2026-08-15T16:34:48.000Z</time>
        <extensions>
          <ns3:TrackPointExtension>
            <ns3:hr>100</ns3:hr>
          </ns3:TrackPointExtension>
        </extensions>
      </trkpt>
      <trkpt lat="47.57577904500067234039306640625" lon="-3.05024254135787487030029296875">
        <ele>2.7999999523162841796875</ele>
        <time>2026-08-15T16:34:49.000Z</time>
        <extensions>
          <ns3:TrackPointExtension>
            <ns3:hr>101</ns3:hr>
          </ns3:TrackPointExtension>
        </extensions>
      </trkpt>
      <trkpt lat="47.57577359676361083984375" lon="-3.0502397753298282623291015625">
        <ele>3</ele>
        <time>2026-08-15T16:34:50.000Z</time>
        <extensions>
          <ns3:TrackPointExtension>
            <ns3:hr>101</ns3:hr>
          </ns3:TrackPointExtension>
        </extensions>
      </trkpt>
      <trkpt lat="47.5757730938494205474853515625" lon="-3.0502297170460224151611328125">
        <ele>3</ele>
        <time>2026-08-15T16:34:51.000Z</time>
        <extensions>
          <ns3:TrackPointExtension>
            <ns3:hr>101</ns3:hr>
          </ns3:TrackPointExtension>
        </extensions>
      </trkpt>
      <trkpt lat="47.57577301003038883209228515625" lon="-3.0502300523221492767333984375">
        <ele>3</ele>
        <time>2026-08-15T16:34:52.000Z</time>
        <extensions>
          <ns3:TrackPointExtension>
            <ns3:hr>102</ns3:hr>
          </ns3:TrackPointExtension>
        </extensions>
      </trkpt>
      <trkpt lat="47.57576798088848590850830078125" lon="-3.0502203293144702911376953125">
        <ele>2.7999999523162841796875</ele>
        <time>2026-08-15T16:34:53.000Z</time>
        <extensions>
          <ns3:TrackPointExtension>
            <ns3:hr>103</ns3:hr>
          </ns3:TrackPointExtension>
        </extensions>
      </trkpt>
      <trkpt lat="47.57576747797429561614990234375" lon="-3.05021370761096477508544921875">
        <ele>2.599999904632568359375</ele>
        <time>2026-08-15T16:34:54.000Z</time>
        <extensions>
          <ns3:TrackPointExtension>
            <ns3:hr>104</ns3:hr>
          </ns3:TrackPointExtension>
        </extensions>
      </trkpt>
      <trkpt lat="47.57576496340334415435791015625" lon="-3.0502174794673919677734375">
        <ele>2.400000095367431640625</ele>
        <time>2026-08-15T16:34:55.000Z</time>
        <extensions>
          <ns3:TrackPointExtension>
            <ns3:hr>104</ns3:hr>
          </ns3:TrackPointExtension>
        </extensions>
      </trkpt>
      <trkpt lat="47.57576496340334415435791015625" lon="-3.0502174794673919677734375">
        <ele>2.2000000476837158203125</ele>
        <time>2026-08-15T16:34:56.000Z</time>
        <extensions>
          <ns3:TrackPointExtension>
            <ns3:hr>106</ns3:hr>
          </ns3:TrackPointExtension>
        </extensions>
      </trkpt>
      <trkpt lat="47.57576496340334415435791015625" lon="-3.0502174794673919677734375">
        <ele>2</ele>
        <time>2026-08-15T16:34:57.000Z</time>
        <extensions>
          <ns3:TrackPointExtension>
            <ns3:hr>107</ns3:hr>
          </ns3:TrackPointExtension>
        </extensions>
      </trkpt>
      <trkpt lat="47.57576496340334415435791015625" lon="-3.0502174794673919677734375">
        <ele>2</ele>
        <time>2026-08-15T16:34:58.000Z</time>
        <extensions>
          <ns3:TrackPointExtension>
            <ns3:hr>108</ns3:hr>
          </ns3:TrackPointExtension>
        </extensions>
      </trkpt>
      <trkpt lat="47.57576161064207553863525390625" lon="-3.0502119474112987518310546875">
        <ele>2</ele>
        <time>2026-08-15T16:34:59.000Z</time>
        <extensions>
          <ns3:TrackPointExtension>
            <ns3:hr>109</ns3:hr>
          </ns3:TrackPointExtension>
        </extensions>
      </trkpt>
      <trkpt lat="47.57575624622404575347900390625" lon="-3.05020272731781005859375">
        <ele>2</ele>
        <time>2026-08-15T16:35:00.000Z</time>
        <extensions>
          <ns3:TrackPointExtension>
            <ns3:hr>109</ns3:hr>
          </ns3:TrackPointExtension>
        </extensions>
      </trkpt>
      <trkpt lat="47.57575222291052341461181640625" lon="-3.05019744671881198883056640625">
        <ele>2.2000000476837158203125</ele>
        <time>2026-08-15T16:35:01.000Z</time>
        <extensions>
          <ns3:TrackPointExtension>
            <ns3:hr>110</ns3:hr>
          </ns3:TrackPointExtension>
        </extensions>
      </trkpt>
      <trkpt lat="47.57575222291052341461181640625" lon="-3.05019744671881198883056640625">
        <ele>2.400000095367431640625</ele>
        <time>2026-08-15T16:35:02.000Z</time>
        <extensions>
          <ns3:TrackPointExtension>
            <ns3:hr>110</ns3:hr>
          </ns3:TrackPointExtension>
        </extensions>
      </trkpt>
      <trkpt lat="47.5757462717592716217041015625" lon="-3.05020465515553951263427734375">
        <ele>2.400000095367431640625</ele>
        <time>2026-08-15T16:35:03.000Z</time>
        <extensions>
          <ns3:TrackPointExtension>
            <ns3:hr>111</ns3:hr>
          </ns3:TrackPointExtension>
        </extensions>
      </trkpt>
      <trkpt lat="47.575750462710857391357421875" lon="-3.0502035655081272125244140625">
        <ele>2.400000095367431640625</ele>
        <time>2026-08-15T16:35:04.000Z</time>
        <extensions>
          <ns3:TrackPointExtension>
            <ns3:hr>111</ns3:hr>
          </ns3:TrackPointExtension>
        </extensions>
      </trkpt>
      <trkpt lat="47.575754486024379730224609375" lon="-3.05020264349877834320068359375">
        <ele>2.400000095367431640625</ele>
        <time>2026-08-15T16:35:05.000Z</time>
        <extensions>
          <ns3:TrackPointExtension>
            <ns3:hr>111</ns3:hr>
          </ns3:TrackPointExtension>
        </extensions>
      </trkpt>
      <trkpt lat="47.57575758732855319976806640625" lon="-3.05020197294652462005615234375">
        <ele>2.400000095367431640625</ele>
        <time>2026-08-15T16:35:06.000Z</time>
        <extensions>
          <ns3:TrackPointExtension>
            <ns3:hr>112</ns3:hr>
          </ns3:TrackPointExtension>
        </extensions>
      </trkpt>
      <trkpt lat="47.575760185718536376953125" lon="-3.05018789134919643402099609375">
        <ele>2.400000095367431640625</ele>
        <time>2026-08-15T16:35:08.000Z</time>
        <extensions>
          <ns3:TrackPointExtension>
            <ns3:hr>116</ns3:hr>
          </ns3:TrackPointExtension>
        </extensions>
      </trkpt>
      <trkpt lat="47.575759850442409515380859375" lon="-3.050178252160549163818359375">
        <ele>2.400000095367431640625</ele>
        <time>2026-08-15T16:35:09.000Z</time>
        <extensions>
          <ns3:TrackPointExtension>
            <ns3:hr>123</ns3:hr>
          </ns3:TrackPointExtension>
        </extensions>
      </trkpt>
      <trkpt lat="47.5757399015128612518310546875" lon="-3.05017347447574138641357421875">
        <ele>2.400000095367431640625</ele>
        <time>2026-08-15T16:35:10.000Z</time>
        <extensions>
          <ns3:TrackPointExtension>
            <ns3:hr>122</ns3:hr>
          </ns3:TrackPointExtension>
        </extensions>
      </trkpt>
      <trkpt lat="47.57573110051453113555908203125" lon="-3.0501584708690643310546875">
        <ele>2.400000095367431640625</ele>
        <time>2026-08-15T16:35:11.000Z</time>
        <extensions>
          <ns3:TrackPointExtension>
            <ns3:hr>121</ns3:hr>
          </ns3:TrackPointExtension>
        </extensions>
      </trkpt>
      <trkpt lat="47.5757204554975032806396484375" lon="-3.05014464072883129119873046875">
        <ele>2.400000095367431640625</ele>
        <time>2026-08-15T16:35:12.000Z</time>
        <extensions>
          <ns3:TrackPointExtension>
            <ns3:hr>121</ns3:hr>
          </ns3:TrackPointExtension>
        </extensions>
      </trkpt>
      <trkpt lat="47.5757140852510929107666015625" lon="-3.0501368455588817596435546875">
        <ele>2.400000095367431640625</ele>
        <time>2026-08-15T16:35:13.000Z</time>
        <extensions>
          <ns3:TrackPointExtension>
            <ns3:hr>121</ns3:hr>
          </ns3:TrackPointExtension>
        </extensions>
      </trkpt>
      <trkpt lat="47.5757375545799732208251953125" lon="-3.05017464794218540191650390625">
        <ele>2.400000095367431640625</ele>
        <time>2026-08-15T16:35:14.000Z</time>
        <extensions>
          <ns3:TrackPointExtension>
            <ns3:hr>122</ns3:hr>
          </ns3:TrackPointExtension>
        </extensions>
      </trkpt>
      <trkpt lat="47.57573671638965606689453125" lon="-3.05017917416989803314208984375">
        <ele>2.400000095367431640625</ele>
        <time>2026-08-15T16:35:15.000Z</time>
        <extensions>
          <ns3:TrackPointExtension>
            <ns3:hr>123</ns3:hr>
          </ns3:TrackPointExtension>
        </extensions>
      </trkpt>
      <trkpt lat="47.5757375545799732208251953125" lon="-3.0501700378954410552978515625">
        <ele>2.400000095367431640625</ele>
        <time>2026-08-15T16:35:16.000Z</time>
        <extensions>
          <ns3:TrackPointExtension>
            <ns3:hr>124</ns3:hr>
          </ns3:TrackPointExtension>
        </extensions>
      </trkpt>
      <trkpt lat="47.5757365487515926361083984375" lon="-3.05015939287841320037841796875">
        <ele>2.2000000476837158203125</ele>
        <time>2026-08-15T16:35:17.000Z</time>
        <extensions>
          <ns3:TrackPointExtension>
            <ns3:hr>125</ns3:hr>
          </ns3:TrackPointExtension>
        </extensions>
      </trkpt>
      <trkpt lat="47.5757385604083538055419921875" lon="-3.05015084333717823028564453125">
        <ele>2.2000000476837158203125</ele>
        <time>2026-08-15T16:35:18.000Z</time>
        <extensions>
          <ns3:TrackPointExtension>
            <ns3:hr>126</ns3:hr>
          </ns3:TrackPointExtension>
        </extensions>
      </trkpt>
      <trkpt lat="47.57574400864541530609130859375" lon="-3.05012854747474193572998046875">
        <ele>2.2000000476837158203125</ele>
        <time>2026-08-15T16:35:19.000Z</time>
        <extensions>
          <ns3:TrackPointExtension>
            <ns3:hr>127</ns3:hr>
          </ns3:TrackPointExtension>
        </extensions>
      </trkpt>
      <trkpt lat="47.5757616944611072540283203125" lon="-3.050173223018646240234375">
        <ele>2.2000000476837158203125</ele>
        <time>2026-08-15T16:35:20.000Z</time>
        <extensions>
          <ns3:TrackPointExtension>
            <ns3:hr>128</ns3:hr>
          </ns3:TrackPointExtension>
        </extensions>
      </trkpt>
      <trkpt lat="47.5757653824985027313232421875" lon="-3.05018269456923007965087890625">
        <ele>2.400000095367431640625</ele>
        <time>2026-08-15T16:35:21.000Z</time>
        <extensions>
          <ns3:TrackPointExtension>
            <ns3:hr>129</ns3:hr>
          </ns3:TrackPointExtension>
        </extensions>
      </trkpt>
      <trkpt lat="47.57574585266411304473876953125" lon="-3.05018118582665920257568359375">
        <ele>2.400000095367431640625</ele>
        <time>2026-08-15T16:35:22.000Z</time>
        <extensions>
          <ns3:TrackPointExtension>
            <ns3:hr>131</ns3:hr>
          </ns3:TrackPointExtension>
        </extensions>
      </trkpt>
      <trkpt lat="47.57574803195893764495849609375" lon="-3.050177581608295440673828125">
        <ele>2.400000095367431640625</ele>
        <time>2026-08-15T16:35:23.000Z</time>
        <extensions>
          <ns3:TrackPointExtension>
            <ns3:hr>131</ns3:hr>
          </ns3:TrackPointExtension>
        </extensions>
      </trkpt>
      <trkpt lat="47.57574048824608325958251953125" lon="-3.05019509978592395782470703125">
        <ele>2.400000095367431640625</ele>
        <time>2026-08-15T16:35:24.000Z</time>
        <extensions>
          <ns3:TrackPointExtension>
            <ns3:hr>132</ns3:hr>
          </ns3:TrackPointExtension>
        </extensions>
      </trkpt>
      <trkpt lat="47.57573579438030719757080078125" lon="-3.05019945837557315826416015625">
        <ele>2.599999904632568359375</ele>
        <time>2026-08-15T16:35:25.000Z</time>
        <extensions>
          <ns3:TrackPointExtension>
            <ns3:hr>131</ns3:hr>
          </ns3:TrackPointExtension>
        </extensions>
      </trkpt>
      <trkpt lat="47.5757395662367343902587890625" lon="-3.05019929073750972747802734375">
        <ele>2.599999904632568359375</ele>
        <time>2026-08-15T16:35:26.000Z</time>
        <extensions>
          <ns3:TrackPointExtension>
            <ns3:hr>130</ns3:hr>
          </ns3:TrackPointExtension>
        </extensions>
      </trkpt>
      <trkpt lat="47.5757385604083538055419921875" lon="-3.050187639892101287841796875">
        <ele>2.599999904632568359375</ele>
        <time>2026-08-15T16:35:27.000Z</time>
        <extensions>
          <ns3:TrackPointExtension>
            <ns3:hr>129</ns3:hr>
          </ns3:TrackPointExtension>
        </extensions>
      </trkpt>
      <trkpt lat="47.57573998533189296722412109375" lon="-3.050173223018646240234375">
        <ele>2.599999904632568359375</ele>
        <time>2026-08-15T16:35:28.000Z</time>
        <extensions>
          <ns3:TrackPointExtension>
            <ns3:hr>129</ns3:hr>
          </ns3:TrackPointExtension>
        </extensions>
      </trkpt>
      <trkpt lat="47.57573629729449748992919921875" lon="-3.0501653440296649932861328125">
        <ele>2.400000095367431640625</ele>
        <time>2026-08-15T16:35:29.000Z</time>
        <extensions>
          <ns3:TrackPointExtension>
            <ns3:hr>127</ns3:hr>
          </ns3:TrackPointExtension>
        </extensions>
      </trkpt>
      <trkpt lat="47.57572992704808712005615234375" lon="-3.05017054080963134765625">
        <ele>2</ele>
        <time>2026-08-15T16:35:30.000Z</time>
        <extensions>
          <ns3:TrackPointExtension>
            <ns3:hr>126</ns3:hr>
          </ns3:TrackPointExtension>
        </extensions>
      </trkpt>
      <trkpt lat="47.5757177732884883880615234375" lon="-3.05018302984535694122314453125">
        <ele>1.7999999523162841796875</ele>
        <time>2026-08-15T16:35:31.000Z</time>
        <extensions>
          <ns3:TrackPointExtension>
            <ns3:hr>126</ns3:hr>
          </ns3:TrackPointExtension>
        </extensions>
      </trkpt>
      <trkpt lat="47.5757103972136974334716796875" lon="-3.05017900653183460235595703125">
        <ele>1.39999997615814208984375</ele>
        <time>2026-08-15T16:35:32.000Z</time>
        <extensions>
          <ns3:TrackPointExtension>
            <ns3:hr>125</ns3:hr>
          </ns3:TrackPointExtension>
        </extensions>
      </trkpt>
      <trkpt lat="47.57570478133857250213623046875" lon="-3.05017255246639251708984375">
        <ele>1.39999997615814208984375</ele>
        <time>2026-08-15T16:35:33.000Z</time>
        <extensions>
          <ns3:TrackPointExtension>
            <ns3:hr>123</ns3:hr>
          </ns3:TrackPointExtension>
        </extensions>
      </trkpt>
      <trkpt lat="47.57570394314825534820556640625" lon="-3.050178252160549163818359375">
        <ele>1.39999997615814208984375</ele>
        <time>2026-08-15T16:35:34.000Z</time>
        <extensions>
          <ns3:TrackPointExtension>
            <ns3:hr>122</ns3:hr>
          </ns3:TrackPointExtension>
        </extensions>
      </trkpt>
      <trkpt lat="47.575706876814365386962890625" lon="-3.05017665959894657135009765625">
        <ele>1.2000000476837158203125</ele>
        <time>2026-08-15T16:35:35.000Z</time>
        <extensions>
          <ns3:TrackPointExtension>
            <ns3:hr>122</ns3:hr>
          </ns3:TrackPointExtension>
        </extensions>
      </trkpt>
      <trkpt lat="47.575712241232395172119140625" lon="-3.05017045699059963226318359375">
        <ele>0.60000002384185791015625</ele>
        <time>2026-08-15T16:35:36.000Z</time>
        <extensions>
          <ns3:TrackPointExtension>
            <ns3:hr>122</ns3:hr>
          </ns3:TrackPointExtension>
        </extensions>
      </trkpt>
      <trkpt lat="47.57571215741336345672607421875" lon="-3.050164841115474700927734375">
        <ele>0.4000000059604644775390625</ele>
        <time>2026-08-15T16:35:37.000Z</time>
        <extensions>
          <ns3:TrackPointExtension>
            <ns3:hr>121</ns3:hr>
          </ns3:TrackPointExtension>
        </extensions>
      </trkpt>
      <trkpt lat="47.5757117383182048797607421875" lon="-3.0501586385071277618408203125">
        <ele>0</ele>
        <time>2026-08-15T16:35:38.000Z</time>
        <extensions>
          <ns3:TrackPointExtension>
            <ns3:hr>121</ns3:hr>
          </ns3:TrackPointExtension>
        </extensions>
      </trkpt>
      <trkpt lat="47.57571064867079257965087890625" lon="-3.05015109479427337646484375">
        <ele>-0.60000002384185791015625</ele>
        <time>2026-08-15T16:35:39.000Z</time>
        <extensions>
          <ns3:TrackPointExtension>
            <ns3:hr>125</ns3:hr>
          </ns3:TrackPointExtension>
        </extensions>
      </trkpt>
      <trkpt lat="47.5757100619375705718994140625" lon="-3.050151430070400238037109375">
        <ele>-1</ele>
        <time>2026-08-15T16:35:40.000Z</time>
        <extensions>
          <ns3:TrackPointExtension>
            <ns3:hr>127</ns3:hr>
          </ns3:TrackPointExtension>
        </extensions>
      </trkpt>
      <trkpt lat="47.5757181085646152496337890625" lon="-3.05014749057590961456298828125">
        <ele>-1.60000002384185791015625</ele>
        <time>2026-08-15T16:35:41.000Z</time>
        <extensions>
          <ns3:TrackPointExtension>
            <ns3:hr>127</ns3:hr>
          </ns3:TrackPointExtension>
        </extensions>
      </trkpt>
      <trkpt lat="47.5757078826427459716796875" lon="-3.05014313198626041412353515625">
        <ele>-1.7999999523162841796875</ele>
        <time>2026-08-15T16:35:42.000Z</time>
        <extensions>
          <ns3:TrackPointExtension>
            <ns3:hr>126</ns3:hr>
          </ns3:TrackPointExtension>
        </extensions>
      </trkpt>
      <trkpt lat="47.5757078826427459716796875" lon="-3.05014313198626041412353515625">
        <ele>-2</ele>
        <time>2026-08-15T16:35:43.000Z</time>
        <extensions>
          <ns3:TrackPointExtension>
            <ns3:hr>125</ns3:hr>
          </ns3:TrackPointExtension>
        </extensions>
      </trkpt>
      <trkpt lat="47.5757078826427459716796875" lon="-3.05014313198626041412353515625">
        <ele>-2</ele>
        <time>2026-08-15T16:35:44.000Z</time>
        <extensions>
          <ns3:TrackPointExtension>
            <ns3:hr>125</ns3:hr>
          </ns3:TrackPointExtension>
        </extensions>
      </trkpt>
      <trkpt lat="47.5757078826427459716796875" lon="-3.05014313198626041412353515625">
        <ele>-2</ele>
        <time>2026-08-15T16:35:45.000Z</time>
        <extensions>
          <ns3:TrackPointExtension>
            <ns3:hr>125</ns3:hr>
          </ns3:TrackPointExtension>
        </extensions>
      </trkpt>
      <trkpt lat="47.5757078826427459716796875" lon="-3.05014313198626041412353515625">
        <ele>-2</ele>
        <time>2026-08-15T16:35:46.000Z</time>
        <extensions>
          <ns3:TrackPointExtension>
            <ns3:hr>124</ns3:hr>
          </ns3:TrackPointExtension>
        </extensions>
      </trkpt>
      <trkpt lat="47.57569706998765468597412109375" lon="-3.05013139732182025909423828125">
        <ele>-1.7999999523162841796875</ele>
        <time>2026-08-15T16:35:47.000Z</time>
        <extensions>
          <ns3:TrackPointExtension>
            <ns3:hr>125</ns3:hr>
          </ns3:TrackPointExtension>
        </extensions>
      </trkpt>
      <trkpt lat="47.5756931304931640625" lon="-3.050127290189266204833984375">
        <ele>-1.60000002384185791015625</ele>
        <time>2026-08-15T16:35:48.000Z</time>
        <extensions>
          <ns3:TrackPointExtension>
            <ns3:hr>126</ns3:hr>
          </ns3:TrackPointExtension>
        </extensions>
      </trkpt>
      <trkpt lat="47.57568701170384883880615234375" lon="-3.050119578838348388671875">
        <ele>-0.800000011920928955078125</ele>
        <time>2026-08-15T16:35:49.000Z</time>
        <extensions>
          <ns3:TrackPointExtension>
            <ns3:hr>126</ns3:hr>
          </ns3:TrackPointExtension>
        </extensions>
      </trkpt>
      <trkpt lat="47.5756837427616119384765625" lon="-3.050115220248699188232421875">
        <ele>0.20000000298023223876953125</ele>
        <time>2026-08-15T16:35:50.000Z</time>
        <extensions>
          <ns3:TrackPointExtension>
            <ns3:hr>126</ns3:hr>
          </ns3:TrackPointExtension>
        </extensions>
      </trkpt>
      <trkpt lat="47.5756785459816455841064453125" lon="-3.05011413060128688812255859375">
        <ele>1.60000002384185791015625</ele>
        <time>2026-08-15T16:35:51.000Z</time>
        <extensions>
          <ns3:TrackPointExtension>
            <ns3:hr>126</ns3:hr>
          </ns3:TrackPointExtension>
        </extensions>
      </trkpt>
      <trkpt lat="47.575674019753932952880859375" lon="-3.0501143820583820343017578125">
        <ele>2.2000000476837158203125</ele>
        <time>2026-08-15T16:35:52.000Z</time>
        <extensions>
          <ns3:TrackPointExtension>
            <ns3:hr>127</ns3:hr>
          </ns3:TrackPointExtension>
        </extensions>
      </trkpt>
      <trkpt lat="47.57566890679299831390380859375" lon="-3.05011530406773090362548828125">
        <ele>3.2000000476837158203125</ele>
        <time>2026-08-15T16:35:53.000Z</time>
        <extensions>
          <ns3:TrackPointExtension>
            <ns3:hr>127</ns3:hr>
          </ns3:TrackPointExtension>
        </extensions>
      </trkpt>
      <trkpt lat="47.57566991262137889862060546875" lon="-3.05011681281030178070068359375">
        <ele>4.19999980926513671875</ele>
        <time>2026-08-15T16:35:54.000Z</time>
        <extensions>
          <ns3:TrackPointExtension>
            <ns3:hr>127</ns3:hr>
          </ns3:TrackPointExtension>
        </extensions>
      </trkpt>
      <trkpt lat="47.5756647996604442596435546875" lon="-3.05011044256389141082763671875">
        <ele>4.80000019073486328125</ele>
        <time>2026-08-15T16:35:55.000Z</time>
        <extensions>
          <ns3:TrackPointExtension>
            <ns3:hr>126</ns3:hr>
          </ns3:TrackPointExtension>
        </extensions>
      </trkpt>
      <trkpt lat="47.575663626194000244140625" lon="-3.0501096881926059722900390625">
        <ele>5.19999980926513671875</ele>
        <time>2026-08-15T16:35:56.000Z</time>
        <extensions>
          <ns3:TrackPointExtension>
            <ns3:hr>126</ns3:hr>
          </ns3:TrackPointExtension>
        </extensions>
      </trkpt>
      <trkpt lat="47.57566035725176334381103515625" lon="-3.0501110292971134185791015625">
        <ele>5.599999904632568359375</ele>
        <time>2026-08-15T16:35:57.000Z</time>
        <extensions>
          <ns3:TrackPointExtension>
            <ns3:hr>126</ns3:hr>
          </ns3:TrackPointExtension>
        </extensions>
      </trkpt>
      <trkpt lat="47.57565834559500217437744140625" lon="-3.05010692216455936431884765625">
        <ele>5.80000019073486328125</ele>
        <time>2026-08-15T16:35:58.000Z</time>
        <extensions>
          <ns3:TrackPointExtension>
            <ns3:hr>127</ns3:hr>
          </ns3:TrackPointExtension>
        </extensions>
      </trkpt>
      <trkpt lat="47.57565767504274845123291015625" lon="-3.0501043237745761871337890625">
        <ele>6</ele>
        <time>2026-08-15T16:35:59.000Z</time>
        <extensions>
          <ns3:TrackPointExtension>
            <ns3:hr>127</ns3:hr>
          </ns3:TrackPointExtension>
        </extensions>
      </trkpt>
      <trkpt lat="47.57565566338598728179931640625" lon="-3.05010172538459300994873046875">
        <ele>6.19999980926513671875</ele>
        <time>2026-08-15T16:36:00.000Z</time>
        <extensions>
          <ns3:TrackPointExtension>
            <ns3:hr>128</ns3:hr>
          </ns3:TrackPointExtension>
        </extensions>
      </trkpt>
      <trkpt lat="47.57565298117697238922119140625" lon="-3.05009703151881694793701171875">
        <ele>6.19999980926513671875</ele>
        <time>2026-08-15T16:36:01.000Z</time>
        <extensions>
          <ns3:TrackPointExtension>
            <ns3:hr>128</ns3:hr>
          </ns3:TrackPointExtension>
        </extensions>
      </trkpt>
      <trkpt lat="47.57565096952021121978759765625" lon="-3.05009384639561176300048828125">
        <ele>6.400000095367431640625</ele>
        <time>2026-08-15T16:36:02.000Z</time>
        <extensions>
          <ns3:TrackPointExtension>
            <ns3:hr>129</ns3:hr>
          </ns3:TrackPointExtension>
        </extensions>
      </trkpt>
      <trkpt lat="47.57564418017864227294921875" lon="-3.05008915252983570098876953125">
        <ele>6.400000095367431640625</ele>
        <time>2026-08-15T16:36:03.000Z</time>
        <extensions>
          <ns3:TrackPointExtension>
            <ns3:hr>130</ns3:hr>
          </ns3:TrackPointExtension>
        </extensions>
      </trkpt>
      <trkpt lat="47.575635798275470733642578125" lon="-3.05007674731314182281494140625">
        <ele>6.400000095367431640625</ele>
        <time>2026-08-15T16:36:04.000Z</time>
        <extensions>
          <ns3:TrackPointExtension>
            <ns3:hr>131</ns3:hr>
          </ns3:TrackPointExtension>
        </extensions>
      </trkpt>
      <trkpt lat="47.57562917657196521759033203125" lon="-3.05006434209644794464111328125">
        <ele>6.19999980926513671875</ele>
        <time>2026-08-15T16:36:05.000Z</time>
        <extensions>
          <ns3:TrackPointExtension>
            <ns3:hr>131</ns3:hr>
          </ns3:TrackPointExtension>
        </extensions>
      </trkpt>
      <trkpt lat="47.5756292603909969329833984375" lon="-3.050054870545864105224609375">
        <ele>6</ele>
        <time>2026-08-15T16:36:06.000Z</time>
        <extensions>
          <ns3:TrackPointExtension>
            <ns3:hr>131</ns3:hr>
          </ns3:TrackPointExtension>
        </extensions>
      </trkpt>
      <trkpt lat="47.575629092752933502197265625" lon="-3.05005093105137348175048828125">
        <ele>5.80000019073486328125</ele>
        <time>2026-08-15T16:36:07.000Z</time>
        <extensions>
          <ns3:TrackPointExtension>
            <ns3:hr>131</ns3:hr>
          </ns3:TrackPointExtension>
        </extensions>
      </trkpt>
      <trkpt lat="47.5756275840103626251220703125" lon="-3.0500422976911067962646484375">
        <ele>5.80000019073486328125</ele>
        <time>2026-08-15T16:36:08.000Z</time>
        <extensions>
          <ns3:TrackPointExtension>
            <ns3:hr>130</ns3:hr>
          </ns3:TrackPointExtension>
        </extensions>
      </trkpt>
      <trkpt lat="47.575626075267791748046875" lon="-3.0500409565865993499755859375">
        <ele>5.599999904632568359375</ele>
        <time>2026-08-15T16:36:09.000Z</time>
        <extensions>
          <ns3:TrackPointExtension>
            <ns3:hr>129</ns3:hr>
          </ns3:TrackPointExtension>
        </extensions>
      </trkpt>
      <trkpt lat="47.57562431506812572479248046875" lon="-3.0500372685492038726806640625">
        <ele>5.400000095367431640625</ele>
        <time>2026-08-15T16:36:10.000Z</time>
        <extensions>
          <ns3:TrackPointExtension>
            <ns3:hr>127</ns3:hr>
          </ns3:TrackPointExtension>
        </extensions>
      </trkpt>
      <trkpt lat="47.5756193697452545166015625" lon="-3.05003114975988864898681640625">
        <ele>5.400000095367431640625</ele>
        <time>2026-08-15T16:36:11.000Z</time>
        <extensions>
          <ns3:TrackPointExtension>
            <ns3:hr>126</ns3:hr>
          </ns3:TrackPointExtension>
        </extensions>
      </trkpt>
      <trkpt lat="47.57561341859400272369384765625" lon="-3.05001673288643360137939453125">
        <ele>5.19999980926513671875</ele>
        <time>2026-08-15T16:36:12.000Z</time>
        <extensions>
          <ns3:TrackPointExtension>
            <ns3:hr>127</ns3:hr>
          </ns3:TrackPointExtension>
        </extensions>
      </trkpt>
      <trkpt lat="47.57560939528048038482666015625" lon="-3.0500042438507080078125">
        <ele>5.19999980926513671875</ele>
        <time>2026-08-15T16:36:13.000Z</time>
        <extensions>
          <ns3:TrackPointExtension>
            <ns3:hr>128</ns3:hr>
          </ns3:TrackPointExtension>
        </extensions>
      </trkpt>
      <trkpt lat="47.575607635080814361572265625" lon="-3.04999158717691898345947265625">
        <ele>5</ele>
        <time>2026-08-15T16:36:14.000Z</time>
        <extensions>
          <ns3:TrackPointExtension>
            <ns3:hr>127</ns3:hr>
          </ns3:TrackPointExtension>
        </extensions>
      </trkpt>
      <trkpt lat="47.57559992372989654541015625" lon="-3.04998136125504970550537109375">
        <ele>5</ele>
        <time>2026-08-15T16:36:15.000Z</time>
        <extensions>
          <ns3:TrackPointExtension>
            <ns3:hr>126</ns3:hr>
          </ns3:TrackPointExtension>
        </extensions>
      </trkpt>
      <trkpt lat="47.57559279911220073699951171875" lon="-3.0499745719134807586669921875">
        <ele>4.599999904632568359375</ele>
        <time>2026-08-15T16:36:16.000Z</time>
        <extensions>
          <ns3:TrackPointExtension>
            <ns3:hr>124</ns3:hr>
          </ns3:TrackPointExtension>
        </extensions>
      </trkpt>
      <trkpt lat="47.57558156736195087432861328125" lon="-3.04996878840029239654541015625">
        <ele>4.400000095367431640625</ele>
        <time>2026-08-15T16:36:17.000Z</time>
        <extensions>
          <ns3:TrackPointExtension>
            <ns3:hr>122</ns3:hr>
          </ns3:TrackPointExtension>
        </extensions>
      </trkpt>
      <trkpt lat="47.57557033561170101165771484375" lon="-3.0499613285064697265625">
        <ele>4.400000095367431640625</ele>
        <time>2026-08-15T16:36:18.000Z</time>
        <extensions>
          <ns3:TrackPointExtension>
            <ns3:hr>121</ns3:hr>
          </ns3:TrackPointExtension>
        </extensions>
      </trkpt>
      <trkpt lat="47.57555457763373851776123046875" lon="-3.0499531142413616180419921875">
        <ele>4.400000095367431640625</ele>
        <time>2026-08-15T16:36:19.000Z</time>
        <extensions>
          <ns3:TrackPointExtension>
            <ns3:hr>119</ns3:hr>
          </ns3:TrackPointExtension>
        </extensions>
      </trkpt>
      <trkpt lat="47.57553781382739543914794921875" lon="-3.0499427206814289093017578125">
        <ele>4.599999904632568359375</ele>
        <time>2026-08-15T16:36:20.000Z</time>
        <extensions>
          <ns3:TrackPointExtension>
            <ns3:hr>118</ns3:hr>
          </ns3:TrackPointExtension>
        </extensions>
      </trkpt>
      <trkpt lat="47.5755201280117034912109375" lon="-3.04993727244436740875244140625">
        <ele>4.599999904632568359375</ele>
        <time>2026-08-15T16:36:21.000Z</time>
        <extensions>
          <ns3:TrackPointExtension>
            <ns3:hr>118</ns3:hr>
          </ns3:TrackPointExtension>
        </extensions>
      </trkpt>
      <trkpt lat="47.5754948146641254425048828125" lon="-3.04992436431348323822021484375">
        <ele>4.80000019073486328125</ele>
        <time>2026-08-15T16:36:22.000Z</time>
        <extensions>
          <ns3:TrackPointExtension>
            <ns3:hr>117</ns3:hr>
          </ns3:TrackPointExtension>
        </extensions>
      </trkpt>
      <trkpt lat="47.57547327317297458648681640625" lon="-3.04991547949612140655517578125">
        <ele>5</ele>
        <time>2026-08-15T16:36:23.000Z</time>
        <extensions>
          <ns3:TrackPointExtension>
            <ns3:hr>116</ns3:hr>
          </ns3:TrackPointExtension>
        </extensions>
      </trkpt>
      <trkpt lat="47.5754428468644618988037109375" lon="-3.04990676231682300567626953125">
        <ele>5.599999904632568359375</ele>
        <time>2026-08-15T16:36:24.000Z</time>
        <extensions>
          <ns3:TrackPointExtension>
            <ns3:hr>115</ns3:hr>
          </ns3:TrackPointExtension>
        </extensions>
      </trkpt>
      <trkpt lat="47.57540990598499774932861328125" lon="-3.04989770986139774322509765625">
        <ele>5.400000095367431640625</ele>
        <time>2026-08-15T16:36:25.000Z</time>
        <extensions>
          <ns3:TrackPointExtension>
            <ns3:hr>114</ns3:hr>
          </ns3:TrackPointExtension>
        </extensions>
      </trkpt>
      <trkpt lat="47.5753818266093730926513671875" lon="-3.0498830415308475494384765625">
        <ele>5.400000095367431640625</ele>
        <time>2026-08-15T16:36:26.000Z</time>
        <extensions>
          <ns3:TrackPointExtension>
            <ns3:hr>114</ns3:hr>
          </ns3:TrackPointExtension>
        </extensions>
      </trkpt>
      <trkpt lat="47.57536699064075946807861328125" lon="-3.04986468516290187835693359375">
        <ele>5</ele>
        <time>2026-08-15T16:36:27.000Z</time>
        <extensions>
          <ns3:TrackPointExtension>
            <ns3:hr>113</ns3:hr>
          </ns3:TrackPointExtension>
        </extensions>
      </trkpt>
      <trkpt lat="47.57535316050052642822265625" lon="-3.04985177703201770782470703125">
        <ele>4.400000095367431640625</ele>
        <time>2026-08-15T16:36:28.000Z</time>
        <extensions>
          <ns3:TrackPointExtension>
            <ns3:hr>112</ns3:hr>
          </ns3:TrackPointExtension>
        </extensions>
      </trkpt>
      <trkpt lat="47.57533949799835681915283203125" lon="-3.0498438142240047454833984375">
        <ele>4</ele>
        <time>2026-08-15T16:36:29.000Z</time>
        <extensions>
          <ns3:TrackPointExtension>
            <ns3:hr>112</ns3:hr>
          </ns3:TrackPointExtension>
        </extensions>
      </trkpt>
      <trkpt lat="47.57532994262874126434326171875" lon="-3.04983953945338726043701171875">
        <ele>3.599999904632568359375</ele>
        <time>2026-08-15T16:36:30.000Z</time>
        <extensions>
          <ns3:TrackPointExtension>
            <ns3:hr>111</ns3:hr>
          </ns3:TrackPointExtension>
        </extensions>
      </trkpt>
      <trkpt lat="47.57531468756496906280517578125" lon="-3.049834258854389190673828125">
        <ele>3.599999904632568359375</ele>
        <time>2026-08-15T16:36:31.000Z</time>
        <extensions>
          <ns3:TrackPointExtension>
            <ns3:hr>111</ns3:hr>
          </ns3:TrackPointExtension>
        </extensions>
      </trkpt>
      <trkpt lat="47.5752970017492771148681640625" lon="-3.04983048699796199798583984375">
        <ele>3.599999904632568359375</ele>
        <time>2026-08-15T16:36:32.000Z</time>
        <extensions>
          <ns3:TrackPointExtension>
            <ns3:hr>111</ns3:hr>
          </ns3:TrackPointExtension>
        </extensions>
      </trkpt>
      <trkpt lat="47.57527931593358516693115234375" lon="-3.04982579313218593597412109375">
        <ele>3.599999904632568359375</ele>
        <time>2026-08-15T16:36:33.000Z</time>
        <extensions>
          <ns3:TrackPointExtension>
            <ns3:hr>110</ns3:hr>
          </ns3:TrackPointExtension>
        </extensions>
      </trkpt>
      <trkpt lat="47.57526691071689128875732421875" lon="-3.04982629604637622833251953125">
        <ele>3.599999904632568359375</ele>
        <time>2026-08-15T16:36:34.000Z</time>
        <extensions>
          <ns3:TrackPointExtension>
            <ns3:hr>110</ns3:hr>
          </ns3:TrackPointExtension>
        </extensions>
      </trkpt>
      <trkpt lat="47.57525785826146602630615234375" lon="-3.04982478730380535125732421875">
        <ele>3.599999904632568359375</ele>
        <time>2026-08-15T16:36:35.000Z</time>
        <extensions>
          <ns3:TrackPointExtension>
            <ns3:hr>110</ns3:hr>
          </ns3:TrackPointExtension>
        </extensions>
      </trkpt>
      <trkpt lat="47.5752440281212329864501953125" lon="-3.0498226918280124664306640625">
        <ele>3.7999999523162841796875</ele>
        <time>2026-08-15T16:36:36.000Z</time>
        <extensions>
          <ns3:TrackPointExtension>
            <ns3:hr>110</ns3:hr>
          </ns3:TrackPointExtension>
        </extensions>
      </trkpt>
      <trkpt lat="47.5752275995910167694091796875" lon="-3.04982646368443965911865234375">
        <ele>3.7999999523162841796875</ele>
        <time>2026-08-15T16:36:37.000Z</time>
        <extensions>
          <ns3:TrackPointExtension>
            <ns3:hr>110</ns3:hr>
          </ns3:TrackPointExtension>
        </extensions>
      </trkpt>
      <trkpt lat="47.5752098299562931060791015625" lon="-3.04981707595288753509521484375">
        <ele>3.7999999523162841796875</ele>
        <time>2026-08-15T16:36:38.000Z</time>
        <extensions>
          <ns3:TrackPointExtension>
            <ns3:hr>110</ns3:hr>
          </ns3:TrackPointExtension>
        </extensions>
      </trkpt>
      <trkpt lat="47.57519683800637722015380859375" lon="-3.04980718530714511871337890625">
        <ele>3.7999999523162841796875</ele>
        <time>2026-08-15T16:36:39.000Z</time>
        <extensions>
          <ns3:TrackPointExtension>
            <ns3:hr>110</ns3:hr>
          </ns3:TrackPointExtension>
        </extensions>
      </trkpt>
      <trkpt lat="47.5751803256571292877197265625" lon="-3.04979897104203701019287109375">
        <ele>3.599999904632568359375</ele>
        <time>2026-08-15T16:36:40.000Z</time>
        <extensions>
          <ns3:TrackPointExtension>
            <ns3:hr>110</ns3:hr>
          </ns3:TrackPointExtension>
        </extensions>
      </trkpt>
      <trkpt lat="47.5751709379255771636962890625" lon="-3.04978765547275543212890625">
        <ele>3.599999904632568359375</ele>
        <time>2026-08-15T16:36:41.000Z</time>
        <extensions>
          <ns3:TrackPointExtension>
            <ns3:hr>111</ns3:hr>
          </ns3:TrackPointExtension>
        </extensions>
      </trkpt>
      <trkpt lat="47.57515735924243927001953125" lon="-3.049783967435359954833984375">
        <ele>3.599999904632568359375</ele>
        <time>2026-08-15T16:36:42.000Z</time>
        <extensions>
          <ns3:TrackPointExtension>
            <ns3:hr>112</ns3:hr>
          </ns3:TrackPointExtension>
        </extensions>
      </trkpt>
      <trkpt lat="47.5751467980444431304931640625" lon="-3.0497750826179981231689453125">
        <ele>3.599999904632568359375</ele>
        <time>2026-08-15T16:36:43.000Z</time>
        <extensions>
          <ns3:TrackPointExtension>
            <ns3:hr>113</ns3:hr>
          </ns3:TrackPointExtension>
        </extensions>
      </trkpt>
      <trkpt lat="47.5751419365406036376953125" lon="-3.049769885838031768798828125">
        <ele>3.7999999523162841796875</ele>
        <time>2026-08-15T16:36:44.000Z</time>
        <extensions>
          <ns3:TrackPointExtension>
            <ns3:hr>116</ns3:hr>
          </ns3:TrackPointExtension>
        </extensions>
      </trkpt>
      <trkpt lat="47.57513246499001979827880859375" lon="-3.04976024664938449859619140625">
        <ele>3.7999999523162841796875</ele>
        <time>2026-08-15T16:36:45.000Z</time>
        <extensions>
          <ns3:TrackPointExtension>
            <ns3:hr>119</ns3:hr>
          </ns3:TrackPointExtension>
        </extensions>
      </trkpt>
      <trkpt lat="47.575122155249118804931640625" lon="-3.049759157001972198486328125">
        <ele>4</ele>
        <time>2026-08-15T16:36:46.000Z</time>
        <extensions>
          <ns3:TrackPointExtension>
            <ns3:hr>121</ns3:hr>
          </ns3:TrackPointExtension>
        </extensions>
      </trkpt>
      <trkpt lat="47.57511268369853496551513671875" lon="-3.04975270293653011322021484375">
        <ele>4</ele>
        <time>2026-08-15T16:36:47.000Z</time>
        <extensions>
          <ns3:TrackPointExtension>
            <ns3:hr>122</ns3:hr>
          </ns3:TrackPointExtension>
        </extensions>
      </trkpt>
      <trkpt lat="47.57510413415729999542236328125" lon="-3.049744404852390289306640625">
        <ele>4</ele>
        <time>2026-08-15T16:36:48.000Z</time>
        <extensions>
          <ns3:TrackPointExtension>
            <ns3:hr>122</ns3:hr>
          </ns3:TrackPointExtension>
        </extensions>
      </trkpt>
      <trkpt lat="47.5750968419015407562255859375" lon="-3.0497422255575656890869140625">
        <ele>4</ele>
        <time>2026-08-15T16:36:49.000Z</time>
        <extensions>
          <ns3:TrackPointExtension>
            <ns3:hr>122</ns3:hr>
          </ns3:TrackPointExtension>
        </extensions>
      </trkpt>
      <trkpt lat="47.575083263218402862548828125" lon="-3.04972856305539608001708984375">
        <ele>3.7999999523162841796875</ele>
        <time>2026-08-15T16:36:50.000Z</time>
        <extensions>
          <ns3:TrackPointExtension>
            <ns3:hr>119</ns3:hr>
          </ns3:TrackPointExtension>
        </extensions>
      </trkpt>
      <trkpt lat="47.57507421076297760009765625" lon="-3.0497319996356964111328125">
        <ele>3.7999999523162841796875</ele>
        <time>2026-08-15T16:36:51.000Z</time>
        <extensions>
          <ns3:TrackPointExtension>
            <ns3:hr>118</ns3:hr>
          </ns3:TrackPointExtension>
        </extensions>
      </trkpt>
      <trkpt lat="47.5750656612217426300048828125" lon="-3.04972420446574687957763671875">
        <ele>3.7999999523162841796875</ele>
        <time>2026-08-15T16:36:52.000Z</time>
        <extensions>
          <ns3:TrackPointExtension>
            <ns3:hr>118</ns3:hr>
          </ns3:TrackPointExtension>
        </extensions>
      </trkpt>
      <trkpt lat="47.57505937479436397552490234375" lon="-3.0497184209525585174560546875">
        <ele>3.599999904632568359375</ele>
        <time>2026-08-15T16:36:53.000Z</time>
        <extensions>
          <ns3:TrackPointExtension>
            <ns3:hr>116</ns3:hr>
          </ns3:TrackPointExtension>
        </extensions>
      </trkpt>
      <trkpt lat="47.5750561058521270751953125" lon="-3.04971481673419475555419921875">
        <ele>4</ele>
        <time>2026-08-15T16:36:54.000Z</time>
        <extensions>
          <ns3:TrackPointExtension>
            <ns3:hr>116</ns3:hr>
          </ns3:TrackPointExtension>
        </extensions>
      </trkpt>
      <trkpt lat="47.5750515796244144439697265625" lon="-3.04971230216324329376220703125">
        <ele>4.400000095367431640625</ele>
        <time>2026-08-15T16:36:55.000Z</time>
        <extensions>
          <ns3:TrackPointExtension>
            <ns3:hr>115</ns3:hr>
          </ns3:TrackPointExtension>
        </extensions>
      </trkpt>
      <trkpt lat="47.5750415213406085968017578125" lon="-3.04970375262200832366943359375">
        <ele>4.400000095367431640625</ele>
        <time>2026-08-15T16:36:56.000Z</time>
        <extensions>
          <ns3:TrackPointExtension>
            <ns3:hr>114</ns3:hr>
          </ns3:TrackPointExtension>
        </extensions>
      </trkpt>
      <trkpt lat="47.57503707893192768096923828125" lon="-3.04969939403235912322998046875">
        <ele>4.400000095367431640625</ele>
        <time>2026-08-15T16:36:57.000Z</time>
        <extensions>
          <ns3:TrackPointExtension>
            <ns3:hr>113</ns3:hr>
          </ns3:TrackPointExtension>
        </extensions>
      </trkpt>
      <trkpt lat="47.57503397762775421142578125" lon="-3.049699477851390838623046875">
        <ele>4.599999904632568359375</ele>
        <time>2026-08-15T16:36:58.000Z</time>
        <extensions>
          <ns3:TrackPointExtension>
            <ns3:hr>113</ns3:hr>
          </ns3:TrackPointExtension>
        </extensions>
      </trkpt>
      <trkpt lat="47.575032301247119903564453125" lon="-3.04969000630080699920654296875">
        <ele>4.599999904632568359375</ele>
        <time>2026-08-15T16:36:59.000Z</time>
        <extensions>
          <ns3:TrackPointExtension>
            <ns3:hr>112</ns3:hr>
          </ns3:TrackPointExtension>
        </extensions>
      </trkpt>
      <trkpt lat="47.5750220753252506256103515625" lon="-3.0496842227876186370849609375">
        <ele>4.599999904632568359375</ele>
        <time>2026-08-15T16:37:00.000Z</time>
        <extensions>
          <ns3:TrackPointExtension>
            <ns3:hr>112</ns3:hr>
          </ns3:TrackPointExtension>
        </extensions>
      </trkpt>
      <trkpt lat="47.575016207993030548095703125" lon="-3.0496837198734283447265625">
        <ele>4.599999904632568359375</ele>
        <time>2026-08-15T16:37:01.000Z</time>
        <extensions>
          <ns3:TrackPointExtension>
            <ns3:hr>113</ns3:hr>
          </ns3:TrackPointExtension>
        </extensions>
      </trkpt>
      <trkpt lat="47.57501360960304737091064453125" lon="-3.049686066806316375732421875">
        <ele>4.400000095367431640625</ele>
        <time>2026-08-15T16:37:02.000Z</time>
        <extensions>
          <ns3:TrackPointExtension>
            <ns3:hr>115</ns3:hr>
          </ns3:TrackPointExtension>
        </extensions>
      </trkpt>
      <trkpt lat="47.57501360960304737091064453125" lon="-3.049686066806316375732421875">
        <ele>4.400000095367431640625</ele>
        <time>2026-08-15T16:37:03.000Z</time>
        <extensions>
          <ns3:TrackPointExtension>
            <ns3:hr>117</ns3:hr>
          </ns3:TrackPointExtension>
        </extensions>
      </trkpt>
      <trkpt lat="47.57501360960304737091064453125" lon="-3.049686066806316375732421875">
        <ele>4.19999980926513671875</ele>
        <time>2026-08-15T16:37:04.000Z</time>
        <extensions>
          <ns3:TrackPointExtension>
            <ns3:hr>117</ns3:hr>
          </ns3:TrackPointExtension>
        </extensions>
      </trkpt>
      <trkpt lat="47.575008161365985870361328125" lon="-3.04967391304671764373779296875">
        <ele>4.19999980926513671875</ele>
        <time>2026-08-15T16:37:05.000Z</time>
        <extensions>
          <ns3:TrackPointExtension>
            <ns3:hr>118</ns3:hr>
          </ns3:TrackPointExtension>
        </extensions>
      </trkpt>
      <trkpt lat="47.57500958628952503204345703125" lon="-3.0496604181826114654541015625">
        <ele>4.19999980926513671875</ele>
        <time>2026-08-15T16:37:06.000Z</time>
        <extensions>
          <ns3:TrackPointExtension>
            <ns3:hr>119</ns3:hr>
          </ns3:TrackPointExtension>
        </extensions>
      </trkpt>
      <trkpt lat="47.575006149709224700927734375" lon="-3.0496510304510593414306640625">
        <ele>4.19999980926513671875</ele>
        <time>2026-08-15T16:37:07.000Z</time>
        <extensions>
          <ns3:TrackPointExtension>
            <ns3:hr>120</ns3:hr>
          </ns3:TrackPointExtension>
        </extensions>
      </trkpt>
      <trkpt lat="47.5750026293098926544189453125" lon="-3.049647174775600433349609375">
        <ele>4.19999980926513671875</ele>
        <time>2026-08-15T16:37:08.000Z</time>
        <extensions>
          <ns3:TrackPointExtension>
            <ns3:hr>120</ns3:hr>
          </ns3:TrackPointExtension>
        </extensions>
      </trkpt>
      <trkpt lat="47.5749965943396091461181640625" lon="-3.0496433191001415252685546875">
        <ele>4.19999980926513671875</ele>
        <time>2026-08-15T16:37:09.000Z</time>
        <extensions>
          <ns3:TrackPointExtension>
            <ns3:hr>119</ns3:hr>
          </ns3:TrackPointExtension>
        </extensions>
      </trkpt>
      <trkpt lat="47.5749868713319301605224609375" lon="-3.04963971488177776336669921875">
        <ele>4.19999980926513671875</ele>
        <time>2026-08-15T16:37:10.000Z</time>
        <extensions>
          <ns3:TrackPointExtension>
            <ns3:hr>117</ns3:hr>
          </ns3:TrackPointExtension>
        </extensions>
      </trkpt>
      <trkpt lat="47.5749764777719974517822265625" lon="-3.0496327579021453857421875">
        <ele>4.19999980926513671875</ele>
        <time>2026-08-15T16:37:11.000Z</time>
        <extensions>
          <ns3:TrackPointExtension>
            <ns3:hr>116</ns3:hr>
          </ns3:TrackPointExtension>
        </extensions>
      </trkpt>
      <trkpt lat="47.57496600039303302764892578125" lon="-3.04962211288511753082275390625">
        <ele>4.19999980926513671875</ele>
        <time>2026-08-15T16:37:12.000Z</time>
        <extensions>
          <ns3:TrackPointExtension>
            <ns3:hr>116</ns3:hr>
          </ns3:TrackPointExtension>
        </extensions>
      </trkpt>
      <trkpt lat="47.57495594210922718048095703125" lon="-3.0496032536029815673828125">
        <ele>4</ele>
        <time>2026-08-15T16:37:13.000Z</time>
        <extensions>
          <ns3:TrackPointExtension>
            <ns3:hr>115</ns3:hr>
          </ns3:TrackPointExtension>
        </extensions>
      </trkpt>
      <trkpt lat="47.574944458901882171630859375" lon="-3.04959462024271488189697265625">
        <ele>4</ele>
        <time>2026-08-15T16:37:14.000Z</time>
        <extensions>
          <ns3:TrackPointExtension>
            <ns3:hr>115</ns3:hr>
          </ns3:TrackPointExtension>
        </extensions>
      </trkpt>
      <trkpt lat="47.57492761127650737762451171875" lon="-3.04957970045506954193115234375">
        <ele>3.7999999523162841796875</ele>
        <time>2026-08-15T16:37:15.000Z</time>
        <extensions>
          <ns3:TrackPointExtension>
            <ns3:hr>114</ns3:hr>
          </ns3:TrackPointExtension>
        </extensions>
      </trkpt>
      <trkpt lat="47.57491470314562320709228515625" lon="-3.04957039654254913330078125">
        <ele>3.7999999523162841796875</ele>
        <time>2026-08-15T16:37:16.000Z</time>
        <extensions>
          <ns3:TrackPointExtension>
            <ns3:hr>114</ns3:hr>
          </ns3:TrackPointExtension>
        </extensions>
      </trkpt>
      <trkpt lat="47.57490565069019794464111328125" lon="-3.04956100881099700927734375">
        <ele>3.7999999523162841796875</ele>
        <time>2026-08-15T16:37:17.000Z</time>
        <extensions>
          <ns3:TrackPointExtension>
            <ns3:hr>113</ns3:hr>
          </ns3:TrackPointExtension>
        </extensions>
      </trkpt>
      <trkpt lat="47.57489341311156749725341796875" lon="-3.0495544709265232086181640625">
        <ele>3.7999999523162841796875</ele>
        <time>2026-08-15T16:37:18.000Z</time>
        <extensions>
          <ns3:TrackPointExtension>
            <ns3:hr>113</ns3:hr>
          </ns3:TrackPointExtension>
        </extensions>
      </trkpt>
      <trkpt lat="47.574884779751300811767578125" lon="-3.04955153726041316986083984375">
        <ele>3.7999999523162841796875</ele>
        <time>2026-08-15T16:37:19.000Z</time>
        <extensions>
          <ns3:TrackPointExtension>
            <ns3:hr>112</ns3:hr>
          </ns3:TrackPointExtension>
        </extensions>
      </trkpt>
      <trkpt lat="47.5748762302100658416748046875" lon="-3.04954625666141510009765625">
        <ele>3.599999904632568359375</ele>
        <time>2026-08-15T16:37:20.000Z</time>
        <extensions>
          <ns3:TrackPointExtension>
            <ns3:hr>111</ns3:hr>
          </ns3:TrackPointExtension>
        </extensions>
      </trkpt>
      <trkpt lat="47.57486709393560886383056640625" lon="-3.04953644983470439910888671875">
        <ele>3.599999904632568359375</ele>
        <time>2026-08-15T16:37:21.000Z</time>
        <extensions>
          <ns3:TrackPointExtension>
            <ns3:hr>111</ns3:hr>
          </ns3:TrackPointExtension>
        </extensions>
      </trkpt>
      <trkpt lat="47.57485653273761272430419921875" lon="-3.04952303878962993621826171875">
        <ele>3.599999904632568359375</ele>
        <time>2026-08-15T16:37:22.000Z</time>
        <extensions>
          <ns3:TrackPointExtension>
            <ns3:hr>110</ns3:hr>
          </ns3:TrackPointExtension>
        </extensions>
      </trkpt>
      <trkpt lat="47.5748500786721706390380859375" lon="-3.049512393772602081298828125">
        <ele>3.7999999523162841796875</ele>
        <time>2026-08-15T16:37:23.000Z</time>
        <extensions>
          <ns3:TrackPointExtension>
            <ns3:hr>110</ns3:hr>
          </ns3:TrackPointExtension>
        </extensions>
      </trkpt>
      <trkpt lat="47.5748366676270961761474609375" lon="-3.0494991503655910491943359375">
        <ele>3.7999999523162841796875</ele>
        <time>2026-08-15T16:37:24.000Z</time>
        <extensions>
          <ns3:TrackPointExtension>
            <ns3:hr>109</ns3:hr>
          </ns3:TrackPointExtension>
        </extensions>
      </trkpt>
      <trkpt lat="47.574825100600719451904296875" lon="-3.04948900826275348663330078125">
        <ele>4</ele>
        <time>2026-08-15T16:37:25.000Z</time>
        <extensions>
          <ns3:TrackPointExtension>
            <ns3:hr>109</ns3:hr>
          </ns3:TrackPointExtension>
        </extensions>
      </trkpt>
      <trkpt lat="47.5748120248317718505859375" lon="-3.04947744123637676239013671875">
        <ele>4.19999980926513671875</ele>
        <time>2026-08-15T16:37:26.000Z</time>
        <extensions>
          <ns3:TrackPointExtension>
            <ns3:hr>109</ns3:hr>
          </ns3:TrackPointExtension>
        </extensions>
      </trkpt>
      <trkpt lat="47.5748017989099025726318359375" lon="-3.04947090335190296173095703125">
        <ele>4.19999980926513671875</ele>
        <time>2026-08-15T16:37:27.000Z</time>
        <extensions>
          <ns3:TrackPointExtension>
            <ns3:hr>109</ns3:hr>
          </ns3:TrackPointExtension>
        </extensions>
      </trkpt>
      <trkpt lat="47.57479132153093814849853515625" lon="-3.04945749230682849884033203125">
        <ele>4</ele>
        <time>2026-08-15T16:37:28.000Z</time>
        <extensions>
          <ns3:TrackPointExtension>
            <ns3:hr>108</ns3:hr>
          </ns3:TrackPointExtension>
        </extensions>
      </trkpt>
      <trkpt lat="47.57477807812392711639404296875" lon="-3.04943494498729705810546875">
        <ele>3.599999904632568359375</ele>
        <time>2026-08-15T16:37:29.000Z</time>
        <extensions>
          <ns3:TrackPointExtension>
            <ns3:hr>108</ns3:hr>
          </ns3:TrackPointExtension>
        </extensions>
      </trkpt>
      <trkpt lat="47.57476299069821834564208984375" lon="-3.04942145012319087982177734375">
        <ele>3.400000095367431640625</ele>
        <time>2026-08-15T16:37:30.000Z</time>
        <extensions>
          <ns3:TrackPointExtension>
            <ns3:hr>108</ns3:hr>
          </ns3:TrackPointExtension>
        </extensions>
      </trkpt>
      <trkpt lat="47.57474907673895359039306640625" lon="-3.04940736852586269378662109375">
        <ele>1.60000002384185791015625</ele>
        <time>2026-08-15T16:37:31.000Z</time>
        <extensions>
          <ns3:TrackPointExtension>
            <ns3:hr>108</ns3:hr>
          </ns3:TrackPointExtension>
        </extensions>
      </trkpt>
      <trkpt lat="47.57472946308553218841552734375" lon="-3.0493844859302043914794921875">
        <ele>1.2000000476837158203125</ele>
        <time>2026-08-15T16:37:32.000Z</time>
        <extensions>
          <ns3:TrackPointExtension>
            <ns3:hr>108</ns3:hr>
          </ns3:TrackPointExtension>
        </extensions>
      </trkpt>
      <trkpt lat="47.57471085526049137115478515625" lon="-3.049366883933544158935546875">
        <ele>0.800000011920928955078125</ele>
        <time>2026-08-15T16:37:33.000Z</time>
        <extensions>
          <ns3:TrackPointExtension>
            <ns3:hr>107</ns3:hr>
          </ns3:TrackPointExtension>
        </extensions>
      </trkpt>
      <trkpt lat="47.574691660702228546142578125" lon="-3.04934869520366191864013671875">
        <ele>0.4000000059604644775390625</ele>
        <time>2026-08-15T16:37:34.000Z</time>
        <extensions>
          <ns3:TrackPointExtension>
            <ns3:hr>107</ns3:hr>
          </ns3:TrackPointExtension>
        </extensions>
      </trkpt>
      <trkpt lat="47.574676573276519775390625" lon="-3.049324639141559600830078125">
        <ele>-0.20000000298023223876953125</ele>
        <time>2026-08-15T16:37:35.000Z</time>
        <extensions>
          <ns3:TrackPointExtension>
            <ns3:hr>107</ns3:hr>
          </ns3:TrackPointExtension>
        </extensions>
      </trkpt>
      <trkpt lat="47.57466844283044338226318359375" lon="-3.04930645041167736053466796875">
        <ele>-0.800000011920928955078125</ele>
        <time>2026-08-15T16:37:36.000Z</time>
        <extensions>
          <ns3:TrackPointExtension>
            <ns3:hr>107</ns3:hr>
          </ns3:TrackPointExtension>
        </extensions>
      </trkpt>
      <trkpt lat="47.574660815298557281494140625" lon="-3.04928985424339771270751953125">
        <ele>-1.2000000476837158203125</ele>
        <time>2026-08-15T16:37:37.000Z</time>
        <extensions>
          <ns3:TrackPointExtension>
            <ns3:hr>108</ns3:hr>
          </ns3:TrackPointExtension>
        </extensions>
      </trkpt>
      <trkpt lat="47.5746542774140834808349609375" lon="-3.0492711625993251800537109375">
        <ele>-1.7999999523162841796875</ele>
        <time>2026-08-15T16:37:38.000Z</time>
        <extensions>
          <ns3:TrackPointExtension>
            <ns3:hr>108</ns3:hr>
          </ns3:TrackPointExtension>
        </extensions>
      </trkpt>
      <trkpt lat="47.57464698515832424163818359375" lon="-3.04925599135458469390869140625">
        <ele>-2.400000095367431640625</ele>
        <time>2026-08-15T16:37:39.000Z</time>
        <extensions>
          <ns3:TrackPointExtension>
            <ns3:hr>108</ns3:hr>
          </ns3:TrackPointExtension>
        </extensions>
      </trkpt>
      <trkpt lat="47.5746482424437999725341796875" lon="-3.04924861527979373931884765625">
        <ele>-3</ele>
        <time>2026-08-15T16:37:40.000Z</time>
        <extensions>
          <ns3:TrackPointExtension>
            <ns3:hr>107</ns3:hr>
          </ns3:TrackPointExtension>
        </extensions>
      </trkpt>
      <trkpt lat="47.5746603123843669891357421875" lon="-3.04928608238697052001953125">
        <ele>-3.400000095367431640625</ele>
        <time>2026-08-15T16:37:41.000Z</time>
        <extensions>
          <ns3:TrackPointExtension>
            <ns3:hr>107</ns3:hr>
          </ns3:TrackPointExtension>
        </extensions>
      </trkpt>
      <trkpt lat="47.57465570233762264251708984375" lon="-3.04929287172853946685791015625">
        <ele>-4</ele>
        <time>2026-08-15T16:37:42.000Z</time>
        <extensions>
          <ns3:TrackPointExtension>
            <ns3:hr>107</ns3:hr>
          </ns3:TrackPointExtension>
        </extensions>
      </trkpt>
      <trkpt lat="47.574659474194049835205078125" lon="-3.04929547011852264404296875">
        <ele>-4.599999904632568359375</ele>
        <time>2026-08-15T16:37:43.000Z</time>
        <extensions>
          <ns3:TrackPointExtension>
            <ns3:hr>106</ns3:hr>
          </ns3:TrackPointExtension>
        </extensions>
      </trkpt>
      <trkpt lat="47.57465687580406665802001953125" lon="-3.04929303936660289764404296875">
        <ele>-4.80000019073486328125</ele>
        <time>2026-08-15T16:37:44.000Z</time>
        <extensions>
          <ns3:TrackPointExtension>
            <ns3:hr>106</ns3:hr>
          </ns3:TrackPointExtension>
        </extensions>
      </trkpt>
      <trkpt lat="47.5746589712798595428466796875" lon="-3.04928599856793880462646484375">
        <ele>-4.80000019073486328125</ele>
        <time>2026-08-15T16:37:45.000Z</time>
        <extensions>
          <ns3:TrackPointExtension>
            <ns3:hr>107</ns3:hr>
          </ns3:TrackPointExtension>
        </extensions>
      </trkpt>
      <trkpt lat="47.57466517388820648193359375" lon="-3.0492916144430637359619140625">
        <ele>-5</ele>
        <time>2026-08-15T16:37:46.000Z</time>
        <extensions>
          <ns3:TrackPointExtension>
            <ns3:hr>108</ns3:hr>
          </ns3:TrackPointExtension>
        </extensions>
      </trkpt>
      <trkpt lat="47.57466156966984272003173828125" lon="-3.0492909438908100128173828125">
        <ele>-5.19999980926513671875</ele>
        <time>2026-08-15T16:37:47.000Z</time>
        <extensions>
          <ns3:TrackPointExtension>
            <ns3:hr>110</ns3:hr>
          </ns3:TrackPointExtension>
        </extensions>
      </trkpt>
      <trkpt lat="47.57466509006917476654052734375" lon="-3.04928163997828960418701171875">
        <ele>-5.599999904632568359375</ele>
        <time>2026-08-15T16:37:48.000Z</time>
        <extensions>
          <ns3:TrackPointExtension>
            <ns3:hr>112</ns3:hr>
          </ns3:TrackPointExtension>
        </extensions>
      </trkpt>
      <trkpt lat="47.57466760464012622833251953125" lon="-3.04928985424339771270751953125">
        <ele>-5.400000095367431640625</ele>
        <time>2026-08-15T16:37:49.000Z</time>
        <extensions>
          <ns3:TrackPointExtension>
            <ns3:hr>113</ns3:hr>
          </ns3:TrackPointExtension>
        </extensions>
      </trkpt>
      <trkpt lat="47.57467464543879032135009765625" lon="-3.04929086007177829742431640625">
        <ele>-5.400000095367431640625</ele>
        <time>2026-08-15T16:37:50.000Z</time>
        <extensions>
          <ns3:TrackPointExtension>
            <ns3:hr>115</ns3:hr>
          </ns3:TrackPointExtension>
        </extensions>
      </trkpt>
      <trkpt lat="47.57467783056199550628662109375" lon="-3.049288094043731689453125">
        <ele>-5.400000095367431640625</ele>
        <time>2026-08-15T16:37:51.000Z</time>
        <extensions>
          <ns3:TrackPointExtension>
            <ns3:hr>116</ns3:hr>
          </ns3:TrackPointExtension>
        </extensions>
      </trkpt>
      <trkpt lat="47.57466978393495082855224609375" lon="-3.0492882616817951202392578125">
        <ele>-5.400000095367431640625</ele>
        <time>2026-08-15T16:37:52.000Z</time>
        <extensions>
          <ns3:TrackPointExtension>
            <ns3:hr>116</ns3:hr>
          </ns3:TrackPointExtension>
        </extensions>
      </trkpt>
      <trkpt lat="47.5746673531830310821533203125" lon="-3.049287088215351104736328125">
        <ele>-5.400000095367431640625</ele>
        <time>2026-08-15T16:37:53.000Z</time>
        <extensions>
          <ns3:TrackPointExtension>
            <ns3:hr>115</ns3:hr>
          </ns3:TrackPointExtension>
        </extensions>
      </trkpt>
      <trkpt lat="47.57466852664947509765625" lon="-3.0492818914353847503662109375">
        <ele>-5.400000095367431640625</ele>
        <time>2026-08-15T16:37:54.000Z</time>
        <extensions>
          <ns3:TrackPointExtension>
            <ns3:hr>116</ns3:hr>
          </ns3:TrackPointExtension>
        </extensions>
      </trkpt>
      <trkpt lat="47.57466156966984272003173828125" lon="-3.0492845736443996429443359375">
        <ele>-5</ele>
        <time>2026-08-15T16:37:55.000Z</time>
        <extensions>
          <ns3:TrackPointExtension>
            <ns3:hr>117</ns3:hr>
          </ns3:TrackPointExtension>
        </extensions>
      </trkpt>
      <trkpt lat="47.57465972565114498138427734375" lon="-3.04928029887378215789794921875">
        <ele>-4.80000019073486328125</ele>
        <time>2026-08-15T16:37:56.000Z</time>
        <extensions>
          <ns3:TrackPointExtension>
            <ns3:hr>118</ns3:hr>
          </ns3:TrackPointExtension>
        </extensions>
      </trkpt>
      <trkpt lat="47.574655115604400634765625" lon="-3.049276359379291534423828125">
        <ele>-4.19999980926513671875</ele>
        <time>2026-08-15T16:37:57.000Z</time>
        <extensions>
          <ns3:TrackPointExtension>
            <ns3:hr>119</ns3:hr>
          </ns3:TrackPointExtension>
        </extensions>
      </trkpt>
      <trkpt lat="47.57465754635632038116455078125" lon="-3.049267642199993133544921875">
        <ele>-4</ele>
        <time>2026-08-15T16:37:58.000Z</time>
        <extensions>
          <ns3:TrackPointExtension>
            <ns3:hr>120</ns3:hr>
          </ns3:TrackPointExtension>
        </extensions>
      </trkpt>
      <trkpt lat="47.57465553469955921173095703125" lon="-3.04925112985074520111083984375">
        <ele>-3.599999904632568359375</ele>
        <time>2026-08-15T16:37:59.000Z</time>
        <extensions>
          <ns3:TrackPointExtension>
            <ns3:hr>120</ns3:hr>
          </ns3:TrackPointExtension>
        </extensions>
      </trkpt>
      <trkpt lat="47.57465687580406665802001953125" lon="-3.0492406524717807769775390625">
        <ele>-3.400000095367431640625</ele>
        <time>2026-08-15T16:38:00.000Z</time>
        <extensions>
          <ns3:TrackPointExtension>
            <ns3:hr>119</ns3:hr>
          </ns3:TrackPointExtension>
        </extensions>
      </trkpt>
      <trkpt lat="47.5746549479663372039794921875" lon="-3.04924224503338336944580078125">
        <ele>-3</ele>
        <time>2026-08-15T16:38:01.000Z</time>
        <extensions>
          <ns3:TrackPointExtension>
            <ns3:hr>117</ns3:hr>
          </ns3:TrackPointExtension>
        </extensions>
      </trkpt>
      <trkpt lat="47.5746522657573223114013671875" lon="-3.049231432378292083740234375">
        <ele>-2.7999999523162841796875</ele>
        <time>2026-08-15T16:38:02.000Z</time>
        <extensions>
          <ns3:TrackPointExtension>
            <ns3:hr>115</ns3:hr>
          </ns3:TrackPointExtension>
        </extensions>
      </trkpt>
      <trkpt lat="47.5746484100818634033203125" lon="-3.04922464303672313690185546875">
        <ele>-2.599999904632568359375</ele>
        <time>2026-08-15T16:38:03.000Z</time>
        <extensions>
          <ns3:TrackPointExtension>
            <ns3:hr>114</ns3:hr>
          </ns3:TrackPointExtension>
        </extensions>
      </trkpt>
      <trkpt lat="47.57464480586349964141845703125" lon="-3.049209974706172943115234375">
        <ele>-2.2000000476837158203125</ele>
        <time>2026-08-15T16:38:04.000Z</time>
        <extensions>
          <ns3:TrackPointExtension>
            <ns3:hr>113</ns3:hr>
          </ns3:TrackPointExtension>
        </extensions>
      </trkpt>
      <trkpt lat="47.5746341608464717864990234375" lon="-3.04920821450650691986083984375">
        <ele>-2</ele>
        <time>2026-08-15T16:38:05.000Z</time>
        <extensions>
          <ns3:TrackPointExtension>
            <ns3:hr>113</ns3:hr>
          </ns3:TrackPointExtension>
        </extensions>
      </trkpt>
      <trkpt lat="47.57462896406650543212890625" lon="-3.04920402355492115020751953125">
        <ele>-1.7999999523162841796875</ele>
        <time>2026-08-15T16:38:06.000Z</time>
        <extensions>
          <ns3:TrackPointExtension>
            <ns3:hr>112</ns3:hr>
          </ns3:TrackPointExtension>
        </extensions>
      </trkpt>
      <trkpt lat="47.57462401874363422393798828125" lon="-3.04920452646911144256591796875">
        <ele>-1.60000002384185791015625</ele>
        <time>2026-08-15T16:38:07.000Z</time>
        <extensions>
          <ns3:TrackPointExtension>
            <ns3:hr>112</ns3:hr>
          </ns3:TrackPointExtension>
        </extensions>
      </trkpt>
      <trkpt lat="47.5746140442788600921630859375" lon="-3.04920737631618976593017578125">
        <ele>-1.39999997615814208984375</ele>
        <time>2026-08-15T16:38:08.000Z</time>
        <extensions>
          <ns3:TrackPointExtension>
            <ns3:hr>111</ns3:hr>
          </ns3:TrackPointExtension>
        </extensions>
      </trkpt>
      <trkpt lat="47.57460742257535457611083984375" lon="-3.049205951392650604248046875">
        <ele>-1.39999997615814208984375</ele>
        <time>2026-08-15T16:38:09.000Z</time>
        <extensions>
          <ns3:TrackPointExtension>
            <ns3:hr>111</ns3:hr>
          </ns3:TrackPointExtension>
        </extensions>
      </trkpt>
      <trkpt lat="47.57459702901542186737060546875" lon="-3.04920117370784282684326171875">
        <ele>-1.2000000476837158203125</ele>
        <time>2026-08-15T16:38:10.000Z</time>
        <extensions>
          <ns3:TrackPointExtension>
            <ns3:hr>111</ns3:hr>
          </ns3:TrackPointExtension>
        </extensions>
      </trkpt>
      <trkpt lat="47.57458873093128204345703125" lon="-3.04919966496527194976806640625">
        <ele>-1.2000000476837158203125</ele>
        <time>2026-08-15T16:38:11.000Z</time>
        <extensions>
          <ns3:TrackPointExtension>
            <ns3:hr>112</ns3:hr>
          </ns3:TrackPointExtension>
        </extensions>
      </trkpt>
      <trkpt lat="47.57457808591425418853759765625" lon="-3.04919622838497161865234375">
        <ele>-1</ele>
        <time>2026-08-15T16:38:12.000Z</time>
        <extensions>
          <ns3:TrackPointExtension>
            <ns3:hr>112</ns3:hr>
          </ns3:TrackPointExtension>
        </extensions>
      </trkpt>
      <trkpt lat="47.5745679438114166259765625" lon="-3.04918524809181690216064453125">
        <ele>-1</ele>
        <time>2026-08-15T16:38:13.000Z</time>
        <extensions>
          <ns3:TrackPointExtension>
            <ns3:hr>112</ns3:hr>
          </ns3:TrackPointExtension>
        </extensions>
      </trkpt>
      <trkpt lat="47.57456132210791110992431640625" lon="-3.04918172769248485565185546875">
        <ele>-1</ele>
        <time>2026-08-15T16:38:14.000Z</time>
        <extensions>
          <ns3:TrackPointExtension>
            <ns3:hr>112</ns3:hr>
          </ns3:TrackPointExtension>
        </extensions>
      </trkpt>
      <trkpt lat="47.5745557062327861785888671875" lon="-3.04917619563639163970947265625">
        <ele>-1</ele>
        <time>2026-08-15T16:38:15.000Z</time>
        <extensions>
          <ns3:TrackPointExtension>
            <ns3:hr>113</ns3:hr>
          </ns3:TrackPointExtension>
        </extensions>
      </trkpt>
      <trkpt lat="47.5745449773967266082763671875" lon="-3.04917368106544017791748046875">
        <ele>-1</ele>
        <time>2026-08-15T16:38:16.000Z</time>
        <extensions>
          <ns3:TrackPointExtension>
            <ns3:hr>114</ns3:hr>
          </ns3:TrackPointExtension>
        </extensions>
      </trkpt>
      <trkpt lat="47.5745379365980625152587890625" lon="-3.04916932247579097747802734375">
        <ele>-1</ele>
        <time>2026-08-15T16:38:17.000Z</time>
        <extensions>
          <ns3:TrackPointExtension>
            <ns3:hr>115</ns3:hr>
          </ns3:TrackPointExtension>
        </extensions>
      </trkpt>
      <trkpt lat="47.57453315891325473785400390625" lon="-3.0491615273058414459228515625">
        <ele>-1</ele>
        <time>2026-08-15T16:38:18.000Z</time>
        <extensions>
          <ns3:TrackPointExtension>
            <ns3:hr>117</ns3:hr>
          </ns3:TrackPointExtension>
        </extensions>
      </trkpt>
      <trkpt lat="47.5745250284671783447265625" lon="-3.049159683287143707275390625">
        <ele>-0.800000011920928955078125</ele>
        <time>2026-08-15T16:38:19.000Z</time>
        <extensions>
          <ns3:TrackPointExtension>
            <ns3:hr>118</ns3:hr>
          </ns3:TrackPointExtension>
        </extensions>
      </trkpt>
      <trkpt lat="47.57451991550624370574951171875" lon="-3.04914937354624271392822265625">
        <ele>-0.800000011920928955078125</ele>
        <time>2026-08-15T16:38:20.000Z</time>
        <extensions>
          <ns3:TrackPointExtension>
            <ns3:hr>119</ns3:hr>
          </ns3:TrackPointExtension>
        </extensions>
      </trkpt>
      <trkpt lat="47.5745047442615032196044921875" lon="-3.0491457693278789520263671875">
        <ele>-0.800000011920928955078125</ele>
        <time>2026-08-15T16:38:21.000Z</time>
        <extensions>
          <ns3:TrackPointExtension>
            <ns3:hr>120</ns3:hr>
          </ns3:TrackPointExtension>
        </extensions>
      </trkpt>
      <trkpt lat="47.57449829019606113433837890625" lon="-3.0491390638053417205810546875">
        <ele>-0.60000002384185791015625</ele>
        <time>2026-08-15T16:38:22.000Z</time>
        <extensions>
          <ns3:TrackPointExtension>
            <ns3:hr>120</ns3:hr>
          </ns3:TrackPointExtension>
        </extensions>
      </trkpt>
      <trkpt lat="47.57448923774063587188720703125" lon="-3.04913445375859737396240234375">
        <ele>-0.60000002384185791015625</ele>
        <time>2026-08-15T16:38:23.000Z</time>
        <extensions>
          <ns3:TrackPointExtension>
            <ns3:hr>120</ns3:hr>
          </ns3:TrackPointExtension>
        </extensions>
      </trkpt>
      <trkpt lat="47.57448102347552776336669921875" lon="-3.04913260973989963531494140625">
        <ele>-0.60000002384185791015625</ele>
        <time>2026-08-15T16:38:24.000Z</time>
        <extensions>
          <ns3:TrackPointExtension>
            <ns3:hr>120</ns3:hr>
          </ns3:TrackPointExtension>
        </extensions>
      </trkpt>
      <trkpt lat="47.57447431795299053192138671875" lon="-3.04912741295993328094482421875">
        <ele>-0.60000002384185791015625</ele>
        <time>2026-08-15T16:38:25.000Z</time>
        <extensions>
          <ns3:TrackPointExtension>
            <ns3:hr>120</ns3:hr>
          </ns3:TrackPointExtension>
        </extensions>
      </trkpt>
      <trkpt lat="47.5744638405740261077880859375" lon="-3.04912556894123554229736328125">
        <ele>-0.60000002384185791015625</ele>
        <time>2026-08-15T16:38:26.000Z</time>
        <extensions>
          <ns3:TrackPointExtension>
            <ns3:hr>120</ns3:hr>
          </ns3:TrackPointExtension>
        </extensions>
      </trkpt>
      <trkpt lat="47.57445235736668109893798828125" lon="-3.04911936633288860321044921875">
        <ele>-0.800000011920928955078125</ele>
        <time>2026-08-15T16:38:27.000Z</time>
        <extensions>
          <ns3:TrackPointExtension>
            <ns3:hr>121</ns3:hr>
          </ns3:TrackPointExtension>
        </extensions>
      </trkpt>
      <trkpt lat="47.574440874159336090087890625" lon="-3.04911601357161998748779296875">
        <ele>-0.800000011920928955078125</ele>
        <time>2026-08-15T16:38:28.000Z</time>
        <extensions>
          <ns3:TrackPointExtension>
            <ns3:hr>119</ns3:hr>
          </ns3:TrackPointExtension>
        </extensions>
      </trkpt>
      <trkpt lat="47.57442570291459560394287109375" lon="-3.0491125769913196563720703125">
        <ele>-0.60000002384185791015625</ele>
        <time>2026-08-15T16:38:29.000Z</time>
        <extensions>
          <ns3:TrackPointExtension>
            <ns3:hr>118</ns3:hr>
          </ns3:TrackPointExtension>
        </extensions>
      </trkpt>
      <trkpt lat="47.57441698573529720306396484375" lon="-3.0491048656404018402099609375">
        <ele>-0.60000002384185791015625</ele>
        <time>2026-08-15T16:38:30.000Z</time>
        <extensions>
          <ns3:TrackPointExtension>
            <ns3:hr>118</ns3:hr>
          </ns3:TrackPointExtension>
        </extensions>
      </trkpt>
      <trkpt lat="47.574412040412425994873046875" lon="-3.04910394363105297088623046875">
        <ele>-0.60000002384185791015625</ele>
        <time>2026-08-15T16:38:31.000Z</time>
        <extensions>
          <ns3:TrackPointExtension>
            <ns3:hr>117</ns3:hr>
          </ns3:TrackPointExtension>
        </extensions>
      </trkpt>
      <trkpt lat="47.57439938373863697052001953125" lon="-3.0490981601178646087646484375">
        <ele>-0.800000011920928955078125</ele>
        <time>2026-08-15T16:38:32.000Z</time>
        <extensions>
          <ns3:TrackPointExtension>
            <ns3:hr>116</ns3:hr>
          </ns3:TrackPointExtension>
        </extensions>
      </trkpt>
      <trkpt lat="47.574390582740306854248046875" lon="-3.04909304715692996978759765625">
        <ele>-0.800000011920928955078125</ele>
        <time>2026-08-15T16:38:33.000Z</time>
        <extensions>
          <ns3:TrackPointExtension>
            <ns3:hr>115</ns3:hr>
          </ns3:TrackPointExtension>
        </extensions>
      </trkpt>
      <trkpt lat="47.5743770040571689605712890625" lon="-3.0490936338901519775390625">
        <ele>-1</ele>
        <time>2026-08-15T16:38:34.000Z</time>
        <extensions>
          <ns3:TrackPointExtension>
            <ns3:hr>115</ns3:hr>
          </ns3:TrackPointExtension>
        </extensions>
      </trkpt>
      <trkpt lat="47.5743656046688556671142578125" lon="-3.049094974994659423828125">
        <ele>-1</ele>
        <time>2026-08-15T16:38:35.000Z</time>
        <extensions>
          <ns3:TrackPointExtension>
            <ns3:hr>114</ns3:hr>
          </ns3:TrackPointExtension>
        </extensions>
      </trkpt>
      <trkpt lat="47.574350349605083465576171875" lon="-3.049093298614025115966796875">
        <ele>-1</ele>
        <time>2026-08-15T16:38:36.000Z</time>
        <extensions>
          <ns3:TrackPointExtension>
            <ns3:hr>114</ns3:hr>
          </ns3:TrackPointExtension>
        </extensions>
      </trkpt>
      <trkpt lat="47.5743428058922290802001953125" lon="-3.049091286957263946533203125">
        <ele>-1</ele>
        <time>2026-08-15T16:38:37.000Z</time>
        <extensions>
          <ns3:TrackPointExtension>
            <ns3:hr>113</ns3:hr>
          </ns3:TrackPointExtension>
        </extensions>
      </trkpt>
      <trkpt lat="47.574340961873531341552734375" lon="-3.0490840785205364227294921875">
        <ele>-1.2000000476837158203125</ele>
        <time>2026-08-15T16:38:38.000Z</time>
        <extensions>
          <ns3:TrackPointExtension>
            <ns3:hr>111</ns3:hr>
          </ns3:TrackPointExtension>
        </extensions>
      </trkpt>
      <trkpt lat="47.57433257997035980224609375" lon="-3.04907913319766521453857421875">
        <ele>-1.2000000476837158203125</ele>
        <time>2026-08-15T16:38:39.000Z</time>
        <extensions>
          <ns3:TrackPointExtension>
            <ns3:hr>111</ns3:hr>
          </ns3:TrackPointExtension>
        </extensions>
      </trkpt>
      <trkpt lat="47.57432310841977596282958984375" lon="-3.04907477460801601409912109375">
        <ele>-1.2000000476837158203125</ele>
        <time>2026-08-15T16:38:40.000Z</time>
        <extensions>
          <ns3:TrackPointExtension>
            <ns3:hr>110</ns3:hr>
          </ns3:TrackPointExtension>
        </extensions>
      </trkpt>
      <trkpt lat="47.57431573234498500823974609375" lon="-3.0490773729979991912841796875">
        <ele>-1.2000000476837158203125</ele>
        <time>2026-08-15T16:38:41.000Z</time>
        <extensions>
          <ns3:TrackPointExtension>
            <ns3:hr>109</ns3:hr>
          </ns3:TrackPointExtension>
        </extensions>
      </trkpt>
      <trkpt lat="47.57430919446051120758056640625" lon="-3.04907619953155517578125">
        <ele>-1.39999997615814208984375</ele>
        <time>2026-08-15T16:38:42.000Z</time>
        <extensions>
          <ns3:TrackPointExtension>
            <ns3:hr>109</ns3:hr>
          </ns3:TrackPointExtension>
        </extensions>
      </trkpt>
      <trkpt lat="47.5742982141673564910888671875" lon="-3.0490743555128574371337890625">
        <ele>-1.2000000476837158203125</ele>
        <time>2026-08-15T16:38:43.000Z</time>
        <extensions>
          <ns3:TrackPointExtension>
            <ns3:hr>108</ns3:hr>
          </ns3:TrackPointExtension>
        </extensions>
      </trkpt>
      <trkpt lat="47.57428958080708980560302734375" lon="-3.049071170389652252197265625">
        <ele>-1.2000000476837158203125</ele>
        <time>2026-08-15T16:38:44.000Z</time>
        <extensions>
          <ns3:TrackPointExtension>
            <ns3:hr>107</ns3:hr>
          </ns3:TrackPointExtension>
        </extensions>
      </trkpt>
      <trkpt lat="47.5742787681519985198974609375" lon="-3.049064464867115020751953125">
        <ele>-1.2000000476837158203125</ele>
        <time>2026-08-15T16:38:45.000Z</time>
        <extensions>
          <ns3:TrackPointExtension>
            <ns3:hr>107</ns3:hr>
          </ns3:TrackPointExtension>
        </extensions>
      </trkpt>
      <trkpt lat="47.57427063770592212677001953125" lon="-3.0490599386394023895263671875">
        <ele>-1</ele>
        <time>2026-08-15T16:38:46.000Z</time>
        <extensions>
          <ns3:TrackPointExtension>
            <ns3:hr>105</ns3:hr>
          </ns3:TrackPointExtension>
        </extensions>
      </trkpt>
      <trkpt lat="47.57426225580275058746337890625" lon="-3.04905499331653118133544921875">
        <ele>-1</ele>
        <time>2026-08-15T16:38:47.000Z</time>
        <extensions>
          <ns3:TrackPointExtension>
            <ns3:hr>102</ns3:hr>
          </ns3:TrackPointExtension>
        </extensions>
      </trkpt>
      <trkpt lat="47.57424918003380298614501953125" lon="-3.04905381985008716583251953125">
        <ele>-1.2000000476837158203125</ele>
        <time>2026-08-15T16:38:48.000Z</time>
        <extensions>
          <ns3:TrackPointExtension>
            <ns3:hr>99</ns3:hr>
          </ns3:TrackPointExtension>
        </extensions>
      </trkpt>
      <trkpt lat="47.5742422230541706085205078125" lon="-3.0490572564303874969482421875">
        <ele>-1.2000000476837158203125</ele>
        <time>2026-08-15T16:38:49.000Z</time>
        <extensions>
          <ns3:TrackPointExtension>
            <ns3:hr>95</ns3:hr>
          </ns3:TrackPointExtension>
        </extensions>
      </trkpt>
      <trkpt lat="47.5742318294942378997802734375" lon="-3.04905549623072147369384765625">
        <ele>-1.2000000476837158203125</ele>
        <time>2026-08-15T16:38:50.000Z</time>
        <extensions>
          <ns3:TrackPointExtension>
            <ns3:hr>90</ns3:hr>
          </ns3:TrackPointExtension>
        </extensions>
      </trkpt>
      <trkpt lat="47.5742241181433200836181640625" lon="-3.04905432276427745819091796875">
        <ele>-1.2000000476837158203125</ele>
        <time>2026-08-15T16:38:51.000Z</time>
        <extensions>
          <ns3:TrackPointExtension>
            <ns3:hr>85</ns3:hr>
          </ns3:TrackPointExtension>
        </extensions>
      </trkpt>
      <trkpt lat="47.57421749643981456756591796875" lon="-3.049055077135562896728515625">
        <ele>-1.2000000476837158203125</ele>
        <time>2026-08-15T16:38:52.000Z</time>
        <extensions>
          <ns3:TrackPointExtension>
            <ns3:hr>82</ns3:hr>
          </ns3:TrackPointExtension>
        </extensions>
      </trkpt>
      <trkpt lat="47.5742107070982456207275390625" lon="-3.0490572564303874969482421875">
        <ele>-1.2000000476837158203125</ele>
        <time>2026-08-15T16:38:53.000Z</time>
        <extensions>
          <ns3:TrackPointExtension>
            <ns3:hr>78</ns3:hr>
          </ns3:TrackPointExtension>
        </extensions>
      </trkpt>
      <trkpt lat="47.57420517504215240478515625" lon="-3.04905415512621402740478515625">
        <ele>-1</ele>
        <time>2026-08-15T16:38:54.000Z</time>
        <extensions>
          <ns3:TrackPointExtension>
            <ns3:hr>76</ns3:hr>
          </ns3:TrackPointExtension>
        </extensions>
      </trkpt>
      <trkpt lat="47.57419570349156856536865234375" lon="-3.04905381985008716583251953125">
        <ele>-1</ele>
        <time>2026-08-15T16:38:55.000Z</time>
        <extensions>
          <ns3:TrackPointExtension>
            <ns3:hr>77</ns3:hr>
          </ns3:TrackPointExtension>
        </extensions>
      </trkpt>
      <trkpt lat="47.57418916560709476470947265625" lon="-3.04904694668948650360107421875">
        <ele>-1</ele>
        <time>2026-08-15T16:38:56.000Z</time>
        <extensions>
          <ns3:TrackPointExtension>
            <ns3:hr>76</ns3:hr>
          </ns3:TrackPointExtension>
        </extensions>
      </trkpt>
      <trkpt lat="47.5741805322468280792236328125" lon="-3.04904895834624767303466796875">
        <ele>-1</ele>
        <time>2026-08-15T16:38:57.000Z</time>
        <extensions>
          <ns3:TrackPointExtension>
            <ns3:hr>77</ns3:hr>
          </ns3:TrackPointExtension>
        </extensions>
      </trkpt>
      <trkpt lat="47.5741751678287982940673828125" lon="-3.04904200136661529541015625">
        <ele>-1</ele>
        <time>2026-08-15T16:38:58.000Z</time>
        <extensions>
          <ns3:TrackPointExtension>
            <ns3:hr>76</ns3:hr>
          </ns3:TrackPointExtension>
        </extensions>
      </trkpt>
      <trkpt lat="47.57416536100208759307861328125" lon="-3.04903906770050525665283203125">
        <ele>-1.2000000476837158203125</ele>
        <time>2026-08-15T16:38:59.000Z</time>
        <extensions>
          <ns3:TrackPointExtension>
            <ns3:hr>78</ns3:hr>
          </ns3:TrackPointExtension>
        </extensions>
      </trkpt>
      <trkpt lat="47.574161589145660400390625" lon="-3.049037642776966094970703125">
        <ele>-2.2000000476837158203125</ele>
        <time>2026-08-15T16:39:00.000Z</time>
        <extensions>
          <ns3:TrackPointExtension>
            <ns3:hr>85</ns3:hr>
          </ns3:TrackPointExtension>
        </extensions>
      </trkpt>
      <trkpt lat="47.57415018975734710693359375" lon="-3.04903370328247547149658203125">
        <ele>-3.2000000476837158203125</ele>
        <time>2026-08-15T16:39:01.000Z</time>
        <extensions>
          <ns3:TrackPointExtension>
            <ns3:hr>89</ns3:hr>
          </ns3:TrackPointExtension>
        </extensions>
      </trkpt>
      <trkpt lat="47.57413937710225582122802734375" lon="-3.049028925597667694091796875">
        <ele>-4</ele>
        <time>2026-08-15T16:39:02.000Z</time>
        <extensions>
          <ns3:TrackPointExtension>
            <ns3:hr>91</ns3:hr>
          </ns3:TrackPointExtension>
        </extensions>
      </trkpt>
      <trkpt lat="47.5741268880665302276611328125" lon="-3.04902129806578159332275390625">
        <ele>-5</ele>
        <time>2026-08-15T16:39:03.000Z</time>
        <extensions>
          <ns3:TrackPointExtension>
            <ns3:hr>92</ns3:hr>
          </ns3:TrackPointExtension>
        </extensions>
      </trkpt>
      <trkpt lat="47.5741111300885677337646484375" lon="-3.04901383817195892333984375">
        <ele>-6</ele>
        <time>2026-08-15T16:39:04.000Z</time>
        <extensions>
          <ns3:TrackPointExtension>
            <ns3:hr>92</ns3:hr>
          </ns3:TrackPointExtension>
        </extensions>
      </trkpt>
      <trkpt lat="47.574097216129302978515625" lon="-3.04900151677429676055908203125">
        <ele>-6.19999980926513671875</ele>
        <time>2026-08-15T16:39:05.000Z</time>
        <extensions>
          <ns3:TrackPointExtension>
            <ns3:hr>92</ns3:hr>
          </ns3:TrackPointExtension>
        </extensions>
      </trkpt>
      <trkpt lat="47.574084140360355377197265625" lon="-3.0489948950707912445068359375">
        <ele>-6.400000095367431640625</ele>
        <time>2026-08-15T16:39:06.000Z</time>
        <extensions>
          <ns3:TrackPointExtension>
            <ns3:hr>92</ns3:hr>
          </ns3:TrackPointExtension>
        </extensions>
      </trkpt>
      <trkpt lat="47.574066706001758575439453125" lon="-3.048994727432727813720703125">
        <ele>-6.400000095367431640625</ele>
        <time>2026-08-15T16:39:07.000Z</time>
        <extensions>
          <ns3:TrackPointExtension>
            <ns3:hr>93</ns3:hr>
          </ns3:TrackPointExtension>
        </extensions>
      </trkpt>
      <trkpt lat="47.57405673153698444366455078125" lon="-3.04899330250918865203857421875">
        <ele>-6.400000095367431640625</ele>
        <time>2026-08-15T16:39:08.000Z</time>
        <extensions>
          <ns3:TrackPointExtension>
            <ns3:hr>94</ns3:hr>
          </ns3:TrackPointExtension>
        </extensions>
      </trkpt>
      <trkpt lat="47.574055306613445281982421875" lon="-3.04898994974792003631591796875">
        <ele>-6.599999904632568359375</ele>
        <time>2026-08-15T16:39:09.000Z</time>
        <extensions>
          <ns3:TrackPointExtension>
            <ns3:hr>95</ns3:hr>
          </ns3:TrackPointExtension>
        </extensions>
      </trkpt>
      <trkpt lat="47.5740618444979190826416015625" lon="-3.04897704161703586578369140625">
        <ele>-6.80000019073486328125</ele>
        <time>2026-08-15T16:39:10.000Z</time>
        <extensions>
          <ns3:TrackPointExtension>
            <ns3:hr>96</ns3:hr>
          </ns3:TrackPointExtension>
        </extensions>
      </trkpt>
      <trkpt lat="47.5740690529346466064453125" lon="-3.048966564238071441650390625">
        <ele>-7</ele>
        <time>2026-08-15T16:39:11.000Z</time>
        <extensions>
          <ns3:TrackPointExtension>
            <ns3:hr>97</ns3:hr>
          </ns3:TrackPointExtension>
        </extensions>
      </trkpt>
      <trkpt lat="47.57407399825751781463623046875" lon="-3.0489613674581050872802734375">
        <ele>-7.400000095367431640625</ele>
        <time>2026-08-15T16:39:12.000Z</time>
        <extensions>
          <ns3:TrackPointExtension>
            <ns3:hr>98</ns3:hr>
          </ns3:TrackPointExtension>
        </extensions>
      </trkpt>
      <trkpt lat="47.5740608386695384979248046875" lon="-3.04897368885576725006103515625">
        <ele>-7.599999904632568359375</ele>
        <time>2026-08-15T16:39:13.000Z</time>
        <extensions>
          <ns3:TrackPointExtension>
            <ns3:hr>98</ns3:hr>
          </ns3:TrackPointExtension>
        </extensions>
      </trkpt>
      <trkpt lat="47.57405170239508152008056640625" lon="-3.04897268302738666534423828125">
        <ele>-7.80000019073486328125</ele>
        <time>2026-08-15T16:39:14.000Z</time>
        <extensions>
          <ns3:TrackPointExtension>
            <ns3:hr>99</ns3:hr>
          </ns3:TrackPointExtension>
        </extensions>
      </trkpt>
      <trkpt lat="47.57404902018606662750244140625" lon="-3.048967905342578887939453125">
        <ele>-8</ele>
        <time>2026-08-15T16:39:15.000Z</time>
        <extensions>
          <ns3:TrackPointExtension>
            <ns3:hr>100</ns3:hr>
          </ns3:TrackPointExtension>
        </extensions>
      </trkpt>
      <trkpt lat="47.5740484334528446197509765625" lon="-3.0489487946033477783203125">
        <ele>-8</ele>
        <time>2026-08-15T16:39:16.000Z</time>
        <extensions>
          <ns3:TrackPointExtension>
            <ns3:hr>101</ns3:hr>
          </ns3:TrackPointExtension>
        </extensions>
      </trkpt>
      <trkpt lat="47.57404692471027374267578125" lon="-3.04894502274692058563232421875">
        <ele>-8</ele>
        <time>2026-08-15T16:39:17.000Z</time>
        <extensions>
          <ns3:TrackPointExtension>
            <ns3:hr>101</ns3:hr>
          </ns3:TrackPointExtension>
        </extensions>
      </trkpt>
      <trkpt lat="47.57404692471027374267578125" lon="-3.04894502274692058563232421875">
        <ele>-8</ele>
        <time>2026-08-15T16:39:18.000Z</time>
        <extensions>
          <ns3:TrackPointExtension>
            <ns3:hr>101</ns3:hr>
          </ns3:TrackPointExtension>
        </extensions>
      </trkpt>
      <trkpt lat="47.5740477629005908966064453125" lon="-3.04894804023206233978271484375">
        <ele>-8</ele>
        <time>2026-08-15T16:39:19.000Z</time>
        <extensions>
          <ns3:TrackPointExtension>
            <ns3:hr>100</ns3:hr>
          </ns3:TrackPointExtension>
        </extensions>
      </trkpt>
      <trkpt lat="47.5740534625947475433349609375" lon="-3.04895273409783840179443359375">
        <ele>-7.80000019073486328125</ele>
        <time>2026-08-15T16:39:20.000Z</time>
        <extensions>
          <ns3:TrackPointExtension>
            <ns3:hr>100</ns3:hr>
          </ns3:TrackPointExtension>
        </extensions>
      </trkpt>
      <trkpt lat="47.57405371405184268951416015625" lon="-3.04895759560167789459228515625">
        <ele>-7.80000019073486328125</ele>
        <time>2026-08-15T16:39:21.000Z</time>
        <extensions>
          <ns3:TrackPointExtension>
            <ns3:hr>101</ns3:hr>
          </ns3:TrackPointExtension>
        </extensions>
      </trkpt>
      <trkpt lat="47.57405438460409641265869140625" lon="-3.04896011017262935638427734375">
        <ele>-7.80000019073486328125</ele>
        <time>2026-08-15T16:39:22.000Z</time>
        <extensions>
          <ns3:TrackPointExtension>
            <ns3:hr>102</ns3:hr>
          </ns3:TrackPointExtension>
        </extensions>
      </trkpt>
      <trkpt lat="47.57405388168990612030029296875" lon="-3.0489606969058513641357421875">
        <ele>-7.599999904632568359375</ele>
        <time>2026-08-15T16:39:23.000Z</time>
        <extensions>
          <ns3:TrackPointExtension>
            <ns3:hr>102</ns3:hr>
          </ns3:TrackPointExtension>
        </extensions>
      </trkpt>
      <trkpt lat="47.57405572570860385894775390625" lon="-3.0489694140851497650146484375">
        <ele>-7</ele>
        <time>2026-08-15T16:39:24.000Z</time>
        <extensions>
          <ns3:TrackPointExtension>
            <ns3:hr>102</ns3:hr>
          </ns3:TrackPointExtension>
        </extensions>
      </trkpt>
      <trkpt lat="47.57405421696603298187255859375" lon="-3.04897804744541645050048828125">
        <ele>-6.599999904632568359375</ele>
        <time>2026-08-15T16:39:25.000Z</time>
        <extensions>
          <ns3:TrackPointExtension>
            <ns3:hr>103</ns3:hr>
          </ns3:TrackPointExtension>
        </extensions>
      </trkpt>
      <trkpt lat="47.5740497745573520660400390625" lon="-3.0489714257419109344482421875">
        <ele>-6.19999980926513671875</ele>
        <time>2026-08-15T16:39:26.000Z</time>
        <extensions>
          <ns3:TrackPointExtension>
            <ns3:hr>103</ns3:hr>
          </ns3:TrackPointExtension>
        </extensions>
      </trkpt>
      <trkpt lat="47.5740487687289714813232421875" lon="-3.04897335357964038848876953125">
        <ele>-6</ele>
        <time>2026-08-15T16:39:27.000Z</time>
        <extensions>
          <ns3:TrackPointExtension>
            <ns3:hr>103</ns3:hr>
          </ns3:TrackPointExtension>
        </extensions>
      </trkpt>
      <trkpt lat="47.57404918782413005828857421875" lon="-3.04896933026611804962158203125">
        <ele>-5.19999980926513671875</ele>
        <time>2026-08-15T16:39:28.000Z</time>
        <extensions>
          <ns3:TrackPointExtension>
            <ns3:hr>102</ns3:hr>
          </ns3:TrackPointExtension>
        </extensions>
      </trkpt>
      <trkpt lat="47.57404558360576629638671875" lon="-3.04896094836294651031494140625">
        <ele>-4.80000019073486328125</ele>
        <time>2026-08-15T16:39:29.000Z</time>
        <extensions>
          <ns3:TrackPointExtension>
            <ns3:hr>102</ns3:hr>
          </ns3:TrackPointExtension>
        </extensions>
      </trkpt>
      <trkpt lat="47.5740370340645313262939453125" lon="-3.04894837550818920135498046875">
        <ele>-4.400000095367431640625</ele>
        <time>2026-08-15T16:39:30.000Z</time>
        <extensions>
          <ns3:TrackPointExtension>
            <ns3:hr>102</ns3:hr>
          </ns3:TrackPointExtension>
        </extensions>
      </trkpt>
      <trkpt lat="47.57403326220810413360595703125" lon="-3.04894535802304744720458984375">
        <ele>-4</ele>
        <time>2026-08-15T16:39:31.000Z</time>
        <extensions>
          <ns3:TrackPointExtension>
            <ns3:hr>102</ns3:hr>
          </ns3:TrackPointExtension>
        </extensions>
      </trkpt>
      <trkpt lat="47.5740266405045986175537109375" lon="-3.048933707177639007568359375">
        <ele>-4</ele>
        <time>2026-08-15T16:39:32.000Z</time>
        <extensions>
          <ns3:TrackPointExtension>
            <ns3:hr>102</ns3:hr>
          </ns3:TrackPointExtension>
        </extensions>
      </trkpt>
      <trkpt lat="47.5740139000117778778076171875" lon="-3.04893110878765583038330078125">
        <ele>-3.7999999523162841796875</ele>
        <time>2026-08-15T16:39:33.000Z</time>
        <extensions>
          <ns3:TrackPointExtension>
            <ns3:hr>102</ns3:hr>
          </ns3:TrackPointExtension>
        </extensions>
      </trkpt>
      <trkpt lat="47.57400509901344776153564453125" lon="-3.04893471300601959228515625">
        <ele>-3.7999999523162841796875</ele>
        <time>2026-08-15T16:39:34.000Z</time>
        <extensions>
          <ns3:TrackPointExtension>
            <ns3:hr>103</ns3:hr>
          </ns3:TrackPointExtension>
        </extensions>
      </trkpt>
      <trkpt lat="47.57399604655802249908447265625" lon="-3.048928678035736083984375">
        <ele>-3.7999999523162841796875</ele>
        <time>2026-08-15T16:39:35.000Z</time>
        <extensions>
          <ns3:TrackPointExtension>
            <ns3:hr>103</ns3:hr>
          </ns3:TrackPointExtension>
        </extensions>
      </trkpt>
      <trkpt lat="47.573988921940326690673828125" lon="-3.04891836829483509063720703125">
        <ele>-3.7999999523162841796875</ele>
        <time>2026-08-15T16:39:36.000Z</time>
        <extensions>
          <ns3:TrackPointExtension>
            <ns3:hr>103</ns3:hr>
          </ns3:TrackPointExtension>
        </extensions>
      </trkpt>
      <trkpt lat="47.57397542707622051239013671875" lon="-3.0489104054868221282958984375">
        <ele>-3.599999904632568359375</ele>
        <time>2026-08-15T16:39:37.000Z</time>
        <extensions>
          <ns3:TrackPointExtension>
            <ns3:hr>103</ns3:hr>
          </ns3:TrackPointExtension>
        </extensions>
      </trkpt>
      <trkpt lat="47.57396469824016094207763671875" lon="-3.04890814237296581268310546875">
        <ele>-3.599999904632568359375</ele>
        <time>2026-08-15T16:39:38.000Z</time>
        <extensions>
          <ns3:TrackPointExtension>
            <ns3:hr>104</ns3:hr>
          </ns3:TrackPointExtension>
        </extensions>
      </trkpt>
      <trkpt lat="47.573961429297924041748046875" lon="-3.04891099222004413604736328125">
        <ele>-3.599999904632568359375</ele>
        <time>2026-08-15T16:39:39.000Z</time>
        <extensions>
          <ns3:TrackPointExtension>
            <ns3:hr>104</ns3:hr>
          </ns3:TrackPointExtension>
        </extensions>
      </trkpt>
      <trkpt lat="47.5739538855850696563720703125" lon="-3.04890495724976062774658203125">
        <ele>-3.599999904632568359375</ele>
        <time>2026-08-15T16:39:40.000Z</time>
        <extensions>
          <ns3:TrackPointExtension>
            <ns3:hr>104</ns3:hr>
          </ns3:TrackPointExtension>
        </extensions>
      </trkpt>
      <trkpt lat="47.573948018252849578857421875" lon="-3.048896491527557373046875">
        <ele>-3.599999904632568359375</ele>
        <time>2026-08-15T16:39:41.000Z</time>
        <extensions>
          <ns3:TrackPointExtension>
            <ns3:hr>103</ns3:hr>
          </ns3:TrackPointExtension>
        </extensions>
      </trkpt>
      <trkpt lat="47.5739404745399951934814453125" lon="-3.04888819344341754913330078125">
        <ele>-3.599999904632568359375</ele>
        <time>2026-08-15T16:39:42.000Z</time>
        <extensions>
          <ns3:TrackPointExtension>
            <ns3:hr>102</ns3:hr>
          </ns3:TrackPointExtension>
        </extensions>
      </trkpt>
      <trkpt lat="47.57393133826553821563720703125" lon="-3.0488788895308971405029296875">
        <ele>-3.599999904632568359375</ele>
        <time>2026-08-15T16:39:43.000Z</time>
        <extensions>
          <ns3:TrackPointExtension>
            <ns3:hr>102</ns3:hr>
          </ns3:TrackPointExtension>
        </extensions>
      </trkpt>
      <trkpt lat="47.5739216990768909454345703125" lon="-3.04887411184608936309814453125">
        <ele>-3.599999904632568359375</ele>
        <time>2026-08-15T16:39:44.000Z</time>
        <extensions>
          <ns3:TrackPointExtension>
            <ns3:hr>102</ns3:hr>
          </ns3:TrackPointExtension>
        </extensions>
      </trkpt>
      <trkpt lat="47.5739054381847381591796875" lon="-3.04886765778064727783203125">
        <ele>-3.599999904632568359375</ele>
        <time>2026-08-15T16:39:45.000Z</time>
        <extensions>
          <ns3:TrackPointExtension>
            <ns3:hr>101</ns3:hr>
          </ns3:TrackPointExtension>
        </extensions>
      </trkpt>
      <trkpt lat="47.5738898478448390960693359375" lon="-3.048856258392333984375">
        <ele>-3.599999904632568359375</ele>
        <time>2026-08-15T16:39:46.000Z</time>
        <extensions>
          <ns3:TrackPointExtension>
            <ns3:hr>102</ns3:hr>
          </ns3:TrackPointExtension>
        </extensions>
      </trkpt>
      <trkpt lat="47.57386780343949794769287109375" lon="-3.0488426797091960906982421875">
        <ele>-3.7999999523162841796875</ele>
        <time>2026-08-15T16:39:47.000Z</time>
        <extensions>
          <ns3:TrackPointExtension>
            <ns3:hr>104</ns3:hr>
          </ns3:TrackPointExtension>
        </extensions>
      </trkpt>
      <trkpt lat="47.5738435797393321990966796875" lon="-3.0488302744925022125244140625">
        <ele>-3.7999999523162841796875</ele>
        <time>2026-08-15T16:39:48.000Z</time>
        <extensions>
          <ns3:TrackPointExtension>
            <ns3:hr>104</ns3:hr>
          </ns3:TrackPointExtension>
        </extensions>
      </trkpt>
      <trkpt lat="47.57381767965853214263916015625" lon="-3.04881828837096691131591796875">
        <ele>-3.7999999523162841796875</ele>
        <time>2026-08-15T16:39:49.000Z</time>
        <extensions>
          <ns3:TrackPointExtension>
            <ns3:hr>104</ns3:hr>
          </ns3:TrackPointExtension>
        </extensions>
      </trkpt>
      <trkpt lat="47.5737872533500194549560546875" lon="-3.04880823008716106414794921875">
        <ele>-3.599999904632568359375</ele>
        <time>2026-08-15T16:39:50.000Z</time>
        <extensions>
          <ns3:TrackPointExtension>
            <ns3:hr>105</ns3:hr>
          </ns3:TrackPointExtension>
        </extensions>
      </trkpt>
      <trkpt lat="47.5737614370882511138916015625" lon="-3.04879783652722835540771484375">
        <ele>-3.599999904632568359375</ele>
        <time>2026-08-15T16:39:51.000Z</time>
        <extensions>
          <ns3:TrackPointExtension>
            <ns3:hr>105</ns3:hr>
          </ns3:TrackPointExtension>
        </extensions>
      </trkpt>
      <trkpt lat="47.57373620755970478057861328125" lon="-3.04878761060535907745361328125">
        <ele>-3</ele>
        <time>2026-08-15T16:39:52.000Z</time>
        <extensions>
          <ns3:TrackPointExtension>
            <ns3:hr>105</ns3:hr>
          </ns3:TrackPointExtension>
        </extensions>
      </trkpt>
      <trkpt lat="47.57371005602180957794189453125" lon="-3.0487726069986820220947265625">
        <ele>-2.2000000476837158203125</ele>
        <time>2026-08-15T16:39:53.000Z</time>
        <extensions>
          <ns3:TrackPointExtension>
            <ns3:hr>106</ns3:hr>
          </ns3:TrackPointExtension>
        </extensions>
      </trkpt>
      <trkpt lat="47.573684491217136383056640625" lon="-3.04876514710485935211181640625">
        <ele>-2.2000000476837158203125</ele>
        <time>2026-08-15T16:39:54.000Z</time>
        <extensions>
          <ns3:TrackPointExtension>
            <ns3:hr>106</ns3:hr>
          </ns3:TrackPointExtension>
        </extensions>
      </trkpt>
      <trkpt lat="47.5736621953547000885009765625" lon="-3.04875575937330722808837890625">
        <ele>-2.2000000476837158203125</ele>
        <time>2026-08-15T16:39:55.000Z</time>
        <extensions>
          <ns3:TrackPointExtension>
            <ns3:hr>106</ns3:hr>
          </ns3:TrackPointExtension>
        </extensions>
      </trkpt>
      <trkpt lat="47.57364367134869098663330078125" lon="-3.04874922148883342742919921875">
        <ele>-2.2000000476837158203125</ele>
        <time>2026-08-15T16:39:56.000Z</time>
        <extensions>
          <ns3:TrackPointExtension>
            <ns3:hr>108</ns3:hr>
          </ns3:TrackPointExtension>
        </extensions>
      </trkpt>
      <trkpt lat="47.57363260723650455474853515625" lon="-3.0487457849085330963134765625">
        <ele>-2.400000095367431640625</ele>
        <time>2026-08-15T16:39:57.000Z</time>
        <extensions>
          <ns3:TrackPointExtension>
            <ns3:hr>107</ns3:hr>
          </ns3:TrackPointExtension>
        </extensions>
      </trkpt>
      <trkpt lat="47.5736246444284915924072265625" lon="-3.0487410910427570343017578125">
        <ele>-2.400000095367431640625</ele>
        <time>2026-08-15T16:39:58.000Z</time>
        <extensions>
          <ns3:TrackPointExtension>
            <ns3:hr>107</ns3:hr>
          </ns3:TrackPointExtension>
        </extensions>
      </trkpt>
      <trkpt lat="47.57361316122114658355712890625" lon="-3.04874050430953502655029296875">
        <ele>-2.400000095367431640625</ele>
        <time>2026-08-15T16:39:59.000Z</time>
        <extensions>
          <ns3:TrackPointExtension>
            <ns3:hr>107</ns3:hr>
          </ns3:TrackPointExtension>
        </extensions>
      </trkpt>
      <trkpt lat="47.5735978223383426666259765625" lon="-3.04873597808182239532470703125">
        <ele>-2.400000095367431640625</ele>
        <time>2026-08-15T16:40:00.000Z</time>
        <extensions>
          <ns3:TrackPointExtension>
            <ns3:hr>109</ns3:hr>
          </ns3:TrackPointExtension>
        </extensions>
      </trkpt>
      <trkpt lat="47.5735773704946041107177734375" lon="-3.04872818291187286376953125">
        <ele>-2.2000000476837158203125</ele>
        <time>2026-08-15T16:40:01.000Z</time>
        <extensions>
          <ns3:TrackPointExtension>
            <ns3:hr>110</ns3:hr>
          </ns3:TrackPointExtension>
        </extensions>
      </trkpt>
      <trkpt lat="47.5735594332218170166015625" lon="-3.04871770553290843963623046875">
        <ele>-2</ele>
        <time>2026-08-15T16:40:02.000Z</time>
        <extensions>
          <ns3:TrackPointExtension>
            <ns3:hr>111</ns3:hr>
          </ns3:TrackPointExtension>
        </extensions>
      </trkpt>
      <trkpt lat="47.5735401548445224761962890625" lon="-3.048701696097850799560546875">
        <ele>-2</ele>
        <time>2026-08-15T16:40:03.000Z</time>
        <extensions>
          <ns3:TrackPointExtension>
            <ns3:hr>112</ns3:hr>
          </ns3:TrackPointExtension>
        </extensions>
      </trkpt>
      <trkpt lat="47.5735156796872615814208984375" lon="-3.04868124425411224365234375">
        <ele>-2.2000000476837158203125</ele>
        <time>2026-08-15T16:40:04.000Z</time>
        <extensions>
          <ns3:TrackPointExtension>
            <ns3:hr>111</ns3:hr>
          </ns3:TrackPointExtension>
        </extensions>
      </trkpt>
      <trkpt lat="47.5734888575971126556396484375" lon="-3.04866959340870380401611328125">
        <ele>-2.400000095367431640625</ele>
        <time>2026-08-15T16:40:05.000Z</time>
        <extensions>
          <ns3:TrackPointExtension>
            <ns3:hr>111</ns3:hr>
          </ns3:TrackPointExtension>
        </extensions>
      </trkpt>
      <trkpt lat="47.573465220630168914794921875" lon="-3.0486619658768177032470703125">
        <ele>-2.599999904632568359375</ele>
        <time>2026-08-15T16:40:06.000Z</time>
        <extensions>
          <ns3:TrackPointExtension>
            <ns3:hr>110</ns3:hr>
          </ns3:TrackPointExtension>
        </extensions>
      </trkpt>
      <trkpt lat="47.57344904355704784393310546875" lon="-3.04864981211721897125244140625">
        <ele>-2.7999999523162841796875</ele>
        <time>2026-08-15T16:40:07.000Z</time>
        <extensions>
          <ns3:TrackPointExtension>
            <ns3:hr>111</ns3:hr>
          </ns3:TrackPointExtension>
        </extensions>
      </trkpt>
      <trkpt lat="47.57343580015003681182861328125" lon="-3.04863958619534969329833984375">
        <ele>-3</ele>
        <time>2026-08-15T16:40:08.000Z</time>
        <extensions>
          <ns3:TrackPointExtension>
            <ns3:hr>111</ns3:hr>
          </ns3:TrackPointExtension>
        </extensions>
      </trkpt>
      <trkpt lat="47.57342557422816753387451171875" lon="-3.04862894117832183837890625">
        <ele>-3</ele>
        <time>2026-08-15T16:40:09.000Z</time>
        <extensions>
          <ns3:TrackPointExtension>
            <ns3:hr>112</ns3:hr>
          </ns3:TrackPointExtension>
        </extensions>
      </trkpt>
      <trkpt lat="47.57341568358242511749267578125" lon="-3.04862550459802150726318359375">
        <ele>-3.2000000476837158203125</ele>
        <time>2026-08-15T16:40:10.000Z</time>
        <extensions>
          <ns3:TrackPointExtension>
            <ns3:hr>113</ns3:hr>
          </ns3:TrackPointExtension>
        </extensions>
      </trkpt>
      <trkpt lat="47.5734016858041286468505859375" lon="-3.04861494340002536773681640625">
        <ele>-3.400000095367431640625</ele>
        <time>2026-08-15T16:40:11.000Z</time>
        <extensions>
          <ns3:TrackPointExtension>
            <ns3:hr>114</ns3:hr>
          </ns3:TrackPointExtension>
        </extensions>
      </trkpt>
      <trkpt lat="47.5733879394829273223876953125" lon="-3.048609830439090728759765625">
        <ele>-3.400000095367431640625</ele>
        <time>2026-08-15T16:40:12.000Z</time>
        <extensions>
          <ns3:TrackPointExtension>
            <ns3:hr>114</ns3:hr>
          </ns3:TrackPointExtension>
        </extensions>
      </trkpt>
      <trkpt lat="47.57337771356105804443359375" lon="-3.04860371164977550506591796875">
        <ele>-3.400000095367431640625</ele>
        <time>2026-08-15T16:40:13.000Z</time>
        <extensions>
          <ns3:TrackPointExtension>
            <ns3:hr>115</ns3:hr>
          </ns3:TrackPointExtension>
        </extensions>
      </trkpt>
      <trkpt lat="47.5733601115643978118896484375" lon="-3.048596419394016265869140625">
        <ele>-3.400000095367431640625</ele>
        <time>2026-08-15T16:40:14.000Z</time>
        <extensions>
          <ns3:TrackPointExtension>
            <ns3:hr>115</ns3:hr>
          </ns3:TrackPointExtension>
        </extensions>
      </trkpt>
      <trkpt lat="47.57334829308092594146728515625" lon="-3.04858258925378322601318359375">
        <ele>-3.2000000476837158203125</ele>
        <time>2026-08-15T16:40:15.000Z</time>
        <extensions>
          <ns3:TrackPointExtension>
            <ns3:hr>115</ns3:hr>
          </ns3:TrackPointExtension>
        </extensions>
      </trkpt>
      <trkpt lat="47.573329769074916839599609375" lon="-3.04857253096997737884521484375">
        <ele>-3.2000000476837158203125</ele>
        <time>2026-08-15T16:40:16.000Z</time>
        <extensions>
          <ns3:TrackPointExtension>
            <ns3:hr>114</ns3:hr>
          </ns3:TrackPointExtension>
        </extensions>
      </trkpt>
      <trkpt lat="47.5733084790408611297607421875" lon="-3.0485625565052032470703125">
        <ele>-3</ele>
        <time>2026-08-15T16:40:17.000Z</time>
        <extensions>
          <ns3:TrackPointExtension>
            <ns3:hr>114</ns3:hr>
          </ns3:TrackPointExtension>
        </extensions>
      </trkpt>
      <trkpt lat="47.573289535939693450927734375" lon="-3.04854570887982845306396484375">
        <ele>-3.2000000476837158203125</ele>
        <time>2026-08-15T16:40:18.000Z</time>
        <extensions>
          <ns3:TrackPointExtension>
            <ns3:hr>114</ns3:hr>
          </ns3:TrackPointExtension>
        </extensions>
      </trkpt>
      <trkpt lat="47.57326413877308368682861328125" lon="-3.04852240718901157379150390625">
        <ele>-3.2000000476837158203125</ele>
        <time>2026-08-15T16:40:19.000Z</time>
        <extensions>
          <ns3:TrackPointExtension>
            <ns3:hr>111</ns3:hr>
          </ns3:TrackPointExtension>
        </extensions>
      </trkpt>
      <trkpt lat="47.573234550654888153076171875" lon="-3.04850564338266849517822265625">
        <ele>-2.7999999523162841796875</ele>
        <time>2026-08-15T16:40:20.000Z</time>
        <extensions>
          <ns3:TrackPointExtension>
            <ns3:hr>107</ns3:hr>
          </ns3:TrackPointExtension>
        </extensions>
      </trkpt>
      <trkpt lat="47.5731971673667430877685546875" lon="-3.04848921485245227813720703125">
        <ele>-2.400000095367431640625</ele>
        <time>2026-08-15T16:40:21.000Z</time>
        <extensions>
          <ns3:TrackPointExtension>
            <ns3:hr>106</ns3:hr>
          </ns3:TrackPointExtension>
        </extensions>
      </trkpt>
      <trkpt lat="47.57315416820347309112548828125" lon="-3.04847781546413898468017578125">
        <ele>-1.7999999523162841796875</ele>
        <time>2026-08-15T16:40:22.000Z</time>
        <extensions>
          <ns3:TrackPointExtension>
            <ns3:hr>105</ns3:hr>
          </ns3:TrackPointExtension>
        </extensions>
      </trkpt>
      <trkpt lat="47.57310521788895130157470703125" lon="-3.04847463034093379974365234375">
        <ele>-1.60000002384185791015625</ele>
        <time>2026-08-15T16:40:23.000Z</time>
        <extensions>
          <ns3:TrackPointExtension>
            <ns3:hr>104</ns3:hr>
          </ns3:TrackPointExtension>
        </extensions>
      </trkpt>
      <trkpt lat="47.57305392064154148101806640625" lon="-3.04847530089318752288818359375">
        <ele>-1.2000000476837158203125</ele>
        <time>2026-08-15T16:40:24.000Z</time>
        <extensions>
          <ns3:TrackPointExtension>
            <ns3:hr>103</ns3:hr>
          </ns3:TrackPointExtension>
        </extensions>
      </trkpt>
      <trkpt lat="47.57300245575606822967529296875" lon="-3.04847731254994869232177734375">
        <ele>-1.2000000476837158203125</ele>
        <time>2026-08-15T16:40:25.000Z</time>
        <extensions>
          <ns3:TrackPointExtension>
            <ns3:hr>102</ns3:hr>
          </ns3:TrackPointExtension>
        </extensions>
      </trkpt>
      <trkpt lat="47.57295182906091213226318359375" lon="-3.048475049436092376708984375">
        <ele>-1.39999997615814208984375</ele>
        <time>2026-08-15T16:40:26.000Z</time>
        <extensions>
          <ns3:TrackPointExtension>
            <ns3:hr>101</ns3:hr>
          </ns3:TrackPointExtension>
        </extensions>
      </trkpt>
      <trkpt lat="47.5728960894048213958740234375" lon="-3.0484631471335887908935546875">
        <ele>-1.39999997615814208984375</ele>
        <time>2026-08-15T16:40:27.000Z</time>
        <extensions>
          <ns3:TrackPointExtension>
            <ns3:hr>102</ns3:hr>
          </ns3:TrackPointExtension>
        </extensions>
      </trkpt>
      <trkpt lat="47.57284102030098438262939453125" lon="-3.04844764061272144317626953125">
        <ele>-1.39999997615814208984375</ele>
        <time>2026-08-15T16:40:28.000Z</time>
        <extensions>
          <ns3:TrackPointExtension>
            <ns3:hr>102</ns3:hr>
          </ns3:TrackPointExtension>
        </extensions>
      </trkpt>
      <trkpt lat="47.5727851130068302154541015625" lon="-3.0484403483569622039794921875">
        <ele>-1.39999997615814208984375</ele>
        <time>2026-08-15T16:40:29.000Z</time>
        <extensions>
          <ns3:TrackPointExtension>
            <ns3:hr>104</ns3:hr>
          </ns3:TrackPointExtension>
        </extensions>
      </trkpt>
      <trkpt lat="47.5727284513413906097412109375" lon="-3.0484316311776638031005859375">
        <ele>-1.60000002384185791015625</ele>
        <time>2026-08-15T16:40:30.000Z</time>
        <extensions>
          <ns3:TrackPointExtension>
            <ns3:hr>105</ns3:hr>
          </ns3:TrackPointExtension>
        </extensions>
      </trkpt>
      <trkpt lat="47.572669945657253265380859375" lon="-3.0484343133866786956787109375">
        <ele>-1.39999997615814208984375</ele>
        <time>2026-08-15T16:40:31.000Z</time>
        <extensions>
          <ns3:TrackPointExtension>
            <ns3:hr>107</ns3:hr>
          </ns3:TrackPointExtension>
        </extensions>
      </trkpt>
      <trkpt lat="47.57261336781084537506103515625" lon="-3.0484413541853427886962890625">
        <ele>-1.2000000476837158203125</ele>
        <time>2026-08-15T16:40:32.000Z</time>
        <extensions>
          <ns3:TrackPointExtension>
            <ns3:hr>107</ns3:hr>
          </ns3:TrackPointExtension>
        </extensions>
      </trkpt>
      <trkpt lat="47.57255352102220058441162109375" lon="-3.0484525859355926513671875">
        <ele>-1.2000000476837158203125</ele>
        <time>2026-08-15T16:40:33.000Z</time>
        <extensions>
          <ns3:TrackPointExtension>
            <ns3:hr>107</ns3:hr>
          </ns3:TrackPointExtension>
        </extensions>
      </trkpt>
      <trkpt lat="47.57249400950968265533447265625" lon="-3.0484571121633052825927734375">
        <ele>-1.2000000476837158203125</ele>
        <time>2026-08-15T16:40:34.000Z</time>
        <extensions>
          <ns3:TrackPointExtension>
            <ns3:hr>108</ns3:hr>
          </ns3:TrackPointExtension>
        </extensions>
      </trkpt>
      <trkpt lat="47.57243751548230648040771484375" lon="-3.048461973667144775390625">
        <ele>-1</ele>
        <time>2026-08-15T16:40:35.000Z</time>
        <extensions>
          <ns3:TrackPointExtension>
            <ns3:hr>108</ns3:hr>
          </ns3:TrackPointExtension>
        </extensions>
      </trkpt>
      <trkpt lat="47.572382949292659759521484375" lon="-3.048473037779331207275390625">
        <ele>-1.2000000476837158203125</ele>
        <time>2026-08-15T16:40:36.000Z</time>
        <extensions>
          <ns3:TrackPointExtension>
            <ns3:hr>108</ns3:hr>
          </ns3:TrackPointExtension>
        </extensions>
      </trkpt>
      <trkpt lat="47.57232570089399814605712890625" lon="-3.0484809167683124542236328125">
        <ele>-1.39999997615814208984375</ele>
        <time>2026-08-15T16:40:37.000Z</time>
        <extensions>
          <ns3:TrackPointExtension>
            <ns3:hr>108</ns3:hr>
          </ns3:TrackPointExtension>
        </extensions>
      </trkpt>
      <trkpt lat="47.57227172143757343292236328125" lon="-3.0484842695295810699462890625">
        <ele>-1.60000002384185791015625</ele>
        <time>2026-08-15T16:40:38.000Z</time>
        <extensions>
          <ns3:TrackPointExtension>
            <ns3:hr>108</ns3:hr>
          </ns3:TrackPointExtension>
        </extensions>
      </trkpt>
      <trkpt lat="47.57221640087664127349853515625" lon="-3.04848619736731052398681640625">
        <ele>-1.39999997615814208984375</ele>
        <time>2026-08-15T16:40:39.000Z</time>
        <extensions>
          <ns3:TrackPointExtension>
            <ns3:hr>109</ns3:hr>
          </ns3:TrackPointExtension>
        </extensions>
      </trkpt>
      <trkpt lat="47.57215655408799648284912109375" lon="-3.04848435334861278533935546875">
        <ele>-1.60000002384185791015625</ele>
        <time>2026-08-15T16:40:40.000Z</time>
        <extensions>
          <ns3:TrackPointExtension>
            <ns3:hr>109</ns3:hr>
          </ns3:TrackPointExtension>
        </extensions>
      </trkpt>
      <trkpt lat="47.57209855131804943084716796875" lon="-3.04848686791956424713134765625">
        <ele>-1.60000002384185791015625</ele>
        <time>2026-08-15T16:40:41.000Z</time>
        <extensions>
          <ns3:TrackPointExtension>
            <ns3:hr>109</ns3:hr>
          </ns3:TrackPointExtension>
        </extensions>
      </trkpt>
      <trkpt lat="47.5720441527664661407470703125" lon="-3.0484963394701480865478515625">
        <ele>-1.39999997615814208984375</ele>
        <time>2026-08-15T16:40:42.000Z</time>
        <extensions>
          <ns3:TrackPointExtension>
            <ns3:hr>110</ns3:hr>
          </ns3:TrackPointExtension>
        </extensions>
      </trkpt>
      <trkpt lat="47.571985982358455657958984375" lon="-3.04850396700203418731689453125">
        <ele>-1.2000000476837158203125</ele>
        <time>2026-08-15T16:40:43.000Z</time>
        <extensions>
          <ns3:TrackPointExtension>
            <ns3:hr>111</ns3:hr>
          </ns3:TrackPointExtension>
        </extensions>
      </trkpt>
      <trkpt lat="47.571928985416889190673828125" lon="-3.04851419292390346527099609375">
        <ele>-1.2000000476837158203125</ele>
        <time>2026-08-15T16:40:44.000Z</time>
        <extensions>
          <ns3:TrackPointExtension>
            <ns3:hr>112</ns3:hr>
          </ns3:TrackPointExtension>
        </extensions>
      </trkpt>
      <trkpt lat="47.57187006063759326934814453125" lon="-3.0485285259783267974853515625">
        <ele>-1.2000000476837158203125</ele>
        <time>2026-08-15T16:40:45.000Z</time>
        <extensions>
          <ns3:TrackPointExtension>
            <ns3:hr>113</ns3:hr>
          </ns3:TrackPointExtension>
        </extensions>
      </trkpt>
      <trkpt lat="47.57181541062891483306884765625" lon="-3.04854101501405239105224609375">
        <ele>-1.2000000476837158203125</ele>
        <time>2026-08-15T16:40:46.000Z</time>
        <extensions>
          <ns3:TrackPointExtension>
            <ns3:hr>114</ns3:hr>
          </ns3:TrackPointExtension>
        </extensions>
      </trkpt>
      <trkpt lat="47.57176101207733154296875" lon="-3.04855040274560451507568359375">
        <ele>-1.39999997615814208984375</ele>
        <time>2026-08-15T16:40:47.000Z</time>
        <extensions>
          <ns3:TrackPointExtension>
            <ns3:hr>116</ns3:hr>
          </ns3:TrackPointExtension>
        </extensions>
      </trkpt>
      <trkpt lat="47.57170242257416248321533203125" lon="-3.04855409078299999237060546875">
        <ele>-1.60000002384185791015625</ele>
        <time>2026-08-15T16:40:48.000Z</time>
        <extensions>
          <ns3:TrackPointExtension>
            <ns3:hr>116</ns3:hr>
          </ns3:TrackPointExtension>
        </extensions>
      </trkpt>
      <trkpt lat="47.5716421566903591156005859375" lon="-3.0485503189265727996826171875">
        <ele>-1.60000002384185791015625</ele>
        <time>2026-08-15T16:40:49.000Z</time>
        <extensions>
          <ns3:TrackPointExtension>
            <ns3:hr>117</ns3:hr>
          </ns3:TrackPointExtension>
        </extensions>
      </trkpt>
      <trkpt lat="47.57158063352108001708984375" lon="-3.04854000918567180633544921875">
        <ele>-1.39999997615814208984375</ele>
        <time>2026-08-15T16:40:50.000Z</time>
        <extensions>
          <ns3:TrackPointExtension>
            <ns3:hr>117</ns3:hr>
          </ns3:TrackPointExtension>
        </extensions>
      </trkpt>
      <trkpt lat="47.571519948542118072509765625" lon="-3.0485362373292446136474609375">
        <ele>-1.2000000476837158203125</ele>
        <time>2026-08-15T16:40:51.000Z</time>
        <extensions>
          <ns3:TrackPointExtension>
            <ns3:hr>117</ns3:hr>
          </ns3:TrackPointExtension>
        </extensions>
      </trkpt>
      <trkpt lat="47.571459598839282989501953125" lon="-3.04854101501405239105224609375">
        <ele>-0.800000011920928955078125</ele>
        <time>2026-08-15T16:40:52.000Z</time>
        <extensions>
          <ns3:TrackPointExtension>
            <ns3:hr>116</ns3:hr>
          </ns3:TrackPointExtension>
        </extensions>
      </trkpt>
      <trkpt lat="47.57139514200389385223388671875" lon="-3.04854570887982845306396484375">
        <ele>-0.800000011920928955078125</ele>
        <time>2026-08-15T16:40:53.000Z</time>
        <extensions>
          <ns3:TrackPointExtension>
            <ns3:hr>116</ns3:hr>
          </ns3:TrackPointExtension>
        </extensions>
      </trkpt>
      <trkpt lat="47.57133118808269500732421875" lon="-3.04855710826814174652099609375">
        <ele>-0.60000002384185791015625</ele>
        <time>2026-08-15T16:40:54.000Z</time>
        <extensions>
          <ns3:TrackPointExtension>
            <ns3:hr>116</ns3:hr>
          </ns3:TrackPointExtension>
        </extensions>
      </trkpt>
      <trkpt lat="47.571263127028942108154296875" lon="-3.04857261478900909423828125">
        <ele>-0.4000000059604644775390625</ele>
        <time>2026-08-15T16:40:55.000Z</time>
        <extensions>
          <ns3:TrackPointExtension>
            <ns3:hr>115</ns3:hr>
          </ns3:TrackPointExtension>
        </extensions>
      </trkpt>
      <trkpt lat="47.57119984365999698638916015625" lon="-3.04857990704476833343505859375">
        <ele>-0.4000000059604644775390625</ele>
        <time>2026-08-15T16:40:56.000Z</time>
        <extensions>
          <ns3:TrackPointExtension>
            <ns3:hr>113</ns3:hr>
          </ns3:TrackPointExtension>
        </extensions>
      </trkpt>
      <trkpt lat="47.5711348839104175567626953125" lon="-3.04859583266079425811767578125">
        <ele>-0.60000002384185791015625</ele>
        <time>2026-08-15T16:40:57.000Z</time>
        <extensions>
          <ns3:TrackPointExtension>
            <ns3:hr>111</ns3:hr>
          </ns3:TrackPointExtension>
        </extensions>
      </trkpt>
      <trkpt lat="47.57107193581759929656982421875" lon="-3.0486167035996913909912109375">
        <ele>-0.4000000059604644775390625</ele>
        <time>2026-08-15T16:40:58.000Z</time>
        <extensions>
          <ns3:TrackPointExtension>
            <ns3:hr>112</ns3:hr>
          </ns3:TrackPointExtension>
        </extensions>
      </trkpt>
      <trkpt lat="47.571008317172527313232421875" lon="-3.04863438941538333892822265625">
        <ele>-0.60000002384185791015625</ele>
        <time>2026-08-15T16:40:59.000Z</time>
        <extensions>
          <ns3:TrackPointExtension>
            <ns3:hr>114</ns3:hr>
          </ns3:TrackPointExtension>
        </extensions>
      </trkpt>
      <trkpt lat="47.57094302214682102203369140625" lon="-3.0486488901078701019287109375">
        <ele>-0.800000011920928955078125</ele>
        <time>2026-08-15T16:41:00.000Z</time>
        <extensions>
          <ns3:TrackPointExtension>
            <ns3:hr>115</ns3:hr>
          </ns3:TrackPointExtension>
        </extensions>
      </trkpt>
      <trkpt lat="47.5708797387778759002685546875" lon="-3.04866380989551544189453125">
        <ele>-0.800000011920928955078125</ele>
        <time>2026-08-15T16:41:01.000Z</time>
        <extensions>
          <ns3:TrackPointExtension>
            <ns3:hr>115</ns3:hr>
          </ns3:TrackPointExtension>
        </extensions>
      </trkpt>
      <trkpt lat="47.57081888616085052490234375" lon="-3.048679567873477935791015625">
        <ele>-0.800000011920928955078125</ele>
        <time>2026-08-15T16:41:02.000Z</time>
        <extensions>
          <ns3:TrackPointExtension>
            <ns3:hr>115</ns3:hr>
          </ns3:TrackPointExtension>
        </extensions>
      </trkpt>
      <trkpt lat="47.57076079957187175750732421875" lon="-3.0487028695642948150634765625">
        <ele>-0.60000002384185791015625</ele>
        <time>2026-08-15T16:41:03.000Z</time>
        <extensions>
          <ns3:TrackPointExtension>
            <ns3:hr>116</ns3:hr>
          </ns3:TrackPointExtension>
        </extensions>
      </trkpt>
      <trkpt lat="47.570703886449337005615234375" lon="-3.04872793145477771759033203125">
        <ele>-1</ele>
        <time>2026-08-15T16:41:04.000Z</time>
        <extensions>
          <ns3:TrackPointExtension>
            <ns3:hr>115</ns3:hr>
          </ns3:TrackPointExtension>
        </extensions>
      </trkpt>
      <trkpt lat="47.5706356577575206756591796875" lon="-3.04874570108950138092041015625">
        <ele>-0.800000011920928955078125</ele>
        <time>2026-08-15T16:41:05.000Z</time>
        <extensions>
          <ns3:TrackPointExtension>
            <ns3:hr>112</ns3:hr>
          </ns3:TrackPointExtension>
        </extensions>
      </trkpt>
      <trkpt lat="47.570565752685070037841796875" lon="-3.0487648956477642059326171875">
        <ele>-0.60000002384185791015625</ele>
        <time>2026-08-15T16:41:06.000Z</time>
        <extensions>
          <ns3:TrackPointExtension>
            <ns3:hr>109</ns3:hr>
          </ns3:TrackPointExtension>
        </extensions>
      </trkpt>
      <trkpt lat="47.57049744017422199249267578125" lon="-3.04878559894859790802001953125">
        <ele>-0.800000011920928955078125</ele>
        <time>2026-08-15T16:41:07.000Z</time>
        <extensions>
          <ns3:TrackPointExtension>
            <ns3:hr>106</ns3:hr>
          </ns3:TrackPointExtension>
        </extensions>
      </trkpt>
      <trkpt lat="47.57043289951980113983154296875" lon="-3.04880403913557529449462890625">
        <ele>-0.60000002384185791015625</ele>
        <time>2026-08-15T16:41:08.000Z</time>
        <extensions>
          <ns3:TrackPointExtension>
            <ns3:hr>105</ns3:hr>
          </ns3:TrackPointExtension>
        </extensions>
      </trkpt>
      <trkpt lat="47.57037104107439517974853515625" lon="-3.04882113821804523468017578125">
        <ele>-0.20000000298023223876953125</ele>
        <time>2026-08-15T16:41:09.000Z</time>
        <extensions>
          <ns3:TrackPointExtension>
            <ns3:hr>106</ns3:hr>
          </ns3:TrackPointExtension>
        </extensions>
      </trkpt>
      <trkpt lat="47.57030683569610118865966796875" lon="-3.04883991368114948272705078125">
        <ele>-0.20000000298023223876953125</ele>
        <time>2026-08-15T16:41:10.000Z</time>
        <extensions>
          <ns3:TrackPointExtension>
            <ns3:hr>107</ns3:hr>
          </ns3:TrackPointExtension>
        </extensions>
      </trkpt>
      <trkpt lat="47.5702494196593761444091796875" lon="-3.0488520674407482147216796875">
        <ele>-0.4000000059604644775390625</ele>
        <time>2026-08-15T16:41:11.000Z</time>
        <extensions>
          <ns3:TrackPointExtension>
            <ns3:hr>108</ns3:hr>
          </ns3:TrackPointExtension>
        </extensions>
      </trkpt>
      <trkpt lat="47.5701900757849216461181640625" lon="-3.04886120371520519256591796875">
        <ele>-0.60000002384185791015625</ele>
        <time>2026-08-15T16:41:12.000Z</time>
        <extensions>
          <ns3:TrackPointExtension>
            <ns3:hr>108</ns3:hr>
          </ns3:TrackPointExtension>
        </extensions>
      </trkpt>
      <trkpt lat="47.57013081572949886322021484375" lon="-3.04888240993022918701171875">
        <ele>-0.800000011920928955078125</ele>
        <time>2026-08-15T16:41:13.000Z</time>
        <extensions>
          <ns3:TrackPointExtension>
            <ns3:hr>107</ns3:hr>
          </ns3:TrackPointExtension>
        </extensions>
      </trkpt>
      <trkpt lat="47.570080943405628204345703125" lon="-3.04891233332455158233642578125">
        <ele>-1</ele>
        <time>2026-08-15T16:41:14.000Z</time>
        <extensions>
          <ns3:TrackPointExtension>
            <ns3:hr>107</ns3:hr>
          </ns3:TrackPointExtension>
        </extensions>
      </trkpt>
      <trkpt lat="47.570032663643360137939453125" lon="-3.04893680848181247711181640625">
        <ele>-1.2000000476837158203125</ele>
        <time>2026-08-15T16:41:15.000Z</time>
        <extensions>
          <ns3:TrackPointExtension>
            <ns3:hr>106</ns3:hr>
          </ns3:TrackPointExtension>
        </extensions>
      </trkpt>
      <trkpt lat="47.56998463533818721771240234375" lon="-3.0489622056484222412109375">
        <ele>-1.2000000476837158203125</ele>
        <time>2026-08-15T16:41:16.000Z</time>
        <extensions>
          <ns3:TrackPointExtension>
            <ns3:hr>107</ns3:hr>
          </ns3:TrackPointExtension>
        </extensions>
      </trkpt>
      <trkpt lat="47.569938786327838897705078125" lon="-3.04898508824408054351806640625">
        <ele>-1.2000000476837158203125</ele>
        <time>2026-08-15T16:41:17.000Z</time>
        <extensions>
          <ns3:TrackPointExtension>
            <ns3:hr>107</ns3:hr>
          </ns3:TrackPointExtension>
        </extensions>
      </trkpt>
      <trkpt lat="47.5698888301849365234375" lon="-3.04901786148548126220703125">
        <ele>-1.2000000476837158203125</ele>
        <time>2026-08-15T16:41:18.000Z</time>
        <extensions>
          <ns3:TrackPointExtension>
            <ns3:hr>107</ns3:hr>
          </ns3:TrackPointExtension>
        </extensions>
      </trkpt>
      <trkpt lat="47.5698403827846050262451171875" lon="-3.04904191754758358001708984375">
        <ele>-1.39999997615814208984375</ele>
        <time>2026-08-15T16:41:19.000Z</time>
        <extensions>
          <ns3:TrackPointExtension>
            <ns3:hr>107</ns3:hr>
          </ns3:TrackPointExtension>
        </extensions>
      </trkpt>
      <trkpt lat="47.5697978027164936065673828125" lon="-3.04906303994357585906982421875">
        <ele>-1.39999997615814208984375</ele>
        <time>2026-08-15T16:41:20.000Z</time>
        <extensions>
          <ns3:TrackPointExtension>
            <ns3:hr>107</ns3:hr>
          </ns3:TrackPointExtension>
        </extensions>
      </trkpt>
      <trkpt lat="47.5697478465735912322998046875" lon="-3.04906991310417652130126953125">
        <ele>-1.60000002384185791015625</ele>
        <time>2026-08-15T16:41:21.000Z</time>
        <extensions>
          <ns3:TrackPointExtension>
            <ns3:hr>113</ns3:hr>
          </ns3:TrackPointExtension>
        </extensions>
      </trkpt>
      <trkpt lat="47.56970032118260860443115234375" lon="-3.04907527752220630645751953125">
        <ele>-1.60000002384185791015625</ele>
        <time>2026-08-15T16:41:22.000Z</time>
        <extensions>
          <ns3:TrackPointExtension>
            <ns3:hr>125</ns3:hr>
          </ns3:TrackPointExtension>
        </extensions>
      </trkpt>
      <trkpt lat="47.56965220905840396881103515625" lon="-3.04907687008380889892578125">
        <ele>-1.39999997615814208984375</ele>
        <time>2026-08-15T16:41:23.000Z</time>
        <extensions>
          <ns3:TrackPointExtension>
            <ns3:hr>132</ns3:hr>
          </ns3:TrackPointExtension>
        </extensions>
      </trkpt>
      <trkpt lat="47.569596804678440093994140625" lon="-3.0490810610353946685791015625">
        <ele>-1.39999997615814208984375</ele>
        <time>2026-08-15T16:41:24.000Z</time>
        <extensions>
          <ns3:TrackPointExtension>
            <ns3:hr>136</ns3:hr>
          </ns3:TrackPointExtension>
        </extensions>
      </trkpt>
      <trkpt lat="47.56954156793653964996337890625" lon="-3.04909355007112026214599609375">
        <ele>-1.39999997615814208984375</ele>
        <time>2026-08-15T16:41:25.000Z</time>
        <extensions>
          <ns3:TrackPointExtension>
            <ns3:hr>140</ns3:hr>
          </ns3:TrackPointExtension>
        </extensions>
      </trkpt>
      <trkpt lat="47.569482810795307159423828125" lon="-3.0491125769913196563720703125">
        <ele>-1.39999997615814208984375</ele>
        <time>2026-08-15T16:41:26.000Z</time>
        <extensions>
          <ns3:TrackPointExtension>
            <ns3:hr>140</ns3:hr>
          </ns3:TrackPointExtension>
        </extensions>
      </trkpt>
      <trkpt lat="47.56942405365407466888427734375" lon="-3.04912623949348926544189453125">
        <ele>-1.39999997615814208984375</ele>
        <time>2026-08-15T16:41:27.000Z</time>
        <extensions>
          <ns3:TrackPointExtension>
            <ns3:hr>140</ns3:hr>
          </ns3:TrackPointExtension>
        </extensions>
      </trkpt>
      <trkpt lat="47.56937183439731597900390625" lon="-3.0491457693278789520263671875">
        <ele>-1.2000000476837158203125</ele>
        <time>2026-08-15T16:41:28.000Z</time>
        <extensions>
          <ns3:TrackPointExtension>
            <ns3:hr>140</ns3:hr>
          </ns3:TrackPointExtension>
        </extensions>
      </trkpt>
      <trkpt lat="47.56931425072252750396728515625" lon="-3.049163706600666046142578125">
        <ele>-1.2000000476837158203125</ele>
        <time>2026-08-15T16:41:29.000Z</time>
        <extensions>
          <ns3:TrackPointExtension>
            <ns3:hr>139</ns3:hr>
          </ns3:TrackPointExtension>
        </extensions>
      </trkpt>
      <trkpt lat="47.56925758905708789825439453125" lon="-3.04918273352086544036865234375">
        <ele>-1</ele>
        <time>2026-08-15T16:41:30.000Z</time>
        <extensions>
          <ns3:TrackPointExtension>
            <ns3:hr>139</ns3:hr>
          </ns3:TrackPointExtension>
        </extensions>
      </trkpt>
      <trkpt lat="47.5692036934196949005126953125" lon="-3.04920972324907779693603515625">
        <ele>-0.800000011920928955078125</ele>
        <time>2026-08-15T16:41:31.000Z</time>
        <extensions>
          <ns3:TrackPointExtension>
            <ns3:hr>139</ns3:hr>
          </ns3:TrackPointExtension>
        </extensions>
      </trkpt>
      <trkpt lat="47.56915063597261905670166015625" lon="-3.049233444035053253173828125">
        <ele>-1</ele>
        <time>2026-08-15T16:41:32.000Z</time>
        <extensions>
          <ns3:TrackPointExtension>
            <ns3:hr>137</ns3:hr>
          </ns3:TrackPointExtension>
        </extensions>
      </trkpt>
      <trkpt lat="47.56909430958330631256103515625" lon="-3.04924995638430118560791015625">
        <ele>-1.2000000476837158203125</ele>
        <time>2026-08-15T16:41:33.000Z</time>
        <extensions>
          <ns3:TrackPointExtension>
            <ns3:hr>135</ns3:hr>
          </ns3:TrackPointExtension>
        </extensions>
      </trkpt>
      <trkpt lat="47.56903580389916896820068359375" lon="-3.0492775328457355499267578125">
        <ele>-1</ele>
        <time>2026-08-15T16:41:34.000Z</time>
        <extensions>
          <ns3:TrackPointExtension>
            <ns3:hr>133</ns3:hr>
          </ns3:TrackPointExtension>
        </extensions>
      </trkpt>
      <trkpt lat="47.56898559629917144775390625" lon="-3.0493030138313770294189453125">
        <ele>-1</ele>
        <time>2026-08-15T16:41:35.000Z</time>
        <extensions>
          <ns3:TrackPointExtension>
            <ns3:hr>132</ns3:hr>
          </ns3:TrackPointExtension>
        </extensions>
      </trkpt>
      <trkpt lat="47.56892767734825611114501953125" lon="-3.04932497441768646240234375">
        <ele>-0.800000011920928955078125</ele>
        <time>2026-08-15T16:41:36.000Z</time>
        <extensions>
          <ns3:TrackPointExtension>
            <ns3:hr>129</ns3:hr>
          </ns3:TrackPointExtension>
        </extensions>
      </trkpt>
      <trkpt lat="47.56887420080602169036865234375" lon="-3.04934333078563213348388671875">
        <ele>-0.4000000059604644775390625</ele>
        <time>2026-08-15T16:41:37.000Z</time>
        <extensions>
          <ns3:TrackPointExtension>
            <ns3:hr>127</ns3:hr>
          </ns3:TrackPointExtension>
        </extensions>
      </trkpt>
      <trkpt lat="47.5688127614557743072509765625" lon="-3.049362190067768096923828125">
        <ele>0</ele>
        <time>2026-08-15T16:41:38.000Z</time>
        <extensions>
          <ns3:TrackPointExtension>
            <ns3:hr>126</ns3:hr>
          </ns3:TrackPointExtension>
        </extensions>
      </trkpt>
      <trkpt lat="47.56875551305711269378662109375" lon="-3.04937719367444515228271484375">
        <ele>0</ele>
        <time>2026-08-15T16:41:39.000Z</time>
        <extensions>
          <ns3:TrackPointExtension>
            <ns3:hr>125</ns3:hr>
          </ns3:TrackPointExtension>
        </extensions>
      </trkpt>
      <trkpt lat="47.56869734264910221099853515625" lon="-3.0493972264230251312255859375">
        <ele>-0.20000000298023223876953125</ele>
        <time>2026-08-15T16:41:40.000Z</time>
        <extensions>
          <ns3:TrackPointExtension>
            <ns3:hr>122</ns3:hr>
          </ns3:TrackPointExtension>
        </extensions>
      </trkpt>
      <trkpt lat="47.568637244403362274169921875" lon="-3.04942421615123748779296875">
        <ele>-0.20000000298023223876953125</ele>
        <time>2026-08-15T16:41:41.000Z</time>
        <extensions>
          <ns3:TrackPointExtension>
            <ns3:hr>121</ns3:hr>
          </ns3:TrackPointExtension>
        </extensions>
      </trkpt>
      <trkpt lat="47.56858787499368190765380859375" lon="-3.049457073211669921875">
        <ele>-0.20000000298023223876953125</ele>
        <time>2026-08-15T16:41:42.000Z</time>
        <extensions>
          <ns3:TrackPointExtension>
            <ns3:hr>120</ns3:hr>
          </ns3:TrackPointExtension>
        </extensions>
      </trkpt>
      <trkpt lat="47.5685351528227329254150390625" lon="-3.0494959652423858642578125">
        <ele>-0.20000000298023223876953125</ele>
        <time>2026-08-15T16:41:43.000Z</time>
        <extensions>
          <ns3:TrackPointExtension>
            <ns3:hr>120</ns3:hr>
          </ns3:TrackPointExtension>
        </extensions>
      </trkpt>
      <trkpt lat="47.5684815086424350738525390625" lon="-3.04953544400632381439208984375">
        <ele>0.4000000059604644775390625</ele>
        <time>2026-08-15T16:41:44.000Z</time>
        <extensions>
          <ns3:TrackPointExtension>
            <ns3:hr>119</ns3:hr>
          </ns3:TrackPointExtension>
        </extensions>
      </trkpt>
      <trkpt lat="47.56842727772891521453857421875" lon="-3.04956964217126369476318359375">
        <ele>1.2000000476837158203125</ele>
        <time>2026-08-15T16:41:45.000Z</time>
        <extensions>
          <ns3:TrackPointExtension>
            <ns3:hr>118</ns3:hr>
          </ns3:TrackPointExtension>
        </extensions>
      </trkpt>
      <trkpt lat="47.568368017673492431640625" lon="-3.049590848386287689208984375">
        <ele>1</ele>
        <time>2026-08-15T16:41:46.000Z</time>
        <extensions>
          <ns3:TrackPointExtension>
            <ns3:hr>117</ns3:hr>
          </ns3:TrackPointExtension>
        </extensions>
      </trkpt>
      <trkpt lat="47.568309344351291656494140625" lon="-3.0496118031442165374755859375">
        <ele>1.2000000476837158203125</ele>
        <time>2026-08-15T16:41:47.000Z</time>
        <extensions>
          <ns3:TrackPointExtension>
            <ns3:hr>117</ns3:hr>
          </ns3:TrackPointExtension>
        </extensions>
      </trkpt>
      <trkpt lat="47.5682481564581394195556640625" lon="-3.04963535629212856292724609375">
        <ele>1</ele>
        <time>2026-08-15T16:41:48.000Z</time>
        <extensions>
          <ns3:TrackPointExtension>
            <ns3:hr>116</ns3:hr>
          </ns3:TrackPointExtension>
        </extensions>
      </trkpt>
      <trkpt lat="47.56818839348852634429931640625" lon="-3.04966201074421405792236328125">
        <ele>0.60000002384185791015625</ele>
        <time>2026-08-15T16:41:49.000Z</time>
        <extensions>
          <ns3:TrackPointExtension>
            <ns3:hr>118</ns3:hr>
          </ns3:TrackPointExtension>
        </extensions>
      </trkpt>
      <trkpt lat="47.56813399493694305419921875" lon="-3.0496929399669170379638671875">
        <ele>0.4000000059604644775390625</ele>
        <time>2026-08-15T16:41:50.000Z</time>
        <extensions>
          <ns3:TrackPointExtension>
            <ns3:hr>119</ns3:hr>
          </ns3:TrackPointExtension>
        </extensions>
      </trkpt>
      <trkpt lat="47.56807859055697917938232421875" lon="-3.0497224442660808563232421875">
        <ele>0.20000000298023223876953125</ele>
        <time>2026-08-15T16:41:51.000Z</time>
        <extensions>
          <ns3:TrackPointExtension>
            <ns3:hr>120</ns3:hr>
          </ns3:TrackPointExtension>
        </extensions>
      </trkpt>
      <trkpt lat="47.56802042014896869659423828125" lon="-3.049755804240703582763671875">
        <ele>0.4000000059604644775390625</ele>
        <time>2026-08-15T16:41:52.000Z</time>
        <extensions>
          <ns3:TrackPointExtension>
            <ns3:hr>122</ns3:hr>
          </ns3:TrackPointExtension>
        </extensions>
      </trkpt>
      <trkpt lat="47.56796107627451419830322265625" lon="-3.04980047978460788726806640625">
        <ele>0.4000000059604644775390625</ele>
        <time>2026-08-15T16:41:53.000Z</time>
        <extensions>
          <ns3:TrackPointExtension>
            <ns3:hr>125</ns3:hr>
          </ns3:TrackPointExtension>
        </extensions>
      </trkpt>
      <trkpt lat="47.5679055042564868927001953125" lon="-3.04985043592751026153564453125">
        <ele>0.60000002384185791015625</ele>
        <time>2026-08-15T16:41:54.000Z</time>
        <extensions>
          <ns3:TrackPointExtension>
            <ns3:hr>126</ns3:hr>
          </ns3:TrackPointExtension>
        </extensions>
      </trkpt>
      <trkpt lat="47.567849345505237579345703125" lon="-3.0498964525759220123291015625">
        <ele>0.4000000059604644775390625</ele>
        <time>2026-08-15T16:41:55.000Z</time>
        <extensions>
          <ns3:TrackPointExtension>
            <ns3:hr>127</ns3:hr>
          </ns3:TrackPointExtension>
        </extensions>
      </trkpt>
      <trkpt lat="47.5677967071533203125" lon="-3.049936182796955108642578125">
        <ele>0.20000000298023223876953125</ele>
        <time>2026-08-15T16:41:56.000Z</time>
        <extensions>
          <ns3:TrackPointExtension>
            <ns3:hr>128</ns3:hr>
          </ns3:TrackPointExtension>
        </extensions>
      </trkpt>
      <trkpt lat="47.5677402131259441375732421875" lon="-3.04998722858726978302001953125">
        <ele>0.20000000298023223876953125</ele>
        <time>2026-08-15T16:41:57.000Z</time>
        <extensions>
          <ns3:TrackPointExtension>
            <ns3:hr>128</ns3:hr>
          </ns3:TrackPointExtension>
        </extensions>
      </trkpt>
      <trkpt lat="47.56768799386918544769287109375" lon="-3.05003651417791843414306640625">
        <ele>0.20000000298023223876953125</ele>
        <time>2026-08-15T16:41:58.000Z</time>
        <extensions>
          <ns3:TrackPointExtension>
            <ns3:hr>129</ns3:hr>
          </ns3:TrackPointExtension>
        </extensions>
      </trkpt>
      <trkpt lat="47.5676332600414752960205078125" lon="-3.05008663795888423919677734375">
        <ele>0</ele>
        <time>2026-08-15T16:41:59.000Z</time>
        <extensions>
          <ns3:TrackPointExtension>
            <ns3:hr>129</ns3:hr>
          </ns3:TrackPointExtension>
        </extensions>
      </trkpt>
      <trkpt lat="47.567579448223114013671875" lon="-3.0501348339021205902099609375">
        <ele>0</ele>
        <time>2026-08-15T16:42:00.000Z</time>
        <extensions>
          <ns3:TrackPointExtension>
            <ns3:hr>129</ns3:hr>
          </ns3:TrackPointExtension>
        </extensions>
      </trkpt>
      <trkpt lat="47.5675299949944019317626953125" lon="-3.05017582140862941741943359375">
        <ele>0</ele>
        <time>2026-08-15T16:42:01.000Z</time>
        <extensions>
          <ns3:TrackPointExtension>
            <ns3:hr>129</ns3:hr>
          </ns3:TrackPointExtension>
        </extensions>
      </trkpt>
      <trkpt lat="47.5674793682992458343505859375" lon="-3.050225190818309783935546875">
        <ele>-0.20000000298023223876953125</ele>
        <time>2026-08-15T16:42:02.000Z</time>
        <extensions>
          <ns3:TrackPointExtension>
            <ns3:hr>129</ns3:hr>
          </ns3:TrackPointExtension>
        </extensions>
      </trkpt>
      <trkpt lat="47.567432932555675506591796875" lon="-3.05028143338859081268310546875">
        <ele>0</ele>
        <time>2026-08-15T16:42:03.000Z</time>
        <extensions>
          <ns3:TrackPointExtension>
            <ns3:hr>128</ns3:hr>
          </ns3:TrackPointExtension>
        </extensions>
      </trkpt>
      <trkpt lat="47.56738691590726375579833984375" lon="-3.05033658631145954132080078125">
        <ele>0</ele>
        <time>2026-08-15T16:42:04.000Z</time>
        <extensions>
          <ns3:TrackPointExtension>
            <ns3:hr>128</ns3:hr>
          </ns3:TrackPointExtension>
        </extensions>
      </trkpt>
      <trkpt lat="47.567339725792407989501953125" lon="-3.0503832735121250152587890625">
        <ele>0.20000000298023223876953125</ele>
        <time>2026-08-15T16:42:05.000Z</time>
        <extensions>
          <ns3:TrackPointExtension>
            <ns3:hr>128</ns3:hr>
          </ns3:TrackPointExtension>
        </extensions>
      </trkpt>
      <trkpt lat="47.5672896020114421844482421875" lon="-3.05042627267539501190185546875">
        <ele>0.4000000059604644775390625</ele>
        <time>2026-08-15T16:42:06.000Z</time>
        <extensions>
          <ns3:TrackPointExtension>
            <ns3:hr>128</ns3:hr>
          </ns3:TrackPointExtension>
        </extensions>
      </trkpt>
      <trkpt lat="47.56723436526954174041748046875" lon="-3.05046533234417438507080078125">
        <ele>0.60000002384185791015625</ele>
        <time>2026-08-15T16:42:07.000Z</time>
        <extensions>
          <ns3:TrackPointExtension>
            <ns3:hr>128</ns3:hr>
          </ns3:TrackPointExtension>
        </extensions>
      </trkpt>
      <trkpt lat="47.56717979907989501953125" lon="-3.050500117242336273193359375">
        <ele>0.60000002384185791015625</ele>
        <time>2026-08-15T16:42:08.000Z</time>
        <extensions>
          <ns3:TrackPointExtension>
            <ns3:hr>128</ns3:hr>
          </ns3:TrackPointExtension>
        </extensions>
      </trkpt>
      <trkpt lat="47.56712506525218486785888671875" lon="-3.05053221993148326873779296875">
        <ele>0.800000011920928955078125</ele>
        <time>2026-08-15T16:42:09.000Z</time>
        <extensions>
          <ns3:TrackPointExtension>
            <ns3:hr>128</ns3:hr>
          </ns3:TrackPointExtension>
        </extensions>
      </trkpt>
      <trkpt lat="47.5670706667006015777587890625" lon="-3.05056013166904449462890625">
        <ele>0.20000000298023223876953125</ele>
        <time>2026-08-15T16:42:10.000Z</time>
        <extensions>
          <ns3:TrackPointExtension>
            <ns3:hr>127</ns3:hr>
          </ns3:TrackPointExtension>
        </extensions>
      </trkpt>
      <trkpt lat="47.56701274774968624114990234375" lon="-3.05057949386537075042724609375">
        <ele>0</ele>
        <time>2026-08-15T16:42:11.000Z</time>
        <extensions>
          <ns3:TrackPointExtension>
            <ns3:hr>127</ns3:hr>
          </ns3:TrackPointExtension>
        </extensions>
      </trkpt>
      <trkpt lat="47.5669536553323268890380859375" lon="-3.05060782469809055328369140625">
        <ele>0</ele>
        <time>2026-08-15T16:42:12.000Z</time>
        <extensions>
          <ns3:TrackPointExtension>
            <ns3:hr>126</ns3:hr>
          </ns3:TrackPointExtension>
        </extensions>
      </trkpt>
      <trkpt lat="47.5668993405997753143310546875" lon="-3.05064369924366474151611328125">
        <ele>0</ele>
        <time>2026-08-15T16:42:13.000Z</time>
        <extensions>
          <ns3:TrackPointExtension>
            <ns3:hr>125</ns3:hr>
          </ns3:TrackPointExtension>
        </extensions>
      </trkpt>
      <trkpt lat="47.56684678606688976287841796875" lon="-3.050678484141826629638671875">
        <ele>0</ele>
        <time>2026-08-15T16:42:14.000Z</time>
        <extensions>
          <ns3:TrackPointExtension>
            <ns3:hr>125</ns3:hr>
          </ns3:TrackPointExtension>
        </extensions>
      </trkpt>
      <trkpt lat="47.56680521182715892791748046875" lon="-3.05072668008506298065185546875">
        <ele>0.20000000298023223876953125</ele>
        <time>2026-08-15T16:42:15.000Z</time>
        <extensions>
          <ns3:TrackPointExtension>
            <ns3:hr>125</ns3:hr>
          </ns3:TrackPointExtension>
        </extensions>
      </trkpt>
      <trkpt lat="47.56676363758742809295654296875" lon="-3.05077764205634593963623046875">
        <ele>0.4000000059604644775390625</ele>
        <time>2026-08-15T16:42:16.000Z</time>
        <extensions>
          <ns3:TrackPointExtension>
            <ns3:hr>125</ns3:hr>
          </ns3:TrackPointExtension>
        </extensions>
      </trkpt>
      <trkpt lat="47.56672072224318981170654296875" lon="-3.05082340724766254425048828125">
        <ele>0.60000002384185791015625</ele>
        <time>2026-08-15T16:42:17.000Z</time>
        <extensions>
          <ns3:TrackPointExtension>
            <ns3:hr>125</ns3:hr>
          </ns3:TrackPointExtension>
        </extensions>
      </trkpt>
      <trkpt lat="47.56668065674602985382080078125" lon="-3.05086045525968074798583984375">
        <ele>0.60000002384185791015625</ele>
        <time>2026-08-15T16:42:18.000Z</time>
        <extensions>
          <ns3:TrackPointExtension>
            <ns3:hr>125</ns3:hr>
          </ns3:TrackPointExtension>
        </extensions>
      </trkpt>
      <trkpt lat="47.566635645925998687744140625" lon="-3.05089448578655719757080078125">
        <ele>0.60000002384185791015625</ele>
        <time>2026-08-15T16:42:19.000Z</time>
        <extensions>
          <ns3:TrackPointExtension>
            <ns3:hr>125</ns3:hr>
          </ns3:TrackPointExtension>
        </extensions>
      </trkpt>
      <trkpt lat="47.566586025059223175048828125" lon="-3.05093253962695598602294921875">
        <ele>0.800000011920928955078125</ele>
        <time>2026-08-15T16:42:20.000Z</time>
        <extensions>
          <ns3:TrackPointExtension>
            <ns3:hr>125</ns3:hr>
          </ns3:TrackPointExtension>
        </extensions>
      </trkpt>
      <trkpt lat="47.5665427744388580322265625" lon="-3.05097327567636966705322265625">
        <ele>0.800000011920928955078125</ele>
        <time>2026-08-15T16:42:21.000Z</time>
        <extensions>
          <ns3:TrackPointExtension>
            <ns3:hr>125</ns3:hr>
          </ns3:TrackPointExtension>
        </extensions>
      </trkpt>
      <trkpt lat="47.56649910472333431243896484375" lon="-3.0510159395635128021240234375">
        <ele>0.800000011920928955078125</ele>
        <time>2026-08-15T16:42:22.000Z</time>
        <extensions>
          <ns3:TrackPointExtension>
            <ns3:hr>124</ns3:hr>
          </ns3:TrackPointExtension>
        </extensions>
      </trkpt>
      <trkpt lat="47.5664504058659076690673828125" lon="-3.05104737170040607452392578125">
        <ele>1</ele>
        <time>2026-08-15T16:42:23.000Z</time>
        <extensions>
          <ns3:TrackPointExtension>
            <ns3:hr>124</ns3:hr>
          </ns3:TrackPointExtension>
        </extensions>
      </trkpt>
      <trkpt lat="47.5663991086184978485107421875" lon="-3.05107151158154010772705078125">
        <ele>0.800000011920928955078125</ele>
        <time>2026-08-15T16:42:24.000Z</time>
        <extensions>
          <ns3:TrackPointExtension>
            <ns3:hr>124</ns3:hr>
          </ns3:TrackPointExtension>
        </extensions>
      </trkpt>
      <trkpt lat="47.56634571589529514312744140625" lon="-3.05109615437686443328857421875">
        <ele>0.4000000059604644775390625</ele>
        <time>2026-08-15T16:42:25.000Z</time>
        <extensions>
          <ns3:TrackPointExtension>
            <ns3:hr>124</ns3:hr>
          </ns3:TrackPointExtension>
        </extensions>
      </trkpt>
      <trkpt lat="47.56629324518144130706787109375" lon="-3.0511294305324554443359375">
        <ele>0.20000000298023223876953125</ele>
        <time>2026-08-15T16:42:26.000Z</time>
        <extensions>
          <ns3:TrackPointExtension>
            <ns3:hr>123</ns3:hr>
          </ns3:TrackPointExtension>
        </extensions>
      </trkpt>
      <trkpt lat="47.5662415288388729095458984375" lon="-3.0511589348316192626953125">
        <ele>0.20000000298023223876953125</ele>
        <time>2026-08-15T16:42:27.000Z</time>
        <extensions>
          <ns3:TrackPointExtension>
            <ns3:hr>123</ns3:hr>
          </ns3:TrackPointExtension>
        </extensions>
      </trkpt>
      <trkpt lat="47.5661878846585750579833984375" lon="-3.05119103752076625823974609375">
        <ele>0.20000000298023223876953125</ele>
        <time>2026-08-15T16:42:28.000Z</time>
        <extensions>
          <ns3:TrackPointExtension>
            <ns3:hr>122</ns3:hr>
          </ns3:TrackPointExtension>
        </extensions>
      </trkpt>
      <trkpt lat="47.5661312229931354522705078125" lon="-3.05121718905866146087646484375">
        <ele>0.4000000059604644775390625</ele>
        <time>2026-08-15T16:42:29.000Z</time>
        <extensions>
          <ns3:TrackPointExtension>
            <ns3:hr>122</ns3:hr>
          </ns3:TrackPointExtension>
        </extensions>
      </trkpt>
      <trkpt lat="47.5660759024322032928466796875" lon="-3.0512462742626667022705078125">
        <ele>0.800000011920928955078125</ele>
        <time>2026-08-15T16:42:30.000Z</time>
        <extensions>
          <ns3:TrackPointExtension>
            <ns3:hr>122</ns3:hr>
          </ns3:TrackPointExtension>
        </extensions>
      </trkpt>
      <trkpt lat="47.56602720357477664947509765625" lon="-3.05127318017184734344482421875">
        <ele>1</ele>
        <time>2026-08-15T16:42:31.000Z</time>
        <extensions>
          <ns3:TrackPointExtension>
            <ns3:hr>121</ns3:hr>
          </ns3:TrackPointExtension>
        </extensions>
      </trkpt>
      <trkpt lat="47.56597540341317653656005859375" lon="-3.05129094980657100677490234375">
        <ele>1</ele>
        <time>2026-08-15T16:42:32.000Z</time>
        <extensions>
          <ns3:TrackPointExtension>
            <ns3:hr>121</ns3:hr>
          </ns3:TrackPointExtension>
        </extensions>
      </trkpt>
      <trkpt lat="47.56592293269932270050048828125" lon="-3.05130352266132831573486328125">
        <ele>1</ele>
        <time>2026-08-15T16:42:33.000Z</time>
        <extensions>
          <ns3:TrackPointExtension>
            <ns3:hr>121</ns3:hr>
          </ns3:TrackPointExtension>
        </extensions>
      </trkpt>
      <trkpt lat="47.56586895324289798736572265625" lon="-3.0513200350105762481689453125">
        <ele>0.800000011920928955078125</ele>
        <time>2026-08-15T16:42:34.000Z</time>
        <extensions>
          <ns3:TrackPointExtension>
            <ns3:hr>121</ns3:hr>
          </ns3:TrackPointExtension>
        </extensions>
      </trkpt>
      <trkpt lat="47.5658157281577587127685546875" lon="-3.0513341166079044342041015625">
        <ele>0.800000011920928955078125</ele>
        <time>2026-08-15T16:42:35.000Z</time>
        <extensions>
          <ns3:TrackPointExtension>
            <ns3:hr>121</ns3:hr>
          </ns3:TrackPointExtension>
        </extensions>
      </trkpt>
      <trkpt lat="47.56576049141585826873779296875" lon="-3.05135406553745269775390625">
        <ele>0.800000011920928955078125</ele>
        <time>2026-08-15T16:42:36.000Z</time>
        <extensions>
          <ns3:TrackPointExtension>
            <ns3:hr>121</ns3:hr>
          </ns3:TrackPointExtension>
        </extensions>
      </trkpt>
      <trkpt lat="47.565706260502338409423828125" lon="-3.05137686431407928466796875">
        <ele>0.800000011920928955078125</ele>
        <time>2026-08-15T16:42:37.000Z</time>
        <extensions>
          <ns3:TrackPointExtension>
            <ns3:hr>120</ns3:hr>
          </ns3:TrackPointExtension>
        </extensions>
      </trkpt>
      <trkpt lat="47.5656578131020069122314453125" lon="-3.05138566531240940093994140625">
        <ele>0.60000002384185791015625</ele>
        <time>2026-08-15T16:42:38.000Z</time>
        <extensions>
          <ns3:TrackPointExtension>
            <ns3:hr>120</ns3:hr>
          </ns3:TrackPointExtension>
        </extensions>
      </trkpt>
      <trkpt lat="47.5656055100262165069580078125" lon="-3.05139656178653240203857421875">
        <ele>0.60000002384185791015625</ele>
        <time>2026-08-15T16:42:39.000Z</time>
        <extensions>
          <ns3:TrackPointExtension>
            <ns3:hr>120</ns3:hr>
          </ns3:TrackPointExtension>
        </extensions>
      </trkpt>
      <trkpt lat="47.56554792635142803192138671875" lon="-3.0514025129377841949462890625">
        <ele>0.4000000059604644775390625</ele>
        <time>2026-08-15T16:42:40.000Z</time>
        <extensions>
          <ns3:TrackPointExtension>
            <ns3:hr>120</ns3:hr>
          </ns3:TrackPointExtension>
        </extensions>
      </trkpt>
      <trkpt lat="47.56548824720084667205810546875" lon="-3.05140100419521331787109375">
        <ele>0.20000000298023223876953125</ele>
        <time>2026-08-15T16:42:41.000Z</time>
        <extensions>
          <ns3:TrackPointExtension>
            <ns3:hr>120</ns3:hr>
          </ns3:TrackPointExtension>
        </extensions>
      </trkpt>
      <trkpt lat="47.56543166935443878173828125" lon="-3.05139698088169097900390625">
        <ele>0.20000000298023223876953125</ele>
        <time>2026-08-15T16:42:42.000Z</time>
        <extensions>
          <ns3:TrackPointExtension>
            <ns3:hr>120</ns3:hr>
          </ns3:TrackPointExtension>
        </extensions>
      </trkpt>
      <trkpt lat="47.56537400186061859130859375" lon="-3.05138533003628253936767578125">
        <ele>-0.20000000298023223876953125</ele>
        <time>2026-08-15T16:42:43.000Z</time>
        <extensions>
          <ns3:TrackPointExtension>
            <ns3:hr>121</ns3:hr>
          </ns3:TrackPointExtension>
        </extensions>
      </trkpt>
      <trkpt lat="47.5653171725571155548095703125" lon="-3.051390610635280609130859375">
        <ele>0</ele>
        <time>2026-08-15T16:42:44.000Z</time>
        <extensions>
          <ns3:TrackPointExtension>
            <ns3:hr>122</ns3:hr>
          </ns3:TrackPointExtension>
        </extensions>
      </trkpt>
      <trkpt lat="47.5652655400335788726806640625" lon="-3.051391951739788055419921875">
        <ele>0</ele>
        <time>2026-08-15T16:42:45.000Z</time>
        <extensions>
          <ns3:TrackPointExtension>
            <ns3:hr>123</ns3:hr>
          </ns3:TrackPointExtension>
        </extensions>
      </trkpt>
      <trkpt lat="47.56521172821521759033203125" lon="-3.05138734169304370880126953125">
        <ele>-0.20000000298023223876953125</ele>
        <time>2026-08-15T16:42:46.000Z</time>
        <extensions>
          <ns3:TrackPointExtension>
            <ns3:hr>123</ns3:hr>
          </ns3:TrackPointExtension>
        </extensions>
      </trkpt>
      <trkpt lat="47.56515280343592166900634765625" lon="-3.05136638693511486053466796875">
        <ele>-0.20000000298023223876953125</ele>
        <time>2026-08-15T16:42:47.000Z</time>
        <extensions>
          <ns3:TrackPointExtension>
            <ns3:hr>123</ns3:hr>
          </ns3:TrackPointExtension>
        </extensions>
      </trkpt>
      <trkpt lat="47.56510033272206783294677734375" lon="-3.05133805610239505767822265625">
        <ele>-0.4000000059604644775390625</ele>
        <time>2026-08-15T16:42:48.000Z</time>
        <extensions>
          <ns3:TrackPointExtension>
            <ns3:hr>123</ns3:hr>
          </ns3:TrackPointExtension>
        </extensions>
      </trkpt>
      <trkpt lat="47.5650506280362606048583984375" lon="-3.05129748769104480743408203125">
        <ele>-0.60000002384185791015625</ele>
        <time>2026-08-15T16:42:49.000Z</time>
        <extensions>
          <ns3:TrackPointExtension>
            <ns3:hr>123</ns3:hr>
          </ns3:TrackPointExtension>
        </extensions>
      </trkpt>
      <trkpt lat="47.56500628776848316192626953125" lon="-3.0512487888336181640625">
        <ele>-0.60000002384185791015625</ele>
        <time>2026-08-15T16:42:50.000Z</time>
        <extensions>
          <ns3:TrackPointExtension>
            <ns3:hr>123</ns3:hr>
          </ns3:TrackPointExtension>
        </extensions>
      </trkpt>
      <trkpt lat="47.56497175432741641998291015625" lon="-3.05118508636951446533203125">
        <ele>-0.60000002384185791015625</ele>
        <time>2026-08-15T16:42:51.000Z</time>
        <extensions>
          <ns3:TrackPointExtension>
            <ns3:hr>123</ns3:hr>
          </ns3:TrackPointExtension>
        </extensions>
      </trkpt>
      <trkpt lat="47.56494694389402866363525390625" lon="-3.05113035254180431365966796875">
        <ele>-0.60000002384185791015625</ele>
        <time>2026-08-15T16:42:52.000Z</time>
        <extensions>
          <ns3:TrackPointExtension>
            <ns3:hr>123</ns3:hr>
          </ns3:TrackPointExtension>
        </extensions>
      </trkpt>
      <trkpt lat="47.56494694389402866363525390625" lon="-3.05107109248638153076171875">
        <ele>-0.4000000059604644775390625</ele>
        <time>2026-08-15T16:42:53.000Z</time>
        <extensions>
          <ns3:TrackPointExtension>
            <ns3:hr>124</ns3:hr>
          </ns3:TrackPointExtension>
        </extensions>
      </trkpt>
      <trkpt lat="47.5649715028703212738037109375" lon="-3.05102013051509857177734375">
        <ele>-0.20000000298023223876953125</ele>
        <time>2026-08-15T16:42:54.000Z</time>
        <extensions>
          <ns3:TrackPointExtension>
            <ns3:hr>124</ns3:hr>
          </ns3:TrackPointExtension>
        </extensions>
      </trkpt>
      <trkpt lat="47.56499673239886760711669921875" lon="-3.05098232813179492950439453125">
        <ele>0</ele>
        <time>2026-08-15T16:42:55.000Z</time>
        <extensions>
          <ns3:TrackPointExtension>
            <ns3:hr>124</ns3:hr>
          </ns3:TrackPointExtension>
        </extensions>
      </trkpt>
      <trkpt lat="47.56501282565295696258544921875" lon="-3.0509532429277896881103515625">
        <ele>0.20000000298023223876953125</ele>
        <time>2026-08-15T16:42:56.000Z</time>
        <extensions>
          <ns3:TrackPointExtension>
            <ns3:hr>124</ns3:hr>
          </ns3:TrackPointExtension>
        </extensions>
      </trkpt>
      <trkpt lat="47.5650338642299175262451171875" lon="-3.0509156920015811920166015625">
        <ele>0.4000000059604644775390625</ele>
        <time>2026-08-15T16:42:57.000Z</time>
        <extensions>
          <ns3:TrackPointExtension>
            <ns3:hr>124</ns3:hr>
          </ns3:TrackPointExtension>
        </extensions>
      </trkpt>
      <trkpt lat="47.56505473516881465911865234375" lon="-3.0508808232843875885009765625">
        <ele>0.4000000059604644775390625</ele>
        <time>2026-08-15T16:42:58.000Z</time>
        <extensions>
          <ns3:TrackPointExtension>
            <ns3:hr>124</ns3:hr>
          </ns3:TrackPointExtension>
        </extensions>
      </trkpt>
      <trkpt lat="47.56505674682557582855224609375" lon="-3.0508612096309661865234375">
        <ele>0.4000000059604644775390625</ele>
        <time>2026-08-15T16:42:59.000Z</time>
        <extensions>
          <ns3:TrackPointExtension>
            <ns3:hr>125</ns3:hr>
          </ns3:TrackPointExtension>
        </extensions>
      </trkpt>
      <trkpt lat="47.56504115648567676544189453125" lon="-3.050849139690399169921875">
        <ele>0.20000000298023223876953125</ele>
        <time>2026-08-15T16:43:00.000Z</time>
        <extensions>
          <ns3:TrackPointExtension>
            <ns3:hr>125</ns3:hr>
          </ns3:TrackPointExtension>
        </extensions>
      </trkpt>
      <trkpt lat="47.565031014382839202880859375" lon="-3.0508392490446567535400390625">
        <ele>0</ele>
        <time>2026-08-15T16:43:01.000Z</time>
        <extensions>
          <ns3:TrackPointExtension>
            <ns3:hr>125</ns3:hr>
          </ns3:TrackPointExtension>
        </extensions>
      </trkpt>
      <trkpt lat="47.56501936353743076324462890625" lon="-3.0508918873965740203857421875">
        <ele>-0.20000000298023223876953125</ele>
        <time>2026-08-15T16:43:02.000Z</time>
        <extensions>
          <ns3:TrackPointExtension>
            <ns3:hr>124</ns3:hr>
          </ns3:TrackPointExtension>
        </extensions>
      </trkpt>
      <trkpt lat="47.5650177709758281707763671875" lon="-3.0509039573371410369873046875">
        <ele>-0.60000002384185791015625</ele>
        <time>2026-08-15T16:43:03.000Z</time>
        <extensions>
          <ns3:TrackPointExtension>
            <ns3:hr>125</ns3:hr>
          </ns3:TrackPointExtension>
        </extensions>
      </trkpt>
      <trkpt lat="47.5650177709758281707763671875" lon="-3.0509039573371410369873046875">
        <ele>-0.60000002384185791015625</ele>
        <time>2026-08-15T16:43:04.000Z</time>
        <extensions>
          <ns3:TrackPointExtension>
            <ns3:hr>125</ns3:hr>
          </ns3:TrackPointExtension>
        </extensions>
      </trkpt>
      <trkpt lat="47.5650221295654773712158203125" lon="-3.05091678164899349212646484375">
        <ele>-0.800000011920928955078125</ele>
        <time>2026-08-15T16:43:05.000Z</time>
        <extensions>
          <ns3:TrackPointExtension>
            <ns3:hr>125</ns3:hr>
          </ns3:TrackPointExtension>
        </extensions>
      </trkpt>
      <trkpt lat="47.56502070464193820953369140625" lon="-3.0509321205317974090576171875">
        <ele>-1</ele>
        <time>2026-08-15T16:43:06.000Z</time>
        <extensions>
          <ns3:TrackPointExtension>
            <ns3:hr>125</ns3:hr>
          </ns3:TrackPointExtension>
        </extensions>
      </trkpt>
      <trkpt lat="47.56502087228000164031982421875" lon="-3.05093857459723949432373046875">
        <ele>-1</ele>
        <time>2026-08-15T16:43:07.000Z</time>
        <extensions>
          <ns3:TrackPointExtension>
            <ns3:hr>125</ns3:hr>
          </ns3:TrackPointExtension>
        </extensions>
      </trkpt>
      <trkpt lat="47.56502891890704631805419921875" lon="-3.0509364791214466094970703125">
        <ele>-1</ele>
        <time>2026-08-15T16:43:08.000Z</time>
        <extensions>
          <ns3:TrackPointExtension>
            <ns3:hr>124</ns3:hr>
          </ns3:TrackPointExtension>
        </extensions>
      </trkpt>
      <trkpt lat="47.5650328584015369415283203125" lon="-3.05093321017920970916748046875">
        <ele>-1</ele>
        <time>2026-08-15T16:43:09.000Z</time>
        <extensions>
          <ns3:TrackPointExtension>
            <ns3:hr>125</ns3:hr>
          </ns3:TrackPointExtension>
        </extensions>
      </trkpt>
      <trkpt lat="47.5650358758866786956787109375" lon="-3.0509304441511631011962890625">
        <ele>-1</ele>
        <time>2026-08-15T16:43:10.000Z</time>
        <extensions>
          <ns3:TrackPointExtension>
            <ns3:hr>124</ns3:hr>
          </ns3:TrackPointExtension>
        </extensions>
      </trkpt>
      <trkpt lat="47.5650355406105518341064453125" lon="-3.05092046968638896942138671875">
        <ele>-0.800000011920928955078125</ele>
        <time>2026-08-15T16:43:11.000Z</time>
        <extensions>
          <ns3:TrackPointExtension>
            <ns3:hr>124</ns3:hr>
          </ns3:TrackPointExtension>
        </extensions>
      </trkpt>
      <trkpt lat="47.56502942182123661041259765625" lon="-3.0509133450686931610107421875">
        <ele>-0.60000002384185791015625</ele>
        <time>2026-08-15T16:43:12.000Z</time>
        <extensions>
          <ns3:TrackPointExtension>
            <ns3:hr>124</ns3:hr>
          </ns3:TrackPointExtension>
        </extensions>
      </trkpt>
      <trkpt lat="47.56502263247966766357421875" lon="-3.0509052984416484832763671875">
        <ele>-0.4000000059604644775390625</ele>
        <time>2026-08-15T16:43:13.000Z</time>
        <extensions>
          <ns3:TrackPointExtension>
            <ns3:hr>125</ns3:hr>
          </ns3:TrackPointExtension>
        </extensions>
      </trkpt>
      <trkpt lat="47.5650219619274139404296875" lon="-3.05089716799557209014892578125">
        <ele>-0.4000000059604644775390625</ele>
        <time>2026-08-15T16:43:14.000Z</time>
        <extensions>
          <ns3:TrackPointExtension>
            <ns3:hr>125</ns3:hr>
          </ns3:TrackPointExtension>
        </extensions>
      </trkpt>
      <trkpt lat="47.56503160111606121063232421875" lon="-3.0509066395461559295654296875">
        <ele>-0.20000000298023223876953125</ele>
        <time>2026-08-15T16:43:15.000Z</time>
        <extensions>
          <ns3:TrackPointExtension>
            <ns3:hr>126</ns3:hr>
          </ns3:TrackPointExtension>
        </extensions>
      </trkpt>
      <trkpt lat="47.565034367144107818603515625" lon="-3.05090588517487049102783203125">
        <ele>-0.20000000298023223876953125</ele>
        <time>2026-08-15T16:43:16.000Z</time>
        <extensions>
          <ns3:TrackPointExtension>
            <ns3:hr>127</ns3:hr>
          </ns3:TrackPointExtension>
        </extensions>
      </trkpt>
      <trkpt lat="47.56503663025796413421630859375" lon="-3.0509066395461559295654296875">
        <ele>0</ele>
        <time>2026-08-15T16:43:17.000Z</time>
        <extensions>
          <ns3:TrackPointExtension>
            <ns3:hr>128</ns3:hr>
          </ns3:TrackPointExtension>
        </extensions>
      </trkpt>
      <trkpt lat="47.56504819728434085845947265625" lon="-3.05090722627937793731689453125">
        <ele>0.20000000298023223876953125</ele>
        <time>2026-08-15T16:43:18.000Z</time>
        <extensions>
          <ns3:TrackPointExtension>
            <ns3:hr>129</ns3:hr>
          </ns3:TrackPointExtension>
        </extensions>
      </trkpt>
      <trkpt lat="47.56505205295979976654052734375" lon="-3.05090554989874362945556640625">
        <ele>0.20000000298023223876953125</ele>
        <time>2026-08-15T16:43:19.000Z</time>
        <extensions>
          <ns3:TrackPointExtension>
            <ns3:hr>129</ns3:hr>
          </ns3:TrackPointExtension>
        </extensions>
      </trkpt>
      <trkpt lat="47.56505574099719524383544921875" lon="-3.05090907029807567596435546875">
        <ele>0.4000000059604644775390625</ele>
        <time>2026-08-15T16:43:20.000Z</time>
        <extensions>
          <ns3:TrackPointExtension>
            <ns3:hr>129</ns3:hr>
          </ns3:TrackPointExtension>
        </extensions>
      </trkpt>
      <trkpt lat="47.565059177577495574951171875" lon="-3.05091015994548797607421875">
        <ele>0.4000000059604644775390625</ele>
        <time>2026-08-15T16:43:21.000Z</time>
        <extensions>
          <ns3:TrackPointExtension>
            <ns3:hr>129</ns3:hr>
          </ns3:TrackPointExtension>
        </extensions>
      </trkpt>
      <trkpt lat="47.56506395526230335235595703125" lon="-3.05090772919356822967529296875">
        <ele>0.4000000059604644775390625</ele>
        <time>2026-08-15T16:43:22.000Z</time>
        <extensions>
          <ns3:TrackPointExtension>
            <ns3:hr>129</ns3:hr>
          </ns3:TrackPointExtension>
        </extensions>
      </trkpt>
      <trkpt lat="47.56506420671939849853515625" lon="-3.05090068839490413665771484375">
        <ele>0.20000000298023223876953125</ele>
        <time>2026-08-15T16:43:23.000Z</time>
        <extensions>
          <ns3:TrackPointExtension>
            <ns3:hr>130</ns3:hr>
          </ns3:TrackPointExtension>
        </extensions>
      </trkpt>
      <trkpt lat="47.56506127305328845977783203125" lon="-3.05090471170842647552490234375">
        <ele>0.20000000298023223876953125</ele>
        <time>2026-08-15T16:43:24.000Z</time>
        <extensions>
          <ns3:TrackPointExtension>
            <ns3:hr>130</ns3:hr>
          </ns3:TrackPointExtension>
        </extensions>
      </trkpt>
      <trkpt lat="47.5650569982826709747314453125" lon="-3.05091091431677341461181640625">
        <ele>0</ele>
        <time>2026-08-15T16:43:25.000Z</time>
        <extensions>
          <ns3:TrackPointExtension>
            <ns3:hr>130</ns3:hr>
          </ns3:TrackPointExtension>
        </extensions>
      </trkpt>
      <trkpt lat="47.56505481898784637451171875" lon="-3.0509089864790439605712890625">
        <ele>0</ele>
        <time>2026-08-15T16:43:26.000Z</time>
        <extensions>
          <ns3:TrackPointExtension>
            <ns3:hr>130</ns3:hr>
          </ns3:TrackPointExtension>
        </extensions>
      </trkpt>
      <trkpt lat="47.56505557335913181304931640625" lon="-3.0508912168443202972412109375">
        <ele>0</ele>
        <time>2026-08-15T16:43:27.000Z</time>
        <extensions>
          <ns3:TrackPointExtension>
            <ns3:hr>129</ns3:hr>
          </ns3:TrackPointExtension>
        </extensions>
      </trkpt>
      <trkpt lat="47.56505289115011692047119140625" lon="-3.0508811585605144500732421875">
        <ele>0.20000000298023223876953125</ele>
        <time>2026-08-15T16:43:28.000Z</time>
        <extensions>
          <ns3:TrackPointExtension>
            <ns3:hr>129</ns3:hr>
          </ns3:TrackPointExtension>
        </extensions>
      </trkpt>
      <trkpt lat="47.56505473516881465911865234375" lon="-3.050878979265689849853515625">
        <ele>0.20000000298023223876953125</ele>
        <time>2026-08-15T16:43:29.000Z</time>
        <extensions>
          <ns3:TrackPointExtension>
            <ns3:hr>128</ns3:hr>
          </ns3:TrackPointExtension>
        </extensions>
      </trkpt>
      <trkpt lat="47.56505473516881465911865234375" lon="-3.050878979265689849853515625">
        <ele>0.4000000059604644775390625</ele>
        <time>2026-08-15T16:43:30.000Z</time>
        <extensions>
          <ns3:TrackPointExtension>
            <ns3:hr>128</ns3:hr>
          </ns3:TrackPointExtension>
        </extensions>
      </trkpt>
      <trkpt lat="47.56505473516881465911865234375" lon="-3.050878979265689849853515625">
        <ele>0.4000000059604644775390625</ele>
        <time>2026-08-15T16:43:31.000Z</time>
        <extensions>
          <ns3:TrackPointExtension>
            <ns3:hr>129</ns3:hr>
          </ns3:TrackPointExtension>
        </extensions>
      </trkpt>
      <trkpt lat="47.56505473516881465911865234375" lon="-3.050878979265689849853515625">
        <ele>0.60000002384185791015625</ele>
        <time>2026-08-15T16:43:32.000Z</time>
        <extensions>
          <ns3:TrackPointExtension>
            <ns3:hr>129</ns3:hr>
          </ns3:TrackPointExtension>
        </extensions>
      </trkpt>
      <trkpt lat="47.565055824816226959228515625" lon="-3.05087864398956298828125">
        <ele>0.800000011920928955078125</ele>
        <time>2026-08-15T16:43:33.000Z</time>
        <extensions>
          <ns3:TrackPointExtension>
            <ns3:hr>129</ns3:hr>
          </ns3:TrackPointExtension>
        </extensions>
      </trkpt>
      <trkpt lat="47.56505548954010009765625" lon="-3.0508754588663578033447265625">
        <ele>1</ele>
        <time>2026-08-15T16:43:34.000Z</time>
        <extensions>
          <ns3:TrackPointExtension>
            <ns3:hr>130</ns3:hr>
          </ns3:TrackPointExtension>
        </extensions>
      </trkpt>
      <trkpt lat="47.5650569982826709747314453125" lon="-3.05086866952478885650634765625">
        <ele>1.2000000476837158203125</ele>
        <time>2026-08-15T16:43:35.000Z</time>
        <extensions>
          <ns3:TrackPointExtension>
            <ns3:hr>130</ns3:hr>
          </ns3:TrackPointExtension>
        </extensions>
      </trkpt>
      <trkpt lat="47.56505750119686126708984375" lon="-3.05086732842028141021728515625">
        <ele>1.39999997615814208984375</ele>
        <time>2026-08-15T16:43:36.000Z</time>
        <extensions>
          <ns3:TrackPointExtension>
            <ns3:hr>131</ns3:hr>
          </ns3:TrackPointExtension>
        </extensions>
      </trkpt>
      <trkpt lat="47.56505624391138553619384765625" lon="-3.05087118409574031829833984375">
        <ele>1.39999997615814208984375</ele>
        <time>2026-08-15T16:43:37.000Z</time>
        <extensions>
          <ns3:TrackPointExtension>
            <ns3:hr>131</ns3:hr>
          </ns3:TrackPointExtension>
        </extensions>
      </trkpt>
      <trkpt lat="47.565059848129749298095703125" lon="-3.05087118409574031829833984375">
        <ele>1.7999999523162841796875</ele>
        <time>2026-08-15T16:43:38.000Z</time>
        <extensions>
          <ns3:TrackPointExtension>
            <ns3:hr>131</ns3:hr>
          </ns3:TrackPointExtension>
        </extensions>
      </trkpt>
      <trkpt lat="47.565063200891017913818359375" lon="-3.05086531676352024078369140625">
        <ele>1.7999999523162841796875</ele>
        <time>2026-08-15T16:43:39.000Z</time>
        <extensions>
          <ns3:TrackPointExtension>
            <ns3:hr>130</ns3:hr>
          </ns3:TrackPointExtension>
        </extensions>
      </trkpt>
      <trkpt lat="47.56506680510938167572021484375" lon="-3.05086296983063220977783203125">
        <ele>1.60000002384185791015625</ele>
        <time>2026-08-15T16:43:40.000Z</time>
        <extensions>
          <ns3:TrackPointExtension>
            <ns3:hr>129</ns3:hr>
          </ns3:TrackPointExtension>
        </extensions>
      </trkpt>
      <trkpt lat="47.56506688892841339111328125" lon="-3.0508570186793804168701171875">
        <ele>1.39999997615814208984375</ele>
        <time>2026-08-15T16:43:41.000Z</time>
        <extensions>
          <ns3:TrackPointExtension>
            <ns3:hr>128</ns3:hr>
          </ns3:TrackPointExtension>
        </extensions>
      </trkpt>
      <trkpt lat="47.5650648772716522216796875" lon="-3.05085006169974803924560546875">
        <ele>1.2000000476837158203125</ele>
        <time>2026-08-15T16:43:42.000Z</time>
        <extensions>
          <ns3:TrackPointExtension>
            <ns3:hr>127</ns3:hr>
          </ns3:TrackPointExtension>
        </extensions>
      </trkpt>
      <trkpt lat="47.5650568306446075439453125" lon="-3.05083832703530788421630859375">
        <ele>1</ele>
        <time>2026-08-15T16:43:43.000Z</time>
        <extensions>
          <ns3:TrackPointExtension>
            <ns3:hr>126</ns3:hr>
          </ns3:TrackPointExtension>
        </extensions>
      </trkpt>
      <trkpt lat="47.5650566630065441131591796875" lon="-3.05082692764699459075927734375">
        <ele>0.60000002384185791015625</ele>
        <time>2026-08-15T16:43:44.000Z</time>
        <extensions>
          <ns3:TrackPointExtension>
            <ns3:hr>125</ns3:hr>
          </ns3:TrackPointExtension>
        </extensions>
      </trkpt>
      <trkpt lat="47.5650516338646411895751953125" lon="-3.0508191324770450592041015625">
        <ele>0.4000000059604644775390625</ele>
        <time>2026-08-15T16:43:45.000Z</time>
        <extensions>
          <ns3:TrackPointExtension>
            <ns3:hr>124</ns3:hr>
          </ns3:TrackPointExtension>
        </extensions>
      </trkpt>
      <trkpt lat="47.5650516338646411895751953125" lon="-3.0508191324770450592041015625">
        <ele>0.20000000298023223876953125</ele>
        <time>2026-08-15T16:43:46.000Z</time>
        <extensions>
          <ns3:TrackPointExtension>
            <ns3:hr>123</ns3:hr>
          </ns3:TrackPointExtension>
        </extensions>
      </trkpt>
      <trkpt lat="47.5650516338646411895751953125" lon="-3.0508191324770450592041015625">
        <ele>0.20000000298023223876953125</ele>
        <time>2026-08-15T16:43:47.000Z</time>
        <extensions>
          <ns3:TrackPointExtension>
            <ns3:hr>127</ns3:hr>
          </ns3:TrackPointExtension>
        </extensions>
      </trkpt>
      <trkpt lat="47.565057836472988128662109375" lon="-3.050838075578212738037109375">
        <ele>0.20000000298023223876953125</ele>
        <time>2026-08-15T16:43:48.000Z</time>
        <extensions>
          <ns3:TrackPointExtension>
            <ns3:hr>132</ns3:hr>
          </ns3:TrackPointExtension>
        </extensions>
      </trkpt>
      <trkpt lat="47.56505942903459072113037109375" lon="-3.05083614774048328399658203125">
        <ele>0.4000000059604644775390625</ele>
        <time>2026-08-15T16:43:49.000Z</time>
        <extensions>
          <ns3:TrackPointExtension>
            <ns3:hr>133</ns3:hr>
          </ns3:TrackPointExtension>
        </extensions>
      </trkpt>
      <trkpt lat="47.56506554782390594482421875" lon="-3.05083950050175189971923828125">
        <ele>1.2000000476837158203125</ele>
        <time>2026-08-15T16:43:50.000Z</time>
        <extensions>
          <ns3:TrackPointExtension>
            <ns3:hr>133</ns3:hr>
          </ns3:TrackPointExtension>
        </extensions>
      </trkpt>
      <trkpt lat="47.56507468409836292266845703125" lon="-3.050833046436309814453125">
        <ele>1.7999999523162841796875</ele>
        <time>2026-08-15T16:43:51.000Z</time>
        <extensions>
          <ns3:TrackPointExtension>
            <ns3:hr>133</ns3:hr>
          </ns3:TrackPointExtension>
        </extensions>
      </trkpt>
      <trkpt lat="47.5650824792683124542236328125" lon="-3.05082810111343860626220703125">
        <ele>2</ele>
        <time>2026-08-15T16:43:52.000Z</time>
        <extensions>
          <ns3:TrackPointExtension>
            <ns3:hr>134</ns3:hr>
          </ns3:TrackPointExtension>
        </extensions>
      </trkpt>
      <trkpt lat="47.56509027443826198577880859375" lon="-3.05083262734115123748779296875">
        <ele>2.400000095367431640625</ele>
        <time>2026-08-15T16:43:53.000Z</time>
        <extensions>
          <ns3:TrackPointExtension>
            <ns3:hr>133</ns3:hr>
          </ns3:TrackPointExtension>
        </extensions>
      </trkpt>
      <trkpt lat="47.5650878436863422393798828125" lon="-3.05083128623664379119873046875">
        <ele>2.7999999523162841796875</ele>
        <time>2026-08-15T16:43:54.000Z</time>
        <extensions>
          <ns3:TrackPointExtension>
            <ns3:hr>132</ns3:hr>
          </ns3:TrackPointExtension>
        </extensions>
      </trkpt>
      <trkpt lat="47.56508474238216876983642578125" lon="-3.0508251674473285675048828125">
        <ele>3.2000000476837158203125</ele>
        <time>2026-08-15T16:43:55.000Z</time>
        <extensions>
          <ns3:TrackPointExtension>
            <ns3:hr>132</ns3:hr>
          </ns3:TrackPointExtension>
        </extensions>
      </trkpt>
      <trkpt lat="47.56508943624794483184814453125" lon="-3.05082298815250396728515625">
        <ele>4</ele>
        <time>2026-08-15T16:43:56.000Z</time>
        <extensions>
          <ns3:TrackPointExtension>
            <ns3:hr>132</ns3:hr>
          </ns3:TrackPointExtension>
        </extensions>
      </trkpt>
      <trkpt lat="47.5650915317237377166748046875" lon="-3.0508218146860599517822265625">
        <ele>4</ele>
        <time>2026-08-15T16:43:57.000Z</time>
        <extensions>
          <ns3:TrackPointExtension>
            <ns3:hr>132</ns3:hr>
          </ns3:TrackPointExtension>
        </extensions>
      </trkpt>
      <trkpt lat="47.56509178318083286285400390625" lon="-3.05081100203096866607666015625">
        <ele>4.19999980926513671875</ele>
        <time>2026-08-15T16:43:58.000Z</time>
        <extensions>
          <ns3:TrackPointExtension>
            <ns3:hr>132</ns3:hr>
          </ns3:TrackPointExtension>
        </extensions>
      </trkpt>
      <trkpt lat="47.5650962255895137786865234375" lon="-3.05082432925701141357421875">
        <ele>4.400000095367431640625</ele>
        <time>2026-08-15T16:43:59.000Z</time>
        <extensions>
          <ns3:TrackPointExtension>
            <ns3:hr>133</ns3:hr>
          </ns3:TrackPointExtension>
        </extensions>
      </trkpt>
      <trkpt lat="47.565101087093353271484375" lon="-3.0508426018059253692626953125">
        <ele>4.599999904632568359375</ele>
        <time>2026-08-15T16:44:00.000Z</time>
        <extensions>
          <ns3:TrackPointExtension>
            <ns3:hr>133</ns3:hr>
          </ns3:TrackPointExtension>
        </extensions>
      </trkpt>
      <trkpt lat="47.56510485894978046417236328125" lon="-3.05086883716285228729248046875">
        <ele>5</ele>
        <time>2026-08-15T16:44:01.000Z</time>
        <extensions>
          <ns3:TrackPointExtension>
            <ns3:hr>131</ns3:hr>
          </ns3:TrackPointExtension>
        </extensions>
      </trkpt>
      <trkpt lat="47.56510904990136623382568359375" lon="-3.050895072519779205322265625">
        <ele>5.19999980926513671875</ele>
        <time>2026-08-15T16:44:02.000Z</time>
        <extensions>
          <ns3:TrackPointExtension>
            <ns3:hr>131</ns3:hr>
          </ns3:TrackPointExtension>
        </extensions>
      </trkpt>
      <trkpt lat="47.56511324085295200347900390625" lon="-3.0509049631655216217041015625">
        <ele>5.400000095367431640625</ele>
        <time>2026-08-15T16:44:03.000Z</time>
        <extensions>
          <ns3:TrackPointExtension>
            <ns3:hr>131</ns3:hr>
          </ns3:TrackPointExtension>
        </extensions>
      </trkpt>
      <trkpt lat="47.56512346677482128143310546875" lon="-3.0508907139301300048828125">
        <ele>5.599999904632568359375</ele>
        <time>2026-08-15T16:44:04.000Z</time>
        <extensions>
          <ns3:TrackPointExtension>
            <ns3:hr>131</ns3:hr>
          </ns3:TrackPointExtension>
        </extensions>
      </trkpt>
      <trkpt lat="47.5651160068809986114501953125" lon="-3.05088995955884456634521484375">
        <ele>5.80000019073486328125</ele>
        <time>2026-08-15T16:44:05.000Z</time>
        <extensions>
          <ns3:TrackPointExtension>
            <ns3:hr>130</ns3:hr>
          </ns3:TrackPointExtension>
        </extensions>
      </trkpt>
      <trkpt lat="47.56511340849101543426513671875" lon="-3.0508771352469921112060546875">
        <ele>5.80000019073486328125</ele>
        <time>2026-08-15T16:44:06.000Z</time>
        <extensions>
          <ns3:TrackPointExtension>
            <ns3:hr>129</ns3:hr>
          </ns3:TrackPointExtension>
        </extensions>
      </trkpt>
      <trkpt lat="47.56511860527098178863525390625" lon="-3.05087755434215068817138671875">
        <ele>5.599999904632568359375</ele>
        <time>2026-08-15T16:44:07.000Z</time>
        <extensions>
          <ns3:TrackPointExtension>
            <ns3:hr>128</ns3:hr>
          </ns3:TrackPointExtension>
        </extensions>
      </trkpt>
      <trkpt lat="47.5651146657764911651611328125" lon="-3.05085089989006519317626953125">
        <ele>5.400000095367431640625</ele>
        <time>2026-08-15T16:44:08.000Z</time>
        <extensions>
          <ns3:TrackPointExtension>
            <ns3:hr>127</ns3:hr>
          </ns3:TrackPointExtension>
        </extensions>
      </trkpt>
      <trkpt lat="47.5651076249778270721435546875" lon="-3.0508194677531719207763671875">
        <ele>5.400000095367431640625</ele>
        <time>2026-08-15T16:44:09.000Z</time>
        <extensions>
          <ns3:TrackPointExtension>
            <ns3:hr>127</ns3:hr>
          </ns3:TrackPointExtension>
        </extensions>
      </trkpt>
      <trkpt lat="47.56510569714009761810302734375" lon="-3.05080396123230457305908203125">
        <ele>5</ele>
        <time>2026-08-15T16:44:10.000Z</time>
        <extensions>
          <ns3:TrackPointExtension>
            <ns3:hr>128</ns3:hr>
          </ns3:TrackPointExtension>
        </extensions>
      </trkpt>
      <trkpt lat="47.56510552950203418731689453125" lon="-3.0507926456630229949951171875">
        <ele>4.599999904632568359375</ele>
        <time>2026-08-15T16:44:11.000Z</time>
        <extensions>
          <ns3:TrackPointExtension>
            <ns3:hr>128</ns3:hr>
          </ns3:TrackPointExtension>
        </extensions>
      </trkpt>
      <trkpt lat="47.56510200910270214080810546875" lon="-3.05078686214983463287353515625">
        <ele>4.400000095367431640625</ele>
        <time>2026-08-15T16:44:12.000Z</time>
        <extensions>
          <ns3:TrackPointExtension>
            <ns3:hr>125</ns3:hr>
          </ns3:TrackPointExtension>
        </extensions>
      </trkpt>
      <trkpt lat="47.56509840488433837890625" lon="-3.0507802404463291168212890625">
        <ele>3.599999904632568359375</ele>
        <time>2026-08-15T16:44:13.000Z</time>
        <extensions>
          <ns3:TrackPointExtension>
            <ns3:hr>117</ns3:hr>
          </ns3:TrackPointExtension>
        </extensions>
      </trkpt>
      <trkpt lat="47.56509379483759403228759765625" lon="-3.050762973725795745849609375">
        <ele>3</ele>
        <time>2026-08-15T16:44:14.000Z</time>
        <extensions>
          <ns3:TrackPointExtension>
            <ns3:hr>109</ns3:hr>
          </ns3:TrackPointExtension>
        </extensions>
      </trkpt>
      <trkpt lat="47.56509329192340373992919921875" lon="-3.050752915441989898681640625">
        <ele>2.599999904632568359375</ele>
        <time>2026-08-15T16:44:15.000Z</time>
        <extensions>
          <ns3:TrackPointExtension>
            <ns3:hr>110</ns3:hr>
          </ns3:TrackPointExtension>
        </extensions>
      </trkpt>
      <trkpt lat="47.565094716846942901611328125" lon="-3.050755597651004791259765625">
        <ele>2.2000000476837158203125</ele>
        <time>2026-08-15T16:44:16.000Z</time>
        <extensions>
          <ns3:TrackPointExtension>
            <ns3:hr>109</ns3:hr>
          </ns3:TrackPointExtension>
        </extensions>
      </trkpt>
      <trkpt lat="47.56509932689368724822998046875" lon="-3.0507567711174488067626953125">
        <ele>2</ele>
        <time>2026-08-15T16:44:17.000Z</time>
        <extensions>
          <ns3:TrackPointExtension>
            <ns3:hr>108</ns3:hr>
          </ns3:TrackPointExtension>
        </extensions>
      </trkpt>
      <trkpt lat="47.565107457339763641357421875" lon="-3.05076221935451030731201171875">
        <ele>2</ele>
        <time>2026-08-15T16:44:18.000Z</time>
        <extensions>
          <ns3:TrackPointExtension>
            <ns3:hr>108</ns3:hr>
          </ns3:TrackPointExtension>
        </extensions>
      </trkpt>
      <trkpt lat="47.565107457339763641357421875" lon="-3.05076221935451030731201171875">
        <ele>2</ele>
        <time>2026-08-15T16:44:19.000Z</time>
        <extensions>
          <ns3:TrackPointExtension>
            <ns3:hr>109</ns3:hr>
          </ns3:TrackPointExtension>
        </extensions>
      </trkpt>
      <trkpt lat="47.56511458195745944976806640625" lon="-3.0507550947368144989013671875">
        <ele>2</ele>
        <time>2026-08-15T16:44:20.000Z</time>
        <extensions>
          <ns3:TrackPointExtension>
            <ns3:hr>110</ns3:hr>
          </ns3:TrackPointExtension>
        </extensions>
      </trkpt>
      <trkpt lat="47.5651200301945209503173828125" lon="-3.05074947886168956756591796875">
        <ele>2.2000000476837158203125</ele>
        <time>2026-08-15T16:44:21.000Z</time>
        <extensions>
          <ns3:TrackPointExtension>
            <ns3:hr>111</ns3:hr>
          </ns3:TrackPointExtension>
        </extensions>
      </trkpt>
      <trkpt lat="47.5651210360229015350341796875" lon="-3.0507463775575160980224609375">
        <ele>2.400000095367431640625</ele>
        <time>2026-08-15T16:44:22.000Z</time>
        <extensions>
          <ns3:TrackPointExtension>
            <ns3:hr>112</ns3:hr>
          </ns3:TrackPointExtension>
        </extensions>
      </trkpt>
      <trkpt lat="47.565132938325405120849609375" lon="-3.05074260570108890533447265625">
        <ele>2.7999999523162841796875</ele>
        <time>2026-08-15T16:44:23.000Z</time>
        <extensions>
          <ns3:TrackPointExtension>
            <ns3:hr>111</ns3:hr>
          </ns3:TrackPointExtension>
        </extensions>
      </trkpt>
      <trkpt lat="47.56514391861855983734130859375" lon="-3.05073539726436138153076171875">
        <ele>3</ele>
        <time>2026-08-15T16:44:24.000Z</time>
        <extensions>
          <ns3:TrackPointExtension>
            <ns3:hr>111</ns3:hr>
          </ns3:TrackPointExtension>
        </extensions>
      </trkpt>
      <trkpt lat="47.565155737102031707763671875" lon="-3.0507309548556804656982421875">
        <ele>3</ele>
        <time>2026-08-15T16:44:25.000Z</time>
        <extensions>
          <ns3:TrackPointExtension>
            <ns3:hr>111</ns3:hr>
          </ns3:TrackPointExtension>
        </extensions>
      </trkpt>
      <trkpt lat="47.56516856141388416290283203125" lon="-3.05072869174182415008544921875">
        <ele>3.2000000476837158203125</ele>
        <time>2026-08-15T16:44:26.000Z</time>
        <extensions>
          <ns3:TrackPointExtension>
            <ns3:hr>110</ns3:hr>
          </ns3:TrackPointExtension>
        </extensions>
      </trkpt>
      <trkpt lat="47.56518356502056121826171875" lon="-3.0507279373705387115478515625">
        <ele>3.2000000476837158203125</ele>
        <time>2026-08-15T16:44:27.000Z</time>
        <extensions>
          <ns3:TrackPointExtension>
            <ns3:hr>110</ns3:hr>
          </ns3:TrackPointExtension>
        </extensions>
      </trkpt>
      <trkpt lat="47.5652018375694751739501953125" lon="-3.0507232435047626495361328125">
        <ele>3.400000095367431640625</ele>
        <time>2026-08-15T16:44:28.000Z</time>
        <extensions>
          <ns3:TrackPointExtension>
            <ns3:hr>110</ns3:hr>
          </ns3:TrackPointExtension>
        </extensions>
      </trkpt>
      <trkpt lat="47.56521969102323055267333984375" lon="-3.05071611888706684112548828125">
        <ele>3.400000095367431640625</ele>
        <time>2026-08-15T16:44:29.000Z</time>
        <extensions>
          <ns3:TrackPointExtension>
            <ns3:hr>110</ns3:hr>
          </ns3:TrackPointExtension>
        </extensions>
      </trkpt>
      <trkpt lat="47.56523595191538333892822265625" lon="-3.0507031269371509552001953125">
        <ele>3.400000095367431640625</ele>
        <time>2026-08-15T16:44:30.000Z</time>
        <extensions>
          <ns3:TrackPointExtension>
            <ns3:hr>110</ns3:hr>
          </ns3:TrackPointExtension>
        </extensions>
      </trkpt>
      <trkpt lat="47.5652526319026947021484375" lon="-3.05068074725568294525146484375">
        <ele>3.2000000476837158203125</ele>
        <time>2026-08-15T16:44:31.000Z</time>
        <extensions>
          <ns3:TrackPointExtension>
            <ns3:hr>111</ns3:hr>
          </ns3:TrackPointExtension>
        </extensions>
      </trkpt>
      <trkpt lat="47.56527685560286045074462890625" lon="-3.0506518296897411346435546875">
        <ele>3.2000000476837158203125</ele>
        <time>2026-08-15T16:44:32.000Z</time>
        <extensions>
          <ns3:TrackPointExtension>
            <ns3:hr>111</ns3:hr>
          </ns3:TrackPointExtension>
        </extensions>
      </trkpt>
      <trkpt lat="47.56530166603624820709228515625" lon="-3.050627522170543670654296875">
        <ele>3</ele>
        <time>2026-08-15T16:44:33.000Z</time>
        <extensions>
          <ns3:TrackPointExtension>
            <ns3:hr>110</ns3:hr>
          </ns3:TrackPointExtension>
        </extensions>
      </trkpt>
      <trkpt lat="47.56533619947731494903564453125" lon="-3.0506112612783908843994140625">
        <ele>2.7999999523162841796875</ele>
        <time>2026-08-15T16:44:34.000Z</time>
        <extensions>
          <ns3:TrackPointExtension>
            <ns3:hr>110</ns3:hr>
          </ns3:TrackPointExtension>
        </extensions>
      </trkpt>
      <trkpt lat="47.56537056528031826019287109375" lon="-3.0505918152630329132080078125">
        <ele>2.400000095367431640625</ele>
        <time>2026-08-15T16:44:35.000Z</time>
        <extensions>
          <ns3:TrackPointExtension>
            <ns3:hr>109</ns3:hr>
          </ns3:TrackPointExtension>
        </extensions>
      </trkpt>
      <trkpt lat="47.56540224887430667877197265625" lon="-3.050568513572216033935546875">
        <ele>2.599999904632568359375</ele>
        <time>2026-08-15T16:44:36.000Z</time>
        <extensions>
          <ns3:TrackPointExtension>
            <ns3:hr>109</ns3:hr>
          </ns3:TrackPointExtension>
        </extensions>
      </trkpt>
      <trkpt lat="47.56543342955410480499267578125" lon="-3.05055937729775905609130859375">
        <ele>2.599999904632568359375</ele>
        <time>2026-08-15T16:44:37.000Z</time>
        <extensions>
          <ns3:TrackPointExtension>
            <ns3:hr>109</ns3:hr>
          </ns3:TrackPointExtension>
        </extensions>
      </trkpt>
      <trkpt lat="47.56546427495777606964111328125" lon="-3.05053624324500560760498046875">
        <ele>2.599999904632568359375</ele>
        <time>2026-08-15T16:44:38.000Z</time>
        <extensions>
          <ns3:TrackPointExtension>
            <ns3:hr>108</ns3:hr>
          </ns3:TrackPointExtension>
        </extensions>
      </trkpt>
      <trkpt lat="47.56550702266395092010498046875" lon="-3.05051713250577449798583984375">
        <ele>2.7999999523162841796875</ele>
        <time>2026-08-15T16:44:39.000Z</time>
        <extensions>
          <ns3:TrackPointExtension>
            <ns3:hr>107</ns3:hr>
          </ns3:TrackPointExtension>
        </extensions>
      </trkpt>
      <trkpt lat="47.56554968655109405517578125" lon="-3.0505210720002651214599609375">
        <ele>3</ele>
        <time>2026-08-15T16:44:40.000Z</time>
        <extensions>
          <ns3:TrackPointExtension>
            <ns3:hr>108</ns3:hr>
          </ns3:TrackPointExtension>
        </extensions>
      </trkpt>
      <trkpt lat="47.5655934400856494903564453125" lon="-3.05052970536053180694580078125">
        <ele>3.2000000476837158203125</ele>
        <time>2026-08-15T16:44:41.000Z</time>
        <extensions>
          <ns3:TrackPointExtension>
            <ns3:hr>109</ns3:hr>
          </ns3:TrackPointExtension>
        </extensions>
      </trkpt>
      <trkpt lat="47.5656450726091861724853515625" lon="-3.05054227821528911590576171875">
        <ele>3.599999904632568359375</ele>
        <time>2026-08-15T16:44:42.000Z</time>
        <extensions>
          <ns3:TrackPointExtension>
            <ns3:hr>108</ns3:hr>
          </ns3:TrackPointExtension>
        </extensions>
      </trkpt>
      <trkpt lat="47.56569041870534420013427734375" lon="-3.05056826211512088775634765625">
        <ele>4</ele>
        <time>2026-08-15T16:44:43.000Z</time>
        <extensions>
          <ns3:TrackPointExtension>
            <ns3:hr>107</ns3:hr>
          </ns3:TrackPointExtension>
        </extensions>
      </trkpt>
      <trkpt lat="47.56573953665792942047119140625" lon="-3.050595335662364959716796875">
        <ele>4.599999904632568359375</ele>
        <time>2026-08-15T16:44:44.000Z</time>
        <extensions>
          <ns3:TrackPointExtension>
            <ns3:hr>107</ns3:hr>
          </ns3:TrackPointExtension>
        </extensions>
      </trkpt>
      <trkpt lat="47.56578974425792694091796875" lon="-3.05060841143131256103515625">
        <ele>5</ele>
        <time>2026-08-15T16:44:45.000Z</time>
        <extensions>
          <ns3:TrackPointExtension>
            <ns3:hr>107</ns3:hr>
          </ns3:TrackPointExtension>
        </extensions>
      </trkpt>
      <trkpt lat="47.56584296934306621551513671875" lon="-3.050618804991245269775390625">
        <ele>5.400000095367431640625</ele>
        <time>2026-08-15T16:44:46.000Z</time>
        <extensions>
          <ns3:TrackPointExtension>
            <ns3:hr>108</ns3:hr>
          </ns3:TrackPointExtension>
        </extensions>
      </trkpt>
      <trkpt lat="47.5659005530178546905517578125" lon="-3.05064436979591846466064453125">
        <ele>5.80000019073486328125</ele>
        <time>2026-08-15T16:44:47.000Z</time>
        <extensions>
          <ns3:TrackPointExtension>
            <ns3:hr>106</ns3:hr>
          </ns3:TrackPointExtension>
        </extensions>
      </trkpt>
      <trkpt lat="47.56594925187528133392333984375" lon="-3.05067186243832111358642578125">
        <ele>5.80000019073486328125</ele>
        <time>2026-08-15T16:44:48.000Z</time>
        <extensions>
          <ns3:TrackPointExtension>
            <ns3:hr>105</ns3:hr>
          </ns3:TrackPointExtension>
        </extensions>
      </trkpt>
      <trkpt lat="47.56600004620850086212158203125" lon="-3.0506893806159496307373046875">
        <ele>6</ele>
        <time>2026-08-15T16:44:49.000Z</time>
        <extensions>
          <ns3:TrackPointExtension>
            <ns3:hr>103</ns3:hr>
          </ns3:TrackPointExtension>
        </extensions>
      </trkpt>
      <trkpt lat="47.56605402566492557525634765625" lon="-3.05071343667805194854736328125">
        <ele>6</ele>
        <time>2026-08-15T16:44:50.000Z</time>
        <extensions>
          <ns3:TrackPointExtension>
            <ns3:hr>103</ns3:hr>
          </ns3:TrackPointExtension>
        </extensions>
      </trkpt>
      <trkpt lat="47.566101886332035064697265625" lon="-3.0507490597665309906005859375">
        <ele>6</ele>
        <time>2026-08-15T16:44:51.000Z</time>
        <extensions>
          <ns3:TrackPointExtension>
            <ns3:hr>104</ns3:hr>
          </ns3:TrackPointExtension>
        </extensions>
      </trkpt>
      <trkpt lat="47.56614605896174907684326171875" lon="-3.0507902987301349639892578125">
        <ele>5.80000019073486328125</ele>
        <time>2026-08-15T16:44:52.000Z</time>
        <extensions>
          <ns3:TrackPointExtension>
            <ns3:hr>105</ns3:hr>
          </ns3:TrackPointExtension>
        </extensions>
      </trkpt>
      <trkpt lat="47.56619333289563655853271484375" lon="-3.0508218146860599517822265625">
        <ele>5.400000095367431640625</ele>
        <time>2026-08-15T16:44:53.000Z</time>
        <extensions>
          <ns3:TrackPointExtension>
            <ns3:hr>105</ns3:hr>
          </ns3:TrackPointExtension>
        </extensions>
      </trkpt>
      <trkpt lat="47.5662418641149997711181640625" lon="-3.050854839384555816650390625">
        <ele>5.19999980926513671875</ele>
        <time>2026-08-15T16:44:54.000Z</time>
        <extensions>
          <ns3:TrackPointExtension>
            <ns3:hr>105</ns3:hr>
          </ns3:TrackPointExtension>
        </extensions>
      </trkpt>
      <trkpt lat="47.566286288201808929443359375" lon="-3.05087721906602382659912109375">
        <ele>5</ele>
        <time>2026-08-15T16:44:55.000Z</time>
        <extensions>
          <ns3:TrackPointExtension>
            <ns3:hr>107</ns3:hr>
          </ns3:TrackPointExtension>
        </extensions>
      </trkpt>
      <trkpt lat="47.56633222103118896484375" lon="-3.0509094893932342529296875">
        <ele>5</ele>
        <time>2026-08-15T16:44:56.000Z</time>
        <extensions>
          <ns3:TrackPointExtension>
            <ns3:hr>110</ns3:hr>
          </ns3:TrackPointExtension>
        </extensions>
      </trkpt>
      <trkpt lat="47.5663791596889495849609375" lon="-3.050942011177539825439453125">
        <ele>5</ele>
        <time>2026-08-15T16:44:57.000Z</time>
        <extensions>
          <ns3:TrackPointExtension>
            <ns3:hr>110</ns3:hr>
          </ns3:TrackPointExtension>
        </extensions>
      </trkpt>
      <trkpt lat="47.566425763070583343505859375" lon="-3.05098249576985836029052734375">
        <ele>5</ele>
        <time>2026-08-15T16:44:58.000Z</time>
        <extensions>
          <ns3:TrackPointExtension>
            <ns3:hr>110</ns3:hr>
          </ns3:TrackPointExtension>
        </extensions>
      </trkpt>
      <trkpt lat="47.56646792404353618621826171875" lon="-3.05101753212511539459228515625">
        <ele>5.19999980926513671875</ele>
        <time>2026-08-15T16:44:59.000Z</time>
        <extensions>
          <ns3:TrackPointExtension>
            <ns3:hr>111</ns3:hr>
          </ns3:TrackPointExtension>
        </extensions>
      </trkpt>
      <trkpt lat="47.56650899536907672882080078125" lon="-3.05105097591876983642578125">
        <ele>5.19999980926513671875</ele>
        <time>2026-08-15T16:45:00.000Z</time>
        <extensions>
          <ns3:TrackPointExtension>
            <ns3:hr>111</ns3:hr>
          </ns3:TrackPointExtension>
        </extensions>
      </trkpt>
      <trkpt lat="47.56654621101915836334228515625" lon="-3.05107687599956989288330078125">
        <ele>5</ele>
        <time>2026-08-15T16:45:01.000Z</time>
        <extensions>
          <ns3:TrackPointExtension>
            <ns3:hr>111</ns3:hr>
          </ns3:TrackPointExtension>
        </extensions>
      </trkpt>
      <trkpt lat="47.56659214384853839874267578125" lon="-3.05109380744397640228271484375">
        <ele>4.80000019073486328125</ele>
        <time>2026-08-15T16:45:02.000Z</time>
        <extensions>
          <ns3:TrackPointExtension>
            <ns3:hr>111</ns3:hr>
          </ns3:TrackPointExtension>
        </extensions>
      </trkpt>
      <trkpt lat="47.5666415132582187652587890625" lon="-3.05110998451709747314453125">
        <ele>5</ele>
        <time>2026-08-15T16:45:03.000Z</time>
        <extensions>
          <ns3:TrackPointExtension>
            <ns3:hr>108</ns3:hr>
          </ns3:TrackPointExtension>
        </extensions>
      </trkpt>
      <trkpt lat="47.56668820045888423919677734375" lon="-3.0511379800736904144287109375">
        <ele>5</ele>
        <time>2026-08-15T16:45:04.000Z</time>
        <extensions>
          <ns3:TrackPointExtension>
            <ns3:hr>105</ns3:hr>
          </ns3:TrackPointExtension>
        </extensions>
      </trkpt>
      <trkpt lat="47.566738240420818328857421875" lon="-3.0511696636676788330078125">
        <ele>5</ele>
        <time>2026-08-15T16:45:05.000Z</time>
        <extensions>
          <ns3:TrackPointExtension>
            <ns3:hr>102</ns3:hr>
          </ns3:TrackPointExtension>
        </extensions>
      </trkpt>
      <trkpt lat="47.5667870230972766876220703125" lon="-3.05119925178587436676025390625">
        <ele>5</ele>
        <time>2026-08-15T16:45:06.000Z</time>
        <extensions>
          <ns3:TrackPointExtension>
            <ns3:hr>100</ns3:hr>
          </ns3:TrackPointExtension>
        </extensions>
      </trkpt>
      <trkpt lat="47.56683991290628910064697265625" lon="-3.05121484212577342987060546875">
        <ele>4.80000019073486328125</ele>
        <time>2026-08-15T16:45:07.000Z</time>
        <extensions>
          <ns3:TrackPointExtension>
            <ns3:hr>99</ns3:hr>
          </ns3:TrackPointExtension>
        </extensions>
      </trkpt>
      <trkpt lat="47.566887773573398590087890625" lon="-3.05122372694313526153564453125">
        <ele>4.400000095367431640625</ele>
        <time>2026-08-15T16:45:08.000Z</time>
        <extensions>
          <ns3:TrackPointExtension>
            <ns3:hr>98</ns3:hr>
          </ns3:TrackPointExtension>
        </extensions>
      </trkpt>
      <trkpt lat="47.56693295203149318695068359375" lon="-3.05123873054981231689453125">
        <ele>3.7999999523162841796875</ele>
        <time>2026-08-15T16:45:09.000Z</time>
        <extensions>
          <ns3:TrackPointExtension>
            <ns3:hr>97</ns3:hr>
          </ns3:TrackPointExtension>
        </extensions>
      </trkpt>
      <trkpt lat="47.56698257289826869964599609375" lon="-3.0512526445090770721435546875">
        <ele>3.599999904632568359375</ele>
        <time>2026-08-15T16:45:10.000Z</time>
        <extensions>
          <ns3:TrackPointExtension>
            <ns3:hr>96</ns3:hr>
          </ns3:TrackPointExtension>
        </extensions>
      </trkpt>
      <trkpt lat="47.56703470833599567413330078125" lon="-3.05126748047769069671630859375">
        <ele>3.400000095367431640625</ele>
        <time>2026-08-15T16:45:11.000Z</time>
        <extensions>
          <ns3:TrackPointExtension>
            <ns3:hr>96</ns3:hr>
          </ns3:TrackPointExtension>
        </extensions>
      </trkpt>
      <trkpt lat="47.56707762368023395538330078125" lon="-3.05127753876149654388427734375">
        <ele>3.2000000476837158203125</ele>
        <time>2026-08-15T16:45:12.000Z</time>
        <extensions>
          <ns3:TrackPointExtension>
            <ns3:hr>96</ns3:hr>
          </ns3:TrackPointExtension>
        </extensions>
      </trkpt>
      <trkpt lat="47.567123137414455413818359375" lon="-3.05128139443695545196533203125">
        <ele>3</ele>
        <time>2026-08-15T16:45:13.000Z</time>
        <extensions>
          <ns3:TrackPointExtension>
            <ns3:hr>96</ns3:hr>
          </ns3:TrackPointExtension>
        </extensions>
      </trkpt>
      <trkpt lat="47.56717384792864322662353515625" lon="-3.0512647144496440887451171875">
        <ele>3</ele>
        <time>2026-08-15T16:45:14.000Z</time>
        <extensions>
          <ns3:TrackPointExtension>
            <ns3:hr>95</ns3:hr>
          </ns3:TrackPointExtension>
        </extensions>
      </trkpt>
      <trkpt lat="47.56722581572830677032470703125" lon="-3.05123470723628997802734375">
        <ele>2.7999999523162841796875</ele>
        <time>2026-08-15T16:45:15.000Z</time>
        <extensions>
          <ns3:TrackPointExtension>
            <ns3:hr>96</ns3:hr>
          </ns3:TrackPointExtension>
        </extensions>
      </trkpt>
      <trkpt lat="47.56726303137838840484619140625" lon="-3.0511812306940555572509765625">
        <ele>2.400000095367431640625</ele>
        <time>2026-08-15T16:45:16.000Z</time>
        <extensions>
          <ns3:TrackPointExtension>
            <ns3:hr>96</ns3:hr>
          </ns3:TrackPointExtension>
        </extensions>
      </trkpt>
      <trkpt lat="47.5672795437276363372802734375" lon="-3.05111643858253955841064453125">
        <ele>2.2000000476837158203125</ele>
        <time>2026-08-15T16:45:17.000Z</time>
        <extensions>
          <ns3:TrackPointExtension>
            <ns3:hr>95</ns3:hr>
          </ns3:TrackPointExtension>
        </extensions>
      </trkpt>
      <trkpt lat="47.56728063337504863739013671875" lon="-3.051047287881374359130859375">
        <ele>2</ele>
        <time>2026-08-15T16:45:18.000Z</time>
        <extensions>
          <ns3:TrackPointExtension>
            <ns3:hr>96</ns3:hr>
          </ns3:TrackPointExtension>
        </extensions>
      </trkpt>
      <trkpt lat="47.5672637857496738433837890625" lon="-3.0510001815855503082275390625">
        <ele>2</ele>
        <time>2026-08-15T16:45:19.000Z</time>
        <extensions>
          <ns3:TrackPointExtension>
            <ns3:hr>96</ns3:hr>
          </ns3:TrackPointExtension>
        </extensions>
      </trkpt>
      <trkpt lat="47.5672406516969203948974609375" lon="-3.05095869116485118865966796875">
        <ele>2.2000000476837158203125</ele>
        <time>2026-08-15T16:45:20.000Z</time>
        <extensions>
          <ns3:TrackPointExtension>
            <ns3:hr>95</ns3:hr>
          </ns3:TrackPointExtension>
        </extensions>
      </trkpt>
      <trkpt lat="47.5672161765396595001220703125" lon="-3.05091611109673976898193359375">
        <ele>2.2000000476837158203125</ele>
        <time>2026-08-15T16:45:21.000Z</time>
        <extensions>
          <ns3:TrackPointExtension>
            <ns3:hr>96</ns3:hr>
          </ns3:TrackPointExtension>
        </extensions>
      </trkpt>
      <trkpt lat="47.56719446741044521331787109375" lon="-3.0508875288069248199462890625">
        <ele>2.400000095367431640625</ele>
        <time>2026-08-15T16:45:22.000Z</time>
        <extensions>
          <ns3:TrackPointExtension>
            <ns3:hr>96</ns3:hr>
          </ns3:TrackPointExtension>
        </extensions>
      </trkpt>
      <trkpt lat="47.56719983182847499847412109375" lon="-3.05088006891310214996337890625">
        <ele>2.7999999523162841796875</ele>
        <time>2026-08-15T16:45:23.000Z</time>
        <extensions>
          <ns3:TrackPointExtension>
            <ns3:hr>97</ns3:hr>
          </ns3:TrackPointExtension>
        </extensions>
      </trkpt>
      <trkpt lat="47.56721424870193004608154296875" lon="-3.0509121716022491455078125">
        <ele>3.2000000476837158203125</ele>
        <time>2026-08-15T16:45:24.000Z</time>
        <extensions>
          <ns3:TrackPointExtension>
            <ns3:hr>98</ns3:hr>
          </ns3:TrackPointExtension>
        </extensions>
      </trkpt>
      <trkpt lat="47.56720871664583683013916015625" lon="-3.05092784576117992401123046875">
        <ele>3.2000000476837158203125</ele>
        <time>2026-08-15T16:45:25.000Z</time>
        <extensions>
          <ns3:TrackPointExtension>
            <ns3:hr>99</ns3:hr>
          </ns3:TrackPointExtension>
        </extensions>
      </trkpt>
      <trkpt lat="47.56721475161612033843994140625" lon="-3.05093203671276569366455078125">
        <ele>3.2000000476837158203125</ele>
        <time>2026-08-15T16:45:26.000Z</time>
        <extensions>
          <ns3:TrackPointExtension>
            <ns3:hr>100</ns3:hr>
          </ns3:TrackPointExtension>
        </extensions>
      </trkpt>
      <trkpt lat="47.56722472608089447021484375" lon="-3.0509361438453197479248046875">
        <ele>3.2000000476837158203125</ele>
        <time>2026-08-15T16:45:27.000Z</time>
        <extensions>
          <ns3:TrackPointExtension>
            <ns3:hr>101</ns3:hr>
          </ns3:TrackPointExtension>
        </extensions>
      </trkpt>
      <trkpt lat="47.567229084670543670654296875" lon="-3.05093337781727313995361328125">
        <ele>3.2000000476837158203125</ele>
        <time>2026-08-15T16:45:28.000Z</time>
        <extensions>
          <ns3:TrackPointExtension>
            <ns3:hr>103</ns3:hr>
          </ns3:TrackPointExtension>
        </extensions>
      </trkpt>
      <trkpt lat="47.56723319180309772491455078125" lon="-3.0509438551962375640869140625">
        <ele>3.2000000476837158203125</ele>
        <time>2026-08-15T16:45:29.000Z</time>
        <extensions>
          <ns3:TrackPointExtension>
            <ns3:hr>104</ns3:hr>
          </ns3:TrackPointExtension>
        </extensions>
      </trkpt>
      <trkpt lat="47.56722631864249706268310546875" lon="-3.05095735006034374237060546875">
        <ele>3.400000095367431640625</ele>
        <time>2026-08-15T16:45:30.000Z</time>
        <extensions>
          <ns3:TrackPointExtension>
            <ns3:hr>105</ns3:hr>
          </ns3:TrackPointExtension>
        </extensions>
      </trkpt>
      <trkpt lat="47.5672309286892414093017578125" lon="-3.05096740834414958953857421875">
        <ele>3.2000000476837158203125</ele>
        <time>2026-08-15T16:45:31.000Z</time>
        <extensions>
          <ns3:TrackPointExtension>
            <ns3:hr>106</ns3:hr>
          </ns3:TrackPointExtension>
        </extensions>
      </trkpt>
      <trkpt lat="47.56723050959408283233642578125" lon="-3.050970174372196197509765625">
        <ele>3.2000000476837158203125</ele>
        <time>2026-08-15T16:45:32.000Z</time>
        <extensions>
          <ns3:TrackPointExtension>
            <ns3:hr>108</ns3:hr>
          </ns3:TrackPointExtension>
        </extensions>
      </trkpt>
      <trkpt lat="47.5672329403460025787353515625" lon="-3.05096271447837352752685546875">
        <ele>3</ele>
        <time>2026-08-15T16:45:33.000Z</time>
        <extensions>
          <ns3:TrackPointExtension>
            <ns3:hr>108</ns3:hr>
          </ns3:TrackPointExtension>
        </extensions>
      </trkpt>
      <trkpt lat="47.56723419763147830963134765625" lon="-3.05096447467803955078125">
        <ele>3</ele>
        <time>2026-08-15T16:45:34.000Z</time>
        <extensions>
          <ns3:TrackPointExtension>
            <ns3:hr>108</ns3:hr>
          </ns3:TrackPointExtension>
        </extensions>
      </trkpt>
      <trkpt lat="47.56723419763147830963134765625" lon="-3.05096447467803955078125">
        <ele>2.7999999523162841796875</ele>
        <time>2026-08-15T16:45:35.000Z</time>
        <extensions>
          <ns3:TrackPointExtension>
            <ns3:hr>109</ns3:hr>
          </ns3:TrackPointExtension>
        </extensions>
      </trkpt>
      <trkpt lat="47.56723017431795597076416015625" lon="-3.05095902644097805023193359375">
        <ele>2.400000095367431640625</ele>
        <time>2026-08-15T16:45:36.000Z</time>
        <extensions>
          <ns3:TrackPointExtension>
            <ns3:hr>109</ns3:hr>
          </ns3:TrackPointExtension>
        </extensions>
      </trkpt>
      <trkpt lat="47.56722581572830677032470703125" lon="-3.05095466785132884979248046875">
        <ele>2.2000000476837158203125</ele>
        <time>2026-08-15T16:45:37.000Z</time>
        <extensions>
          <ns3:TrackPointExtension>
            <ns3:hr>109</ns3:hr>
          </ns3:TrackPointExtension>
        </extensions>
      </trkpt>
      <trkpt lat="47.5672265700995922088623046875" lon="-3.0509555898606777191162109375">
        <ele>1.60000002384185791015625</ele>
        <time>2026-08-15T16:45:38.000Z</time>
        <extensions>
          <ns3:TrackPointExtension>
            <ns3:hr>109</ns3:hr>
          </ns3:TrackPointExtension>
        </extensions>
      </trkpt>
      <trkpt lat="47.56723017431795597076416015625" lon="-3.0509522370994091033935546875">
        <ele>1.39999997615814208984375</ele>
        <time>2026-08-15T16:45:39.000Z</time>
        <extensions>
          <ns3:TrackPointExtension>
            <ns3:hr>108</ns3:hr>
          </ns3:TrackPointExtension>
        </extensions>
      </trkpt>
      <trkpt lat="47.56722480989992618560791015625" lon="-3.05094393901526927947998046875">
        <ele>1</ele>
        <time>2026-08-15T16:45:40.000Z</time>
        <extensions>
          <ns3:TrackPointExtension>
            <ns3:hr>110</ns3:hr>
          </ns3:TrackPointExtension>
        </extensions>
      </trkpt>
      <trkpt lat="47.56722045131027698516845703125" lon="-3.05094343610107898712158203125">
        <ele>0.4000000059604644775390625</ele>
        <time>2026-08-15T16:45:41.000Z</time>
        <extensions>
          <ns3:TrackPointExtension>
            <ns3:hr>110</ns3:hr>
          </ns3:TrackPointExtension>
        </extensions>
      </trkpt>
      <trkpt lat="47.5672238878905773162841796875" lon="-3.0509398318827152252197265625">
        <ele>0.4000000059604644775390625</ele>
        <time>2026-08-15T16:45:42.000Z</time>
        <extensions>
          <ns3:TrackPointExtension>
            <ns3:hr>111</ns3:hr>
          </ns3:TrackPointExtension>
        </extensions>
      </trkpt>
      <trkpt lat="47.56722246296703815460205078125" lon="-3.05094092153012752532958984375">
        <ele>0</ele>
        <time>2026-08-15T16:45:43.000Z</time>
        <extensions>
          <ns3:TrackPointExtension>
            <ns3:hr>110</ns3:hr>
          </ns3:TrackPointExtension>
        </extensions>
      </trkpt>
      <trkpt lat="47.567221038043498992919921875" lon="-3.050939328968524932861328125">
        <ele>-0.20000000298023223876953125</ele>
        <time>2026-08-15T16:45:44.000Z</time>
        <extensions>
          <ns3:TrackPointExtension>
            <ns3:hr>109</ns3:hr>
          </ns3:TrackPointExtension>
        </extensions>
      </trkpt>
      <trkpt lat="47.56721743382513523101806640625" lon="-3.05094502866268157958984375">
        <ele>-0.20000000298023223876953125</ele>
        <time>2026-08-15T16:45:45.000Z</time>
        <extensions>
          <ns3:TrackPointExtension>
            <ns3:hr>109</ns3:hr>
          </ns3:TrackPointExtension>
        </extensions>
      </trkpt>
      <trkpt lat="47.56721542216837406158447265625" lon="-3.05093991570174694061279296875">
        <ele>-0.4000000059604644775390625</ele>
        <time>2026-08-15T16:45:46.000Z</time>
        <extensions>
          <ns3:TrackPointExtension>
            <ns3:hr>108</ns3:hr>
          </ns3:TrackPointExtension>
        </extensions>
      </trkpt>
      <trkpt lat="47.567210309207439422607421875" lon="-3.05093974806368350982666015625">
        <ele>-0.4000000059604644775390625</ele>
        <time>2026-08-15T16:45:47.000Z</time>
        <extensions>
          <ns3:TrackPointExtension>
            <ns3:hr>107</ns3:hr>
          </ns3:TrackPointExtension>
        </extensions>
      </trkpt>
      <trkpt lat="47.5671963952481746673583984375" lon="-3.0509344674646854400634765625">
        <ele>-0.4000000059604644775390625</ele>
        <time>2026-08-15T16:45:48.000Z</time>
        <extensions>
          <ns3:TrackPointExtension>
            <ns3:hr>106</ns3:hr>
          </ns3:TrackPointExtension>
        </extensions>
      </trkpt>
      <trkpt lat="47.5671891868114471435546875" lon="-3.0509431846439838409423828125">
        <ele>-0.20000000298023223876953125</ele>
        <time>2026-08-15T16:45:49.000Z</time>
        <extensions>
          <ns3:TrackPointExtension>
            <ns3:hr>105</ns3:hr>
          </ns3:TrackPointExtension>
        </extensions>
      </trkpt>
      <trkpt lat="47.56718583405017852783203125" lon="-3.05094377137720584869384765625">
        <ele>-0.20000000298023223876953125</ele>
        <time>2026-08-15T16:45:50.000Z</time>
        <extensions>
          <ns3:TrackPointExtension>
            <ns3:hr>105</ns3:hr>
          </ns3:TrackPointExtension>
        </extensions>
      </trkpt>
      <trkpt lat="47.56717233918607234954833984375" lon="-3.0509472079575061798095703125">
        <ele>0</ele>
        <time>2026-08-15T16:45:51.000Z</time>
        <extensions>
          <ns3:TrackPointExtension>
            <ns3:hr>105</ns3:hr>
          </ns3:TrackPointExtension>
        </extensions>
      </trkpt>
      <trkpt lat="47.5671595148742198944091796875" lon="-3.05095131509006023406982421875">
        <ele>0</ele>
        <time>2026-08-15T16:45:52.000Z</time>
        <extensions>
          <ns3:TrackPointExtension>
            <ns3:hr>105</ns3:hr>
          </ns3:TrackPointExtension>
        </extensions>
      </trkpt>
      <trkpt lat="47.5671430863440036773681640625" lon="-3.05095433257520198822021484375">
        <ele>0.20000000298023223876953125</ele>
        <time>2026-08-15T16:45:53.000Z</time>
        <extensions>
          <ns3:TrackPointExtension>
            <ns3:hr>105</ns3:hr>
          </ns3:TrackPointExtension>
        </extensions>
      </trkpt>
      <trkpt lat="47.5671202875673770904541015625" lon="-3.05095869116485118865966796875">
        <ele>0.20000000298023223876953125</ele>
        <time>2026-08-15T16:45:54.000Z</time>
        <extensions>
          <ns3:TrackPointExtension>
            <ns3:hr>106</ns3:hr>
          </ns3:TrackPointExtension>
        </extensions>
      </trkpt>
      <trkpt lat="47.56709489040076732635498046875" lon="-3.0509524047374725341796875">
        <ele>0.4000000059604644775390625</ele>
        <time>2026-08-15T16:45:55.000Z</time>
        <extensions>
          <ns3:TrackPointExtension>
            <ns3:hr>107</ns3:hr>
          </ns3:TrackPointExtension>
        </extensions>
      </trkpt>
      <trkpt lat="47.56707251071929931640625" lon="-3.05094427429139614105224609375">
        <ele>0.60000002384185791015625</ele>
        <time>2026-08-15T16:45:56.000Z</time>
        <extensions>
          <ns3:TrackPointExtension>
            <ns3:hr>108</ns3:hr>
          </ns3:TrackPointExtension>
        </extensions>
      </trkpt>
      <trkpt lat="47.567053735256195068359375" lon="-3.05095081217586994171142578125">
        <ele>0.60000002384185791015625</ele>
        <time>2026-08-15T16:45:57.000Z</time>
        <extensions>
          <ns3:TrackPointExtension>
            <ns3:hr>109</ns3:hr>
          </ns3:TrackPointExtension>
        </extensions>
      </trkpt>
      <trkpt lat="47.56703822873532772064208984375" lon="-3.05094779469072818756103515625">
        <ele>0.60000002384185791015625</ele>
        <time>2026-08-15T16:45:58.000Z</time>
        <extensions>
          <ns3:TrackPointExtension>
            <ns3:hr>109</ns3:hr>
          </ns3:TrackPointExtension>
        </extensions>
      </trkpt>
      <trkpt lat="47.56702280603349208831787109375" lon="-3.05094636976718902587890625">
        <ele>0.60000002384185791015625</ele>
        <time>2026-08-15T16:45:59.000Z</time>
        <extensions>
          <ns3:TrackPointExtension>
            <ns3:hr>110</ns3:hr>
          </ns3:TrackPointExtension>
        </extensions>
      </trkpt>
      <trkpt lat="47.56700989790260791778564453125" lon="-3.05095131509006023406982421875">
        <ele>0.60000002384185791015625</ele>
        <time>2026-08-15T16:46:00.000Z</time>
        <extensions>
          <ns3:TrackPointExtension>
            <ns3:hr>110</ns3:hr>
          </ns3:TrackPointExtension>
        </extensions>
      </trkpt>
      <trkpt lat="47.56699782796204090118408203125" lon="-3.0509529076516628265380859375">
        <ele>0.60000002384185791015625</ele>
        <time>2026-08-15T16:46:01.000Z</time>
        <extensions>
          <ns3:TrackPointExtension>
            <ns3:hr>110</ns3:hr>
          </ns3:TrackPointExtension>
        </extensions>
      </trkpt>
      <trkpt lat="47.56698559038341045379638671875" lon="-3.05095567367970943450927734375">
        <ele>0.60000002384185791015625</ele>
        <time>2026-08-15T16:46:02.000Z</time>
        <extensions>
          <ns3:TrackPointExtension>
            <ns3:hr>110</ns3:hr>
          </ns3:TrackPointExtension>
        </extensions>
      </trkpt>
      <trkpt lat="47.56697419099509716033935546875" lon="-3.0509562604129314422607421875">
        <ele>0.60000002384185791015625</ele>
        <time>2026-08-15T16:46:03.000Z</time>
        <extensions>
          <ns3:TrackPointExtension>
            <ns3:hr>110</ns3:hr>
          </ns3:TrackPointExtension>
        </extensions>
      </trkpt>
      <trkpt lat="47.56695960648357868194580078125" lon="-3.050955422222614288330078125">
        <ele>0.4000000059604644775390625</ele>
        <time>2026-08-15T16:46:04.000Z</time>
        <extensions>
          <ns3:TrackPointExtension>
            <ns3:hr>109</ns3:hr>
          </ns3:TrackPointExtension>
        </extensions>
      </trkpt>
      <trkpt lat="47.5669429264962673187255859375" lon="-3.05095399729907512664794921875">
        <ele>0.4000000059604644775390625</ele>
        <time>2026-08-15T16:46:05.000Z</time>
        <extensions>
          <ns3:TrackPointExtension>
            <ns3:hr>109</ns3:hr>
          </ns3:TrackPointExtension>
        </extensions>
      </trkpt>
      <trkpt lat="47.56692289374768733978271484375" lon="-3.0509550869464874267578125">
        <ele>0.4000000059604644775390625</ele>
        <time>2026-08-15T16:46:06.000Z</time>
        <extensions>
          <ns3:TrackPointExtension>
            <ns3:hr>109</ns3:hr>
          </ns3:TrackPointExtension>
        </extensions>
      </trkpt>
      <trkpt lat="47.56690780632197856903076171875" lon="-3.05095382966101169586181640625">
        <ele>0.60000002384185791015625</ele>
        <time>2026-08-15T16:46:07.000Z</time>
        <extensions>
          <ns3:TrackPointExtension>
            <ns3:hr>109</ns3:hr>
          </ns3:TrackPointExtension>
        </extensions>
      </trkpt>
      <trkpt lat="47.5668946467339992523193359375" lon="-3.05095667950809001922607421875">
        <ele>0.60000002384185791015625</ele>
        <time>2026-08-15T16:46:08.000Z</time>
        <extensions>
          <ns3:TrackPointExtension>
            <ns3:hr>109</ns3:hr>
          </ns3:TrackPointExtension>
        </extensions>
      </trkpt>
      <trkpt lat="47.566879056394100189208984375" lon="-3.0509606190025806427001953125">
        <ele>0.60000002384185791015625</ele>
        <time>2026-08-15T16:46:09.000Z</time>
        <extensions>
          <ns3:TrackPointExtension>
            <ns3:hr>109</ns3:hr>
          </ns3:TrackPointExtension>
        </extensions>
      </trkpt>
      <trkpt lat="47.566858939826488494873046875" lon="-3.05096271447837352752685546875">
        <ele>0.60000002384185791015625</ele>
        <time>2026-08-15T16:46:10.000Z</time>
        <extensions>
          <ns3:TrackPointExtension>
            <ns3:hr>109</ns3:hr>
          </ns3:TrackPointExtension>
        </extensions>
      </trkpt>
      <trkpt lat="47.5668383203446865081787109375" lon="-3.05096019990742206573486328125">
        <ele>0.4000000059604644775390625</ele>
        <time>2026-08-15T16:46:11.000Z</time>
        <extensions>
          <ns3:TrackPointExtension>
            <ns3:hr>109</ns3:hr>
          </ns3:TrackPointExtension>
        </extensions>
      </trkpt>
      <trkpt lat="47.56681325845420360565185546875" lon="-3.050951063632965087890625">
        <ele>0.20000000298023223876953125</ele>
        <time>2026-08-15T16:46:12.000Z</time>
        <extensions>
          <ns3:TrackPointExtension>
            <ns3:hr>109</ns3:hr>
          </ns3:TrackPointExtension>
        </extensions>
      </trkpt>
      <trkpt lat="47.5667850114405155181884765625" lon="-3.050937317311763763427734375">
        <ele>-0.20000000298023223876953125</ele>
        <time>2026-08-15T16:46:13.000Z</time>
        <extensions>
          <ns3:TrackPointExtension>
            <ns3:hr>110</ns3:hr>
          </ns3:TrackPointExtension>
        </extensions>
      </trkpt>
      <trkpt lat="47.5667501427233219146728515625" lon="-3.05092130787670612335205078125">
        <ele>-0.60000002384185791015625</ele>
        <time>2026-08-15T16:46:14.000Z</time>
        <extensions>
          <ns3:TrackPointExtension>
            <ns3:hr>111</ns3:hr>
          </ns3:TrackPointExtension>
        </extensions>
      </trkpt>
      <trkpt lat="47.56671108305454254150390625" lon="-3.050917871296405792236328125">
        <ele>-0.800000011920928955078125</ele>
        <time>2026-08-15T16:46:15.000Z</time>
        <extensions>
          <ns3:TrackPointExtension>
            <ns3:hr>111</ns3:hr>
          </ns3:TrackPointExtension>
        </extensions>
      </trkpt>
      <trkpt lat="47.566667161881923675537109375" lon="-3.0509304441511631011962890625">
        <ele>-0.4000000059604644775390625</ele>
        <time>2026-08-15T16:46:16.000Z</time>
        <extensions>
          <ns3:TrackPointExtension>
            <ns3:hr>110</ns3:hr>
          </ns3:TrackPointExtension>
        </extensions>
      </trkpt>
      <trkpt lat="47.56662047468125820159912109375" lon="-3.05093455128371715545654296875">
        <ele>0</ele>
        <time>2026-08-15T16:46:17.000Z</time>
        <extensions>
          <ns3:TrackPointExtension>
            <ns3:hr>110</ns3:hr>
          </ns3:TrackPointExtension>
        </extensions>
      </trkpt>
      <trkpt lat="47.56657253019511699676513671875" lon="-3.0509394966065883636474609375">
        <ele>0.60000002384185791015625</ele>
        <time>2026-08-15T16:46:18.000Z</time>
        <extensions>
          <ns3:TrackPointExtension>
            <ns3:hr>110</ns3:hr>
          </ns3:TrackPointExtension>
        </extensions>
      </trkpt>
      <trkpt lat="47.56651796400547027587890625" lon="-3.05096246302127838134765625">
        <ele>1</ele>
        <time>2026-08-15T16:46:19.000Z</time>
        <extensions>
          <ns3:TrackPointExtension>
            <ns3:hr>111</ns3:hr>
          </ns3:TrackPointExtension>
        </extensions>
      </trkpt>
      <trkpt lat="47.5664634816348552703857421875" lon="-3.0509874410927295684814453125">
        <ele>1.2000000476837158203125</ele>
        <time>2026-08-15T16:46:20.000Z</time>
        <extensions>
          <ns3:TrackPointExtension>
            <ns3:hr>112</ns3:hr>
          </ns3:TrackPointExtension>
        </extensions>
      </trkpt>
      <trkpt lat="47.5664034672081470489501953125" lon="-3.051007725298404693603515625">
        <ele>1.2000000476837158203125</ele>
        <time>2026-08-15T16:46:21.000Z</time>
        <extensions>
          <ns3:TrackPointExtension>
            <ns3:hr>112</ns3:hr>
          </ns3:TrackPointExtension>
        </extensions>
      </trkpt>
      <trkpt lat="47.5663461349904537200927734375" lon="-3.05102557875216007232666015625">
        <ele>1</ele>
        <time>2026-08-15T16:46:22.000Z</time>
        <extensions>
          <ns3:TrackPointExtension>
            <ns3:hr>112</ns3:hr>
          </ns3:TrackPointExtension>
        </extensions>
      </trkpt>
      <trkpt lat="47.56628653965890407562255859375" lon="-3.05104955099523067474365234375">
        <ele>0.800000011920928955078125</ele>
        <time>2026-08-15T16:46:23.000Z</time>
        <extensions>
          <ns3:TrackPointExtension>
            <ns3:hr>113</ns3:hr>
          </ns3:TrackPointExtension>
        </extensions>
      </trkpt>
      <trkpt lat="47.5662297941744327545166015625" lon="-3.051070757210254669189453125">
        <ele>1</ele>
        <time>2026-08-15T16:46:24.000Z</time>
        <extensions>
          <ns3:TrackPointExtension>
            <ns3:hr>114</ns3:hr>
          </ns3:TrackPointExtension>
        </extensions>
      </trkpt>
      <trkpt lat="47.566174976527690887451171875" lon="-3.051090873777866363525390625">
        <ele>1</ele>
        <time>2026-08-15T16:46:25.000Z</time>
        <extensions>
          <ns3:TrackPointExtension>
            <ns3:hr>115</ns3:hr>
          </ns3:TrackPointExtension>
        </extensions>
      </trkpt>
      <trkpt lat="47.56611253134906291961669921875" lon="-3.0511128343641757965087890625">
        <ele>1.39999997615814208984375</ele>
        <time>2026-08-15T16:46:26.000Z</time>
        <extensions>
          <ns3:TrackPointExtension>
            <ns3:hr>117</ns3:hr>
          </ns3:TrackPointExtension>
        </extensions>
      </trkpt>
      <trkpt lat="47.5660537742078304290771484375" lon="-3.051138818264007568359375">
        <ele>1.60000002384185791015625</ele>
        <time>2026-08-15T16:46:27.000Z</time>
        <extensions>
          <ns3:TrackPointExtension>
            <ns3:hr>118</ns3:hr>
          </ns3:TrackPointExtension>
        </extensions>
      </trkpt>
      <trkpt lat="47.56599551998078823089599609375" lon="-3.05116538889706134796142578125">
        <ele>1.60000002384185791015625</ele>
        <time>2026-08-15T16:46:28.000Z</time>
        <extensions>
          <ns3:TrackPointExtension>
            <ns3:hr>118</ns3:hr>
          </ns3:TrackPointExtension>
        </extensions>
      </trkpt>
      <trkpt lat="47.565928883850574493408203125" lon="-3.0511859245598316192626953125">
        <ele>1.60000002384185791015625</ele>
        <time>2026-08-15T16:46:29.000Z</time>
        <extensions>
          <ns3:TrackPointExtension>
            <ns3:hr>118</ns3:hr>
          </ns3:TrackPointExtension>
        </extensions>
      </trkpt>
      <trkpt lat="47.5658697076141834259033203125" lon="-3.0512107349932193756103515625">
        <ele>1.39999997615814208984375</ele>
        <time>2026-08-15T16:46:30.000Z</time>
        <extensions>
          <ns3:TrackPointExtension>
            <ns3:hr>118</ns3:hr>
          </ns3:TrackPointExtension>
        </extensions>
      </trkpt>
      <trkpt lat="47.56580826826393604278564453125" lon="-3.05124535225331783294677734375">
        <ele>1.39999997615814208984375</ele>
        <time>2026-08-15T16:46:31.000Z</time>
        <extensions>
          <ns3:TrackPointExtension>
            <ns3:hr>118</ns3:hr>
          </ns3:TrackPointExtension>
        </extensions>
      </trkpt>
      <trkpt lat="47.56574339233338832855224609375" lon="-3.0512834899127483367919921875">
        <ele>1.39999997615814208984375</ele>
        <time>2026-08-15T16:46:32.000Z</time>
        <extensions>
          <ns3:TrackPointExtension>
            <ns3:hr>119</ns3:hr>
          </ns3:TrackPointExtension>
        </extensions>
      </trkpt>
      <trkpt lat="47.5656849704682826995849609375" lon="-3.05132581852376461029052734375">
        <ele>1.60000002384185791015625</ele>
        <time>2026-08-15T16:46:33.000Z</time>
        <extensions>
          <ns3:TrackPointExtension>
            <ns3:hr>119</ns3:hr>
          </ns3:TrackPointExtension>
        </extensions>
      </trkpt>
      <trkpt lat="47.5656343437731266021728515625" lon="-3.05136554874479770660400390625">
        <ele>2</ele>
        <time>2026-08-15T16:46:34.000Z</time>
        <extensions>
          <ns3:TrackPointExtension>
            <ns3:hr>119</ns3:hr>
          </ns3:TrackPointExtension>
        </extensions>
      </trkpt>
      <trkpt lat="47.5655813701450824737548828125" lon="-3.05139295756816864013671875">
        <ele>2.7999999523162841796875</ele>
        <time>2026-08-15T16:46:35.000Z</time>
        <extensions>
          <ns3:TrackPointExtension>
            <ns3:hr>117</ns3:hr>
          </ns3:TrackPointExtension>
        </extensions>
      </trkpt>
      <trkpt lat="47.56552445702254772186279296875" lon="-3.0514219589531421661376953125">
        <ele>3</ele>
        <time>2026-08-15T16:46:36.000Z</time>
        <extensions>
          <ns3:TrackPointExtension>
            <ns3:hr>117</ns3:hr>
          </ns3:TrackPointExtension>
        </extensions>
      </trkpt>
      <trkpt lat="47.565465867519378662109375" lon="-3.0514501221477985382080078125">
        <ele>2.7999999523162841796875</ele>
        <time>2026-08-15T16:46:37.000Z</time>
        <extensions>
          <ns3:TrackPointExtension>
            <ns3:hr>118</ns3:hr>
          </ns3:TrackPointExtension>
        </extensions>
      </trkpt>
      <trkpt lat="47.56540727801620960235595703125" lon="-3.05148792453110218048095703125">
        <ele>2.599999904632568359375</ele>
        <time>2026-08-15T16:46:38.000Z</time>
        <extensions>
          <ns3:TrackPointExtension>
            <ns3:hr>119</ns3:hr>
          </ns3:TrackPointExtension>
        </extensions>
      </trkpt>
      <trkpt lat="47.56535061635076999664306640625" lon="-3.05152706801891326904296875">
        <ele>2</ele>
        <time>2026-08-15T16:46:39.000Z</time>
        <extensions>
          <ns3:TrackPointExtension>
            <ns3:hr>120</ns3:hr>
          </ns3:TrackPointExtension>
        </extensions>
      </trkpt>
      <trkpt lat="47.56529890000820159912109375" lon="-3.05156621150672435760498046875">
        <ele>1.60000002384185791015625</ele>
        <time>2026-08-15T16:46:40.000Z</time>
        <extensions>
          <ns3:TrackPointExtension>
            <ns3:hr>119</ns3:hr>
          </ns3:TrackPointExtension>
        </extensions>
      </trkpt>
      <trkpt lat="47.5652403943240642547607421875" lon="-3.05161113850772380828857421875">
        <ele>1.39999997615814208984375</ele>
        <time>2026-08-15T16:46:41.000Z</time>
        <extensions>
          <ns3:TrackPointExtension>
            <ns3:hr>116</ns3:hr>
          </ns3:TrackPointExtension>
        </extensions>
      </trkpt>
      <trkpt lat="47.56517996080219745635986328125" lon="-3.05165556259453296661376953125">
        <ele>1.39999997615814208984375</ele>
        <time>2026-08-15T16:46:42.000Z</time>
        <extensions>
          <ns3:TrackPointExtension>
            <ns3:hr>114</ns3:hr>
          </ns3:TrackPointExtension>
        </extensions>
      </trkpt>
      <trkpt lat="47.565117515623569488525390625" lon="-3.05170032195746898651123046875">
        <ele>1.39999997615814208984375</ele>
        <time>2026-08-15T16:46:43.000Z</time>
        <extensions>
          <ns3:TrackPointExtension>
            <ns3:hr>114</ns3:hr>
          </ns3:TrackPointExtension>
        </extensions>
      </trkpt>
      <trkpt lat="47.5650610215961933135986328125" lon="-3.05173770524561405181884765625">
        <ele>1.60000002384185791015625</ele>
        <time>2026-08-15T16:46:44.000Z</time>
        <extensions>
          <ns3:TrackPointExtension>
            <ns3:hr>115</ns3:hr>
          </ns3:TrackPointExtension>
        </extensions>
      </trkpt>
      <trkpt lat="47.5649964809417724609375" lon="-3.05177626200020313262939453125">
        <ele>1.7999999523162841796875</ele>
        <time>2026-08-15T16:46:45.000Z</time>
        <extensions>
          <ns3:TrackPointExtension>
            <ns3:hr>116</ns3:hr>
          </ns3:TrackPointExtension>
        </extensions>
      </trkpt>
      <trkpt lat="47.5649349577724933624267578125" lon="-3.051809705793857574462890625">
        <ele>1.7999999523162841796875</ele>
        <time>2026-08-15T16:46:46.000Z</time>
        <extensions>
          <ns3:TrackPointExtension>
            <ns3:hr>116</ns3:hr>
          </ns3:TrackPointExtension>
        </extensions>
      </trkpt>
      <trkpt lat="47.5648771226406097412109375" lon="-3.051847256720066070556640625">
        <ele>1.7999999523162841796875</ele>
        <time>2026-08-15T16:46:47.000Z</time>
        <extensions>
          <ns3:TrackPointExtension>
            <ns3:hr>116</ns3:hr>
          </ns3:TrackPointExtension>
        </extensions>
      </trkpt>
      <trkpt lat="47.564815096557140350341796875" lon="-3.05188338272273540496826171875">
        <ele>1.7999999523162841796875</ele>
        <time>2026-08-15T16:46:48.000Z</time>
        <extensions>
          <ns3:TrackPointExtension>
            <ns3:hr>117</ns3:hr>
          </ns3:TrackPointExtension>
        </extensions>
      </trkpt>
      <trkpt lat="47.56475307047367095947265625" lon="-3.05190936662256717681884765625">
        <ele>1.7999999523162841796875</ele>
        <time>2026-08-15T16:46:49.000Z</time>
        <extensions>
          <ns3:TrackPointExtension>
            <ns3:hr>117</ns3:hr>
          </ns3:TrackPointExtension>
        </extensions>
      </trkpt>
      <trkpt lat="47.56468894891440868377685546875" lon="-3.051935769617557525634765625">
        <ele>1.39999997615814208984375</ele>
        <time>2026-08-15T16:46:50.000Z</time>
        <extensions>
          <ns3:TrackPointExtension>
            <ns3:hr>117</ns3:hr>
          </ns3:TrackPointExtension>
        </extensions>
      </trkpt>
      <trkpt lat="47.56462407298386096954345703125" lon="-3.051965944468975067138671875">
        <ele>1.39999997615814208984375</ele>
        <time>2026-08-15T16:46:51.000Z</time>
        <extensions>
          <ns3:TrackPointExtension>
            <ns3:hr>116</ns3:hr>
          </ns3:TrackPointExtension>
        </extensions>
      </trkpt>
      <trkpt lat="47.56456137634813785552978515625" lon="-3.0520033277571201324462890625">
        <ele>1.39999997615814208984375</ele>
        <time>2026-08-15T16:46:52.000Z</time>
        <extensions>
          <ns3:TrackPointExtension>
            <ns3:hr>116</ns3:hr>
          </ns3:TrackPointExtension>
        </extensions>
      </trkpt>
      <trkpt lat="47.5645001046359539031982421875" lon="-3.05203844793140888214111328125">
        <ele>1.60000002384185791015625</ele>
        <time>2026-08-15T16:46:53.000Z</time>
        <extensions>
          <ns3:TrackPointExtension>
            <ns3:hr>116</ns3:hr>
          </ns3:TrackPointExtension>
        </extensions>
      </trkpt>
      <trkpt lat="47.5644400902092456817626953125" lon="-3.05207557976245880126953125">
        <ele>1.39999997615814208984375</ele>
        <time>2026-08-15T16:46:54.000Z</time>
        <extensions>
          <ns3:TrackPointExtension>
            <ns3:hr>117</ns3:hr>
          </ns3:TrackPointExtension>
        </extensions>
      </trkpt>
      <trkpt lat="47.5643810816109180450439453125" lon="-3.0521143041551113128662109375">
        <ele>1.39999997615814208984375</ele>
        <time>2026-08-15T16:46:55.000Z</time>
        <extensions>
          <ns3:TrackPointExtension>
            <ns3:hr>117</ns3:hr>
          </ns3:TrackPointExtension>
        </extensions>
      </trkpt>
      <trkpt lat="47.56432601250708103179931640625" lon="-3.0521635897457599639892578125">
        <ele>1.2000000476837158203125</ele>
        <time>2026-08-15T16:46:56.000Z</time>
        <extensions>
          <ns3:TrackPointExtension>
            <ns3:hr>117</ns3:hr>
          </ns3:TrackPointExtension>
        </extensions>
      </trkpt>
      <trkpt lat="47.5642761401832103729248046875" lon="-3.05221262387931346893310546875">
        <ele>1.2000000476837158203125</ele>
        <time>2026-08-15T16:46:57.000Z</time>
        <extensions>
          <ns3:TrackPointExtension>
            <ns3:hr>116</ns3:hr>
          </ns3:TrackPointExtension>
        </extensions>
      </trkpt>
      <trkpt lat="47.5642181374132633209228515625" lon="-3.0522601492702960968017578125">
        <ele>1.39999997615814208984375</ele>
        <time>2026-08-15T16:46:58.000Z</time>
        <extensions>
          <ns3:TrackPointExtension>
            <ns3:hr>117</ns3:hr>
          </ns3:TrackPointExtension>
        </extensions>
      </trkpt>
      <trkpt lat="47.5641582906246185302734375" lon="-3.05230884812772274017333984375">
        <ele>1.39999997615814208984375</ele>
        <time>2026-08-15T16:46:59.000Z</time>
        <extensions>
          <ns3:TrackPointExtension>
            <ns3:hr>124</ns3:hr>
          </ns3:TrackPointExtension>
        </extensions>
      </trkpt>
      <trkpt lat="47.56410087458789348602294921875" lon="-3.05234975181519985198974609375">
        <ele>1.39999997615814208984375</ele>
        <time>2026-08-15T16:47:00.000Z</time>
        <extensions>
          <ns3:TrackPointExtension>
            <ns3:hr>130</ns3:hr>
          </ns3:TrackPointExtension>
        </extensions>
      </trkpt>
      <trkpt lat="47.564035244286060333251953125" lon="-3.05238646455109119415283203125">
        <ele>1.7999999523162841796875</ele>
        <time>2026-08-15T16:47:01.000Z</time>
        <extensions>
          <ns3:TrackPointExtension>
            <ns3:hr>136</ns3:hr>
          </ns3:TrackPointExtension>
        </extensions>
      </trkpt>
      <trkpt lat="47.5639727152884006500244140625" lon="-3.05243097245693206787109375">
        <ele>2</ele>
        <time>2026-08-15T16:47:02.000Z</time>
        <extensions>
          <ns3:TrackPointExtension>
            <ns3:hr>139</ns3:hr>
          </ns3:TrackPointExtension>
        </extensions>
      </trkpt>
      <trkpt lat="47.56390909664332866668701171875" lon="-3.0524693615734577178955078125">
        <ele>1.60000002384185791015625</ele>
        <time>2026-08-15T16:47:03.000Z</time>
        <extensions>
          <ns3:TrackPointExtension>
            <ns3:hr>140</ns3:hr>
          </ns3:TrackPointExtension>
        </extensions>
      </trkpt>
      <trkpt lat="47.5638446398079395294189453125" lon="-3.052503056824207305908203125">
        <ele>1.7999999523162841796875</ele>
        <time>2026-08-15T16:47:04.000Z</time>
        <extensions>
          <ns3:TrackPointExtension>
            <ns3:hr>142</ns3:hr>
          </ns3:TrackPointExtension>
        </extensions>
      </trkpt>
      <trkpt lat="47.5637792609632015228271484375" lon="-3.05253884755074977874755859375">
        <ele>2</ele>
        <time>2026-08-15T16:47:05.000Z</time>
        <extensions>
          <ns3:TrackPointExtension>
            <ns3:hr>145</ns3:hr>
          </ns3:TrackPointExtension>
        </extensions>
      </trkpt>
      <trkpt lat="47.563716731965541839599609375" lon="-3.0525635741651058197021484375">
        <ele>2</ele>
        <time>2026-08-15T16:47:06.000Z</time>
        <extensions>
          <ns3:TrackPointExtension>
            <ns3:hr>146</ns3:hr>
          </ns3:TrackPointExtension>
        </extensions>
      </trkpt>
      <trkpt lat="47.56364674307405948638916015625" lon="-3.052594251930713653564453125">
        <ele>2</ele>
        <time>2026-08-15T16:47:07.000Z</time>
        <extensions>
          <ns3:TrackPointExtension>
            <ns3:hr>147</ns3:hr>
          </ns3:TrackPointExtension>
        </extensions>
      </trkpt>
      <trkpt lat="47.563584633171558380126953125" lon="-3.05263389833271503448486328125">
        <ele>2.400000095367431640625</ele>
        <time>2026-08-15T16:47:08.000Z</time>
        <extensions>
          <ns3:TrackPointExtension>
            <ns3:hr>146</ns3:hr>
          </ns3:TrackPointExtension>
        </extensions>
      </trkpt>
      <trkpt lat="47.5635170750319957733154296875" lon="-3.05266289971768856048583984375">
        <ele>2.400000095367431640625</ele>
        <time>2026-08-15T16:47:09.000Z</time>
        <extensions>
          <ns3:TrackPointExtension>
            <ns3:hr>146</ns3:hr>
          </ns3:TrackPointExtension>
        </extensions>
      </trkpt>
      <trkpt lat="47.56344960071146488189697265625" lon="-3.05269525386393070220947265625">
        <ele>2.400000095367431640625</ele>
        <time>2026-08-15T16:47:10.000Z</time>
        <extensions>
          <ns3:TrackPointExtension>
            <ns3:hr>146</ns3:hr>
          </ns3:TrackPointExtension>
        </extensions>
      </trkpt>
      <trkpt lat="47.5633879937231540679931640625" lon="-3.0527360737323760986328125">
        <ele>2.2000000476837158203125</ele>
        <time>2026-08-15T16:47:11.000Z</time>
        <extensions>
          <ns3:TrackPointExtension>
            <ns3:hr>146</ns3:hr>
          </ns3:TrackPointExtension>
        </extensions>
      </trkpt>
      <trkpt lat="47.56332957185804843902587890625" lon="-3.05277270264923572540283203125">
        <ele>2.2000000476837158203125</ele>
        <time>2026-08-15T16:47:12.000Z</time>
        <extensions>
          <ns3:TrackPointExtension>
            <ns3:hr>146</ns3:hr>
          </ns3:TrackPointExtension>
        </extensions>
      </trkpt>
      <trkpt lat="47.563271820545196533203125" lon="-3.05281293578445911407470703125">
        <ele>2</ele>
        <time>2026-08-15T16:47:13.000Z</time>
        <extensions>
          <ns3:TrackPointExtension>
            <ns3:hr>146</ns3:hr>
          </ns3:TrackPointExtension>
        </extensions>
      </trkpt>
      <trkpt lat="47.56321859546005725860595703125" lon="-3.05285819806158542633056640625">
        <ele>2.2000000476837158203125</ele>
        <time>2026-08-15T16:47:14.000Z</time>
        <extensions>
          <ns3:TrackPointExtension>
            <ns3:hr>146</ns3:hr>
          </ns3:TrackPointExtension>
        </extensions>
      </trkpt>
      <trkpt lat="47.56316495127975940704345703125" lon="-3.052893318235874176025390625">
        <ele>2</ele>
        <time>2026-08-15T16:47:15.000Z</time>
        <extensions>
          <ns3:TrackPointExtension>
            <ns3:hr>145</ns3:hr>
          </ns3:TrackPointExtension>
        </extensions>
      </trkpt>
      <trkpt lat="47.5631083734333515167236328125" lon="-3.05293329991400241851806640625">
        <ele>1.7999999523162841796875</ele>
        <time>2026-08-15T16:47:16.000Z</time>
        <extensions>
          <ns3:TrackPointExtension>
            <ns3:hr>145</ns3:hr>
          </ns3:TrackPointExtension>
        </extensions>
      </trkpt>
      <trkpt lat="47.5630507059395313262939453125" lon="-3.0529786460101604461669921875">
        <ele>2</ele>
        <time>2026-08-15T16:47:17.000Z</time>
        <extensions>
          <ns3:TrackPointExtension>
            <ns3:hr>145</ns3:hr>
          </ns3:TrackPointExtension>
        </extensions>
      </trkpt>
      <trkpt lat="47.56299077533185482025146484375" lon="-3.0530155263841152191162109375">
        <ele>1.7999999523162841796875</ele>
        <time>2026-08-15T16:47:18.000Z</time>
        <extensions>
          <ns3:TrackPointExtension>
            <ns3:hr>144</ns3:hr>
          </ns3:TrackPointExtension>
        </extensions>
      </trkpt>
      <trkpt lat="47.562928162515163421630859375" lon="-3.05305701680481433868408203125">
        <ele>1.7999999523162841796875</ele>
        <time>2026-08-15T16:47:19.000Z</time>
        <extensions>
          <ns3:TrackPointExtension>
            <ns3:hr>143</ns3:hr>
          </ns3:TrackPointExtension>
        </extensions>
      </trkpt>
      <trkpt lat="47.56286705844104290008544921875" lon="-3.05309305898845195770263671875">
        <ele>1.7999999523162841796875</ele>
        <time>2026-08-15T16:47:20.000Z</time>
        <extensions>
          <ns3:TrackPointExtension>
            <ns3:hr>143</ns3:hr>
          </ns3:TrackPointExtension>
        </extensions>
      </trkpt>
      <trkpt lat="47.56280251778662204742431640625" lon="-3.05313371121883392333984375">
        <ele>2.2000000476837158203125</ele>
        <time>2026-08-15T16:47:21.000Z</time>
        <extensions>
          <ns3:TrackPointExtension>
            <ns3:hr>142</ns3:hr>
          </ns3:TrackPointExtension>
        </extensions>
      </trkpt>
      <trkpt lat="47.56274786777794361114501953125" lon="-3.05317821912467479705810546875">
        <ele>2.400000095367431640625</ele>
        <time>2026-08-15T16:47:22.000Z</time>
        <extensions>
          <ns3:TrackPointExtension>
            <ns3:hr>142</ns3:hr>
          </ns3:TrackPointExtension>
        </extensions>
      </trkpt>
      <trkpt lat="47.562696151435375213623046875" lon="-3.05322918109595775604248046875">
        <ele>2.599999904632568359375</ele>
        <time>2026-08-15T16:47:23.000Z</time>
        <extensions>
          <ns3:TrackPointExtension>
            <ns3:hr>142</ns3:hr>
          </ns3:TrackPointExtension>
        </extensions>
      </trkpt>
      <trkpt lat="47.56265197880566120147705078125" lon="-3.05326974950730800628662109375">
        <ele>2.7999999523162841796875</ele>
        <time>2026-08-15T16:47:24.000Z</time>
        <extensions>
          <ns3:TrackPointExtension>
            <ns3:hr>142</ns3:hr>
          </ns3:TrackPointExtension>
        </extensions>
      </trkpt>
      <trkpt lat="47.5626078061759471893310546875" lon="-3.053311407566070556640625">
        <ele>2.7999999523162841796875</ele>
        <time>2026-08-15T16:47:25.000Z</time>
        <extensions>
          <ns3:TrackPointExtension>
            <ns3:hr>142</ns3:hr>
          </ns3:TrackPointExtension>
        </extensions>
      </trkpt>
      <trkpt lat="47.56256103515625" lon="-3.05334853939712047576904296875">
        <ele>2.400000095367431640625</ele>
        <time>2026-08-15T16:47:26.000Z</time>
        <extensions>
          <ns3:TrackPointExtension>
            <ns3:hr>141</ns3:hr>
          </ns3:TrackPointExtension>
        </extensions>
      </trkpt>
      <trkpt lat="47.56251250393688678741455078125" lon="-3.05338122881948947906494140625">
        <ele>2</ele>
        <time>2026-08-15T16:47:27.000Z</time>
        <extensions>
          <ns3:TrackPointExtension>
            <ns3:hr>141</ns3:hr>
          </ns3:TrackPointExtension>
        </extensions>
      </trkpt>
      <trkpt lat="47.5624606199562549591064453125" lon="-3.05341576226055622100830078125">
        <ele>1.7999999523162841796875</ele>
        <time>2026-08-15T16:47:28.000Z</time>
        <extensions>
          <ns3:TrackPointExtension>
            <ns3:hr>141</ns3:hr>
          </ns3:TrackPointExtension>
        </extensions>
      </trkpt>
      <trkpt lat="47.56240236572921276092529296875" lon="-3.05344493128359317779541015625">
        <ele>1.60000002384185791015625</ele>
        <time>2026-08-15T16:47:29.000Z</time>
        <extensions>
          <ns3:TrackPointExtension>
            <ns3:hr>141</ns3:hr>
          </ns3:TrackPointExtension>
        </extensions>
      </trkpt>
      <trkpt lat="47.5623479671776294708251953125" lon="-3.0534865893423557281494140625">
        <ele>1.7999999523162841796875</ele>
        <time>2026-08-15T16:47:30.000Z</time>
        <extensions>
          <ns3:TrackPointExtension>
            <ns3:hr>141</ns3:hr>
          </ns3:TrackPointExtension>
        </extensions>
      </trkpt>
      <trkpt lat="47.56229742430150508880615234375" lon="-3.0535338632762432098388671875">
        <ele>2</ele>
        <time>2026-08-15T16:47:31.000Z</time>
        <extensions>
          <ns3:TrackPointExtension>
            <ns3:hr>142</ns3:hr>
          </ns3:TrackPointExtension>
        </extensions>
      </trkpt>
      <trkpt lat="47.56224579177796840667724609375" lon="-3.053567223250865936279296875">
        <ele>1.7999999523162841796875</ele>
        <time>2026-08-15T16:47:32.000Z</time>
        <extensions>
          <ns3:TrackPointExtension>
            <ns3:hr>141</ns3:hr>
          </ns3:TrackPointExtension>
        </extensions>
      </trkpt>
      <trkpt lat="47.562187872827053070068359375" lon="-3.05360083468258380889892578125">
        <ele>1.7999999523162841796875</ele>
        <time>2026-08-15T16:47:33.000Z</time>
        <extensions>
          <ns3:TrackPointExtension>
            <ns3:hr>140</ns3:hr>
          </ns3:TrackPointExtension>
        </extensions>
      </trkpt>
      <trkpt lat="47.56212341599166393280029296875" lon="-3.053630925714969635009765625">
        <ele>1.7999999523162841796875</ele>
        <time>2026-08-15T16:47:34.000Z</time>
        <extensions>
          <ns3:TrackPointExtension>
            <ns3:hr>140</ns3:hr>
          </ns3:TrackPointExtension>
        </extensions>
      </trkpt>
      <trkpt lat="47.56206004880368709564208984375" lon="-3.053657077252864837646484375">
        <ele>1.7999999523162841796875</ele>
        <time>2026-08-15T16:47:35.000Z</time>
        <extensions>
          <ns3:TrackPointExtension>
            <ns3:hr>140</ns3:hr>
          </ns3:TrackPointExtension>
        </extensions>
      </trkpt>
      <trkpt lat="47.561994083225727081298828125" lon="-3.05369068868458271026611328125">
        <ele>1.7999999523162841796875</ele>
        <time>2026-08-15T16:47:36.000Z</time>
        <extensions>
          <ns3:TrackPointExtension>
            <ns3:hr>140</ns3:hr>
          </ns3:TrackPointExtension>
        </extensions>
      </trkpt>
      <trkpt lat="47.56193180568516254425048828125" lon="-3.05372706614434719085693359375">
        <ele>2.2000000476837158203125</ele>
        <time>2026-08-15T16:47:37.000Z</time>
        <extensions>
          <ns3:TrackPointExtension>
            <ns3:hr>140</ns3:hr>
          </ns3:TrackPointExtension>
        </extensions>
      </trkpt>
      <trkpt lat="47.56186810322105884552001953125" lon="-3.0537618510425090789794921875">
        <ele>2.599999904632568359375</ele>
        <time>2026-08-15T16:47:38.000Z</time>
        <extensions>
          <ns3:TrackPointExtension>
            <ns3:hr>140</ns3:hr>
          </ns3:TrackPointExtension>
        </extensions>
      </trkpt>
      <trkpt lat="47.56180398166179656982421875" lon="-3.053793869912624359130859375">
        <ele>3.2000000476837158203125</ele>
        <time>2026-08-15T16:47:39.000Z</time>
        <extensions>
          <ns3:TrackPointExtension>
            <ns3:hr>140</ns3:hr>
          </ns3:TrackPointExtension>
        </extensions>
      </trkpt>
      <trkpt lat="47.56174103356897830963134765625" lon="-3.05381943471729755401611328125">
        <ele>3.400000095367431640625</ele>
        <time>2026-08-15T16:47:40.000Z</time>
        <extensions>
          <ns3:TrackPointExtension>
            <ns3:hr>140</ns3:hr>
          </ns3:TrackPointExtension>
        </extensions>
      </trkpt>
      <trkpt lat="47.56167657673358917236328125" lon="-3.05383753962814807891845703125">
        <ele>3.400000095367431640625</ele>
        <time>2026-08-15T16:47:41.000Z</time>
        <extensions>
          <ns3:TrackPointExtension>
            <ns3:hr>140</ns3:hr>
          </ns3:TrackPointExtension>
        </extensions>
      </trkpt>
      <trkpt lat="47.56161010824143886566162109375" lon="-3.05384843610227108001708984375">
        <ele>2.599999904632568359375</ele>
        <time>2026-08-15T16:47:42.000Z</time>
        <extensions>
          <ns3:TrackPointExtension>
            <ns3:hr>140</ns3:hr>
          </ns3:TrackPointExtension>
        </extensions>
      </trkpt>
      <trkpt lat="47.5615433044731616973876953125" lon="-3.0538572371006011962890625">
        <ele>2.400000095367431640625</ele>
        <time>2026-08-15T16:47:43.000Z</time>
        <extensions>
          <ns3:TrackPointExtension>
            <ns3:hr>140</ns3:hr>
          </ns3:TrackPointExtension>
        </extensions>
      </trkpt>
      <trkpt lat="47.56147004663944244384765625" lon="-3.05386922322213649749755859375">
        <ele>2</ele>
        <time>2026-08-15T16:47:44.000Z</time>
        <extensions>
          <ns3:TrackPointExtension>
            <ns3:hr>140</ns3:hr>
          </ns3:TrackPointExtension>
        </extensions>
      </trkpt>
      <trkpt lat="47.56140475161373615264892578125" lon="-3.05388699285686016082763671875">
        <ele>1.7999999523162841796875</ele>
        <time>2026-08-15T16:47:45.000Z</time>
        <extensions>
          <ns3:TrackPointExtension>
            <ns3:hr>140</ns3:hr>
          </ns3:TrackPointExtension>
        </extensions>
      </trkpt>
      <trkpt lat="47.5613357685506343841552734375" lon="-3.05391113273799419403076171875">
        <ele>1.60000002384185791015625</ele>
        <time>2026-08-15T16:47:46.000Z</time>
        <extensions>
          <ns3:TrackPointExtension>
            <ns3:hr>140</ns3:hr>
          </ns3:TrackPointExtension>
        </extensions>
      </trkpt>
      <trkpt lat="47.56126963533461093902587890625" lon="-3.0539385415613651275634765625">
        <ele>1.7999999523162841796875</ele>
        <time>2026-08-15T16:47:47.000Z</time>
        <extensions>
          <ns3:TrackPointExtension>
            <ns3:hr>140</ns3:hr>
          </ns3:TrackPointExtension>
        </extensions>
      </trkpt>
      <trkpt lat="47.56121079437434673309326171875" lon="-3.0539724044501781463623046875">
        <ele>1.7999999523162841796875</ele>
        <time>2026-08-15T16:47:48.000Z</time>
        <extensions>
          <ns3:TrackPointExtension>
            <ns3:hr>140</ns3:hr>
          </ns3:TrackPointExtension>
        </extensions>
      </trkpt>
      <trkpt lat="47.56115698255598545074462890625" lon="-3.05400718934834003448486328125">
        <ele>1.60000002384185791015625</ele>
        <time>2026-08-15T16:47:49.000Z</time>
        <extensions>
          <ns3:TrackPointExtension>
            <ns3:hr>140</ns3:hr>
          </ns3:TrackPointExtension>
        </extensions>
      </trkpt>
      <trkpt lat="47.56110384128987789154052734375" lon="-3.0540288984775543212890625">
        <ele>1.39999997615814208984375</ele>
        <time>2026-08-15T16:47:50.000Z</time>
        <extensions>
          <ns3:TrackPointExtension>
            <ns3:hr>141</ns3:hr>
          </ns3:TrackPointExtension>
        </extensions>
      </trkpt>
      <trkpt lat="47.561044581234455108642578125" lon="-3.05405437946319580078125">
        <ele>1.7999999523162841796875</ele>
        <time>2026-08-15T16:47:51.000Z</time>
        <extensions>
          <ns3:TrackPointExtension>
            <ns3:hr>141</ns3:hr>
          </ns3:TrackPointExtension>
        </extensions>
      </trkpt>
      <trkpt lat="47.5609864108264446258544921875" lon="-3.05406720377504825592041015625">
        <ele>1.7999999523162841796875</ele>
        <time>2026-08-15T16:47:52.000Z</time>
        <extensions>
          <ns3:TrackPointExtension>
            <ns3:hr>141</ns3:hr>
          </ns3:TrackPointExtension>
        </extensions>
      </trkpt>
      <trkpt lat="47.5609290786087512969970703125" lon="-3.05407491512596607208251953125">
        <ele>1.39999997615814208984375</ele>
        <time>2026-08-15T16:47:53.000Z</time>
        <extensions>
          <ns3:TrackPointExtension>
            <ns3:hr>140</ns3:hr>
          </ns3:TrackPointExtension>
        </extensions>
      </trkpt>
      <trkpt lat="47.56086520850658416748046875" lon="-3.05408463813364505767822265625">
        <ele>1.60000002384185791015625</ele>
        <time>2026-08-15T16:47:54.000Z</time>
        <extensions>
          <ns3:TrackPointExtension>
            <ns3:hr>138</ns3:hr>
          </ns3:TrackPointExtension>
        </extensions>
      </trkpt>
      <trkpt lat="47.56080527789890766143798828125" lon="-3.05409838445484638214111328125">
        <ele>1.60000002384185791015625</ele>
        <time>2026-08-15T16:47:55.000Z</time>
        <extensions>
          <ns3:TrackPointExtension>
            <ns3:hr>135</ns3:hr>
          </ns3:TrackPointExtension>
        </extensions>
      </trkpt>
      <trkpt lat="47.56074207834899425506591796875" lon="-3.05412386544048786163330078125">
        <ele>1.60000002384185791015625</ele>
        <time>2026-08-15T16:47:56.000Z</time>
        <extensions>
          <ns3:TrackPointExtension>
            <ns3:hr>135</ns3:hr>
          </ns3:TrackPointExtension>
        </extensions>
      </trkpt>
      <trkpt lat="47.5606853328645229339599609375" lon="-3.0541469156742095947265625">
        <ele>1.60000002384185791015625</ele>
        <time>2026-08-15T16:47:57.000Z</time>
        <extensions>
          <ns3:TrackPointExtension>
            <ns3:hr>134</ns3:hr>
          </ns3:TrackPointExtension>
        </extensions>
      </trkpt>
      <trkpt lat="47.56062372587621212005615234375" lon="-3.05416661314666271209716796875">
        <ele>1.60000002384185791015625</ele>
        <time>2026-08-15T16:47:58.000Z</time>
        <extensions>
          <ns3:TrackPointExtension>
            <ns3:hr>134</ns3:hr>
          </ns3:TrackPointExtension>
        </extensions>
      </trkpt>
      <trkpt lat="47.56056404672563076019287109375" lon="-3.0541923455893993377685546875">
        <ele>1.60000002384185791015625</ele>
        <time>2026-08-15T16:47:59.000Z</time>
        <extensions>
          <ns3:TrackPointExtension>
            <ns3:hr>134</ns3:hr>
          </ns3:TrackPointExtension>
        </extensions>
      </trkpt>
      <trkpt lat="47.56050419993698596954345703125" lon="-3.0542201735079288482666015625">
        <ele>1.39999997615814208984375</ele>
        <time>2026-08-15T16:48:00.000Z</time>
        <extensions>
          <ns3:TrackPointExtension>
            <ns3:hr>134</ns3:hr>
          </ns3:TrackPointExtension>
        </extensions>
      </trkpt>
      <trkpt lat="47.5604449398815631866455078125" lon="-3.05423551239073276519775390625">
        <ele>1.2000000476837158203125</ele>
        <time>2026-08-15T16:48:01.000Z</time>
        <extensions>
          <ns3:TrackPointExtension>
            <ns3:hr>134</ns3:hr>
          </ns3:TrackPointExtension>
        </extensions>
      </trkpt>
      <trkpt lat="47.5603855960071086883544921875" lon="-3.0542392842471599578857421875">
        <ele>1.2000000476837158203125</ele>
        <time>2026-08-15T16:48:02.000Z</time>
        <extensions>
          <ns3:TrackPointExtension>
            <ns3:hr>134</ns3:hr>
          </ns3:TrackPointExtension>
        </extensions>
      </trkpt>
      <trkpt lat="47.56033102981746196746826171875" lon="-3.054232411086559295654296875">
        <ele>1.39999997615814208984375</ele>
        <time>2026-08-15T16:48:03.000Z</time>
        <extensions>
          <ns3:TrackPointExtension>
            <ns3:hr>134</ns3:hr>
          </ns3:TrackPointExtension>
        </extensions>
      </trkpt>
      <trkpt lat="47.56027244031429290771484375" lon="-3.05422796867787837982177734375">
        <ele>1.39999997615814208984375</ele>
        <time>2026-08-15T16:48:04.000Z</time>
        <extensions>
          <ns3:TrackPointExtension>
            <ns3:hr>133</ns3:hr>
          </ns3:TrackPointExtension>
        </extensions>
      </trkpt>
      <trkpt lat="47.5602132640779018402099609375" lon="-3.0542369373142719268798828125">
        <ele>1.2000000476837158203125</ele>
        <time>2026-08-15T16:48:05.000Z</time>
        <extensions>
          <ns3:TrackPointExtension>
            <ns3:hr>133</ns3:hr>
          </ns3:TrackPointExtension>
        </extensions>
      </trkpt>
      <trkpt lat="47.5601532496511936187744140625" lon="-3.05424624122679233551025390625">
        <ele>1.39999997615814208984375</ele>
        <time>2026-08-15T16:48:06.000Z</time>
        <extensions>
          <ns3:TrackPointExtension>
            <ns3:hr>133</ns3:hr>
          </ns3:TrackPointExtension>
        </extensions>
      </trkpt>
      <trkpt lat="47.56009331904351711273193359375" lon="-3.05425914935767650604248046875">
        <ele>1.39999997615814208984375</ele>
        <time>2026-08-15T16:48:07.000Z</time>
        <extensions>
          <ns3:TrackPointExtension>
            <ns3:hr>132</ns3:hr>
          </ns3:TrackPointExtension>
        </extensions>
      </trkpt>
      <trkpt lat="47.56002902984619140625" lon="-3.0542756617069244384765625">
        <ele>1.39999997615814208984375</ele>
        <time>2026-08-15T16:48:08.000Z</time>
        <extensions>
          <ns3:TrackPointExtension>
            <ns3:hr>134</ns3:hr>
          </ns3:TrackPointExtension>
        </extensions>
      </trkpt>
      <trkpt lat="47.559967003762722015380859375" lon="-3.0542882345616817474365234375">
        <ele>1.39999997615814208984375</ele>
        <time>2026-08-15T16:48:09.000Z</time>
        <extensions>
          <ns3:TrackPointExtension>
            <ns3:hr>135</ns3:hr>
          </ns3:TrackPointExtension>
        </extensions>
      </trkpt>
      <trkpt lat="47.559902966022491455078125" lon="-3.0542925931513309478759765625">
        <ele>1.39999997615814208984375</ele>
        <time>2026-08-15T16:48:10.000Z</time>
        <extensions>
          <ns3:TrackPointExtension>
            <ns3:hr>135</ns3:hr>
          </ns3:TrackPointExtension>
        </extensions>
      </trkpt>
      <trkpt lat="47.55984554998576641082763671875" lon="-3.054271973669528961181640625">
        <ele>1.2000000476837158203125</ele>
        <time>2026-08-15T16:48:11.000Z</time>
        <extensions>
          <ns3:TrackPointExtension>
            <ns3:hr>136</ns3:hr>
          </ns3:TrackPointExtension>
        </extensions>
      </trkpt>
      <trkpt lat="47.5597864575684070587158203125" lon="-3.05423383601009845733642578125">
        <ele>1</ele>
        <time>2026-08-15T16:48:12.000Z</time>
        <extensions>
          <ns3:TrackPointExtension>
            <ns3:hr>136</ns3:hr>
          </ns3:TrackPointExtension>
        </extensions>
      </trkpt>
      <trkpt lat="47.55973474122583866119384765625" lon="-3.0541849695146083831787109375">
        <ele>0.800000011920928955078125</ele>
        <time>2026-08-15T16:48:13.000Z</time>
        <extensions>
          <ns3:TrackPointExtension>
            <ns3:hr>133</ns3:hr>
          </ns3:TrackPointExtension>
        </extensions>
      </trkpt>
      <trkpt lat="47.55969040095806121826171875" lon="-3.0541308224201202392578125">
        <ele>0.60000002384185791015625</ele>
        <time>2026-08-15T16:48:14.000Z</time>
        <extensions>
          <ns3:TrackPointExtension>
            <ns3:hr>131</ns3:hr>
          </ns3:TrackPointExtension>
        </extensions>
      </trkpt>
      <trkpt lat="47.5596556998789310455322265625" lon="-3.05405907332897186279296875">
        <ele>0.60000002384185791015625</ele>
        <time>2026-08-15T16:48:15.000Z</time>
        <extensions>
          <ns3:TrackPointExtension>
            <ns3:hr>130</ns3:hr>
          </ns3:TrackPointExtension>
        </extensions>
      </trkpt>
      <trkpt lat="47.559643797576427459716796875" lon="-3.053989000618457794189453125">
        <ele>1</ele>
        <time>2026-08-15T16:48:16.000Z</time>
        <extensions>
          <ns3:TrackPointExtension>
            <ns3:hr>130</ns3:hr>
          </ns3:TrackPointExtension>
        </extensions>
      </trkpt>
      <trkpt lat="47.5596473179757595062255859375" lon="-3.05392068810760974884033203125">
        <ele>1.60000002384185791015625</ele>
        <time>2026-08-15T16:48:17.000Z</time>
        <extensions>
          <ns3:TrackPointExtension>
            <ns3:hr>129</ns3:hr>
          </ns3:TrackPointExtension>
        </extensions>
      </trkpt>
      <trkpt lat="47.55966768600046634674072265625" lon="-3.05385463871061801910400390625">
        <ele>2</ele>
        <time>2026-08-15T16:48:18.000Z</time>
        <extensions>
          <ns3:TrackPointExtension>
            <ns3:hr>129</ns3:hr>
          </ns3:TrackPointExtension>
        </extensions>
      </trkpt>
      <trkpt lat="47.5596919097006320953369140625" lon="-3.05379881523549556732177734375">
        <ele>2.400000095367431640625</ele>
        <time>2026-08-15T16:48:19.000Z</time>
        <extensions>
          <ns3:TrackPointExtension>
            <ns3:hr>129</ns3:hr>
          </ns3:TrackPointExtension>
        </extensions>
      </trkpt>
      <trkpt lat="47.55971546284854412078857421875" lon="-3.0537527985870838165283203125">
        <ele>3</ele>
        <time>2026-08-15T16:48:20.000Z</time>
        <extensions>
          <ns3:TrackPointExtension>
            <ns3:hr>129</ns3:hr>
          </ns3:TrackPointExtension>
        </extensions>
      </trkpt>
      <trkpt lat="47.5597328133881092071533203125" lon="-3.0537085421383380889892578125">
        <ele>3</ele>
        <time>2026-08-15T16:48:21.000Z</time>
        <extensions>
          <ns3:TrackPointExtension>
            <ns3:hr>129</ns3:hr>
          </ns3:TrackPointExtension>
        </extensions>
      </trkpt>
      <trkpt lat="47.559748403728008270263671875" lon="-3.05366436950862407684326171875">
        <ele>2.599999904632568359375</ele>
        <time>2026-08-15T16:48:22.000Z</time>
        <extensions>
          <ns3:TrackPointExtension>
            <ns3:hr>129</ns3:hr>
          </ns3:TrackPointExtension>
        </extensions>
      </trkpt>
      <trkpt lat="47.5597710348665714263916015625" lon="-3.0536294169723987579345703125">
        <ele>2.599999904632568359375</ele>
        <time>2026-08-15T16:48:23.000Z</time>
        <extensions>
          <ns3:TrackPointExtension>
            <ns3:hr>128</ns3:hr>
          </ns3:TrackPointExtension>
        </extensions>
      </trkpt>
      <trkpt lat="47.5597941689193248748779296875" lon="-3.05360318161547183990478515625">
        <ele>1.39999997615814208984375</ele>
        <time>2026-08-15T16:48:24.000Z</time>
        <extensions>
          <ns3:TrackPointExtension>
            <ns3:hr>128</ns3:hr>
          </ns3:TrackPointExtension>
        </extensions>
      </trkpt>
      <trkpt lat="47.55981353111565113067626953125" lon="-3.05358122102916240692138671875">
        <ele>0.4000000059604644775390625</ele>
        <time>2026-08-15T16:48:25.000Z</time>
        <extensions>
          <ns3:TrackPointExtension>
            <ns3:hr>128</ns3:hr>
          </ns3:TrackPointExtension>
        </extensions>
      </trkpt>
      <trkpt lat="47.55984370596706867218017578125" lon="-3.0535442568361759185791015625">
        <ele>-2</ele>
        <time>2026-08-15T16:48:27.000Z</time>
        <extensions>
          <ns3:TrackPointExtension>
            <ns3:hr>129</ns3:hr>
          </ns3:TrackPointExtension>
        </extensions>
      </trkpt>
      <trkpt lat="47.5598357431590557098388671875" lon="-3.0535335280001163482666015625">
        <ele>-3.2000000476837158203125</ele>
        <time>2026-08-15T16:48:28.000Z</time>
        <extensions>
          <ns3:TrackPointExtension>
            <ns3:hr>129</ns3:hr>
          </ns3:TrackPointExtension>
        </extensions>
      </trkpt>
      <trkpt lat="47.559827528893947601318359375" lon="-3.05353176780045032501220703125">
        <ele>-3.2000000476837158203125</ele>
        <time>2026-08-15T16:48:29.000Z</time>
        <extensions>
          <ns3:TrackPointExtension>
            <ns3:hr>129</ns3:hr>
          </ns3:TrackPointExtension>
        </extensions>
      </trkpt>
      <trkpt lat="47.55982845090329647064208984375" lon="-3.05352640338242053985595703125">
        <ele>-3.2000000476837158203125</ele>
        <time>2026-08-15T16:48:30.000Z</time>
        <extensions>
          <ns3:TrackPointExtension>
            <ns3:hr>130</ns3:hr>
          </ns3:TrackPointExtension>
        </extensions>
      </trkpt>
      <trkpt lat="47.5598251819610595703125" lon="-3.0535281635820865631103515625">
        <ele>-3.2000000476837158203125</ele>
        <time>2026-08-15T16:48:31.000Z</time>
        <extensions>
          <ns3:TrackPointExtension>
            <ns3:hr>129</ns3:hr>
          </ns3:TrackPointExtension>
        </extensions>
      </trkpt>
      <trkpt lat="47.55982182919979095458984375" lon="-3.0535621941089630126953125">
        <ele>-3.2000000476837158203125</ele>
        <time>2026-08-15T16:48:32.000Z</time>
        <extensions>
          <ns3:TrackPointExtension>
            <ns3:hr>129</ns3:hr>
          </ns3:TrackPointExtension>
        </extensions>
      </trkpt>
      <trkpt lat="47.559808082878589630126953125" lon="-3.05358524434268474578857421875">
        <ele>-3.2000000476837158203125</ele>
        <time>2026-08-15T16:48:33.000Z</time>
        <extensions>
          <ns3:TrackPointExtension>
            <ns3:hr>129</ns3:hr>
          </ns3:TrackPointExtension>
        </extensions>
      </trkpt>
      <trkpt lat="47.5598022155463695526123046875" lon="-3.05359077639877796173095703125">
        <ele>-3</ele>
        <time>2026-08-15T16:48:34.000Z</time>
        <extensions>
          <ns3:TrackPointExtension>
            <ns3:hr>129</ns3:hr>
          </ns3:TrackPointExtension>
        </extensions>
      </trkpt>
      <trkpt lat="47.5598018802702426910400390625" lon="-3.05359764955937862396240234375">
        <ele>-2.7999999523162841796875</ele>
        <time>2026-08-15T16:48:35.000Z</time>
        <extensions>
          <ns3:TrackPointExtension>
            <ns3:hr>128</ns3:hr>
          </ns3:TrackPointExtension>
        </extensions>
      </trkpt>
      <trkpt lat="47.55980649031698703765869140625" lon="-3.05359731428325176239013671875">
        <ele>-2.599999904632568359375</ele>
        <time>2026-08-15T16:48:36.000Z</time>
        <extensions>
          <ns3:TrackPointExtension>
            <ns3:hr>128</ns3:hr>
          </ns3:TrackPointExtension>
        </extensions>
      </trkpt>
      <trkpt lat="47.55980447866022586822509765625" lon="-3.05359010584652423858642578125">
        <ele>-2.400000095367431640625</ele>
        <time>2026-08-15T16:48:37.000Z</time>
        <extensions>
          <ns3:TrackPointExtension>
            <ns3:hr>128</ns3:hr>
          </ns3:TrackPointExtension>
        </extensions>
      </trkpt>
      <trkpt lat="47.55980699323117733001708984375" lon="-3.053584992885589599609375">
        <ele>-2</ele>
        <time>2026-08-15T16:48:38.000Z</time>
        <extensions>
          <ns3:TrackPointExtension>
            <ns3:hr>127</ns3:hr>
          </ns3:TrackPointExtension>
        </extensions>
      </trkpt>
      <trkpt lat="47.5598109327256679534912109375" lon="-3.05358004756271839141845703125">
        <ele>-1.7999999523162841796875</ele>
        <time>2026-08-15T16:48:39.000Z</time>
        <extensions>
          <ns3:TrackPointExtension>
            <ns3:hr>126</ns3:hr>
          </ns3:TrackPointExtension>
        </extensions>
      </trkpt>
      <trkpt lat="47.559802047908306121826171875" lon="-3.053576610982418060302734375">
        <ele>-1.39999997615814208984375</ele>
        <time>2026-08-15T16:48:40.000Z</time>
        <extensions>
          <ns3:TrackPointExtension>
            <ns3:hr>125</ns3:hr>
          </ns3:TrackPointExtension>
        </extensions>
      </trkpt>
      <trkpt lat="47.55979643203318119049072265625" lon="-3.053574599325656890869140625">
        <ele>-1</ele>
        <time>2026-08-15T16:48:41.000Z</time>
        <extensions>
          <ns3:TrackPointExtension>
            <ns3:hr>125</ns3:hr>
          </ns3:TrackPointExtension>
        </extensions>
      </trkpt>
      <trkpt lat="47.5597836077213287353515625" lon="-3.05358356796205043792724609375">
        <ele>-0.60000002384185791015625</ele>
        <time>2026-08-15T16:48:42.000Z</time>
        <extensions>
          <ns3:TrackPointExtension>
            <ns3:hr>124</ns3:hr>
          </ns3:TrackPointExtension>
        </extensions>
      </trkpt>
      <trkpt lat="47.55978134460747241973876953125" lon="-3.053574599325656890869140625">
        <ele>-0.4000000059604644775390625</ele>
        <time>2026-08-15T16:48:43.000Z</time>
        <extensions>
          <ns3:TrackPointExtension>
            <ns3:hr>124</ns3:hr>
          </ns3:TrackPointExtension>
        </extensions>
      </trkpt>
      <trkpt lat="47.55977463908493518829345703125" lon="-3.0535586737096309661865234375">
        <ele>0</ele>
        <time>2026-08-15T16:48:44.000Z</time>
        <extensions>
          <ns3:TrackPointExtension>
            <ns3:hr>124</ns3:hr>
          </ns3:TrackPointExtension>
        </extensions>
      </trkpt>
      <trkpt lat="47.5597713701426982879638671875" lon="-3.05354165844619274139404296875">
        <ele>0.4000000059604644775390625</ele>
        <time>2026-08-15T16:48:45.000Z</time>
        <extensions>
          <ns3:TrackPointExtension>
            <ns3:hr>124</ns3:hr>
          </ns3:TrackPointExtension>
        </extensions>
      </trkpt>
      <trkpt lat="47.55977128632366657257080078125" lon="-3.05354651995003223419189453125">
        <ele>1</ele>
        <time>2026-08-15T16:48:46.000Z</time>
        <extensions>
          <ns3:TrackPointExtension>
            <ns3:hr>124</ns3:hr>
          </ns3:TrackPointExtension>
        </extensions>
      </trkpt>
      <trkpt lat="47.55976877175271511077880859375" lon="-3.05354802869260311126708984375">
        <ele>1.2000000476837158203125</ele>
        <time>2026-08-15T16:48:47.000Z</time>
        <extensions>
          <ns3:TrackPointExtension>
            <ns3:hr>125</ns3:hr>
          </ns3:TrackPointExtension>
        </extensions>
      </trkpt>
      <trkpt lat="47.55976759828627109527587890625" lon="-3.053548447787761688232421875">
        <ele>1.39999997615814208984375</ele>
        <time>2026-08-15T16:48:48.000Z</time>
        <extensions>
          <ns3:TrackPointExtension>
            <ns3:hr>125</ns3:hr>
          </ns3:TrackPointExtension>
        </extensions>
      </trkpt>
      <trkpt lat="47.55977178923785686492919921875" lon="-3.053553141653537750244140625">
        <ele>1.60000002384185791015625</ele>
        <time>2026-08-15T16:48:49.000Z</time>
        <extensions>
          <ns3:TrackPointExtension>
            <ns3:hr>126</ns3:hr>
          </ns3:TrackPointExtension>
        </extensions>
      </trkpt>
      <trkpt lat="47.5597782433032989501953125" lon="-3.053564541041851043701171875">
        <ele>1.60000002384185791015625</ele>
        <time>2026-08-15T16:48:50.000Z</time>
        <extensions>
          <ns3:TrackPointExtension>
            <ns3:hr>126</ns3:hr>
          </ns3:TrackPointExtension>
        </extensions>
      </trkpt>
      <trkpt lat="47.55978293716907501220703125" lon="-3.05356915108859539031982421875">
        <ele>1.39999997615814208984375</ele>
        <time>2026-08-15T16:48:51.000Z</time>
        <extensions>
          <ns3:TrackPointExtension>
            <ns3:hr>126</ns3:hr>
          </ns3:TrackPointExtension>
        </extensions>
      </trkpt>
      <trkpt lat="47.55979207344353199005126953125" lon="-3.0535700730979442596435546875">
        <ele>1</ele>
        <time>2026-08-15T16:48:52.000Z</time>
        <extensions>
          <ns3:TrackPointExtension>
            <ns3:hr>126</ns3:hr>
          </ns3:TrackPointExtension>
        </extensions>
      </trkpt>
      <trkpt lat="47.559796012938022613525390625" lon="-3.05357317440211772918701171875">
        <ele>1</ele>
        <time>2026-08-15T16:48:53.000Z</time>
        <extensions>
          <ns3:TrackPointExtension>
            <ns3:hr>127</ns3:hr>
          </ns3:TrackPointExtension>
        </extensions>
      </trkpt>
      <trkpt lat="47.5597985275089740753173828125" lon="-3.05357367731630802154541015625">
        <ele>0.4000000059604644775390625</ele>
        <time>2026-08-15T16:48:54.000Z</time>
        <extensions>
          <ns3:TrackPointExtension>
            <ns3:hr>127</ns3:hr>
          </ns3:TrackPointExtension>
        </extensions>
      </trkpt>
      <trkpt lat="47.55980816669762134552001953125" lon="-3.05357434786856174468994140625">
        <ele>0.20000000298023223876953125</ele>
        <time>2026-08-15T16:48:55.000Z</time>
        <extensions>
          <ns3:TrackPointExtension>
            <ns3:hr>127</ns3:hr>
          </ns3:TrackPointExtension>
        </extensions>
      </trkpt>
      <trkpt lat="47.5598169676959514617919921875" lon="-3.05357091128826141357421875">
        <ele>0</ele>
        <time>2026-08-15T16:48:56.000Z</time>
        <extensions>
          <ns3:TrackPointExtension>
            <ns3:hr>126</ns3:hr>
          </ns3:TrackPointExtension>
        </extensions>
      </trkpt>
      <trkpt lat="47.5598238408565521240234375" lon="-3.05356814526021480560302734375">
        <ele>0</ele>
        <time>2026-08-15T16:48:57.000Z</time>
        <extensions>
          <ns3:TrackPointExtension>
            <ns3:hr>125</ns3:hr>
          </ns3:TrackPointExtension>
        </extensions>
      </trkpt>
      <trkpt lat="47.5598310492932796478271484375" lon="-3.05357334204018115997314453125">
        <ele>0.20000000298023223876953125</ele>
        <time>2026-08-15T16:48:58.000Z</time>
        <extensions>
          <ns3:TrackPointExtension>
            <ns3:hr>125</ns3:hr>
          </ns3:TrackPointExtension>
        </extensions>
      </trkpt>
      <trkpt lat="47.5598401017487049102783203125" lon="-3.05357401259243488311767578125">
        <ele>0.20000000298023223876953125</ele>
        <time>2026-08-15T16:48:59.000Z</time>
        <extensions>
          <ns3:TrackPointExtension>
            <ns3:hr>125</ns3:hr>
          </ns3:TrackPointExtension>
        </extensions>
      </trkpt>
      <trkpt lat="47.559855692088603973388671875" lon="-3.053566552698612213134765625">
        <ele>0.20000000298023223876953125</ele>
        <time>2026-08-15T16:49:00.000Z</time>
        <extensions>
          <ns3:TrackPointExtension>
            <ns3:hr>126</ns3:hr>
          </ns3:TrackPointExtension>
        </extensions>
      </trkpt>
      <trkpt lat="47.5598696060478687286376953125" lon="-3.053563199937343597412109375">
        <ele>0</ele>
        <time>2026-08-15T16:49:01.000Z</time>
        <extensions>
          <ns3:TrackPointExtension>
            <ns3:hr>125</ns3:hr>
          </ns3:TrackPointExtension>
        </extensions>
      </trkpt>
      <trkpt lat="47.5598880462348461151123046875" lon="-3.05355758406221866607666015625">
        <ele>0</ele>
        <time>2026-08-15T16:49:02.000Z</time>
        <extensions>
          <ns3:TrackPointExtension>
            <ns3:hr>124</ns3:hr>
          </ns3:TrackPointExtension>
        </extensions>
      </trkpt>
      <trkpt lat="47.5599074922502040863037109375" lon="-3.05355289019644260406494140625">
        <ele>0</ele>
        <time>2026-08-15T16:49:03.000Z</time>
        <extensions>
          <ns3:TrackPointExtension>
            <ns3:hr>121</ns3:hr>
          </ns3:TrackPointExtension>
        </extensions>
      </trkpt>
      <trkpt lat="47.559929452836513519287109375" lon="-3.0535338632762432098388671875">
        <ele>0.20000000298023223876953125</ele>
        <time>2026-08-15T16:49:04.000Z</time>
        <extensions>
          <ns3:TrackPointExtension>
            <ns3:hr>112</ns3:hr>
          </ns3:TrackPointExtension>
        </extensions>
      </trkpt>
      <trkpt lat="47.55995971150696277618408203125" lon="-3.0535125732421875">
        <ele>1.60000002384185791015625</ele>
        <time>2026-08-15T16:49:05.000Z</time>
        <extensions>
          <ns3:TrackPointExtension>
            <ns3:hr>104</ns3:hr>
          </ns3:TrackPointExtension>
        </extensions>
      </trkpt>
      <trkpt lat="47.55999508313834667205810546875" lon="-3.05350041948258876800537109375">
        <ele>4.400000095367431640625</ele>
        <time>2026-08-15T16:49:06.000Z</time>
        <extensions>
          <ns3:TrackPointExtension>
            <ns3:hr>97</ns3:hr>
          </ns3:TrackPointExtension>
        </extensions>
      </trkpt>
      <trkpt lat="47.5600405968725681304931640625" lon="-3.05350276641547679901123046875">
        <ele>6.599999904632568359375</ele>
        <time>2026-08-15T16:49:07.000Z</time>
        <extensions>
          <ns3:TrackPointExtension>
            <ns3:hr>95</ns3:hr>
          </ns3:TrackPointExtension>
        </extensions>
      </trkpt>
      <trkpt lat="47.56008393131196498870849609375" lon="-3.05351466871798038482666015625">
        <ele>8.19999980926513671875</ele>
        <time>2026-08-15T16:49:08.000Z</time>
        <extensions>
          <ns3:TrackPointExtension>
            <ns3:hr>92</ns3:hr>
          </ns3:TrackPointExtension>
        </extensions>
      </trkpt>
      <trkpt lat="47.56012382917106151580810546875" lon="-3.05352992378175258636474609375">
        <ele>9.19999980926513671875</ele>
        <time>2026-08-15T16:49:09.000Z</time>
        <extensions>
          <ns3:TrackPointExtension>
            <ns3:hr>86</ns3:hr>
          </ns3:TrackPointExtension>
        </extensions>
      </trkpt>
      <trkpt lat="47.56016037426888942718505859375" lon="-3.05353897623717784881591796875">
        <ele>9.80000019073486328125</ele>
        <time>2026-08-15T16:49:10.000Z</time>
        <extensions>
          <ns3:TrackPointExtension>
            <ns3:hr>83</ns3:hr>
          </ns3:TrackPointExtension>
        </extensions>
      </trkpt>
      <trkpt lat="47.560203373432159423828125" lon="-3.0535181052982807159423828125">
        <ele>10</ele>
        <time>2026-08-15T16:49:11.000Z</time>
        <extensions>
          <ns3:TrackPointExtension>
            <ns3:hr>80</ns3:hr>
          </ns3:TrackPointExtension>
        </extensions>
      </trkpt>
      <trkpt lat="47.56024519912898540496826171875" lon="-3.053499497473239898681640625">
        <ele>9.80000019073486328125</ele>
        <time>2026-08-15T16:49:12.000Z</time>
        <extensions>
          <ns3:TrackPointExtension>
            <ns3:hr>76</ns3:hr>
          </ns3:TrackPointExtension>
        </extensions>
      </trkpt>
      <trkpt lat="47.5602883659303188323974609375" lon="-3.0534902773797512054443359375">
        <ele>9.19999980926513671875</ele>
        <time>2026-08-15T16:49:13.000Z</time>
        <extensions>
          <ns3:TrackPointExtension>
            <ns3:hr>73</ns3:hr>
          </ns3:TrackPointExtension>
        </extensions>
      </trkpt>
      <trkpt lat="47.56033186800777912139892578125" lon="-3.05347728542983531951904296875">
        <ele>8.6000003814697265625</ele>
        <time>2026-08-15T16:49:14.000Z</time>
        <extensions>
          <ns3:TrackPointExtension>
            <ns3:hr>69</ns3:hr>
          </ns3:TrackPointExtension>
        </extensions>
      </trkpt>
      <trkpt lat="47.5603765435516834259033203125" lon="-3.05345884524285793304443359375">
        <ele>8.19999980926513671875</ele>
        <time>2026-08-15T16:49:15.000Z</time>
        <extensions>
          <ns3:TrackPointExtension>
            <ns3:hr>64</ns3:hr>
          </ns3:TrackPointExtension>
        </extensions>
      </trkpt>
      <trkpt lat="47.56042121909558773040771484375" lon="-3.05345230735838413238525390625">
        <ele>8.19999980926513671875</ele>
        <time>2026-08-15T16:49:16.000Z</time>
        <extensions>
          <ns3:TrackPointExtension>
            <ns3:hr>61</ns3:hr>
          </ns3:TrackPointExtension>
        </extensions>
      </trkpt>
      <trkpt lat="47.56046698428690433502197265625" lon="-3.05346488021314144134521484375">
        <ele>8.19999980926513671875</ele>
        <time>2026-08-15T16:49:17.000Z</time>
        <extensions>
          <ns3:TrackPointExtension>
            <ns3:hr>58</ns3:hr>
          </ns3:TrackPointExtension>
        </extensions>
      </trkpt>
      <trkpt lat="47.56050637923181056976318359375" lon="-3.05348801426589488983154296875">
        <ele>8.19999980926513671875</ele>
        <time>2026-08-15T16:49:18.000Z</time>
        <extensions>
          <ns3:TrackPointExtension>
            <ns3:hr>57</ns3:hr>
          </ns3:TrackPointExtension>
        </extensions>
      </trkpt>
      <trkpt lat="47.56054225377738475799560546875" lon="-3.05351500399410724639892578125">
        <ele>8.3999996185302734375</ele>
        <time>2026-08-15T16:49:19.000Z</time>
        <extensions>
          <ns3:TrackPointExtension>
            <ns3:hr>56</ns3:hr>
          </ns3:TrackPointExtension>
        </extensions>
      </trkpt>
      <trkpt lat="47.56058030761778354644775390625" lon="-3.05353931151330471038818359375">
        <ele>8.6000003814697265625</ele>
        <time>2026-08-15T16:49:20.000Z</time>
        <extensions>
          <ns3:TrackPointExtension>
            <ns3:hr>56</ns3:hr>
          </ns3:TrackPointExtension>
        </extensions>
      </trkpt>
      <trkpt lat="47.560615427792072296142578125" lon="-3.0535643734037876129150390625">
        <ele>8.80000019073486328125</ele>
        <time>2026-08-15T16:49:21.000Z</time>
        <extensions>
          <ns3:TrackPointExtension>
            <ns3:hr>57</ns3:hr>
          </ns3:TrackPointExtension>
        </extensions>
      </trkpt>
      <trkpt lat="47.56065272726118564605712890625" lon="-3.05358809418976306915283203125">
        <ele>8.80000019073486328125</ele>
        <time>2026-08-15T16:49:22.000Z</time>
        <extensions>
          <ns3:TrackPointExtension>
            <ns3:hr>56</ns3:hr>
          </ns3:TrackPointExtension>
        </extensions>
      </trkpt>
      <trkpt lat="47.5606896914541721343994140625" lon="-3.05361340753734111785888671875">
        <ele>8.3999996185302734375</ele>
        <time>2026-08-15T16:49:23.000Z</time>
        <extensions>
          <ns3:TrackPointExtension>
            <ns3:hr>56</ns3:hr>
          </ns3:TrackPointExtension>
        </extensions>
      </trkpt>
      <trkpt lat="47.56072799675166606903076171875" lon="-3.053628243505954742431640625">
        <ele>8.19999980926513671875</ele>
        <time>2026-08-15T16:49:24.000Z</time>
        <extensions>
          <ns3:TrackPointExtension>
            <ns3:hr>56</ns3:hr>
          </ns3:TrackPointExtension>
        </extensions>
      </trkpt>
      <trkpt lat="47.56076588295400142669677734375" lon="-3.05364240892231464385986328125">
        <ele>7.80000019073486328125</ele>
        <time>2026-08-15T16:49:25.000Z</time>
        <extensions>
          <ns3:TrackPointExtension>
            <ns3:hr>55</ns3:hr>
          </ns3:TrackPointExtension>
        </extensions>
      </trkpt>
      <trkpt lat="47.56080393679440021514892578125" lon="-3.05367015302181243896484375">
        <ele>7.599999904632568359375</ele>
        <time>2026-08-15T16:49:26.000Z</time>
        <extensions>
          <ns3:TrackPointExtension>
            <ns3:hr>55</ns3:hr>
          </ns3:TrackPointExtension>
        </extensions>
      </trkpt>
      <trkpt lat="47.5608449243009090423583984375" lon="-3.05370175279676914215087890625">
        <ele>7.400000095367431640625</ele>
        <time>2026-08-15T16:49:27.000Z</time>
        <extensions>
          <ns3:TrackPointExtension>
            <ns3:hr>54</ns3:hr>
          </ns3:TrackPointExtension>
        </extensions>
      </trkpt>
      <trkpt lat="47.560884654521942138671875" lon="-3.0537276528775691986083984375">
        <ele>7.599999904632568359375</ele>
        <time>2026-08-15T16:49:28.000Z</time>
        <extensions>
          <ns3:TrackPointExtension>
            <ns3:hr>54</ns3:hr>
          </ns3:TrackPointExtension>
        </extensions>
      </trkpt>
      <trkpt lat="47.5609217025339603424072265625" lon="-3.05376126430928707122802734375">
        <ele>7.599999904632568359375</ele>
        <time>2026-08-15T16:49:29.000Z</time>
        <extensions>
          <ns3:TrackPointExtension>
            <ns3:hr>54</ns3:hr>
          </ns3:TrackPointExtension>
        </extensions>
      </trkpt>
      <trkpt lat="47.56096671335399150848388671875" lon="-3.05379495956003665924072265625">
        <ele>7.400000095367431640625</ele>
        <time>2026-08-15T16:49:30.000Z</time>
        <extensions>
          <ns3:TrackPointExtension>
            <ns3:hr>54</ns3:hr>
          </ns3:TrackPointExtension>
        </extensions>
      </trkpt>
      <trkpt lat="47.5610066950321197509765625" lon="-3.05380283854901790618896484375">
        <ele>7.19999980926513671875</ele>
        <time>2026-08-15T16:49:31.000Z</time>
        <extensions>
          <ns3:TrackPointExtension>
            <ns3:hr>55</ns3:hr>
          </ns3:TrackPointExtension>
        </extensions>
      </trkpt>
      <trkpt lat="47.56104986183345317840576171875" lon="-3.05380350910127162933349609375">
        <ele>7</ele>
        <time>2026-08-15T16:49:32.000Z</time>
        <extensions>
          <ns3:TrackPointExtension>
            <ns3:hr>56</ns3:hr>
          </ns3:TrackPointExtension>
        </extensions>
      </trkpt>
      <trkpt lat="47.56109210662543773651123046875" lon="-3.0538051016628742218017578125">
        <ele>6.80000019073486328125</ele>
        <time>2026-08-15T16:49:33.000Z</time>
        <extensions>
          <ns3:TrackPointExtension>
            <ns3:hr>57</ns3:hr>
          </ns3:TrackPointExtension>
        </extensions>
      </trkpt>
      <trkpt lat="47.56113653071224689483642578125" lon="-3.05381306447088718414306640625">
        <ele>7</ele>
        <time>2026-08-15T16:49:34.000Z</time>
        <extensions>
          <ns3:TrackPointExtension>
            <ns3:hr>57</ns3:hr>
          </ns3:TrackPointExtension>
        </extensions>
      </trkpt>
      <trkpt lat="47.56117978133261203765869140625" lon="-3.05382379330694675445556640625">
        <ele>7.19999980926513671875</ele>
        <time>2026-08-15T16:49:35.000Z</time>
        <extensions>
          <ns3:TrackPointExtension>
            <ns3:hr>57</ns3:hr>
          </ns3:TrackPointExtension>
        </extensions>
      </trkpt>
      <trkpt lat="47.56122202612459659576416015625" lon="-3.05383301340043544769287109375">
        <ele>7.400000095367431640625</ele>
        <time>2026-08-15T16:49:36.000Z</time>
        <extensions>
          <ns3:TrackPointExtension>
            <ns3:hr>57</ns3:hr>
          </ns3:TrackPointExtension>
        </extensions>
      </trkpt>
      <trkpt lat="47.561259828507900238037109375" lon="-3.05383921600878238677978515625">
        <ele>7.400000095367431640625</ele>
        <time>2026-08-15T16:49:37.000Z</time>
        <extensions>
          <ns3:TrackPointExtension>
            <ns3:hr>57</ns3:hr>
          </ns3:TrackPointExtension>
        </extensions>
      </trkpt>
      <trkpt lat="47.56129972636699676513671875" lon="-3.0538305826485157012939453125">
        <ele>7</ele>
        <time>2026-08-15T16:49:38.000Z</time>
        <extensions>
          <ns3:TrackPointExtension>
            <ns3:hr>61</ns3:hr>
          </ns3:TrackPointExtension>
        </extensions>
      </trkpt>
      <trkpt lat="47.56133191287517547607421875" lon="-3.0537943728268146514892578125">
        <ele>6.599999904632568359375</ele>
        <time>2026-08-15T16:49:39.000Z</time>
        <extensions>
          <ns3:TrackPointExtension>
            <ns3:hr>90</ns3:hr>
          </ns3:TrackPointExtension>
        </extensions>
      </trkpt>
      <trkpt lat="47.5613669492304325103759765625" lon="-3.05376805365085601806640625">
        <ele>6.19999980926513671875</ele>
        <time>2026-08-15T16:49:40.000Z</time>
        <extensions>
          <ns3:TrackPointExtension>
            <ns3:hr>114</ns3:hr>
          </ns3:TrackPointExtension>
        </extensions>
      </trkpt>
      <trkpt lat="47.56140139885246753692626953125" lon="-3.05376444943249225616455078125">
        <ele>5.80000019073486328125</ele>
        <time>2026-08-15T16:49:41.000Z</time>
        <extensions>
          <ns3:TrackPointExtension>
            <ns3:hr>125</ns3:hr>
          </ns3:TrackPointExtension>
        </extensions>
      </trkpt>
      <trkpt lat="47.56143978796899318695068359375" lon="-3.053751625120639801025390625">
        <ele>5.80000019073486328125</ele>
        <time>2026-08-15T16:49:42.000Z</time>
        <extensions>
          <ns3:TrackPointExtension>
            <ns3:hr>132</ns3:hr>
          </ns3:TrackPointExtension>
        </extensions>
      </trkpt>
      <trkpt lat="47.5614819489419460296630859375" lon="-3.0537299998104572296142578125">
        <ele>6.19999980926513671875</ele>
        <time>2026-08-15T16:49:43.000Z</time>
        <extensions>
          <ns3:TrackPointExtension>
            <ns3:hr>136</ns3:hr>
          </ns3:TrackPointExtension>
        </extensions>
      </trkpt>
      <trkpt lat="47.56152159534394741058349609375" lon="-3.05373410694301128387451171875">
        <ele>6.599999904632568359375</ele>
        <time>2026-08-15T16:49:44.000Z</time>
        <extensions>
          <ns3:TrackPointExtension>
            <ns3:hr>137</ns3:hr>
          </ns3:TrackPointExtension>
        </extensions>
      </trkpt>
      <trkpt lat="47.56156534887850284576416015625" lon="-3.0537678860127925872802734375">
        <ele>7</ele>
        <time>2026-08-15T16:49:45.000Z</time>
        <extensions>
          <ns3:TrackPointExtension>
            <ns3:hr>137</ns3:hr>
          </ns3:TrackPointExtension>
        </extensions>
      </trkpt>
      <trkpt lat="47.56160088814795017242431640625" lon="-3.05380937643349170684814453125">
        <ele>6.80000019073486328125</ele>
        <time>2026-08-15T16:49:46.000Z</time>
        <extensions>
          <ns3:TrackPointExtension>
            <ns3:hr>137</ns3:hr>
          </ns3:TrackPointExtension>
        </extensions>
      </trkpt>
      <trkpt lat="47.56163978017866611480712890625" lon="-3.0538134835660457611083984375">
        <ele>6.400000095367431640625</ele>
        <time>2026-08-15T16:49:47.000Z</time>
        <extensions>
          <ns3:TrackPointExtension>
            <ns3:hr>137</ns3:hr>
          </ns3:TrackPointExtension>
        </extensions>
      </trkpt>
      <trkpt lat="47.5616767443716526031494140625" lon="-3.05377333424985408782958984375">
        <ele>5.80000019073486328125</ele>
        <time>2026-08-15T16:49:48.000Z</time>
        <extensions>
          <ns3:TrackPointExtension>
            <ns3:hr>137</ns3:hr>
          </ns3:TrackPointExtension>
        </extensions>
      </trkpt>
      <trkpt lat="47.56170683540403842926025390625" lon="-3.053724803030490875244140625">
        <ele>5.599999904632568359375</ele>
        <time>2026-08-15T16:49:49.000Z</time>
        <extensions>
          <ns3:TrackPointExtension>
            <ns3:hr>136</ns3:hr>
          </ns3:TrackPointExtension>
        </extensions>
      </trkpt>
      <trkpt lat="47.56174706853926181793212890625" lon="-3.0536963045597076416015625">
        <ele>5.599999904632568359375</ele>
        <time>2026-08-15T16:49:50.000Z</time>
        <extensions>
          <ns3:TrackPointExtension>
            <ns3:hr>136</ns3:hr>
          </ns3:TrackPointExtension>
        </extensions>
      </trkpt>
      <trkpt lat="47.56178210489451885223388671875" lon="-3.0537246353924274444580078125">
        <ele>5.80000019073486328125</ele>
        <time>2026-08-15T16:49:51.000Z</time>
        <extensions>
          <ns3:TrackPointExtension>
            <ns3:hr>136</ns3:hr>
          </ns3:TrackPointExtension>
        </extensions>
      </trkpt>
      <trkpt lat="47.56181747652590274810791015625" lon="-3.05375908501446247100830078125">
        <ele>6</ele>
        <time>2026-08-15T16:49:52.000Z</time>
        <extensions>
          <ns3:TrackPointExtension>
            <ns3:hr>136</ns3:hr>
          </ns3:TrackPointExtension>
        </extensions>
      </trkpt>
      <trkpt lat="47.5618507526814937591552734375" lon="-3.0537551455199718475341796875">
        <ele>6.400000095367431640625</ele>
        <time>2026-08-15T16:49:53.000Z</time>
        <extensions>
          <ns3:TrackPointExtension>
            <ns3:hr>136</ns3:hr>
          </ns3:TrackPointExtension>
        </extensions>
      </trkpt>
      <trkpt lat="47.5618919916450977325439453125" lon="-3.053750954568386077880859375">
        <ele>6.599999904632568359375</ele>
        <time>2026-08-15T16:49:54.000Z</time>
        <extensions>
          <ns3:TrackPointExtension>
            <ns3:hr>136</ns3:hr>
          </ns3:TrackPointExtension>
        </extensions>
      </trkpt>
      <trkpt lat="47.56193046458065509796142578125" lon="-3.053758330643177032470703125">
        <ele>6.599999904632568359375</ele>
        <time>2026-08-15T16:49:55.000Z</time>
        <extensions>
          <ns3:TrackPointExtension>
            <ns3:hr>135</ns3:hr>
          </ns3:TrackPointExtension>
        </extensions>
      </trkpt>
      <trkpt lat="47.5619684346020221710205078125" lon="-3.053769730031490325927734375">
        <ele>6.599999904632568359375</ele>
        <time>2026-08-15T16:49:56.000Z</time>
        <extensions>
          <ns3:TrackPointExtension>
            <ns3:hr>135</ns3:hr>
          </ns3:TrackPointExtension>
        </extensions>
      </trkpt>
      <trkpt lat="47.56201185286045074462890625" lon="-3.05379043333232402801513671875">
        <ele>7</ele>
        <time>2026-08-15T16:49:57.000Z</time>
        <extensions>
          <ns3:TrackPointExtension>
            <ns3:hr>135</ns3:hr>
          </ns3:TrackPointExtension>
        </extensions>
      </trkpt>
      <trkpt lat="47.562055103480815887451171875" lon="-3.0538185127079486846923828125">
        <ele>7.19999980926513671875</ele>
        <time>2026-08-15T16:49:58.000Z</time>
        <extensions>
          <ns3:TrackPointExtension>
            <ns3:hr>134</ns3:hr>
          </ns3:TrackPointExtension>
        </extensions>
      </trkpt>
      <trkpt lat="47.56209709681570529937744140625" lon="-3.05385631509125232696533203125">
        <ele>7.400000095367431640625</ele>
        <time>2026-08-15T16:49:59.000Z</time>
        <extensions>
          <ns3:TrackPointExtension>
            <ns3:hr>134</ns3:hr>
          </ns3:TrackPointExtension>
        </extensions>
      </trkpt>
      <trkpt lat="47.56213531829416751861572265625" lon="-3.05389621295034885406494140625">
        <ele>7.400000095367431640625</ele>
        <time>2026-08-15T16:50:00.000Z</time>
        <extensions>
          <ns3:TrackPointExtension>
            <ns3:hr>134</ns3:hr>
          </ns3:TrackPointExtension>
        </extensions>
      </trkpt>
      <trkpt lat="47.5621726177632808685302734375" lon="-3.05392018519341945648193359375">
        <ele>7</ele>
        <time>2026-08-15T16:50:01.000Z</time>
        <extensions>
          <ns3:TrackPointExtension>
            <ns3:hr>134</ns3:hr>
          </ns3:TrackPointExtension>
        </extensions>
      </trkpt>
      <trkpt lat="47.56221167743206024169921875" lon="-3.0539221130311489105224609375">
        <ele>6.400000095367431640625</ele>
        <time>2026-08-15T16:50:02.000Z</time>
        <extensions>
          <ns3:TrackPointExtension>
            <ns3:hr>134</ns3:hr>
          </ns3:TrackPointExtension>
        </extensions>
      </trkpt>
      <trkpt lat="47.5622463785111904144287109375" lon="-3.053915239870548248291015625">
        <ele>6.19999980926513671875</ele>
        <time>2026-08-15T16:50:03.000Z</time>
        <extensions>
          <ns3:TrackPointExtension>
            <ns3:hr>134</ns3:hr>
          </ns3:TrackPointExtension>
        </extensions>
      </trkpt>
      <trkpt lat="47.5622839294373989105224609375" lon="-3.053905181586742401123046875">
        <ele>5.599999904632568359375</ele>
        <time>2026-08-15T16:50:04.000Z</time>
        <extensions>
          <ns3:TrackPointExtension>
            <ns3:hr>134</ns3:hr>
          </ns3:TrackPointExtension>
        </extensions>
      </trkpt>
      <trkpt lat="47.562317289412021636962890625" lon="-3.05387861095368862152099609375">
        <ele>5.400000095367431640625</ele>
        <time>2026-08-15T16:50:05.000Z</time>
        <extensions>
          <ns3:TrackPointExtension>
            <ns3:hr>133</ns3:hr>
          </ns3:TrackPointExtension>
        </extensions>
      </trkpt>
      <trkpt lat="47.562352828681468963623046875" lon="-3.05386302061378955841064453125">
        <ele>5.599999904632568359375</ele>
        <time>2026-08-15T16:50:06.000Z</time>
        <extensions>
          <ns3:TrackPointExtension>
            <ns3:hr>133</ns3:hr>
          </ns3:TrackPointExtension>
        </extensions>
      </trkpt>
      <trkpt lat="47.56239281035959720611572265625" lon="-3.0538802035152912139892578125">
        <ele>5.599999904632568359375</ele>
        <time>2026-08-15T16:50:07.000Z</time>
        <extensions>
          <ns3:TrackPointExtension>
            <ns3:hr>132</ns3:hr>
          </ns3:TrackPointExtension>
        </extensions>
      </trkpt>
      <trkpt lat="47.5624223984777927398681640625" lon="-3.05391549132764339447021484375">
        <ele>5.19999980926513671875</ele>
        <time>2026-08-15T16:50:08.000Z</time>
        <extensions>
          <ns3:TrackPointExtension>
            <ns3:hr>132</ns3:hr>
          </ns3:TrackPointExtension>
        </extensions>
      </trkpt>
      <trkpt lat="47.5624519027769565582275390625" lon="-3.05390208028256893157958984375">
        <ele>5.19999980926513671875</ele>
        <time>2026-08-15T16:50:09.000Z</time>
        <extensions>
          <ns3:TrackPointExtension>
            <ns3:hr>132</ns3:hr>
          </ns3:TrackPointExtension>
        </extensions>
      </trkpt>
      <trkpt lat="47.56247998215258121490478515625" lon="-3.05385430343449115753173828125">
        <ele>5.19999980926513671875</ele>
        <time>2026-08-15T16:50:10.000Z</time>
        <extensions>
          <ns3:TrackPointExtension>
            <ns3:hr>132</ns3:hr>
          </ns3:TrackPointExtension>
        </extensions>
      </trkpt>
      <trkpt lat="47.5625156052410602569580078125" lon="-3.05382999591529369354248046875">
        <ele>5</ele>
        <time>2026-08-15T16:50:11.000Z</time>
        <extensions>
          <ns3:TrackPointExtension>
            <ns3:hr>132</ns3:hr>
          </ns3:TrackPointExtension>
        </extensions>
      </trkpt>
      <trkpt lat="47.5625628791749477386474609375" lon="-3.05384357459843158721923828125">
        <ele>4.80000019073486328125</ele>
        <time>2026-08-15T16:50:12.000Z</time>
        <extensions>
          <ns3:TrackPointExtension>
            <ns3:hr>132</ns3:hr>
          </ns3:TrackPointExtension>
        </extensions>
      </trkpt>
      <trkpt lat="47.5625994242727756500244140625" lon="-3.05385262705385684967041015625">
        <ele>4.80000019073486328125</ele>
        <time>2026-08-15T16:50:13.000Z</time>
        <extensions>
          <ns3:TrackPointExtension>
            <ns3:hr>132</ns3:hr>
          </ns3:TrackPointExtension>
        </extensions>
      </trkpt>
      <trkpt lat="47.5626267492771148681640625" lon="-3.05381474085152149200439453125">
        <ele>4.80000019073486328125</ele>
        <time>2026-08-15T16:50:14.000Z</time>
        <extensions>
          <ns3:TrackPointExtension>
            <ns3:hr>132</ns3:hr>
          </ns3:TrackPointExtension>
        </extensions>
      </trkpt>
      <trkpt lat="47.56264158524572849273681640625" lon="-3.0537544749677181243896484375">
        <ele>4.599999904632568359375</ele>
        <time>2026-08-15T16:50:15.000Z</time>
        <extensions>
          <ns3:TrackPointExtension>
            <ns3:hr>132</ns3:hr>
          </ns3:TrackPointExtension>
        </extensions>
      </trkpt>
      <trkpt lat="47.56266362965106964111328125" lon="-3.0537072010338306427001953125">
        <ele>4.80000019073486328125</ele>
        <time>2026-08-15T16:50:16.000Z</time>
        <extensions>
          <ns3:TrackPointExtension>
            <ns3:hr>131</ns3:hr>
          </ns3:TrackPointExtension>
        </extensions>
      </trkpt>
      <trkpt lat="47.5626964867115020751953125" lon="-3.05368758738040924072265625">
        <ele>5</ele>
        <time>2026-08-15T16:50:17.000Z</time>
        <extensions>
          <ns3:TrackPointExtension>
            <ns3:hr>132</ns3:hr>
          </ns3:TrackPointExtension>
        </extensions>
      </trkpt>
      <trkpt lat="47.56272791884839534759521484375" lon="-3.053702674806118011474609375">
        <ele>5.400000095367431640625</ele>
        <time>2026-08-15T16:50:18.000Z</time>
        <extensions>
          <ns3:TrackPointExtension>
            <ns3:hr>132</ns3:hr>
          </ns3:TrackPointExtension>
        </extensions>
      </trkpt>
      <trkpt lat="47.562767229974269866943359375" lon="-3.05372237227857112884521484375">
        <ele>6</ele>
        <time>2026-08-15T16:50:19.000Z</time>
        <extensions>
          <ns3:TrackPointExtension>
            <ns3:hr>131</ns3:hr>
          </ns3:TrackPointExtension>
        </extensions>
      </trkpt>
      <trkpt lat="47.56280134432017803192138671875" lon="-3.05375891737639904022216796875">
        <ele>6.599999904632568359375</ele>
        <time>2026-08-15T16:50:20.000Z</time>
        <extensions>
          <ns3:TrackPointExtension>
            <ns3:hr>132</ns3:hr>
          </ns3:TrackPointExtension>
        </extensions>
      </trkpt>
      <trkpt lat="47.56283135153353214263916015625" lon="-3.0537812970578670501708984375">
        <ele>7</ele>
        <time>2026-08-15T16:50:21.000Z</time>
        <extensions>
          <ns3:TrackPointExtension>
            <ns3:hr>132</ns3:hr>
          </ns3:TrackPointExtension>
        </extensions>
      </trkpt>
      <trkpt lat="47.5628689862787723541259765625" lon="-3.05380082689225673675537109375">
        <ele>7.19999980926513671875</ele>
        <time>2026-08-15T16:50:22.000Z</time>
        <extensions>
          <ns3:TrackPointExtension>
            <ns3:hr>131</ns3:hr>
          </ns3:TrackPointExtension>
        </extensions>
      </trkpt>
      <trkpt lat="47.56290393881499767303466796875" lon="-3.05382396094501018524169921875">
        <ele>7.19999980926513671875</ele>
        <time>2026-08-15T16:50:23.000Z</time>
        <extensions>
          <ns3:TrackPointExtension>
            <ns3:hr>132</ns3:hr>
          </ns3:TrackPointExtension>
        </extensions>
      </trkpt>
      <trkpt lat="47.56294190883636474609375" lon="-3.053840138018131256103515625">
        <ele>7.19999980926513671875</ele>
        <time>2026-08-15T16:50:24.000Z</time>
        <extensions>
          <ns3:TrackPointExtension>
            <ns3:hr>132</ns3:hr>
          </ns3:TrackPointExtension>
        </extensions>
      </trkpt>
      <trkpt lat="47.562983147799968719482421875" lon="-3.0538523755967617034912109375">
        <ele>7.19999980926513671875</ele>
        <time>2026-08-15T16:50:25.000Z</time>
        <extensions>
          <ns3:TrackPointExtension>
            <ns3:hr>132</ns3:hr>
          </ns3:TrackPointExtension>
        </extensions>
      </trkpt>
      <trkpt lat="47.56302966736257076263427734375" lon="-3.05385514162480831146240234375">
        <ele>7</ele>
        <time>2026-08-15T16:50:26.000Z</time>
        <extensions>
          <ns3:TrackPointExtension>
            <ns3:hr>131</ns3:hr>
          </ns3:TrackPointExtension>
        </extensions>
      </trkpt>
      <trkpt lat="47.56307794712483882904052734375" lon="-3.05386637337505817413330078125">
        <ele>6.80000019073486328125</ele>
        <time>2026-08-15T16:50:27.000Z</time>
        <extensions>
          <ns3:TrackPointExtension>
            <ns3:hr>132</ns3:hr>
          </ns3:TrackPointExtension>
        </extensions>
      </trkpt>
      <trkpt lat="47.56312924437224864959716796875" lon="-3.0538842268288135528564453125">
        <ele>6.80000019073486328125</ele>
        <time>2026-08-15T16:50:28.000Z</time>
        <extensions>
          <ns3:TrackPointExtension>
            <ns3:hr>132</ns3:hr>
          </ns3:TrackPointExtension>
        </extensions>
      </trkpt>
      <trkpt lat="47.563176937401294708251953125" lon="-3.05390224792063236236572265625">
        <ele>7.19999980926513671875</ele>
        <time>2026-08-15T16:50:29.000Z</time>
        <extensions>
          <ns3:TrackPointExtension>
            <ns3:hr>132</ns3:hr>
          </ns3:TrackPointExtension>
        </extensions>
      </trkpt>
      <trkpt lat="47.5632314197719097137451171875" lon="-3.053928315639495849609375">
        <ele>7.400000095367431640625</ele>
        <time>2026-08-15T16:50:30.000Z</time>
        <extensions>
          <ns3:TrackPointExtension>
            <ns3:hr>132</ns3:hr>
          </ns3:TrackPointExtension>
        </extensions>
      </trkpt>
      <trkpt lat="47.56328782998025417327880859375" lon="-3.05395471863448619842529296875">
        <ele>7.599999904632568359375</ele>
        <time>2026-08-15T16:50:31.000Z</time>
        <extensions>
          <ns3:TrackPointExtension>
            <ns3:hr>132</ns3:hr>
          </ns3:TrackPointExtension>
        </extensions>
      </trkpt>
      <trkpt lat="47.56335304118692874908447265625" lon="-3.05397483520209789276123046875">
        <ele>7.80000019073486328125</ele>
        <time>2026-08-15T16:50:32.000Z</time>
        <extensions>
          <ns3:TrackPointExtension>
            <ns3:hr>131</ns3:hr>
          </ns3:TrackPointExtension>
        </extensions>
      </trkpt>
      <trkpt lat="47.5634206831455230712890625" lon="-3.0539938621222972869873046875">
        <ele>8</ele>
        <time>2026-08-15T16:50:33.000Z</time>
        <extensions>
          <ns3:TrackPointExtension>
            <ns3:hr>131</ns3:hr>
          </ns3:TrackPointExtension>
        </extensions>
      </trkpt>
      <trkpt lat="47.5634721480309963226318359375" lon="-3.0540237016975879669189453125">
        <ele>8</ele>
        <time>2026-08-15T16:50:34.000Z</time>
        <extensions>
          <ns3:TrackPointExtension>
            <ns3:hr>131</ns3:hr>
          </ns3:TrackPointExtension>
        </extensions>
      </trkpt>
      <trkpt lat="47.56352193653583526611328125" lon="-3.0540619231760501861572265625">
        <ele>8.19999980926513671875</ele>
        <time>2026-08-15T16:50:35.000Z</time>
        <extensions>
          <ns3:TrackPointExtension>
            <ns3:hr>130</ns3:hr>
          </ns3:TrackPointExtension>
        </extensions>
      </trkpt>
      <trkpt lat="47.56357264705002307891845703125" lon="-3.0540860630571842193603515625">
        <ele>8.19999980926513671875</ele>
        <time>2026-08-15T16:50:36.000Z</time>
        <extensions>
          <ns3:TrackPointExtension>
            <ns3:hr>130</ns3:hr>
          </ns3:TrackPointExtension>
        </extensions>
      </trkpt>
      <trkpt lat="47.56361849606037139892578125" lon="-3.05410995148122310638427734375">
        <ele>8.19999980926513671875</ele>
        <time>2026-08-15T16:50:37.000Z</time>
        <extensions>
          <ns3:TrackPointExtension>
            <ns3:hr>130</ns3:hr>
          </ns3:TrackPointExtension>
        </extensions>
      </trkpt>
      <trkpt lat="47.56366367451846599578857421875" lon="-3.0541410483419895172119140625">
        <ele>7.80000019073486328125</ele>
        <time>2026-08-15T16:50:38.000Z</time>
        <extensions>
          <ns3:TrackPointExtension>
            <ns3:hr>130</ns3:hr>
          </ns3:TrackPointExtension>
        </extensions>
      </trkpt>
      <trkpt lat="47.563707344233989715576171875" lon="-3.05415621958673000335693359375">
        <ele>7.400000095367431640625</ele>
        <time>2026-08-15T16:50:39.000Z</time>
        <extensions>
          <ns3:TrackPointExtension>
            <ns3:hr>130</ns3:hr>
          </ns3:TrackPointExtension>
        </extensions>
      </trkpt>
      <trkpt lat="47.5637532770633697509765625" lon="-3.0541645176708698272705078125">
        <ele>7</ele>
        <time>2026-08-15T16:50:40.000Z</time>
        <extensions>
          <ns3:TrackPointExtension>
            <ns3:hr>130</ns3:hr>
          </ns3:TrackPointExtension>
        </extensions>
      </trkpt>
      <trkpt lat="47.56380214355885982513427734375" lon="-3.05417574942111968994140625">
        <ele>6.80000019073486328125</ele>
        <time>2026-08-15T16:50:41.000Z</time>
        <extensions>
          <ns3:TrackPointExtension>
            <ns3:hr>129</ns3:hr>
          </ns3:TrackPointExtension>
        </extensions>
      </trkpt>
      <trkpt lat="47.5638479925692081451416015625" lon="-3.05418253876268863677978515625">
        <ele>6.599999904632568359375</ele>
        <time>2026-08-15T16:50:42.000Z</time>
        <extensions>
          <ns3:TrackPointExtension>
            <ns3:hr>129</ns3:hr>
          </ns3:TrackPointExtension>
        </extensions>
      </trkpt>
      <trkpt lat="47.5639009661972522735595703125" lon="-3.0541812814772129058837890625">
        <ele>7</ele>
        <time>2026-08-15T16:50:43.000Z</time>
        <extensions>
          <ns3:TrackPointExtension>
            <ns3:hr>128</ns3:hr>
          </ns3:TrackPointExtension>
        </extensions>
      </trkpt>
      <trkpt lat="47.56396207027137279510498046875" lon="-3.05418555624783039093017578125">
        <ele>7.19999980926513671875</ele>
        <time>2026-08-15T16:50:44.000Z</time>
        <extensions>
          <ns3:TrackPointExtension>
            <ns3:hr>128</ns3:hr>
          </ns3:TrackPointExtension>
        </extensions>
      </trkpt>
      <trkpt lat="47.5640220008790493011474609375" lon="-3.05418538860976696014404296875">
        <ele>7.400000095367431640625</ele>
        <time>2026-08-15T16:50:45.000Z</time>
        <extensions>
          <ns3:TrackPointExtension>
            <ns3:hr>128</ns3:hr>
          </ns3:TrackPointExtension>
        </extensions>
      </trkpt>
      <trkpt lat="47.56408561952412128448486328125" lon="-3.0541978776454925537109375">
        <ele>7.599999904632568359375</ele>
        <time>2026-08-15T16:50:46.000Z</time>
        <extensions>
          <ns3:TrackPointExtension>
            <ns3:hr>127</ns3:hr>
          </ns3:TrackPointExtension>
        </extensions>
      </trkpt>
      <trkpt lat="47.5641520880162715911865234375" lon="-3.054209612309932708740234375">
        <ele>7.80000019073486328125</ele>
        <time>2026-08-15T16:50:47.000Z</time>
        <extensions>
          <ns3:TrackPointExtension>
            <ns3:hr>126</ns3:hr>
          </ns3:TrackPointExtension>
        </extensions>
      </trkpt>
      <trkpt lat="47.5642226636409759521484375" lon="-3.054214306175708770751953125">
        <ele>8</ele>
        <time>2026-08-15T16:50:48.000Z</time>
        <extensions>
          <ns3:TrackPointExtension>
            <ns3:hr>126</ns3:hr>
          </ns3:TrackPointExtension>
        </extensions>
      </trkpt>
      <trkpt lat="47.56428695283830165863037109375" lon="-3.05421908386051654815673828125">
        <ele>8</ele>
        <time>2026-08-15T16:50:49.000Z</time>
        <extensions>
          <ns3:TrackPointExtension>
            <ns3:hr>126</ns3:hr>
          </ns3:TrackPointExtension>
        </extensions>
      </trkpt>
      <trkpt lat="47.56435099057853221893310546875" lon="-3.05422998033463954925537109375">
        <ele>8.19999980926513671875</ele>
        <time>2026-08-15T16:50:50.000Z</time>
        <extensions>
          <ns3:TrackPointExtension>
            <ns3:hr>125</ns3:hr>
          </ns3:TrackPointExtension>
        </extensions>
      </trkpt>
      <trkpt lat="47.5644105859100818634033203125" lon="-3.0542456544935703277587890625">
        <ele>8.3999996185302734375</ele>
        <time>2026-08-15T16:50:51.000Z</time>
        <extensions>
          <ns3:TrackPointExtension>
            <ns3:hr>125</ns3:hr>
          </ns3:TrackPointExtension>
        </extensions>
      </trkpt>
      <trkpt lat="47.5644667446613311767578125" lon="-3.0542702972888946533203125">
        <ele>8.6000003814697265625</ele>
        <time>2026-08-15T16:50:52.000Z</time>
        <extensions>
          <ns3:TrackPointExtension>
            <ns3:hr>125</ns3:hr>
          </ns3:TrackPointExtension>
        </extensions>
      </trkpt>
      <trkpt lat="47.56452240049839019775390625" lon="-3.0542939342558383941650390625">
        <ele>8.80000019073486328125</ele>
        <time>2026-08-15T16:50:53.000Z</time>
        <extensions>
          <ns3:TrackPointExtension>
            <ns3:hr>125</ns3:hr>
          </ns3:TrackPointExtension>
        </extensions>
      </trkpt>
      <trkpt lat="47.5645788945257663726806640625" lon="-3.0543086864054203033447265625">
        <ele>8.6000003814697265625</ele>
        <time>2026-08-15T16:50:54.000Z</time>
        <extensions>
          <ns3:TrackPointExtension>
            <ns3:hr>124</ns3:hr>
          </ns3:TrackPointExtension>
        </extensions>
      </trkpt>
      <trkpt lat="47.5646325387060642242431640625" lon="-3.054324947297573089599609375">
        <ele>8.19999980926513671875</ele>
        <time>2026-08-15T16:50:55.000Z</time>
        <extensions>
          <ns3:TrackPointExtension>
            <ns3:hr>124</ns3:hr>
          </ns3:TrackPointExtension>
        </extensions>
      </trkpt>
      <trkpt lat="47.56468676961958408355712890625" lon="-3.05435000918805599212646484375">
        <ele>8</ele>
        <time>2026-08-15T16:50:56.000Z</time>
        <extensions>
          <ns3:TrackPointExtension>
            <ns3:hr>124</ns3:hr>
          </ns3:TrackPointExtension>
        </extensions>
      </trkpt>
      <trkpt lat="47.56473840214312076568603515625" lon="-3.0543744005262851715087890625">
        <ele>7.599999904632568359375</ele>
        <time>2026-08-15T16:50:57.000Z</time>
        <extensions>
          <ns3:TrackPointExtension>
            <ns3:hr>124</ns3:hr>
          </ns3:TrackPointExtension>
        </extensions>
      </trkpt>
      <trkpt lat="47.564794979989528656005859375" lon="-3.05439124815165996551513671875">
        <ele>7.400000095367431640625</ele>
        <time>2026-08-15T16:50:58.000Z</time>
        <extensions>
          <ns3:TrackPointExtension>
            <ns3:hr>124</ns3:hr>
          </ns3:TrackPointExtension>
        </extensions>
      </trkpt>
      <trkpt lat="47.56484854035079479217529296875" lon="-3.05440365336835384368896484375">
        <ele>7.400000095367431640625</ele>
        <time>2026-08-15T16:50:59.000Z</time>
        <extensions>
          <ns3:TrackPointExtension>
            <ns3:hr>124</ns3:hr>
          </ns3:TrackPointExtension>
        </extensions>
      </trkpt>
      <trkpt lat="47.5649039447307586669921875" lon="-3.0544226802885532379150390625">
        <ele>7.599999904632568359375</ele>
        <time>2026-08-15T16:51:00.000Z</time>
        <extensions>
          <ns3:TrackPointExtension>
            <ns3:hr>124</ns3:hr>
          </ns3:TrackPointExtension>
        </extensions>
      </trkpt>
      <trkpt lat="47.56495649926364421844482421875" lon="-3.05443885736167430877685546875">
        <ele>7.400000095367431640625</ele>
        <time>2026-08-15T16:51:01.000Z</time>
        <extensions>
          <ns3:TrackPointExtension>
            <ns3:hr>124</ns3:hr>
          </ns3:TrackPointExtension>
        </extensions>
      </trkpt>
      <trkpt lat="47.56501131691038608551025390625" lon="-3.0544508434832096099853515625">
        <ele>7.19999980926513671875</ele>
        <time>2026-08-15T16:51:02.000Z</time>
        <extensions>
          <ns3:TrackPointExtension>
            <ns3:hr>124</ns3:hr>
          </ns3:TrackPointExtension>
        </extensions>
      </trkpt>
      <trkpt lat="47.56506931968033313751220703125" lon="-3.054453022778034210205078125">
        <ele>7.19999980926513671875</ele>
        <time>2026-08-15T16:51:03.000Z</time>
        <extensions>
          <ns3:TrackPointExtension>
            <ns3:hr>124</ns3:hr>
          </ns3:TrackPointExtension>
        </extensions>
      </trkpt>
      <trkpt lat="47.5651238858699798583984375" lon="-3.0544541962444782257080078125">
        <ele>6.80000019073486328125</ele>
        <time>2026-08-15T16:51:04.000Z</time>
        <extensions>
          <ns3:TrackPointExtension>
            <ns3:hr>124</ns3:hr>
          </ns3:TrackPointExtension>
        </extensions>
      </trkpt>
      <trkpt lat="47.56518314592540264129638671875" lon="-3.0544501729309558868408203125">
        <ele>6.80000019073486328125</ele>
        <time>2026-08-15T16:51:05.000Z</time>
        <extensions>
          <ns3:TrackPointExtension>
            <ns3:hr>124</ns3:hr>
          </ns3:TrackPointExtension>
        </extensions>
      </trkpt>
      <trkpt lat="47.5652514584362506866455078125" lon="-3.05443433113396167755126953125">
        <ele>7</ele>
        <time>2026-08-15T16:51:06.000Z</time>
        <extensions>
          <ns3:TrackPointExtension>
            <ns3:hr>124</ns3:hr>
          </ns3:TrackPointExtension>
        </extensions>
      </trkpt>
      <trkpt lat="47.56530552171170711517333984375" lon="-3.0544163100421428680419921875">
        <ele>6.80000019073486328125</ele>
        <time>2026-08-15T16:51:07.000Z</time>
        <extensions>
          <ns3:TrackPointExtension>
            <ns3:hr>124</ns3:hr>
          </ns3:TrackPointExtension>
        </extensions>
      </trkpt>
      <trkpt lat="47.56535581313073635101318359375" lon="-3.054389990866184234619140625">
        <ele>6.599999904632568359375</ele>
        <time>2026-08-15T16:51:08.000Z</time>
        <extensions>
          <ns3:TrackPointExtension>
            <ns3:hr>124</ns3:hr>
          </ns3:TrackPointExtension>
        </extensions>
      </trkpt>
      <trkpt lat="47.565407194197177886962890625" lon="-3.0543425492942333221435546875">
        <ele>6.400000095367431640625</ele>
        <time>2026-08-15T16:51:09.000Z</time>
        <extensions>
          <ns3:TrackPointExtension>
            <ns3:hr>124</ns3:hr>
          </ns3:TrackPointExtension>
        </extensions>
      </trkpt>
      <trkpt lat="47.56545052863657474517822265625" lon="-3.054289408028125762939453125">
        <ele>6.19999980926513671875</ele>
        <time>2026-08-15T16:51:10.000Z</time>
        <extensions>
          <ns3:TrackPointExtension>
            <ns3:hr>124</ns3:hr>
          </ns3:TrackPointExtension>
        </extensions>
      </trkpt>
      <trkpt lat="47.5654884986579418182373046875" lon="-3.0542349256575107574462890625">
        <ele>5.80000019073486328125</ele>
        <time>2026-08-15T16:51:11.000Z</time>
        <extensions>
          <ns3:TrackPointExtension>
            <ns3:hr>124</ns3:hr>
          </ns3:TrackPointExtension>
        </extensions>
      </trkpt>
      <trkpt lat="47.56553183309733867645263671875" lon="-3.05417600087821483612060546875">
        <ele>5.599999904632568359375</ele>
        <time>2026-08-15T16:51:12.000Z</time>
        <extensions>
          <ns3:TrackPointExtension>
            <ns3:hr>124</ns3:hr>
          </ns3:TrackPointExtension>
        </extensions>
      </trkpt>
      <trkpt lat="47.56555161438882350921630859375" lon="-3.054106347262859344482421875">
        <ele>5.599999904632568359375</ele>
        <time>2026-08-15T16:51:13.000Z</time>
        <extensions>
          <ns3:TrackPointExtension>
            <ns3:hr>124</ns3:hr>
          </ns3:TrackPointExtension>
        </extensions>
      </trkpt>
      <trkpt lat="47.565560750663280487060546875" lon="-3.05402965284883975982666015625">
        <ele>5.80000019073486328125</ele>
        <time>2026-08-15T16:51:14.000Z</time>
        <extensions>
          <ns3:TrackPointExtension>
            <ns3:hr>124</ns3:hr>
          </ns3:TrackPointExtension>
        </extensions>
      </trkpt>
      <trkpt lat="47.5655686296522617340087890625" lon="-3.05396662093698978424072265625">
        <ele>5.80000019073486328125</ele>
        <time>2026-08-15T16:51:15.000Z</time>
        <extensions>
          <ns3:TrackPointExtension>
            <ns3:hr>125</ns3:hr>
          </ns3:TrackPointExtension>
        </extensions>
      </trkpt>
      <trkpt lat="47.565553374588489532470703125" lon="-3.053915239870548248291015625">
        <ele>5.80000019073486328125</ele>
        <time>2026-08-15T16:51:16.000Z</time>
        <extensions>
          <ns3:TrackPointExtension>
            <ns3:hr>126</ns3:hr>
          </ns3:TrackPointExtension>
        </extensions>
      </trkpt>
      <trkpt lat="47.56551741622388362884521484375" lon="-3.053893111646175384521484375">
        <ele>4.19999980926513671875</ele>
        <time>2026-08-15T16:51:17.000Z</time>
        <extensions>
          <ns3:TrackPointExtension>
            <ns3:hr>126</ns3:hr>
          </ns3:TrackPointExtension>
        </extensions>
      </trkpt>
      <trkpt lat="47.56547584198415279388427734375" lon="-3.05388380773365497589111328125">
        <ele>2</ele>
        <time>2026-08-15T16:51:18.000Z</time>
        <extensions>
          <ns3:TrackPointExtension>
            <ns3:hr>126</ns3:hr>
          </ns3:TrackPointExtension>
        </extensions>
      </trkpt>
      <trkpt lat="47.56543879397213459014892578125" lon="-3.0538734979927539825439453125">
        <ele>0.20000000298023223876953125</ele>
        <time>2026-08-15T16:51:19.000Z</time>
        <extensions>
          <ns3:TrackPointExtension>
            <ns3:hr>126</ns3:hr>
          </ns3:TrackPointExtension>
        </extensions>
      </trkpt>
      <trkpt lat="47.56539738737046718597412109375" lon="-3.05385815910995006561279296875">
        <ele>0.20000000298023223876953125</ele>
        <time>2026-08-15T16:51:20.000Z</time>
        <extensions>
          <ns3:TrackPointExtension>
            <ns3:hr>126</ns3:hr>
          </ns3:TrackPointExtension>
        </extensions>
      </trkpt>
      <trkpt lat="47.56535388529300689697265625" lon="-3.053845502436161041259765625">
        <ele>0</ele>
        <time>2026-08-15T16:51:21.000Z</time>
        <extensions>
          <ns3:TrackPointExtension>
            <ns3:hr>127</ns3:hr>
          </ns3:TrackPointExtension>
        </extensions>
      </trkpt>
      <trkpt lat="47.56531298160552978515625" lon="-3.0538366176187992095947265625">
        <ele>-0.20000000298023223876953125</ele>
        <time>2026-08-15T16:51:22.000Z</time>
        <extensions>
          <ns3:TrackPointExtension>
            <ns3:hr>127</ns3:hr>
          </ns3:TrackPointExtension>
        </extensions>
      </trkpt>
      <trkpt lat="47.5652658753097057342529296875" lon="-3.05382513441145420074462890625">
        <ele>-0.20000000298023223876953125</ele>
        <time>2026-08-15T16:51:23.000Z</time>
        <extensions>
          <ns3:TrackPointExtension>
            <ns3:hr>127</ns3:hr>
          </ns3:TrackPointExtension>
        </extensions>
      </trkpt>
      <trkpt lat="47.56520896218717098236083984375" lon="-3.0538118071854114532470703125">
        <ele>-0.20000000298023223876953125</ele>
        <time>2026-08-15T16:51:24.000Z</time>
        <extensions>
          <ns3:TrackPointExtension>
            <ns3:hr>128</ns3:hr>
          </ns3:TrackPointExtension>
        </extensions>
      </trkpt>
      <trkpt lat="47.565166465938091278076171875" lon="-3.0538004077970981597900390625">
        <ele>-0.60000002384185791015625</ele>
        <time>2026-08-15T16:51:25.000Z</time>
        <extensions>
          <ns3:TrackPointExtension>
            <ns3:hr>128</ns3:hr>
          </ns3:TrackPointExtension>
        </extensions>
      </trkpt>
      <trkpt lat="47.565124221146106719970703125" lon="-3.0538067780435085296630859375">
        <ele>-0.800000011920928955078125</ele>
        <time>2026-08-15T16:51:26.000Z</time>
        <extensions>
          <ns3:TrackPointExtension>
            <ns3:hr>137</ns3:hr>
          </ns3:TrackPointExtension>
        </extensions>
      </trkpt>
      <trkpt lat="47.56508289836347103118896484375" lon="-3.05380971170961856842041015625">
        <ele>-1.2000000476837158203125</ele>
        <time>2026-08-15T16:51:27.000Z</time>
        <extensions>
          <ns3:TrackPointExtension>
            <ns3:hr>138</ns3:hr>
          </ns3:TrackPointExtension>
        </extensions>
      </trkpt>
      <trkpt lat="47.565035037696361541748046875" lon="-3.05380652658641338348388671875">
        <ele>-1.2000000476837158203125</ele>
        <time>2026-08-15T16:51:28.000Z</time>
        <extensions>
          <ns3:TrackPointExtension>
            <ns3:hr>139</ns3:hr>
          </ns3:TrackPointExtension>
        </extensions>
      </trkpt>
      <trkpt lat="47.56498348899185657501220703125" lon="-3.05382664315402507781982421875">
        <ele>-0.800000011920928955078125</ele>
        <time>2026-08-15T16:51:29.000Z</time>
        <extensions>
          <ns3:TrackPointExtension>
            <ns3:hr>139</ns3:hr>
          </ns3:TrackPointExtension>
        </extensions>
      </trkpt>
      <trkpt lat="47.564925737679004669189453125" lon="-3.05385279469192028045654296875">
        <ele>-0.4000000059604644775390625</ele>
        <time>2026-08-15T16:51:30.000Z</time>
        <extensions>
          <ns3:TrackPointExtension>
            <ns3:hr>140</ns3:hr>
          </ns3:TrackPointExtension>
        </extensions>
      </trkpt>
      <trkpt lat="47.5648772902786731719970703125" lon="-3.05387358181178569793701171875">
        <ele>-0.20000000298023223876953125</ele>
        <time>2026-08-15T16:51:31.000Z</time>
        <extensions>
          <ns3:TrackPointExtension>
            <ns3:hr>140</ns3:hr>
          </ns3:TrackPointExtension>
        </extensions>
      </trkpt>
      <trkpt lat="47.56482607685029506683349609375" lon="-3.05389411747455596923828125">
        <ele>0</ele>
        <time>2026-08-15T16:51:32.000Z</time>
        <extensions>
          <ns3:TrackPointExtension>
            <ns3:hr>140</ns3:hr>
          </ns3:TrackPointExtension>
        </extensions>
      </trkpt>
      <trkpt lat="47.5647706724703311920166015625" lon="-3.053920604288578033447265625">
        <ele>0.20000000298023223876953125</ele>
        <time>2026-08-15T16:51:33.000Z</time>
        <extensions>
          <ns3:TrackPointExtension>
            <ns3:hr>141</ns3:hr>
          </ns3:TrackPointExtension>
        </extensions>
      </trkpt>
      <trkpt lat="47.56471275351941585540771484375" lon="-3.0539482645690441131591796875">
        <ele>0</ele>
        <time>2026-08-15T16:51:34.000Z</time>
        <extensions>
          <ns3:TrackPointExtension>
            <ns3:hr>141</ns3:hr>
          </ns3:TrackPointExtension>
        </extensions>
      </trkpt>
      <trkpt lat="47.56465927697718143463134765625" lon="-3.053964860737323760986328125">
        <ele>0</ele>
        <time>2026-08-15T16:51:35.000Z</time>
        <extensions>
          <ns3:TrackPointExtension>
            <ns3:hr>142</ns3:hr>
          </ns3:TrackPointExtension>
        </extensions>
      </trkpt>
      <trkpt lat="47.56460496224462985992431640625" lon="-3.05397936142981052398681640625">
        <ele>0.20000000298023223876953125</ele>
        <time>2026-08-15T16:51:36.000Z</time>
        <extensions>
          <ns3:TrackPointExtension>
            <ns3:hr>142</ns3:hr>
          </ns3:TrackPointExtension>
        </extensions>
      </trkpt>
      <trkpt lat="47.5645483843982219696044921875" lon="-3.0539881624281406402587890625">
        <ele>0.4000000059604644775390625</ele>
        <time>2026-08-15T16:51:37.000Z</time>
        <extensions>
          <ns3:TrackPointExtension>
            <ns3:hr>142</ns3:hr>
          </ns3:TrackPointExtension>
        </extensions>
      </trkpt>
      <trkpt lat="47.56449398584663867950439453125" lon="-3.05401322431862354278564453125">
        <ele>0.4000000059604644775390625</ele>
        <time>2026-08-15T16:51:38.000Z</time>
        <extensions>
          <ns3:TrackPointExtension>
            <ns3:hr>142</ns3:hr>
          </ns3:TrackPointExtension>
        </extensions>
      </trkpt>
      <trkpt lat="47.56444000639021396636962890625" lon="-3.0540518648922443389892578125">
        <ele>0.60000002384185791015625</ele>
        <time>2026-08-15T16:51:39.000Z</time>
        <extensions>
          <ns3:TrackPointExtension>
            <ns3:hr>142</ns3:hr>
          </ns3:TrackPointExtension>
        </extensions>
      </trkpt>
      <trkpt lat="47.56437848322093486785888671875" lon="-3.054070137441158294677734375">
        <ele>0.4000000059604644775390625</ele>
        <time>2026-08-15T16:51:40.000Z</time>
        <extensions>
          <ns3:TrackPointExtension>
            <ns3:hr>143</ns3:hr>
          </ns3:TrackPointExtension>
        </extensions>
      </trkpt>
      <trkpt lat="47.5643157027661800384521484375" lon="-3.05408111773431301116943359375">
        <ele>0.20000000298023223876953125</ele>
        <time>2026-08-15T16:51:41.000Z</time>
        <extensions>
          <ns3:TrackPointExtension>
            <ns3:hr>142</ns3:hr>
          </ns3:TrackPointExtension>
        </extensions>
      </trkpt>
      <trkpt lat="47.56425677798688411712646484375" lon="-3.05408648215234279632568359375">
        <ele>0</ele>
        <time>2026-08-15T16:51:42.000Z</time>
        <extensions>
          <ns3:TrackPointExtension>
            <ns3:hr>142</ns3:hr>
          </ns3:TrackPointExtension>
        </extensions>
      </trkpt>
      <trkpt lat="47.5641996972262859344482421875" lon="-3.05409184657037258148193359375">
        <ele>0</ele>
        <time>2026-08-15T16:51:43.000Z</time>
        <extensions>
          <ns3:TrackPointExtension>
            <ns3:hr>142</ns3:hr>
          </ns3:TrackPointExtension>
        </extensions>
      </trkpt>
      <trkpt lat="47.5641450472176074981689453125" lon="-3.05409234948456287384033203125">
        <ele>-0.20000000298023223876953125</ele>
        <time>2026-08-15T16:51:44.000Z</time>
        <extensions>
          <ns3:TrackPointExtension>
            <ns3:hr>142</ns3:hr>
          </ns3:TrackPointExtension>
        </extensions>
      </trkpt>
      <trkpt lat="47.56408679299056529998779296875" lon="-3.05408245883882045745849609375">
        <ele>-0.20000000298023223876953125</ele>
        <time>2026-08-15T16:51:45.000Z</time>
        <extensions>
          <ns3:TrackPointExtension>
            <ns3:hr>142</ns3:hr>
          </ns3:TrackPointExtension>
        </extensions>
      </trkpt>
      <trkpt lat="47.56402426399290561676025390625" lon="-3.0540817044675350189208984375">
        <ele>0</ele>
        <time>2026-08-15T16:51:46.000Z</time>
        <extensions>
          <ns3:TrackPointExtension>
            <ns3:hr>142</ns3:hr>
          </ns3:TrackPointExtension>
        </extensions>
      </trkpt>
      <trkpt lat="47.56396190263330936431884765625" lon="-3.05408363230526447296142578125">
        <ele>0.20000000298023223876953125</ele>
        <time>2026-08-15T16:51:47.000Z</time>
        <extensions>
          <ns3:TrackPointExtension>
            <ns3:hr>142</ns3:hr>
          </ns3:TrackPointExtension>
        </extensions>
      </trkpt>
      <trkpt lat="47.56390146911144256591796875" lon="-3.05408053100109100341796875">
        <ele>0.20000000298023223876953125</ele>
        <time>2026-08-15T16:51:48.000Z</time>
        <extensions>
          <ns3:TrackPointExtension>
            <ns3:hr>142</ns3:hr>
          </ns3:TrackPointExtension>
        </extensions>
      </trkpt>
      <trkpt lat="47.56384338252246379852294921875" lon="-3.05407114326953887939453125">
        <ele>0.20000000298023223876953125</ele>
        <time>2026-08-15T16:51:49.000Z</time>
        <extensions>
          <ns3:TrackPointExtension>
            <ns3:hr>141</ns3:hr>
          </ns3:TrackPointExtension>
        </extensions>
      </trkpt>
      <trkpt lat="47.5637802667915821075439453125" lon="-3.0540686286985874176025390625">
        <ele>0.20000000298023223876953125</ele>
        <time>2026-08-15T16:51:50.000Z</time>
        <extensions>
          <ns3:TrackPointExtension>
            <ns3:hr>140</ns3:hr>
          </ns3:TrackPointExtension>
        </extensions>
      </trkpt>
      <trkpt lat="47.5637165643274784088134765625" lon="-3.0540686286985874176025390625">
        <ele>0.20000000298023223876953125</ele>
        <time>2026-08-15T16:51:51.000Z</time>
        <extensions>
          <ns3:TrackPointExtension>
            <ns3:hr>139</ns3:hr>
          </ns3:TrackPointExtension>
        </extensions>
      </trkpt>
      <trkpt lat="47.563659735023975372314453125" lon="-3.05408044718205928802490234375">
        <ele>0.20000000298023223876953125</ele>
        <time>2026-08-15T16:51:52.000Z</time>
        <extensions>
          <ns3:TrackPointExtension>
            <ns3:hr>138</ns3:hr>
          </ns3:TrackPointExtension>
        </extensions>
      </trkpt>
      <trkpt lat="47.56360374391078948974609375" lon="-3.05409419350326061248779296875">
        <ele>0.20000000298023223876953125</ele>
        <time>2026-08-15T16:51:53.000Z</time>
        <extensions>
          <ns3:TrackPointExtension>
            <ns3:hr>138</ns3:hr>
          </ns3:TrackPointExtension>
        </extensions>
      </trkpt>
      <trkpt lat="47.56354699842631816864013671875" lon="-3.0540974624454975128173828125">
        <ele>0.20000000298023223876953125</ele>
        <time>2026-08-15T16:51:54.000Z</time>
        <extensions>
          <ns3:TrackPointExtension>
            <ns3:hr>138</ns3:hr>
          </ns3:TrackPointExtension>
        </extensions>
      </trkpt>
      <trkpt lat="47.56349285133183002471923828125" lon="-3.0540967918932437896728515625">
        <ele>0.20000000298023223876953125</ele>
        <time>2026-08-15T16:51:55.000Z</time>
        <extensions>
          <ns3:TrackPointExtension>
            <ns3:hr>138</ns3:hr>
          </ns3:TrackPointExtension>
        </extensions>
      </trkpt>
      <trkpt lat="47.56343333981931209564208984375" lon="-3.054099641740322113037109375">
        <ele>0.20000000298023223876953125</ele>
        <time>2026-08-15T16:51:56.000Z</time>
        <extensions>
          <ns3:TrackPointExtension>
            <ns3:hr>138</ns3:hr>
          </ns3:TrackPointExtension>
        </extensions>
      </trkpt>
      <trkpt lat="47.56337936036288738250732421875" lon="-3.0540959537029266357421875">
        <ele>0</ele>
        <time>2026-08-15T16:51:57.000Z</time>
        <extensions>
          <ns3:TrackPointExtension>
            <ns3:hr>138</ns3:hr>
          </ns3:TrackPointExtension>
        </extensions>
      </trkpt>
      <trkpt lat="47.56332621909677982330322265625" lon="-3.05407960899174213409423828125">
        <ele>-0.20000000298023223876953125</ele>
        <time>2026-08-15T16:51:58.000Z</time>
        <extensions>
          <ns3:TrackPointExtension>
            <ns3:hr>138</ns3:hr>
          </ns3:TrackPointExtension>
        </extensions>
      </trkpt>
      <trkpt lat="47.5632753409445285797119140625" lon="-3.05405613966286182403564453125">
        <ele>-0.4000000059604644775390625</ele>
        <time>2026-08-15T16:51:59.000Z</time>
        <extensions>
          <ns3:TrackPointExtension>
            <ns3:hr>137</ns3:hr>
          </ns3:TrackPointExtension>
        </extensions>
      </trkpt>
      <trkpt lat="47.56322513334453105926513671875" lon="-3.05402982048690319061279296875">
        <ele>-0.60000002384185791015625</ele>
        <time>2026-08-15T16:52:00.000Z</time>
        <extensions>
          <ns3:TrackPointExtension>
            <ns3:hr>136</ns3:hr>
          </ns3:TrackPointExtension>
        </extensions>
      </trkpt>
      <trkpt lat="47.563177607953548431396484375" lon="-3.05400886572897434234619140625">
        <ele>-0.60000002384185791015625</ele>
        <time>2026-08-15T16:52:01.000Z</time>
        <extensions>
          <ns3:TrackPointExtension>
            <ns3:hr>136</ns3:hr>
          </ns3:TrackPointExtension>
        </extensions>
      </trkpt>
      <trkpt lat="47.563133351504802703857421875" lon="-3.05396930314600467681884765625">
        <ele>-0.60000002384185791015625</ele>
        <time>2026-08-15T16:52:02.000Z</time>
        <extensions>
          <ns3:TrackPointExtension>
            <ns3:hr>136</ns3:hr>
          </ns3:TrackPointExtension>
        </extensions>
      </trkpt>
      <trkpt lat="47.56309018470346927642822265625" lon="-3.05392563343048095703125">
        <ele>-0.60000002384185791015625</ele>
        <time>2026-08-15T16:52:03.000Z</time>
        <extensions>
          <ns3:TrackPointExtension>
            <ns3:hr>136</ns3:hr>
          </ns3:TrackPointExtension>
        </extensions>
      </trkpt>
      <trkpt lat="47.563046514987945556640625" lon="-3.05388933978974819183349609375">
        <ele>-0.4000000059604644775390625</ele>
        <time>2026-08-15T16:52:04.000Z</time>
        <extensions>
          <ns3:TrackPointExtension>
            <ns3:hr>136</ns3:hr>
          </ns3:TrackPointExtension>
        </extensions>
      </trkpt>
      <trkpt lat="47.5629970617592334747314453125" lon="-3.0538599193096160888671875">
        <ele>-0.20000000298023223876953125</ele>
        <time>2026-08-15T16:52:05.000Z</time>
        <extensions>
          <ns3:TrackPointExtension>
            <ns3:hr>136</ns3:hr>
          </ns3:TrackPointExtension>
        </extensions>
      </trkpt>
      <trkpt lat="47.56293897517025470733642578125" lon="-3.053851537406444549560546875">
        <ele>0</ele>
        <time>2026-08-15T16:52:06.000Z</time>
        <extensions>
          <ns3:TrackPointExtension>
            <ns3:hr>135</ns3:hr>
          </ns3:TrackPointExtension>
        </extensions>
      </trkpt>
      <trkpt lat="47.56288751028478145599365234375" lon="-3.053866960108280181884765625">
        <ele>0.4000000059604644775390625</ele>
        <time>2026-08-15T16:52:07.000Z</time>
        <extensions>
          <ns3:TrackPointExtension>
            <ns3:hr>135</ns3:hr>
          </ns3:TrackPointExtension>
        </extensions>
      </trkpt>
      <trkpt lat="47.56284291855990886688232421875" lon="-3.0538993142545223236083984375">
        <ele>0.60000002384185791015625</ele>
        <time>2026-08-15T16:52:08.000Z</time>
        <extensions>
          <ns3:TrackPointExtension>
            <ns3:hr>134</ns3:hr>
          </ns3:TrackPointExtension>
        </extensions>
      </trkpt>
      <trkpt lat="47.56279463879764080047607421875" lon="-3.0539472587406635284423828125">
        <ele>0.800000011920928955078125</ele>
        <time>2026-08-15T16:52:09.000Z</time>
        <extensions>
          <ns3:TrackPointExtension>
            <ns3:hr>134</ns3:hr>
          </ns3:TrackPointExtension>
        </extensions>
      </trkpt>
      <trkpt lat="47.5627492927014827728271484375" lon="-3.05396276526153087615966796875">
        <ele>0.800000011920928955078125</ele>
        <time>2026-08-15T16:52:10.000Z</time>
        <extensions>
          <ns3:TrackPointExtension>
            <ns3:hr>134</ns3:hr>
          </ns3:TrackPointExtension>
        </extensions>
      </trkpt>
      <trkpt lat="47.562701515853404998779296875" lon="-3.0539603345096111297607421875">
        <ele>0.4000000059604644775390625</ele>
        <time>2026-08-15T16:52:11.000Z</time>
        <extensions>
          <ns3:TrackPointExtension>
            <ns3:hr>134</ns3:hr>
          </ns3:TrackPointExtension>
        </extensions>
      </trkpt>
      <trkpt lat="47.56264829076826572418212890625" lon="-3.05394818075001239776611328125">
        <ele>0.20000000298023223876953125</ele>
        <time>2026-08-15T16:52:12.000Z</time>
        <extensions>
          <ns3:TrackPointExtension>
            <ns3:hr>133</ns3:hr>
          </ns3:TrackPointExtension>
        </extensions>
      </trkpt>
      <trkpt lat="47.56259799934923648834228515625" lon="-3.05394164286553859710693359375">
        <ele>-0.20000000298023223876953125</ele>
        <time>2026-08-15T16:52:13.000Z</time>
        <extensions>
          <ns3:TrackPointExtension>
            <ns3:hr>133</ns3:hr>
          </ns3:TrackPointExtension>
        </extensions>
      </trkpt>
      <trkpt lat="47.56254804320633411407470703125" lon="-3.0539288185536861419677734375">
        <ele>-0.4000000059604644775390625</ele>
        <time>2026-08-15T16:52:14.000Z</time>
        <extensions>
          <ns3:TrackPointExtension>
            <ns3:hr>133</ns3:hr>
          </ns3:TrackPointExtension>
        </extensions>
      </trkpt>
      <trkpt lat="47.56250546313822269439697265625" lon="-3.05389302782714366912841796875">
        <ele>-0.4000000059604644775390625</ele>
        <time>2026-08-15T16:52:15.000Z</time>
        <extensions>
          <ns3:TrackPointExtension>
            <ns3:hr>132</ns3:hr>
          </ns3:TrackPointExtension>
        </extensions>
      </trkpt>
      <trkpt lat="47.5624604523181915283203125" lon="-3.05384743027389049530029296875">
        <ele>-0.20000000298023223876953125</ele>
        <time>2026-08-15T16:52:16.000Z</time>
        <extensions>
          <ns3:TrackPointExtension>
            <ns3:hr>132</ns3:hr>
          </ns3:TrackPointExtension>
        </extensions>
      </trkpt>
      <trkpt lat="47.56242600269615650177001953125" lon="-3.0537957139313220977783203125">
        <ele>-0.20000000298023223876953125</ele>
        <time>2026-08-15T16:52:17.000Z</time>
        <extensions>
          <ns3:TrackPointExtension>
            <ns3:hr>132</ns3:hr>
          </ns3:TrackPointExtension>
        </extensions>
      </trkpt>
      <trkpt lat="47.56240353919565677642822265625" lon="-3.05373880080878734588623046875">
        <ele>-0.20000000298023223876953125</ele>
        <time>2026-08-15T16:52:18.000Z</time>
        <extensions>
          <ns3:TrackPointExtension>
            <ns3:hr>132</ns3:hr>
          </ns3:TrackPointExtension>
        </extensions>
      </trkpt>
      <trkpt lat="47.5624068081378936767578125" lon="-3.0536766909062862396240234375">
        <ele>0</ele>
        <time>2026-08-15T16:52:19.000Z</time>
        <extensions>
          <ns3:TrackPointExtension>
            <ns3:hr>131</ns3:hr>
          </ns3:TrackPointExtension>
        </extensions>
      </trkpt>
      <trkpt lat="47.5624207220971584320068359375" lon="-3.0536103062331676483154296875">
        <ele>0.20000000298023223876953125</ele>
        <time>2026-08-15T16:52:20.000Z</time>
        <extensions>
          <ns3:TrackPointExtension>
            <ns3:hr>131</ns3:hr>
          </ns3:TrackPointExtension>
        </extensions>
      </trkpt>
      <trkpt lat="47.56243539042770862579345703125" lon="-3.05356018245220184326171875">
        <ele>0.4000000059604644775390625</ele>
        <time>2026-08-15T16:52:21.000Z</time>
        <extensions>
          <ns3:TrackPointExtension>
            <ns3:hr>131</ns3:hr>
          </ns3:TrackPointExtension>
        </extensions>
      </trkpt>
      <trkpt lat="47.562452740967273712158203125" lon="-3.05353025905787944793701171875">
        <ele>0.20000000298023223876953125</ele>
        <time>2026-08-15T16:52:22.000Z</time>
        <extensions>
          <ns3:TrackPointExtension>
            <ns3:hr>131</ns3:hr>
          </ns3:TrackPointExtension>
        </extensions>
      </trkpt>
      <trkpt lat="47.562465481460094451904296875" lon="-3.05350293405354022979736328125">
        <ele>-0.20000000298023223876953125</ele>
        <time>2026-08-15T16:52:23.000Z</time>
        <extensions>
          <ns3:TrackPointExtension>
            <ns3:hr>131</ns3:hr>
          </ns3:TrackPointExtension>
        </extensions>
      </trkpt>
      <trkpt lat="47.5624792277812957763671875" lon="-3.05349455215036869049072265625">
        <ele>-0.20000000298023223876953125</ele>
        <time>2026-08-15T16:52:24.000Z</time>
        <extensions>
          <ns3:TrackPointExtension>
            <ns3:hr>130</ns3:hr>
          </ns3:TrackPointExtension>
        </extensions>
      </trkpt>
      <trkpt lat="47.56249062716960906982421875" lon="-3.053498156368732452392578125">
        <ele>0</ele>
        <time>2026-08-15T16:52:25.000Z</time>
        <extensions>
          <ns3:TrackPointExtension>
            <ns3:hr>130</ns3:hr>
          </ns3:TrackPointExtension>
        </extensions>
      </trkpt>
      <trkpt lat="47.56250596605241298675537109375" lon="-3.05350058712065219879150390625">
        <ele>0</ele>
        <time>2026-08-15T16:52:26.000Z</time>
        <extensions>
          <ns3:TrackPointExtension>
            <ns3:hr>130</ns3:hr>
          </ns3:TrackPointExtension>
        </extensions>
      </trkpt>
      <trkpt lat="47.56252088584005832672119140625" lon="-3.05349438451230525970458984375">
        <ele>0</ele>
        <time>2026-08-15T16:52:27.000Z</time>
        <extensions>
          <ns3:TrackPointExtension>
            <ns3:hr>130</ns3:hr>
          </ns3:TrackPointExtension>
        </extensions>
      </trkpt>
      <trkpt lat="47.56253798492252826690673828125" lon="-3.0534839071333408355712890625">
        <ele>0.20000000298023223876953125</ele>
        <time>2026-08-15T16:52:28.000Z</time>
        <extensions>
          <ns3:TrackPointExtension>
            <ns3:hr>130</ns3:hr>
          </ns3:TrackPointExtension>
        </extensions>
      </trkpt>
      <trkpt lat="47.5625558383762836456298828125" lon="-3.05346437729895114898681640625">
        <ele>1.7999999523162841796875</ele>
        <time>2026-08-15T16:52:29.000Z</time>
        <extensions>
          <ns3:TrackPointExtension>
            <ns3:hr>130</ns3:hr>
          </ns3:TrackPointExtension>
        </extensions>
      </trkpt>
      <trkpt lat="47.5625766254961490631103515625" lon="-3.053445182740688323974609375">
        <ele>3.400000095367431640625</ele>
        <time>2026-08-15T16:52:30.000Z</time>
        <extensions>
          <ns3:TrackPointExtension>
            <ns3:hr>130</ns3:hr>
          </ns3:TrackPointExtension>
        </extensions>
      </trkpt>
      <trkpt lat="47.56260554306209087371826171875" lon="-3.05342649109661579132080078125">
        <ele>5.19999980926513671875</ele>
        <time>2026-08-15T16:52:31.000Z</time>
        <extensions>
          <ns3:TrackPointExtension>
            <ns3:hr>131</ns3:hr>
          </ns3:TrackPointExtension>
        </extensions>
      </trkpt>
      <trkpt lat="47.56263555027544498443603515625" lon="-3.05340805090963840484619140625">
        <ele>6.80000019073486328125</ele>
        <time>2026-08-15T16:52:32.000Z</time>
        <extensions>
          <ns3:TrackPointExtension>
            <ns3:hr>131</ns3:hr>
          </ns3:TrackPointExtension>
        </extensions>
      </trkpt>
      <trkpt lat="47.562674023211002349853515625" lon="-3.05339547805488109588623046875">
        <ele>8.3999996185302734375</ele>
        <time>2026-08-15T16:52:33.000Z</time>
        <extensions>
          <ns3:TrackPointExtension>
            <ns3:hr>131</ns3:hr>
          </ns3:TrackPointExtension>
        </extensions>
      </trkpt>
      <trkpt lat="47.56271350197494029998779296875" lon="-3.05340955965220928192138671875">
        <ele>10.19999980926513671875</ele>
        <time>2026-08-15T16:52:34.000Z</time>
        <extensions>
          <ns3:TrackPointExtension>
            <ns3:hr>130</ns3:hr>
          </ns3:TrackPointExtension>
        </extensions>
      </trkpt>
      <trkpt lat="47.56275775842368602752685546875" lon="-3.05342473089694976806640625">
        <ele>11</ele>
        <time>2026-08-15T16:52:35.000Z</time>
        <extensions>
          <ns3:TrackPointExtension>
            <ns3:hr>130</ns3:hr>
          </ns3:TrackPointExtension>
        </extensions>
      </trkpt>
      <trkpt lat="47.56279899738729000091552734375" lon="-3.0534476973116397857666015625">
        <ele>11.19999980926513671875</ele>
        <time>2026-08-15T16:52:36.000Z</time>
        <extensions>
          <ns3:TrackPointExtension>
            <ns3:hr>130</ns3:hr>
          </ns3:TrackPointExtension>
        </extensions>
      </trkpt>
      <trkpt lat="47.562839649617671966552734375" lon="-3.05346773006021976470947265625">
        <ele>11.19999980926513671875</ele>
        <time>2026-08-15T16:52:37.000Z</time>
        <extensions>
          <ns3:TrackPointExtension>
            <ns3:hr>130</ns3:hr>
          </ns3:TrackPointExtension>
        </extensions>
      </trkpt>
      <trkpt lat="47.56288784556090831756591796875" lon="-3.05347837507724761962890625">
        <ele>11.80000019073486328125</ele>
        <time>2026-08-15T16:52:38.000Z</time>
        <extensions>
          <ns3:TrackPointExtension>
            <ns3:hr>130</ns3:hr>
          </ns3:TrackPointExtension>
        </extensions>
      </trkpt>
      <trkpt lat="47.56294065155088901519775390625" lon="-3.05349622853100299835205078125">
        <ele>11.80000019073486328125</ele>
        <time>2026-08-15T16:52:39.000Z</time>
        <extensions>
          <ns3:TrackPointExtension>
            <ns3:hr>130</ns3:hr>
          </ns3:TrackPointExtension>
        </extensions>
      </trkpt>
      <trkpt lat="47.562993876636028289794921875" lon="-3.05352221243083477020263671875">
        <ele>11.6000003814697265625</ele>
        <time>2026-08-15T16:52:40.000Z</time>
        <extensions>
          <ns3:TrackPointExtension>
            <ns3:hr>129</ns3:hr>
          </ns3:TrackPointExtension>
        </extensions>
      </trkpt>
      <trkpt lat="47.563040144741535186767578125" lon="-3.053551129996776580810546875">
        <ele>11.6000003814697265625</ele>
        <time>2026-08-15T16:52:41.000Z</time>
        <extensions>
          <ns3:TrackPointExtension>
            <ns3:hr>129</ns3:hr>
          </ns3:TrackPointExtension>
        </extensions>
      </trkpt>
      <trkpt lat="47.563091777265071868896484375" lon="-3.053587339818477630615234375">
        <ele>11.80000019073486328125</ele>
        <time>2026-08-15T16:52:42.000Z</time>
        <extensions>
          <ns3:TrackPointExtension>
            <ns3:hr>129</ns3:hr>
          </ns3:TrackPointExtension>
        </extensions>
      </trkpt>
      <trkpt lat="47.5631390511989593505859375" lon="-3.05362665094435214996337890625">
        <ele>12.19999980926513671875</ele>
        <time>2026-08-15T16:52:43.000Z</time>
        <extensions>
          <ns3:TrackPointExtension>
            <ns3:hr>128</ns3:hr>
          </ns3:TrackPointExtension>
        </extensions>
      </trkpt>
      <trkpt lat="47.56318775005638599395751953125" lon="-3.05366034619510173797607421875">
        <ele>12.19999980926513671875</ele>
        <time>2026-08-15T16:52:44.000Z</time>
        <extensions>
          <ns3:TrackPointExtension>
            <ns3:hr>127</ns3:hr>
          </ns3:TrackPointExtension>
        </extensions>
      </trkpt>
      <trkpt lat="47.56323418579995632171630859375" lon="-3.05369454436004161834716796875">
        <ele>12.3999996185302734375</ele>
        <time>2026-08-15T16:52:45.000Z</time>
        <extensions>
          <ns3:TrackPointExtension>
            <ns3:hr>127</ns3:hr>
          </ns3:TrackPointExtension>
        </extensions>
      </trkpt>
      <trkpt lat="47.56327860988676548004150390625" lon="-3.053738884627819061279296875">
        <ele>12.3999996185302734375</ele>
        <time>2026-08-15T16:52:46.000Z</time>
        <extensions>
          <ns3:TrackPointExtension>
            <ns3:hr>127</ns3:hr>
          </ns3:TrackPointExtension>
        </extensions>
      </trkpt>
      <trkpt lat="47.5633199326694011688232421875" lon="-3.0537849850952625274658203125">
        <ele>12.19999980926513671875</ele>
        <time>2026-08-15T16:52:47.000Z</time>
        <extensions>
          <ns3:TrackPointExtension>
            <ns3:hr>126</ns3:hr>
          </ns3:TrackPointExtension>
        </extensions>
      </trkpt>
      <trkpt lat="47.563359327614307403564453125" lon="-3.05382966063916683197021484375">
        <ele>11.6000003814697265625</ele>
        <time>2026-08-15T16:52:48.000Z</time>
        <extensions>
          <ns3:TrackPointExtension>
            <ns3:hr>127</ns3:hr>
          </ns3:TrackPointExtension>
        </extensions>
      </trkpt>
      <trkpt lat="47.56340266205370426177978515625" lon="-3.0538631044328212738037109375">
        <ele>11.19999980926513671875</ele>
        <time>2026-08-15T16:52:49.000Z</time>
        <extensions>
          <ns3:TrackPointExtension>
            <ns3:hr>127</ns3:hr>
          </ns3:TrackPointExtension>
        </extensions>
      </trkpt>
      <trkpt lat="47.56344893015921115875244140625" lon="-3.05389487184584140777587890625">
        <ele>11</ele>
        <time>2026-08-15T16:52:50.000Z</time>
        <extensions>
          <ns3:TrackPointExtension>
            <ns3:hr>128</ns3:hr>
          </ns3:TrackPointExtension>
        </extensions>
      </trkpt>
      <trkpt lat="47.56349218077957630157470703125" lon="-3.05393074639141559600830078125">
        <ele>10.80000019073486328125</ele>
        <time>2026-08-15T16:52:51.000Z</time>
        <extensions>
          <ns3:TrackPointExtension>
            <ns3:hr>134</ns3:hr>
          </ns3:TrackPointExtension>
        </extensions>
      </trkpt>
      <trkpt lat="47.56353526376187801361083984375" lon="-3.0539640225470066070556640625">
        <ele>10.80000019073486328125</ele>
        <time>2026-08-15T16:52:52.000Z</time>
        <extensions>
          <ns3:TrackPointExtension>
            <ns3:hr>141</ns3:hr>
          </ns3:TrackPointExtension>
        </extensions>
      </trkpt>
      <trkpt lat="47.56358404643833637237548828125" lon="-3.0539854802191257476806640625">
        <ele>10.80000019073486328125</ele>
        <time>2026-08-15T16:52:53.000Z</time>
        <extensions>
          <ns3:TrackPointExtension>
            <ns3:hr>151</ns3:hr>
          </ns3:TrackPointExtension>
        </extensions>
      </trkpt>
      <trkpt lat="47.56363056600093841552734375" lon="-3.0540055967867374420166015625">
        <ele>10.3999996185302734375</ele>
        <time>2026-08-15T16:52:54.000Z</time>
        <extensions>
          <ns3:TrackPointExtension>
            <ns3:hr>155</ns3:hr>
          </ns3:TrackPointExtension>
        </extensions>
      </trkpt>
      <trkpt lat="47.56367205642163753509521484375" lon="-3.05403493344783782958984375">
        <ele>10</ele>
        <time>2026-08-15T16:52:55.000Z</time>
        <extensions>
          <ns3:TrackPointExtension>
            <ns3:hr>156</ns3:hr>
          </ns3:TrackPointExtension>
        </extensions>
      </trkpt>
      <trkpt lat="47.56371312774717807769775390625" lon="-3.054058738052845001220703125">
        <ele>9.80000019073486328125</ele>
        <time>2026-08-15T16:52:56.000Z</time>
        <extensions>
          <ns3:TrackPointExtension>
            <ns3:hr>157</ns3:hr>
          </ns3:TrackPointExtension>
        </extensions>
      </trkpt>
      <trkpt lat="47.5637537799775600433349609375" lon="-3.0540843866765499114990234375">
        <ele>9.80000019073486328125</ele>
        <time>2026-08-15T16:52:57.000Z</time>
        <extensions>
          <ns3:TrackPointExtension>
            <ns3:hr>157</ns3:hr>
          </ns3:TrackPointExtension>
        </extensions>
      </trkpt>
      <trkpt lat="47.563798539340496063232421875" lon="-3.0541048385202884674072265625">
        <ele>10</ele>
        <time>2026-08-15T16:52:58.000Z</time>
        <extensions>
          <ns3:TrackPointExtension>
            <ns3:hr>158</ns3:hr>
          </ns3:TrackPointExtension>
        </extensions>
      </trkpt>
      <trkpt lat="47.56384053267538547515869140625" lon="-3.0541219376027584075927734375">
        <ele>10.19999980926513671875</ele>
        <time>2026-08-15T16:52:59.000Z</time>
        <extensions>
          <ns3:TrackPointExtension>
            <ns3:hr>158</ns3:hr>
          </ns3:TrackPointExtension>
        </extensions>
      </trkpt>
      <trkpt lat="47.5638872198760509490966796875" lon="-3.05413962341845035552978515625">
        <ele>10.19999980926513671875</ele>
        <time>2026-08-15T16:53:00.000Z</time>
        <extensions>
          <ns3:TrackPointExtension>
            <ns3:hr>158</ns3:hr>
          </ns3:TrackPointExtension>
        </extensions>
      </trkpt>
      <trkpt lat="47.56393558345735073089599609375" lon="-3.05416041053831577301025390625">
        <ele>10.19999980926513671875</ele>
        <time>2026-08-15T16:53:01.000Z</time>
        <extensions>
          <ns3:TrackPointExtension>
            <ns3:hr>158</ns3:hr>
          </ns3:TrackPointExtension>
        </extensions>
      </trkpt>
      <trkpt lat="47.56397916935384273529052734375" lon="-3.054182119667530059814453125">
        <ele>10</ele>
        <time>2026-08-15T16:53:02.000Z</time>
        <extensions>
          <ns3:TrackPointExtension>
            <ns3:hr>157</ns3:hr>
          </ns3:TrackPointExtension>
        </extensions>
      </trkpt>
      <trkpt lat="47.56403063423931598663330078125" lon="-3.0542017333209514617919921875">
        <ele>10</ele>
        <time>2026-08-15T16:53:03.000Z</time>
        <extensions>
          <ns3:TrackPointExtension>
            <ns3:hr>158</ns3:hr>
          </ns3:TrackPointExtension>
        </extensions>
      </trkpt>
      <trkpt lat="47.56407857872545719146728515625" lon="-3.05420852266252040863037109375">
        <ele>10</ele>
        <time>2026-08-15T16:53:04.000Z</time>
        <extensions>
          <ns3:TrackPointExtension>
            <ns3:hr>158</ns3:hr>
          </ns3:TrackPointExtension>
        </extensions>
      </trkpt>
      <trkpt lat="47.56413339637219905853271484375" lon="-3.05421908386051654815673828125">
        <ele>10</ele>
        <time>2026-08-15T16:53:05.000Z</time>
        <extensions>
          <ns3:TrackPointExtension>
            <ns3:hr>158</ns3:hr>
          </ns3:TrackPointExtension>
        </extensions>
      </trkpt>
      <trkpt lat="47.5641824305057525634765625" lon="-3.05423350073397159576416015625">
        <ele>10</ele>
        <time>2026-08-15T16:53:06.000Z</time>
        <extensions>
          <ns3:TrackPointExtension>
            <ns3:hr>157</ns3:hr>
          </ns3:TrackPointExtension>
        </extensions>
      </trkpt>
      <trkpt lat="47.56423548795282840728759765625" lon="-3.0542349256575107574462890625">
        <ele>10.19999980926513671875</ele>
        <time>2026-08-15T16:53:07.000Z</time>
        <extensions>
          <ns3:TrackPointExtension>
            <ns3:hr>157</ns3:hr>
          </ns3:TrackPointExtension>
        </extensions>
      </trkpt>
      <trkpt lat="47.56428510881960391998291015625" lon="-3.05422461591660976409912109375">
        <ele>10.19999980926513671875</ele>
        <time>2026-08-15T16:53:08.000Z</time>
        <extensions>
          <ns3:TrackPointExtension>
            <ns3:hr>157</ns3:hr>
          </ns3:TrackPointExtension>
        </extensions>
      </trkpt>
      <trkpt lat="47.564340345561504364013671875" lon="-3.05421464145183563232421875">
        <ele>10.19999980926513671875</ele>
        <time>2026-08-15T16:53:09.000Z</time>
        <extensions>
          <ns3:TrackPointExtension>
            <ns3:hr>156</ns3:hr>
          </ns3:TrackPointExtension>
        </extensions>
      </trkpt>
      <trkpt lat="47.56439491175115108489990234375" lon="-3.0541916750371456146240234375">
        <ele>9.80000019073486328125</ele>
        <time>2026-08-15T16:53:10.000Z</time>
        <extensions>
          <ns3:TrackPointExtension>
            <ns3:hr>156</ns3:hr>
          </ns3:TrackPointExtension>
        </extensions>
      </trkpt>
      <trkpt lat="47.5644424371421337127685546875" lon="-3.054166696965694427490234375">
        <ele>9.3999996185302734375</ele>
        <time>2026-08-15T16:53:11.000Z</time>
        <extensions>
          <ns3:TrackPointExtension>
            <ns3:hr>155</ns3:hr>
          </ns3:TrackPointExtension>
        </extensions>
      </trkpt>
      <trkpt lat="47.56449331529438495635986328125" lon="-3.05413291789591312408447265625">
        <ele>8.80000019073486328125</ele>
        <time>2026-08-15T16:53:12.000Z</time>
        <extensions>
          <ns3:TrackPointExtension>
            <ns3:hr>154</ns3:hr>
          </ns3:TrackPointExtension>
        </extensions>
      </trkpt>
      <trkpt lat="47.56454042159020900726318359375" lon="-3.05409067310392856597900390625">
        <ele>8.3999996185302734375</ele>
        <time>2026-08-15T16:53:13.000Z</time>
        <extensions>
          <ns3:TrackPointExtension>
            <ns3:hr>154</ns3:hr>
          </ns3:TrackPointExtension>
        </extensions>
      </trkpt>
      <trkpt lat="47.56457847543060779571533203125" lon="-3.054039962589740753173828125">
        <ele>8.19999980926513671875</ele>
        <time>2026-08-15T16:53:14.000Z</time>
        <extensions>
          <ns3:TrackPointExtension>
            <ns3:hr>154</ns3:hr>
          </ns3:TrackPointExtension>
        </extensions>
      </trkpt>
      <trkpt lat="47.56461334414780139923095703125" lon="-3.0539888329803943634033203125">
        <ele>7.80000019073486328125</ele>
        <time>2026-08-15T16:53:15.000Z</time>
        <extensions>
          <ns3:TrackPointExtension>
            <ns3:hr>154</ns3:hr>
          </ns3:TrackPointExtension>
        </extensions>
      </trkpt>
      <trkpt lat="47.5646348856389522552490234375" lon="-3.05392705835402011871337890625">
        <ele>7.80000019073486328125</ele>
        <time>2026-08-15T16:53:16.000Z</time>
        <extensions>
          <ns3:TrackPointExtension>
            <ns3:hr>154</ns3:hr>
          </ns3:TrackPointExtension>
        </extensions>
      </trkpt>
      <trkpt lat="47.56464435718953609466552734375" lon="-3.05385447107255458831787109375">
        <ele>7.80000019073486328125</ele>
        <time>2026-08-15T16:53:17.000Z</time>
        <extensions>
          <ns3:TrackPointExtension>
            <ns3:hr>154</ns3:hr>
          </ns3:TrackPointExtension>
        </extensions>
      </trkpt>
      <trkpt lat="47.564632706344127655029296875" lon="-3.0537896789610385894775390625">
        <ele>7.599999904632568359375</ele>
        <time>2026-08-15T16:53:18.000Z</time>
        <extensions>
          <ns3:TrackPointExtension>
            <ns3:hr>154</ns3:hr>
          </ns3:TrackPointExtension>
        </extensions>
      </trkpt>
      <trkpt lat="47.564607895910739898681640625" lon="-3.05374315939843654632568359375">
        <ele>7.599999904632568359375</ele>
        <time>2026-08-15T16:53:19.000Z</time>
        <extensions>
          <ns3:TrackPointExtension>
            <ns3:hr>154</ns3:hr>
          </ns3:TrackPointExtension>
        </extensions>
      </trkpt>
      <trkpt lat="47.5645755417644977569580078125" lon="-3.05372036062180995941162109375">
        <ele>7.80000019073486328125</ele>
        <time>2026-08-15T16:53:20.000Z</time>
        <extensions>
          <ns3:TrackPointExtension>
            <ns3:hr>154</ns3:hr>
          </ns3:TrackPointExtension>
        </extensions>
      </trkpt>
      <trkpt lat="47.56453773938119411468505859375" lon="-3.0536974780261516571044921875">
        <ele>7.599999904632568359375</ele>
        <time>2026-08-15T16:53:21.000Z</time>
        <extensions>
          <ns3:TrackPointExtension>
            <ns3:hr>154</ns3:hr>
          </ns3:TrackPointExtension>
        </extensions>
      </trkpt>
      <trkpt lat="47.56449599750339984893798828125" lon="-3.053673841059207916259765625">
        <ele>7.599999904632568359375</ele>
        <time>2026-08-15T16:53:22.000Z</time>
        <extensions>
          <ns3:TrackPointExtension>
            <ns3:hr>153</ns3:hr>
          </ns3:TrackPointExtension>
        </extensions>
      </trkpt>
      <trkpt lat="47.5644558481872081756591796875" lon="-3.053659759461879730224609375">
        <ele>8</ele>
        <time>2026-08-15T16:53:23.000Z</time>
        <extensions>
          <ns3:TrackPointExtension>
            <ns3:hr>153</ns3:hr>
          </ns3:TrackPointExtension>
        </extensions>
      </trkpt>
      <trkpt lat="47.56441335193812847137451171875" lon="-3.05364693515002727508544921875">
        <ele>8</ele>
        <time>2026-08-15T16:53:24.000Z</time>
        <extensions>
          <ns3:TrackPointExtension>
            <ns3:hr>152</ns3:hr>
          </ns3:TrackPointExtension>
        </extensions>
      </trkpt>
      <trkpt lat="47.56437077187001705169677734375" lon="-3.0536307580769062042236328125">
        <ele>8</ele>
        <time>2026-08-15T16:53:25.000Z</time>
        <extensions>
          <ns3:TrackPointExtension>
            <ns3:hr>152</ns3:hr>
          </ns3:TrackPointExtension>
        </extensions>
      </trkpt>
      <trkpt lat="47.564327605068683624267578125" lon="-3.05361676029860973358154296875">
        <ele>7.80000019073486328125</ele>
        <time>2026-08-15T16:53:26.000Z</time>
        <extensions>
          <ns3:TrackPointExtension>
            <ns3:hr>152</ns3:hr>
          </ns3:TrackPointExtension>
        </extensions>
      </trkpt>
      <trkpt lat="47.5642868690192699432373046875" lon="-3.053608126938343048095703125">
        <ele>7.400000095367431640625</ele>
        <time>2026-08-15T16:53:27.000Z</time>
        <extensions>
          <ns3:TrackPointExtension>
            <ns3:hr>152</ns3:hr>
          </ns3:TrackPointExtension>
        </extensions>
      </trkpt>
      <trkpt lat="47.56424252875149250030517578125" lon="-3.0536093004047870635986328125">
        <ele>7</ele>
        <time>2026-08-15T16:53:28.000Z</time>
        <extensions>
          <ns3:TrackPointExtension>
            <ns3:hr>152</ns3:hr>
          </ns3:TrackPointExtension>
        </extensions>
      </trkpt>
      <trkpt lat="47.56419927813112735748291015625" lon="-3.05361575447022914886474609375">
        <ele>6.599999904632568359375</ele>
        <time>2026-08-15T16:53:29.000Z</time>
        <extensions>
          <ns3:TrackPointExtension>
            <ns3:hr>152</ns3:hr>
          </ns3:TrackPointExtension>
        </extensions>
      </trkpt>
      <trkpt lat="47.5641556084156036376953125" lon="-3.05361122824251651763916015625">
        <ele>6.400000095367431640625</ele>
        <time>2026-08-15T16:53:30.000Z</time>
        <extensions>
          <ns3:TrackPointExtension>
            <ns3:hr>152</ns3:hr>
          </ns3:TrackPointExtension>
        </extensions>
      </trkpt>
      <trkpt lat="47.56410238333046436309814453125" lon="-3.05361784994602203369140625">
        <ele>7</ele>
        <time>2026-08-15T16:53:31.000Z</time>
        <extensions>
          <ns3:TrackPointExtension>
            <ns3:hr>152</ns3:hr>
          </ns3:TrackPointExtension>
        </extensions>
      </trkpt>
      <trkpt lat="47.5640508346259593963623046875" lon="-3.0536453425884246826171875">
        <ele>7.80000019073486328125</ele>
        <time>2026-08-15T16:53:32.000Z</time>
        <extensions>
          <ns3:TrackPointExtension>
            <ns3:hr>152</ns3:hr>
          </ns3:TrackPointExtension>
        </extensions>
      </trkpt>
      <trkpt lat="47.5640018843114376068115234375" lon="-3.053666464984416961669921875">
        <ele>7.80000019073486328125</ele>
        <time>2026-08-15T16:53:33.000Z</time>
        <extensions>
          <ns3:TrackPointExtension>
            <ns3:hr>152</ns3:hr>
          </ns3:TrackPointExtension>
        </extensions>
      </trkpt>
      <trkpt lat="47.56395050324499607086181640625" lon="-3.05367417633533477783203125">
        <ele>8</ele>
        <time>2026-08-15T16:53:34.000Z</time>
        <extensions>
          <ns3:TrackPointExtension>
            <ns3:hr>152</ns3:hr>
          </ns3:TrackPointExtension>
        </extensions>
      </trkpt>
      <trkpt lat="47.56389803253114223480224609375" lon="-3.05367576889693737030029296875">
        <ele>8.19999980926513671875</ele>
        <time>2026-08-15T16:53:35.000Z</time>
        <extensions>
          <ns3:TrackPointExtension>
            <ns3:hr>152</ns3:hr>
          </ns3:TrackPointExtension>
        </extensions>
      </trkpt>
      <trkpt lat="47.56384120322763919830322265625" lon="-3.05368767119944095611572265625">
        <ele>8</ele>
        <time>2026-08-15T16:53:36.000Z</time>
        <extensions>
          <ns3:TrackPointExtension>
            <ns3:hr>152</ns3:hr>
          </ns3:TrackPointExtension>
        </extensions>
      </trkpt>
      <trkpt lat="47.56378856487572193145751953125" lon="-3.053693957626819610595703125">
        <ele>7.599999904632568359375</ele>
        <time>2026-08-15T16:53:37.000Z</time>
        <extensions>
          <ns3:TrackPointExtension>
            <ns3:hr>152</ns3:hr>
          </ns3:TrackPointExtension>
        </extensions>
      </trkpt>
      <trkpt lat="47.5637336634099483489990234375" lon="-3.05368297733366489410400390625">
        <ele>7.599999904632568359375</ele>
        <time>2026-08-15T16:53:38.000Z</time>
        <extensions>
          <ns3:TrackPointExtension>
            <ns3:hr>153</ns3:hr>
          </ns3:TrackPointExtension>
        </extensions>
      </trkpt>
      <trkpt lat="47.56367272697389125823974609375" lon="-3.053677193820476531982421875">
        <ele>8</ele>
        <time>2026-08-15T16:53:39.000Z</time>
        <extensions>
          <ns3:TrackPointExtension>
            <ns3:hr>152</ns3:hr>
          </ns3:TrackPointExtension>
        </extensions>
      </trkpt>
      <trkpt lat="47.56361455656588077545166015625" lon="-3.05366872809827327728271484375">
        <ele>8</ele>
        <time>2026-08-15T16:53:40.000Z</time>
        <extensions>
          <ns3:TrackPointExtension>
            <ns3:hr>153</ns3:hr>
          </ns3:TrackPointExtension>
        </extensions>
      </trkpt>
      <trkpt lat="47.56355320103466510772705078125" lon="-3.053665794432163238525390625">
        <ele>8.3999996185302734375</ele>
        <time>2026-08-15T16:53:41.000Z</time>
        <extensions>
          <ns3:TrackPointExtension>
            <ns3:hr>153</ns3:hr>
          </ns3:TrackPointExtension>
        </extensions>
      </trkpt>
      <trkpt lat="47.5634877383708953857421875" lon="-3.0536766909062862396240234375">
        <ele>8.80000019073486328125</ele>
        <time>2026-08-15T16:53:42.000Z</time>
        <extensions>
          <ns3:TrackPointExtension>
            <ns3:hr>154</ns3:hr>
          </ns3:TrackPointExtension>
        </extensions>
      </trkpt>
      <trkpt lat="47.56342914886772632598876953125" lon="-3.0536981485784053802490234375">
        <ele>9</ele>
        <time>2026-08-15T16:53:43.000Z</time>
        <extensions>
          <ns3:TrackPointExtension>
            <ns3:hr>154</ns3:hr>
          </ns3:TrackPointExtension>
        </extensions>
      </trkpt>
      <trkpt lat="47.563368044793605804443359375" lon="-3.053710721433162689208984375">
        <ele>9</ele>
        <time>2026-08-15T16:53:44.000Z</time>
        <extensions>
          <ns3:TrackPointExtension>
            <ns3:hr>154</ns3:hr>
          </ns3:TrackPointExtension>
        </extensions>
      </trkpt>
      <trkpt lat="47.5633071921765804290771484375" lon="-3.05374248884618282318115234375">
        <ele>9</ele>
        <time>2026-08-15T16:53:45.000Z</time>
        <extensions>
          <ns3:TrackPointExtension>
            <ns3:hr>154</ns3:hr>
          </ns3:TrackPointExtension>
        </extensions>
      </trkpt>
      <trkpt lat="47.563245333731174468994140625" lon="-3.0537802912294864654541015625">
        <ele>8.80000019073486328125</ele>
        <time>2026-08-15T16:53:46.000Z</time>
        <extensions>
          <ns3:TrackPointExtension>
            <ns3:hr>154</ns3:hr>
          </ns3:TrackPointExtension>
        </extensions>
      </trkpt>
      <trkpt lat="47.563190348446369171142578125" lon="-3.05382714606821537017822265625">
        <ele>8.6000003814697265625</ele>
        <time>2026-08-15T16:53:47.000Z</time>
        <extensions>
          <ns3:TrackPointExtension>
            <ns3:hr>154</ns3:hr>
          </ns3:TrackPointExtension>
        </extensions>
      </trkpt>
      <trkpt lat="47.56314148195087909698486328125" lon="-3.0538885854184627532958984375">
        <ele>8.80000019073486328125</ele>
        <time>2026-08-15T16:53:48.000Z</time>
        <extensions>
          <ns3:TrackPointExtension>
            <ns3:hr>154</ns3:hr>
          </ns3:TrackPointExtension>
        </extensions>
      </trkpt>
      <trkpt lat="47.5630929507315158843994140625" lon="-3.05394616909325122833251953125">
        <ele>8.6000003814697265625</ele>
        <time>2026-08-15T16:53:49.000Z</time>
        <extensions>
          <ns3:TrackPointExtension>
            <ns3:hr>155</ns3:hr>
          </ns3:TrackPointExtension>
        </extensions>
      </trkpt>
      <trkpt lat="47.56304693408310413360595703125" lon="-3.0539982207119464874267578125">
        <ele>8.3999996185302734375</ele>
        <time>2026-08-15T16:53:50.000Z</time>
        <extensions>
          <ns3:TrackPointExtension>
            <ns3:hr>155</ns3:hr>
          </ns3:TrackPointExtension>
        </extensions>
      </trkpt>
      <trkpt lat="47.562995217740535736083984375" lon="-3.0540404655039310455322265625">
        <ele>8.19999980926513671875</ele>
        <time>2026-08-15T16:53:51.000Z</time>
        <extensions>
          <ns3:TrackPointExtension>
            <ns3:hr>156</ns3:hr>
          </ns3:TrackPointExtension>
        </extensions>
      </trkpt>
      <trkpt lat="47.56293646059930324554443359375" lon="-3.05407793261110782623291015625">
        <ele>8.3999996185302734375</ele>
        <time>2026-08-15T16:53:52.000Z</time>
        <extensions>
          <ns3:TrackPointExtension>
            <ns3:hr>156</ns3:hr>
          </ns3:TrackPointExtension>
        </extensions>
      </trkpt>
      <trkpt lat="47.562873177230358123779296875" lon="-3.05410693399608135223388671875">
        <ele>8.3999996185302734375</ele>
        <time>2026-08-15T16:53:53.000Z</time>
        <extensions>
          <ns3:TrackPointExtension>
            <ns3:hr>155</ns3:hr>
          </ns3:TrackPointExtension>
        </extensions>
      </trkpt>
      <trkpt lat="47.5628079660236835479736328125" lon="-3.054130487143993377685546875">
        <ele>8.6000003814697265625</ele>
        <time>2026-08-15T16:53:54.000Z</time>
        <extensions>
          <ns3:TrackPointExtension>
            <ns3:hr>155</ns3:hr>
          </ns3:TrackPointExtension>
        </extensions>
      </trkpt>
      <trkpt lat="47.56274719722568988800048828125" lon="-3.05414649657905101776123046875">
        <ele>8.6000003814697265625</ele>
        <time>2026-08-15T16:53:55.000Z</time>
        <extensions>
          <ns3:TrackPointExtension>
            <ns3:hr>154</ns3:hr>
          </ns3:TrackPointExtension>
        </extensions>
      </trkpt>
      <trkpt lat="47.56268533878028392791748046875" lon="-3.05417164228856563568115234375">
        <ele>8.80000019073486328125</ele>
        <time>2026-08-15T16:53:56.000Z</time>
        <extensions>
          <ns3:TrackPointExtension>
            <ns3:hr>154</ns3:hr>
          </ns3:TrackPointExtension>
        </extensions>
      </trkpt>
      <trkpt lat="47.562622390687465667724609375" lon="-3.05419460870325565338134765625">
        <ele>9</ele>
        <time>2026-08-15T16:53:57.000Z</time>
        <extensions>
          <ns3:TrackPointExtension>
            <ns3:hr>155</ns3:hr>
          </ns3:TrackPointExtension>
        </extensions>
      </trkpt>
      <trkpt lat="47.5625571794807910919189453125" lon="-3.05421807803213596343994140625">
        <ele>9</ele>
        <time>2026-08-15T16:53:58.000Z</time>
        <extensions>
          <ns3:TrackPointExtension>
            <ns3:hr>155</ns3:hr>
          </ns3:TrackPointExtension>
        </extensions>
      </trkpt>
      <trkpt lat="47.56248786114156246185302734375" lon="-3.0542412959039211273193359375">
        <ele>8.6000003814697265625</ele>
        <time>2026-08-15T16:53:59.000Z</time>
        <extensions>
          <ns3:TrackPointExtension>
            <ns3:hr>156</ns3:hr>
          </ns3:TrackPointExtension>
        </extensions>
      </trkpt>
      <trkpt lat="47.56241912953555583953857421875" lon="-3.05425797589123249053955078125">
        <ele>8.80000019073486328125</ele>
        <time>2026-08-15T16:54:00.000Z</time>
        <extensions>
          <ns3:TrackPointExtension>
            <ns3:hr>156</ns3:hr>
          </ns3:TrackPointExtension>
        </extensions>
      </trkpt>
      <trkpt lat="47.56234981119632720947265625" lon="-3.054277002811431884765625">
        <ele>9</ele>
        <time>2026-08-15T16:54:01.000Z</time>
        <extensions>
          <ns3:TrackPointExtension>
            <ns3:hr>156</ns3:hr>
          </ns3:TrackPointExtension>
        </extensions>
      </trkpt>
      <trkpt lat="47.5622809119522571563720703125" lon="-3.05430893786251544952392578125">
        <ele>8.80000019073486328125</ele>
        <time>2026-08-15T16:54:02.000Z</time>
        <extensions>
          <ns3:TrackPointExtension>
            <ns3:hr>156</ns3:hr>
          </ns3:TrackPointExtension>
        </extensions>
      </trkpt>
      <trkpt lat="47.5622115097939968109130859375" lon="-3.05433123372495174407958984375">
        <ele>8.80000019073486328125</ele>
        <time>2026-08-15T16:54:03.000Z</time>
        <extensions>
          <ns3:TrackPointExtension>
            <ns3:hr>155</ns3:hr>
          </ns3:TrackPointExtension>
        </extensions>
      </trkpt>
      <trkpt lat="47.562136240303516387939453125" lon="-3.054357804358005523681640625">
        <ele>9.19999980926513671875</ele>
        <time>2026-08-15T16:54:04.000Z</time>
        <extensions>
          <ns3:TrackPointExtension>
            <ns3:hr>154</ns3:hr>
          </ns3:TrackPointExtension>
        </extensions>
      </trkpt>
      <trkpt lat="47.5620639882981777191162109375" lon="-3.05437582544982433319091796875">
        <ele>9.3999996185302734375</ele>
        <time>2026-08-15T16:54:05.000Z</time>
        <extensions>
          <ns3:TrackPointExtension>
            <ns3:hr>154</ns3:hr>
          </ns3:TrackPointExtension>
        </extensions>
      </trkpt>
      <trkpt lat="47.561989389359951019287109375" lon="-3.05439569056034088134765625">
        <ele>9.19999980926513671875</ele>
        <time>2026-08-15T16:54:06.000Z</time>
        <extensions>
          <ns3:TrackPointExtension>
            <ns3:hr>154</ns3:hr>
          </ns3:TrackPointExtension>
        </extensions>
      </trkpt>
      <trkpt lat="47.56191353313624858856201171875" lon="-3.0544099397957324981689453125">
        <ele>8.80000019073486328125</ele>
        <time>2026-08-15T16:54:07.000Z</time>
        <extensions>
          <ns3:TrackPointExtension>
            <ns3:hr>154</ns3:hr>
          </ns3:TrackPointExtension>
        </extensions>
      </trkpt>
      <trkpt lat="47.5618349947035312652587890625" lon="-3.05443047545850276947021484375">
        <ele>9.19999980926513671875</ele>
        <time>2026-08-15T16:54:08.000Z</time>
        <extensions>
          <ns3:TrackPointExtension>
            <ns3:hr>153</ns3:hr>
          </ns3:TrackPointExtension>
        </extensions>
      </trkpt>
      <trkpt lat="47.56175695918500423431396484375" lon="-3.0544531904160976409912109375">
        <ele>9.19999980926513671875</ele>
        <time>2026-08-15T16:54:09.000Z</time>
        <extensions>
          <ns3:TrackPointExtension>
            <ns3:hr>154</ns3:hr>
          </ns3:TrackPointExtension>
        </extensions>
      </trkpt>
      <trkpt lat="47.56168085150420665740966796875" lon="-3.05447347462177276611328125">
        <ele>9.19999980926513671875</ele>
        <time>2026-08-15T16:54:10.000Z</time>
        <extensions>
          <ns3:TrackPointExtension>
            <ns3:hr>154</ns3:hr>
          </ns3:TrackPointExtension>
        </extensions>
      </trkpt>
      <trkpt lat="47.56160709075629711151123046875" lon="-3.05449015460908412933349609375">
        <ele>9.80000019073486328125</ele>
        <time>2026-08-15T16:54:11.000Z</time>
        <extensions>
          <ns3:TrackPointExtension>
            <ns3:hr>154</ns3:hr>
          </ns3:TrackPointExtension>
        </extensions>
      </trkpt>
      <trkpt lat="47.56153098307549953460693359375" lon="-3.0545128695666790008544921875">
        <ele>9.80000019073486328125</ele>
        <time>2026-08-15T16:54:12.000Z</time>
        <extensions>
          <ns3:TrackPointExtension>
            <ns3:hr>154</ns3:hr>
          </ns3:TrackPointExtension>
        </extensions>
      </trkpt>
      <trkpt lat="47.56145454011857509613037109375" lon="-3.05453575216233730316162109375">
        <ele>9.6000003814697265625</ele>
        <time>2026-08-15T16:54:13.000Z</time>
        <extensions>
          <ns3:TrackPointExtension>
            <ns3:hr>154</ns3:hr>
          </ns3:TrackPointExtension>
        </extensions>
      </trkpt>
      <trkpt lat="47.56138128228485584259033203125" lon="-3.054560311138629913330078125">
        <ele>9.19999980926513671875</ele>
        <time>2026-08-15T16:54:14.000Z</time>
        <extensions>
          <ns3:TrackPointExtension>
            <ns3:hr>154</ns3:hr>
          </ns3:TrackPointExtension>
        </extensions>
      </trkpt>
      <trkpt lat="47.56130752153694629669189453125" lon="-3.05458067916333675384521484375">
        <ele>9.19999980926513671875</ele>
        <time>2026-08-15T16:54:15.000Z</time>
        <extensions>
          <ns3:TrackPointExtension>
            <ns3:hr>153</ns3:hr>
          </ns3:TrackPointExtension>
        </extensions>
      </trkpt>
      <trkpt lat="47.56123811937868595123291015625" lon="-3.05460431613028049468994140625">
        <ele>9</ele>
        <time>2026-08-15T16:54:16.000Z</time>
        <extensions>
          <ns3:TrackPointExtension>
            <ns3:hr>152</ns3:hr>
          </ns3:TrackPointExtension>
        </extensions>
      </trkpt>
      <trkpt lat="47.56117592565715312957763671875" lon="-3.05464454926550388336181640625">
        <ele>9.19999980926513671875</ele>
        <time>2026-08-15T16:54:17.000Z</time>
        <extensions>
          <ns3:TrackPointExtension>
            <ns3:hr>151</ns3:hr>
          </ns3:TrackPointExtension>
        </extensions>
      </trkpt>
      <trkpt lat="47.56112496368587017059326171875" lon="-3.0546982772648334503173828125">
        <ele>9.3999996185302734375</ele>
        <time>2026-08-15T16:54:18.000Z</time>
        <extensions>
          <ns3:TrackPointExtension>
            <ns3:hr>151</ns3:hr>
          </ns3:TrackPointExtension>
        </extensions>
      </trkpt>
      <trkpt lat="47.56107148714363574981689453125" lon="-3.05474898777902126312255859375">
        <ele>9.6000003814697265625</ele>
        <time>2026-08-15T16:54:19.000Z</time>
        <extensions>
          <ns3:TrackPointExtension>
            <ns3:hr>150</ns3:hr>
          </ns3:TrackPointExtension>
        </extensions>
      </trkpt>
      <trkpt lat="47.5610239617526531219482421875" lon="-3.054803051054477691650390625">
        <ele>10</ele>
        <time>2026-08-15T16:54:20.000Z</time>
        <extensions>
          <ns3:TrackPointExtension>
            <ns3:hr>150</ns3:hr>
          </ns3:TrackPointExtension>
        </extensions>
      </trkpt>
      <trkpt lat="47.560970485210418701171875" lon="-3.05485560558736324310302734375">
        <ele>10.19999980926513671875</ele>
        <time>2026-08-15T16:54:21.000Z</time>
        <extensions>
          <ns3:TrackPointExtension>
            <ns3:hr>149</ns3:hr>
          </ns3:TrackPointExtension>
        </extensions>
      </trkpt>
      <trkpt lat="47.56091482937335968017578125" lon="-3.05489935912191867828369140625">
        <ele>10.6000003814697265625</ele>
        <time>2026-08-15T16:54:22.000Z</time>
        <extensions>
          <ns3:TrackPointExtension>
            <ns3:hr>149</ns3:hr>
          </ns3:TrackPointExtension>
        </extensions>
      </trkpt>
      <trkpt lat="47.560858167707920074462890625" lon="-3.0549369938671588897705078125">
        <ele>10.6000003814697265625</ele>
        <time>2026-08-15T16:54:23.000Z</time>
        <extensions>
          <ns3:TrackPointExtension>
            <ns3:hr>148</ns3:hr>
          </ns3:TrackPointExtension>
        </extensions>
      </trkpt>
      <trkpt lat="47.56079974584281444549560546875" lon="-3.05497772991657257080078125">
        <ele>10.6000003814697265625</ele>
        <time>2026-08-15T16:54:24.000Z</time>
        <extensions>
          <ns3:TrackPointExtension>
            <ns3:hr>148</ns3:hr>
          </ns3:TrackPointExtension>
        </extensions>
      </trkpt>
      <trkpt lat="47.5607406534254550933837890625" lon="-3.0550194717943668365478515625">
        <ele>10.6000003814697265625</ele>
        <time>2026-08-15T16:54:25.000Z</time>
        <extensions>
          <ns3:TrackPointExtension>
            <ns3:hr>147</ns3:hr>
          </ns3:TrackPointExtension>
        </extensions>
      </trkpt>
      <trkpt lat="47.560681141912937164306640625" lon="-3.055064566433429718017578125">
        <ele>10.3999996185302734375</ele>
        <time>2026-08-15T16:54:26.000Z</time>
        <extensions>
          <ns3:TrackPointExtension>
            <ns3:hr>147</ns3:hr>
          </ns3:TrackPointExtension>
        </extensions>
      </trkpt>
      <trkpt lat="47.56061634980142116546630859375" lon="-3.055116869509220123291015625">
        <ele>10.19999980926513671875</ele>
        <time>2026-08-15T16:54:27.000Z</time>
        <extensions>
          <ns3:TrackPointExtension>
            <ns3:hr>147</ns3:hr>
          </ns3:TrackPointExtension>
        </extensions>
      </trkpt>
      <trkpt lat="47.560557089745998382568359375" lon="-3.0551716871559619903564453125">
        <ele>10.19999980926513671875</ele>
        <time>2026-08-15T16:54:28.000Z</time>
        <extensions>
          <ns3:TrackPointExtension>
            <ns3:hr>146</ns3:hr>
          </ns3:TrackPointExtension>
        </extensions>
      </trkpt>
      <trkpt lat="47.56049565039575099945068359375" lon="-3.055219464004039764404296875">
        <ele>10.3999996185302734375</ele>
        <time>2026-08-15T16:54:29.000Z</time>
        <extensions>
          <ns3:TrackPointExtension>
            <ns3:hr>146</ns3:hr>
          </ns3:TrackPointExtension>
        </extensions>
      </trkpt>
      <trkpt lat="47.56042859517037868499755859375" lon="-3.05526581592857837677001953125">
        <ele>10.3999996185302734375</ele>
        <time>2026-08-15T16:54:30.000Z</time>
        <extensions>
          <ns3:TrackPointExtension>
            <ns3:hr>146</ns3:hr>
          </ns3:TrackPointExtension>
        </extensions>
      </trkpt>
      <trkpt lat="47.56036053411662578582763671875" lon="-3.05530403740704059600830078125">
        <ele>10.3999996185302734375</ele>
        <time>2026-08-15T16:54:31.000Z</time>
        <extensions>
          <ns3:TrackPointExtension>
            <ns3:hr>145</ns3:hr>
          </ns3:TrackPointExtension>
        </extensions>
      </trkpt>
      <trkpt lat="47.5602927245199680328369140625" lon="-3.05534108541905879974365234375">
        <ele>10.6000003814697265625</ele>
        <time>2026-08-15T16:54:32.000Z</time>
        <extensions>
          <ns3:TrackPointExtension>
            <ns3:hr>145</ns3:hr>
          </ns3:TrackPointExtension>
        </extensions>
      </trkpt>
      <trkpt lat="47.56022089160978794097900390625" lon="-3.05537427775561809539794921875">
        <ele>10.6000003814697265625</ele>
        <time>2026-08-15T16:54:33.000Z</time>
        <extensions>
          <ns3:TrackPointExtension>
            <ns3:hr>145</ns3:hr>
          </ns3:TrackPointExtension>
        </extensions>
      </trkpt>
      <trkpt lat="47.56014897488057613372802734375" lon="-3.05540897883474826812744140625">
        <ele>10.3999996185302734375</ele>
        <time>2026-08-15T16:54:34.000Z</time>
        <extensions>
          <ns3:TrackPointExtension>
            <ns3:hr>145</ns3:hr>
          </ns3:TrackPointExtension>
        </extensions>
      </trkpt>
      <trkpt lat="47.5600786507129669189453125" lon="-3.05543932132422924041748046875">
        <ele>10.3999996185302734375</ele>
        <time>2026-08-15T16:54:35.000Z</time>
        <extensions>
          <ns3:TrackPointExtension>
            <ns3:hr>145</ns3:hr>
          </ns3:TrackPointExtension>
        </extensions>
      </trkpt>
      <trkpt lat="47.5600037164986133575439453125" lon="-3.05546916089951992034912109375">
        <ele>10.6000003814697265625</ele>
        <time>2026-08-15T16:54:36.000Z</time>
        <extensions>
          <ns3:TrackPointExtension>
            <ns3:hr>144</ns3:hr>
          </ns3:TrackPointExtension>
        </extensions>
      </trkpt>
      <trkpt lat="47.559932135045528411865234375" lon="-3.05550402961671352386474609375">
        <ele>10.6000003814697265625</ele>
        <time>2026-08-15T16:54:37.000Z</time>
        <extensions>
          <ns3:TrackPointExtension>
            <ns3:hr>144</ns3:hr>
          </ns3:TrackPointExtension>
        </extensions>
      </trkpt>
      <trkpt lat="47.559863068163394927978515625" lon="-3.05555163882672786712646484375">
        <ele>10.3999996185302734375</ele>
        <time>2026-08-15T16:54:38.000Z</time>
        <extensions>
          <ns3:TrackPointExtension>
            <ns3:hr>144</ns3:hr>
          </ns3:TrackPointExtension>
        </extensions>
      </trkpt>
      <trkpt lat="47.55980095826089382171630859375" lon="-3.05559958331286907196044921875">
        <ele>10.3999996185302734375</ele>
        <time>2026-08-15T16:54:39.000Z</time>
        <extensions>
          <ns3:TrackPointExtension>
            <ns3:hr>144</ns3:hr>
          </ns3:TrackPointExtension>
        </extensions>
      </trkpt>
      <trkpt lat="47.55974379368126392364501953125" lon="-3.055641241371631622314453125">
        <ele>10.19999980926513671875</ele>
        <time>2026-08-15T16:54:40.000Z</time>
        <extensions>
          <ns3:TrackPointExtension>
            <ns3:hr>143</ns3:hr>
          </ns3:TrackPointExtension>
        </extensions>
      </trkpt>
      <trkpt lat="47.55968310870230197906494140625" lon="-3.05567820556461811065673828125">
        <ele>10</ele>
        <time>2026-08-15T16:54:41.000Z</time>
        <extensions>
          <ns3:TrackPointExtension>
            <ns3:hr>143</ns3:hr>
          </ns3:TrackPointExtension>
        </extensions>
      </trkpt>
      <trkpt lat="47.55962259136140346527099609375" lon="-3.05572229437530040740966796875">
        <ele>10.6000003814697265625</ele>
        <time>2026-08-15T16:54:42.000Z</time>
        <extensions>
          <ns3:TrackPointExtension>
            <ns3:hr>142</ns3:hr>
          </ns3:TrackPointExtension>
        </extensions>
      </trkpt>
      <trkpt lat="47.5595609843730926513671875" lon="-3.05576269514858722686767578125">
        <ele>10.6000003814697265625</ele>
        <time>2026-08-15T16:54:43.000Z</time>
        <extensions>
          <ns3:TrackPointExtension>
            <ns3:hr>141</ns3:hr>
          </ns3:TrackPointExtension>
        </extensions>
      </trkpt>
      <trkpt lat="47.5594987906515598297119140625" lon="-3.05578197352588176727294921875">
        <ele>10.6000003814697265625</ele>
        <time>2026-08-15T16:54:44.000Z</time>
        <extensions>
          <ns3:TrackPointExtension>
            <ns3:hr>140</ns3:hr>
          </ns3:TrackPointExtension>
        </extensions>
      </trkpt>
      <trkpt lat="47.55943299271166324615478515625" lon="-3.05580711923539638519287109375">
        <ele>10.6000003814697265625</ele>
        <time>2026-08-15T16:54:45.000Z</time>
        <extensions>
          <ns3:TrackPointExtension>
            <ns3:hr>140</ns3:hr>
          </ns3:TrackPointExtension>
        </extensions>
      </trkpt>
      <trkpt lat="47.5593676976859569549560546875" lon="-3.055826984345912933349609375">
        <ele>10.3999996185302734375</ele>
        <time>2026-08-15T16:54:46.000Z</time>
        <extensions>
          <ns3:TrackPointExtension>
            <ns3:hr>140</ns3:hr>
          </ns3:TrackPointExtension>
        </extensions>
      </trkpt>
      <trkpt lat="47.5592981278896331787109375" lon="-3.0558546446263790130615234375">
        <ele>10</ele>
        <time>2026-08-15T16:54:47.000Z</time>
        <extensions>
          <ns3:TrackPointExtension>
            <ns3:hr>140</ns3:hr>
          </ns3:TrackPointExtension>
        </extensions>
      </trkpt>
      <trkpt lat="47.5592369399964809417724609375" lon="-3.055875934660434722900390625">
        <ele>9.80000019073486328125</ele>
        <time>2026-08-15T16:54:48.000Z</time>
        <extensions>
          <ns3:TrackPointExtension>
            <ns3:hr>139</ns3:hr>
          </ns3:TrackPointExtension>
        </extensions>
      </trkpt>
      <trkpt lat="47.55917466245591640472412109375" lon="-3.0559035949409008026123046875">
        <ele>9.3999996185302734375</ele>
        <time>2026-08-15T16:54:49.000Z</time>
        <extensions>
          <ns3:TrackPointExtension>
            <ns3:hr>139</ns3:hr>
          </ns3:TrackPointExtension>
        </extensions>
      </trkpt>
      <trkpt lat="47.55912185646593570709228515625" lon="-3.055928237736225128173828125">
        <ele>9.3999996185302734375</ele>
        <time>2026-08-15T16:54:50.000Z</time>
        <extensions>
          <ns3:TrackPointExtension>
            <ns3:hr>139</ns3:hr>
          </ns3:TrackPointExtension>
        </extensions>
      </trkpt>
      <trkpt lat="47.55905932746827602386474609375" lon="-3.055950701236724853515625">
        <ele>9.6000003814697265625</ele>
        <time>2026-08-15T16:54:51.000Z</time>
        <extensions>
          <ns3:TrackPointExtension>
            <ns3:hr>139</ns3:hr>
          </ns3:TrackPointExtension>
        </extensions>
      </trkpt>
      <trkpt lat="47.55898757837712764739990234375" lon="-3.05597207508981227874755859375">
        <ele>9.80000019073486328125</ele>
        <time>2026-08-15T16:54:52.000Z</time>
        <extensions>
          <ns3:TrackPointExtension>
            <ns3:hr>138</ns3:hr>
          </ns3:TrackPointExtension>
        </extensions>
      </trkpt>
      <trkpt lat="47.55891926586627960205078125" lon="-3.0559927783906459808349609375">
        <ele>9.80000019073486328125</ele>
        <time>2026-08-15T16:54:53.000Z</time>
        <extensions>
          <ns3:TrackPointExtension>
            <ns3:hr>138</ns3:hr>
          </ns3:TrackPointExtension>
        </extensions>
      </trkpt>
      <trkpt lat="47.55885682068765163421630859375" lon="-3.0560110509395599365234375">
        <ele>9.80000019073486328125</ele>
        <time>2026-08-15T16:54:54.000Z</time>
        <extensions>
          <ns3:TrackPointExtension>
            <ns3:hr>138</ns3:hr>
          </ns3:TrackPointExtension>
        </extensions>
      </trkpt>
      <trkpt lat="47.55879395641386508941650390625" lon="-3.0560330115258693695068359375">
        <ele>9.6000003814697265625</ele>
        <time>2026-08-15T16:54:55.000Z</time>
        <extensions>
          <ns3:TrackPointExtension>
            <ns3:hr>138</ns3:hr>
          </ns3:TrackPointExtension>
        </extensions>
      </trkpt>
      <trkpt lat="47.55872891284525394439697265625" lon="-3.05604499764740467071533203125">
        <ele>9.6000003814697265625</ele>
        <time>2026-08-15T16:54:56.000Z</time>
        <extensions>
          <ns3:TrackPointExtension>
            <ns3:hr>138</ns3:hr>
          </ns3:TrackPointExtension>
        </extensions>
      </trkpt>
      <trkpt lat="47.55866152234375476837158203125" lon="-3.05604935623705387115478515625">
        <ele>9.19999980926513671875</ele>
        <time>2026-08-15T16:54:57.000Z</time>
        <extensions>
          <ns3:TrackPointExtension>
            <ns3:hr>137</ns3:hr>
          </ns3:TrackPointExtension>
        </extensions>
      </trkpt>
      <trkpt lat="47.5586005859076976776123046875" lon="-3.05603795684874057769775390625">
        <ele>8.80000019073486328125</ele>
        <time>2026-08-15T16:54:58.000Z</time>
        <extensions>
          <ns3:TrackPointExtension>
            <ns3:hr>136</ns3:hr>
          </ns3:TrackPointExtension>
        </extensions>
      </trkpt>
      <trkpt lat="47.55853973329067230224609375" lon="-3.0559927783906459808349609375">
        <ele>8.6000003814697265625</ele>
        <time>2026-08-15T16:54:59.000Z</time>
        <extensions>
          <ns3:TrackPointExtension>
            <ns3:hr>136</ns3:hr>
          </ns3:TrackPointExtension>
        </extensions>
      </trkpt>
      <trkpt lat="47.55848407745361328125" lon="-3.0559337697923183441162109375">
        <ele>8.6000003814697265625</ele>
        <time>2026-08-15T16:55:00.000Z</time>
        <extensions>
          <ns3:TrackPointExtension>
            <ns3:hr>135</ns3:hr>
          </ns3:TrackPointExtension>
        </extensions>
      </trkpt>
      <trkpt lat="47.5584440119564533233642578125" lon="-3.05586596019566059112548828125">
        <ele>8.3999996185302734375</ele>
        <time>2026-08-15T16:55:01.000Z</time>
        <extensions>
          <ns3:TrackPointExtension>
            <ns3:hr>135</ns3:hr>
          </ns3:TrackPointExtension>
        </extensions>
      </trkpt>
      <trkpt lat="47.55843110382556915283203125" lon="-3.05578884668648242950439453125">
        <ele>8.19999980926513671875</ele>
        <time>2026-08-15T16:55:02.000Z</time>
        <extensions>
          <ns3:TrackPointExtension>
            <ns3:hr>134</ns3:hr>
          </ns3:TrackPointExtension>
        </extensions>
      </trkpt>
      <trkpt lat="47.55844409577548503875732421875" lon="-3.0557118169963359832763671875">
        <ele>8.19999980926513671875</ele>
        <time>2026-08-15T16:55:03.000Z</time>
        <extensions>
          <ns3:TrackPointExtension>
            <ns3:hr>134</ns3:hr>
          </ns3:TrackPointExtension>
        </extensions>
      </trkpt>
      <trkpt lat="47.5584761984646320343017578125" lon="-3.0556601844727993011474609375">
        <ele>7.19999980926513671875</ele>
        <time>2026-08-15T16:55:04.000Z</time>
        <extensions>
          <ns3:TrackPointExtension>
            <ns3:hr>134</ns3:hr>
          </ns3:TrackPointExtension>
        </extensions>
      </trkpt>
      <trkpt lat="47.55850612185895442962646484375" lon="-3.055612407624721527099609375">
        <ele>6</ele>
        <time>2026-08-15T16:55:05.000Z</time>
        <extensions>
          <ns3:TrackPointExtension>
            <ns3:hr>135</ns3:hr>
          </ns3:TrackPointExtension>
        </extensions>
      </trkpt>
      <trkpt lat="47.55854803137481212615966796875" lon="-3.055591285228729248046875">
        <ele>2</ele>
        <time>2026-08-15T16:55:06.000Z</time>
        <extensions>
          <ns3:TrackPointExtension>
            <ns3:hr>135</ns3:hr>
          </ns3:TrackPointExtension>
        </extensions>
      </trkpt>
      <trkpt lat="47.55857267417013645172119140625" lon="-3.05556739680469036102294921875">
        <ele>0</ele>
        <time>2026-08-15T16:55:07.000Z</time>
        <extensions>
          <ns3:TrackPointExtension>
            <ns3:hr>135</ns3:hr>
          </ns3:TrackPointExtension>
        </extensions>
      </trkpt>
      <trkpt lat="47.55859513767063617706298828125" lon="-3.05553202517330646514892578125">
        <ele>-2</ele>
        <time>2026-08-15T16:55:08.000Z</time>
        <extensions>
          <ns3:TrackPointExtension>
            <ns3:hr>136</ns3:hr>
          </ns3:TrackPointExtension>
        </extensions>
      </trkpt>
      <trkpt lat="47.558617182075977325439453125" lon="-3.05549581535160541534423828125">
        <ele>-3.7999999523162841796875</ele>
        <time>2026-08-15T16:55:09.000Z</time>
        <extensions>
          <ns3:TrackPointExtension>
            <ns3:hr>136</ns3:hr>
          </ns3:TrackPointExtension>
        </extensions>
      </trkpt>
      <trkpt lat="47.55863889120519161224365234375" lon="-3.05546044372022151947021484375">
        <ele>-5.80000019073486328125</ele>
        <time>2026-08-15T16:55:10.000Z</time>
        <extensions>
          <ns3:TrackPointExtension>
            <ns3:hr>136</ns3:hr>
          </ns3:TrackPointExtension>
        </extensions>
      </trkpt>
      <trkpt lat="47.55865917541086673736572265625" lon="-3.0554328672587871551513671875">
        <ele>-7.80000019073486328125</ele>
        <time>2026-08-15T16:55:11.000Z</time>
        <extensions>
          <ns3:TrackPointExtension>
            <ns3:hr>135</ns3:hr>
          </ns3:TrackPointExtension>
        </extensions>
      </trkpt>
      <trkpt lat="47.55862480960786342620849609375" lon="-3.055495731532573699951171875">
        <ele>-9.80000019073486328125</ele>
        <time>2026-08-15T16:55:12.000Z</time>
        <extensions>
          <ns3:TrackPointExtension>
            <ns3:hr>135</ns3:hr>
          </ns3:TrackPointExtension>
        </extensions>
      </trkpt>
      <trkpt lat="47.55859295837581157684326171875" lon="-3.05556714534759521484375">
        <ele>-9.6000003814697265625</ele>
        <time>2026-08-15T16:55:13.000Z</time>
        <extensions>
          <ns3:TrackPointExtension>
            <ns3:hr>135</ns3:hr>
          </ns3:TrackPointExtension>
        </extensions>
      </trkpt>
      <trkpt lat="47.5585848279297351837158203125" lon="-3.0555891059339046478271484375">
        <ele>-9.3999996185302734375</ele>
        <time>2026-08-15T16:55:14.000Z</time>
        <extensions>
          <ns3:TrackPointExtension>
            <ns3:hr>135</ns3:hr>
          </ns3:TrackPointExtension>
        </extensions>
      </trkpt>
      <trkpt lat="47.558564879000186920166015625" lon="-3.05560142733156681060791015625">
        <ele>-9</ele>
        <time>2026-08-15T16:55:15.000Z</time>
        <extensions>
          <ns3:TrackPointExtension>
            <ns3:hr>134</ns3:hr>
          </ns3:TrackPointExtension>
        </extensions>
      </trkpt>
      <trkpt lat="47.55855440162122249603271484375" lon="-3.05561215616762638092041015625">
        <ele>-7.599999904632568359375</ele>
        <time>2026-08-15T16:55:16.000Z</time>
        <extensions>
          <ns3:TrackPointExtension>
            <ns3:hr>136</ns3:hr>
          </ns3:TrackPointExtension>
        </extensions>
      </trkpt>
      <trkpt lat="47.5585449300706386566162109375" lon="-3.05563696660101413726806640625">
        <ele>-5.80000019073486328125</ele>
        <time>2026-08-15T16:55:17.000Z</time>
        <extensions>
          <ns3:TrackPointExtension>
            <ns3:hr>136</ns3:hr>
          </ns3:TrackPointExtension>
        </extensions>
      </trkpt>
      <trkpt lat="47.55851550959050655364990234375" lon="-3.05565121583640575408935546875">
        <ele>-4.19999980926513671875</ele>
        <time>2026-08-15T16:55:18.000Z</time>
        <extensions>
          <ns3:TrackPointExtension>
            <ns3:hr>136</ns3:hr>
          </ns3:TrackPointExtension>
        </extensions>
      </trkpt>
      <trkpt lat="47.5584922917187213897705078125" lon="-3.05567384697496891021728515625">
        <ele>-2.7999999523162841796875</ele>
        <time>2026-08-15T16:55:19.000Z</time>
        <extensions>
          <ns3:TrackPointExtension>
            <ns3:hr>136</ns3:hr>
          </ns3:TrackPointExtension>
        </extensions>
      </trkpt>
      <trkpt lat="47.5584922917187213897705078125" lon="-3.05567384697496891021728515625">
        <ele>-2.400000095367431640625</ele>
        <time>2026-08-15T16:55:20.000Z</time>
        <extensions>
          <ns3:TrackPointExtension>
            <ns3:hr>137</ns3:hr>
          </ns3:TrackPointExtension>
        </extensions>
      </trkpt>
      <trkpt lat="47.5584922917187213897705078125" lon="-3.05567384697496891021728515625">
        <ele>-1.7999999523162841796875</ele>
        <time>2026-08-15T16:55:21.000Z</time>
        <extensions>
          <ns3:TrackPointExtension>
            <ns3:hr>137</ns3:hr>
          </ns3:TrackPointExtension>
        </extensions>
      </trkpt>
      <trkpt lat="47.5584946386516094207763671875" lon="-3.05567300878465175628662109375">
        <ele>-1</ele>
        <time>2026-08-15T16:55:22.000Z</time>
        <extensions>
          <ns3:TrackPointExtension>
            <ns3:hr>137</ns3:hr>
          </ns3:TrackPointExtension>
        </extensions>
      </trkpt>
      <trkpt lat="47.55848885513842105865478515625" lon="-3.0556762777268886566162109375">
        <ele>-0.4000000059604644775390625</ele>
        <time>2026-08-15T16:55:23.000Z</time>
        <extensions>
          <ns3:TrackPointExtension>
            <ns3:hr>137</ns3:hr>
          </ns3:TrackPointExtension>
        </extensions>
      </trkpt>
      <trkpt lat="47.55848684348165988922119140625" lon="-3.055674768984317779541015625">
        <ele>0.60000002384185791015625</ele>
        <time>2026-08-15T16:55:24.000Z</time>
        <extensions>
          <ns3:TrackPointExtension>
            <ns3:hr>138</ns3:hr>
          </ns3:TrackPointExtension>
        </extensions>
      </trkpt>
      <trkpt lat="47.55847058258950710296630859375" lon="-3.05566613562405109405517578125">
        <ele>2</ele>
        <time>2026-08-15T16:55:25.000Z</time>
        <extensions>
          <ns3:TrackPointExtension>
            <ns3:hr>137</ns3:hr>
          </ns3:TrackPointExtension>
        </extensions>
      </trkpt>
      <trkpt lat="47.55846865475177764892578125" lon="-3.05565959773957729339599609375">
        <ele>2.400000095367431640625</ele>
        <time>2026-08-15T16:55:26.000Z</time>
        <extensions>
          <ns3:TrackPointExtension>
            <ns3:hr>137</ns3:hr>
          </ns3:TrackPointExtension>
        </extensions>
      </trkpt>
      <trkpt lat="47.55846865475177764892578125" lon="-3.05565959773957729339599609375">
        <ele>2.599999904632568359375</ele>
        <time>2026-08-15T16:55:27.000Z</time>
        <extensions>
          <ns3:TrackPointExtension>
            <ns3:hr>137</ns3:hr>
          </ns3:TrackPointExtension>
        </extensions>
      </trkpt>
      <trkpt lat="47.55846865475177764892578125" lon="-3.05565959773957729339599609375">
        <ele>2.599999904632568359375</ele>
        <time>2026-08-15T16:55:28.000Z</time>
        <extensions>
          <ns3:TrackPointExtension>
            <ns3:hr>138</ns3:hr>
          </ns3:TrackPointExtension>
        </extensions>
      </trkpt>
      <trkpt lat="47.55846865475177764892578125" lon="-3.05565959773957729339599609375">
        <ele>2.599999904632568359375</ele>
        <time>2026-08-15T16:55:29.000Z</time>
        <extensions>
          <ns3:TrackPointExtension>
            <ns3:hr>138</ns3:hr>
          </ns3:TrackPointExtension>
        </extensions>
      </trkpt>
      <trkpt lat="47.55846865475177764892578125" lon="-3.05565959773957729339599609375">
        <ele>2.599999904632568359375</ele>
        <time>2026-08-15T16:55:30.000Z</time>
        <extensions>
          <ns3:TrackPointExtension>
            <ns3:hr>139</ns3:hr>
          </ns3:TrackPointExtension>
        </extensions>
      </trkpt>
      <trkpt lat="47.55846865475177764892578125" lon="-3.05565959773957729339599609375">
        <ele>2.2000000476837158203125</ele>
        <time>2026-08-15T16:55:31.000Z</time>
        <extensions>
          <ns3:TrackPointExtension>
            <ns3:hr>140</ns3:hr>
          </ns3:TrackPointExtension>
        </extensions>
      </trkpt>
      <trkpt lat="47.55846865475177764892578125" lon="-3.05565959773957729339599609375">
        <ele>1.60000002384185791015625</ele>
        <time>2026-08-15T16:55:32.000Z</time>
        <extensions>
          <ns3:TrackPointExtension>
            <ns3:hr>141</ns3:hr>
          </ns3:TrackPointExtension>
        </extensions>
      </trkpt>
      <trkpt lat="47.55846865475177764892578125" lon="-3.05565959773957729339599609375">
        <ele>1.39999997615814208984375</ele>
        <time>2026-08-15T16:55:33.000Z</time>
        <extensions>
          <ns3:TrackPointExtension>
            <ns3:hr>141</ns3:hr>
          </ns3:TrackPointExtension>
        </extensions>
      </trkpt>
      <trkpt lat="47.55846865475177764892578125" lon="-3.05565959773957729339599609375">
        <ele>1.2000000476837158203125</ele>
        <time>2026-08-15T16:55:34.000Z</time>
        <extensions>
          <ns3:TrackPointExtension>
            <ns3:hr>141</ns3:hr>
          </ns3:TrackPointExtension>
        </extensions>
      </trkpt>
      <trkpt lat="47.55846865475177764892578125" lon="-3.05565959773957729339599609375">
        <ele>1</ele>
        <time>2026-08-15T16:55:35.000Z</time>
        <extensions>
          <ns3:TrackPointExtension>
            <ns3:hr>141</ns3:hr>
          </ns3:TrackPointExtension>
        </extensions>
      </trkpt>
      <trkpt lat="47.55847527645528316497802734375" lon="-3.0556516349315643310546875">
        <ele>0.60000002384185791015625</ele>
        <time>2026-08-15T16:55:36.000Z</time>
        <extensions>
          <ns3:TrackPointExtension>
            <ns3:hr>141</ns3:hr>
          </ns3:TrackPointExtension>
        </extensions>
      </trkpt>
      <trkpt lat="47.5584715045988559722900390625" lon="-3.05564903654158115386962890625">
        <ele>0.4000000059604644775390625</ele>
        <time>2026-08-15T16:55:37.000Z</time>
        <extensions>
          <ns3:TrackPointExtension>
            <ns3:hr>142</ns3:hr>
          </ns3:TrackPointExtension>
        </extensions>
      </trkpt>
      <trkpt lat="47.5584711693227291107177734375" lon="-3.05564082227647304534912109375">
        <ele>0.20000000298023223876953125</ele>
        <time>2026-08-15T16:55:38.000Z</time>
        <extensions>
          <ns3:TrackPointExtension>
            <ns3:hr>142</ns3:hr>
          </ns3:TrackPointExtension>
        </extensions>
      </trkpt>
      <trkpt lat="47.558468319475650787353515625" lon="-3.0556300096213817596435546875">
        <ele>0</ele>
        <time>2026-08-15T16:55:39.000Z</time>
        <extensions>
          <ns3:TrackPointExtension>
            <ns3:hr>144</ns3:hr>
          </ns3:TrackPointExtension>
        </extensions>
      </trkpt>
      <trkpt lat="47.55846119485795497894287109375" lon="-3.05561500601470470428466796875">
        <ele>-0.20000000298023223876953125</ele>
        <time>2026-08-15T16:55:40.000Z</time>
        <extensions>
          <ns3:TrackPointExtension>
            <ns3:hr>145</ns3:hr>
          </ns3:TrackPointExtension>
        </extensions>
      </trkpt>
      <trkpt lat="47.5584574230015277862548828125" lon="-3.05560880340635776519775390625">
        <ele>-0.60000002384185791015625</ele>
        <time>2026-08-15T16:55:41.000Z</time>
        <extensions>
          <ns3:TrackPointExtension>
            <ns3:hr>146</ns3:hr>
          </ns3:TrackPointExtension>
        </extensions>
      </trkpt>
      <trkpt lat="47.55845666863024234771728515625" lon="-3.0556001700460910797119140625">
        <ele>-0.800000011920928955078125</ele>
        <time>2026-08-15T16:55:42.000Z</time>
        <extensions>
          <ns3:TrackPointExtension>
            <ns3:hr>146</ns3:hr>
          </ns3:TrackPointExtension>
        </extensions>
      </trkpt>
      <trkpt lat="47.55845817737281322479248046875" lon="-3.0555951409041881561279296875">
        <ele>-1</ele>
        <time>2026-08-15T16:55:43.000Z</time>
        <extensions>
          <ns3:TrackPointExtension>
            <ns3:hr>146</ns3:hr>
          </ns3:TrackPointExtension>
        </extensions>
      </trkpt>
      <trkpt lat="47.558458261191844940185546875" lon="-3.05559405125677585601806640625">
        <ele>-1.2000000476837158203125</ele>
        <time>2026-08-15T16:55:44.000Z</time>
        <extensions>
          <ns3:TrackPointExtension>
            <ns3:hr>146</ns3:hr>
          </ns3:TrackPointExtension>
        </extensions>
      </trkpt>
      <trkpt lat="47.5584631226956844329833984375" lon="-3.0555964820086956024169921875">
        <ele>-1.2000000476837158203125</ele>
        <time>2026-08-15T16:55:45.000Z</time>
        <extensions>
          <ns3:TrackPointExtension>
            <ns3:hr>146</ns3:hr>
          </ns3:TrackPointExtension>
        </extensions>
      </trkpt>
      <trkpt lat="47.55846873857080936431884765625" lon="-3.055607713758945465087890625">
        <ele>-1.2000000476837158203125</ele>
        <time>2026-08-15T16:55:46.000Z</time>
        <extensions>
          <ns3:TrackPointExtension>
            <ns3:hr>146</ns3:hr>
          </ns3:TrackPointExtension>
        </extensions>
      </trkpt>
      <trkpt lat="47.5584746897220611572265625" lon="-3.05560947395861148834228515625">
        <ele>-1.39999997615814208984375</ele>
        <time>2026-08-15T16:55:47.000Z</time>
        <extensions>
          <ns3:TrackPointExtension>
            <ns3:hr>146</ns3:hr>
          </ns3:TrackPointExtension>
        </extensions>
      </trkpt>
      <trkpt lat="47.55847938358783721923828125" lon="-3.055608384311199188232421875">
        <ele>-1.60000002384185791015625</ele>
        <time>2026-08-15T16:55:48.000Z</time>
        <extensions>
          <ns3:TrackPointExtension>
            <ns3:hr>146</ns3:hr>
          </ns3:TrackPointExtension>
        </extensions>
      </trkpt>
      <trkpt lat="47.55848349072039127349853515625" lon="-3.0555948056280612945556640625">
        <ele>-2</ele>
        <time>2026-08-15T16:55:49.000Z</time>
        <extensions>
          <ns3:TrackPointExtension>
            <ns3:hr>145</ns3:hr>
          </ns3:TrackPointExtension>
        </extensions>
      </trkpt>
      <trkpt lat="47.5584929622709751129150390625" lon="-3.05559069849550724029541015625">
        <ele>-1.7999999523162841796875</ele>
        <time>2026-08-15T16:55:50.000Z</time>
        <extensions>
          <ns3:TrackPointExtension>
            <ns3:hr>145</ns3:hr>
          </ns3:TrackPointExtension>
        </extensions>
      </trkpt>
      <trkpt lat="47.5585041940212249755859375" lon="-3.05558801628649234771728515625">
        <ele>-1.39999997615814208984375</ele>
        <time>2026-08-15T16:55:51.000Z</time>
        <extensions>
          <ns3:TrackPointExtension>
            <ns3:hr>144</ns3:hr>
          </ns3:TrackPointExtension>
        </extensions>
      </trkpt>
      <trkpt lat="47.558521963655948638916015625" lon="-3.055584914982318878173828125">
        <ele>-0.60000002384185791015625</ele>
        <time>2026-08-15T16:55:52.000Z</time>
        <extensions>
          <ns3:TrackPointExtension>
            <ns3:hr>142</ns3:hr>
          </ns3:TrackPointExtension>
        </extensions>
      </trkpt>
      <trkpt lat="47.5585382245481014251708984375" lon="-3.05558365769684314727783203125">
        <ele>0.20000000298023223876953125</ele>
        <time>2026-08-15T16:55:53.000Z</time>
        <extensions>
          <ns3:TrackPointExtension>
            <ns3:hr>141</ns3:hr>
          </ns3:TrackPointExtension>
        </extensions>
      </trkpt>
      <trkpt lat="47.55855289287865161895751953125" lon="-3.05558122694492340087890625">
        <ele>0.800000011920928955078125</ele>
        <time>2026-08-15T16:55:54.000Z</time>
        <extensions>
          <ns3:TrackPointExtension>
            <ns3:hr>139</ns3:hr>
          </ns3:TrackPointExtension>
        </extensions>
      </trkpt>
      <trkpt lat="47.5585685670375823974609375" lon="-3.05557695217430591583251953125">
        <ele>1.60000002384185791015625</ele>
        <time>2026-08-15T16:55:55.000Z</time>
        <extensions>
          <ns3:TrackPointExtension>
            <ns3:hr>138</ns3:hr>
          </ns3:TrackPointExtension>
        </extensions>
      </trkpt>
      <trkpt lat="47.55858910270035266876220703125" lon="-3.0555666424334049224853515625">
        <ele>2.2000000476837158203125</ele>
        <time>2026-08-15T16:55:56.000Z</time>
        <extensions>
          <ns3:TrackPointExtension>
            <ns3:hr>136</ns3:hr>
          </ns3:TrackPointExtension>
        </extensions>
      </trkpt>
      <trkpt lat="47.558605782687664031982421875" lon="-3.0555649660527706146240234375">
        <ele>2.7999999523162841796875</ele>
        <time>2026-08-15T16:55:57.000Z</time>
        <extensions>
          <ns3:TrackPointExtension>
            <ns3:hr>135</ns3:hr>
          </ns3:TrackPointExtension>
        </extensions>
      </trkpt>
      <trkpt lat="47.55862363614141941070556640625" lon="-3.05555599741637706756591796875">
        <ele>2.7999999523162841796875</ele>
        <time>2026-08-15T16:55:58.000Z</time>
        <extensions>
          <ns3:TrackPointExtension>
            <ns3:hr>133</ns3:hr>
          </ns3:TrackPointExtension>
        </extensions>
      </trkpt>
      <trkpt lat="47.55863889120519161224365234375" lon="-3.05554778315126895904541015625">
        <ele>3.2000000476837158203125</ele>
        <time>2026-08-15T16:55:59.000Z</time>
        <extensions>
          <ns3:TrackPointExtension>
            <ns3:hr>127</ns3:hr>
          </ns3:TrackPointExtension>
        </extensions>
      </trkpt>
      <trkpt lat="47.558660767972469329833984375" lon="-3.05554107762873172760009765625">
        <ele>3.400000095367431640625</ele>
        <time>2026-08-15T16:56:00.000Z</time>
        <extensions>
          <ns3:TrackPointExtension>
            <ns3:hr>126</ns3:hr>
          </ns3:TrackPointExtension>
        </extensions>
      </trkpt>
      <trkpt lat="47.5586785376071929931640625" lon="-3.05552280507981777191162109375">
        <ele>3.599999904632568359375</ele>
        <time>2026-08-15T16:56:01.000Z</time>
        <extensions>
          <ns3:TrackPointExtension>
            <ns3:hr>124</ns3:hr>
          </ns3:TrackPointExtension>
        </extensions>
      </trkpt>
      <trkpt lat="47.55870292894542217254638671875" lon="-3.05549539625644683837890625">
        <ele>3.400000095367431640625</ele>
        <time>2026-08-15T16:56:02.000Z</time>
        <extensions>
          <ns3:TrackPointExtension>
            <ns3:hr>122</ns3:hr>
          </ns3:TrackPointExtension>
        </extensions>
      </trkpt>
      <trkpt lat="47.55873377434909343719482421875" lon="-3.0554771237075328826904296875">
        <ele>3</ele>
        <time>2026-08-15T16:56:03.000Z</time>
        <extensions>
          <ns3:TrackPointExtension>
            <ns3:hr>120</ns3:hr>
          </ns3:TrackPointExtension>
        </extensions>
      </trkpt>
      <trkpt lat="47.5587695650756359100341796875" lon="-3.0554801411926746368408203125">
        <ele>2.599999904632568359375</ele>
        <time>2026-08-15T16:56:04.000Z</time>
        <extensions>
          <ns3:TrackPointExtension>
            <ns3:hr>118</ns3:hr>
          </ns3:TrackPointExtension>
        </extensions>
      </trkpt>
      <trkpt lat="47.5588126480579376220703125" lon="-3.05547888390719890594482421875">
        <ele>2.2000000476837158203125</ele>
        <time>2026-08-15T16:56:05.000Z</time>
        <extensions>
          <ns3:TrackPointExtension>
            <ns3:hr>118</ns3:hr>
          </ns3:TrackPointExtension>
        </extensions>
      </trkpt>
      <trkpt lat="47.55886067636311054229736328125" lon="-3.05547117255628108978271484375">
        <ele>2.7999999523162841796875</ele>
        <time>2026-08-15T16:56:06.000Z</time>
        <extensions>
          <ns3:TrackPointExtension>
            <ns3:hr>120</ns3:hr>
          </ns3:TrackPointExtension>
        </extensions>
      </trkpt>
      <trkpt lat="47.55890862084925174713134765625" lon="-3.0554570071399211883544921875">
        <ele>3.7999999523162841796875</ele>
        <time>2026-08-15T16:56:07.000Z</time>
        <extensions>
          <ns3:TrackPointExtension>
            <ns3:hr>122</ns3:hr>
          </ns3:TrackPointExtension>
        </extensions>
      </trkpt>
      <trkpt lat="47.5589667074382305145263671875" lon="-3.05546320974826812744140625">
        <ele>4.80000019073486328125</ele>
        <time>2026-08-15T16:56:08.000Z</time>
        <extensions>
          <ns3:TrackPointExtension>
            <ns3:hr>123</ns3:hr>
          </ns3:TrackPointExtension>
        </extensions>
      </trkpt>
      <trkpt lat="47.55902680568397045135498046875" lon="-3.05547972209751605987548828125">
        <ele>5.80000019073486328125</ele>
        <time>2026-08-15T16:56:09.000Z</time>
        <extensions>
          <ns3:TrackPointExtension>
            <ns3:hr>124</ns3:hr>
          </ns3:TrackPointExtension>
        </extensions>
      </trkpt>
      <trkpt lat="47.5590840540826320648193359375" lon="-3.05549883283674716949462890625">
        <ele>6.19999980926513671875</ele>
        <time>2026-08-15T16:56:10.000Z</time>
        <extensions>
          <ns3:TrackPointExtension>
            <ns3:hr>125</ns3:hr>
          </ns3:TrackPointExtension>
        </extensions>
      </trkpt>
      <trkpt lat="47.55914197303354740142822265625" lon="-3.05551291443407535552978515625">
        <ele>6.599999904632568359375</ele>
        <time>2026-08-15T16:56:11.000Z</time>
        <extensions>
          <ns3:TrackPointExtension>
            <ns3:hr>126</ns3:hr>
          </ns3:TrackPointExtension>
        </extensions>
      </trkpt>
      <trkpt lat="47.55920567549765110015869140625" lon="-3.05553571321070194244384765625">
        <ele>6.400000095367431640625</ele>
        <time>2026-08-15T16:56:12.000Z</time>
        <extensions>
          <ns3:TrackPointExtension>
            <ns3:hr>127</ns3:hr>
          </ns3:TrackPointExtension>
        </extensions>
      </trkpt>
      <trkpt lat="47.55926795303821563720703125" lon="-3.05556337349116802215576171875">
        <ele>6.400000095367431640625</ele>
        <time>2026-08-15T16:56:13.000Z</time>
        <extensions>
          <ns3:TrackPointExtension>
            <ns3:hr>128</ns3:hr>
          </ns3:TrackPointExtension>
        </extensions>
      </trkpt>
      <trkpt lat="47.55932855419814586639404296875" lon="-3.05558885447680950164794921875">
        <ele>6.19999980926513671875</ele>
        <time>2026-08-15T16:56:14.000Z</time>
        <extensions>
          <ns3:TrackPointExtension>
            <ns3:hr>128</ns3:hr>
          </ns3:TrackPointExtension>
        </extensions>
      </trkpt>
      <trkpt lat="47.55939225666224956512451171875" lon="-3.05560628883540630340576171875">
        <ele>6.400000095367431640625</ele>
        <time>2026-08-15T16:56:15.000Z</time>
        <extensions>
          <ns3:TrackPointExtension>
            <ns3:hr>127</ns3:hr>
          </ns3:TrackPointExtension>
        </extensions>
      </trkpt>
      <trkpt lat="47.55945436656475067138671875" lon="-3.05563218891620635986328125">
        <ele>6.599999904632568359375</ele>
        <time>2026-08-15T16:56:16.000Z</time>
        <extensions>
          <ns3:TrackPointExtension>
            <ns3:hr>125</ns3:hr>
          </ns3:TrackPointExtension>
        </extensions>
      </trkpt>
      <trkpt lat="47.5595155544579029083251953125" lon="-3.05567032657563686370849609375">
        <ele>6.599999904632568359375</ele>
        <time>2026-08-15T16:56:17.000Z</time>
        <extensions>
          <ns3:TrackPointExtension>
            <ns3:hr>125</ns3:hr>
          </ns3:TrackPointExtension>
        </extensions>
      </trkpt>
      <trkpt lat="47.55957799963653087615966796875" lon="-3.0557131581008434295654296875">
        <ele>6.400000095367431640625</ele>
        <time>2026-08-15T16:56:18.000Z</time>
        <extensions>
          <ns3:TrackPointExtension>
            <ns3:hr>123</ns3:hr>
          </ns3:TrackPointExtension>
        </extensions>
      </trkpt>
      <trkpt lat="47.55963935516774654388427734375" lon="-3.05574844591319561004638671875">
        <ele>6.599999904632568359375</ele>
        <time>2026-08-15T16:56:19.000Z</time>
        <extensions>
          <ns3:TrackPointExtension>
            <ns3:hr>123</ns3:hr>
          </ns3:TrackPointExtension>
        </extensions>
      </trkpt>
      <trkpt lat="47.55969635210931301116943359375" lon="-3.0557865835726261138916015625">
        <ele>6.400000095367431640625</ele>
        <time>2026-08-15T16:56:20.000Z</time>
        <extensions>
          <ns3:TrackPointExtension>
            <ns3:hr>122</ns3:hr>
          </ns3:TrackPointExtension>
        </extensions>
      </trkpt>
      <trkpt lat="47.55975821055471897125244140625" lon="-3.0558191053569316864013671875">
        <ele>6.19999980926513671875</ele>
        <time>2026-08-15T16:56:21.000Z</time>
        <extensions>
          <ns3:TrackPointExtension>
            <ns3:hr>121</ns3:hr>
          </ns3:TrackPointExtension>
        </extensions>
      </trkpt>
      <trkpt lat="47.55982023663818836212158203125" lon="-3.055849783122539520263671875">
        <ele>6</ele>
        <time>2026-08-15T16:56:22.000Z</time>
        <extensions>
          <ns3:TrackPointExtension>
            <ns3:hr>120</ns3:hr>
          </ns3:TrackPointExtension>
        </extensions>
      </trkpt>
      <trkpt lat="47.5598816759884357452392578125" lon="-3.05587668903172016143798828125">
        <ele>6</ele>
        <time>2026-08-15T16:56:23.000Z</time>
        <extensions>
          <ns3:TrackPointExtension>
            <ns3:hr>126</ns3:hr>
          </ns3:TrackPointExtension>
        </extensions>
      </trkpt>
      <trkpt lat="47.55993959493935108184814453125" lon="-3.0559143237769603729248046875">
        <ele>6.19999980926513671875</ele>
        <time>2026-08-15T16:56:24.000Z</time>
        <extensions>
          <ns3:TrackPointExtension>
            <ns3:hr>135</ns3:hr>
          </ns3:TrackPointExtension>
        </extensions>
      </trkpt>
      <trkpt lat="47.5599983520805835723876953125" lon="-3.0559455044567584991455078125">
        <ele>6</ele>
        <time>2026-08-15T16:56:25.000Z</time>
        <extensions>
          <ns3:TrackPointExtension>
            <ns3:hr>148</ns3:hr>
          </ns3:TrackPointExtension>
        </extensions>
      </trkpt>
      <trkpt lat="47.56006029434502124786376953125" lon="-3.05596771650016307830810546875">
        <ele>5.80000019073486328125</ele>
        <time>2026-08-15T16:56:26.000Z</time>
        <extensions>
          <ns3:TrackPointExtension>
            <ns3:hr>154</ns3:hr>
          </ns3:TrackPointExtension>
        </extensions>
      </trkpt>
      <trkpt lat="47.56012600846588611602783203125" lon="-3.0559874139726161956787109375">
        <ele>5.80000019073486328125</ele>
        <time>2026-08-15T16:56:27.000Z</time>
        <extensions>
          <ns3:TrackPointExtension>
            <ns3:hr>156</ns3:hr>
          </ns3:TrackPointExtension>
        </extensions>
      </trkpt>
      <trkpt lat="47.5601894594728946685791015625" lon="-3.056007362902164459228515625">
        <ele>5.599999904632568359375</ele>
        <time>2026-08-15T16:56:28.000Z</time>
        <extensions>
          <ns3:TrackPointExtension>
            <ns3:hr>157</ns3:hr>
          </ns3:TrackPointExtension>
        </extensions>
      </trkpt>
      <trkpt lat="47.56025366485118865966796875" lon="-3.05601842701435089111328125">
        <ele>5.19999980926513671875</ele>
        <time>2026-08-15T16:56:29.000Z</time>
        <extensions>
          <ns3:TrackPointExtension>
            <ns3:hr>157</ns3:hr>
          </ns3:TrackPointExtension>
        </extensions>
      </trkpt>
      <trkpt lat="47.5603269226849079132080078125" lon="-3.05602404288947582244873046875">
        <ele>5</ele>
        <time>2026-08-15T16:56:30.000Z</time>
        <extensions>
          <ns3:TrackPointExtension>
            <ns3:hr>158</ns3:hr>
          </ns3:TrackPointExtension>
        </extensions>
      </trkpt>
      <trkpt lat="47.56040412001311779022216796875" lon="-3.05603007785975933074951171875">
        <ele>5</ele>
        <time>2026-08-15T16:56:31.000Z</time>
        <extensions>
          <ns3:TrackPointExtension>
            <ns3:hr>158</ns3:hr>
          </ns3:TrackPointExtension>
        </extensions>
      </trkpt>
      <trkpt lat="47.5604757852852344512939453125" lon="-3.056031502783298492431640625">
        <ele>5</ele>
        <time>2026-08-15T16:56:32.000Z</time>
        <extensions>
          <ns3:TrackPointExtension>
            <ns3:hr>158</ns3:hr>
          </ns3:TrackPointExtension>
        </extensions>
      </trkpt>
      <trkpt lat="47.56054694764316082000732421875" lon="-3.05604466237127780914306640625">
        <ele>5.19999980926513671875</ele>
        <time>2026-08-15T16:56:33.000Z</time>
        <extensions>
          <ns3:TrackPointExtension>
            <ns3:hr>157</ns3:hr>
          </ns3:TrackPointExtension>
        </extensions>
      </trkpt>
      <trkpt lat="47.5606192834675312042236328125" lon="-3.0560494400560855865478515625">
        <ele>5.599999904632568359375</ele>
        <time>2026-08-15T16:56:34.000Z</time>
        <extensions>
          <ns3:TrackPointExtension>
            <ns3:hr>156</ns3:hr>
          </ns3:TrackPointExtension>
        </extensions>
      </trkpt>
      <trkpt lat="47.5606928765773773193359375" lon="-3.056065030395984649658203125">
        <ele>5.80000019073486328125</ele>
        <time>2026-08-15T16:56:35.000Z</time>
        <extensions>
          <ns3:TrackPointExtension>
            <ns3:hr>156</ns3:hr>
          </ns3:TrackPointExtension>
        </extensions>
      </trkpt>
      <trkpt lat="47.56076806224882602691650390625" lon="-3.0560802854597568511962890625">
        <ele>5.599999904632568359375</ele>
        <time>2026-08-15T16:56:36.000Z</time>
        <extensions>
          <ns3:TrackPointExtension>
            <ns3:hr>156</ns3:hr>
          </ns3:TrackPointExtension>
        </extensions>
      </trkpt>
      <trkpt lat="47.5608439184725284576416015625" lon="-3.05608950555324554443359375">
        <ele>5.80000019073486328125</ele>
        <time>2026-08-15T16:56:37.000Z</time>
        <extensions>
          <ns3:TrackPointExtension>
            <ns3:hr>155</ns3:hr>
          </ns3:TrackPointExtension>
        </extensions>
      </trkpt>
      <trkpt lat="47.560912482440471649169921875" lon="-3.05610434152185916900634765625">
        <ele>5.80000019073486328125</ele>
        <time>2026-08-15T16:56:38.000Z</time>
        <extensions>
          <ns3:TrackPointExtension>
            <ns3:hr>155</ns3:hr>
          </ns3:TrackPointExtension>
        </extensions>
      </trkpt>
      <trkpt lat="47.5609887577593326568603515625" lon="-3.05612169206142425537109375">
        <ele>5.19999980926513671875</ele>
        <time>2026-08-15T16:56:39.000Z</time>
        <extensions>
          <ns3:TrackPointExtension>
            <ns3:hr>155</ns3:hr>
          </ns3:TrackPointExtension>
        </extensions>
      </trkpt>
      <trkpt lat="47.56106025539338588714599609375" lon="-3.05612814612686634063720703125">
        <ele>5</ele>
        <time>2026-08-15T16:56:40.000Z</time>
        <extensions>
          <ns3:TrackPointExtension>
            <ns3:hr>154</ns3:hr>
          </ns3:TrackPointExtension>
        </extensions>
      </trkpt>
      <trkpt lat="47.56113233976066112518310546875" lon="-3.05612839758396148681640625">
        <ele>5</ele>
        <time>2026-08-15T16:56:41.000Z</time>
        <extensions>
          <ns3:TrackPointExtension>
            <ns3:hr>154</ns3:hr>
          </ns3:TrackPointExtension>
        </extensions>
      </trkpt>
      <trkpt lat="47.5612053461372852325439453125" lon="-3.0561309121549129486083984375">
        <ele>5</ele>
        <time>2026-08-15T16:56:42.000Z</time>
        <extensions>
          <ns3:TrackPointExtension>
            <ns3:hr>154</ns3:hr>
          </ns3:TrackPointExtension>
        </extensions>
      </trkpt>
      <trkpt lat="47.5612760894000530242919921875" lon="-3.05613686330616474151611328125">
        <ele>4.80000019073486328125</ele>
        <time>2026-08-15T16:56:43.000Z</time>
        <extensions>
          <ns3:TrackPointExtension>
            <ns3:hr>154</ns3:hr>
          </ns3:TrackPointExtension>
        </extensions>
      </trkpt>
      <trkpt lat="47.561349682509899139404296875" lon="-3.0561344325542449951171875">
        <ele>5</ele>
        <time>2026-08-15T16:56:44.000Z</time>
        <extensions>
          <ns3:TrackPointExtension>
            <ns3:hr>154</ns3:hr>
          </ns3:TrackPointExtension>
        </extensions>
      </trkpt>
      <trkpt lat="47.56142168305814266204833984375" lon="-3.05612546391785144805908203125">
        <ele>5</ele>
        <time>2026-08-15T16:56:45.000Z</time>
        <extensions>
          <ns3:TrackPointExtension>
            <ns3:hr>154</ns3:hr>
          </ns3:TrackPointExtension>
        </extensions>
      </trkpt>
      <trkpt lat="47.56149443797767162322998046875" lon="-3.05612127296626567840576171875">
        <ele>4.80000019073486328125</ele>
        <time>2026-08-15T16:56:46.000Z</time>
        <extensions>
          <ns3:TrackPointExtension>
            <ns3:hr>154</ns3:hr>
          </ns3:TrackPointExtension>
        </extensions>
      </trkpt>
      <trkpt lat="47.56156601943075656890869140625" lon="-3.05612060241401195526123046875">
        <ele>4.80000019073486328125</ele>
        <time>2026-08-15T16:56:47.000Z</time>
        <extensions>
          <ns3:TrackPointExtension>
            <ns3:hr>153</ns3:hr>
          </ns3:TrackPointExtension>
        </extensions>
      </trkpt>
      <trkpt lat="47.5616405345499515533447265625" lon="-3.0561278946697711944580078125">
        <ele>5</ele>
        <time>2026-08-15T16:56:48.000Z</time>
        <extensions>
          <ns3:TrackPointExtension>
            <ns3:hr>153</ns3:hr>
          </ns3:TrackPointExtension>
        </extensions>
      </trkpt>
      <trkpt lat="47.56171069107949733734130859375" lon="-3.0561325885355472564697265625">
        <ele>5.19999980926513671875</ele>
        <time>2026-08-15T16:56:49.000Z</time>
        <extensions>
          <ns3:TrackPointExtension>
            <ns3:hr>153</ns3:hr>
          </ns3:TrackPointExtension>
        </extensions>
      </trkpt>
      <trkpt lat="47.56177824921905994415283203125" lon="-3.05614105425775051116943359375">
        <ele>5.400000095367431640625</ele>
        <time>2026-08-15T16:56:50.000Z</time>
        <extensions>
          <ns3:TrackPointExtension>
            <ns3:hr>152</ns3:hr>
          </ns3:TrackPointExtension>
        </extensions>
      </trkpt>
      <trkpt lat="47.56184329278767108917236328125" lon="-3.05616351775825023651123046875">
        <ele>5.80000019073486328125</ele>
        <time>2026-08-15T16:56:51.000Z</time>
        <extensions>
          <ns3:TrackPointExtension>
            <ns3:hr>152</ns3:hr>
          </ns3:TrackPointExtension>
        </extensions>
      </trkpt>
      <trkpt lat="47.56190397776663303375244140625" lon="-3.05616938509047031402587890625">
        <ele>5.400000095367431640625</ele>
        <time>2026-08-15T16:56:52.000Z</time>
        <extensions>
          <ns3:TrackPointExtension>
            <ns3:hr>152</ns3:hr>
          </ns3:TrackPointExtension>
        </extensions>
      </trkpt>
      <trkpt lat="47.56195644848048686981201171875" lon="-3.05613652803003787994384765625">
        <ele>4.599999904632568359375</ele>
        <time>2026-08-15T16:56:53.000Z</time>
        <extensions>
          <ns3:TrackPointExtension>
            <ns3:hr>152</ns3:hr>
          </ns3:TrackPointExtension>
        </extensions>
      </trkpt>
      <trkpt lat="47.56200313568115234375" lon="-3.05608975701034069061279296875">
        <ele>4.19999980926513671875</ele>
        <time>2026-08-15T16:56:54.000Z</time>
        <extensions>
          <ns3:TrackPointExtension>
            <ns3:hr>152</ns3:hr>
          </ns3:TrackPointExtension>
        </extensions>
      </trkpt>
      <trkpt lat="47.56205434910953044891357421875" lon="-3.05606142617762088775634765625">
        <ele>4</ele>
        <time>2026-08-15T16:56:55.000Z</time>
        <extensions>
          <ns3:TrackPointExtension>
            <ns3:hr>151</ns3:hr>
          </ns3:TrackPointExtension>
        </extensions>
      </trkpt>
      <trkpt lat="47.562118470668792724609375" lon="-3.0560802854597568511962890625">
        <ele>3.400000095367431640625</ele>
        <time>2026-08-15T16:56:56.000Z</time>
        <extensions>
          <ns3:TrackPointExtension>
            <ns3:hr>151</ns3:hr>
          </ns3:TrackPointExtension>
        </extensions>
      </trkpt>
      <trkpt lat="47.562172114849090576171875" lon="-3.05608573369681835174560546875">
        <ele>3.400000095367431640625</ele>
        <time>2026-08-15T16:56:57.000Z</time>
        <extensions>
          <ns3:TrackPointExtension>
            <ns3:hr>150</ns3:hr>
          </ns3:TrackPointExtension>
        </extensions>
      </trkpt>
      <trkpt lat="47.56221511401236057281494140625" lon="-3.0560360290110111236572265625">
        <ele>3.7999999523162841796875</ele>
        <time>2026-08-15T16:56:58.000Z</time>
        <extensions>
          <ns3:TrackPointExtension>
            <ns3:hr>150</ns3:hr>
          </ns3:TrackPointExtension>
        </extensions>
      </trkpt>
      <trkpt lat="47.56226222030818462371826171875" lon="-3.0559854023158550262451171875">
        <ele>4.400000095367431640625</ele>
        <time>2026-08-15T16:56:59.000Z</time>
        <extensions>
          <ns3:TrackPointExtension>
            <ns3:hr>150</ns3:hr>
          </ns3:TrackPointExtension>
        </extensions>
      </trkpt>
      <trkpt lat="47.56231703795492649078369140625" lon="-3.055981211364269256591796875">
        <ele>4.599999904632568359375</ele>
        <time>2026-08-15T16:57:00.000Z</time>
        <extensions>
          <ns3:TrackPointExtension>
            <ns3:hr>150</ns3:hr>
          </ns3:TrackPointExtension>
        </extensions>
      </trkpt>
      <trkpt lat="47.56237328052520751953125" lon="-3.05600878782570362091064453125">
        <ele>4.80000019073486328125</ele>
        <time>2026-08-15T16:57:01.000Z</time>
        <extensions>
          <ns3:TrackPointExtension>
            <ns3:hr>150</ns3:hr>
          </ns3:TrackPointExtension>
        </extensions>
      </trkpt>
      <trkpt lat="47.56242918781936168670654296875" lon="-3.056029491126537322998046875">
        <ele>5</ele>
        <time>2026-08-15T16:57:02.000Z</time>
        <extensions>
          <ns3:TrackPointExtension>
            <ns3:hr>149</ns3:hr>
          </ns3:TrackPointExtension>
        </extensions>
      </trkpt>
      <trkpt lat="47.562472857534885406494140625" lon="-3.05596838705241680145263671875">
        <ele>5.19999980926513671875</ele>
        <time>2026-08-15T16:57:03.000Z</time>
        <extensions>
          <ns3:TrackPointExtension>
            <ns3:hr>149</ns3:hr>
          </ns3:TrackPointExtension>
        </extensions>
      </trkpt>
      <trkpt lat="47.56251501850783824920654296875" lon="-3.055904768407344818115234375">
        <ele>3.7999999523162841796875</ele>
        <time>2026-08-15T16:57:04.000Z</time>
        <extensions>
          <ns3:TrackPointExtension>
            <ns3:hr>148</ns3:hr>
          </ns3:TrackPointExtension>
        </extensions>
      </trkpt>
      <trkpt lat="47.56256631575524806976318359375" lon="-3.0558881722390651702880859375">
        <ele>4.19999980926513671875</ele>
        <time>2026-08-15T16:57:05.000Z</time>
        <extensions>
          <ns3:TrackPointExtension>
            <ns3:hr>148</ns3:hr>
          </ns3:TrackPointExtension>
        </extensions>
      </trkpt>
      <trkpt lat="47.56261526606976985931396484375" lon="-3.05590921081602573394775390625">
        <ele>4</ele>
        <time>2026-08-15T16:57:06.000Z</time>
        <extensions>
          <ns3:TrackPointExtension>
            <ns3:hr>148</ns3:hr>
          </ns3:TrackPointExtension>
        </extensions>
      </trkpt>
      <trkpt lat="47.56266186945140361785888671875" lon="-3.05594508536159992218017578125">
        <ele>4.400000095367431640625</ele>
        <time>2026-08-15T16:57:07.000Z</time>
        <extensions>
          <ns3:TrackPointExtension>
            <ns3:hr>148</ns3:hr>
          </ns3:TrackPointExtension>
        </extensions>
      </trkpt>
      <trkpt lat="47.562713585793972015380859375" lon="-3.0559468455612659454345703125">
        <ele>5.400000095367431640625</ele>
        <time>2026-08-15T16:57:08.000Z</time>
        <extensions>
          <ns3:TrackPointExtension>
            <ns3:hr>148</ns3:hr>
          </ns3:TrackPointExtension>
        </extensions>
      </trkpt>
      <trkpt lat="47.5627647154033184051513671875" lon="-3.0559465102851390838623046875">
        <ele>5.80000019073486328125</ele>
        <time>2026-08-15T16:57:09.000Z</time>
        <extensions>
          <ns3:TrackPointExtension>
            <ns3:hr>147</ns3:hr>
          </ns3:TrackPointExtension>
        </extensions>
      </trkpt>
      <trkpt lat="47.56282179616391658782958984375" lon="-3.0559575743973255157470703125">
        <ele>6.19999980926513671875</ele>
        <time>2026-08-15T16:57:10.000Z</time>
        <extensions>
          <ns3:TrackPointExtension>
            <ns3:hr>147</ns3:hr>
          </ns3:TrackPointExtension>
        </extensions>
      </trkpt>
      <trkpt lat="47.562875188887119293212890625" lon="-3.05598347447812557220458984375">
        <ele>6.400000095367431640625</ele>
        <time>2026-08-15T16:57:11.000Z</time>
        <extensions>
          <ns3:TrackPointExtension>
            <ns3:hr>146</ns3:hr>
          </ns3:TrackPointExtension>
        </extensions>
      </trkpt>
      <trkpt lat="47.56292589940130710601806640625" lon="-3.05599336512386798858642578125">
        <ele>6.19999980926513671875</ele>
        <time>2026-08-15T16:57:12.000Z</time>
        <extensions>
          <ns3:TrackPointExtension>
            <ns3:hr>146</ns3:hr>
          </ns3:TrackPointExtension>
        </extensions>
      </trkpt>
      <trkpt lat="47.56297920830547809600830078125" lon="-3.0560056865215301513671875">
        <ele>5.80000019073486328125</ele>
        <time>2026-08-15T16:57:13.000Z</time>
        <extensions>
          <ns3:TrackPointExtension>
            <ns3:hr>146</ns3:hr>
          </ns3:TrackPointExtension>
        </extensions>
      </trkpt>
      <trkpt lat="47.5630332715809345245361328125" lon="-3.05603058077394962310791015625">
        <ele>5.599999904632568359375</ele>
        <time>2026-08-15T16:57:14.000Z</time>
        <extensions>
          <ns3:TrackPointExtension>
            <ns3:hr>146</ns3:hr>
          </ns3:TrackPointExtension>
        </extensions>
      </trkpt>
      <trkpt lat="47.5630845688283443450927734375" lon="-3.0560454167425632476806640625">
        <ele>5.400000095367431640625</ele>
        <time>2026-08-15T16:57:15.000Z</time>
        <extensions>
          <ns3:TrackPointExtension>
            <ns3:hr>146</ns3:hr>
          </ns3:TrackPointExtension>
        </extensions>
      </trkpt>
      <trkpt lat="47.56314248777925968170166015625" lon="-3.05605405010282993316650390625">
        <ele>5.19999980926513671875</ele>
        <time>2026-08-15T16:57:16.000Z</time>
        <extensions>
          <ns3:TrackPointExtension>
            <ns3:hr>146</ns3:hr>
          </ns3:TrackPointExtension>
        </extensions>
      </trkpt>
      <trkpt lat="47.56319998763501644134521484375" lon="-3.05606259964406490325927734375">
        <ele>5.599999904632568359375</ele>
        <time>2026-08-15T16:57:17.000Z</time>
        <extensions>
          <ns3:TrackPointExtension>
            <ns3:hr>146</ns3:hr>
          </ns3:TrackPointExtension>
        </extensions>
      </trkpt>
      <trkpt lat="47.56326050497591495513916015625" lon="-3.05607651360332965850830078125">
        <ele>5.599999904632568359375</ele>
        <time>2026-08-15T16:57:18.000Z</time>
        <extensions>
          <ns3:TrackPointExtension>
            <ns3:hr>146</ns3:hr>
          </ns3:TrackPointExtension>
        </extensions>
      </trkpt>
      <trkpt lat="47.56331699900329113006591796875" lon="-3.0560906790196895599365234375">
        <ele>5.599999904632568359375</ele>
        <time>2026-08-15T16:57:19.000Z</time>
        <extensions>
          <ns3:TrackPointExtension>
            <ns3:hr>146</ns3:hr>
          </ns3:TrackPointExtension>
        </extensions>
      </trkpt>
      <trkpt lat="47.563374079763889312744140625" lon="-3.05608573369681835174560546875">
        <ele>5.19999980926513671875</ele>
        <time>2026-08-15T16:57:20.000Z</time>
        <extensions>
          <ns3:TrackPointExtension>
            <ns3:hr>146</ns3:hr>
          </ns3:TrackPointExtension>
        </extensions>
      </trkpt>
      <trkpt lat="47.563423700630664825439453125" lon="-3.05604835040867328643798828125">
        <ele>4.80000019073486328125</ele>
        <time>2026-08-15T16:57:21.000Z</time>
        <extensions>
          <ns3:TrackPointExtension>
            <ns3:hr>146</ns3:hr>
          </ns3:TrackPointExtension>
        </extensions>
      </trkpt>
      <trkpt lat="47.56345697678625583648681640625" lon="-3.05599696934223175048828125">
        <ele>3.7999999523162841796875</ele>
        <time>2026-08-15T16:57:22.000Z</time>
        <extensions>
          <ns3:TrackPointExtension>
            <ns3:hr>146</ns3:hr>
          </ns3:TrackPointExtension>
        </extensions>
      </trkpt>
      <trkpt lat="47.5634986348450183868408203125" lon="-3.05594726465642452239990234375">
        <ele>3.2000000476837158203125</ele>
        <time>2026-08-15T16:57:23.000Z</time>
        <extensions>
          <ns3:TrackPointExtension>
            <ns3:hr>146</ns3:hr>
          </ns3:TrackPointExtension>
        </extensions>
      </trkpt>
      <trkpt lat="47.5635428912937641143798828125" lon="-3.0559156648814678192138671875">
        <ele>3.2000000476837158203125</ele>
        <time>2026-08-15T16:57:24.000Z</time>
        <extensions>
          <ns3:TrackPointExtension>
            <ns3:hr>146</ns3:hr>
          </ns3:TrackPointExtension>
        </extensions>
      </trkpt>
      <trkpt lat="47.56358890794217586517333984375" lon="-3.055885322391986846923828125">
        <ele>3.599999904632568359375</ele>
        <time>2026-08-15T16:57:25.000Z</time>
        <extensions>
          <ns3:TrackPointExtension>
            <ns3:hr>145</ns3:hr>
          </ns3:TrackPointExtension>
        </extensions>
      </trkpt>
      <trkpt lat="47.56363702006638050079345703125" lon="-3.0558982305228710174560546875">
        <ele>4.400000095367431640625</ele>
        <time>2026-08-15T16:57:26.000Z</time>
        <extensions>
          <ns3:TrackPointExtension>
            <ns3:hr>145</ns3:hr>
          </ns3:TrackPointExtension>
        </extensions>
      </trkpt>
      <trkpt lat="47.56368496455252170562744140625" lon="-3.05593653582036495208740234375">
        <ele>5</ele>
        <time>2026-08-15T16:57:27.000Z</time>
        <extensions>
          <ns3:TrackPointExtension>
            <ns3:hr>144</ns3:hr>
          </ns3:TrackPointExtension>
        </extensions>
      </trkpt>
      <trkpt lat="47.5637319870293140411376953125" lon="-3.0559642799198627471923828125">
        <ele>5.599999904632568359375</ele>
        <time>2026-08-15T16:57:28.000Z</time>
        <extensions>
          <ns3:TrackPointExtension>
            <ns3:hr>143</ns3:hr>
          </ns3:TrackPointExtension>
        </extensions>
      </trkpt>
      <trkpt lat="47.5637854635715484619140625" lon="-3.05597458966076374053955078125">
        <ele>5.599999904632568359375</ele>
        <time>2026-08-15T16:57:29.000Z</time>
        <extensions>
          <ns3:TrackPointExtension>
            <ns3:hr>142</ns3:hr>
          </ns3:TrackPointExtension>
        </extensions>
      </trkpt>
      <trkpt lat="47.56383751519024372100830078125" lon="-3.05597878061234951019287109375">
        <ele>5.19999980926513671875</ele>
        <time>2026-08-15T16:57:30.000Z</time>
        <extensions>
          <ns3:TrackPointExtension>
            <ns3:hr>142</ns3:hr>
          </ns3:TrackPointExtension>
        </extensions>
      </trkpt>
      <trkpt lat="47.563895769417285919189453125" lon="-3.05597676895558834075927734375">
        <ele>5.19999980926513671875</ele>
        <time>2026-08-15T16:57:31.000Z</time>
        <extensions>
          <ns3:TrackPointExtension>
            <ns3:hr>141</ns3:hr>
          </ns3:TrackPointExtension>
        </extensions>
      </trkpt>
      <trkpt lat="47.56394882686436176300048828125" lon="-3.0559850670397281646728515625">
        <ele>5</ele>
        <time>2026-08-15T16:57:32.000Z</time>
        <extensions>
          <ns3:TrackPointExtension>
            <ns3:hr>141</ns3:hr>
          </ns3:TrackPointExtension>
        </extensions>
      </trkpt>
      <trkpt lat="47.56400448270142078399658203125" lon="-3.055993616580963134765625">
        <ele>4.80000019073486328125</ele>
        <time>2026-08-15T16:57:33.000Z</time>
        <extensions>
          <ns3:TrackPointExtension>
            <ns3:hr>141</ns3:hr>
          </ns3:TrackPointExtension>
        </extensions>
      </trkpt>
      <trkpt lat="47.564066760241985321044921875" lon="-3.0559937842190265655517578125">
        <ele>5.19999980926513671875</ele>
        <time>2026-08-15T16:57:34.000Z</time>
        <extensions>
          <ns3:TrackPointExtension>
            <ns3:hr>141</ns3:hr>
          </ns3:TrackPointExtension>
        </extensions>
      </trkpt>
      <trkpt lat="47.5641323067247867584228515625" lon="-3.05599956773221492767333984375">
        <ele>5.19999980926513671875</ele>
        <time>2026-08-15T16:57:35.000Z</time>
        <extensions>
          <ns3:TrackPointExtension>
            <ns3:hr>142</ns3:hr>
          </ns3:TrackPointExtension>
        </extensions>
      </trkpt>
      <trkpt lat="47.5641893036663532257080078125" lon="-3.05601029656827449798583984375">
        <ele>5.19999980926513671875</ele>
        <time>2026-08-15T16:57:36.000Z</time>
        <extensions>
          <ns3:TrackPointExtension>
            <ns3:hr>142</ns3:hr>
          </ns3:TrackPointExtension>
        </extensions>
      </trkpt>
      <trkpt lat="47.564242780208587646484375" lon="-3.0560122244060039520263671875">
        <ele>5</ele>
        <time>2026-08-15T16:57:37.000Z</time>
        <extensions>
          <ns3:TrackPointExtension>
            <ns3:hr>142</ns3:hr>
          </ns3:TrackPointExtension>
        </extensions>
      </trkpt>
      <trkpt lat="47.56429768167436122894287109375" lon="-3.05600526742637157440185546875">
        <ele>5</ele>
        <time>2026-08-15T16:57:38.000Z</time>
        <extensions>
          <ns3:TrackPointExtension>
            <ns3:hr>142</ns3:hr>
          </ns3:TrackPointExtension>
        </extensions>
      </trkpt>
      <trkpt lat="47.5643567740917205810546875" lon="-3.05600769817829132080078125">
        <ele>5.19999980926513671875</ele>
        <time>2026-08-15T16:57:39.000Z</time>
        <extensions>
          <ns3:TrackPointExtension>
            <ns3:hr>142</ns3:hr>
          </ns3:TrackPointExtension>
        </extensions>
      </trkpt>
      <trkpt lat="47.56441645324230194091796875" lon="-3.056024797260761260986328125">
        <ele>5.400000095367431640625</ele>
        <time>2026-08-15T16:57:40.000Z</time>
        <extensions>
          <ns3:TrackPointExtension>
            <ns3:hr>141</ns3:hr>
          </ns3:TrackPointExtension>
        </extensions>
      </trkpt>
      <trkpt lat="47.564478479325771331787109375" lon="-3.0560350231826305389404296875">
        <ele>5.80000019073486328125</ele>
        <time>2026-08-15T16:57:41.000Z</time>
        <extensions>
          <ns3:TrackPointExtension>
            <ns3:hr>141</ns3:hr>
          </ns3:TrackPointExtension>
        </extensions>
      </trkpt>
      <trkpt lat="47.5645364820957183837890625" lon="-3.056044243276119232177734375">
        <ele>6</ele>
        <time>2026-08-15T16:57:42.000Z</time>
        <extensions>
          <ns3:TrackPointExtension>
            <ns3:hr>141</ns3:hr>
          </ns3:TrackPointExtension>
        </extensions>
      </trkpt>
      <trkpt lat="47.56459305994212627410888671875" lon="-3.0560578219592571258544921875">
        <ele>5.80000019073486328125</ele>
        <time>2026-08-15T16:57:43.000Z</time>
        <extensions>
          <ns3:TrackPointExtension>
            <ns3:hr>142</ns3:hr>
          </ns3:TrackPointExtension>
        </extensions>
      </trkpt>
      <trkpt lat="47.56464603357017040252685546875" lon="-3.056056983768939971923828125">
        <ele>5.400000095367431640625</ele>
        <time>2026-08-15T16:57:44.000Z</time>
        <extensions>
          <ns3:TrackPointExtension>
            <ns3:hr>142</ns3:hr>
          </ns3:TrackPointExtension>
        </extensions>
      </trkpt>
      <trkpt lat="47.56470621563494205474853515625" lon="-3.05605237372219562530517578125">
        <ele>5</ele>
        <time>2026-08-15T16:57:45.000Z</time>
        <extensions>
          <ns3:TrackPointExtension>
            <ns3:hr>142</ns3:hr>
          </ns3:TrackPointExtension>
        </extensions>
      </trkpt>
      <trkpt lat="47.564757764339447021484375" lon="-3.0560420639812946319580078125">
        <ele>4.599999904632568359375</ele>
        <time>2026-08-15T16:57:46.000Z</time>
        <extensions>
          <ns3:TrackPointExtension>
            <ns3:hr>141</ns3:hr>
          </ns3:TrackPointExtension>
        </extensions>
      </trkpt>
      <trkpt lat="47.5648149289190769195556640625" lon="-3.0560380406677722930908203125">
        <ele>4.400000095367431640625</ele>
        <time>2026-08-15T16:57:47.000Z</time>
        <extensions>
          <ns3:TrackPointExtension>
            <ns3:hr>141</ns3:hr>
          </ns3:TrackPointExtension>
        </extensions>
      </trkpt>
      <trkpt lat="47.564874105155467987060546875" lon="-3.05602236650884151458740234375">
        <ele>4.19999980926513671875</ele>
        <time>2026-08-15T16:57:48.000Z</time>
        <extensions>
          <ns3:TrackPointExtension>
            <ns3:hr>140</ns3:hr>
          </ns3:TrackPointExtension>
        </extensions>
      </trkpt>
      <trkpt lat="47.56492749787867069244384765625" lon="-3.05599856190383434295654296875">
        <ele>4.19999980926513671875</ele>
        <time>2026-08-15T16:57:49.000Z</time>
        <extensions>
          <ns3:TrackPointExtension>
            <ns3:hr>140</ns3:hr>
          </ns3:TrackPointExtension>
        </extensions>
      </trkpt>
      <trkpt lat="47.56498600356280803680419921875" lon="-3.0559662915766239166259765625">
        <ele>4.19999980926513671875</ele>
        <time>2026-08-15T16:57:50.000Z</time>
        <extensions>
          <ns3:TrackPointExtension>
            <ns3:hr>140</ns3:hr>
          </ns3:TrackPointExtension>
        </extensions>
      </trkpt>
      <trkpt lat="47.56504115648567676544189453125" lon="-3.05591574870049953460693359375">
        <ele>4</ele>
        <time>2026-08-15T16:57:51.000Z</time>
        <extensions>
          <ns3:TrackPointExtension>
            <ns3:hr>140</ns3:hr>
          </ns3:TrackPointExtension>
        </extensions>
      </trkpt>
      <trkpt lat="47.56508775986731052398681640625" lon="-3.05585204623639583587646484375">
        <ele>3.599999904632568359375</ele>
        <time>2026-08-15T16:57:52.000Z</time>
        <extensions>
          <ns3:TrackPointExtension>
            <ns3:hr>140</ns3:hr>
          </ns3:TrackPointExtension>
        </extensions>
      </trkpt>
      <trkpt lat="47.56512044928967952728271484375" lon="-3.05577258579432964324951171875">
        <ele>3.400000095367431640625</ele>
        <time>2026-08-15T16:57:53.000Z</time>
        <extensions>
          <ns3:TrackPointExtension>
            <ns3:hr>140</ns3:hr>
          </ns3:TrackPointExtension>
        </extensions>
      </trkpt>
      <trkpt lat="47.5651324354112148284912109375" lon="-3.0556937120854854583740234375">
        <ele>3.2000000476837158203125</ele>
        <time>2026-08-15T16:57:54.000Z</time>
        <extensions>
          <ns3:TrackPointExtension>
            <ns3:hr>140</ns3:hr>
          </ns3:TrackPointExtension>
        </extensions>
      </trkpt>
      <trkpt lat="47.5651250593364238739013671875" lon="-3.05560662411153316497802734375">
        <ele>2.7999999523162841796875</ele>
        <time>2026-08-15T16:57:55.000Z</time>
        <extensions>
          <ns3:TrackPointExtension>
            <ns3:hr>140</ns3:hr>
          </ns3:TrackPointExtension>
        </extensions>
      </trkpt>
      <trkpt lat="47.565102763473987579345703125" lon="-3.05553521029651165008544921875">
        <ele>2.400000095367431640625</ele>
        <time>2026-08-15T16:57:56.000Z</time>
        <extensions>
          <ns3:TrackPointExtension>
            <ns3:hr>141</ns3:hr>
          </ns3:TrackPointExtension>
        </extensions>
      </trkpt>
      <trkpt lat="47.56507367826998233795166015625" lon="-3.0554814822971820831298828125">
        <ele>2</ele>
        <time>2026-08-15T16:57:57.000Z</time>
        <extensions>
          <ns3:TrackPointExtension>
            <ns3:hr>140</ns3:hr>
          </ns3:TrackPointExtension>
        </extensions>
      </trkpt>
      <trkpt lat="47.565034367144107818603515625" lon="-3.05544267408549785614013671875">
        <ele>2.2000000476837158203125</ele>
        <time>2026-08-15T16:57:58.000Z</time>
        <extensions>
          <ns3:TrackPointExtension>
            <ns3:hr>139</ns3:hr>
          </ns3:TrackPointExtension>
        </extensions>
      </trkpt>
      <trkpt lat="47.56499773822724819183349609375" lon="-3.05541635490953922271728515625">
        <ele>2.599999904632568359375</ele>
        <time>2026-08-15T16:57:59.000Z</time>
        <extensions>
          <ns3:TrackPointExtension>
            <ns3:hr>139</ns3:hr>
          </ns3:TrackPointExtension>
        </extensions>
      </trkpt>
      <trkpt lat="47.56494945846498012542724609375" lon="-3.05540730245411396026611328125">
        <ele>2.7999999523162841796875</ele>
        <time>2026-08-15T16:58:00.000Z</time>
        <extensions>
          <ns3:TrackPointExtension>
            <ns3:hr>138</ns3:hr>
          </ns3:TrackPointExtension>
        </extensions>
      </trkpt>
      <trkpt lat="47.56490251980721950531005859375" lon="-3.0553983338177204132080078125">
        <ele>3.2000000476837158203125</ele>
        <time>2026-08-15T16:58:01.000Z</time>
        <extensions>
          <ns3:TrackPointExtension>
            <ns3:hr>138</ns3:hr>
          </ns3:TrackPointExtension>
        </extensions>
      </trkpt>
      <trkpt lat="47.56485759280622005462646484375" lon="-3.05539020337164402008056640625">
        <ele>3.400000095367431640625</ele>
        <time>2026-08-15T16:58:02.000Z</time>
        <extensions>
          <ns3:TrackPointExtension>
            <ns3:hr>139</ns3:hr>
          </ns3:TrackPointExtension>
        </extensions>
      </trkpt>
      <trkpt lat="47.56480612792074680328369140625" lon="-3.05538869462907314300537109375">
        <ele>3.599999904632568359375</ele>
        <time>2026-08-15T16:58:03.000Z</time>
        <extensions>
          <ns3:TrackPointExtension>
            <ns3:hr>139</ns3:hr>
          </ns3:TrackPointExtension>
        </extensions>
      </trkpt>
      <trkpt lat="47.56475416012108325958251953125" lon="-3.05539104156196117401123046875">
        <ele>3.400000095367431640625</ele>
        <time>2026-08-15T16:58:04.000Z</time>
        <extensions>
          <ns3:TrackPointExtension>
            <ns3:hr>140</ns3:hr>
          </ns3:TrackPointExtension>
        </extensions>
      </trkpt>
      <trkpt lat="47.5647019408643245697021484375" lon="-3.0553889460861682891845703125">
        <ele>3.2000000476837158203125</ele>
        <time>2026-08-15T16:58:05.000Z</time>
        <extensions>
          <ns3:TrackPointExtension>
            <ns3:hr>140</ns3:hr>
          </ns3:TrackPointExtension>
        </extensions>
      </trkpt>
      <trkpt lat="47.56465206854045391082763671875" lon="-3.05537612177431583404541015625">
        <ele>2.599999904632568359375</ele>
        <time>2026-08-15T16:58:06.000Z</time>
        <extensions>
          <ns3:TrackPointExtension>
            <ns3:hr>140</ns3:hr>
          </ns3:TrackPointExtension>
        </extensions>
      </trkpt>
      <trkpt lat="47.5646040402352809906005859375" lon="-3.0553852580487728118896484375">
        <ele>2</ele>
        <time>2026-08-15T16:58:07.000Z</time>
        <extensions>
          <ns3:TrackPointExtension>
            <ns3:hr>140</ns3:hr>
          </ns3:TrackPointExtension>
        </extensions>
      </trkpt>
      <trkpt lat="47.5645607896149158477783203125" lon="-3.05540981702506542205810546875">
        <ele>0.60000002384185791015625</ele>
        <time>2026-08-15T16:58:08.000Z</time>
        <extensions>
          <ns3:TrackPointExtension>
            <ns3:hr>140</ns3:hr>
          </ns3:TrackPointExtension>
        </extensions>
      </trkpt>
      <trkpt lat="47.56451376713812351226806640625" lon="-3.0554278381168842315673828125">
        <ele>-1</ele>
        <time>2026-08-15T16:58:09.000Z</time>
        <extensions>
          <ns3:TrackPointExtension>
            <ns3:hr>141</ns3:hr>
          </ns3:TrackPointExtension>
        </extensions>
      </trkpt>
      <trkpt lat="47.56446951068937778472900390625" lon="-3.05545239709317684173583984375">
        <ele>-2</ele>
        <time>2026-08-15T16:58:10.000Z</time>
        <extensions>
          <ns3:TrackPointExtension>
            <ns3:hr>141</ns3:hr>
          </ns3:TrackPointExtension>
        </extensions>
      </trkpt>
      <trkpt lat="47.56441854871809482574462890625" lon="-3.05545876733958721160888671875">
        <ele>-2.599999904632568359375</ele>
        <time>2026-08-15T16:58:11.000Z</time>
        <extensions>
          <ns3:TrackPointExtension>
            <ns3:hr>141</ns3:hr>
          </ns3:TrackPointExtension>
        </extensions>
      </trkpt>
      <trkpt lat="47.56436591036617755889892578125" lon="-3.05547502823173999786376953125">
        <ele>-2.599999904632568359375</ele>
        <time>2026-08-15T16:58:12.000Z</time>
        <extensions>
          <ns3:TrackPointExtension>
            <ns3:hr>141</ns3:hr>
          </ns3:TrackPointExtension>
        </extensions>
      </trkpt>
      <trkpt lat="47.56431846879422664642333984375" lon="-3.05547804571688175201416015625">
        <ele>-2.400000095367431640625</ele>
        <time>2026-08-15T16:58:13.000Z</time>
        <extensions>
          <ns3:TrackPointExtension>
            <ns3:hr>142</ns3:hr>
          </ns3:TrackPointExtension>
        </extensions>
      </trkpt>
      <trkpt lat="47.564267925918102264404296875" lon="-3.0554915405809879302978515625">
        <ele>-2</ele>
        <time>2026-08-15T16:58:14.000Z</time>
        <extensions>
          <ns3:TrackPointExtension>
            <ns3:hr>143</ns3:hr>
          </ns3:TrackPointExtension>
        </extensions>
      </trkpt>
      <trkpt lat="47.5642265193164348602294921875" lon="-3.0555005930364131927490234375">
        <ele>-1.60000002384185791015625</ele>
        <time>2026-08-15T16:58:15.000Z</time>
        <extensions>
          <ns3:TrackPointExtension>
            <ns3:hr>143</ns3:hr>
          </ns3:TrackPointExtension>
        </extensions>
      </trkpt>
      <trkpt lat="47.5641795806586742401123046875" lon="-3.05551492609083652496337890625">
        <ele>-1.60000002384185791015625</ele>
        <time>2026-08-15T16:58:16.000Z</time>
        <extensions>
          <ns3:TrackPointExtension>
            <ns3:hr>143</ns3:hr>
          </ns3:TrackPointExtension>
        </extensions>
      </trkpt>
      <trkpt lat="47.56413482129573822021484375" lon="-3.05554208345711231231689453125">
        <ele>-1.60000002384185791015625</ele>
        <time>2026-08-15T16:58:17.000Z</time>
        <extensions>
          <ns3:TrackPointExtension>
            <ns3:hr>144</ns3:hr>
          </ns3:TrackPointExtension>
        </extensions>
      </trkpt>
      <trkpt lat="47.56408981047570705413818359375" lon="-3.05558617226779460906982421875">
        <ele>-1.2000000476837158203125</ele>
        <time>2026-08-15T16:58:18.000Z</time>
        <extensions>
          <ns3:TrackPointExtension>
            <ns3:hr>144</ns3:hr>
          </ns3:TrackPointExtension>
        </extensions>
      </trkpt>
      <trkpt lat="47.5640481524169445037841796875" lon="-3.05564216338098049163818359375">
        <ele>-1</ele>
        <time>2026-08-15T16:58:19.000Z</time>
        <extensions>
          <ns3:TrackPointExtension>
            <ns3:hr>144</ns3:hr>
          </ns3:TrackPointExtension>
        </extensions>
      </trkpt>
      <trkpt lat="47.56400607526302337646484375" lon="-3.0556891858577728271484375">
        <ele>-0.800000011920928955078125</ele>
        <time>2026-08-15T16:58:20.000Z</time>
        <extensions>
          <ns3:TrackPointExtension>
            <ns3:hr>144</ns3:hr>
          </ns3:TrackPointExtension>
        </extensions>
      </trkpt>
      <trkpt lat="47.56396424956619739532470703125" lon="-3.055727072060108184814453125">
        <ele>-0.4000000059604644775390625</ele>
        <time>2026-08-15T16:58:21.000Z</time>
        <extensions>
          <ns3:TrackPointExtension>
            <ns3:hr>144</ns3:hr>
          </ns3:TrackPointExtension>
        </extensions>
      </trkpt>
      <trkpt lat="47.5639157183468341827392578125" lon="-3.05575397796928882598876953125">
        <ele>-0.4000000059604644775390625</ele>
        <time>2026-08-15T16:58:22.000Z</time>
        <extensions>
          <ns3:TrackPointExtension>
            <ns3:hr>145</ns3:hr>
          </ns3:TrackPointExtension>
        </extensions>
      </trkpt>
      <trkpt lat="47.56386299617588520050048828125" lon="-3.05577677674591541290283203125">
        <ele>-0.4000000059604644775390625</ele>
        <time>2026-08-15T16:58:23.000Z</time>
        <extensions>
          <ns3:TrackPointExtension>
            <ns3:hr>145</ns3:hr>
          </ns3:TrackPointExtension>
        </extensions>
      </trkpt>
      <trkpt lat="47.56381052546203136444091796875" lon="-3.05579303763806819915771484375">
        <ele>-0.800000011920928955078125</ele>
        <time>2026-08-15T16:58:24.000Z</time>
        <extensions>
          <ns3:TrackPointExtension>
            <ns3:hr>144</ns3:hr>
          </ns3:TrackPointExtension>
        </extensions>
      </trkpt>
      <trkpt lat="47.563752941787242889404296875" lon="-3.05580007843673229217529296875">
        <ele>-1</ele>
        <time>2026-08-15T16:58:25.000Z</time>
        <extensions>
          <ns3:TrackPointExtension>
            <ns3:hr>144</ns3:hr>
          </ns3:TrackPointExtension>
        </extensions>
      </trkpt>
      <trkpt lat="47.5636971183121204376220703125" lon="-3.0557812191545963287353515625">
        <ele>-1.39999997615814208984375</ele>
        <time>2026-08-15T16:58:26.000Z</time>
        <extensions>
          <ns3:TrackPointExtension>
            <ns3:hr>144</ns3:hr>
          </ns3:TrackPointExtension>
        </extensions>
      </trkpt>
      <trkpt lat="47.56365009583532810211181640625" lon="-3.055743165314197540283203125">
        <ele>-2</ele>
        <time>2026-08-15T16:58:27.000Z</time>
        <extensions>
          <ns3:TrackPointExtension>
            <ns3:hr>144</ns3:hr>
          </ns3:TrackPointExtension>
        </extensions>
      </trkpt>
      <trkpt lat="47.5636065937578678131103515625" lon="-3.0556880123913288116455078125">
        <ele>-2.400000095367431640625</ele>
        <time>2026-08-15T16:58:28.000Z</time>
        <extensions>
          <ns3:TrackPointExtension>
            <ns3:hr>145</ns3:hr>
          </ns3:TrackPointExtension>
        </extensions>
      </trkpt>
      <trkpt lat="47.56356694735586643218994140625" lon="-3.05563897825777530670166015625">
        <ele>-2.400000095367431640625</ele>
        <time>2026-08-15T16:58:29.000Z</time>
        <extensions>
          <ns3:TrackPointExtension>
            <ns3:hr>145</ns3:hr>
          </ns3:TrackPointExtension>
        </extensions>
      </trkpt>
      <trkpt lat="47.5635311566293239593505859375" lon="-3.055574186146259307861328125">
        <ele>-2.599999904632568359375</ele>
        <time>2026-08-15T16:58:30.000Z</time>
        <extensions>
          <ns3:TrackPointExtension>
            <ns3:hr>146</ns3:hr>
          </ns3:TrackPointExtension>
        </extensions>
      </trkpt>
      <trkpt lat="47.56351145915687084197998046875" lon="-3.05551224388182163238525390625">
        <ele>-2.599999904632568359375</ele>
        <time>2026-08-15T16:58:31.000Z</time>
        <extensions>
          <ns3:TrackPointExtension>
            <ns3:hr>146</ns3:hr>
          </ns3:TrackPointExtension>
        </extensions>
      </trkpt>
      <trkpt lat="47.56352336145937442779541015625" lon="-3.05544435046613216400146484375">
        <ele>-2.2000000476837158203125</ele>
        <time>2026-08-15T16:58:32.000Z</time>
        <extensions>
          <ns3:TrackPointExtension>
            <ns3:hr>146</ns3:hr>
          </ns3:TrackPointExtension>
        </extensions>
      </trkpt>
      <trkpt lat="47.56354917772114276885986328125" lon="-3.0553782172501087188720703125">
        <ele>-1.60000002384185791015625</ele>
        <time>2026-08-15T16:58:33.000Z</time>
        <extensions>
          <ns3:TrackPointExtension>
            <ns3:hr>146</ns3:hr>
          </ns3:TrackPointExtension>
        </extensions>
      </trkpt>
      <trkpt lat="47.5635789334774017333984375" lon="-3.0553265847265720367431640625">
        <ele>-1.2000000476837158203125</ele>
        <time>2026-08-15T16:58:34.000Z</time>
        <extensions>
          <ns3:TrackPointExtension>
            <ns3:hr>146</ns3:hr>
          </ns3:TrackPointExtension>
        </extensions>
      </trkpt>
      <trkpt lat="47.56360910832881927490234375" lon="-3.0552692525088787078857421875">
        <ele>-0.800000011920928955078125</ele>
        <time>2026-08-15T16:58:35.000Z</time>
        <extensions>
          <ns3:TrackPointExtension>
            <ns3:hr>146</ns3:hr>
          </ns3:TrackPointExtension>
        </extensions>
      </trkpt>
      <trkpt lat="47.56363986991345882415771484375" lon="-3.05522038601338863372802734375">
        <ele>-0.60000002384185791015625</ele>
        <time>2026-08-15T16:58:36.000Z</time>
        <extensions>
          <ns3:TrackPointExtension>
            <ns3:hr>145</ns3:hr>
          </ns3:TrackPointExtension>
        </extensions>
      </trkpt>
      <trkpt lat="47.56366384215652942657470703125" lon="-3.05516305379569530487060546875">
        <ele>-0.60000002384185791015625</ele>
        <time>2026-08-15T16:58:37.000Z</time>
        <extensions>
          <ns3:TrackPointExtension>
            <ns3:hr>146</ns3:hr>
          </ns3:TrackPointExtension>
        </extensions>
      </trkpt>
      <trkpt lat="47.56368848495185375213623046875" lon="-3.0551103316247463226318359375">
        <ele>-0.60000002384185791015625</ele>
        <time>2026-08-15T16:58:38.000Z</time>
        <extensions>
          <ns3:TrackPointExtension>
            <ns3:hr>146</ns3:hr>
          </ns3:TrackPointExtension>
        </extensions>
      </trkpt>
      <trkpt lat="47.56372067146003246307373046875" lon="-3.05506289005279541015625">
        <ele>-0.800000011920928955078125</ele>
        <time>2026-08-15T16:58:39.000Z</time>
        <extensions>
          <ns3:TrackPointExtension>
            <ns3:hr>146</ns3:hr>
          </ns3:TrackPointExtension>
        </extensions>
      </trkpt>
      <trkpt lat="47.563754953444004058837890625" lon="-3.05501804687082767486572265625">
        <ele>-0.800000011920928955078125</ele>
        <time>2026-08-15T16:58:40.000Z</time>
        <extensions>
          <ns3:TrackPointExtension>
            <ns3:hr>145</ns3:hr>
          </ns3:TrackPointExtension>
        </extensions>
      </trkpt>
      <trkpt lat="47.56377750076353549957275390625" lon="-3.0549638159573078155517578125">
        <ele>-0.800000011920928955078125</ele>
        <time>2026-08-15T16:58:41.000Z</time>
        <extensions>
          <ns3:TrackPointExtension>
            <ns3:hr>140</ns3:hr>
          </ns3:TrackPointExtension>
        </extensions>
      </trkpt>
      <trkpt lat="47.56378035061061382293701171875" lon="-3.05489969439804553985595703125">
        <ele>-0.800000011920928955078125</ele>
        <time>2026-08-15T16:58:42.000Z</time>
        <extensions>
          <ns3:TrackPointExtension>
            <ns3:hr>129</ns3:hr>
          </ns3:TrackPointExtension>
        </extensions>
      </trkpt>
      <trkpt lat="47.5637484155595302581787109375" lon="-3.05484772659838199615478515625">
        <ele>-0.60000002384185791015625</ele>
        <time>2026-08-15T16:58:43.000Z</time>
        <extensions>
          <ns3:TrackPointExtension>
            <ns3:hr>123</ns3:hr>
          </ns3:TrackPointExtension>
        </extensions>
      </trkpt>
      <trkpt lat="47.563701309263706207275390625" lon="-3.05485242046415805816650390625">
        <ele>-0.4000000059604644775390625</ele>
        <time>2026-08-15T16:58:44.000Z</time>
        <extensions>
          <ns3:TrackPointExtension>
            <ns3:hr>121</ns3:hr>
          </ns3:TrackPointExtension>
        </extensions>
      </trkpt>
      <trkpt lat="47.56367356516420841217041015625" lon="-3.05487672798335552215576171875">
        <ele>-0.20000000298023223876953125</ele>
        <time>2026-08-15T16:58:45.000Z</time>
        <extensions>
          <ns3:TrackPointExtension>
            <ns3:hr>126</ns3:hr>
          </ns3:TrackPointExtension>
        </extensions>
      </trkpt>
      <trkpt lat="47.563653029501438140869140625" lon="-3.05486767552793025970458984375">
        <ele>4.19999980926513671875</ele>
        <time>2026-08-15T16:58:46.000Z</time>
        <extensions>
          <ns3:TrackPointExtension>
            <ns3:hr>129</ns3:hr>
          </ns3:TrackPointExtension>
        </extensions>
      </trkpt>
      <trkpt lat="47.5636230222880840301513671875" lon="-3.05485778488218784332275390625">
        <ele>7.80000019073486328125</ele>
        <time>2026-08-15T16:58:47.000Z</time>
        <extensions>
          <ns3:TrackPointExtension>
            <ns3:hr>131</ns3:hr>
          </ns3:TrackPointExtension>
        </extensions>
      </trkpt>
      <trkpt lat="47.56358672864735126495361328125" lon="-3.05485107935965061187744140625">
        <ele>8</ele>
        <time>2026-08-15T16:58:48.000Z</time>
        <extensions>
          <ns3:TrackPointExtension>
            <ns3:hr>132</ns3:hr>
          </ns3:TrackPointExtension>
        </extensions>
      </trkpt>
      <trkpt lat="47.563550435006618499755859375" lon="-3.05484018288552761077880859375">
        <ele>7.80000019073486328125</ele>
        <time>2026-08-15T16:58:49.000Z</time>
        <extensions>
          <ns3:TrackPointExtension>
            <ns3:hr>133</ns3:hr>
          </ns3:TrackPointExtension>
        </extensions>
      </trkpt>
      <trkpt lat="47.56351397372782230377197265625" lon="-3.05484269745647907257080078125">
        <ele>7.80000019073486328125</ele>
        <time>2026-08-15T16:58:50.000Z</time>
        <extensions>
          <ns3:TrackPointExtension>
            <ns3:hr>133</ns3:hr>
          </ns3:TrackPointExtension>
        </extensions>
      </trkpt>
      <trkpt lat="47.56347231566905975341796875" lon="-3.05484822951257228851318359375">
        <ele>7.599999904632568359375</ele>
        <time>2026-08-15T16:58:51.000Z</time>
        <extensions>
          <ns3:TrackPointExtension>
            <ns3:hr>134</ns3:hr>
          </ns3:TrackPointExtension>
        </extensions>
      </trkpt>
      <trkpt lat="47.5634315796196460723876953125" lon="-3.05485912598669528961181640625">
        <ele>7.400000095367431640625</ele>
        <time>2026-08-15T16:58:52.000Z</time>
        <extensions>
          <ns3:TrackPointExtension>
            <ns3:hr>134</ns3:hr>
          </ns3:TrackPointExtension>
        </extensions>
      </trkpt>
      <trkpt lat="47.56338975392282009124755859375" lon="-3.0548706091940402984619140625">
        <ele>-0.60000002384185791015625</ele>
        <time>2026-08-15T16:58:53.000Z</time>
        <extensions>
          <ns3:TrackPointExtension>
            <ns3:hr>135</ns3:hr>
          </ns3:TrackPointExtension>
        </extensions>
      </trkpt>
      <trkpt lat="47.56335220299661159515380859375" lon="-3.05490572936832904815673828125">
        <ele>-1</ele>
        <time>2026-08-15T16:58:54.000Z</time>
        <extensions>
          <ns3:TrackPointExtension>
            <ns3:hr>135</ns3:hr>
          </ns3:TrackPointExtension>
        </extensions>
      </trkpt>
      <trkpt lat="47.56331884302198886871337890625" lon="-3.0549483932554721832275390625">
        <ele>-0.800000011920928955078125</ele>
        <time>2026-08-15T16:58:55.000Z</time>
        <extensions>
          <ns3:TrackPointExtension>
            <ns3:hr>135</ns3:hr>
          </ns3:TrackPointExtension>
        </extensions>
      </trkpt>
      <trkpt lat="47.56329386495053768157958984375" lon="-3.05498921312391757965087890625">
        <ele>-0.800000011920928955078125</ele>
        <time>2026-08-15T16:58:56.000Z</time>
        <extensions>
          <ns3:TrackPointExtension>
            <ns3:hr>135</ns3:hr>
          </ns3:TrackPointExtension>
        </extensions>
      </trkpt>
      <trkpt lat="47.563262768089771270751953125" lon="-3.0550352297723293304443359375">
        <ele>-0.60000002384185791015625</ele>
        <time>2026-08-15T16:58:57.000Z</time>
        <extensions>
          <ns3:TrackPointExtension>
            <ns3:hr>135</ns3:hr>
          </ns3:TrackPointExtension>
        </extensions>
      </trkpt>
      <trkpt lat="47.563231252133846282958984375" lon="-3.055075965821743011474609375">
        <ele>-0.60000002384185791015625</ele>
        <time>2026-08-15T16:58:58.000Z</time>
        <extensions>
          <ns3:TrackPointExtension>
            <ns3:hr>135</ns3:hr>
          </ns3:TrackPointExtension>
        </extensions>
      </trkpt>
      <trkpt lat="47.56319579668343067169189453125" lon="-3.055112175643444061279296875">
        <ele>-0.60000002384185791015625</ele>
        <time>2026-08-15T16:58:59.000Z</time>
        <extensions>
          <ns3:TrackPointExtension>
            <ns3:hr>135</ns3:hr>
          </ns3:TrackPointExtension>
        </extensions>
      </trkpt>
      <trkpt lat="47.5631687231361865997314453125" lon="-3.05515618063509464263916015625">
        <ele>-0.60000002384185791015625</ele>
        <time>2026-08-15T16:59:00.000Z</time>
        <extensions>
          <ns3:TrackPointExtension>
            <ns3:hr>136</ns3:hr>
          </ns3:TrackPointExtension>
        </extensions>
      </trkpt>
      <trkpt lat="47.5631382130086421966552734375" lon="-3.055206052958965301513671875">
        <ele>-0.60000002384185791015625</ele>
        <time>2026-08-15T16:59:01.000Z</time>
        <extensions>
          <ns3:TrackPointExtension>
            <ns3:hr>137</ns3:hr>
          </ns3:TrackPointExtension>
        </extensions>
      </trkpt>
      <trkpt lat="47.563110888004302978515625" lon="-3.055247962474822998046875">
        <ele>-0.60000002384185791015625</ele>
        <time>2026-08-15T16:59:02.000Z</time>
        <extensions>
          <ns3:TrackPointExtension>
            <ns3:hr>137</ns3:hr>
          </ns3:TrackPointExtension>
        </extensions>
      </trkpt>
      <trkpt lat="47.5630835629999637603759765625" lon="-3.05529364384710788726806640625">
        <ele>-0.4000000059604644775390625</ele>
        <time>2026-08-15T16:59:03.000Z</time>
        <extensions>
          <ns3:TrackPointExtension>
            <ns3:hr>138</ns3:hr>
          </ns3:TrackPointExtension>
        </extensions>
      </trkpt>
      <trkpt lat="47.56305699236690998077392578125" lon="-3.055330105125904083251953125">
        <ele>-0.60000002384185791015625</ele>
        <time>2026-08-15T16:59:04.000Z</time>
        <extensions>
          <ns3:TrackPointExtension>
            <ns3:hr>138</ns3:hr>
          </ns3:TrackPointExtension>
        </extensions>
      </trkpt>
      <trkpt lat="47.56302514113485813140869140625" lon="-3.05535449646413326263427734375">
        <ele>-0.800000011920928955078125</ele>
        <time>2026-08-15T16:59:05.000Z</time>
        <extensions>
          <ns3:TrackPointExtension>
            <ns3:hr>138</ns3:hr>
          </ns3:TrackPointExtension>
        </extensions>
      </trkpt>
      <trkpt lat="47.5629890151321887969970703125" lon="-3.05537863634526729583740234375">
        <ele>-0.800000011920928955078125</ele>
        <time>2026-08-15T16:59:06.000Z</time>
        <extensions>
          <ns3:TrackPointExtension>
            <ns3:hr>141</ns3:hr>
          </ns3:TrackPointExtension>
        </extensions>
      </trkpt>
      <trkpt lat="47.56294526159763336181640625" lon="-3.05540327914059162139892578125">
        <ele>-0.60000002384185791015625</ele>
        <time>2026-08-15T16:59:07.000Z</time>
        <extensions>
          <ns3:TrackPointExtension>
            <ns3:hr>144</ns3:hr>
          </ns3:TrackPointExtension>
        </extensions>
      </trkpt>
      <trkpt lat="47.56290368735790252685546875" lon="-3.05542205460369586944580078125">
        <ele>-0.60000002384185791015625</ele>
        <time>2026-08-15T16:59:08.000Z</time>
        <extensions>
          <ns3:TrackPointExtension>
            <ns3:hr>148</ns3:hr>
          </ns3:TrackPointExtension>
        </extensions>
      </trkpt>
      <trkpt lat="47.562864460051059722900390625" lon="-3.05543127469718456268310546875">
        <ele>-0.4000000059604644775390625</ele>
        <time>2026-08-15T16:59:09.000Z</time>
        <extensions>
          <ns3:TrackPointExtension>
            <ns3:hr>152</ns3:hr>
          </ns3:TrackPointExtension>
        </extensions>
      </trkpt>
      <trkpt lat="47.56282724440097808837890625" lon="-3.055452145636081695556640625">
        <ele>0.60000002384185791015625</ele>
        <time>2026-08-15T16:59:10.000Z</time>
        <extensions>
          <ns3:TrackPointExtension>
            <ns3:hr>155</ns3:hr>
          </ns3:TrackPointExtension>
        </extensions>
      </trkpt>
      <trkpt lat="47.562792710959911346435546875" lon="-3.05548056028783321380615234375">
        <ele>0.60000002384185791015625</ele>
        <time>2026-08-15T16:59:11.000Z</time>
        <extensions>
          <ns3:TrackPointExtension>
            <ns3:hr>156</ns3:hr>
          </ns3:TrackPointExtension>
        </extensions>
      </trkpt>
      <trkpt lat="47.562756836414337158203125" lon="-3.05551006458699703216552734375">
        <ele>0.20000000298023223876953125</ele>
        <time>2026-08-15T16:59:12.000Z</time>
        <extensions>
          <ns3:TrackPointExtension>
            <ns3:hr>156</ns3:hr>
          </ns3:TrackPointExtension>
        </extensions>
      </trkpt>
      <trkpt lat="47.56272490136325359344482421875" lon="-3.05552959442138671875">
        <ele>0</ele>
        <time>2026-08-15T16:59:13.000Z</time>
        <extensions>
          <ns3:TrackPointExtension>
            <ns3:hr>156</ns3:hr>
          </ns3:TrackPointExtension>
        </extensions>
      </trkpt>
      <trkpt lat="47.56269020028412342071533203125" lon="-3.05554241873323917388916015625">
        <ele>0</ele>
        <time>2026-08-15T16:59:14.000Z</time>
        <extensions>
          <ns3:TrackPointExtension>
            <ns3:hr>156</ns3:hr>
          </ns3:TrackPointExtension>
        </extensions>
      </trkpt>
      <trkpt lat="47.56265231408178806304931640625" lon="-3.05556781589984893798828125">
        <ele>-0.20000000298023223876953125</ele>
        <time>2026-08-15T16:59:15.000Z</time>
        <extensions>
          <ns3:TrackPointExtension>
            <ns3:hr>156</ns3:hr>
          </ns3:TrackPointExtension>
        </extensions>
      </trkpt>
      <trkpt lat="47.56261744536459445953369140625" lon="-3.05559354834258556365966796875">
        <ele>-0.60000002384185791015625</ele>
        <time>2026-08-15T16:59:16.000Z</time>
        <extensions>
          <ns3:TrackPointExtension>
            <ns3:hr>155</ns3:hr>
          </ns3:TrackPointExtension>
        </extensions>
      </trkpt>
      <trkpt lat="47.56258048117160797119140625" lon="-3.05561282671988010406494140625">
        <ele>-0.800000011920928955078125</ele>
        <time>2026-08-15T16:59:17.000Z</time>
        <extensions>
          <ns3:TrackPointExtension>
            <ns3:hr>155</ns3:hr>
          </ns3:TrackPointExtension>
        </extensions>
      </trkpt>
      <trkpt lat="47.5625454448163509368896484375" lon="-3.0556360445916652679443359375">
        <ele>-0.800000011920928955078125</ele>
        <time>2026-08-15T16:59:18.000Z</time>
        <extensions>
          <ns3:TrackPointExtension>
            <ns3:hr>154</ns3:hr>
          </ns3:TrackPointExtension>
        </extensions>
      </trkpt>
      <trkpt lat="47.56250806152820587158203125" lon="-3.05565490387380123138427734375">
        <ele>-1</ele>
        <time>2026-08-15T16:59:19.000Z</time>
        <extensions>
          <ns3:TrackPointExtension>
            <ns3:hr>154</ns3:hr>
          </ns3:TrackPointExtension>
        </extensions>
      </trkpt>
      <trkpt lat="47.56247478537261486053466796875" lon="-3.0556849949061870574951171875">
        <ele>-1</ele>
        <time>2026-08-15T16:59:20.000Z</time>
        <extensions>
          <ns3:TrackPointExtension>
            <ns3:hr>150</ns3:hr>
          </ns3:TrackPointExtension>
        </extensions>
      </trkpt>
      <trkpt lat="47.56243966519832611083984375" lon="-3.05571265518665313720703125">
        <ele>-0.60000002384185791015625</ele>
        <time>2026-08-15T16:59:21.000Z</time>
        <extensions>
          <ns3:TrackPointExtension>
            <ns3:hr>150</ns3:hr>
          </ns3:TrackPointExtension>
        </extensions>
      </trkpt>
      <trkpt lat="47.56240672431886196136474609375" lon="-3.0557520501315593719482421875">
        <ele>-0.4000000059604644775390625</ele>
        <time>2026-08-15T16:59:22.000Z</time>
        <extensions>
          <ns3:TrackPointExtension>
            <ns3:hr>150</ns3:hr>
          </ns3:TrackPointExtension>
        </extensions>
      </trkpt>
      <trkpt lat="47.56237738765776157379150390625" lon="-3.05577342398464679718017578125">
        <ele>-0.4000000059604644775390625</ele>
        <time>2026-08-15T16:59:23.000Z</time>
        <extensions>
          <ns3:TrackPointExtension>
            <ns3:hr>149</ns3:hr>
          </ns3:TrackPointExtension>
        </extensions>
      </trkpt>
      <trkpt lat="47.56233648397028446197509765625" lon="-3.05578096769750118255615234375">
        <ele>-0.4000000059604644775390625</ele>
        <time>2026-08-15T16:59:24.000Z</time>
        <extensions>
          <ns3:TrackPointExtension>
            <ns3:hr>149</ns3:hr>
          </ns3:TrackPointExtension>
        </extensions>
      </trkpt>
      <trkpt lat="47.5623006932437419891357421875" lon="-3.05579714477062225341796875">
        <ele>-0.60000002384185791015625</ele>
        <time>2026-08-15T16:59:25.000Z</time>
        <extensions>
          <ns3:TrackPointExtension>
            <ns3:hr>149</ns3:hr>
          </ns3:TrackPointExtension>
        </extensions>
      </trkpt>
      <trkpt lat="47.562261633574962615966796875" lon="-3.05580116808414459228515625">
        <ele>-1</ele>
        <time>2026-08-15T16:59:26.000Z</time>
        <extensions>
          <ns3:TrackPointExtension>
            <ns3:hr>148</ns3:hr>
          </ns3:TrackPointExtension>
        </extensions>
      </trkpt>
      <trkpt lat="47.5622155331075191497802734375" lon="-3.055798150599002838134765625">
        <ele>-1</ele>
        <time>2026-08-15T16:59:27.000Z</time>
        <extensions>
          <ns3:TrackPointExtension>
            <ns3:hr>148</ns3:hr>
          </ns3:TrackPointExtension>
        </extensions>
      </trkpt>
      <trkpt lat="47.56217085756361484527587890625" lon="-3.0558043532073497772216796875">
        <ele>-0.60000002384185791015625</ele>
        <time>2026-08-15T16:59:28.000Z</time>
        <extensions>
          <ns3:TrackPointExtension>
            <ns3:hr>148</ns3:hr>
          </ns3:TrackPointExtension>
        </extensions>
      </trkpt>
      <trkpt lat="47.5621276907622814178466796875" lon="-3.05580678395926952362060546875">
        <ele>-0.4000000059604644775390625</ele>
        <time>2026-08-15T16:59:29.000Z</time>
        <extensions>
          <ns3:TrackPointExtension>
            <ns3:hr>147</ns3:hr>
          </ns3:TrackPointExtension>
        </extensions>
      </trkpt>
      <trkpt lat="47.5620822608470916748046875" lon="-3.05580519139766693115234375">
        <ele>-0.20000000298023223876953125</ele>
        <time>2026-08-15T16:59:30.000Z</time>
        <extensions>
          <ns3:TrackPointExtension>
            <ns3:hr>147</ns3:hr>
          </ns3:TrackPointExtension>
        </extensions>
      </trkpt>
      <trkpt lat="47.56203976459801197052001953125" lon="-3.0558130703866481781005859375">
        <ele>0</ele>
        <time>2026-08-15T16:59:31.000Z</time>
        <extensions>
          <ns3:TrackPointExtension>
            <ns3:hr>146</ns3:hr>
          </ns3:TrackPointExtension>
        </extensions>
      </trkpt>
      <trkpt lat="47.56199986673891544342041015625" lon="-3.0558321811258792877197265625">
        <ele>-0.20000000298023223876953125</ele>
        <time>2026-08-15T16:59:32.000Z</time>
        <extensions>
          <ns3:TrackPointExtension>
            <ns3:hr>145</ns3:hr>
          </ns3:TrackPointExtension>
        </extensions>
      </trkpt>
      <trkpt lat="47.56196265108883380889892578125" lon="-3.05586026050150394439697265625">
        <ele>-0.4000000059604644775390625</ele>
        <time>2026-08-15T16:59:33.000Z</time>
        <extensions>
          <ns3:TrackPointExtension>
            <ns3:hr>145</ns3:hr>
          </ns3:TrackPointExtension>
        </extensions>
      </trkpt>
      <trkpt lat="47.56193264387547969818115234375" lon="-3.0558932013809680938720703125">
        <ele>-0.4000000059604644775390625</ele>
        <time>2026-08-15T16:59:34.000Z</time>
        <extensions>
          <ns3:TrackPointExtension>
            <ns3:hr>144</ns3:hr>
          </ns3:TrackPointExtension>
        </extensions>
      </trkpt>
      <trkpt lat="47.56189995445311069488525390625" lon="-3.0559243820607662200927734375">
        <ele>-0.20000000298023223876953125</ele>
        <time>2026-08-15T16:59:35.000Z</time>
        <extensions>
          <ns3:TrackPointExtension>
            <ns3:hr>144</ns3:hr>
          </ns3:TrackPointExtension>
        </extensions>
      </trkpt>
      <trkpt lat="47.5618676841259002685546875" lon="-3.0559562332928180694580078125">
        <ele>-0.20000000298023223876953125</ele>
        <time>2026-08-15T16:59:36.000Z</time>
        <extensions>
          <ns3:TrackPointExtension>
            <ns3:hr>144</ns3:hr>
          </ns3:TrackPointExtension>
        </extensions>
      </trkpt>
      <trkpt lat="47.56183055229485034942626953125" lon="-3.05598749779164791107177734375">
        <ele>0</ele>
        <time>2026-08-15T16:59:37.000Z</time>
        <extensions>
          <ns3:TrackPointExtension>
            <ns3:hr>144</ns3:hr>
          </ns3:TrackPointExtension>
        </extensions>
      </trkpt>
      <trkpt lat="47.56179333664476871490478515625" lon="-3.0560030043125152587890625">
        <ele>0</ele>
        <time>2026-08-15T16:59:38.000Z</time>
        <extensions>
          <ns3:TrackPointExtension>
            <ns3:hr>144</ns3:hr>
          </ns3:TrackPointExtension>
        </extensions>
      </trkpt>
      <trkpt lat="47.56175092421472072601318359375" lon="-3.05600996129214763641357421875">
        <ele>-0.20000000298023223876953125</ele>
        <time>2026-08-15T16:59:39.000Z</time>
        <extensions>
          <ns3:TrackPointExtension>
            <ns3:hr>143</ns3:hr>
          </ns3:TrackPointExtension>
        </extensions>
      </trkpt>
      <trkpt lat="47.56170700304210186004638671875" lon="-3.05600308813154697418212890625">
        <ele>-0.60000002384185791015625</ele>
        <time>2026-08-15T16:59:40.000Z</time>
        <extensions>
          <ns3:TrackPointExtension>
            <ns3:hr>142</ns3:hr>
          </ns3:TrackPointExtension>
        </extensions>
      </trkpt>
      <trkpt lat="47.561664842069149017333984375" lon="-3.055997975170612335205078125">
        <ele>-0.60000002384185791015625</ele>
        <time>2026-08-15T16:59:41.000Z</time>
        <extensions>
          <ns3:TrackPointExtension>
            <ns3:hr>141</ns3:hr>
          </ns3:TrackPointExtension>
        </extensions>
      </trkpt>
      <trkpt lat="47.5616209208965301513671875" lon="-3.0559994839131832122802734375">
        <ele>-0.800000011920928955078125</ele>
        <time>2026-08-15T16:59:42.000Z</time>
        <extensions>
          <ns3:TrackPointExtension>
            <ns3:hr>140</ns3:hr>
          </ns3:TrackPointExtension>
        </extensions>
      </trkpt>
      <trkpt lat="47.56157607771456241607666015625" lon="-3.05600426159799098968505859375">
        <ele>-1</ele>
        <time>2026-08-15T16:59:43.000Z</time>
        <extensions>
          <ns3:TrackPointExtension>
            <ns3:hr>139</ns3:hr>
          </ns3:TrackPointExtension>
        </extensions>
      </trkpt>
      <trkpt lat="47.56153844296932220458984375" lon="-3.055982552468776702880859375">
        <ele>-1.2000000476837158203125</ele>
        <time>2026-08-15T16:59:44.000Z</time>
        <extensions>
          <ns3:TrackPointExtension>
            <ns3:hr>138</ns3:hr>
          </ns3:TrackPointExtension>
        </extensions>
      </trkpt>
      <trkpt lat="47.56149561144411563873291015625" lon="-3.0559535510838031768798828125">
        <ele>-1.39999997615814208984375</ele>
        <time>2026-08-15T16:59:45.000Z</time>
        <extensions>
          <ns3:TrackPointExtension>
            <ns3:hr>137</ns3:hr>
          </ns3:TrackPointExtension>
        </extensions>
      </trkpt>
      <trkpt lat="47.56145336665213108062744140625" lon="-3.05595464073121547698974609375">
        <ele>-1.60000002384185791015625</ele>
        <time>2026-08-15T16:59:46.000Z</time>
        <extensions>
          <ns3:TrackPointExtension>
            <ns3:hr>137</ns3:hr>
          </ns3:TrackPointExtension>
        </extensions>
      </trkpt>
      <trkpt lat="47.56141640245914459228515625" lon="-3.0559884198009967803955078125">
        <ele>-1.39999997615814208984375</ele>
        <time>2026-08-15T16:59:47.000Z</time>
        <extensions>
          <ns3:TrackPointExtension>
            <ns3:hr>136</ns3:hr>
          </ns3:TrackPointExtension>
        </extensions>
      </trkpt>
      <trkpt lat="47.56138044409453868865966796875" lon="-3.0560142360627651214599609375">
        <ele>-1.39999997615814208984375</ele>
        <time>2026-08-15T16:59:48.000Z</time>
        <extensions>
          <ns3:TrackPointExtension>
            <ns3:hr>136</ns3:hr>
          </ns3:TrackPointExtension>
        </extensions>
      </trkpt>
      <trkpt lat="47.5613518618047237396240234375" lon="-3.05601775646209716796875">
        <ele>-1.39999997615814208984375</ele>
        <time>2026-08-15T16:59:49.000Z</time>
        <extensions>
          <ns3:TrackPointExtension>
            <ns3:hr>135</ns3:hr>
          </ns3:TrackPointExtension>
        </extensions>
      </trkpt>
      <trkpt lat="47.56131623871624469757080078125" lon="-3.05600543506443500518798828125">
        <ele>-1.39999997615814208984375</ele>
        <time>2026-08-15T16:59:50.000Z</time>
        <extensions>
          <ns3:TrackPointExtension>
            <ns3:hr>134</ns3:hr>
          </ns3:TrackPointExtension>
        </extensions>
      </trkpt>
      <trkpt lat="47.56127382628619670867919921875" lon="-3.0559654533863067626953125">
        <ele>-1.7999999523162841796875</ele>
        <time>2026-08-15T16:59:51.000Z</time>
        <extensions>
          <ns3:TrackPointExtension>
            <ns3:hr>134</ns3:hr>
          </ns3:TrackPointExtension>
        </extensions>
      </trkpt>
      <trkpt lat="47.5612378679215908050537109375" lon="-3.0559260584414005279541015625">
        <ele>-2</ele>
        <time>2026-08-15T16:59:52.000Z</time>
        <extensions>
          <ns3:TrackPointExtension>
            <ns3:hr>134</ns3:hr>
          </ns3:TrackPointExtension>
        </extensions>
      </trkpt>
      <trkpt lat="47.5611939467489719390869140625" lon="-3.05590577423572540283203125">
        <ele>-1.7999999523162841796875</ele>
        <time>2026-08-15T16:59:53.000Z</time>
        <extensions>
          <ns3:TrackPointExtension>
            <ns3:hr>134</ns3:hr>
          </ns3:TrackPointExtension>
        </extensions>
      </trkpt>
      <trkpt lat="47.56115010939538478851318359375" lon="-3.0559381283819675445556640625">
        <ele>-1.60000002384185791015625</ele>
        <time>2026-08-15T16:59:54.000Z</time>
        <extensions>
          <ns3:TrackPointExtension>
            <ns3:hr>134</ns3:hr>
          </ns3:TrackPointExtension>
        </extensions>
      </trkpt>
      <trkpt lat="47.56110853515565395355224609375" lon="-3.05597324855625629425048828125">
        <ele>-1.39999997615814208984375</ele>
        <time>2026-08-15T16:59:55.000Z</time>
        <extensions>
          <ns3:TrackPointExtension>
            <ns3:hr>134</ns3:hr>
          </ns3:TrackPointExtension>
        </extensions>
      </trkpt>
      <trkpt lat="47.56106914021074771881103515625" lon="-3.0559619329869747161865234375">
        <ele>-1.39999997615814208984375</ele>
        <time>2026-08-15T16:59:56.000Z</time>
        <extensions>
          <ns3:TrackPointExtension>
            <ns3:hr>134</ns3:hr>
          </ns3:TrackPointExtension>
        </extensions>
      </trkpt>
      <trkpt lat="47.5610335171222686767578125" lon="-3.05591608397662639617919921875">
        <ele>-1.39999997615814208984375</ele>
        <time>2026-08-15T16:59:57.000Z</time>
        <extensions>
          <ns3:TrackPointExtension>
            <ns3:hr>134</ns3:hr>
          </ns3:TrackPointExtension>
        </extensions>
      </trkpt>
      <trkpt lat="47.5609954632818698883056640625" lon="-3.0558918602764606475830078125">
        <ele>-1.7999999523162841796875</ele>
        <time>2026-08-15T16:59:58.000Z</time>
        <extensions>
          <ns3:TrackPointExtension>
            <ns3:hr>134</ns3:hr>
          </ns3:TrackPointExtension>
        </extensions>
      </trkpt>
      <trkpt lat="47.56096151657402515411376953125" lon="-3.05589663796126842498779296875">
        <ele>-2</ele>
        <time>2026-08-15T16:59:59.000Z</time>
        <extensions>
          <ns3:TrackPointExtension>
            <ns3:hr>134</ns3:hr>
          </ns3:TrackPointExtension>
        </extensions>
      </trkpt>
      <trkpt lat="47.56093352101743221282958984375" lon="-3.05592144839465618133544921875">
        <ele>-1.2000000476837158203125</ele>
        <time>2026-08-15T17:00:00.000Z</time>
        <extensions>
          <ns3:TrackPointExtension>
            <ns3:hr>134</ns3:hr>
          </ns3:TrackPointExtension>
        </extensions>
      </trkpt>
      <trkpt lat="47.56090552546083927154541015625" lon="-3.05595262907445430755615234375">
        <ele>0.20000000298023223876953125</ele>
        <time>2026-08-15T17:00:01.000Z</time>
        <extensions>
          <ns3:TrackPointExtension>
            <ns3:hr>134</ns3:hr>
          </ns3:TrackPointExtension>
        </extensions>
      </trkpt>
      <trkpt lat="47.5608680583536624908447265625" lon="-3.055972494184970855712890625">
        <ele>0.4000000059604644775390625</ele>
        <time>2026-08-15T17:00:02.000Z</time>
        <extensions>
          <ns3:TrackPointExtension>
            <ns3:hr>134</ns3:hr>
          </ns3:TrackPointExtension>
        </extensions>
      </trkpt>
      <trkpt lat="47.5608336925506591796875" lon="-3.05596369318664073944091796875">
        <ele>2.400000095367431640625</ele>
        <time>2026-08-15T17:00:03.000Z</time>
        <extensions>
          <ns3:TrackPointExtension>
            <ns3:hr>134</ns3:hr>
          </ns3:TrackPointExtension>
        </extensions>
      </trkpt>
      <trkpt lat="47.5607907772064208984375" lon="-3.05595011450350284576416015625">
        <ele>2.7999999523162841796875</ele>
        <time>2026-08-15T17:00:04.000Z</time>
        <extensions>
          <ns3:TrackPointExtension>
            <ns3:hr>133</ns3:hr>
          </ns3:TrackPointExtension>
        </extensions>
      </trkpt>
      <trkpt lat="47.56074962206184864044189453125" lon="-3.05593268014490604400634765625">
        <ele>2.7999999523162841796875</ele>
        <time>2026-08-15T17:00:05.000Z</time>
        <extensions>
          <ns3:TrackPointExtension>
            <ns3:hr>134</ns3:hr>
          </ns3:TrackPointExtension>
        </extensions>
      </trkpt>
      <trkpt lat="47.560712993144989013671875" lon="-3.05589010007679462432861328125">
        <ele>2.2000000476837158203125</ele>
        <time>2026-08-15T17:00:06.000Z</time>
        <extensions>
          <ns3:TrackPointExtension>
            <ns3:hr>134</ns3:hr>
          </ns3:TrackPointExtension>
        </extensions>
      </trkpt>
      <trkpt lat="47.560672424733638763427734375" lon="-3.055855147540569305419921875">
        <ele>2</ele>
        <time>2026-08-15T17:00:07.000Z</time>
        <extensions>
          <ns3:TrackPointExtension>
            <ns3:hr>134</ns3:hr>
          </ns3:TrackPointExtension>
        </extensions>
      </trkpt>
      <trkpt lat="47.5606303475797176361083984375" lon="-3.055826984345912933349609375">
        <ele>1.7999999523162841796875</ele>
        <time>2026-08-15T17:00:08.000Z</time>
        <extensions>
          <ns3:TrackPointExtension>
            <ns3:hr>134</ns3:hr>
          </ns3:TrackPointExtension>
        </extensions>
      </trkpt>
      <trkpt lat="47.56059003062546253204345703125" lon="-3.05579370819032192230224609375">
        <ele>1.7999999523162841796875</ele>
        <time>2026-08-15T17:00:09.000Z</time>
        <extensions>
          <ns3:TrackPointExtension>
            <ns3:hr>134</ns3:hr>
          </ns3:TrackPointExtension>
        </extensions>
      </trkpt>
      <trkpt lat="47.56053973920643329620361328125" lon="-3.0557842366397380828857421875">
        <ele>2.2000000476837158203125</ele>
        <time>2026-08-15T17:00:10.000Z</time>
        <extensions>
          <ns3:TrackPointExtension>
            <ns3:hr>134</ns3:hr>
          </ns3:TrackPointExtension>
        </extensions>
      </trkpt>
      <trkpt lat="47.5605051219463348388671875" lon="-3.0558244697749614715576171875">
        <ele>2.7999999523162841796875</ele>
        <time>2026-08-15T17:00:11.000Z</time>
        <extensions>
          <ns3:TrackPointExtension>
            <ns3:hr>134</ns3:hr>
          </ns3:TrackPointExtension>
        </extensions>
      </trkpt>
      <trkpt lat="47.56047536619007587432861328125" lon="-3.0558727495372295379638671875">
        <ele>2.7999999523162841796875</ele>
        <time>2026-08-15T17:00:12.000Z</time>
        <extensions>
          <ns3:TrackPointExtension>
            <ns3:hr>133</ns3:hr>
          </ns3:TrackPointExtension>
        </extensions>
      </trkpt>
      <trkpt lat="47.56045139394700527191162109375" lon="-3.05592798627912998199462890625">
        <ele>3</ele>
        <time>2026-08-15T17:00:13.000Z</time>
        <extensions>
          <ns3:TrackPointExtension>
            <ns3:hr>134</ns3:hr>
          </ns3:TrackPointExtension>
        </extensions>
      </trkpt>
      <trkpt lat="47.5604258291423320770263671875" lon="-3.05597056634724140167236328125">
        <ele>3</ele>
        <time>2026-08-15T17:00:14.000Z</time>
        <extensions>
          <ns3:TrackPointExtension>
            <ns3:hr>133</ns3:hr>
          </ns3:TrackPointExtension>
        </extensions>
      </trkpt>
      <trkpt lat="47.56039489991962909698486328125" lon="-3.0559974722564220428466796875">
        <ele>3</ele>
        <time>2026-08-15T17:00:15.000Z</time>
        <extensions>
          <ns3:TrackPointExtension>
            <ns3:hr>133</ns3:hr>
          </ns3:TrackPointExtension>
        </extensions>
      </trkpt>
      <trkpt lat="47.56035768426954746246337890625" lon="-3.05602588690817356109619140625">
        <ele>2.599999904632568359375</ele>
        <time>2026-08-15T17:00:16.000Z</time>
        <extensions>
          <ns3:TrackPointExtension>
            <ns3:hr>132</ns3:hr>
          </ns3:TrackPointExtension>
        </extensions>
      </trkpt>
      <trkpt lat="47.56032147444784641265869140625" lon="-3.05604583583772182464599609375">
        <ele>2.599999904632568359375</ele>
        <time>2026-08-15T17:00:17.000Z</time>
        <extensions>
          <ns3:TrackPointExtension>
            <ns3:hr>132</ns3:hr>
          </ns3:TrackPointExtension>
        </extensions>
      </trkpt>
      <trkpt lat="47.56028627045452594757080078125" lon="-3.0560521222651004791259765625">
        <ele>2.599999904632568359375</ele>
        <time>2026-08-15T17:00:18.000Z</time>
        <extensions>
          <ns3:TrackPointExtension>
            <ns3:hr>132</ns3:hr>
          </ns3:TrackPointExtension>
        </extensions>
      </trkpt>
      <trkpt lat="47.5602427683770656585693359375" lon="-3.05604835040867328643798828125">
        <ele>2.599999904632568359375</ele>
        <time>2026-08-15T17:00:19.000Z</time>
        <extensions>
          <ns3:TrackPointExtension>
            <ns3:hr>132</ns3:hr>
          </ns3:TrackPointExtension>
        </extensions>
      </trkpt>
      <trkpt lat="47.56019272841513156890869140625" lon="-3.05605757050216197967529296875">
        <ele>2.599999904632568359375</ele>
        <time>2026-08-15T17:00:20.000Z</time>
        <extensions>
          <ns3:TrackPointExtension>
            <ns3:hr>132</ns3:hr>
          </ns3:TrackPointExtension>
        </extensions>
      </trkpt>
      <trkpt lat="47.56014193408191204071044921875" lon="-3.0560725741088390350341796875">
        <ele>2.7999999523162841796875</ele>
        <time>2026-08-15T17:00:21.000Z</time>
        <extensions>
          <ns3:TrackPointExtension>
            <ns3:hr>133</ns3:hr>
          </ns3:TrackPointExtension>
        </extensions>
      </trkpt>
      <trkpt lat="47.56009063683450222015380859375" lon="-3.05608858354389667510986328125">
        <ele>3</ele>
        <time>2026-08-15T17:00:22.000Z</time>
        <extensions>
          <ns3:TrackPointExtension>
            <ns3:hr>133</ns3:hr>
          </ns3:TrackPointExtension>
        </extensions>
      </trkpt>
      <trkpt lat="47.5600399263203144073486328125" lon="-3.05611507035791873931884765625">
        <ele>3.400000095367431640625</ele>
        <time>2026-08-15T17:00:23.000Z</time>
        <extensions>
          <ns3:TrackPointExtension>
            <ns3:hr>133</ns3:hr>
          </ns3:TrackPointExtension>
        </extensions>
      </trkpt>
      <trkpt lat="47.5599879585206508636474609375" lon="-3.0561476759612560272216796875">
        <ele>3.599999904632568359375</ele>
        <time>2026-08-15T17:00:24.000Z</time>
        <extensions>
          <ns3:TrackPointExtension>
            <ns3:hr>134</ns3:hr>
          </ns3:TrackPointExtension>
        </extensions>
      </trkpt>
      <trkpt lat="47.55993724800646305084228515625" lon="-3.05618061684072017669677734375">
        <ele>3.7999999523162841796875</ele>
        <time>2026-08-15T17:00:25.000Z</time>
        <extensions>
          <ns3:TrackPointExtension>
            <ns3:hr>134</ns3:hr>
          </ns3:TrackPointExtension>
        </extensions>
      </trkpt>
      <trkpt lat="47.55988075397908687591552734375" lon="-3.05620727129280567169189453125">
        <ele>4</ele>
        <time>2026-08-15T17:00:26.000Z</time>
        <extensions>
          <ns3:TrackPointExtension>
            <ns3:hr>133</ns3:hr>
          </ns3:TrackPointExtension>
        </extensions>
      </trkpt>
      <trkpt lat="47.55982308648526668548583984375" lon="-3.0562269687652587890625">
        <ele>4</ele>
        <time>2026-08-15T17:00:27.000Z</time>
        <extensions>
          <ns3:TrackPointExtension>
            <ns3:hr>133</ns3:hr>
          </ns3:TrackPointExtension>
        </extensions>
      </trkpt>
      <trkpt lat="47.55976910702884197235107421875" lon="-3.0562432296574115753173828125">
        <ele>3.7999999523162841796875</ele>
        <time>2026-08-15T17:00:28.000Z</time>
        <extensions>
          <ns3:TrackPointExtension>
            <ns3:hr>133</ns3:hr>
          </ns3:TrackPointExtension>
        </extensions>
      </trkpt>
      <trkpt lat="47.55971713922917842864990234375" lon="-3.0562482587993144989013671875">
        <ele>3.400000095367431640625</ele>
        <time>2026-08-15T17:00:29.000Z</time>
        <extensions>
          <ns3:TrackPointExtension>
            <ns3:hr>134</ns3:hr>
          </ns3:TrackPointExtension>
        </extensions>
      </trkpt>
      <trkpt lat="47.55966718308627605438232421875" lon="-3.05622923187911510467529296875">
        <ele>3</ele>
        <time>2026-08-15T17:00:30.000Z</time>
        <extensions>
          <ns3:TrackPointExtension>
            <ns3:hr>134</ns3:hr>
          </ns3:TrackPointExtension>
        </extensions>
      </trkpt>
      <trkpt lat="47.5596181489527225494384765625" lon="-3.0561976321041584014892578125">
        <ele>2.7999999523162841796875</ele>
        <time>2026-08-15T17:00:31.000Z</time>
        <extensions>
          <ns3:TrackPointExtension>
            <ns3:hr>134</ns3:hr>
          </ns3:TrackPointExtension>
        </extensions>
      </trkpt>
      <trkpt lat="47.559570036828517913818359375" lon="-3.05615119636058807373046875">
        <ele>2.400000095367431640625</ele>
        <time>2026-08-15T17:00:32.000Z</time>
        <extensions>
          <ns3:TrackPointExtension>
            <ns3:hr>134</ns3:hr>
          </ns3:TrackPointExtension>
        </extensions>
      </trkpt>
      <trkpt lat="47.55953039042651653289794921875" lon="-3.056092523038387298583984375">
        <ele>2.400000095367431640625</ele>
        <time>2026-08-15T17:00:33.000Z</time>
        <extensions>
          <ns3:TrackPointExtension>
            <ns3:hr>133</ns3:hr>
          </ns3:TrackPointExtension>
        </extensions>
      </trkpt>
      <trkpt lat="47.55949937738478183746337890625" lon="-3.056036531925201416015625">
        <ele>2.400000095367431640625</ele>
        <time>2026-08-15T17:00:34.000Z</time>
        <extensions>
          <ns3:TrackPointExtension>
            <ns3:hr>134</ns3:hr>
          </ns3:TrackPointExtension>
        </extensions>
      </trkpt>
      <trkpt lat="47.5594830326735973358154296875" lon="-3.05598012171685695648193359375">
        <ele>2.400000095367431640625</ele>
        <time>2026-08-15T17:00:35.000Z</time>
        <extensions>
          <ns3:TrackPointExtension>
            <ns3:hr>134</ns3:hr>
          </ns3:TrackPointExtension>
        </extensions>
      </trkpt>
      <trkpt lat="47.55949267186224460601806640625" lon="-3.0559210292994976043701171875">
        <ele>2.599999904632568359375</ele>
        <time>2026-08-15T17:00:36.000Z</time>
        <extensions>
          <ns3:TrackPointExtension>
            <ns3:hr>134</ns3:hr>
          </ns3:TrackPointExtension>
        </extensions>
      </trkpt>
      <trkpt lat="47.5595153868198394775390625" lon="-3.05586361326277256011962890625">
        <ele>3</ele>
        <time>2026-08-15T17:00:37.000Z</time>
        <extensions>
          <ns3:TrackPointExtension>
            <ns3:hr>134</ns3:hr>
          </ns3:TrackPointExtension>
        </extensions>
      </trkpt>
      <trkpt lat="47.559540532529354095458984375" lon="-3.055815584957599639892578125">
        <ele>3.2000000476837158203125</ele>
        <time>2026-08-15T17:00:38.000Z</time>
        <extensions>
          <ns3:TrackPointExtension>
            <ns3:hr>134</ns3:hr>
          </ns3:TrackPointExtension>
        </extensions>
      </trkpt>
      <trkpt lat="47.5595681928098201751708984375" lon="-3.05576923303306102752685546875">
        <ele>3.400000095367431640625</ele>
        <time>2026-08-15T17:00:39.000Z</time>
        <extensions>
          <ns3:TrackPointExtension>
            <ns3:hr>133</ns3:hr>
          </ns3:TrackPointExtension>
        </extensions>
      </trkpt>
      <trkpt lat="47.5596007145941257476806640625" lon="-3.05572045035660266876220703125">
        <ele>3.7999999523162841796875</ele>
        <time>2026-08-15T17:00:40.000Z</time>
        <extensions>
          <ns3:TrackPointExtension>
            <ns3:hr>133</ns3:hr>
          </ns3:TrackPointExtension>
        </extensions>
      </trkpt>
      <trkpt lat="47.559639774262905120849609375" lon="-3.055666387081146240234375">
        <ele>3.7999999523162841796875</ele>
        <time>2026-08-15T17:00:41.000Z</time>
        <extensions>
          <ns3:TrackPointExtension>
            <ns3:hr>132</ns3:hr>
          </ns3:TrackPointExtension>
        </extensions>
      </trkpt>
      <trkpt lat="47.55967020057141780853271484375" lon="-3.05561131797730922698974609375">
        <ele>3.7999999523162841796875</ele>
        <time>2026-08-15T17:00:42.000Z</time>
        <extensions>
          <ns3:TrackPointExtension>
            <ns3:hr>132</ns3:hr>
          </ns3:TrackPointExtension>
        </extensions>
      </trkpt>
      <trkpt lat="47.55970423109829425811767578125" lon="-3.0555612780153751373291015625">
        <ele>4</ele>
        <time>2026-08-15T17:00:43.000Z</time>
        <extensions>
          <ns3:TrackPointExtension>
            <ns3:hr>132</ns3:hr>
          </ns3:TrackPointExtension>
        </extensions>
      </trkpt>
      <trkpt lat="47.55973909981548786163330078125" lon="-3.05552012287080287933349609375">
        <ele>4</ele>
        <time>2026-08-15T17:00:44.000Z</time>
        <extensions>
          <ns3:TrackPointExtension>
            <ns3:hr>132</ns3:hr>
          </ns3:TrackPointExtension>
        </extensions>
      </trkpt>
      <trkpt lat="47.5597836077213287353515625" lon="-3.0554851703345775604248046875">
        <ele>4</ele>
        <time>2026-08-15T17:00:45.000Z</time>
        <extensions>
          <ns3:TrackPointExtension>
            <ns3:hr>131</ns3:hr>
          </ns3:TrackPointExtension>
        </extensions>
      </trkpt>
      <trkpt lat="47.559818811714649200439453125" lon="-3.055440075695514678955078125">
        <ele>3.599999904632568359375</ele>
        <time>2026-08-15T17:00:46.000Z</time>
        <extensions>
          <ns3:TrackPointExtension>
            <ns3:hr>132</ns3:hr>
          </ns3:TrackPointExtension>
        </extensions>
      </trkpt>
      <trkpt lat="47.55982828326523303985595703125" lon="-3.05538475513458251953125">
        <ele>3.599999904632568359375</ele>
        <time>2026-08-15T17:00:47.000Z</time>
        <extensions>
          <ns3:TrackPointExtension>
            <ns3:hr>132</ns3:hr>
          </ns3:TrackPointExtension>
        </extensions>
      </trkpt>
      <trkpt lat="47.55981034599244594573974609375" lon="-3.05534527637064456939697265625">
        <ele>3.400000095367431640625</ele>
        <time>2026-08-15T17:00:48.000Z</time>
        <extensions>
          <ns3:TrackPointExtension>
            <ns3:hr>137</ns3:hr>
          </ns3:TrackPointExtension>
        </extensions>
      </trkpt>
      <trkpt lat="47.5597784109413623809814453125" lon="-3.05533119477331638336181640625">
        <ele>3.2000000476837158203125</ele>
        <time>2026-08-15T17:00:49.000Z</time>
        <extensions>
          <ns3:TrackPointExtension>
            <ns3:hr>140</ns3:hr>
          </ns3:TrackPointExtension>
        </extensions>
      </trkpt>
      <trkpt lat="47.55975343286991119384765625" lon="-3.05531744845211505889892578125">
        <ele>3</ele>
        <time>2026-08-15T17:00:50.000Z</time>
        <extensions>
          <ns3:TrackPointExtension>
            <ns3:hr>141</ns3:hr>
          </ns3:TrackPointExtension>
        </extensions>
      </trkpt>
      <trkpt lat="47.55973323248326778411865234375" lon="-3.055313341319561004638671875">
        <ele>2.7999999523162841796875</ele>
        <time>2026-08-15T17:00:51.000Z</time>
        <extensions>
          <ns3:TrackPointExtension>
            <ns3:hr>141</ns3:hr>
          </ns3:TrackPointExtension>
        </extensions>
      </trkpt>
      <trkpt lat="47.55972820334136486053466796875" lon="-3.0553202144801616668701171875">
        <ele>2.599999904632568359375</ele>
        <time>2026-08-15T17:00:52.000Z</time>
        <extensions>
          <ns3:TrackPointExtension>
            <ns3:hr>141</ns3:hr>
          </ns3:TrackPointExtension>
        </extensions>
      </trkpt>
      <trkpt lat="47.55971730686724185943603515625" lon="-3.0553208850324153900146484375">
        <ele>2.2000000476837158203125</ele>
        <time>2026-08-15T17:00:53.000Z</time>
        <extensions>
          <ns3:TrackPointExtension>
            <ns3:hr>141</ns3:hr>
          </ns3:TrackPointExtension>
        </extensions>
      </trkpt>
      <trkpt lat="47.55970825441181659698486328125" lon="-3.05532029829919338226318359375">
        <ele>2</ele>
        <time>2026-08-15T17:00:54.000Z</time>
        <extensions>
          <ns3:TrackPointExtension>
            <ns3:hr>140</ns3:hr>
          </ns3:TrackPointExtension>
        </extensions>
      </trkpt>
      <trkpt lat="47.559708170592784881591796875" lon="-3.05531761609017848968505859375">
        <ele>1.60000002384185791015625</ele>
        <time>2026-08-15T17:00:55.000Z</time>
        <extensions>
          <ns3:TrackPointExtension>
            <ns3:hr>140</ns3:hr>
          </ns3:TrackPointExtension>
        </extensions>
      </trkpt>
      <trkpt lat="47.55973675288259983062744140625" lon="-3.05536489002406597137451171875">
        <ele>1.60000002384185791015625</ele>
        <time>2026-08-15T17:00:56.000Z</time>
        <extensions>
          <ns3:TrackPointExtension>
            <ns3:hr>141</ns3:hr>
          </ns3:TrackPointExtension>
        </extensions>
      </trkpt>
      <trkpt lat="47.55973759107291698455810546875" lon="-3.05535851977765560150146484375">
        <ele>1.60000002384185791015625</ele>
        <time>2026-08-15T17:00:57.000Z</time>
        <extensions>
          <ns3:TrackPointExtension>
            <ns3:hr>141</ns3:hr>
          </ns3:TrackPointExtension>
        </extensions>
      </trkpt>
      <trkpt lat="47.559737004339694976806640625" lon="-3.055358268320560455322265625">
        <ele>1.39999997615814208984375</ele>
        <time>2026-08-15T17:00:58.000Z</time>
        <extensions>
          <ns3:TrackPointExtension>
            <ns3:hr>142</ns3:hr>
          </ns3:TrackPointExtension>
        </extensions>
      </trkpt>
      <trkpt lat="47.5597365014255046844482421875" lon="-3.05535902269184589385986328125">
        <ele>1.39999997615814208984375</ele>
        <time>2026-08-15T17:00:59.000Z</time>
        <extensions>
          <ns3:TrackPointExtension>
            <ns3:hr>142</ns3:hr>
          </ns3:TrackPointExtension>
        </extensions>
      </trkpt>
      <trkpt lat="47.5597623176872730255126953125" lon="-3.05538131855428218841552734375">
        <ele>1.39999997615814208984375</ele>
        <time>2026-08-15T17:01:00.000Z</time>
        <extensions>
          <ns3:TrackPointExtension>
            <ns3:hr>142</ns3:hr>
          </ns3:TrackPointExtension>
        </extensions>
      </trkpt>
      <trkpt lat="47.55975653417408466339111328125" lon="-3.05535818450152873992919921875">
        <ele>1.39999997615814208984375</ele>
        <time>2026-08-15T17:01:01.000Z</time>
        <extensions>
          <ns3:TrackPointExtension>
            <ns3:hr>142</ns3:hr>
          </ns3:TrackPointExtension>
        </extensions>
      </trkpt>
      <trkpt lat="47.5597492419183254241943359375" lon="-3.055358268320560455322265625">
        <ele>1.2000000476837158203125</ele>
        <time>2026-08-15T17:01:02.000Z</time>
        <extensions>
          <ns3:TrackPointExtension>
            <ns3:hr>142</ns3:hr>
          </ns3:TrackPointExtension>
        </extensions>
      </trkpt>
      <trkpt lat="47.55974010564386844635009765625" lon="-3.05536287836730480194091796875">
        <ele>1.2000000476837158203125</ele>
        <time>2026-08-15T17:01:03.000Z</time>
        <extensions>
          <ns3:TrackPointExtension>
            <ns3:hr>142</ns3:hr>
          </ns3:TrackPointExtension>
        </extensions>
      </trkpt>
      <trkpt lat="47.559751085937023162841796875" lon="-3.05533454753458499908447265625">
        <ele>1.2000000476837158203125</ele>
        <time>2026-08-15T17:01:04.000Z</time>
        <extensions>
          <ns3:TrackPointExtension>
            <ns3:hr>142</ns3:hr>
          </ns3:TrackPointExtension>
        </extensions>
      </trkpt>
      <trkpt lat="47.55975477397441864013671875" lon="-3.05532381869852542877197265625">
        <ele>1.2000000476837158203125</ele>
        <time>2026-08-15T17:01:05.000Z</time>
        <extensions>
          <ns3:TrackPointExtension>
            <ns3:hr>142</ns3:hr>
          </ns3:TrackPointExtension>
        </extensions>
      </trkpt>
      <trkpt lat="47.5597559474408626556396484375" lon="-3.05533505044877529144287109375">
        <ele>1.39999997615814208984375</ele>
        <time>2026-08-15T17:01:06.000Z</time>
        <extensions>
          <ns3:TrackPointExtension>
            <ns3:hr>141</ns3:hr>
          </ns3:TrackPointExtension>
        </extensions>
      </trkpt>
      <trkpt lat="47.5597542710602283477783203125" lon="-3.05534125305712223052978515625">
        <ele>1.39999997615814208984375</ele>
        <time>2026-08-15T17:01:07.000Z</time>
        <extensions>
          <ns3:TrackPointExtension>
            <ns3:hr>141</ns3:hr>
          </ns3:TrackPointExtension>
        </extensions>
      </trkpt>
      <trkpt lat="47.559754438698291778564453125" lon="-3.05534183979034423828125">
        <ele>1.2000000476837158203125</ele>
        <time>2026-08-15T17:01:08.000Z</time>
        <extensions>
          <ns3:TrackPointExtension>
            <ns3:hr>140</ns3:hr>
          </ns3:TrackPointExtension>
        </extensions>
      </trkpt>
      <trkpt lat="47.5597556121647357940673828125" lon="-3.0553316138684749603271484375">
        <ele>1</ele>
        <time>2026-08-15T17:01:09.000Z</time>
        <extensions>
          <ns3:TrackPointExtension>
            <ns3:hr>138</ns3:hr>
          </ns3:TrackPointExtension>
        </extensions>
      </trkpt>
      <trkpt lat="47.5597546063363552093505859375" lon="-3.0553259141743183135986328125">
        <ele>0.60000002384185791015625</ele>
        <time>2026-08-15T17:01:10.000Z</time>
        <extensions>
          <ns3:TrackPointExtension>
            <ns3:hr>136</ns3:hr>
          </ns3:TrackPointExtension>
        </extensions>
      </trkpt>
      <trkpt lat="47.5597559474408626556396484375" lon="-3.05532038211822509765625">
        <ele>0.20000000298023223876953125</ele>
        <time>2026-08-15T17:01:11.000Z</time>
        <extensions>
          <ns3:TrackPointExtension>
            <ns3:hr>136</ns3:hr>
          </ns3:TrackPointExtension>
        </extensions>
      </trkpt>
      <trkpt lat="47.5597594678401947021484375" lon="-3.05531761609017848968505859375">
        <ele>-0.20000000298023223876953125</ele>
        <time>2026-08-15T17:01:12.000Z</time>
        <extensions>
          <ns3:TrackPointExtension>
            <ns3:hr>136</ns3:hr>
          </ns3:TrackPointExtension>
        </extensions>
      </trkpt>
      <trkpt lat="47.55976156331598758697509765625" lon="-3.0553151853382587432861328125">
        <ele>-0.60000002384185791015625</ele>
        <time>2026-08-15T17:01:13.000Z</time>
        <extensions>
          <ns3:TrackPointExtension>
            <ns3:hr>136</ns3:hr>
          </ns3:TrackPointExtension>
        </extensions>
      </trkpt>
      <trkpt lat="47.559761814773082733154296875" lon="-3.05531141348183155059814453125">
        <ele>-0.800000011920928955078125</ele>
        <time>2026-08-15T17:01:14.000Z</time>
        <extensions>
          <ns3:TrackPointExtension>
            <ns3:hr>137</ns3:hr>
          </ns3:TrackPointExtension>
        </extensions>
      </trkpt>
      <trkpt lat="47.55976407788693904876708984375" lon="-3.05530621670186519622802734375">
        <ele>-1</ele>
        <time>2026-08-15T17:01:15.000Z</time>
        <extensions>
          <ns3:TrackPointExtension>
            <ns3:hr>137</ns3:hr>
          </ns3:TrackPointExtension>
        </extensions>
      </trkpt>
      <trkpt lat="47.5597626529633998870849609375" lon="-3.0552920512855052947998046875">
        <ele>-1</ele>
        <time>2026-08-15T17:01:16.000Z</time>
        <extensions>
          <ns3:TrackPointExtension>
            <ns3:hr>137</ns3:hr>
          </ns3:TrackPointExtension>
        </extensions>
      </trkpt>
      <trkpt lat="47.5597552768886089324951171875" lon="-3.0552809871733188629150390625">
        <ele>-0.800000011920928955078125</ele>
        <time>2026-08-15T17:01:17.000Z</time>
        <extensions>
          <ns3:TrackPointExtension>
            <ns3:hr>137</ns3:hr>
          </ns3:TrackPointExtension>
        </extensions>
      </trkpt>
      <trkpt lat="47.5597569532692432403564453125" lon="-3.055285178124904632568359375">
        <ele>0.20000000298023223876953125</ele>
        <time>2026-08-15T17:01:18.000Z</time>
        <extensions>
          <ns3:TrackPointExtension>
            <ns3:hr>137</ns3:hr>
          </ns3:TrackPointExtension>
        </extensions>
      </trkpt>
      <trkpt lat="47.55976256914436817169189453125" lon="-3.0552930571138858795166015625">
        <ele>0.800000011920928955078125</ele>
        <time>2026-08-15T17:01:19.000Z</time>
        <extensions>
          <ns3:TrackPointExtension>
            <ns3:hr>137</ns3:hr>
          </ns3:TrackPointExtension>
        </extensions>
      </trkpt>
      <trkpt lat="47.559769861400127410888671875" lon="-3.0552977509796619415283203125">
        <ele>2.400000095367431640625</ele>
        <time>2026-08-15T17:01:20.000Z</time>
        <extensions>
          <ns3:TrackPointExtension>
            <ns3:hr>136</ns3:hr>
          </ns3:TrackPointExtension>
        </extensions>
      </trkpt>
      <trkpt lat="47.5597737170755863189697265625" lon="-3.05529766716063022613525390625">
        <ele>2.599999904632568359375</ele>
        <time>2026-08-15T17:01:21.000Z</time>
        <extensions>
          <ns3:TrackPointExtension>
            <ns3:hr>137</ns3:hr>
          </ns3:TrackPointExtension>
        </extensions>
      </trkpt>
      <trkpt lat="47.55977933295071125030517578125" lon="-3.05529565550386905670166015625">
        <ele>3.400000095367431640625</ele>
        <time>2026-08-15T17:01:22.000Z</time>
        <extensions>
          <ns3:TrackPointExtension>
            <ns3:hr>138</ns3:hr>
          </ns3:TrackPointExtension>
        </extensions>
      </trkpt>
      <trkpt lat="47.5597817637026309967041015625" lon="-3.0552937276661396026611328125">
        <ele>4.19999980926513671875</ele>
        <time>2026-08-15T17:01:23.000Z</time>
        <extensions>
          <ns3:TrackPointExtension>
            <ns3:hr>138</ns3:hr>
          </ns3:TrackPointExtension>
        </extensions>
      </trkpt>
      <trkpt lat="47.559785954654216766357421875" lon="-3.05529917590320110321044921875">
        <ele>4.599999904632568359375</ele>
        <time>2026-08-15T17:01:24.000Z</time>
        <extensions>
          <ns3:TrackPointExtension>
            <ns3:hr>138</ns3:hr>
          </ns3:TrackPointExtension>
        </extensions>
      </trkpt>
      <trkpt lat="47.55979291163384914398193359375" lon="-3.05529884062707424163818359375">
        <ele>4.599999904632568359375</ele>
        <time>2026-08-15T17:01:25.000Z</time>
        <extensions>
          <ns3:TrackPointExtension>
            <ns3:hr>137</ns3:hr>
          </ns3:TrackPointExtension>
        </extensions>
      </trkpt>
      <trkpt lat="47.55979903042316436767578125" lon="-3.05529557168483734130859375">
        <ele>4.400000095367431640625</ele>
        <time>2026-08-15T17:01:26.000Z</time>
        <extensions>
          <ns3:TrackPointExtension>
            <ns3:hr>137</ns3:hr>
          </ns3:TrackPointExtension>
        </extensions>
      </trkpt>
      <trkpt lat="47.5598038919270038604736328125" lon="-3.0552895367145538330078125">
        <ele>4.19999980926513671875</ele>
        <time>2026-08-15T17:01:27.000Z</time>
        <extensions>
          <ns3:TrackPointExtension>
            <ns3:hr>136</ns3:hr>
          </ns3:TrackPointExtension>
        </extensions>
      </trkpt>
      <trkpt lat="47.5598122738301753997802734375" lon="-3.05528945289552211761474609375">
        <ele>3.7999999523162841796875</ele>
        <time>2026-08-15T17:01:28.000Z</time>
        <extensions>
          <ns3:TrackPointExtension>
            <ns3:hr>136</ns3:hr>
          </ns3:TrackPointExtension>
        </extensions>
      </trkpt>
      <trkpt lat="47.55981705151498317718505859375" lon="-3.0552833341062068939208984375">
        <ele>3.400000095367431640625</ele>
        <time>2026-08-15T17:01:29.000Z</time>
        <extensions>
          <ns3:TrackPointExtension>
            <ns3:hr>136</ns3:hr>
          </ns3:TrackPointExtension>
        </extensions>
      </trkpt>
      <trkpt lat="47.5598276965320110321044921875" lon="-3.05528073571622371673583984375">
        <ele>3.2000000476837158203125</ele>
        <time>2026-08-15T17:01:30.000Z</time>
        <extensions>
          <ns3:TrackPointExtension>
            <ns3:hr>136</ns3:hr>
          </ns3:TrackPointExtension>
        </extensions>
      </trkpt>
      <trkpt lat="47.559832893311977386474609375" lon="-3.05528207682073116302490234375">
        <ele>2.599999904632568359375</ele>
        <time>2026-08-15T17:01:31.000Z</time>
        <extensions>
          <ns3:TrackPointExtension>
            <ns3:hr>137</ns3:hr>
          </ns3:TrackPointExtension>
        </extensions>
      </trkpt>
      <trkpt lat="47.55984253250062465667724609375" lon="-3.05528752505779266357421875">
        <ele>1.7999999523162841796875</ele>
        <time>2026-08-15T17:01:32.000Z</time>
        <extensions>
          <ns3:TrackPointExtension>
            <ns3:hr>138</ns3:hr>
          </ns3:TrackPointExtension>
        </extensions>
      </trkpt>
      <trkpt lat="47.559853009879589080810546875" lon="-3.05528744123876094818115234375">
        <ele>0.60000002384185791015625</ele>
        <time>2026-08-15T17:01:33.000Z</time>
        <extensions>
          <ns3:TrackPointExtension>
            <ns3:hr>138</ns3:hr>
          </ns3:TrackPointExtension>
        </extensions>
      </trkpt>
      <trkpt lat="47.55987404845654964447021484375" lon="-3.0552937276661396026611328125">
        <ele>0.20000000298023223876953125</ele>
        <time>2026-08-15T17:01:34.000Z</time>
        <extensions>
          <ns3:TrackPointExtension>
            <ns3:hr>139</ns3:hr>
          </ns3:TrackPointExtension>
        </extensions>
      </trkpt>
      <trkpt lat="47.5598882138729095458984375" lon="-3.05529020726680755615234375">
        <ele>-0.60000002384185791015625</ele>
        <time>2026-08-15T17:01:35.000Z</time>
        <extensions>
          <ns3:TrackPointExtension>
            <ns3:hr>140</ns3:hr>
          </ns3:TrackPointExtension>
        </extensions>
      </trkpt>
      <trkpt lat="47.55990539677441120147705078125" lon="-3.05528040044009685516357421875">
        <ele>-0.800000011920928955078125</ele>
        <time>2026-08-15T17:01:36.000Z</time>
        <extensions>
          <ns3:TrackPointExtension>
            <ns3:hr>140</ns3:hr>
          </ns3:TrackPointExtension>
        </extensions>
      </trkpt>
      <trkpt lat="47.559914030134677886962890625" lon="-3.05526916868984699249267578125">
        <ele>-1.60000002384185791015625</ele>
        <time>2026-08-15T17:01:37.000Z</time>
        <extensions>
          <ns3:TrackPointExtension>
            <ns3:hr>141</ns3:hr>
          </ns3:TrackPointExtension>
        </extensions>
      </trkpt>
      <trkpt lat="47.55992802791297435760498046875" lon="-3.05526497773826122283935546875">
        <ele>-1.7999999523162841796875</ele>
        <time>2026-08-15T17:01:38.000Z</time>
        <extensions>
          <ns3:TrackPointExtension>
            <ns3:hr>142</ns3:hr>
          </ns3:TrackPointExtension>
        </extensions>
      </trkpt>
      <trkpt lat="47.55993791855871677398681640625" lon="-3.05526874959468841552734375">
        <ele>-2</ele>
        <time>2026-08-15T17:01:39.000Z</time>
        <extensions>
          <ns3:TrackPointExtension>
            <ns3:hr>142</ns3:hr>
          </ns3:TrackPointExtension>
        </extensions>
      </trkpt>
      <trkpt lat="47.55995149724185466766357421875" lon="-3.05526338517665863037109375">
        <ele>-2</ele>
        <time>2026-08-15T17:01:40.000Z</time>
        <extensions>
          <ns3:TrackPointExtension>
            <ns3:hr>142</ns3:hr>
          </ns3:TrackPointExtension>
        </extensions>
      </trkpt>
      <trkpt lat="47.55996390245854854583740234375" lon="-3.0552546679973602294921875">
        <ele>-2</ele>
        <time>2026-08-15T17:01:41.000Z</time>
        <extensions>
          <ns3:TrackPointExtension>
            <ns3:hr>143</ns3:hr>
          </ns3:TrackPointExtension>
        </extensions>
      </trkpt>
      <trkpt lat="47.5599752180278301239013671875" lon="-3.05525843985378742218017578125">
        <ele>-1.7999999523162841796875</ele>
        <time>2026-08-15T17:01:42.000Z</time>
        <extensions>
          <ns3:TrackPointExtension>
            <ns3:hr>140</ns3:hr>
          </ns3:TrackPointExtension>
        </extensions>
      </trkpt>
      <trkpt lat="47.55998410284519195556640625" lon="-3.0552585236728191375732421875">
        <ele>-1.7999999523162841796875</ele>
        <time>2026-08-15T17:01:43.000Z</time>
        <extensions>
          <ns3:TrackPointExtension>
            <ns3:hr>138</ns3:hr>
          </ns3:TrackPointExtension>
        </extensions>
      </trkpt>
      <trkpt lat="47.55999525077641010284423828125" lon="-3.0552571825683116912841796875">
        <ele>-1.7999999523162841796875</ele>
        <time>2026-08-15T17:01:44.000Z</time>
        <extensions>
          <ns3:TrackPointExtension>
            <ns3:hr>138</ns3:hr>
          </ns3:TrackPointExtension>
        </extensions>
      </trkpt>
      <trkpt lat="47.56000614725053310394287109375" lon="-3.05525123141705989837646484375">
        <ele>-1.60000002384185791015625</ele>
        <time>2026-08-15T17:01:45.000Z</time>
        <extensions>
          <ns3:TrackPointExtension>
            <ns3:hr>138</ns3:hr>
          </ns3:TrackPointExtension>
        </extensions>
      </trkpt>
      <trkpt lat="47.56001704372465610504150390625" lon="-3.05524720810353755950927734375">
        <ele>-1.60000002384185791015625</ele>
        <time>2026-08-15T17:01:46.000Z</time>
        <extensions>
          <ns3:TrackPointExtension>
            <ns3:hr>137</ns3:hr>
          </ns3:TrackPointExtension>
        </extensions>
      </trkpt>
      <trkpt lat="47.56002609618008136749267578125" lon="-3.055247962474822998046875">
        <ele>-1.39999997615814208984375</ele>
        <time>2026-08-15T17:01:47.000Z</time>
        <extensions>
          <ns3:TrackPointExtension>
            <ns3:hr>137</ns3:hr>
          </ns3:TrackPointExtension>
        </extensions>
      </trkpt>
      <trkpt lat="47.560040093958377838134765625" lon="-3.055246286094188690185546875">
        <ele>-1.39999997615814208984375</ele>
        <time>2026-08-15T17:01:48.000Z</time>
        <extensions>
          <ns3:TrackPointExtension>
            <ns3:hr>137</ns3:hr>
          </ns3:TrackPointExtension>
        </extensions>
      </trkpt>
      <trkpt lat="47.56005308590829372406005859375" lon="-3.0552439391613006591796875">
        <ele>-1.39999997615814208984375</ele>
        <time>2026-08-15T17:01:49.000Z</time>
        <extensions>
          <ns3:TrackPointExtension>
            <ns3:hr>136</ns3:hr>
          </ns3:TrackPointExtension>
        </extensions>
      </trkpt>
      <trkpt lat="47.5600633956491947174072265625" lon="-3.05523631162941455841064453125">
        <ele>-1.2000000476837158203125</ele>
        <time>2026-08-15T17:01:50.000Z</time>
        <extensions>
          <ns3:TrackPointExtension>
            <ns3:hr>136</ns3:hr>
          </ns3:TrackPointExtension>
        </extensions>
      </trkpt>
      <trkpt lat="47.5600784830749034881591796875" lon="-3.05522826500236988067626953125">
        <ele>-1.2000000476837158203125</ele>
        <time>2026-08-15T17:01:51.000Z</time>
        <extensions>
          <ns3:TrackPointExtension>
            <ns3:hr>135</ns3:hr>
          </ns3:TrackPointExtension>
        </extensions>
      </trkpt>
      <trkpt lat="47.56009466014802455902099609375" lon="-3.05522105656564235687255859375">
        <ele>-1.2000000476837158203125</ele>
        <time>2026-08-15T17:01:52.000Z</time>
        <extensions>
          <ns3:TrackPointExtension>
            <ns3:hr>136</ns3:hr>
          </ns3:TrackPointExtension>
        </extensions>
      </trkpt>
      <trkpt lat="47.56012097932398319244384765625" lon="-3.05521368049085140228271484375">
        <ele>-1.2000000476837158203125</ele>
        <time>2026-08-15T17:01:53.000Z</time>
        <extensions>
          <ns3:TrackPointExtension>
            <ns3:hr>137</ns3:hr>
          </ns3:TrackPointExtension>
        </extensions>
      </trkpt>
      <trkpt lat="47.56014126352965831756591796875" lon="-3.0551983416080474853515625">
        <ele>-1.39999997615814208984375</ele>
        <time>2026-08-15T17:01:54.000Z</time>
        <extensions>
          <ns3:TrackPointExtension>
            <ns3:hr>138</ns3:hr>
          </ns3:TrackPointExtension>
        </extensions>
      </trkpt>
      <trkpt lat="47.5601666606962680816650390625" lon="-3.055175878107547760009765625">
        <ele>-0.60000002384185791015625</ele>
        <time>2026-08-15T17:01:55.000Z</time>
        <extensions>
          <ns3:TrackPointExtension>
            <ns3:hr>139</ns3:hr>
          </ns3:TrackPointExtension>
        </extensions>
      </trkpt>
      <trkpt lat="47.560197673738002777099609375" lon="-3.0551498942077159881591796875">
        <ele>2.7999999523162841796875</ele>
        <time>2026-08-15T17:01:56.000Z</time>
        <extensions>
          <ns3:TrackPointExtension>
            <ns3:hr>139</ns3:hr>
          </ns3:TrackPointExtension>
        </extensions>
      </trkpt>
      <trkpt lat="47.56023195572197437286376953125" lon="-3.0551498942077159881591796875">
        <ele>4</ele>
        <time>2026-08-15T17:01:57.000Z</time>
        <extensions>
          <ns3:TrackPointExtension>
            <ns3:hr>139</ns3:hr>
          </ns3:TrackPointExtension>
        </extensions>
      </trkpt>
      <trkpt lat="47.5602635554969310760498046875" lon="-3.05515073239803314208984375">
        <ele>5.400000095367431640625</ele>
        <time>2026-08-15T17:01:58.000Z</time>
        <extensions>
          <ns3:TrackPointExtension>
            <ns3:hr>139</ns3:hr>
          </ns3:TrackPointExtension>
        </extensions>
      </trkpt>
      <trkpt lat="47.5603014416992664337158203125" lon="-3.05514377541840076446533203125">
        <ele>6.599999904632568359375</ele>
        <time>2026-08-15T17:01:59.000Z</time>
        <extensions>
          <ns3:TrackPointExtension>
            <ns3:hr>139</ns3:hr>
          </ns3:TrackPointExtension>
        </extensions>
      </trkpt>
      <trkpt lat="47.560349218547344207763671875" lon="-3.0551378242671489715576171875">
        <ele>7.19999980926513671875</ele>
        <time>2026-08-15T17:02:00.000Z</time>
        <extensions>
          <ns3:TrackPointExtension>
            <ns3:hr>139</ns3:hr>
          </ns3:TrackPointExtension>
        </extensions>
      </trkpt>
      <trkpt lat="47.560395486652851104736328125" lon="-3.0551473796367645263671875">
        <ele>8.19999980926513671875</ele>
        <time>2026-08-15T17:02:01.000Z</time>
        <extensions>
          <ns3:TrackPointExtension>
            <ns3:hr>139</ns3:hr>
          </ns3:TrackPointExtension>
        </extensions>
      </trkpt>
      <trkpt lat="47.5604429282248020172119140625" lon="-3.055152408778667449951171875">
        <ele>8.19999980926513671875</ele>
        <time>2026-08-15T17:02:02.000Z</time>
        <extensions>
          <ns3:TrackPointExtension>
            <ns3:hr>138</ns3:hr>
          </ns3:TrackPointExtension>
        </extensions>
      </trkpt>
      <trkpt lat="47.56048911251127719879150390625" lon="-3.05515098385512828826904296875">
        <ele>8</ele>
        <time>2026-08-15T17:02:03.000Z</time>
        <extensions>
          <ns3:TrackPointExtension>
            <ns3:hr>137</ns3:hr>
          </ns3:TrackPointExtension>
        </extensions>
      </trkpt>
      <trkpt lat="47.56053487770259380340576171875" lon="-3.055155761539936065673828125">
        <ele>8</ele>
        <time>2026-08-15T17:02:04.000Z</time>
        <extensions>
          <ns3:TrackPointExtension>
            <ns3:hr>137</ns3:hr>
          </ns3:TrackPointExtension>
        </extensions>
      </trkpt>
      <trkpt lat="47.56058156490325927734375" lon="-3.0551742017269134521484375">
        <ele>8</ele>
        <time>2026-08-15T17:02:05.000Z</time>
        <extensions>
          <ns3:TrackPointExtension>
            <ns3:hr>136</ns3:hr>
          </ns3:TrackPointExtension>
        </extensions>
      </trkpt>
      <trkpt lat="47.56062858738005161285400390625" lon="-3.05520395748317241668701171875">
        <ele>8</ele>
        <time>2026-08-15T17:02:06.000Z</time>
        <extensions>
          <ns3:TrackPointExtension>
            <ns3:hr>136</ns3:hr>
          </ns3:TrackPointExtension>
        </extensions>
      </trkpt>
      <trkpt lat="47.5606759451329708099365234375" lon="-3.05523631162941455841064453125">
        <ele>8</ele>
        <time>2026-08-15T17:02:07.000Z</time>
        <extensions>
          <ns3:TrackPointExtension>
            <ns3:hr>136</ns3:hr>
          </ns3:TrackPointExtension>
        </extensions>
      </trkpt>
      <trkpt lat="47.5607196986675262451171875" lon="-3.0552518181502819061279296875">
        <ele>8.19999980926513671875</ele>
        <time>2026-08-15T17:02:08.000Z</time>
        <extensions>
          <ns3:TrackPointExtension>
            <ns3:hr>136</ns3:hr>
          </ns3:TrackPointExtension>
        </extensions>
      </trkpt>
      <trkpt lat="47.56077158264815807342529296875" lon="-3.05527143180370330810546875">
        <ele>8.3999996185302734375</ele>
        <time>2026-08-15T17:02:09.000Z</time>
        <extensions>
          <ns3:TrackPointExtension>
            <ns3:hr>137</ns3:hr>
          </ns3:TrackPointExtension>
        </extensions>
      </trkpt>
      <trkpt lat="47.56082229316234588623046875" lon="-3.055295236408710479736328125">
        <ele>8.3999996185302734375</ele>
        <time>2026-08-15T17:02:10.000Z</time>
        <extensions>
          <ns3:TrackPointExtension>
            <ns3:hr>138</ns3:hr>
          </ns3:TrackPointExtension>
        </extensions>
      </trkpt>
      <trkpt lat="47.56087048910558223724365234375" lon="-3.0553270876407623291015625">
        <ele>8.19999980926513671875</ele>
        <time>2026-08-15T17:02:11.000Z</time>
        <extensions>
          <ns3:TrackPointExtension>
            <ns3:hr>140</ns3:hr>
          </ns3:TrackPointExtension>
        </extensions>
      </trkpt>
      <trkpt lat="47.5609200261533260345458984375" lon="-3.05536053143441677093505859375">
        <ele>8</ele>
        <time>2026-08-15T17:02:12.000Z</time>
        <extensions>
          <ns3:TrackPointExtension>
            <ns3:hr>149</ns3:hr>
          </ns3:TrackPointExtension>
        </extensions>
      </trkpt>
      <trkpt lat="47.56096939556300640106201171875" lon="-3.05539120920002460479736328125">
        <ele>7.80000019073486328125</ele>
        <time>2026-08-15T17:02:13.000Z</time>
        <extensions>
          <ns3:TrackPointExtension>
            <ns3:hr>153</ns3:hr>
          </ns3:TrackPointExtension>
        </extensions>
      </trkpt>
      <trkpt lat="47.561015076935291290283203125" lon="-3.05541501380503177642822265625">
        <ele>7.599999904632568359375</ele>
        <time>2026-08-15T17:02:14.000Z</time>
        <extensions>
          <ns3:TrackPointExtension>
            <ns3:hr>153</ns3:hr>
          </ns3:TrackPointExtension>
        </extensions>
      </trkpt>
      <trkpt lat="47.56106561981141567230224609375" lon="-3.05543345399200916290283203125">
        <ele>7.599999904632568359375</ele>
        <time>2026-08-15T17:02:15.000Z</time>
        <extensions>
          <ns3:TrackPointExtension>
            <ns3:hr>153</ns3:hr>
          </ns3:TrackPointExtension>
        </extensions>
      </trkpt>
      <trkpt lat="47.56111406721174716949462890625" lon="-3.05546698160469532012939453125">
        <ele>7.599999904632568359375</ele>
        <time>2026-08-15T17:02:16.000Z</time>
        <extensions>
          <ns3:TrackPointExtension>
            <ns3:hr>153</ns3:hr>
          </ns3:TrackPointExtension>
        </extensions>
      </trkpt>
      <trkpt lat="47.5611657835543155670166015625" lon="-3.0554898642003536224365234375">
        <ele>7.80000019073486328125</ele>
        <time>2026-08-15T17:02:17.000Z</time>
        <extensions>
          <ns3:TrackPointExtension>
            <ns3:hr>152</ns3:hr>
          </ns3:TrackPointExtension>
        </extensions>
      </trkpt>
      <trkpt lat="47.56121347658336162567138671875" lon="-3.055503107607364654541015625">
        <ele>8</ele>
        <time>2026-08-15T17:02:18.000Z</time>
        <extensions>
          <ns3:TrackPointExtension>
            <ns3:hr>152</ns3:hr>
          </ns3:TrackPointExtension>
        </extensions>
      </trkpt>
      <trkpt lat="47.56126142106950283050537109375" lon="-3.05553051643073558807373046875">
        <ele>8.19999980926513671875</ele>
        <time>2026-08-15T17:02:19.000Z</time>
        <extensions>
          <ns3:TrackPointExtension>
            <ns3:hr>153</ns3:hr>
          </ns3:TrackPointExtension>
        </extensions>
      </trkpt>
      <trkpt lat="47.5613089464604854583740234375" lon="-3.055554069578647613525390625">
        <ele>8.3999996185302734375</ele>
        <time>2026-08-15T17:02:20.000Z</time>
        <extensions>
          <ns3:TrackPointExtension>
            <ns3:hr>153</ns3:hr>
          </ns3:TrackPointExtension>
        </extensions>
      </trkpt>
      <trkpt lat="47.561356723308563232421875" lon="-3.0555767007172107696533203125">
        <ele>8.3999996185302734375</ele>
        <time>2026-08-15T17:02:21.000Z</time>
        <extensions>
          <ns3:TrackPointExtension>
            <ns3:hr>154</ns3:hr>
          </ns3:TrackPointExtension>
        </extensions>
      </trkpt>
      <trkpt lat="47.561406679451465606689453125" lon="-3.05559555999934673309326171875">
        <ele>8.6000003814697265625</ele>
        <time>2026-08-15T17:02:22.000Z</time>
        <extensions>
          <ns3:TrackPointExtension>
            <ns3:hr>154</ns3:hr>
          </ns3:TrackPointExtension>
        </extensions>
      </trkpt>
      <trkpt lat="47.56145454011857509613037109375" lon="-3.0556199513375759124755859375">
        <ele>9</ele>
        <time>2026-08-15T17:02:23.000Z</time>
        <extensions>
          <ns3:TrackPointExtension>
            <ns3:hr>154</ns3:hr>
          </ns3:TrackPointExtension>
        </extensions>
      </trkpt>
      <trkpt lat="47.56150298751890659332275390625" lon="-3.055650293827056884765625">
        <ele>9</ele>
        <time>2026-08-15T17:02:24.000Z</time>
        <extensions>
          <ns3:TrackPointExtension>
            <ns3:hr>154</ns3:hr>
          </ns3:TrackPointExtension>
        </extensions>
      </trkpt>
      <trkpt lat="47.56155746988952159881591796875" lon="-3.05567619390785694122314453125">
        <ele>8.80000019073486328125</ele>
        <time>2026-08-15T17:02:25.000Z</time>
        <extensions>
          <ns3:TrackPointExtension>
            <ns3:hr>154</ns3:hr>
          </ns3:TrackPointExtension>
        </extensions>
      </trkpt>
      <trkpt lat="47.56160683929920196533203125" lon="-3.05570402182638645172119140625">
        <ele>8.80000019073486328125</ele>
        <time>2026-08-15T17:02:26.000Z</time>
        <extensions>
          <ns3:TrackPointExtension>
            <ns3:hr>153</ns3:hr>
          </ns3:TrackPointExtension>
        </extensions>
      </trkpt>
      <trkpt lat="47.56165218539535999298095703125" lon="-3.0557429976761341094970703125">
        <ele>8.3999996185302734375</ele>
        <time>2026-08-15T17:02:27.000Z</time>
        <extensions>
          <ns3:TrackPointExtension>
            <ns3:hr>153</ns3:hr>
          </ns3:TrackPointExtension>
        </extensions>
      </trkpt>
      <trkpt lat="47.56169694475829601287841796875" lon="-3.05577828548848628997802734375">
        <ele>7.80000019073486328125</ele>
        <time>2026-08-15T17:02:28.000Z</time>
        <extensions>
          <ns3:TrackPointExtension>
            <ns3:hr>152</ns3:hr>
          </ns3:TrackPointExtension>
        </extensions>
      </trkpt>
      <trkpt lat="47.56174371577799320220947265625" lon="-3.0558018386363983154296875">
        <ele>7.80000019073486328125</ele>
        <time>2026-08-15T17:02:29.000Z</time>
        <extensions>
          <ns3:TrackPointExtension>
            <ns3:hr>152</ns3:hr>
          </ns3:TrackPointExtension>
        </extensions>
      </trkpt>
      <trkpt lat="47.56179082207381725311279296875" lon="-3.0558286607265472412109375">
        <ele>7.80000019073486328125</ele>
        <time>2026-08-15T17:02:30.000Z</time>
        <extensions>
          <ns3:TrackPointExtension>
            <ns3:hr>151</ns3:hr>
          </ns3:TrackPointExtension>
        </extensions>
      </trkpt>
      <trkpt lat="47.56184111349284648895263671875" lon="-3.05585674010217189788818359375">
        <ele>7.80000019073486328125</ele>
        <time>2026-08-15T17:02:31.000Z</time>
        <extensions>
          <ns3:TrackPointExtension>
            <ns3:hr>150</ns3:hr>
          </ns3:TrackPointExtension>
        </extensions>
      </trkpt>
      <trkpt lat="47.56188738159835338592529296875" lon="-3.05587786249816417694091796875">
        <ele>8</ele>
        <time>2026-08-15T17:02:32.000Z</time>
        <extensions>
          <ns3:TrackPointExtension>
            <ns3:hr>150</ns3:hr>
          </ns3:TrackPointExtension>
        </extensions>
      </trkpt>
      <trkpt lat="47.56193532608449459075927734375" lon="-3.0558918602764606475830078125">
        <ele>8.19999980926513671875</ele>
        <time>2026-08-15T17:02:33.000Z</time>
        <extensions>
          <ns3:TrackPointExtension>
            <ns3:hr>150</ns3:hr>
          </ns3:TrackPointExtension>
        </extensions>
      </trkpt>
      <trkpt lat="47.5619868747889995574951171875" lon="-3.0558968894183635711669921875">
        <ele>7.80000019073486328125</ele>
        <time>2026-08-15T17:02:34.000Z</time>
        <extensions>
          <ns3:TrackPointExtension>
            <ns3:hr>149</ns3:hr>
          </ns3:TrackPointExtension>
        </extensions>
      </trkpt>
      <trkpt lat="47.5620393455028533935546875" lon="-3.055911473929882049560546875">
        <ele>7.599999904632568359375</ele>
        <time>2026-08-15T17:02:35.000Z</time>
        <extensions>
          <ns3:TrackPointExtension>
            <ns3:hr>149</ns3:hr>
          </ns3:TrackPointExtension>
        </extensions>
      </trkpt>
      <trkpt lat="47.56209340877830982208251953125" lon="-3.05594265460968017578125">
        <ele>7.400000095367431640625</ele>
        <time>2026-08-15T17:02:36.000Z</time>
        <extensions>
          <ns3:TrackPointExtension>
            <ns3:hr>148</ns3:hr>
          </ns3:TrackPointExtension>
        </extensions>
      </trkpt>
      <trkpt lat="47.56214487366378307342529296875" lon="-3.0559736676514148712158203125">
        <ele>7.400000095367431640625</ele>
        <time>2026-08-15T17:02:37.000Z</time>
        <extensions>
          <ns3:TrackPointExtension>
            <ns3:hr>148</ns3:hr>
          </ns3:TrackPointExtension>
        </extensions>
      </trkpt>
      <trkpt lat="47.56219516508281230926513671875" lon="-3.05600258521735668182373046875">
        <ele>7.599999904632568359375</ele>
        <time>2026-08-15T17:02:38.000Z</time>
        <extensions>
          <ns3:TrackPointExtension>
            <ns3:hr>147</ns3:hr>
          </ns3:TrackPointExtension>
        </extensions>
      </trkpt>
      <trkpt lat="47.5622463785111904144287109375" lon="-3.05602689273655414581298828125">
        <ele>8</ele>
        <time>2026-08-15T17:02:39.000Z</time>
        <extensions>
          <ns3:TrackPointExtension>
            <ns3:hr>145</ns3:hr>
          </ns3:TrackPointExtension>
        </extensions>
      </trkpt>
      <trkpt lat="47.5622980110347270965576171875" lon="-3.056051619350910186767578125">
        <ele>8</ele>
        <time>2026-08-15T17:02:40.000Z</time>
        <extensions>
          <ns3:TrackPointExtension>
            <ns3:hr>144</ns3:hr>
          </ns3:TrackPointExtension>
        </extensions>
      </trkpt>
      <trkpt lat="47.56234939210116863250732421875" lon="-3.05607198737561702728271484375">
        <ele>7.80000019073486328125</ele>
        <time>2026-08-15T17:02:41.000Z</time>
        <extensions>
          <ns3:TrackPointExtension>
            <ns3:hr>143</ns3:hr>
          </ns3:TrackPointExtension>
        </extensions>
      </trkpt>
      <trkpt lat="47.5624002702534198760986328125" lon="-3.0560859851539134979248046875">
        <ele>7.599999904632568359375</ele>
        <time>2026-08-15T17:02:42.000Z</time>
        <extensions>
          <ns3:TrackPointExtension>
            <ns3:hr>142</ns3:hr>
          </ns3:TrackPointExtension>
        </extensions>
      </trkpt>
      <trkpt lat="47.56244905292987823486328125" lon="-3.05609864182770252227783203125">
        <ele>7.599999904632568359375</ele>
        <time>2026-08-15T17:02:43.000Z</time>
        <extensions>
          <ns3:TrackPointExtension>
            <ns3:hr>142</ns3:hr>
          </ns3:TrackPointExtension>
        </extensions>
      </trkpt>
      <trkpt lat="47.56249641068279743194580078125" lon="-3.05608891882002353668212890625">
        <ele>7.400000095367431640625</ele>
        <time>2026-08-15T17:02:44.000Z</time>
        <extensions>
          <ns3:TrackPointExtension>
            <ns3:hr>142</ns3:hr>
          </ns3:TrackPointExtension>
        </extensions>
      </trkpt>
      <trkpt lat="47.562531866133213043212890625" lon="-3.0560539662837982177734375">
        <ele>7</ele>
        <time>2026-08-15T17:02:45.000Z</time>
        <extensions>
          <ns3:TrackPointExtension>
            <ns3:hr>142</ns3:hr>
          </ns3:TrackPointExtension>
        </extensions>
      </trkpt>
      <trkpt lat="47.5625677406787872314453125" lon="-3.05601700209081172943115234375">
        <ele>6.80000019073486328125</ele>
        <time>2026-08-15T17:02:46.000Z</time>
        <extensions>
          <ns3:TrackPointExtension>
            <ns3:hr>141</ns3:hr>
          </ns3:TrackPointExtension>
        </extensions>
      </trkpt>
      <trkpt lat="47.562602274119853973388671875" lon="-3.0559807084500789642333984375">
        <ele>6.599999904632568359375</ele>
        <time>2026-08-15T17:02:47.000Z</time>
        <extensions>
          <ns3:TrackPointExtension>
            <ns3:hr>140</ns3:hr>
          </ns3:TrackPointExtension>
        </extensions>
      </trkpt>
      <trkpt lat="47.56263923831284046173095703125" lon="-3.0559414811432361602783203125">
        <ele>6</ele>
        <time>2026-08-15T17:02:48.000Z</time>
        <extensions>
          <ns3:TrackPointExtension>
            <ns3:hr>140</ns3:hr>
          </ns3:TrackPointExtension>
        </extensions>
      </trkpt>
      <trkpt lat="47.56266807205975055694580078125" lon="-3.05588725022971630096435546875">
        <ele>5.80000019073486328125</ele>
        <time>2026-08-15T17:02:49.000Z</time>
        <extensions>
          <ns3:TrackPointExtension>
            <ns3:hr>139</ns3:hr>
          </ns3:TrackPointExtension>
        </extensions>
      </trkpt>
      <trkpt lat="47.5627005100250244140625" lon="-3.05583897046744823455810546875">
        <ele>5.80000019073486328125</ele>
        <time>2026-08-15T17:02:50.000Z</time>
        <extensions>
          <ns3:TrackPointExtension>
            <ns3:hr>139</ns3:hr>
          </ns3:TrackPointExtension>
        </extensions>
      </trkpt>
      <trkpt lat="47.562750466167926788330078125" lon="-3.05581600405275821685791015625">
        <ele>5.80000019073486328125</ele>
        <time>2026-08-15T17:02:51.000Z</time>
        <extensions>
          <ns3:TrackPointExtension>
            <ns3:hr>138</ns3:hr>
          </ns3:TrackPointExtension>
        </extensions>
      </trkpt>
      <trkpt lat="47.56280235014855861663818359375" lon="-3.05582472123205661773681640625">
        <ele>6.19999980926513671875</ele>
        <time>2026-08-15T17:02:52.000Z</time>
        <extensions>
          <ns3:TrackPointExtension>
            <ns3:hr>137</ns3:hr>
          </ns3:TrackPointExtension>
        </extensions>
      </trkpt>
      <trkpt lat="47.5628502108156681060791015625" lon="-3.05583980865776538848876953125">
        <ele>6.400000095367431640625</ele>
        <time>2026-08-15T17:02:53.000Z</time>
        <extensions>
          <ns3:TrackPointExtension>
            <ns3:hr>137</ns3:hr>
          </ns3:TrackPointExtension>
        </extensions>
      </trkpt>
      <trkpt lat="47.5629003345966339111328125" lon="-3.05585506372153759002685546875">
        <ele>7</ele>
        <time>2026-08-15T17:02:54.000Z</time>
        <extensions>
          <ns3:TrackPointExtension>
            <ns3:hr>137</ns3:hr>
          </ns3:TrackPointExtension>
        </extensions>
      </trkpt>
      <trkpt lat="47.56295104511082172393798828125" lon="-3.05587551556527614593505859375">
        <ele>7.19999980926513671875</ele>
        <time>2026-08-15T17:02:55.000Z</time>
        <extensions>
          <ns3:TrackPointExtension>
            <ns3:hr>136</ns3:hr>
          </ns3:TrackPointExtension>
        </extensions>
      </trkpt>
      <trkpt lat="47.5630030967295169830322265625" lon="-3.055888004601001739501953125">
        <ele>7.400000095367431640625</ele>
        <time>2026-08-15T17:02:56.000Z</time>
        <extensions>
          <ns3:TrackPointExtension>
            <ns3:hr>136</ns3:hr>
          </ns3:TrackPointExtension>
        </extensions>
      </trkpt>
      <trkpt lat="47.563059590756893157958984375" lon="-3.0559106357395648956298828125">
        <ele>7.599999904632568359375</ele>
        <time>2026-08-15T17:02:57.000Z</time>
        <extensions>
          <ns3:TrackPointExtension>
            <ns3:hr>135</ns3:hr>
          </ns3:TrackPointExtension>
        </extensions>
      </trkpt>
      <trkpt lat="47.56311901845037937164306640625" lon="-3.055929578840732574462890625">
        <ele>8</ele>
        <time>2026-08-15T17:02:58.000Z</time>
        <extensions>
          <ns3:TrackPointExtension>
            <ns3:hr>134</ns3:hr>
          </ns3:TrackPointExtension>
        </extensions>
      </trkpt>
      <trkpt lat="47.563178949058055877685546875" lon="-3.0559424869716167449951171875">
        <ele>8</ele>
        <time>2026-08-15T17:02:59.000Z</time>
        <extensions>
          <ns3:TrackPointExtension>
            <ns3:hr>134</ns3:hr>
          </ns3:TrackPointExtension>
        </extensions>
      </trkpt>
      <trkpt lat="47.5632354430854320526123046875" lon="-3.05595782585442066192626953125">
        <ele>8</ele>
        <time>2026-08-15T17:03:00.000Z</time>
        <extensions>
          <ns3:TrackPointExtension>
            <ns3:hr>134</ns3:hr>
          </ns3:TrackPointExtension>
        </extensions>
      </trkpt>
      <trkpt lat="47.5632904283702373504638671875" lon="-3.0559776909649372100830078125">
        <ele>8</ele>
        <time>2026-08-15T17:03:01.000Z</time>
        <extensions>
          <ns3:TrackPointExtension>
            <ns3:hr>134</ns3:hr>
          </ns3:TrackPointExtension>
        </extensions>
      </trkpt>
      <trkpt lat="47.56334365345537662506103515625" lon="-3.05599152110517024993896484375">
        <ele>7.599999904632568359375</ele>
        <time>2026-08-15T17:03:02.000Z</time>
        <extensions>
          <ns3:TrackPointExtension>
            <ns3:hr>134</ns3:hr>
          </ns3:TrackPointExtension>
        </extensions>
      </trkpt>
      <trkpt lat="47.56339612416923046112060546875" lon="-3.05600828491151332855224609375">
        <ele>7.19999980926513671875</ele>
        <time>2026-08-15T17:03:03.000Z</time>
        <extensions>
          <ns3:TrackPointExtension>
            <ns3:hr>133</ns3:hr>
          </ns3:TrackPointExtension>
        </extensions>
      </trkpt>
      <trkpt lat="47.56345354020595550537109375" lon="-3.05603560991585254669189453125">
        <ele>7</ele>
        <time>2026-08-15T17:03:04.000Z</time>
        <extensions>
          <ns3:TrackPointExtension>
            <ns3:hr>132</ns3:hr>
          </ns3:TrackPointExtension>
        </extensions>
      </trkpt>
      <trkpt lat="47.56350927986204624176025390625" lon="-3.05605522356927394866943359375">
        <ele>7.19999980926513671875</ele>
        <time>2026-08-15T17:03:05.000Z</time>
        <extensions>
          <ns3:TrackPointExtension>
            <ns3:hr>132</ns3:hr>
          </ns3:TrackPointExtension>
        </extensions>
      </trkpt>
      <trkpt lat="47.56356108002364635467529296875" lon="-3.056076429784297943115234375">
        <ele>7.19999980926513671875</ele>
        <time>2026-08-15T17:03:06.000Z</time>
        <extensions>
          <ns3:TrackPointExtension>
            <ns3:hr>132</ns3:hr>
          </ns3:TrackPointExtension>
        </extensions>
      </trkpt>
      <trkpt lat="47.56360768340528011322021484375" lon="-3.05608950555324554443359375">
        <ele>7</ele>
        <time>2026-08-15T17:03:07.000Z</time>
        <extensions>
          <ns3:TrackPointExtension>
            <ns3:hr>132</ns3:hr>
          </ns3:TrackPointExtension>
        </extensions>
      </trkpt>
      <trkpt lat="47.563663087785243988037109375" lon="-3.056108951568603515625">
        <ele>7</ele>
        <time>2026-08-15T17:03:08.000Z</time>
        <extensions>
          <ns3:TrackPointExtension>
            <ns3:hr>131</ns3:hr>
          </ns3:TrackPointExtension>
        </extensions>
      </trkpt>
      <trkpt lat="47.56371648050844669342041015625" lon="-3.0561263859272003173828125">
        <ele>6.80000019073486328125</ele>
        <time>2026-08-15T17:03:09.000Z</time>
        <extensions>
          <ns3:TrackPointExtension>
            <ns3:hr>131</ns3:hr>
          </ns3:TrackPointExtension>
        </extensions>
      </trkpt>
      <trkpt lat="47.5637666881084442138671875" lon="-3.056140802800655364990234375">
        <ele>6.80000019073486328125</ele>
        <time>2026-08-15T17:03:10.000Z</time>
        <extensions>
          <ns3:TrackPointExtension>
            <ns3:hr>131</ns3:hr>
          </ns3:TrackPointExtension>
        </extensions>
      </trkpt>
      <trkpt lat="47.56381521932780742645263671875" lon="-3.0561540462076663970947265625">
        <ele>6.599999904632568359375</ele>
        <time>2026-08-15T17:03:11.000Z</time>
        <extensions>
          <ns3:TrackPointExtension>
            <ns3:hr>131</ns3:hr>
          </ns3:TrackPointExtension>
        </extensions>
      </trkpt>
      <trkpt lat="47.56386735476553440093994140625" lon="-3.05616460740566253662109375">
        <ele>6.80000019073486328125</ele>
        <time>2026-08-15T17:03:12.000Z</time>
        <extensions>
          <ns3:TrackPointExtension>
            <ns3:hr>132</ns3:hr>
          </ns3:TrackPointExtension>
        </extensions>
      </trkpt>
      <trkpt lat="47.563913203775882720947265625" lon="-3.056177012622356414794921875">
        <ele>6.599999904632568359375</ele>
        <time>2026-08-15T17:03:13.000Z</time>
        <extensions>
          <ns3:TrackPointExtension>
            <ns3:hr>132</ns3:hr>
          </ns3:TrackPointExtension>
        </extensions>
      </trkpt>
      <trkpt lat="47.5639566220343112945556640625" lon="-3.05619117803871631622314453125">
        <ele>6.400000095367431640625</ele>
        <time>2026-08-15T17:03:14.000Z</time>
        <extensions>
          <ns3:TrackPointExtension>
            <ns3:hr>132</ns3:hr>
          </ns3:TrackPointExtension>
        </extensions>
      </trkpt>
      <trkpt lat="47.56400381214916706085205078125" lon="-3.05620810948312282562255859375">
        <ele>6.400000095367431640625</ele>
        <time>2026-08-15T17:03:15.000Z</time>
        <extensions>
          <ns3:TrackPointExtension>
            <ns3:hr>132</ns3:hr>
          </ns3:TrackPointExtension>
        </extensions>
      </trkpt>
      <trkpt lat="47.56405561231076717376708984375" lon="-3.0562231130897998809814453125">
        <ele>6.599999904632568359375</ele>
        <time>2026-08-15T17:03:16.000Z</time>
        <extensions>
          <ns3:TrackPointExtension>
            <ns3:hr>132</ns3:hr>
          </ns3:TrackPointExtension>
        </extensions>
      </trkpt>
      <trkpt lat="47.56410774774849414825439453125" lon="-3.05623124353587627410888671875">
        <ele>6.400000095367431640625</ele>
        <time>2026-08-15T17:03:17.000Z</time>
        <extensions>
          <ns3:TrackPointExtension>
            <ns3:hr>132</ns3:hr>
          </ns3:TrackPointExtension>
        </extensions>
      </trkpt>
      <trkpt lat="47.5641596317291259765625" lon="-3.05621280334889888763427734375">
        <ele>6.400000095367431640625</ele>
        <time>2026-08-15T17:03:18.000Z</time>
        <extensions>
          <ns3:TrackPointExtension>
            <ns3:hr>131</ns3:hr>
          </ns3:TrackPointExtension>
        </extensions>
      </trkpt>
      <trkpt lat="47.56421319209039211273193359375" lon="-3.05616770870983600616455078125">
        <ele>6.599999904632568359375</ele>
        <time>2026-08-15T17:03:19.000Z</time>
        <extensions>
          <ns3:TrackPointExtension>
            <ns3:hr>132</ns3:hr>
          </ns3:TrackPointExtension>
        </extensions>
      </trkpt>
      <trkpt lat="47.5642560236155986785888671875" lon="-3.0561144836246967315673828125">
        <ele>6.19999980926513671875</ele>
        <time>2026-08-15T17:03:20.000Z</time>
        <extensions>
          <ns3:TrackPointExtension>
            <ns3:hr>132</ns3:hr>
          </ns3:TrackPointExtension>
        </extensions>
      </trkpt>
      <trkpt lat="47.56429851986467838287353515625" lon="-3.0560598336160182952880859375">
        <ele>5.400000095367431640625</ele>
        <time>2026-08-15T17:03:21.000Z</time>
        <extensions>
          <ns3:TrackPointExtension>
            <ns3:hr>132</ns3:hr>
          </ns3:TrackPointExtension>
        </extensions>
      </trkpt>
      <trkpt lat="47.5643371604382991790771484375" lon="-3.056001998484134674072265625">
        <ele>3.7999999523162841796875</ele>
        <time>2026-08-15T17:03:22.000Z</time>
        <extensions>
          <ns3:TrackPointExtension>
            <ns3:hr>132</ns3:hr>
          </ns3:TrackPointExtension>
        </extensions>
      </trkpt>
      <trkpt lat="47.56436959840357303619384765625" lon="-3.05594265460968017578125">
        <ele>3.400000095367431640625</ele>
        <time>2026-08-15T17:03:23.000Z</time>
        <extensions>
          <ns3:TrackPointExtension>
            <ns3:hr>132</ns3:hr>
          </ns3:TrackPointExtension>
        </extensions>
      </trkpt>
      <trkpt lat="47.56440438330173492431640625" lon="-3.0558989010751247406005859375">
        <ele>3.7999999523162841796875</ele>
        <time>2026-08-15T17:03:24.000Z</time>
        <extensions>
          <ns3:TrackPointExtension>
            <ns3:hr>132</ns3:hr>
          </ns3:TrackPointExtension>
        </extensions>
      </trkpt>
      <trkpt lat="47.56444285623729228973388671875" lon="-3.05586596019566059112548828125">
        <ele>4.400000095367431640625</ele>
        <time>2026-08-15T17:03:25.000Z</time>
        <extensions>
          <ns3:TrackPointExtension>
            <ns3:hr>132</ns3:hr>
          </ns3:TrackPointExtension>
        </extensions>
      </trkpt>
      <trkpt lat="47.56448174826800823211669921875" lon="-3.05583293549716472625732421875">
        <ele>4.80000019073486328125</ele>
        <time>2026-08-15T17:03:26.000Z</time>
        <extensions>
          <ns3:TrackPointExtension>
            <ns3:hr>132</ns3:hr>
          </ns3:TrackPointExtension>
        </extensions>
      </trkpt>
      <trkpt lat="47.56452516652643680572509765625" lon="-3.0558164231479167938232421875">
        <ele>9.3999996185302734375</ele>
        <time>2026-08-15T17:03:27.000Z</time>
        <extensions>
          <ns3:TrackPointExtension>
            <ns3:hr>133</ns3:hr>
          </ns3:TrackPointExtension>
        </extensions>
      </trkpt>
      <trkpt lat="47.56457512266933917999267578125" lon="-3.0558073706924915313720703125">
        <ele>10.6000003814697265625</ele>
        <time>2026-08-15T17:03:28.000Z</time>
        <extensions>
          <ns3:TrackPointExtension>
            <ns3:hr>133</ns3:hr>
          </ns3:TrackPointExtension>
        </extensions>
      </trkpt>
      <trkpt lat="47.56462809629738330841064453125" lon="-3.055810220539569854736328125">
        <ele>10.6000003814697265625</ele>
        <time>2026-08-15T17:03:29.000Z</time>
        <extensions>
          <ns3:TrackPointExtension>
            <ns3:hr>134</ns3:hr>
          </ns3:TrackPointExtension>
        </extensions>
      </trkpt>
      <trkpt lat="47.56468358449637889862060546875" lon="-3.05582933127880096435546875">
        <ele>10.6000003814697265625</ele>
        <time>2026-08-15T17:03:30.000Z</time>
        <extensions>
          <ns3:TrackPointExtension>
            <ns3:hr>134</ns3:hr>
          </ns3:TrackPointExtension>
        </extensions>
      </trkpt>
      <trkpt lat="47.56473907269537448883056640625" lon="-3.05583813227713108062744140625">
        <ele>10.6000003814697265625</ele>
        <time>2026-08-15T17:03:31.000Z</time>
        <extensions>
          <ns3:TrackPointExtension>
            <ns3:hr>135</ns3:hr>
          </ns3:TrackPointExtension>
        </extensions>
      </trkpt>
      <trkpt lat="47.5647961534559726715087890625" lon="-3.05583075620234012603759765625">
        <ele>10.19999980926513671875</ele>
        <time>2026-08-15T17:03:32.000Z</time>
        <extensions>
          <ns3:TrackPointExtension>
            <ns3:hr>135</ns3:hr>
          </ns3:TrackPointExtension>
        </extensions>
      </trkpt>
      <trkpt lat="47.56485390476882457733154296875" lon="-3.0558130703866481781005859375">
        <ele>9.80000019073486328125</ele>
        <time>2026-08-15T17:03:33.000Z</time>
        <extensions>
          <ns3:TrackPointExtension>
            <ns3:hr>136</ns3:hr>
          </ns3:TrackPointExtension>
        </extensions>
      </trkpt>
      <trkpt lat="47.564911656081676483154296875" lon="-3.0557795427739620208740234375">
        <ele>9.80000019073486328125</ele>
        <time>2026-08-15T17:03:34.000Z</time>
        <extensions>
          <ns3:TrackPointExtension>
            <ns3:hr>136</ns3:hr>
          </ns3:TrackPointExtension>
        </extensions>
      </trkpt>
      <trkpt lat="47.5649602711200714111328125" lon="-3.05572631768882274627685546875">
        <ele>9</ele>
        <time>2026-08-15T17:03:35.000Z</time>
        <extensions>
          <ns3:TrackPointExtension>
            <ns3:hr>137</ns3:hr>
          </ns3:TrackPointExtension>
        </extensions>
      </trkpt>
      <trkpt lat="47.56499103270471096038818359375" lon="-3.0556558258831501007080078125">
        <ele>8.19999980926513671875</ele>
        <time>2026-08-15T17:03:36.000Z</time>
        <extensions>
          <ns3:TrackPointExtension>
            <ns3:hr>137</ns3:hr>
          </ns3:TrackPointExtension>
        </extensions>
      </trkpt>
      <trkpt lat="47.565016262233257293701171875" lon="-3.05557913146913051605224609375">
        <ele>7.599999904632568359375</ele>
        <time>2026-08-15T17:03:37.000Z</time>
        <extensions>
          <ns3:TrackPointExtension>
            <ns3:hr>137</ns3:hr>
          </ns3:TrackPointExtension>
        </extensions>
      </trkpt>
      <trkpt lat="47.5650165975093841552734375" lon="-3.055500090122222900390625">
        <ele>7.599999904632568359375</ele>
        <time>2026-08-15T17:03:38.000Z</time>
        <extensions>
          <ns3:TrackPointExtension>
            <ns3:hr>138</ns3:hr>
          </ns3:TrackPointExtension>
        </extensions>
      </trkpt>
      <trkpt lat="47.56501215510070323944091796875" lon="-3.05541719309985637664794921875">
        <ele>7.19999980926513671875</ele>
        <time>2026-08-15T17:03:39.000Z</time>
        <extensions>
          <ns3:TrackPointExtension>
            <ns3:hr>138</ns3:hr>
          </ns3:TrackPointExtension>
        </extensions>
      </trkpt>
      <trkpt lat="47.5650006718933582305908203125" lon="-3.0553389899432659149169921875">
        <ele>7.19999980926513671875</ele>
        <time>2026-08-15T17:03:40.000Z</time>
        <extensions>
          <ns3:TrackPointExtension>
            <ns3:hr>138</ns3:hr>
          </ns3:TrackPointExtension>
        </extensions>
      </trkpt>
      <trkpt lat="47.564984075725078582763671875" lon="-3.05527755059301853179931640625">
        <ele>7</ele>
        <time>2026-08-15T17:03:41.000Z</time>
        <extensions>
          <ns3:TrackPointExtension>
            <ns3:hr>138</ns3:hr>
          </ns3:TrackPointExtension>
        </extensions>
      </trkpt>
      <trkpt lat="47.56495247595012187957763671875" lon="-3.05525240488350391387939453125">
        <ele>7</ele>
        <time>2026-08-15T17:03:42.000Z</time>
        <extensions>
          <ns3:TrackPointExtension>
            <ns3:hr>138</ns3:hr>
          </ns3:TrackPointExtension>
        </extensions>
      </trkpt>
      <trkpt lat="47.564917020499706268310546875" lon="-3.05523145012557506561279296875">
        <ele>7</ele>
        <time>2026-08-15T17:03:43.000Z</time>
        <extensions>
          <ns3:TrackPointExtension>
            <ns3:hr>139</ns3:hr>
          </ns3:TrackPointExtension>
        </extensions>
      </trkpt>
      <trkpt lat="47.56488005630671977996826171875" lon="-3.0552082322537899017333984375">
        <ele>6.80000019073486328125</ele>
        <time>2026-08-15T17:03:44.000Z</time>
        <extensions>
          <ns3:TrackPointExtension>
            <ns3:hr>140</ns3:hr>
          </ns3:TrackPointExtension>
        </extensions>
      </trkpt>
      <trkpt lat="47.56483881734311580657958984375" lon="-3.05519540794193744659423828125">
        <ele>7</ele>
        <time>2026-08-15T17:03:45.000Z</time>
        <extensions>
          <ns3:TrackPointExtension>
            <ns3:hr>141</ns3:hr>
          </ns3:TrackPointExtension>
        </extensions>
      </trkpt>
      <trkpt lat="47.56479171104729175567626953125" lon="-3.0551938153803348541259765625">
        <ele>7.19999980926513671875</ele>
        <time>2026-08-15T17:03:46.000Z</time>
        <extensions>
          <ns3:TrackPointExtension>
            <ns3:hr>141</ns3:hr>
          </ns3:TrackPointExtension>
        </extensions>
      </trkpt>
      <trkpt lat="47.56474862806499004364013671875" lon="-3.05519708432257175445556640625">
        <ele>7.400000095367431640625</ele>
        <time>2026-08-15T17:03:47.000Z</time>
        <extensions>
          <ns3:TrackPointExtension>
            <ns3:hr>142</ns3:hr>
          </ns3:TrackPointExtension>
        </extensions>
      </trkpt>
      <trkpt lat="47.5646985881030559539794921875" lon="-3.055203370749950408935546875">
        <ele>7.400000095367431640625</ele>
        <time>2026-08-15T17:03:48.000Z</time>
        <extensions>
          <ns3:TrackPointExtension>
            <ns3:hr>142</ns3:hr>
          </ns3:TrackPointExtension>
        </extensions>
      </trkpt>
      <trkpt lat="47.56464854814112186431884765625" lon="-3.0552032031118869781494140625">
        <ele>7.19999980926513671875</ele>
        <time>2026-08-15T17:03:49.000Z</time>
        <extensions>
          <ns3:TrackPointExtension>
            <ns3:hr>142</ns3:hr>
          </ns3:TrackPointExtension>
        </extensions>
      </trkpt>
      <trkpt lat="47.56460445933043956756591796875" lon="-3.05521166883409023284912109375">
        <ele>6.80000019073486328125</ele>
        <time>2026-08-15T17:03:50.000Z</time>
        <extensions>
          <ns3:TrackPointExtension>
            <ns3:hr>143</ns3:hr>
          </ns3:TrackPointExtension>
        </extensions>
      </trkpt>
      <trkpt lat="47.56456573493778705596923828125" lon="-3.0552196316421031951904296875">
        <ele>6.400000095367431640625</ele>
        <time>2026-08-15T17:03:51.000Z</time>
        <extensions>
          <ns3:TrackPointExtension>
            <ns3:hr>143</ns3:hr>
          </ns3:TrackPointExtension>
        </extensions>
      </trkpt>
      <trkpt lat="47.564520053565502166748046875" lon="-3.05524117313325405120849609375">
        <ele>5.80000019073486328125</ele>
        <time>2026-08-15T17:03:52.000Z</time>
        <extensions>
          <ns3:TrackPointExtension>
            <ns3:hr>143</ns3:hr>
          </ns3:TrackPointExtension>
        </extensions>
      </trkpt>
      <trkpt lat="47.5644726119935512542724609375" lon="-3.05526631884276866912841796875">
        <ele>5.80000019073486328125</ele>
        <time>2026-08-15T17:03:53.000Z</time>
        <extensions>
          <ns3:TrackPointExtension>
            <ns3:hr>142</ns3:hr>
          </ns3:TrackPointExtension>
        </extensions>
      </trkpt>
      <trkpt lat="47.56442743353545665740966796875" lon="-3.05530303157866001129150390625">
        <ele>6.599999904632568359375</ele>
        <time>2026-08-15T17:03:54.000Z</time>
        <extensions>
          <ns3:TrackPointExtension>
            <ns3:hr>142</ns3:hr>
          </ns3:TrackPointExtension>
        </extensions>
      </trkpt>
      <trkpt lat="47.564387619495391845703125" lon="-3.05535902269184589385986328125">
        <ele>7.80000019073486328125</ele>
        <time>2026-08-15T17:03:55.000Z</time>
        <extensions>
          <ns3:TrackPointExtension>
            <ns3:hr>142</ns3:hr>
          </ns3:TrackPointExtension>
        </extensions>
      </trkpt>
      <trkpt lat="47.5643468834459781646728515625" lon="-3.05541903711855411529541015625">
        <ele>7.80000019073486328125</ele>
        <time>2026-08-15T17:03:56.000Z</time>
        <extensions>
          <ns3:TrackPointExtension>
            <ns3:hr>140</ns3:hr>
          </ns3:TrackPointExtension>
        </extensions>
      </trkpt>
      <trkpt lat="47.56430589593946933746337890625" lon="-3.05548223666846752166748046875">
        <ele>8</ele>
        <time>2026-08-15T17:03:57.000Z</time>
        <extensions>
          <ns3:TrackPointExtension>
            <ns3:hr>136</ns3:hr>
          </ns3:TrackPointExtension>
        </extensions>
      </trkpt>
      <trkpt lat="47.56425728090107440948486328125" lon="-3.05554141290485858917236328125">
        <ele>8</ele>
        <time>2026-08-15T17:03:58.000Z</time>
        <extensions>
          <ns3:TrackPointExtension>
            <ns3:hr>135</ns3:hr>
          </ns3:TrackPointExtension>
        </extensions>
      </trkpt>
      <trkpt lat="47.56421201862394809722900390625" lon="-3.05560863576829433441162109375">
        <ele>8</ele>
        <time>2026-08-15T17:03:59.000Z</time>
        <extensions>
          <ns3:TrackPointExtension>
            <ns3:hr>136</ns3:hr>
          </ns3:TrackPointExtension>
        </extensions>
      </trkpt>
      <trkpt lat="47.56416566669940948486328125" lon="-3.05567787028849124908447265625">
        <ele>8</ele>
        <time>2026-08-15T17:04:00.000Z</time>
        <extensions>
          <ns3:TrackPointExtension>
            <ns3:hr>137</ns3:hr>
          </ns3:TrackPointExtension>
        </extensions>
      </trkpt>
      <trkpt lat="47.5641222484409809112548828125" lon="-3.0557574145495891571044921875">
        <ele>7.80000019073486328125</ele>
        <time>2026-08-15T17:04:01.000Z</time>
        <extensions>
          <ns3:TrackPointExtension>
            <ns3:hr>139</ns3:hr>
          </ns3:TrackPointExtension>
        </extensions>
      </trkpt>
      <trkpt lat="47.564074136316776275634765625" lon="-3.0558392219245433807373046875">
        <ele>8</ele>
        <time>2026-08-15T17:04:02.000Z</time>
        <extensions>
          <ns3:TrackPointExtension>
            <ns3:hr>141</ns3:hr>
          </ns3:TrackPointExtension>
        </extensions>
      </trkpt>
      <trkpt lat="47.564026527106761932373046875" lon="-3.055920191109180450439453125">
        <ele>8</ele>
        <time>2026-08-15T17:04:03.000Z</time>
        <extensions>
          <ns3:TrackPointExtension>
            <ns3:hr>143</ns3:hr>
          </ns3:TrackPointExtension>
        </extensions>
      </trkpt>
      <trkpt lat="47.5639807619154453277587890625" lon="-3.05599336512386798858642578125">
        <ele>8</ele>
        <time>2026-08-15T17:04:04.000Z</time>
        <extensions>
          <ns3:TrackPointExtension>
            <ns3:hr>143</ns3:hr>
          </ns3:TrackPointExtension>
        </extensions>
      </trkpt>
      <trkpt lat="47.563927955925464630126953125" lon="-3.0560658685863018035888671875">
        <ele>8</ele>
        <time>2026-08-15T17:04:05.000Z</time>
        <extensions>
          <ns3:TrackPointExtension>
            <ns3:hr>144</ns3:hr>
          </ns3:TrackPointExtension>
        </extensions>
      </trkpt>
      <trkpt lat="47.5638838671147823333740234375" lon="-3.05614373646676540374755859375">
        <ele>8.19999980926513671875</ele>
        <time>2026-08-15T17:04:06.000Z</time>
        <extensions>
          <ns3:TrackPointExtension>
            <ns3:hr>145</ns3:hr>
          </ns3:TrackPointExtension>
        </extensions>
      </trkpt>
      <trkpt lat="47.5638471543788909912109375" lon="-3.056229650974273681640625">
        <ele>8.19999980926513671875</ele>
        <time>2026-08-15T17:04:07.000Z</time>
        <extensions>
          <ns3:TrackPointExtension>
            <ns3:hr>147</ns3:hr>
          </ns3:TrackPointExtension>
        </extensions>
      </trkpt>
      <trkpt lat="47.5638164766132831573486328125" lon="-3.05629469454288482666015625">
        <ele>8</ele>
        <time>2026-08-15T17:04:08.000Z</time>
        <extensions>
          <ns3:TrackPointExtension>
            <ns3:hr>148</ns3:hr>
          </ns3:TrackPointExtension>
        </extensions>
      </trkpt>
      <trkpt lat="47.563780434429645538330078125" lon="-3.05635345168411731719970703125">
        <ele>7.80000019073486328125</ele>
        <time>2026-08-15T17:04:09.000Z</time>
        <extensions>
          <ns3:TrackPointExtension>
            <ns3:hr>148</ns3:hr>
          </ns3:TrackPointExtension>
        </extensions>
      </trkpt>
      <trkpt lat="47.56373114883899688720703125" lon="-3.05638781748712062835693359375">
        <ele>7.400000095367431640625</ele>
        <time>2026-08-15T17:04:10.000Z</time>
        <extensions>
          <ns3:TrackPointExtension>
            <ns3:hr>149</ns3:hr>
          </ns3:TrackPointExtension>
        </extensions>
      </trkpt>
      <trkpt lat="47.56368647329509258270263671875" lon="-3.056406676769256591796875">
        <ele>7.19999980926513671875</ele>
        <time>2026-08-15T17:04:11.000Z</time>
        <extensions>
          <ns3:TrackPointExtension>
            <ns3:hr>149</ns3:hr>
          </ns3:TrackPointExtension>
        </extensions>
      </trkpt>
      <trkpt lat="47.56364674307405948638916015625" lon="-3.05642746388912200927734375">
        <ele>6.599999904632568359375</ele>
        <time>2026-08-15T17:04:12.000Z</time>
        <extensions>
          <ns3:TrackPointExtension>
            <ns3:hr>149</ns3:hr>
          </ns3:TrackPointExtension>
        </extensions>
      </trkpt>
      <trkpt lat="47.5636193342506885528564453125" lon="-3.05644615553319454193115234375">
        <ele>5.80000019073486328125</ele>
        <time>2026-08-15T17:04:13.000Z</time>
        <extensions>
          <ns3:TrackPointExtension>
            <ns3:hr>149</ns3:hr>
          </ns3:TrackPointExtension>
        </extensions>
      </trkpt>
      <trkpt lat="47.56360030733048915863037109375" lon="-3.05645168758928775787353515625">
        <ele>5.19999980926513671875</ele>
        <time>2026-08-15T17:04:14.000Z</time>
        <extensions>
          <ns3:TrackPointExtension>
            <ns3:hr>149</ns3:hr>
          </ns3:TrackPointExtension>
        </extensions>
      </trkpt>
      <trkpt lat="47.56359511055052280426025390625" lon="-3.056455962359905242919921875">
        <ele>4.80000019073486328125</ele>
        <time>2026-08-15T17:04:15.000Z</time>
        <extensions>
          <ns3:TrackPointExtension>
            <ns3:hr>149</ns3:hr>
          </ns3:TrackPointExtension>
        </extensions>
      </trkpt>
      <trkpt lat="47.5636230222880840301513671875" lon="-3.05642503313720226287841796875">
        <ele>4.599999904632568359375</ele>
        <time>2026-08-15T17:04:16.000Z</time>
        <extensions>
          <ns3:TrackPointExtension>
            <ns3:hr>149</ns3:hr>
          </ns3:TrackPointExtension>
        </extensions>
      </trkpt>
      <trkpt lat="47.56363014690577983856201171875" lon="-3.05642268620431423187255859375">
        <ele>4.599999904632568359375</ele>
        <time>2026-08-15T17:04:17.000Z</time>
        <extensions>
          <ns3:TrackPointExtension>
            <ns3:hr>149</ns3:hr>
          </ns3:TrackPointExtension>
        </extensions>
      </trkpt>
      <trkpt lat="47.5636404566466808319091796875" lon="-3.0564155615866184234619140625">
        <ele>4.19999980926513671875</ele>
        <time>2026-08-15T17:04:18.000Z</time>
        <extensions>
          <ns3:TrackPointExtension>
            <ns3:hr>150</ns3:hr>
          </ns3:TrackPointExtension>
        </extensions>
      </trkpt>
      <trkpt lat="47.56363836117088794708251953125" lon="-3.05640977807343006134033203125">
        <ele>3.7999999523162841796875</ele>
        <time>2026-08-15T17:04:19.000Z</time>
        <extensions>
          <ns3:TrackPointExtension>
            <ns3:hr>149</ns3:hr>
          </ns3:TrackPointExtension>
        </extensions>
      </trkpt>
      <trkpt lat="47.5636374391615390777587890625" lon="-3.0564098618924617767333984375">
        <ele>3.400000095367431640625</ele>
        <time>2026-08-15T17:04:20.000Z</time>
        <extensions>
          <ns3:TrackPointExtension>
            <ns3:hr>149</ns3:hr>
          </ns3:TrackPointExtension>
        </extensions>
      </trkpt>
      <trkpt lat="47.56363936699926853179931640625" lon="-3.05641212500631809234619140625">
        <ele>3</ele>
        <time>2026-08-15T17:04:21.000Z</time>
        <extensions>
          <ns3:TrackPointExtension>
            <ns3:hr>149</ns3:hr>
          </ns3:TrackPointExtension>
        </extensions>
      </trkpt>
      <trkpt lat="47.563641965389251708984375" lon="-3.05640776641666889190673828125">
        <ele>3</ele>
        <time>2026-08-15T17:04:22.000Z</time>
        <extensions>
          <ns3:TrackPointExtension>
            <ns3:hr>149</ns3:hr>
          </ns3:TrackPointExtension>
        </extensions>
      </trkpt>
      <trkpt lat="47.5636428035795688629150390625" lon="-3.056405000388622283935546875">
        <ele>3</ele>
        <time>2026-08-15T17:04:23.000Z</time>
        <extensions>
          <ns3:TrackPointExtension>
            <ns3:hr>148</ns3:hr>
          </ns3:TrackPointExtension>
        </extensions>
      </trkpt>
      <trkpt lat="47.56364188157021999359130859375" lon="-3.05640441365540027618408203125">
        <ele>3</ele>
        <time>2026-08-15T17:04:24.000Z</time>
        <extensions>
          <ns3:TrackPointExtension>
            <ns3:hr>144</ns3:hr>
          </ns3:TrackPointExtension>
        </extensions>
      </trkpt>
      <trkpt lat="47.563644982874393463134765625" lon="-3.05639804340898990631103515625">
        <ele>2.7999999523162841796875</ele>
        <time>2026-08-15T17:04:25.000Z</time>
        <extensions>
          <ns3:TrackPointExtension>
            <ns3:hr>138</ns3:hr>
          </ns3:TrackPointExtension>
        </extensions>
      </trkpt>
      <trkpt lat="47.56364624015986919403076171875" lon="-3.05639351718127727508544921875">
        <ele>2.599999904632568359375</ele>
        <time>2026-08-15T17:04:26.000Z</time>
        <extensions>
          <ns3:TrackPointExtension>
            <ns3:hr>132</ns3:hr>
          </ns3:TrackPointExtension>
        </extensions>
      </trkpt>
      <trkpt lat="47.563646994531154632568359375" lon="-3.0563880689442157745361328125">
        <ele>2</ele>
        <time>2026-08-15T17:04:27.000Z</time>
        <extensions>
          <ns3:TrackPointExtension>
            <ns3:hr>129</ns3:hr>
          </ns3:TrackPointExtension>
        </extensions>
      </trkpt>
      <trkpt lat="47.56365395151078701019287109375" lon="-3.05637356825172901153564453125">
        <ele>1.60000002384185791015625</ele>
        <time>2026-08-15T17:04:28.000Z</time>
        <extensions>
          <ns3:TrackPointExtension>
            <ns3:hr>125</ns3:hr>
          </ns3:TrackPointExtension>
        </extensions>
      </trkpt>
      <trkpt lat="47.56366082467138767242431640625" lon="-3.056366778910160064697265625">
        <ele>1.60000002384185791015625</ele>
        <time>2026-08-15T17:04:29.000Z</time>
        <extensions>
          <ns3:TrackPointExtension>
            <ns3:hr>116</ns3:hr>
          </ns3:TrackPointExtension>
        </extensions>
      </trkpt>
      <trkpt lat="47.56365931592881679534912109375" lon="-3.05636552162468433380126953125">
        <ele>1.39999997615814208984375</ele>
        <time>2026-08-15T17:04:30.000Z</time>
        <extensions>
          <ns3:TrackPointExtension>
            <ns3:hr>105</ns3:hr>
          </ns3:TrackPointExtension>
        </extensions>
      </trkpt>
      <trkpt lat="47.56365328095853328704833984375" lon="-3.05636283941566944122314453125">
        <ele>1.39999997615814208984375</ele>
        <time>2026-08-15T17:04:31.000Z</time>
        <extensions>
          <ns3:TrackPointExtension>
            <ns3:hr>97</ns3:hr>
          </ns3:TrackPointExtension>
        </extensions>
      </trkpt>
      <trkpt lat="47.563646994531154632568359375" lon="-3.05636317469179630279541015625">
        <ele>1.7999999523162841796875</ele>
        <time>2026-08-15T17:04:32.000Z</time>
        <extensions>
          <ns3:TrackPointExtension>
            <ns3:hr>92</ns3:hr>
          </ns3:TrackPointExtension>
        </extensions>
      </trkpt>
      <trkpt lat="47.5636478327214717864990234375" lon="-3.05635797791182994842529296875">
        <ele>2.2000000476837158203125</ele>
        <time>2026-08-15T17:04:33.000Z</time>
        <extensions>
          <ns3:TrackPointExtension>
            <ns3:hr>89</ns3:hr>
          </ns3:TrackPointExtension>
        </extensions>
      </trkpt>
      <trkpt lat="47.56364825181663036346435546875" lon="-3.05635370314121246337890625">
        <ele>2.400000095367431640625</ele>
        <time>2026-08-15T17:04:34.000Z</time>
        <extensions>
          <ns3:TrackPointExtension>
            <ns3:hr>87</ns3:hr>
          </ns3:TrackPointExtension>
        </extensions>
      </trkpt>
      <trkpt lat="47.56365001201629638671875" lon="-3.0563555471599102020263671875">
        <ele>2.599999904632568359375</ele>
        <time>2026-08-15T17:04:35.000Z</time>
        <extensions>
          <ns3:TrackPointExtension>
            <ns3:hr>87</ns3:hr>
          </ns3:TrackPointExtension>
        </extensions>
      </trkpt>
      <trkpt lat="47.5636424683034420013427734375" lon="-3.0563592351973056793212890625">
        <ele>2.599999904632568359375</ele>
        <time>2026-08-15T17:04:36.000Z</time>
        <extensions>
          <ns3:TrackPointExtension>
            <ns3:hr>87</ns3:hr>
          </ns3:TrackPointExtension>
        </extensions>
      </trkpt>
      <trkpt lat="47.5636381097137928009033203125" lon="-3.05635638535022735595703125">
        <ele>2.400000095367431640625</ele>
        <time>2026-08-15T17:04:37.000Z</time>
        <extensions>
          <ns3:TrackPointExtension>
            <ns3:hr>87</ns3:hr>
          </ns3:TrackPointExtension>
        </extensions>
      </trkpt>
      <trkpt lat="47.5636324100196361541748046875" lon="-3.05635328404605388641357421875">
        <ele>1.7999999523162841796875</ele>
        <time>2026-08-15T17:04:38.000Z</time>
        <extensions>
          <ns3:TrackPointExtension>
            <ns3:hr>88</ns3:hr>
          </ns3:TrackPointExtension>
        </extensions>
      </trkpt>
      <trkpt lat="47.5636206753551959991455078125" lon="-3.056358397006988525390625">
        <ele>1</ele>
        <time>2026-08-15T17:04:39.000Z</time>
        <extensions>
          <ns3:TrackPointExtension>
            <ns3:hr>91</ns3:hr>
          </ns3:TrackPointExtension>
        </extensions>
      </trkpt>
      <trkpt lat="47.5636111199855804443359375" lon="-3.056368120014667510986328125">
        <ele>0.4000000059604644775390625</ele>
        <time>2026-08-15T17:04:40.000Z</time>
        <extensions>
          <ns3:TrackPointExtension>
            <ns3:hr>93</ns3:hr>
          </ns3:TrackPointExtension>
        </extensions>
      </trkpt>
      <trkpt lat="47.5636012293398380279541015625" lon="-3.05637239478528499603271484375">
        <ele>0</ele>
        <time>2026-08-15T17:04:41.000Z</time>
        <extensions>
          <ns3:TrackPointExtension>
            <ns3:hr>91</ns3:hr>
          </ns3:TrackPointExtension>
        </extensions>
      </trkpt>
      <trkpt lat="47.56358924321830272674560546875" lon="-3.05637784302234649658203125">
        <ele>-0.60000002384185791015625</ele>
        <time>2026-08-15T17:04:42.000Z</time>
        <extensions>
          <ns3:TrackPointExtension>
            <ns3:hr>88</ns3:hr>
          </ns3:TrackPointExtension>
        </extensions>
      </trkpt>
      <trkpt lat="47.56357482634484767913818359375" lon="-3.05638647638261318206787109375">
        <ele>-1</ele>
        <time>2026-08-15T17:04:43.000Z</time>
        <extensions>
          <ns3:TrackPointExtension>
            <ns3:hr>83</ns3:hr>
          </ns3:TrackPointExtension>
        </extensions>
      </trkpt>
      <trkpt lat="47.56355554796755313873291015625" lon="-3.05639393627643585205078125">
        <ele>-1.60000002384185791015625</ele>
        <time>2026-08-15T17:04:44.000Z</time>
        <extensions>
          <ns3:TrackPointExtension>
            <ns3:hr>79</ns3:hr>
          </ns3:TrackPointExtension>
        </extensions>
      </trkpt>
      <trkpt lat="47.5635298155248165130615234375" lon="-3.0564014799892902374267578125">
        <ele>-2</ele>
        <time>2026-08-15T17:04:45.000Z</time>
        <extensions>
          <ns3:TrackPointExtension>
            <ns3:hr>75</ns3:hr>
          </ns3:TrackPointExtension>
        </extensions>
      </trkpt>
      <trkpt lat="47.563499473035335540771484375" lon="-3.05640139617025852203369140625">
        <ele>-2</ele>
        <time>2026-08-15T17:04:46.000Z</time>
        <extensions>
          <ns3:TrackPointExtension>
            <ns3:hr>72</ns3:hr>
          </ns3:TrackPointExtension>
        </extensions>
      </trkpt>
      <trkpt lat="47.5634667836129665374755859375" lon="-3.0564011447131633758544921875">
        <ele>-2</ele>
        <time>2026-08-15T17:04:47.000Z</time>
        <extensions>
          <ns3:TrackPointExtension>
            <ns3:hr>72</ns3:hr>
          </ns3:TrackPointExtension>
        </extensions>
      </trkpt>
      <trkpt lat="47.56342881359159946441650390625" lon="-3.056398965418338775634765625">
        <ele>-1</ele>
        <time>2026-08-15T17:04:48.000Z</time>
        <extensions>
          <ns3:TrackPointExtension>
            <ns3:hr>72</ns3:hr>
          </ns3:TrackPointExtension>
        </extensions>
      </trkpt>
      <trkpt lat="47.563393525779247283935546875" lon="-3.05641799233853816986083984375">
        <ele>-0.60000002384185791015625</ele>
        <time>2026-08-15T17:04:49.000Z</time>
        <extensions>
          <ns3:TrackPointExtension>
            <ns3:hr>71</ns3:hr>
          </ns3:TrackPointExtension>
        </extensions>
      </trkpt>
      <trkpt lat="47.56335991434752941131591796875" lon="-3.056436516344547271728515625">
        <ele>0.20000000298023223876953125</ele>
        <time>2026-08-15T17:04:50.000Z</time>
        <extensions>
          <ns3:TrackPointExtension>
            <ns3:hr>71</ns3:hr>
          </ns3:TrackPointExtension>
        </extensions>
      </trkpt>
      <trkpt lat="47.5633155740797519683837890625" lon="-3.0564589798450469970703125">
        <ele>0.60000002384185791015625</ele>
        <time>2026-08-15T17:04:51.000Z</time>
        <extensions>
          <ns3:TrackPointExtension>
            <ns3:hr>71</ns3:hr>
          </ns3:TrackPointExtension>
        </extensions>
      </trkpt>
      <trkpt lat="47.56328213028609752655029296875" lon="-3.05650499649345874786376953125">
        <ele>1</ele>
        <time>2026-08-15T17:04:52.000Z</time>
        <extensions>
          <ns3:TrackPointExtension>
            <ns3:hr>71</ns3:hr>
          </ns3:TrackPointExtension>
        </extensions>
      </trkpt>
      <trkpt lat="47.56324692629277706146240234375" lon="-3.0565563775599002838134765625">
        <ele>1.39999997615814208984375</ele>
        <time>2026-08-15T17:04:53.000Z</time>
        <extensions>
          <ns3:TrackPointExtension>
            <ns3:hr>71</ns3:hr>
          </ns3:TrackPointExtension>
        </extensions>
      </trkpt>
      <trkpt lat="47.56320971064269542694091796875" lon="-3.05660809390246868133544921875">
        <ele>1.60000002384185791015625</ele>
        <time>2026-08-15T17:04:54.000Z</time>
        <extensions>
          <ns3:TrackPointExtension>
            <ns3:hr>71</ns3:hr>
          </ns3:TrackPointExtension>
        </extensions>
      </trkpt>
      <trkpt lat="47.56318070925772190093994140625" lon="-3.05667263455688953399658203125">
        <ele>1.60000002384185791015625</ele>
        <time>2026-08-15T17:04:55.000Z</time>
        <extensions>
          <ns3:TrackPointExtension>
            <ns3:hr>71</ns3:hr>
          </ns3:TrackPointExtension>
        </extensions>
      </trkpt>
      <trkpt lat="47.5631516240537166595458984375" lon="-3.05673549883067607879638671875">
        <ele>1.60000002384185791015625</ele>
        <time>2026-08-15T17:04:56.000Z</time>
        <extensions>
          <ns3:TrackPointExtension>
            <ns3:hr>72</ns3:hr>
          </ns3:TrackPointExtension>
        </extensions>
      </trkpt>
      <trkpt lat="47.5631207786500453948974609375" lon="-3.05680288933217525482177734375">
        <ele>1.7999999523162841796875</ele>
        <time>2026-08-15T17:04:57.000Z</time>
        <extensions>
          <ns3:TrackPointExtension>
            <ns3:hr>74</ns3:hr>
          </ns3:TrackPointExtension>
        </extensions>
      </trkpt>
      <trkpt lat="47.5630815513432025909423828125" lon="-3.05685670115053653717041015625">
        <ele>1.60000002384185791015625</ele>
        <time>2026-08-15T17:04:58.000Z</time>
        <extensions>
          <ns3:TrackPointExtension>
            <ns3:hr>75</ns3:hr>
          </ns3:TrackPointExtension>
        </extensions>
      </trkpt>
      <trkpt lat="47.56304810754954814910888671875" lon="-3.05692023597657680511474609375">
        <ele>1.60000002384185791015625</ele>
        <time>2026-08-15T17:04:59.000Z</time>
        <extensions>
          <ns3:TrackPointExtension>
            <ns3:hr>78</ns3:hr>
          </ns3:TrackPointExtension>
        </extensions>
      </trkpt>
      <trkpt lat="47.56301977671682834625244140625" lon="-3.0569875426590442657470703125">
        <ele>1.39999997615814208984375</ele>
        <time>2026-08-15T17:05:00.000Z</time>
        <extensions>
          <ns3:TrackPointExtension>
            <ns3:hr>83</ns3:hr>
          </ns3:TrackPointExtension>
        </extensions>
      </trkpt>
      <trkpt lat="47.562987841665744781494140625" lon="-3.057050742208957672119140625">
        <ele>1.39999997615814208984375</ele>
        <time>2026-08-15T17:05:01.000Z</time>
        <extensions>
          <ns3:TrackPointExtension>
            <ns3:hr>87</ns3:hr>
          </ns3:TrackPointExtension>
        </extensions>
      </trkpt>
      <trkpt lat="47.5629534758627414703369140625" lon="-3.057110421359539031982421875">
        <ele>1.39999997615814208984375</ele>
        <time>2026-08-15T17:05:02.000Z</time>
        <extensions>
          <ns3:TrackPointExtension>
            <ns3:hr>90</ns3:hr>
          </ns3:TrackPointExtension>
        </extensions>
      </trkpt>
      <trkpt lat="47.562916092574596405029296875" lon="-3.05717085488140583038330078125">
        <ele>1.39999997615814208984375</ele>
        <time>2026-08-15T17:05:03.000Z</time>
        <extensions>
          <ns3:TrackPointExtension>
            <ns3:hr>93</ns3:hr>
          </ns3:TrackPointExtension>
        </extensions>
      </trkpt>
      <trkpt lat="47.562877871096134185791015625" lon="-3.0572312884032726287841796875">
        <ele>1.7999999523162841796875</ele>
        <time>2026-08-15T17:05:04.000Z</time>
        <extensions>
          <ns3:TrackPointExtension>
            <ns3:hr>96</ns3:hr>
          </ns3:TrackPointExtension>
        </extensions>
      </trkpt>
      <trkpt lat="47.56283621303737163543701171875" lon="-3.05729423649609088897705078125">
        <ele>1.7999999523162841796875</ele>
        <time>2026-08-15T17:05:05.000Z</time>
        <extensions>
          <ns3:TrackPointExtension>
            <ns3:hr>98</ns3:hr>
          </ns3:TrackPointExtension>
        </extensions>
      </trkpt>
      <trkpt lat="47.562794387340545654296875" lon="-3.0573489703238010406494140625">
        <ele>2</ele>
        <time>2026-08-15T17:05:06.000Z</time>
        <extensions>
          <ns3:TrackPointExtension>
            <ns3:hr>100</ns3:hr>
          </ns3:TrackPointExtension>
        </extensions>
      </trkpt>
      <trkpt lat="47.562755830585956573486328125" lon="-3.05740588344633579254150390625">
        <ele>2</ele>
        <time>2026-08-15T17:05:07.000Z</time>
        <extensions>
          <ns3:TrackPointExtension>
            <ns3:hr>102</ns3:hr>
          </ns3:TrackPointExtension>
        </extensions>
      </trkpt>
      <trkpt lat="47.56271249614655971527099609375" lon="-3.05746891535818576812744140625">
        <ele>1.39999997615814208984375</ele>
        <time>2026-08-15T17:05:08.000Z</time>
        <extensions>
          <ns3:TrackPointExtension>
            <ns3:hr>103</ns3:hr>
          </ns3:TrackPointExtension>
        </extensions>
      </trkpt>
      <trkpt lat="47.5626728497445583343505859375" lon="-3.05753161199390888214111328125">
        <ele>0.800000011920928955078125</ele>
        <time>2026-08-15T17:05:09.000Z</time>
        <extensions>
          <ns3:TrackPointExtension>
            <ns3:hr>104</ns3:hr>
          </ns3:TrackPointExtension>
        </extensions>
      </trkpt>
      <trkpt lat="47.5626321136951446533203125" lon="-3.05759933777153491973876953125">
        <ele>0.60000002384185791015625</ele>
        <time>2026-08-15T17:05:10.000Z</time>
        <extensions>
          <ns3:TrackPointExtension>
            <ns3:hr>105</ns3:hr>
          </ns3:TrackPointExtension>
        </extensions>
      </trkpt>
      <trkpt lat="47.56258877925574779510498046875" lon="-3.0576614476740360260009765625">
        <ele>0</ele>
        <time>2026-08-15T17:05:11.000Z</time>
        <extensions>
          <ns3:TrackPointExtension>
            <ns3:hr>105</ns3:hr>
          </ns3:TrackPointExtension>
        </extensions>
      </trkpt>
      <trkpt lat="47.5625454448163509368896484375" lon="-3.05771634913980960845947265625">
        <ele>-0.4000000059604644775390625</ele>
        <time>2026-08-15T17:05:12.000Z</time>
        <extensions>
          <ns3:TrackPointExtension>
            <ns3:hr>106</ns3:hr>
          </ns3:TrackPointExtension>
        </extensions>
      </trkpt>
      <trkpt lat="47.56249540485441684722900390625" lon="-3.05777066387236118316650390625">
        <ele>-0.60000002384185791015625</ele>
        <time>2026-08-15T17:05:13.000Z</time>
        <extensions>
          <ns3:TrackPointExtension>
            <ns3:hr>106</ns3:hr>
          </ns3:TrackPointExtension>
        </extensions>
      </trkpt>
      <trkpt lat="47.56245668046176433563232421875" lon="-3.05782782845199108123779296875">
        <ele>-0.60000002384185791015625</ele>
        <time>2026-08-15T17:05:14.000Z</time>
        <extensions>
          <ns3:TrackPointExtension>
            <ns3:hr>109</ns3:hr>
          </ns3:TrackPointExtension>
        </extensions>
      </trkpt>
      <trkpt lat="47.56241711787879467010498046875" lon="-3.05789220146834850311279296875">
        <ele>-1</ele>
        <time>2026-08-15T17:05:15.000Z</time>
        <extensions>
          <ns3:TrackPointExtension>
            <ns3:hr>114</ns3:hr>
          </ns3:TrackPointExtension>
        </extensions>
      </trkpt>
      <trkpt lat="47.5623831711709499359130859375" lon="-3.05795456282794475555419921875">
        <ele>-1.2000000476837158203125</ele>
        <time>2026-08-15T17:05:16.000Z</time>
        <extensions>
          <ns3:TrackPointExtension>
            <ns3:hr>125</ns3:hr>
          </ns3:TrackPointExtension>
        </extensions>
      </trkpt>
      <trkpt lat="47.5623432733118534088134765625" lon="-3.05802027694880962371826171875">
        <ele>-1.39999997615814208984375</ele>
        <time>2026-08-15T17:05:17.000Z</time>
        <extensions>
          <ns3:TrackPointExtension>
            <ns3:hr>140</ns3:hr>
          </ns3:TrackPointExtension>
        </extensions>
      </trkpt>
      <trkpt lat="47.562303878366947174072265625" lon="-3.05807769298553466796875">
        <ele>-1.7999999523162841796875</ele>
        <time>2026-08-15T17:05:18.000Z</time>
        <extensions>
          <ns3:TrackPointExtension>
            <ns3:hr>154</ns3:hr>
          </ns3:TrackPointExtension>
        </extensions>
      </trkpt>
      <trkpt lat="47.562262304127216339111328125" lon="-3.058139048516750335693359375">
        <ele>-2.2000000476837158203125</ele>
        <time>2026-08-15T17:05:19.000Z</time>
        <extensions>
          <ns3:TrackPointExtension>
            <ns3:hr>156</ns3:hr>
          </ns3:TrackPointExtension>
        </extensions>
      </trkpt>
      <trkpt lat="47.56222249008715152740478515625" lon="-3.058199398219585418701171875">
        <ele>-2.7999999523162841796875</ele>
        <time>2026-08-15T17:05:20.000Z</time>
        <extensions>
          <ns3:TrackPointExtension>
            <ns3:hr>156</ns3:hr>
          </ns3:TrackPointExtension>
        </extensions>
      </trkpt>
      <trkpt lat="47.5621761381626129150390625" lon="-3.05826150812208652496337890625">
        <ele>-3.2000000476837158203125</ele>
        <time>2026-08-15T17:05:21.000Z</time>
        <extensions>
          <ns3:TrackPointExtension>
            <ns3:hr>156</ns3:hr>
          </ns3:TrackPointExtension>
        </extensions>
      </trkpt>
      <trkpt lat="47.56213297136127948760986328125" lon="-3.05832085199654102325439453125">
        <ele>-3.7999999523162841796875</ele>
        <time>2026-08-15T17:05:22.000Z</time>
        <extensions>
          <ns3:TrackPointExtension>
            <ns3:hr>155</ns3:hr>
          </ns3:TrackPointExtension>
        </extensions>
      </trkpt>
      <trkpt lat="47.56208988837897777557373046875" lon="-3.058383464813232421875">
        <ele>-4</ele>
        <time>2026-08-15T17:05:23.000Z</time>
        <extensions>
          <ns3:TrackPointExtension>
            <ns3:hr>155</ns3:hr>
          </ns3:TrackPointExtension>
        </extensions>
      </trkpt>
      <trkpt lat="47.56204999051988124847412109375" lon="-3.05843652226030826568603515625">
        <ele>-4.19999980926513671875</ele>
        <time>2026-08-15T17:05:24.000Z</time>
        <extensions>
          <ns3:TrackPointExtension>
            <ns3:hr>154</ns3:hr>
          </ns3:TrackPointExtension>
        </extensions>
      </trkpt>
      <trkpt lat="47.5620071589946746826171875" lon="-3.05849418975412845611572265625">
        <ele>-4.19999980926513671875</ele>
        <time>2026-08-15T17:05:25.000Z</time>
        <extensions>
          <ns3:TrackPointExtension>
            <ns3:hr>154</ns3:hr>
          </ns3:TrackPointExtension>
        </extensions>
      </trkpt>
      <trkpt lat="47.5619627349078655242919921875" lon="-3.0585499294102191925048828125">
        <ele>-4</ele>
        <time>2026-08-15T17:05:26.000Z</time>
        <extensions>
          <ns3:TrackPointExtension>
            <ns3:hr>154</ns3:hr>
          </ns3:TrackPointExtension>
        </extensions>
      </trkpt>
      <trkpt lat="47.56191772408783435821533203125" lon="-3.05859695188701152801513671875">
        <ele>-4.19999980926513671875</ele>
        <time>2026-08-15T17:05:27.000Z</time>
        <extensions>
          <ns3:TrackPointExtension>
            <ns3:hr>153</ns3:hr>
          </ns3:TrackPointExtension>
        </extensions>
      </trkpt>
      <trkpt lat="47.56187162362039089202880859375" lon="-3.0586528591811656951904296875">
        <ele>-4.400000095367431640625</ele>
        <time>2026-08-15T17:05:28.000Z</time>
        <extensions>
          <ns3:TrackPointExtension>
            <ns3:hr>152</ns3:hr>
          </ns3:TrackPointExtension>
        </extensions>
      </trkpt>
      <trkpt lat="47.56182485260069370269775390625" lon="-3.05871329270303249359130859375">
        <ele>-4.400000095367431640625</ele>
        <time>2026-08-15T17:05:29.000Z</time>
        <extensions>
          <ns3:TrackPointExtension>
            <ns3:hr>152</ns3:hr>
          </ns3:TrackPointExtension>
        </extensions>
      </trkpt>
      <trkpt lat="47.56177707575261592864990234375" lon="-3.058767355978488922119140625">
        <ele>-4.599999904632568359375</ele>
        <time>2026-08-15T17:05:30.000Z</time>
        <extensions>
          <ns3:TrackPointExtension>
            <ns3:hr>152</ns3:hr>
          </ns3:TrackPointExtension>
        </extensions>
      </trkpt>
      <trkpt lat="47.56172887980937957763671875" lon="-3.05882259272038936614990234375">
        <ele>-4.80000019073486328125</ele>
        <time>2026-08-15T17:05:31.000Z</time>
        <extensions>
          <ns3:TrackPointExtension>
            <ns3:hr>151</ns3:hr>
          </ns3:TrackPointExtension>
        </extensions>
      </trkpt>
      <trkpt lat="47.561682276427745819091796875" lon="-3.05886852554976940155029296875">
        <ele>-4.80000019073486328125</ele>
        <time>2026-08-15T17:05:32.000Z</time>
        <extensions>
          <ns3:TrackPointExtension>
            <ns3:hr>150</ns3:hr>
          </ns3:TrackPointExtension>
        </extensions>
      </trkpt>
      <trkpt lat="47.5616271235048770904541015625" lon="-3.0589130334556102752685546875">
        <ele>-4.80000019073486328125</ele>
        <time>2026-08-15T17:05:33.000Z</time>
        <extensions>
          <ns3:TrackPointExtension>
            <ns3:hr>150</ns3:hr>
          </ns3:TrackPointExtension>
        </extensions>
      </trkpt>
      <trkpt lat="47.561572976410388946533203125" lon="-3.05895653553307056427001953125">
        <ele>-5.19999980926513671875</ele>
        <time>2026-08-15T17:05:34.000Z</time>
        <extensions>
          <ns3:TrackPointExtension>
            <ns3:hr>148</ns3:hr>
          </ns3:TrackPointExtension>
        </extensions>
      </trkpt>
      <trkpt lat="47.56151757203042507171630859375" lon="-3.05899257771670818328857421875">
        <ele>-6.19999980926513671875</ele>
        <time>2026-08-15T17:05:35.000Z</time>
        <extensions>
          <ns3:TrackPointExtension>
            <ns3:hr>147</ns3:hr>
          </ns3:TrackPointExtension>
        </extensions>
      </trkpt>
      <trkpt lat="47.5614655204117298126220703125" lon="-3.059025518596172332763671875">
        <ele>-7</ele>
        <time>2026-08-15T17:05:36.000Z</time>
        <extensions>
          <ns3:TrackPointExtension>
            <ns3:hr>147</ns3:hr>
          </ns3:TrackPointExtension>
        </extensions>
      </trkpt>
      <trkpt lat="47.561403997242450714111328125" lon="-3.05905066430568695068359375">
        <ele>-7.19999980926513671875</ele>
        <time>2026-08-15T17:05:37.000Z</time>
        <extensions>
          <ns3:TrackPointExtension>
            <ns3:hr>146</ns3:hr>
          </ns3:TrackPointExtension>
        </extensions>
      </trkpt>
      <trkpt lat="47.56134540773928165435791015625" lon="-3.05908243171870708465576171875">
        <ele>-7.19999980926513671875</ele>
        <time>2026-08-15T17:05:38.000Z</time>
        <extensions>
          <ns3:TrackPointExtension>
            <ns3:hr>146</ns3:hr>
          </ns3:TrackPointExtension>
        </extensions>
      </trkpt>
      <trkpt lat="47.5612848065793514251708984375" lon="-3.05909986607730388641357421875">
        <ele>-7</ele>
        <time>2026-08-15T17:05:39.000Z</time>
        <extensions>
          <ns3:TrackPointExtension>
            <ns3:hr>145</ns3:hr>
          </ns3:TrackPointExtension>
        </extensions>
      </trkpt>
      <trkpt lat="47.56122990511357784271240234375" lon="-3.05909969843924045562744140625">
        <ele>-6.400000095367431640625</ele>
        <time>2026-08-15T17:05:40.000Z</time>
        <extensions>
          <ns3:TrackPointExtension>
            <ns3:hr>145</ns3:hr>
          </ns3:TrackPointExtension>
        </extensions>
      </trkpt>
      <trkpt lat="47.56117223761975765228271484375" lon="-3.0591011233627796173095703125">
        <ele>-6</ele>
        <time>2026-08-15T17:05:41.000Z</time>
        <extensions>
          <ns3:TrackPointExtension>
            <ns3:hr>144</ns3:hr>
          </ns3:TrackPointExtension>
        </extensions>
      </trkpt>
      <trkpt lat="47.5611131452023983001708984375" lon="-3.05911637842655181884765625">
        <ele>-6</ele>
        <time>2026-08-15T17:05:42.000Z</time>
        <extensions>
          <ns3:TrackPointExtension>
            <ns3:hr>143</ns3:hr>
          </ns3:TrackPointExtension>
        </extensions>
      </trkpt>
      <trkpt lat="47.561052627861499786376953125" lon="-3.05910640396177768707275390625">
        <ele>-6</ele>
        <time>2026-08-15T17:05:43.000Z</time>
        <extensions>
          <ns3:TrackPointExtension>
            <ns3:hr>143</ns3:hr>
          </ns3:TrackPointExtension>
        </extensions>
      </trkpt>
      <trkpt lat="47.56099303252995014190673828125" lon="-3.05909198708832263946533203125">
        <ele>-5.80000019073486328125</ele>
        <time>2026-08-15T17:05:44.000Z</time>
        <extensions>
          <ns3:TrackPointExtension>
            <ns3:hr>142</ns3:hr>
          </ns3:TrackPointExtension>
        </extensions>
      </trkpt>
      <trkpt lat="47.56093561649322509765625" lon="-3.05908008478581905364990234375">
        <ele>-5.80000019073486328125</ele>
        <time>2026-08-15T17:05:45.000Z</time>
        <extensions>
          <ns3:TrackPointExtension>
            <ns3:hr>142</ns3:hr>
          </ns3:TrackPointExtension>
        </extensions>
      </trkpt>
      <trkpt lat="47.560877613723278045654296875" lon="-3.05906809866428375244140625">
        <ele>-6</ele>
        <time>2026-08-15T17:05:46.000Z</time>
        <extensions>
          <ns3:TrackPointExtension>
            <ns3:hr>142</ns3:hr>
          </ns3:TrackPointExtension>
        </extensions>
      </trkpt>
      <trkpt lat="47.5608201138675212860107421875" lon="-3.0590634047985076904296875">
        <ele>-5.80000019073486328125</ele>
        <time>2026-08-15T17:05:47.000Z</time>
        <extensions>
          <ns3:TrackPointExtension>
            <ns3:hr>142</ns3:hr>
          </ns3:TrackPointExtension>
        </extensions>
      </trkpt>
      <trkpt lat="47.5607604347169399261474609375" lon="-3.05907002650201320648193359375">
        <ele>-6</ele>
        <time>2026-08-15T17:05:48.000Z</time>
        <extensions>
          <ns3:TrackPointExtension>
            <ns3:hr>142</ns3:hr>
          </ns3:TrackPointExtension>
        </extensions>
      </trkpt>
      <trkpt lat="47.5607044436037540435791015625" lon="-3.059075139462947845458984375">
        <ele>-6</ele>
        <time>2026-08-15T17:05:49.000Z</time>
        <extensions>
          <ns3:TrackPointExtension>
            <ns3:hr>142</ns3:hr>
          </ns3:TrackPointExtension>
        </extensions>
      </trkpt>
      <trkpt lat="47.5606410764157772064208984375" lon="-3.0590743012726306915283203125">
        <ele>-5.80000019073486328125</ele>
        <time>2026-08-15T17:05:50.000Z</time>
        <extensions>
          <ns3:TrackPointExtension>
            <ns3:hr>141</ns3:hr>
          </ns3:TrackPointExtension>
        </extensions>
      </trkpt>
      <trkpt lat="47.560581900179386138916015625" lon="-3.05907639674842357635498046875">
        <ele>-5.80000019073486328125</ele>
        <time>2026-08-15T17:05:51.000Z</time>
        <extensions>
          <ns3:TrackPointExtension>
            <ns3:hr>141</ns3:hr>
          </ns3:TrackPointExtension>
        </extensions>
      </trkpt>
      <trkpt lat="47.5605212152004241943359375" lon="-3.05907019414007663726806640625">
        <ele>-5.80000019073486328125</ele>
        <time>2026-08-15T17:05:52.000Z</time>
        <extensions>
          <ns3:TrackPointExtension>
            <ns3:hr>139</ns3:hr>
          </ns3:TrackPointExtension>
        </extensions>
      </trkpt>
      <trkpt lat="47.56046145223081111907958984375" lon="-3.0590458028018474578857421875">
        <ele>-5.80000019073486328125</ele>
        <time>2026-08-15T17:05:53.000Z</time>
        <extensions>
          <ns3:TrackPointExtension>
            <ns3:hr>138</ns3:hr>
          </ns3:TrackPointExtension>
        </extensions>
      </trkpt>
      <trkpt lat="47.56041183136403560638427734375" lon="-3.05900515057146549224853515625">
        <ele>-5.80000019073486328125</ele>
        <time>2026-08-15T17:05:54.000Z</time>
        <extensions>
          <ns3:TrackPointExtension>
            <ns3:hr>138</ns3:hr>
          </ns3:TrackPointExtension>
        </extensions>
      </trkpt>
      <trkpt lat="47.5603715144097805023193359375" lon="-3.05894597433507442474365234375">
        <ele>-5.80000019073486328125</ele>
        <time>2026-08-15T17:05:55.000Z</time>
        <extensions>
          <ns3:TrackPointExtension>
            <ns3:hr>138</ns3:hr>
          </ns3:TrackPointExtension>
        </extensions>
      </trkpt>
      <trkpt lat="47.56034963764250278472900390625" lon="-3.0588818527758121490478515625">
        <ele>-5.80000019073486328125</ele>
        <time>2026-08-15T17:05:56.000Z</time>
        <extensions>
          <ns3:TrackPointExtension>
            <ns3:hr>138</ns3:hr>
          </ns3:TrackPointExtension>
        </extensions>
      </trkpt>
      <trkpt lat="47.56034351885318756103515625" lon="-3.0588104389607906341552734375">
        <ele>-5.80000019073486328125</ele>
        <time>2026-08-15T17:05:57.000Z</time>
        <extensions>
          <ns3:TrackPointExtension>
            <ns3:hr>138</ns3:hr>
          </ns3:TrackPointExtension>
        </extensions>
      </trkpt>
      <trkpt lat="47.560353241860866546630859375" lon="-3.05875604040920734405517578125">
        <ele>-6</ele>
        <time>2026-08-15T17:05:58.000Z</time>
        <extensions>
          <ns3:TrackPointExtension>
            <ns3:hr>138</ns3:hr>
          </ns3:TrackPointExtension>
        </extensions>
      </trkpt>
      <trkpt lat="47.56037143059074878692626953125" lon="-3.05870859883725643157958984375">
        <ele>-6.400000095367431640625</ele>
        <time>2026-08-15T17:05:59.000Z</time>
        <extensions>
          <ns3:TrackPointExtension>
            <ns3:hr>137</ns3:hr>
          </ns3:TrackPointExtension>
        </extensions>
      </trkpt>
      <trkpt lat="47.56039691157639026641845703125" lon="-3.05866115726530551910400390625">
        <ele>-6.80000019073486328125</ele>
        <time>2026-08-15T17:06:00.000Z</time>
        <extensions>
          <ns3:TrackPointExtension>
            <ns3:hr>136</ns3:hr>
          </ns3:TrackPointExtension>
        </extensions>
      </trkpt>
      <trkpt lat="47.56042758934199810028076171875" lon="-3.05861807428300380706787109375">
        <ele>-7.19999980926513671875</ele>
        <time>2026-08-15T17:06:01.000Z</time>
        <extensions>
          <ns3:TrackPointExtension>
            <ns3:hr>136</ns3:hr>
          </ns3:TrackPointExtension>
        </extensions>
      </trkpt>
      <trkpt lat="47.560448460280895233154296875" lon="-3.0586020648479461669921875">
        <ele>-7.599999904632568359375</ele>
        <time>2026-08-15T17:06:02.000Z</time>
        <extensions>
          <ns3:TrackPointExtension>
            <ns3:hr>137</ns3:hr>
          </ns3:TrackPointExtension>
        </extensions>
      </trkpt>
      <trkpt lat="47.5604439340531826019287109375" lon="-3.058639280498027801513671875">
        <ele>-7</ele>
        <time>2026-08-15T17:06:04.000Z</time>
        <extensions>
          <ns3:TrackPointExtension>
            <ns3:hr>138</ns3:hr>
          </ns3:TrackPointExtension>
        </extensions>
      </trkpt>
      <trkpt lat="47.5604248233139514923095703125" lon="-3.0586632527410984039306640625">
        <ele>-6.19999980926513671875</ele>
        <time>2026-08-15T17:06:05.000Z</time>
        <extensions>
          <ns3:TrackPointExtension>
            <ns3:hr>138</ns3:hr>
          </ns3:TrackPointExtension>
        </extensions>
      </trkpt>
      <trkpt lat="47.56040898151695728302001953125" lon="-3.0586702935397624969482421875">
        <ele>-5.400000095367431640625</ele>
        <time>2026-08-15T17:06:06.000Z</time>
        <extensions>
          <ns3:TrackPointExtension>
            <ns3:hr>138</ns3:hr>
          </ns3:TrackPointExtension>
        </extensions>
      </trkpt>
      <trkpt lat="47.56038584746420383453369140625" lon="-3.0586729757487773895263671875">
        <ele>-4.19999980926513671875</ele>
        <time>2026-08-15T17:06:07.000Z</time>
        <extensions>
          <ns3:TrackPointExtension>
            <ns3:hr>137</ns3:hr>
          </ns3:TrackPointExtension>
        </extensions>
      </trkpt>
      <trkpt lat="47.5603855960071086883544921875" lon="-3.05867783725261688232421875">
        <ele>-3</ele>
        <time>2026-08-15T17:06:08.000Z</time>
        <extensions>
          <ns3:TrackPointExtension>
            <ns3:hr>138</ns3:hr>
          </ns3:TrackPointExtension>
        </extensions>
      </trkpt>
      <trkpt lat="47.56038098596036434173583984375" lon="-3.0586736463010311126708984375">
        <ele>-1.7999999523162841796875</ele>
        <time>2026-08-15T17:06:09.000Z</time>
        <extensions>
          <ns3:TrackPointExtension>
            <ns3:hr>138</ns3:hr>
          </ns3:TrackPointExtension>
        </extensions>
      </trkpt>
      <trkpt lat="47.5603758729994297027587890625" lon="-3.05868295021355152130126953125">
        <ele>-1</ele>
        <time>2026-08-15T17:06:10.000Z</time>
        <extensions>
          <ns3:TrackPointExtension>
            <ns3:hr>138</ns3:hr>
          </ns3:TrackPointExtension>
        </extensions>
      </trkpt>
      <trkpt lat="47.56036925129592418670654296875" lon="-3.05869099684059619903564453125">
        <ele>-0.20000000298023223876953125</ele>
        <time>2026-08-15T17:06:11.000Z</time>
        <extensions>
          <ns3:TrackPointExtension>
            <ns3:hr>138</ns3:hr>
          </ns3:TrackPointExtension>
        </extensions>
      </trkpt>
      <trkpt lat="47.56037461571395397186279296875" lon="-3.05869334377348423004150390625">
        <ele>0.4000000059604644775390625</ele>
        <time>2026-08-15T17:06:12.000Z</time>
        <extensions>
          <ns3:TrackPointExtension>
            <ns3:hr>137</ns3:hr>
          </ns3:TrackPointExtension>
        </extensions>
      </trkpt>
      <trkpt lat="47.560381405055522918701171875" lon="-3.0586947686970233917236328125">
        <ele>1.2000000476837158203125</ele>
        <time>2026-08-15T17:06:13.000Z</time>
        <extensions>
          <ns3:TrackPointExtension>
            <ns3:hr>138</ns3:hr>
          </ns3:TrackPointExtension>
        </extensions>
      </trkpt>
      <trkpt lat="47.56037796847522258758544921875" lon="-3.0586934275925159454345703125">
        <ele>1.39999997615814208984375</ele>
        <time>2026-08-15T17:06:14.000Z</time>
        <extensions>
          <ns3:TrackPointExtension>
            <ns3:hr>138</ns3:hr>
          </ns3:TrackPointExtension>
        </extensions>
      </trkpt>
      <trkpt lat="47.560373358428478240966796875" lon="-3.058685548603534698486328125">
        <ele>1.7999999523162841796875</ele>
        <time>2026-08-15T17:06:15.000Z</time>
        <extensions>
          <ns3:TrackPointExtension>
            <ns3:hr>137</ns3:hr>
          </ns3:TrackPointExtension>
        </extensions>
      </trkpt>
      <trkpt lat="47.56037008948624134063720703125" lon="-3.0586759932339191436767578125">
        <ele>1.60000002384185791015625</ele>
        <time>2026-08-15T17:06:16.000Z</time>
        <extensions>
          <ns3:TrackPointExtension>
            <ns3:hr>136</ns3:hr>
          </ns3:TrackPointExtension>
        </extensions>
      </trkpt>
      <trkpt lat="47.56036640144884586334228515625" lon="-3.0586686171591281890869140625">
        <ele>1.60000002384185791015625</ele>
        <time>2026-08-15T17:06:17.000Z</time>
        <extensions>
          <ns3:TrackPointExtension>
            <ns3:hr>135</ns3:hr>
          </ns3:TrackPointExtension>
        </extensions>
      </trkpt>
      <trkpt lat="47.5603668205440044403076171875" lon="-3.0586642585694789886474609375">
        <ele>1.2000000476837158203125</ele>
        <time>2026-08-15T17:06:18.000Z</time>
        <extensions>
          <ns3:TrackPointExtension>
            <ns3:hr>134</ns3:hr>
          </ns3:TrackPointExtension>
        </extensions>
      </trkpt>
      <trkpt lat="47.56036975421011447906494140625" lon="-3.05866601876914501190185546875">
        <ele>1</ele>
        <time>2026-08-15T17:06:19.000Z</time>
        <extensions>
          <ns3:TrackPointExtension>
            <ns3:hr>134</ns3:hr>
          </ns3:TrackPointExtension>
        </extensions>
      </trkpt>
      <trkpt lat="47.56037729792296886444091796875" lon="-3.05867574177682399749755859375">
        <ele>0.800000011920928955078125</ele>
        <time>2026-08-15T17:06:20.000Z</time>
        <extensions>
          <ns3:TrackPointExtension>
            <ns3:hr>134</ns3:hr>
          </ns3:TrackPointExtension>
        </extensions>
      </trkpt>
      <trkpt lat="47.56037813611328601837158203125" lon="-3.05867113173007965087890625">
        <ele>0.60000002384185791015625</ele>
        <time>2026-08-15T17:06:21.000Z</time>
        <extensions>
          <ns3:TrackPointExtension>
            <ns3:hr>134</ns3:hr>
          </ns3:TrackPointExtension>
        </extensions>
      </trkpt>
      <trkpt lat="47.5603819079697132110595703125" lon="-3.05866668932139873504638671875">
        <ele>0.60000002384185791015625</ele>
        <time>2026-08-15T17:06:22.000Z</time>
        <extensions>
          <ns3:TrackPointExtension>
            <ns3:hr>134</ns3:hr>
          </ns3:TrackPointExtension>
        </extensions>
      </trkpt>
      <trkpt lat="47.56038987077772617340087890625" lon="-3.058659732341766357421875">
        <ele>0.60000002384185791015625</ele>
        <time>2026-08-15T17:06:23.000Z</time>
        <extensions>
          <ns3:TrackPointExtension>
            <ns3:hr>134</ns3:hr>
          </ns3:TrackPointExtension>
        </extensions>
      </trkpt>
      <trkpt lat="47.560396157205104827880859375" lon="-3.05865026079118251800537109375">
        <ele>0.800000011920928955078125</ele>
        <time>2026-08-15T17:06:24.000Z</time>
        <extensions>
          <ns3:TrackPointExtension>
            <ns3:hr>134</ns3:hr>
          </ns3:TrackPointExtension>
        </extensions>
      </trkpt>
      <trkpt lat="47.56040546111762523651123046875" lon="-3.0586461536586284637451171875">
        <ele>0.800000011920928955078125</ele>
        <time>2026-08-15T17:06:25.000Z</time>
        <extensions>
          <ns3:TrackPointExtension>
            <ns3:hr>135</ns3:hr>
          </ns3:TrackPointExtension>
        </extensions>
      </trkpt>
      <trkpt lat="47.56041602231562137603759765625" lon="-3.05863768793642520904541015625">
        <ele>1</ele>
        <time>2026-08-15T17:06:26.000Z</time>
        <extensions>
          <ns3:TrackPointExtension>
            <ns3:hr>135</ns3:hr>
          </ns3:TrackPointExtension>
        </extensions>
      </trkpt>
      <trkpt lat="47.5604281760752201080322265625" lon="-3.058637939393520355224609375">
        <ele>1</ele>
        <time>2026-08-15T17:06:27.000Z</time>
        <extensions>
          <ns3:TrackPointExtension>
            <ns3:hr>135</ns3:hr>
          </ns3:TrackPointExtension>
        </extensions>
      </trkpt>
      <trkpt lat="47.560442425310611724853515625" lon="-3.0586315691471099853515625">
        <ele>1</ele>
        <time>2026-08-15T17:06:28.000Z</time>
        <extensions>
          <ns3:TrackPointExtension>
            <ns3:hr>135</ns3:hr>
          </ns3:TrackPointExtension>
        </extensions>
      </trkpt>
      <trkpt lat="47.5604590214788913726806640625" lon="-3.05863148532807826995849609375">
        <ele>1</ele>
        <time>2026-08-15T17:06:29.000Z</time>
        <extensions>
          <ns3:TrackPointExtension>
            <ns3:hr>135</ns3:hr>
          </ns3:TrackPointExtension>
        </extensions>
      </trkpt>
      <trkpt lat="47.5604717619717121124267578125" lon="-3.05862964130938053131103515625">
        <ele>1</ele>
        <time>2026-08-15T17:06:30.000Z</time>
        <extensions>
          <ns3:TrackPointExtension>
            <ns3:hr>135</ns3:hr>
          </ns3:TrackPointExtension>
        </extensions>
      </trkpt>
      <trkpt lat="47.56048659794032573699951171875" lon="-3.0586240254342555999755859375">
        <ele>1</ele>
        <time>2026-08-15T17:06:31.000Z</time>
        <extensions>
          <ns3:TrackPointExtension>
            <ns3:hr>135</ns3:hr>
          </ns3:TrackPointExtension>
        </extensions>
      </trkpt>
      <trkpt lat="47.56050202064216136932373046875" lon="-3.05861807428300380706787109375">
        <ele>1</ele>
        <time>2026-08-15T17:06:32.000Z</time>
        <extensions>
          <ns3:TrackPointExtension>
            <ns3:hr>135</ns3:hr>
          </ns3:TrackPointExtension>
        </extensions>
      </trkpt>
      <trkpt lat="47.560522891581058502197265625" lon="-3.05861321277916431427001953125">
        <ele>1.39999997615814208984375</ele>
        <time>2026-08-15T17:06:33.000Z</time>
        <extensions>
          <ns3:TrackPointExtension>
            <ns3:hr>135</ns3:hr>
          </ns3:TrackPointExtension>
        </extensions>
      </trkpt>
      <trkpt lat="47.5605505518615245819091796875" lon="-3.0586032383143901824951171875">
        <ele>1.60000002384185791015625</ele>
        <time>2026-08-15T17:06:34.000Z</time>
        <extensions>
          <ns3:TrackPointExtension>
            <ns3:hr>136</ns3:hr>
          </ns3:TrackPointExtension>
        </extensions>
      </trkpt>
      <trkpt lat="47.560581900179386138916015625" lon="-3.0585888214409351348876953125">
        <ele>3.2000000476837158203125</ele>
        <time>2026-08-15T17:06:35.000Z</time>
        <extensions>
          <ns3:TrackPointExtension>
            <ns3:hr>136</ns3:hr>
          </ns3:TrackPointExtension>
        </extensions>
      </trkpt>
      <trkpt lat="47.56061173975467681884765625" lon="-3.0585740692913532257080078125">
        <ele>5</ele>
        <time>2026-08-15T17:06:36.000Z</time>
        <extensions>
          <ns3:TrackPointExtension>
            <ns3:hr>136</ns3:hr>
          </ns3:TrackPointExtension>
        </extensions>
      </trkpt>
      <trkpt lat="47.56064233370125293731689453125" lon="-3.0585539527237415313720703125">
        <ele>6</ele>
        <time>2026-08-15T17:06:37.000Z</time>
        <extensions>
          <ns3:TrackPointExtension>
            <ns3:hr>135</ns3:hr>
          </ns3:TrackPointExtension>
        </extensions>
      </trkpt>
      <trkpt lat="47.56067669950425624847412109375" lon="-3.0585422180593013763427734375">
        <ele>7</ele>
        <time>2026-08-15T17:06:38.000Z</time>
        <extensions>
          <ns3:TrackPointExtension>
            <ns3:hr>135</ns3:hr>
          </ns3:TrackPointExtension>
        </extensions>
      </trkpt>
      <trkpt lat="47.56071240641176700592041015625" lon="-3.05852553807199001312255859375">
        <ele>8.19999980926513671875</ele>
        <time>2026-08-15T17:06:39.000Z</time>
        <extensions>
          <ns3:TrackPointExtension>
            <ns3:hr>136</ns3:hr>
          </ns3:TrackPointExtension>
        </extensions>
      </trkpt>
      <trkpt lat="47.5607543997466564178466796875" lon="-3.058501146733760833740234375">
        <ele>8.80000019073486328125</ele>
        <time>2026-08-15T17:06:40.000Z</time>
        <extensions>
          <ns3:TrackPointExtension>
            <ns3:hr>136</ns3:hr>
          </ns3:TrackPointExtension>
        </extensions>
      </trkpt>
      <trkpt lat="47.56079656071960926055908203125" lon="-3.0584835447371006011962890625">
        <ele>9.19999980926513671875</ele>
        <time>2026-08-15T17:06:41.000Z</time>
        <extensions>
          <ns3:TrackPointExtension>
            <ns3:hr>136</ns3:hr>
          </ns3:TrackPointExtension>
        </extensions>
      </trkpt>
      <trkpt lat="47.5608435831964015960693359375" lon="-3.05846552364528179168701171875">
        <ele>9.19999980926513671875</ele>
        <time>2026-08-15T17:06:42.000Z</time>
        <extensions>
          <ns3:TrackPointExtension>
            <ns3:hr>134</ns3:hr>
          </ns3:TrackPointExtension>
        </extensions>
      </trkpt>
      <trkpt lat="47.56089529953896999359130859375" lon="-3.05846435017883777618408203125">
        <ele>9.19999980926513671875</ele>
        <time>2026-08-15T17:06:43.000Z</time>
        <extensions>
          <ns3:TrackPointExtension>
            <ns3:hr>131</ns3:hr>
          </ns3:TrackPointExtension>
        </extensions>
      </trkpt>
      <trkpt lat="47.5609542243182659149169921875" lon="-3.0584842152893543243408203125">
        <ele>9.6000003814697265625</ele>
        <time>2026-08-15T17:06:44.000Z</time>
        <extensions>
          <ns3:TrackPointExtension>
            <ns3:hr>129</ns3:hr>
          </ns3:TrackPointExtension>
        </extensions>
      </trkpt>
      <trkpt lat="47.56101381964981555938720703125" lon="-3.05849754251539707183837890625">
        <ele>9.6000003814697265625</ele>
        <time>2026-08-15T17:06:45.000Z</time>
        <extensions>
          <ns3:TrackPointExtension>
            <ns3:hr>128</ns3:hr>
          </ns3:TrackPointExtension>
        </extensions>
      </trkpt>
      <trkpt lat="47.561070732772350311279296875" lon="-3.058507181704044342041015625">
        <ele>9.6000003814697265625</ele>
        <time>2026-08-15T17:06:46.000Z</time>
        <extensions>
          <ns3:TrackPointExtension>
            <ns3:hr>127</ns3:hr>
          </ns3:TrackPointExtension>
        </extensions>
      </trkpt>
      <trkpt lat="47.56113518960773944854736328125" lon="-3.05851958692073822021484375">
        <ele>9.6000003814697265625</ele>
        <time>2026-08-15T17:06:47.000Z</time>
        <extensions>
          <ns3:TrackPointExtension>
            <ns3:hr>127</ns3:hr>
          </ns3:TrackPointExtension>
        </extensions>
      </trkpt>
      <trkpt lat="47.56120241247117519378662109375" lon="-3.05853408761322498321533203125">
        <ele>9.3999996185302734375</ele>
        <time>2026-08-15T17:06:48.000Z</time>
        <extensions>
          <ns3:TrackPointExtension>
            <ns3:hr>127</ns3:hr>
          </ns3:TrackPointExtension>
        </extensions>
      </trkpt>
      <trkpt lat="47.5612668693065643310546875" lon="-3.05854448117315769195556640625">
        <ele>9.19999980926513671875</ele>
        <time>2026-08-15T17:06:49.000Z</time>
        <extensions>
          <ns3:TrackPointExtension>
            <ns3:hr>128</ns3:hr>
          </ns3:TrackPointExtension>
        </extensions>
      </trkpt>
      <trkpt lat="47.5613283924758434295654296875" lon="-3.0585618317127227783203125">
        <ele>9.19999980926513671875</ele>
        <time>2026-08-15T17:06:50.000Z</time>
        <extensions>
          <ns3:TrackPointExtension>
            <ns3:hr>129</ns3:hr>
          </ns3:TrackPointExtension>
        </extensions>
      </trkpt>
      <trkpt lat="47.5613931007683277130126953125" lon="-3.0585834570229053497314453125">
        <ele>9.3999996185302734375</ele>
        <time>2026-08-15T17:06:51.000Z</time>
        <extensions>
          <ns3:TrackPointExtension>
            <ns3:hr>130</ns3:hr>
          </ns3:TrackPointExtension>
        </extensions>
      </trkpt>
      <trkpt lat="47.561458982527256011962890625" lon="-3.0586020648479461669921875">
        <ele>9.6000003814697265625</ele>
        <time>2026-08-15T17:06:52.000Z</time>
        <extensions>
          <ns3:TrackPointExtension>
            <ns3:hr>132</ns3:hr>
          </ns3:TrackPointExtension>
        </extensions>
      </trkpt>
      <trkpt lat="47.56152058951556682586669921875" lon="-3.058616816997528076171875">
        <ele>9.80000019073486328125</ele>
        <time>2026-08-15T17:06:53.000Z</time>
        <extensions>
          <ns3:TrackPointExtension>
            <ns3:hr>136</ns3:hr>
          </ns3:TrackPointExtension>
        </extensions>
      </trkpt>
      <trkpt lat="47.5615862198173999786376953125" lon="-3.0586422979831695556640625">
        <ele>9.80000019073486328125</ele>
        <time>2026-08-15T17:06:54.000Z</time>
        <extensions>
          <ns3:TrackPointExtension>
            <ns3:hr>142</ns3:hr>
          </ns3:TrackPointExtension>
        </extensions>
      </trkpt>
      <trkpt lat="47.56164832971990108489990234375" lon="-3.05866685695946216583251953125">
        <ele>10</ele>
        <time>2026-08-15T17:06:55.000Z</time>
        <extensions>
          <ns3:TrackPointExtension>
            <ns3:hr>146</ns3:hr>
          </ns3:TrackPointExtension>
        </extensions>
      </trkpt>
      <trkpt lat="47.56171287037432193756103515625" lon="-3.05867942981421947479248046875">
        <ele>10.19999980926513671875</ele>
        <time>2026-08-15T17:06:56.000Z</time>
        <extensions>
          <ns3:TrackPointExtension>
            <ns3:hr>148</ns3:hr>
          </ns3:TrackPointExtension>
        </extensions>
      </trkpt>
      <trkpt lat="47.5617779977619647979736328125" lon="-3.0587001331150531768798828125">
        <ele>10.3999996185302734375</ele>
        <time>2026-08-15T17:06:57.000Z</time>
        <extensions>
          <ns3:TrackPointExtension>
            <ns3:hr>151</ns3:hr>
          </ns3:TrackPointExtension>
        </extensions>
      </trkpt>
      <trkpt lat="47.5618470646440982818603515625" lon="-3.05871781893074512481689453125">
        <ele>10.3999996185302734375</ele>
        <time>2026-08-15T17:06:58.000Z</time>
        <extensions>
          <ns3:TrackPointExtension>
            <ns3:hr>153</ns3:hr>
          </ns3:TrackPointExtension>
        </extensions>
      </trkpt>
      <trkpt lat="47.5619114376604557037353515625" lon="-3.05873148143291473388671875">
        <ele>10.3999996185302734375</ele>
        <time>2026-08-15T17:06:59.000Z</time>
        <extensions>
          <ns3:TrackPointExtension>
            <ns3:hr>155</ns3:hr>
          </ns3:TrackPointExtension>
        </extensions>
      </trkpt>
      <trkpt lat="47.56197857670485973358154296875" lon="-3.0587571300566196441650390625">
        <ele>10.19999980926513671875</ele>
        <time>2026-08-15T17:07:00.000Z</time>
        <extensions>
          <ns3:TrackPointExtension>
            <ns3:hr>156</ns3:hr>
          </ns3:TrackPointExtension>
        </extensions>
      </trkpt>
      <trkpt lat="47.56204898469150066375732421875" lon="-3.0587725527584552764892578125">
        <ele>9.6000003814697265625</ele>
        <time>2026-08-15T17:07:01.000Z</time>
        <extensions>
          <ns3:TrackPointExtension>
            <ns3:hr>156</ns3:hr>
          </ns3:TrackPointExtension>
        </extensions>
      </trkpt>
      <trkpt lat="47.56211704574525356292724609375" lon="-3.058782778680324554443359375">
        <ele>9.3999996185302734375</ele>
        <time>2026-08-15T17:07:02.000Z</time>
        <extensions>
          <ns3:TrackPointExtension>
            <ns3:hr>156</ns3:hr>
          </ns3:TrackPointExtension>
        </extensions>
      </trkpt>
      <trkpt lat="47.56218376569449901580810546875" lon="-3.058797530829906463623046875">
        <ele>9.3999996185302734375</ele>
        <time>2026-08-15T17:07:03.000Z</time>
        <extensions>
          <ns3:TrackPointExtension>
            <ns3:hr>156</ns3:hr>
          </ns3:TrackPointExtension>
        </extensions>
      </trkpt>
      <trkpt lat="47.56224830634891986846923828125" lon="-3.0588184855878353118896484375">
        <ele>9.3999996185302734375</ele>
        <time>2026-08-15T17:07:04.000Z</time>
        <extensions>
          <ns3:TrackPointExtension>
            <ns3:hr>157</ns3:hr>
          </ns3:TrackPointExtension>
        </extensions>
      </trkpt>
      <trkpt lat="47.5623137690126895904541015625" lon="-3.058834411203861236572265625">
        <ele>9.3999996185302734375</ele>
        <time>2026-08-15T17:07:05.000Z</time>
        <extensions>
          <ns3:TrackPointExtension>
            <ns3:hr>156</ns3:hr>
          </ns3:TrackPointExtension>
        </extensions>
      </trkpt>
      <trkpt lat="47.56237939931452274322509765625" lon="-3.0588515102863311767578125">
        <ele>9.80000019073486328125</ele>
        <time>2026-08-15T17:07:06.000Z</time>
        <extensions>
          <ns3:TrackPointExtension>
            <ns3:hr>156</ns3:hr>
          </ns3:TrackPointExtension>
        </extensions>
      </trkpt>
      <trkpt lat="47.56244410760700702667236328125" lon="-3.058860562741756439208984375">
        <ele>10</ele>
        <time>2026-08-15T17:07:07.000Z</time>
        <extensions>
          <ns3:TrackPointExtension>
            <ns3:hr>156</ns3:hr>
          </ns3:TrackPointExtension>
        </extensions>
      </trkpt>
      <trkpt lat="47.5625095702707767486572265625" lon="-3.058867938816547393798828125">
        <ele>10.19999980926513671875</ele>
        <time>2026-08-15T17:07:08.000Z</time>
        <extensions>
          <ns3:TrackPointExtension>
            <ns3:hr>157</ns3:hr>
          </ns3:TrackPointExtension>
        </extensions>
      </trkpt>
      <trkpt lat="47.5625739432871341705322265625" lon="-3.05887707509100437164306640625">
        <ele>10</ele>
        <time>2026-08-15T17:07:09.000Z</time>
        <extensions>
          <ns3:TrackPointExtension>
            <ns3:hr>157</ns3:hr>
          </ns3:TrackPointExtension>
        </extensions>
      </trkpt>
      <trkpt lat="47.56263957358896732330322265625" lon="-3.0588969402015209197998046875">
        <ele>10</ele>
        <time>2026-08-15T17:07:10.000Z</time>
        <extensions>
          <ns3:TrackPointExtension>
            <ns3:hr>157</ns3:hr>
          </ns3:TrackPointExtension>
        </extensions>
      </trkpt>
      <trkpt lat="47.56270252168178558349609375" lon="-3.058919571340084075927734375">
        <ele>9.80000019073486328125</ele>
        <time>2026-08-15T17:07:11.000Z</time>
        <extensions>
          <ns3:TrackPointExtension>
            <ns3:hr>158</ns3:hr>
          </ns3:TrackPointExtension>
        </extensions>
      </trkpt>
      <trkpt lat="47.5627633742988109588623046875" lon="-3.05892728269100189208984375">
        <ele>9.80000019073486328125</ele>
        <time>2026-08-15T17:07:12.000Z</time>
        <extensions>
          <ns3:TrackPointExtension>
            <ns3:hr>158</ns3:hr>
          </ns3:TrackPointExtension>
        </extensions>
      </trkpt>
      <trkpt lat="47.5628227181732654571533203125" lon="-3.058929629623889923095703125">
        <ele>9.80000019073486328125</ele>
        <time>2026-08-15T17:07:13.000Z</time>
        <extensions>
          <ns3:TrackPointExtension>
            <ns3:hr>157</ns3:hr>
          </ns3:TrackPointExtension>
        </extensions>
      </trkpt>
      <trkpt lat="47.5628842413425445556640625" lon="-3.0589395202696323394775390625">
        <ele>9.6000003814697265625</ele>
        <time>2026-08-15T17:07:14.000Z</time>
        <extensions>
          <ns3:TrackPointExtension>
            <ns3:hr>156</ns3:hr>
          </ns3:TrackPointExtension>
        </extensions>
      </trkpt>
      <trkpt lat="47.56294501014053821563720703125" lon="-3.058949075639247894287109375">
        <ele>9.80000019073486328125</ele>
        <time>2026-08-15T17:07:15.000Z</time>
        <extensions>
          <ns3:TrackPointExtension>
            <ns3:hr>156</ns3:hr>
          </ns3:TrackPointExtension>
        </extensions>
      </trkpt>
      <trkpt lat="47.56301441229879856109619140625" lon="-3.05895485915243625640869140625">
        <ele>9.80000019073486328125</ele>
        <time>2026-08-15T17:07:16.000Z</time>
        <extensions>
          <ns3:TrackPointExtension>
            <ns3:hr>156</ns3:hr>
          </ns3:TrackPointExtension>
        </extensions>
      </trkpt>
      <trkpt lat="47.563079707324504852294921875" lon="-3.05896458216011524200439453125">
        <ele>9.6000003814697265625</ele>
        <time>2026-08-15T17:07:17.000Z</time>
        <extensions>
          <ns3:TrackPointExtension>
            <ns3:hr>156</ns3:hr>
          </ns3:TrackPointExtension>
        </extensions>
      </trkpt>
      <trkpt lat="47.563145421445369720458984375" lon="-3.05897497572004795074462890625">
        <ele>9.19999980926513671875</ele>
        <time>2026-08-15T17:07:18.000Z</time>
        <extensions>
          <ns3:TrackPointExtension>
            <ns3:hr>156</ns3:hr>
          </ns3:TrackPointExtension>
        </extensions>
      </trkpt>
      <trkpt lat="47.56321004591882228851318359375" lon="-3.05898536927998065948486328125">
        <ele>9</ele>
        <time>2026-08-15T17:07:19.000Z</time>
        <extensions>
          <ns3:TrackPointExtension>
            <ns3:hr>156</ns3:hr>
          </ns3:TrackPointExtension>
        </extensions>
      </trkpt>
      <trkpt lat="47.56327358074486255645751953125" lon="-3.05898888967931270599365234375">
        <ele>8.80000019073486328125</ele>
        <time>2026-08-15T17:07:20.000Z</time>
        <extensions>
          <ns3:TrackPointExtension>
            <ns3:hr>155</ns3:hr>
          </ns3:TrackPointExtension>
        </extensions>
      </trkpt>
      <trkpt lat="47.5633400492370128631591796875" lon="-3.05898888967931270599365234375">
        <ele>8.80000019073486328125</ele>
        <time>2026-08-15T17:07:21.000Z</time>
        <extensions>
          <ns3:TrackPointExtension>
            <ns3:hr>155</ns3:hr>
          </ns3:TrackPointExtension>
        </extensions>
      </trkpt>
      <trkpt lat="47.56340953521430492401123046875" lon="-3.05899810977280139923095703125">
        <ele>9</ele>
        <time>2026-08-15T17:07:22.000Z</time>
        <extensions>
          <ns3:TrackPointExtension>
            <ns3:hr>155</ns3:hr>
          </ns3:TrackPointExtension>
        </extensions>
      </trkpt>
      <trkpt lat="47.5634738244116306304931640625" lon="-3.0590142868459224700927734375">
        <ele>9.3999996185302734375</ele>
        <time>2026-08-15T17:07:23.000Z</time>
        <extensions>
          <ns3:TrackPointExtension>
            <ns3:hr>154</ns3:hr>
          </ns3:TrackPointExtension>
        </extensions>
      </trkpt>
      <trkpt lat="47.56354180164635181427001953125" lon="-3.0590340681374073028564453125">
        <ele>9.80000019073486328125</ele>
        <time>2026-08-15T17:07:24.000Z</time>
        <extensions>
          <ns3:TrackPointExtension>
            <ns3:hr>154</ns3:hr>
          </ns3:TrackPointExtension>
        </extensions>
      </trkpt>
      <trkpt lat="47.5636055879294872283935546875" lon="-3.05905292741954326629638671875">
        <ele>10</ele>
        <time>2026-08-15T17:07:25.000Z</time>
        <extensions>
          <ns3:TrackPointExtension>
            <ns3:hr>154</ns3:hr>
          </ns3:TrackPointExtension>
        </extensions>
      </trkpt>
      <trkpt lat="47.563668787479400634765625" lon="-3.05905929766595363616943359375">
        <ele>9.80000019073486328125</ele>
        <time>2026-08-15T17:07:26.000Z</time>
        <extensions>
          <ns3:TrackPointExtension>
            <ns3:hr>154</ns3:hr>
          </ns3:TrackPointExtension>
        </extensions>
      </trkpt>
      <trkpt lat="47.563733495771884918212890625" lon="-3.05906935594975948333740234375">
        <ele>10</ele>
        <time>2026-08-15T17:07:27.000Z</time>
        <extensions>
          <ns3:TrackPointExtension>
            <ns3:hr>154</ns3:hr>
          </ns3:TrackPointExtension>
        </extensions>
      </trkpt>
      <trkpt lat="47.56380130536854267120361328125" lon="-3.05909165181219577789306640625">
        <ele>9.80000019073486328125</ele>
        <time>2026-08-15T17:07:28.000Z</time>
        <extensions>
          <ns3:TrackPointExtension>
            <ns3:hr>154</ns3:hr>
          </ns3:TrackPointExtension>
        </extensions>
      </trkpt>
      <trkpt lat="47.563861571252346038818359375" lon="-3.059125430881977081298828125">
        <ele>9.80000019073486328125</ele>
        <time>2026-08-15T17:07:29.000Z</time>
        <extensions>
          <ns3:TrackPointExtension>
            <ns3:hr>154</ns3:hr>
          </ns3:TrackPointExtension>
        </extensions>
      </trkpt>
      <trkpt lat="47.5639237649738788604736328125" lon="-3.0591504089534282684326171875">
        <ele>10.19999980926513671875</ele>
        <time>2026-08-15T17:07:30.000Z</time>
        <extensions>
          <ns3:TrackPointExtension>
            <ns3:hr>154</ns3:hr>
          </ns3:TrackPointExtension>
        </extensions>
      </trkpt>
      <trkpt lat="47.56398520432412624359130859375" lon="-3.059177398681640625">
        <ele>10.19999980926513671875</ele>
        <time>2026-08-15T17:07:31.000Z</time>
        <extensions>
          <ns3:TrackPointExtension>
            <ns3:hr>153</ns3:hr>
          </ns3:TrackPointExtension>
        </extensions>
      </trkpt>
      <trkpt lat="47.5640441291034221649169921875" lon="-3.05920497514307498931884765625">
        <ele>10</ele>
        <time>2026-08-15T17:07:32.000Z</time>
        <extensions>
          <ns3:TrackPointExtension>
            <ns3:hr>154</ns3:hr>
          </ns3:TrackPointExtension>
        </extensions>
      </trkpt>
      <trkpt lat="47.56410305388271808624267578125" lon="-3.0592302046716213226318359375">
        <ele>9.80000019073486328125</ele>
        <time>2026-08-15T17:07:33.000Z</time>
        <extensions>
          <ns3:TrackPointExtension>
            <ns3:hr>154</ns3:hr>
          </ns3:TrackPointExtension>
        </extensions>
      </trkpt>
      <trkpt lat="47.5641634874045848846435546875" lon="-3.0592489801347255706787109375">
        <ele>9.80000019073486328125</ele>
        <time>2026-08-15T17:07:34.000Z</time>
        <extensions>
          <ns3:TrackPointExtension>
            <ns3:hr>154</ns3:hr>
          </ns3:TrackPointExtension>
        </extensions>
      </trkpt>
      <trkpt lat="47.56421905942261219024658203125" lon="-3.05927353911101818084716796875">
        <ele>9.3999996185302734375</ele>
        <time>2026-08-15T17:07:35.000Z</time>
        <extensions>
          <ns3:TrackPointExtension>
            <ns3:hr>154</ns3:hr>
          </ns3:TrackPointExtension>
        </extensions>
      </trkpt>
      <trkpt lat="47.5642737932503223419189453125" lon="-3.0593063123524188995361328125">
        <ele>9.3999996185302734375</ele>
        <time>2026-08-15T17:07:36.000Z</time>
        <extensions>
          <ns3:TrackPointExtension>
            <ns3:hr>154</ns3:hr>
          </ns3:TrackPointExtension>
        </extensions>
      </trkpt>
      <trkpt lat="47.564322240650653839111328125" lon="-3.0593208968639373779296875">
        <ele>9.3999996185302734375</ele>
        <time>2026-08-15T17:07:37.000Z</time>
        <extensions>
          <ns3:TrackPointExtension>
            <ns3:hr>154</ns3:hr>
          </ns3:TrackPointExtension>
        </extensions>
      </trkpt>
      <trkpt lat="47.56437613628804683685302734375" lon="-3.05933958850800991058349609375">
        <ele>9</ele>
        <time>2026-08-15T17:07:38.000Z</time>
        <extensions>
          <ns3:TrackPointExtension>
            <ns3:hr>154</ns3:hr>
          </ns3:TrackPointExtension>
        </extensions>
      </trkpt>
      <trkpt lat="47.56442273966968059539794921875" lon="-3.05935400538146495819091796875">
        <ele>8.3999996185302734375</ele>
        <time>2026-08-15T17:07:39.000Z</time>
        <extensions>
          <ns3:TrackPointExtension>
            <ns3:hr>154</ns3:hr>
          </ns3:TrackPointExtension>
        </extensions>
      </trkpt>
      <trkpt lat="47.56446649320423603057861328125" lon="-3.05934528820216655731201171875">
        <ele>7.80000019073486328125</ele>
        <time>2026-08-15T17:07:40.000Z</time>
        <extensions>
          <ns3:TrackPointExtension>
            <ns3:hr>154</ns3:hr>
          </ns3:TrackPointExtension>
        </extensions>
      </trkpt>
      <trkpt lat="47.56451259367167949676513671875" lon="-3.059319891035556793212890625">
        <ele>7.599999904632568359375</ele>
        <time>2026-08-15T17:07:41.000Z</time>
        <extensions>
          <ns3:TrackPointExtension>
            <ns3:hr>154</ns3:hr>
          </ns3:TrackPointExtension>
        </extensions>
      </trkpt>
      <trkpt lat="47.5645597837865352630615234375" lon="-3.0593036301434040069580078125">
        <ele>7.400000095367431640625</ele>
        <time>2026-08-15T17:07:42.000Z</time>
        <extensions>
          <ns3:TrackPointExtension>
            <ns3:hr>154</ns3:hr>
          </ns3:TrackPointExtension>
        </extensions>
      </trkpt>
      <trkpt lat="47.56460445933043956756591796875" lon="-3.05928803980350494384765625">
        <ele>7.599999904632568359375</ele>
        <time>2026-08-15T17:07:43.000Z</time>
        <extensions>
          <ns3:TrackPointExtension>
            <ns3:hr>154</ns3:hr>
          </ns3:TrackPointExtension>
        </extensions>
      </trkpt>
      <trkpt lat="47.56465114653110504150390625" lon="-3.05927337147295475006103515625">
        <ele>7.80000019073486328125</ele>
        <time>2026-08-15T17:07:44.000Z</time>
        <extensions>
          <ns3:TrackPointExtension>
            <ns3:hr>153</ns3:hr>
          </ns3:TrackPointExtension>
        </extensions>
      </trkpt>
      <trkpt lat="47.56469548679888248443603515625" lon="-3.059260211884975433349609375">
        <ele>8.3999996185302734375</ele>
        <time>2026-08-15T17:07:45.000Z</time>
        <extensions>
          <ns3:TrackPointExtension>
            <ns3:hr>153</ns3:hr>
          </ns3:TrackPointExtension>
        </extensions>
      </trkpt>
      <trkpt lat="47.56474108435213565826416015625" lon="-3.05925996042788028717041015625">
        <ele>8.19999980926513671875</ele>
        <time>2026-08-15T17:07:46.000Z</time>
        <extensions>
          <ns3:TrackPointExtension>
            <ns3:hr>153</ns3:hr>
          </ns3:TrackPointExtension>
        </extensions>
      </trkpt>
      <trkpt lat="47.56478752009570598602294921875" lon="-3.0592543445527553558349609375">
        <ele>8</ele>
        <time>2026-08-15T17:07:47.000Z</time>
        <extensions>
          <ns3:TrackPointExtension>
            <ns3:hr>152</ns3:hr>
          </ns3:TrackPointExtension>
        </extensions>
      </trkpt>
      <trkpt lat="47.564825154840946197509765625" lon="-3.05925493128597736358642578125">
        <ele>8</ele>
        <time>2026-08-15T17:07:48.000Z</time>
        <extensions>
          <ns3:TrackPointExtension>
            <ns3:hr>151</ns3:hr>
          </ns3:TrackPointExtension>
        </extensions>
      </trkpt>
      <trkpt lat="47.56486446596682071685791015625" lon="-3.0592431128025054931640625">
        <ele>8</ele>
        <time>2026-08-15T17:07:49.000Z</time>
        <extensions>
          <ns3:TrackPointExtension>
            <ns3:hr>150</ns3:hr>
          </ns3:TrackPointExtension>
        </extensions>
      </trkpt>
      <trkpt lat="47.56490201689302921295166015625" lon="-3.05924671702086925506591796875">
        <ele>7.599999904632568359375</ele>
        <time>2026-08-15T17:07:50.000Z</time>
        <extensions>
          <ns3:TrackPointExtension>
            <ns3:hr>150</ns3:hr>
          </ns3:TrackPointExtension>
        </extensions>
      </trkpt>
      <trkpt lat="47.56493621505796909332275390625" lon="-3.05925317108631134033203125">
        <ele>7.400000095367431640625</ele>
        <time>2026-08-15T17:07:51.000Z</time>
        <extensions>
          <ns3:TrackPointExtension>
            <ns3:hr>150</ns3:hr>
          </ns3:TrackPointExtension>
        </extensions>
      </trkpt>
      <trkpt lat="47.56496773101389408111572265625" lon="-3.05925141088664531707763671875">
        <ele>7.599999904632568359375</ele>
        <time>2026-08-15T17:07:52.000Z</time>
        <extensions>
          <ns3:TrackPointExtension>
            <ns3:hr>148</ns3:hr>
          </ns3:TrackPointExtension>
        </extensions>
      </trkpt>
      <trkpt lat="47.565006874501705169677734375" lon="-3.05923967622220516204833984375">
        <ele>7.599999904632568359375</ele>
        <time>2026-08-15T17:07:53.000Z</time>
        <extensions>
          <ns3:TrackPointExtension>
            <ns3:hr>146</ns3:hr>
          </ns3:TrackPointExtension>
        </extensions>
      </trkpt>
      <trkpt lat="47.5650479458272457122802734375" lon="-3.05922576226294040679931640625">
        <ele>7.19999980926513671875</ele>
        <time>2026-08-15T17:07:54.000Z</time>
        <extensions>
          <ns3:TrackPointExtension>
            <ns3:hr>145</ns3:hr>
          </ns3:TrackPointExtension>
        </extensions>
      </trkpt>
      <trkpt lat="47.56509362719953060150146484375" lon="-3.059209920465946197509765625">
        <ele>7.400000095367431640625</ele>
        <time>2026-08-15T17:07:55.000Z</time>
        <extensions>
          <ns3:TrackPointExtension>
            <ns3:hr>145</ns3:hr>
          </ns3:TrackPointExtension>
        </extensions>
      </trkpt>
      <trkpt lat="47.5651364587247371673583984375" lon="-3.059195168316364288330078125">
        <ele>7.400000095367431640625</ele>
        <time>2026-08-15T17:07:56.000Z</time>
        <extensions>
          <ns3:TrackPointExtension>
            <ns3:hr>145</ns3:hr>
          </ns3:TrackPointExtension>
        </extensions>
      </trkpt>
      <trkpt lat="47.5651756860315799713134765625" lon="-3.05918150581419467926025390625">
        <ele>7.400000095367431640625</ele>
        <time>2026-08-15T17:07:57.000Z</time>
        <extensions>
          <ns3:TrackPointExtension>
            <ns3:hr>144</ns3:hr>
          </ns3:TrackPointExtension>
        </extensions>
      </trkpt>
      <trkpt lat="47.56521868519484996795654296875" lon="-3.0591634847223758697509765625">
        <ele>7.599999904632568359375</ele>
        <time>2026-08-15T17:07:58.000Z</time>
        <extensions>
          <ns3:TrackPointExtension>
            <ns3:hr>144</ns3:hr>
          </ns3:TrackPointExtension>
        </extensions>
      </trkpt>
      <trkpt lat="47.5652668811380863189697265625" lon="-3.0591316334903240203857421875">
        <ele>7.80000019073486328125</ele>
        <time>2026-08-15T17:07:59.000Z</time>
        <extensions>
          <ns3:TrackPointExtension>
            <ns3:hr>142</ns3:hr>
          </ns3:TrackPointExtension>
        </extensions>
      </trkpt>
      <trkpt lat="47.565318681299686431884765625" lon="-3.05910296738147735595703125">
        <ele>7.80000019073486328125</ele>
        <time>2026-08-15T17:08:00.000Z</time>
        <extensions>
          <ns3:TrackPointExtension>
            <ns3:hr>143</ns3:hr>
          </ns3:TrackPointExtension>
        </extensions>
      </trkpt>
      <trkpt lat="47.56537408567965030670166015625" lon="-3.059074468910694122314453125">
        <ele>7.599999904632568359375</ele>
        <time>2026-08-15T17:08:01.000Z</time>
        <extensions>
          <ns3:TrackPointExtension>
            <ns3:hr>143</ns3:hr>
          </ns3:TrackPointExtension>
        </extensions>
      </trkpt>
      <trkpt lat="47.5654278136789798736572265625" lon="-3.05903993546962738037109375">
        <ele>7.400000095367431640625</ele>
        <time>2026-08-15T17:08:02.000Z</time>
        <extensions>
          <ns3:TrackPointExtension>
            <ns3:hr>142</ns3:hr>
          </ns3:TrackPointExtension>
        </extensions>
      </trkpt>
      <trkpt lat="47.56547852419316768646240234375" lon="-3.0589988641440868377685546875">
        <ele>7.400000095367431640625</ele>
        <time>2026-08-15T17:08:03.000Z</time>
        <extensions>
          <ns3:TrackPointExtension>
            <ns3:hr>142</ns3:hr>
          </ns3:TrackPointExtension>
        </extensions>
      </trkpt>
      <trkpt lat="47.56553283892571926116943359375" lon="-3.05894949473440647125244140625">
        <ele>7.400000095367431640625</ele>
        <time>2026-08-15T17:08:04.000Z</time>
        <extensions>
          <ns3:TrackPointExtension>
            <ns3:hr>141</ns3:hr>
          </ns3:TrackPointExtension>
        </extensions>
      </trkpt>
      <trkpt lat="47.5655880756676197052001953125" lon="-3.0589177273213863372802734375">
        <ele>7.400000095367431640625</ele>
        <time>2026-08-15T17:08:05.000Z</time>
        <extensions>
          <ns3:TrackPointExtension>
            <ns3:hr>141</ns3:hr>
          </ns3:TrackPointExtension>
        </extensions>
      </trkpt>
      <trkpt lat="47.56565018557012081146240234375" lon="-3.05888176895678043365478515625">
        <ele>7.599999904632568359375</ele>
        <time>2026-08-15T17:08:06.000Z</time>
        <extensions>
          <ns3:TrackPointExtension>
            <ns3:hr>140</ns3:hr>
          </ns3:TrackPointExtension>
        </extensions>
      </trkpt>
      <trkpt lat="47.56571003235876560211181640625" lon="-3.058849833905696868896484375">
        <ele>7.80000019073486328125</ele>
        <time>2026-08-15T17:08:07.000Z</time>
        <extensions>
          <ns3:TrackPointExtension>
            <ns3:hr>140</ns3:hr>
          </ns3:TrackPointExtension>
        </extensions>
      </trkpt>
      <trkpt lat="47.56576694548130035400390625" lon="-3.0588272027671337127685546875">
        <ele>8</ele>
        <time>2026-08-15T17:08:08.000Z</time>
        <extensions>
          <ns3:TrackPointExtension>
            <ns3:hr>140</ns3:hr>
          </ns3:TrackPointExtension>
        </extensions>
      </trkpt>
      <trkpt lat="47.5658251158893108367919921875" lon="-3.058804236352443695068359375">
        <ele>8.19999980926513671875</ele>
        <time>2026-08-15T17:08:09.000Z</time>
        <extensions>
          <ns3:TrackPointExtension>
            <ns3:hr>140</ns3:hr>
          </ns3:TrackPointExtension>
        </extensions>
      </trkpt>
      <trkpt lat="47.5658861361443996429443359375" lon="-3.05878085084259510040283203125">
        <ele>8.19999980926513671875</ele>
        <time>2026-08-15T17:08:10.000Z</time>
        <extensions>
          <ns3:TrackPointExtension>
            <ns3:hr>140</ns3:hr>
          </ns3:TrackPointExtension>
        </extensions>
      </trkpt>
      <trkpt lat="47.5659444741904735565185546875" lon="-3.0587427131831645965576171875">
        <ele>8</ele>
        <time>2026-08-15T17:08:11.000Z</time>
        <extensions>
          <ns3:TrackPointExtension>
            <ns3:hr>141</ns3:hr>
          </ns3:TrackPointExtension>
        </extensions>
      </trkpt>
      <trkpt lat="47.56600432097911834716796875" lon="-3.058701641857624053955078125">
        <ele>8.19999980926513671875</ele>
        <time>2026-08-15T17:08:12.000Z</time>
        <extensions>
          <ns3:TrackPointExtension>
            <ns3:hr>140</ns3:hr>
          </ns3:TrackPointExtension>
        </extensions>
      </trkpt>
      <trkpt lat="47.56606106646358966827392578125" lon="-3.058668784797191619873046875">
        <ele>8.19999980926513671875</ele>
        <time>2026-08-15T17:08:13.000Z</time>
        <extensions>
          <ns3:TrackPointExtension>
            <ns3:hr>141</ns3:hr>
          </ns3:TrackPointExtension>
        </extensions>
      </trkpt>
      <trkpt lat="47.56612007506191730499267578125" lon="-3.0586377717554569244384765625">
        <ele>8</ele>
        <time>2026-08-15T17:08:14.000Z</time>
        <extensions>
          <ns3:TrackPointExtension>
            <ns3:hr>141</ns3:hr>
          </ns3:TrackPointExtension>
        </extensions>
      </trkpt>
      <trkpt lat="47.566174305975437164306640625" lon="-3.058610446751117706298828125">
        <ele>8.19999980926513671875</ele>
        <time>2026-08-15T17:08:15.000Z</time>
        <extensions>
          <ns3:TrackPointExtension>
            <ns3:hr>141</ns3:hr>
          </ns3:TrackPointExtension>
        </extensions>
      </trkpt>
      <trkpt lat="47.566233314573764801025390625" lon="-3.0585780926048755645751953125">
        <ele>8.19999980926513671875</ele>
        <time>2026-08-15T17:08:16.000Z</time>
        <extensions>
          <ns3:TrackPointExtension>
            <ns3:hr>140</ns3:hr>
          </ns3:TrackPointExtension>
        </extensions>
      </trkpt>
      <trkpt lat="47.5662921555340290069580078125" lon="-3.05855437181890010833740234375">
        <ele>8.19999980926513671875</ele>
        <time>2026-08-15T17:08:17.000Z</time>
        <extensions>
          <ns3:TrackPointExtension>
            <ns3:hr>141</ns3:hr>
          </ns3:TrackPointExtension>
        </extensions>
      </trkpt>
      <trkpt lat="47.56635610945522785186767578125" lon="-3.0585405416786670684814453125">
        <ele>8.6000003814697265625</ele>
        <time>2026-08-15T17:08:18.000Z</time>
        <extensions>
          <ns3:TrackPointExtension>
            <ns3:hr>141</ns3:hr>
          </ns3:TrackPointExtension>
        </extensions>
      </trkpt>
      <trkpt lat="47.5664192251861095428466796875" lon="-3.0585227720439434051513671875">
        <ele>8.80000019073486328125</ele>
        <time>2026-08-15T17:08:19.000Z</time>
        <extensions>
          <ns3:TrackPointExtension>
            <ns3:hr>140</ns3:hr>
          </ns3:TrackPointExtension>
        </extensions>
      </trkpt>
      <trkpt lat="47.56647949106991291046142578125" lon="-3.05849150754511356353759765625">
        <ele>8.80000019073486328125</ele>
        <time>2026-08-15T17:08:20.000Z</time>
        <extensions>
          <ns3:TrackPointExtension>
            <ns3:hr>140</ns3:hr>
          </ns3:TrackPointExtension>
        </extensions>
      </trkpt>
      <trkpt lat="47.56653564982116222381591796875" lon="-3.0584577284753322601318359375">
        <ele>8.80000019073486328125</ele>
        <time>2026-08-15T17:08:21.000Z</time>
        <extensions>
          <ns3:TrackPointExtension>
            <ns3:hr>140</ns3:hr>
          </ns3:TrackPointExtension>
        </extensions>
      </trkpt>
      <trkpt lat="47.566598094999790191650390625" lon="-3.058429062366485595703125">
        <ele>8.80000019073486328125</ele>
        <time>2026-08-15T17:08:22.000Z</time>
        <extensions>
          <ns3:TrackPointExtension>
            <ns3:hr>140</ns3:hr>
          </ns3:TrackPointExtension>
        </extensions>
      </trkpt>
      <trkpt lat="47.56666171364486217498779296875" lon="-3.05840425193309783935546875">
        <ele>8.6000003814697265625</ele>
        <time>2026-08-15T17:08:23.000Z</time>
        <extensions>
          <ns3:TrackPointExtension>
            <ns3:hr>140</ns3:hr>
          </ns3:TrackPointExtension>
        </extensions>
      </trkpt>
      <trkpt lat="47.56672139279544353485107421875" lon="-3.058377765119075775146484375">
        <ele>8.3999996185302734375</ele>
        <time>2026-08-15T17:08:24.000Z</time>
        <extensions>
          <ns3:TrackPointExtension>
            <ns3:hr>140</ns3:hr>
          </ns3:TrackPointExtension>
        </extensions>
      </trkpt>
      <trkpt lat="47.5667819939553737640380859375" lon="-3.05834650062024593353271484375">
        <ele>8.3999996185302734375</ele>
        <time>2026-08-15T17:08:25.000Z</time>
        <extensions>
          <ns3:TrackPointExtension>
            <ns3:hr>139</ns3:hr>
          </ns3:TrackPointExtension>
        </extensions>
      </trkpt>
      <trkpt lat="47.56684460677206516265869140625" lon="-3.0583159066736698150634765625">
        <ele>8.3999996185302734375</ele>
        <time>2026-08-15T17:08:26.000Z</time>
        <extensions>
          <ns3:TrackPointExtension>
            <ns3:hr>138</ns3:hr>
          </ns3:TrackPointExtension>
        </extensions>
      </trkpt>
      <trkpt lat="47.56690478883683681488037109375" lon="-3.05829118005931377410888671875">
        <ele>8.3999996185302734375</ele>
        <time>2026-08-15T17:08:27.000Z</time>
        <extensions>
          <ns3:TrackPointExtension>
            <ns3:hr>137</ns3:hr>
          </ns3:TrackPointExtension>
        </extensions>
      </trkpt>
      <trkpt lat="47.5669692456722259521484375" lon="-3.058273494243621826171875">
        <ele>8.3999996185302734375</ele>
        <time>2026-08-15T17:08:28.000Z</time>
        <extensions>
          <ns3:TrackPointExtension>
            <ns3:hr>137</ns3:hr>
          </ns3:TrackPointExtension>
        </extensions>
      </trkpt>
      <trkpt lat="47.56703537888824939727783203125" lon="-3.05825564078986644744873046875">
        <ele>8.3999996185302734375</ele>
        <time>2026-08-15T17:08:29.000Z</time>
        <extensions>
          <ns3:TrackPointExtension>
            <ns3:hr>136</ns3:hr>
          </ns3:TrackPointExtension>
        </extensions>
      </trkpt>
      <trkpt lat="47.56709874607622623443603515625" lon="-3.0582277290523052215576171875">
        <ele>8.6000003814697265625</ele>
        <time>2026-08-15T17:08:30.000Z</time>
        <extensions>
          <ns3:TrackPointExtension>
            <ns3:hr>136</ns3:hr>
          </ns3:TrackPointExtension>
        </extensions>
      </trkpt>
      <trkpt lat="47.5671581737697124481201171875" lon="-3.05820970796048641204833984375">
        <ele>8.6000003814697265625</ele>
        <time>2026-08-15T17:08:31.000Z</time>
        <extensions>
          <ns3:TrackPointExtension>
            <ns3:hr>135</ns3:hr>
          </ns3:TrackPointExtension>
        </extensions>
      </trkpt>
      <trkpt lat="47.56722045131027698516845703125" lon="-3.05818892084062099456787109375">
        <ele>8.3999996185302734375</ele>
        <time>2026-08-15T17:08:32.000Z</time>
        <extensions>
          <ns3:TrackPointExtension>
            <ns3:hr>135</ns3:hr>
          </ns3:TrackPointExtension>
        </extensions>
      </trkpt>
      <trkpt lat="47.56727434694766998291015625" lon="-3.05816930718719959259033203125">
        <ele>8.3999996185302734375</ele>
        <time>2026-08-15T17:08:33.000Z</time>
        <extensions>
          <ns3:TrackPointExtension>
            <ns3:hr>134</ns3:hr>
          </ns3:TrackPointExtension>
        </extensions>
      </trkpt>
      <trkpt lat="47.56733109243214130401611328125" lon="-3.0581579916179180145263671875">
        <ele>8.3999996185302734375</ele>
        <time>2026-08-15T17:08:34.000Z</time>
        <extensions>
          <ns3:TrackPointExtension>
            <ns3:hr>134</ns3:hr>
          </ns3:TrackPointExtension>
        </extensions>
      </trkpt>
      <trkpt lat="47.5673864968121051788330078125" lon="-3.05814550258219242095947265625">
        <ele>8.19999980926513671875</ele>
        <time>2026-08-15T17:08:35.000Z</time>
        <extensions>
          <ns3:TrackPointExtension>
            <ns3:hr>134</ns3:hr>
          </ns3:TrackPointExtension>
        </extensions>
      </trkpt>
      <trkpt lat="47.5674431584775447845458984375" lon="-3.058128319680690765380859375">
        <ele>8.19999980926513671875</ele>
        <time>2026-08-15T17:08:36.000Z</time>
        <extensions>
          <ns3:TrackPointExtension>
            <ns3:hr>133</ns3:hr>
          </ns3:TrackPointExtension>
        </extensions>
      </trkpt>
      <trkpt lat="47.56749873049557209014892578125" lon="-3.05810250341892242431640625">
        <ele>8.19999980926513671875</ele>
        <time>2026-08-15T17:08:37.000Z</time>
        <extensions>
          <ns3:TrackPointExtension>
            <ns3:hr>133</ns3:hr>
          </ns3:TrackPointExtension>
        </extensions>
      </trkpt>
      <trkpt lat="47.5675544701516628265380859375" lon="-3.05807769298553466796875">
        <ele>8.3999996185302734375</ele>
        <time>2026-08-15T17:08:38.000Z</time>
        <extensions>
          <ns3:TrackPointExtension>
            <ns3:hr>134</ns3:hr>
          </ns3:TrackPointExtension>
        </extensions>
      </trkpt>
      <trkpt lat="47.56760953925549983978271484375" lon="-3.0580657906830310821533203125">
        <ele>8.3999996185302734375</ele>
        <time>2026-08-15T17:08:39.000Z</time>
        <extensions>
          <ns3:TrackPointExtension>
            <ns3:hr>134</ns3:hr>
          </ns3:TrackPointExtension>
        </extensions>
      </trkpt>
      <trkpt lat="47.567660249769687652587890625" lon="-3.0580500327050685882568359375">
        <ele>8.3999996185302734375</ele>
        <time>2026-08-15T17:08:40.000Z</time>
        <extensions>
          <ns3:TrackPointExtension>
            <ns3:hr>134</ns3:hr>
          </ns3:TrackPointExtension>
        </extensions>
      </trkpt>
      <trkpt lat="47.56771515123546123504638671875" lon="-3.058027736842632293701171875">
        <ele>8.6000003814697265625</ele>
        <time>2026-08-15T17:08:41.000Z</time>
        <extensions>
          <ns3:TrackPointExtension>
            <ns3:hr>134</ns3:hr>
          </ns3:TrackPointExtension>
        </extensions>
      </trkpt>
      <trkpt lat="47.56777323782444000244140625" lon="-3.05800435133278369903564453125">
        <ele>8.80000019073486328125</ele>
        <time>2026-08-15T17:08:42.000Z</time>
        <extensions>
          <ns3:TrackPointExtension>
            <ns3:hr>134</ns3:hr>
          </ns3:TrackPointExtension>
        </extensions>
      </trkpt>
      <trkpt lat="47.56783149205148220062255859375" lon="-3.05798389948904514312744140625">
        <ele>8.3999996185302734375</ele>
        <time>2026-08-15T17:08:43.000Z</time>
        <extensions>
          <ns3:TrackPointExtension>
            <ns3:hr>134</ns3:hr>
          </ns3:TrackPointExtension>
        </extensions>
      </trkpt>
      <trkpt lat="47.56788723170757293701171875" lon="-3.0579668842256069183349609375">
        <ele>8.3999996185302734375</ele>
        <time>2026-08-15T17:08:44.000Z</time>
        <extensions>
          <ns3:TrackPointExtension>
            <ns3:hr>134</ns3:hr>
          </ns3:TrackPointExtension>
        </extensions>
      </trkpt>
      <trkpt lat="47.5679430551826953887939453125" lon="-3.05794567801058292388916015625">
        <ele>8.3999996185302734375</ele>
        <time>2026-08-15T17:08:45.000Z</time>
        <extensions>
          <ns3:TrackPointExtension>
            <ns3:hr>134</ns3:hr>
          </ns3:TrackPointExtension>
        </extensions>
      </trkpt>
      <trkpt lat="47.56799678318202495574951171875" lon="-3.05792505852878093719482421875">
        <ele>8.6000003814697265625</ele>
        <time>2026-08-15T17:08:46.000Z</time>
        <extensions>
          <ns3:TrackPointExtension>
            <ns3:hr>134</ns3:hr>
          </ns3:TrackPointExtension>
        </extensions>
      </trkpt>
      <trkpt lat="47.56805461831390857696533203125" lon="-3.0579112283885478973388671875">
        <ele>8.6000003814697265625</ele>
        <time>2026-08-15T17:08:47.000Z</time>
        <extensions>
          <ns3:TrackPointExtension>
            <ns3:hr>133</ns3:hr>
          </ns3:TrackPointExtension>
        </extensions>
      </trkpt>
      <trkpt lat="47.5681147165596485137939453125" lon="-3.057895638048648834228515625">
        <ele>8.80000019073486328125</ele>
        <time>2026-08-15T17:08:48.000Z</time>
        <extensions>
          <ns3:TrackPointExtension>
            <ns3:hr>132</ns3:hr>
          </ns3:TrackPointExtension>
        </extensions>
      </trkpt>
      <trkpt lat="47.56817825138568878173828125" lon="-3.0578820593655109405517578125">
        <ele>9.19999980926513671875</ele>
        <time>2026-08-15T17:08:49.000Z</time>
        <extensions>
          <ns3:TrackPointExtension>
            <ns3:hr>132</ns3:hr>
          </ns3:TrackPointExtension>
        </extensions>
      </trkpt>
      <trkpt lat="47.56825008429586887359619140625" lon="-3.05787174962460994720458984375">
        <ele>9.19999980926513671875</ele>
        <time>2026-08-15T17:08:50.000Z</time>
        <extensions>
          <ns3:TrackPointExtension>
            <ns3:hr>132</ns3:hr>
          </ns3:TrackPointExtension>
        </extensions>
      </trkpt>
      <trkpt lat="47.5683081708848476409912109375" lon="-3.057858087122440338134765625">
        <ele>8.80000019073486328125</ele>
        <time>2026-08-15T17:08:51.000Z</time>
        <extensions>
          <ns3:TrackPointExtension>
            <ns3:hr>132</ns3:hr>
          </ns3:TrackPointExtension>
        </extensions>
      </trkpt>
      <trkpt lat="47.568369023501873016357421875" lon="-3.0578481964766979217529296875">
        <ele>9</ele>
        <time>2026-08-15T17:08:52.000Z</time>
        <extensions>
          <ns3:TrackPointExtension>
            <ns3:hr>131</ns3:hr>
          </ns3:TrackPointExtension>
        </extensions>
      </trkpt>
      <trkpt lat="47.56842627190053462982177734375" lon="-3.05783185176551342010498046875">
        <ele>8.80000019073486328125</ele>
        <time>2026-08-15T17:08:53.000Z</time>
        <extensions>
          <ns3:TrackPointExtension>
            <ns3:hr>130</ns3:hr>
          </ns3:TrackPointExtension>
        </extensions>
      </trkpt>
      <trkpt lat="47.5684835202991962432861328125" lon="-3.05781123228371143341064453125">
        <ele>8.3999996185302734375</ele>
        <time>2026-08-15T17:08:54.000Z</time>
        <extensions>
          <ns3:TrackPointExtension>
            <ns3:hr>130</ns3:hr>
          </ns3:TrackPointExtension>
        </extensions>
      </trkpt>
      <trkpt lat="47.56854529492557048797607421875" lon="-3.05779664777219295501708984375">
        <ele>8.19999980926513671875</ele>
        <time>2026-08-15T17:08:55.000Z</time>
        <extensions>
          <ns3:TrackPointExtension>
            <ns3:hr>130</ns3:hr>
          </ns3:TrackPointExtension>
        </extensions>
      </trkpt>
      <trkpt lat="47.56859877146780490875244140625" lon="-3.05777904577553272247314453125">
        <ele>8</ele>
        <time>2026-08-15T17:08:56.000Z</time>
        <extensions>
          <ns3:TrackPointExtension>
            <ns3:hr>130</ns3:hr>
          </ns3:TrackPointExtension>
        </extensions>
      </trkpt>
      <trkpt lat="47.56864805705845355987548828125" lon="-3.0577653832733631134033203125">
        <ele>7.599999904632568359375</ele>
        <time>2026-08-15T17:08:57.000Z</time>
        <extensions>
          <ns3:TrackPointExtension>
            <ns3:hr>130</ns3:hr>
          </ns3:TrackPointExtension>
        </extensions>
      </trkpt>
      <trkpt lat="47.56869968958199024200439453125" lon="-3.05774434469640254974365234375">
        <ele>7.19999980926513671875</ele>
        <time>2026-08-15T17:08:58.000Z</time>
        <extensions>
          <ns3:TrackPointExtension>
            <ns3:hr>130</ns3:hr>
          </ns3:TrackPointExtension>
        </extensions>
      </trkpt>
      <trkpt lat="47.56875199265778064727783203125" lon="-3.05771282874047756195068359375">
        <ele>7</ele>
        <time>2026-08-15T17:08:59.000Z</time>
        <extensions>
          <ns3:TrackPointExtension>
            <ns3:hr>130</ns3:hr>
          </ns3:TrackPointExtension>
        </extensions>
      </trkpt>
      <trkpt lat="47.5688037090003490447998046875" lon="-3.0576896108686923980712890625">
        <ele>7</ele>
        <time>2026-08-15T17:09:00.000Z</time>
        <extensions>
          <ns3:TrackPointExtension>
            <ns3:hr>130</ns3:hr>
          </ns3:TrackPointExtension>
        </extensions>
      </trkpt>
      <trkpt lat="47.56885408423840999603271484375" lon="-3.0576634593307971954345703125">
        <ele>7</ele>
        <time>2026-08-15T17:09:01.000Z</time>
        <extensions>
          <ns3:TrackPointExtension>
            <ns3:hr>130</ns3:hr>
          </ns3:TrackPointExtension>
        </extensions>
      </trkpt>
      <trkpt lat="47.56890236400067806243896484375" lon="-3.0576406605541706085205078125">
        <ele>7</ele>
        <time>2026-08-15T17:09:02.000Z</time>
        <extensions>
          <ns3:TrackPointExtension>
            <ns3:hr>129</ns3:hr>
          </ns3:TrackPointExtension>
        </extensions>
      </trkpt>
      <trkpt lat="47.56895382888615131378173828125" lon="-3.0576203763484954833984375">
        <ele>7.400000095367431640625</ele>
        <time>2026-08-15T17:09:03.000Z</time>
        <extensions>
          <ns3:TrackPointExtension>
            <ns3:hr>129</ns3:hr>
          </ns3:TrackPointExtension>
        </extensions>
      </trkpt>
      <trkpt lat="47.56900395266711711883544921875" lon="-3.05760369636118412017822265625">
        <ele>7.400000095367431640625</ele>
        <time>2026-08-15T17:09:04.000Z</time>
        <extensions>
          <ns3:TrackPointExtension>
            <ns3:hr>129</ns3:hr>
          </ns3:TrackPointExtension>
        </extensions>
      </trkpt>
      <trkpt lat="47.56905843503773212432861328125" lon="-3.05758927948772907257080078125">
        <ele>7.599999904632568359375</ele>
        <time>2026-08-15T17:09:05.000Z</time>
        <extensions>
          <ns3:TrackPointExtension>
            <ns3:hr>129</ns3:hr>
          </ns3:TrackPointExtension>
        </extensions>
      </trkpt>
      <trkpt lat="47.56911157630383968353271484375" lon="-3.057575784623622894287109375">
        <ele>7.599999904632568359375</ele>
        <time>2026-08-15T17:09:06.000Z</time>
        <extensions>
          <ns3:TrackPointExtension>
            <ns3:hr>128</ns3:hr>
          </ns3:TrackPointExtension>
        </extensions>
      </trkpt>
      <trkpt lat="47.56916773505508899688720703125" lon="-3.05756178684532642364501953125">
        <ele>7.80000019073486328125</ele>
        <time>2026-08-15T17:09:07.000Z</time>
        <extensions>
          <ns3:TrackPointExtension>
            <ns3:hr>128</ns3:hr>
          </ns3:TrackPointExtension>
        </extensions>
      </trkpt>
      <trkpt lat="47.5692221336066722869873046875" lon="-3.0575410835444927215576171875">
        <ele>7.599999904632568359375</ele>
        <time>2026-08-15T17:09:08.000Z</time>
        <extensions>
          <ns3:TrackPointExtension>
            <ns3:hr>128</ns3:hr>
          </ns3:TrackPointExtension>
        </extensions>
      </trkpt>
      <trkpt lat="47.56927016191184520721435546875" lon="-3.05751786567270755767822265625">
        <ele>7.599999904632568359375</ele>
        <time>2026-08-15T17:09:09.000Z</time>
        <extensions>
          <ns3:TrackPointExtension>
            <ns3:hr>128</ns3:hr>
          </ns3:TrackPointExtension>
        </extensions>
      </trkpt>
      <trkpt lat="47.56931777112185955047607421875" lon="-3.05748249404132366180419921875">
        <ele>7.400000095367431640625</ele>
        <time>2026-08-15T17:09:10.000Z</time>
        <extensions>
          <ns3:TrackPointExtension>
            <ns3:hr>128</ns3:hr>
          </ns3:TrackPointExtension>
        </extensions>
      </trkpt>
      <trkpt lat="47.56936873309314250946044921875" lon="-3.0574371479451656341552734375">
        <ele>7.599999904632568359375</ele>
        <time>2026-08-15T17:09:11.000Z</time>
        <extensions>
          <ns3:TrackPointExtension>
            <ns3:hr>128</ns3:hr>
          </ns3:TrackPointExtension>
        </extensions>
      </trkpt>
      <trkpt lat="47.569408714771270751953125" lon="-3.05738576687872409820556640625">
        <ele>7</ele>
        <time>2026-08-15T17:09:12.000Z</time>
        <extensions>
          <ns3:TrackPointExtension>
            <ns3:hr>128</ns3:hr>
          </ns3:TrackPointExtension>
        </extensions>
      </trkpt>
      <trkpt lat="47.56944425404071807861328125" lon="-3.0573177896440029144287109375">
        <ele>6.599999904632568359375</ele>
        <time>2026-08-15T17:09:13.000Z</time>
        <extensions>
          <ns3:TrackPointExtension>
            <ns3:hr>128</ns3:hr>
          </ns3:TrackPointExtension>
        </extensions>
      </trkpt>
      <trkpt lat="47.569467723369598388671875" lon="-3.05723858065903186798095703125">
        <ele>6.599999904632568359375</ele>
        <time>2026-08-15T17:09:14.000Z</time>
        <extensions>
          <ns3:TrackPointExtension>
            <ns3:hr>128</ns3:hr>
          </ns3:TrackPointExtension>
        </extensions>
      </trkpt>
      <trkpt lat="47.56947518326342105865478515625" lon="-3.0571595393121242523193359375">
        <ele>6.19999980926513671875</ele>
        <time>2026-08-15T17:09:15.000Z</time>
        <extensions>
          <ns3:TrackPointExtension>
            <ns3:hr>128</ns3:hr>
          </ns3:TrackPointExtension>
        </extensions>
      </trkpt>
      <trkpt lat="47.5694564916193485260009765625" lon="-3.0570973455905914306640625">
        <ele>5.599999904632568359375</ele>
        <time>2026-08-15T17:09:16.000Z</time>
        <extensions>
          <ns3:TrackPointExtension>
            <ns3:hr>129</ns3:hr>
          </ns3:TrackPointExtension>
        </extensions>
      </trkpt>
      <trkpt lat="47.5694320164620876312255859375" lon="-3.05704462341964244842529296875">
        <ele>5.400000095367431640625</ele>
        <time>2026-08-15T17:09:17.000Z</time>
        <extensions>
          <ns3:TrackPointExtension>
            <ns3:hr>129</ns3:hr>
          </ns3:TrackPointExtension>
        </extensions>
      </trkpt>
      <trkpt lat="47.56940209306776523590087890625" lon="-3.0570061504840850830078125">
        <ele>5.19999980926513671875</ele>
        <time>2026-08-15T17:09:18.000Z</time>
        <extensions>
          <ns3:TrackPointExtension>
            <ns3:hr>129</ns3:hr>
          </ns3:TrackPointExtension>
        </extensions>
      </trkpt>
      <trkpt lat="47.569366805255413055419921875" lon="-3.0569714494049549102783203125">
        <ele>5</ele>
        <time>2026-08-15T17:09:19.000Z</time>
        <extensions>
          <ns3:TrackPointExtension>
            <ns3:hr>128</ns3:hr>
          </ns3:TrackPointExtension>
        </extensions>
      </trkpt>
      <trkpt lat="47.56933026015758514404296875" lon="-3.056937754154205322265625">
        <ele>4.400000095367431640625</ele>
        <time>2026-08-15T17:09:20.000Z</time>
        <extensions>
          <ns3:TrackPointExtension>
            <ns3:hr>129</ns3:hr>
          </ns3:TrackPointExtension>
        </extensions>
      </trkpt>
      <trkpt lat="47.56929195486009120941162109375" lon="-3.0569007061421871185302734375">
        <ele>3.7999999523162841796875</ele>
        <time>2026-08-15T17:09:21.000Z</time>
        <extensions>
          <ns3:TrackPointExtension>
            <ns3:hr>129</ns3:hr>
          </ns3:TrackPointExtension>
        </extensions>
      </trkpt>
      <trkpt lat="47.56926043890416622161865234375" lon="-3.0568708665668964385986328125">
        <ele>3.400000095367431640625</ele>
        <time>2026-08-15T17:09:22.000Z</time>
        <extensions>
          <ns3:TrackPointExtension>
            <ns3:hr>129</ns3:hr>
          </ns3:TrackPointExtension>
        </extensions>
      </trkpt>
      <trkpt lat="47.56922154687345027923583984375" lon="-3.05683541111648082733154296875">
        <ele>3.2000000476837158203125</ele>
        <time>2026-08-15T17:09:23.000Z</time>
        <extensions>
          <ns3:TrackPointExtension>
            <ns3:hr>129</ns3:hr>
          </ns3:TrackPointExtension>
        </extensions>
      </trkpt>
      <trkpt lat="47.569181732833385467529296875" lon="-3.0568051524460315704345703125">
        <ele>3</ele>
        <time>2026-08-15T17:09:24.000Z</time>
        <extensions>
          <ns3:TrackPointExtension>
            <ns3:hr>130</ns3:hr>
          </ns3:TrackPointExtension>
        </extensions>
      </trkpt>
      <trkpt lat="47.56914963014423847198486328125" lon="-3.05677472613751888275146484375">
        <ele>2.7999999523162841796875</ele>
        <time>2026-08-15T17:09:25.000Z</time>
        <extensions>
          <ns3:TrackPointExtension>
            <ns3:hr>130</ns3:hr>
          </ns3:TrackPointExtension>
        </extensions>
      </trkpt>
      <trkpt lat="47.569124065339565277099609375" lon="-3.0567508377134799957275390625">
        <ele>2.400000095367431640625</ele>
        <time>2026-08-15T17:09:26.000Z</time>
        <extensions>
          <ns3:TrackPointExtension>
            <ns3:hr>130</ns3:hr>
          </ns3:TrackPointExtension>
        </extensions>
      </trkpt>
      <trkpt lat="47.5691000930964946746826171875" lon="-3.056741617619991302490234375">
        <ele>2.2000000476837158203125</ele>
        <time>2026-08-15T17:09:27.000Z</time>
        <extensions>
          <ns3:TrackPointExtension>
            <ns3:hr>130</ns3:hr>
          </ns3:TrackPointExtension>
        </extensions>
      </trkpt>
      <trkpt lat="47.56908358074724674224853515625" lon="-3.05674790404736995697021484375">
        <ele>2.2000000476837158203125</ele>
        <time>2026-08-15T17:09:28.000Z</time>
        <extensions>
          <ns3:TrackPointExtension>
            <ns3:hr>131</ns3:hr>
          </ns3:TrackPointExtension>
        </extensions>
      </trkpt>
      <trkpt lat="47.56907008588314056396484375" lon="-3.056744299829006195068359375">
        <ele>2</ele>
        <time>2026-08-15T17:09:29.000Z</time>
        <extensions>
          <ns3:TrackPointExtension>
            <ns3:hr>131</ns3:hr>
          </ns3:TrackPointExtension>
        </extensions>
      </trkpt>
      <trkpt lat="47.56905994378030300140380859375" lon="-3.05675125680863857269287109375">
        <ele>2</ele>
        <time>2026-08-15T17:09:30.000Z</time>
        <extensions>
          <ns3:TrackPointExtension>
            <ns3:hr>131</ns3:hr>
          </ns3:TrackPointExtension>
        </extensions>
      </trkpt>
      <trkpt lat="47.56904594600200653076171875" lon="-3.0567555315792560577392578125">
        <ele>2</ele>
        <time>2026-08-15T17:09:31.000Z</time>
        <extensions>
          <ns3:TrackPointExtension>
            <ns3:hr>132</ns3:hr>
          </ns3:TrackPointExtension>
        </extensions>
      </trkpt>
      <trkpt lat="47.5690323673188686370849609375" lon="-3.05675377137959003448486328125">
        <ele>2</ele>
        <time>2026-08-15T17:09:32.000Z</time>
        <extensions>
          <ns3:TrackPointExtension>
            <ns3:hr>131</ns3:hr>
          </ns3:TrackPointExtension>
        </extensions>
      </trkpt>
      <trkpt lat="47.5690184533596038818359375" lon="-3.05675427429378032684326171875">
        <ele>1.7999999523162841796875</ele>
        <time>2026-08-15T17:09:33.000Z</time>
        <extensions>
          <ns3:TrackPointExtension>
            <ns3:hr>122</ns3:hr>
          </ns3:TrackPointExtension>
        </extensions>
      </trkpt>
      <trkpt lat="47.569007389247417449951171875" lon="-3.05674974806606769561767578125">
        <ele>1.7999999523162841796875</ele>
        <time>2026-08-15T17:09:34.000Z</time>
        <extensions>
          <ns3:TrackPointExtension>
            <ns3:hr>117</ns3:hr>
          </ns3:TrackPointExtension>
        </extensions>
      </trkpt>
      <trkpt lat="47.5689894519746303558349609375" lon="-3.05675201117992401123046875">
        <ele>1.7999999523162841796875</ele>
        <time>2026-08-15T17:09:35.000Z</time>
        <extensions>
          <ns3:TrackPointExtension>
            <ns3:hr>117</ns3:hr>
          </ns3:TrackPointExtension>
        </extensions>
      </trkpt>
      <trkpt lat="47.5689767114818096160888671875" lon="-3.05674874223768711090087890625">
        <ele>1.60000002384185791015625</ele>
        <time>2026-08-15T17:09:36.000Z</time>
        <extensions>
          <ns3:TrackPointExtension>
            <ns3:hr>119</ns3:hr>
          </ns3:TrackPointExtension>
        </extensions>
      </trkpt>
      <trkpt lat="47.5689629651606082916259765625" lon="-3.05674505420029163360595703125">
        <ele>1.60000002384185791015625</ele>
        <time>2026-08-15T17:09:37.000Z</time>
        <extensions>
          <ns3:TrackPointExtension>
            <ns3:hr>120</ns3:hr>
          </ns3:TrackPointExtension>
        </extensions>
      </trkpt>
      <trkpt lat="47.5689522363245487213134765625" lon="-3.05674798786640167236328125">
        <ele>1.60000002384185791015625</ele>
        <time>2026-08-15T17:09:38.000Z</time>
        <extensions>
          <ns3:TrackPointExtension>
            <ns3:hr>122</ns3:hr>
          </ns3:TrackPointExtension>
        </extensions>
      </trkpt>
      <trkpt lat="47.56893991492688655853271484375" lon="-3.056753687560558319091796875">
        <ele>1.60000002384185791015625</ele>
        <time>2026-08-15T17:09:39.000Z</time>
        <extensions>
          <ns3:TrackPointExtension>
            <ns3:hr>123</ns3:hr>
          </ns3:TrackPointExtension>
        </extensions>
      </trkpt>
      <trkpt lat="47.56892767734825611114501953125" lon="-3.0567620694637298583984375">
        <ele>1.60000002384185791015625</ele>
        <time>2026-08-15T17:09:40.000Z</time>
        <extensions>
          <ns3:TrackPointExtension>
            <ns3:hr>122</ns3:hr>
          </ns3:TrackPointExtension>
        </extensions>
      </trkpt>
      <trkpt lat="47.5689200498163700103759765625" lon="-3.0567635782063007354736328125">
        <ele>1.60000002384185791015625</ele>
        <time>2026-08-15T17:09:41.000Z</time>
        <extensions>
          <ns3:TrackPointExtension>
            <ns3:hr>121</ns3:hr>
          </ns3:TrackPointExtension>
        </extensions>
      </trkpt>
      <trkpt lat="47.56891074590384960174560546875" lon="-3.0567659251391887664794921875">
        <ele>1.60000002384185791015625</ele>
        <time>2026-08-15T17:09:42.000Z</time>
        <extensions>
          <ns3:TrackPointExtension>
            <ns3:hr>120</ns3:hr>
          </ns3:TrackPointExtension>
        </extensions>
      </trkpt>
      <trkpt lat="47.568899095058441162109375" lon="-3.05676315911114215850830078125">
        <ele>1.60000002384185791015625</ele>
        <time>2026-08-15T17:09:43.000Z</time>
        <extensions>
          <ns3:TrackPointExtension>
            <ns3:hr>120</ns3:hr>
          </ns3:TrackPointExtension>
        </extensions>
      </trkpt>
      <trkpt lat="47.56888476200401782989501953125" lon="-3.056761734187602996826171875">
        <ele>1.60000002384185791015625</ele>
        <time>2026-08-15T17:09:44.000Z</time>
        <extensions>
          <ns3:TrackPointExtension>
            <ns3:hr>120</ns3:hr>
          </ns3:TrackPointExtension>
        </extensions>
      </trkpt>
      <trkpt lat="47.56887252442538738250732421875" lon="-3.05675980634987354278564453125">
        <ele>1.39999997615814208984375</ele>
        <time>2026-08-15T17:09:45.000Z</time>
        <extensions>
          <ns3:TrackPointExtension>
            <ns3:hr>119</ns3:hr>
          </ns3:TrackPointExtension>
        </extensions>
      </trkpt>
      <trkpt lat="47.56886221468448638916015625" lon="-3.05675469338893890380859375">
        <ele>1.60000002384185791015625</ele>
        <time>2026-08-15T17:09:46.000Z</time>
        <extensions>
          <ns3:TrackPointExtension>
            <ns3:hr>120</ns3:hr>
          </ns3:TrackPointExtension>
        </extensions>
      </trkpt>
      <trkpt lat="47.56884888745844364166259765625" lon="-3.05675377137959003448486328125">
        <ele>1.60000002384185791015625</ele>
        <time>2026-08-15T17:09:47.000Z</time>
        <extensions>
          <ns3:TrackPointExtension>
            <ns3:hr>120</ns3:hr>
          </ns3:TrackPointExtension>
        </extensions>
      </trkpt>
      <trkpt lat="47.56883463822305202484130859375" lon="-3.056758381426334381103515625">
        <ele>1.60000002384185791015625</ele>
        <time>2026-08-15T17:09:48.000Z</time>
        <extensions>
          <ns3:TrackPointExtension>
            <ns3:hr>119</ns3:hr>
          </ns3:TrackPointExtension>
        </extensions>
      </trkpt>
      <trkpt lat="47.5688253343105316162109375" lon="-3.05675947107374668121337890625">
        <ele>1.60000002384185791015625</ele>
        <time>2026-08-15T17:09:49.000Z</time>
        <extensions>
          <ns3:TrackPointExtension>
            <ns3:hr>120</ns3:hr>
          </ns3:TrackPointExtension>
        </extensions>
      </trkpt>
      <trkpt lat="47.56881619803607463836669921875" lon="-3.05675712414085865020751953125">
        <ele>1.39999997615814208984375</ele>
        <time>2026-08-15T17:09:50.000Z</time>
        <extensions>
          <ns3:TrackPointExtension>
            <ns3:hr>119</ns3:hr>
          </ns3:TrackPointExtension>
        </extensions>
      </trkpt>
      <trkpt lat="47.568807899951934814453125" lon="-3.05675829760730266571044921875">
        <ele>1.39999997615814208984375</ele>
        <time>2026-08-15T17:09:51.000Z</time>
        <extensions>
          <ns3:TrackPointExtension>
            <ns3:hr>118</ns3:hr>
          </ns3:TrackPointExtension>
        </extensions>
      </trkpt>
      <trkpt lat="47.56879507564008235931396484375" lon="-3.0567565374076366424560546875">
        <ele>1.39999997615814208984375</ele>
        <time>2026-08-15T17:09:52.000Z</time>
        <extensions>
          <ns3:TrackPointExtension>
            <ns3:hr>118</ns3:hr>
          </ns3:TrackPointExtension>
        </extensions>
      </trkpt>
      <trkpt lat="47.5687877833843231201171875" lon="-3.05675410665571689605712890625">
        <ele>1.39999997615814208984375</ele>
        <time>2026-08-15T17:09:53.000Z</time>
        <extensions>
          <ns3:TrackPointExtension>
            <ns3:hr>116</ns3:hr>
          </ns3:TrackPointExtension>
        </extensions>
      </trkpt>
      <trkpt lat="47.56878350861370563507080078125" lon="-3.05675377137959003448486328125">
        <ele>1.2000000476837158203125</ele>
        <time>2026-08-15T17:09:54.000Z</time>
        <extensions>
          <ns3:TrackPointExtension>
            <ns3:hr>117</ns3:hr>
          </ns3:TrackPointExtension>
        </extensions>
      </trkpt>
      <trkpt lat="47.5687725283205509185791015625" lon="-3.056751005351543426513671875">
        <ele>1.39999997615814208984375</ele>
        <time>2026-08-15T17:09:55.000Z</time>
        <extensions>
          <ns3:TrackPointExtension>
            <ns3:hr>119</ns3:hr>
          </ns3:TrackPointExtension>
        </extensions>
      </trkpt>
      <trkpt lat="47.5687658227980136871337890625" lon="-3.0567525140941143035888671875">
        <ele>1.2000000476837158203125</ele>
        <time>2026-08-15T17:09:56.000Z</time>
        <extensions>
          <ns3:TrackPointExtension>
            <ns3:hr>122</ns3:hr>
          </ns3:TrackPointExtension>
        </extensions>
      </trkpt>
      <trkpt lat="47.56875635124742984771728515625" lon="-3.0567562021315097808837890625">
        <ele>1.2000000476837158203125</ele>
        <time>2026-08-15T17:09:57.000Z</time>
        <extensions>
          <ns3:TrackPointExtension>
            <ns3:hr>125</ns3:hr>
          </ns3:TrackPointExtension>
        </extensions>
      </trkpt>
      <trkpt lat="47.56874629296362400054931640625" lon="-3.056754358112812042236328125">
        <ele>1.2000000476837158203125</ele>
        <time>2026-08-15T17:09:58.000Z</time>
        <extensions>
          <ns3:TrackPointExtension>
            <ns3:hr>128</ns3:hr>
          </ns3:TrackPointExtension>
        </extensions>
      </trkpt>
      <trkpt lat="47.56873589940369129180908203125" lon="-3.0567555315792560577392578125">
        <ele>1.2000000476837158203125</ele>
        <time>2026-08-15T17:09:59.000Z</time>
        <extensions>
          <ns3:TrackPointExtension>
            <ns3:hr>130</ns3:hr>
          </ns3:TrackPointExtension>
        </extensions>
      </trkpt>
      <trkpt lat="47.56872885860502719879150390625" lon="-3.0567535199224948883056640625">
        <ele>1.2000000476837158203125</ele>
        <time>2026-08-15T17:10:00.000Z</time>
        <extensions>
          <ns3:TrackPointExtension>
            <ns3:hr>132</ns3:hr>
          </ns3:TrackPointExtension>
        </extensions>
      </trkpt>
      <trkpt lat="47.568719051778316497802734375" lon="-3.056755028665065765380859375">
        <ele>1.2000000476837158203125</ele>
        <time>2026-08-15T17:10:01.000Z</time>
        <extensions>
          <ns3:TrackPointExtension>
            <ns3:hr>133</ns3:hr>
          </ns3:TrackPointExtension>
        </extensions>
      </trkpt>
      <trkpt lat="47.56871293298900127410888671875" lon="-3.05675812996923923492431640625">
        <ele>1.2000000476837158203125</ele>
        <time>2026-08-15T17:10:02.000Z</time>
        <extensions>
          <ns3:TrackPointExtension>
            <ns3:hr>134</ns3:hr>
          </ns3:TrackPointExtension>
        </extensions>
      </trkpt>
      <trkpt lat="47.5687037967145442962646484375" lon="-3.05675159208476543426513671875">
        <ele>1.2000000476837158203125</ele>
        <time>2026-08-15T17:10:03.000Z</time>
        <extensions>
          <ns3:TrackPointExtension>
            <ns3:hr>135</ns3:hr>
          </ns3:TrackPointExtension>
        </extensions>
      </trkpt>
      <trkpt lat="47.568694911897182464599609375" lon="-3.05675410665571689605712890625">
        <ele>1.39999997615814208984375</ele>
        <time>2026-08-15T17:10:04.000Z</time>
        <extensions>
          <ns3:TrackPointExtension>
            <ns3:hr>137</ns3:hr>
          </ns3:TrackPointExtension>
        </extensions>
      </trkpt>
      <trkpt lat="47.5686831772327423095703125" lon="-3.05675343610346317291259765625">
        <ele>1.39999997615814208984375</ele>
        <time>2026-08-15T17:10:05.000Z</time>
        <extensions>
          <ns3:TrackPointExtension>
            <ns3:hr>138</ns3:hr>
          </ns3:TrackPointExtension>
        </extensions>
      </trkpt>
      <trkpt lat="47.56867471151053905487060546875" lon="-3.0567541904747486114501953125">
        <ele>1.39999997615814208984375</ele>
        <time>2026-08-15T17:10:06.000Z</time>
        <extensions>
          <ns3:TrackPointExtension>
            <ns3:hr>140</ns3:hr>
          </ns3:TrackPointExtension>
        </extensions>
      </trkpt>
      <trkpt lat="47.56866498850286006927490234375" lon="-3.05675729177892208099365234375">
        <ele>1.39999997615814208984375</ele>
        <time>2026-08-15T17:10:07.000Z</time>
        <extensions>
          <ns3:TrackPointExtension>
            <ns3:hr>141</ns3:hr>
          </ns3:TrackPointExtension>
        </extensions>
      </trkpt>
      <trkpt lat="47.56865476258099079132080078125" lon="-3.056761063635349273681640625">
        <ele>1.39999997615814208984375</ele>
        <time>2026-08-15T17:10:08.000Z</time>
        <extensions>
          <ns3:TrackPointExtension>
            <ns3:hr>141</ns3:hr>
          </ns3:TrackPointExtension>
        </extensions>
      </trkpt>
      <trkpt lat="47.5686411000788211822509765625" lon="-3.0567696131765842437744140625">
        <ele>1.39999997615814208984375</ele>
        <time>2026-08-15T17:10:09.000Z</time>
        <extensions>
          <ns3:TrackPointExtension>
            <ns3:hr>141</ns3:hr>
          </ns3:TrackPointExtension>
        </extensions>
      </trkpt>
      <trkpt lat="47.56863531656563282012939453125" lon="-3.056774139404296875">
        <ele>1.39999997615814208984375</ele>
        <time>2026-08-15T17:10:10.000Z</time>
        <extensions>
          <ns3:TrackPointExtension>
            <ns3:hr>141</ns3:hr>
          </ns3:TrackPointExtension>
        </extensions>
      </trkpt>
      <trkpt lat="47.56862475536763668060302734375" lon="-3.0567759834229946136474609375">
        <ele>1.39999997615814208984375</ele>
        <time>2026-08-15T17:10:11.000Z</time>
        <extensions>
          <ns3:TrackPointExtension>
            <ns3:hr>141</ns3:hr>
          </ns3:TrackPointExtension>
        </extensions>
      </trkpt>
      <trkpt lat="47.56861276924610137939453125" lon="-3.05677824653685092926025390625">
        <ele>1.39999997615814208984375</ele>
        <time>2026-08-15T17:10:12.000Z</time>
        <extensions>
          <ns3:TrackPointExtension>
            <ns3:hr>141</ns3:hr>
          </ns3:TrackPointExtension>
        </extensions>
      </trkpt>
      <trkpt lat="47.56860631518065929412841796875" lon="-3.05677522905170917510986328125">
        <ele>1.39999997615814208984375</ele>
        <time>2026-08-15T17:10:13.000Z</time>
        <extensions>
          <ns3:TrackPointExtension>
            <ns3:hr>141</ns3:hr>
          </ns3:TrackPointExtension>
        </extensions>
      </trkpt>
      <trkpt lat="47.56859743036329746246337890625" lon="-3.0567783303558826446533203125">
        <ele>1.39999997615814208984375</ele>
        <time>2026-08-15T17:10:14.000Z</time>
        <extensions>
          <ns3:TrackPointExtension>
            <ns3:hr>140</ns3:hr>
          </ns3:TrackPointExtension>
        </extensions>
      </trkpt>
      <trkpt lat="47.56858670152723789215087890625" lon="-3.0567716248333454132080078125">
        <ele>1.2000000476837158203125</ele>
        <time>2026-08-15T17:10:15.000Z</time>
        <extensions>
          <ns3:TrackPointExtension>
            <ns3:hr>140</ns3:hr>
          </ns3:TrackPointExtension>
        </extensions>
      </trkpt>
      <trkpt lat="47.5685740448534488677978515625" lon="-3.05676902644336223602294921875">
        <ele>1</ele>
        <time>2026-08-15T17:10:16.000Z</time>
        <extensions>
          <ns3:TrackPointExtension>
            <ns3:hr>140</ns3:hr>
          </ns3:TrackPointExtension>
        </extensions>
      </trkpt>
      <trkpt lat="47.568572200834751129150390625" lon="-3.0567662604153156280517578125">
        <ele>1</ele>
        <time>2026-08-15T17:10:17.000Z</time>
        <extensions>
          <ns3:TrackPointExtension>
            <ns3:hr>140</ns3:hr>
          </ns3:TrackPointExtension>
        </extensions>
      </trkpt>
      <trkpt lat="47.5685626454651355743408203125" lon="-3.0567639134824275970458984375">
        <ele>0.800000011920928955078125</ele>
        <time>2026-08-15T17:10:18.000Z</time>
        <extensions>
          <ns3:TrackPointExtension>
            <ns3:hr>140</ns3:hr>
          </ns3:TrackPointExtension>
        </extensions>
      </trkpt>
      <trkpt lat="47.5685572810471057891845703125" lon="-3.0567672662436962127685546875">
        <ele>0.60000002384185791015625</ele>
        <time>2026-08-15T17:10:19.000Z</time>
        <extensions>
          <ns3:TrackPointExtension>
            <ns3:hr>141</ns3:hr>
          </ns3:TrackPointExtension>
        </extensions>
      </trkpt>
      <trkpt lat="47.5685512460768222808837890625" lon="-3.05676952935755252838134765625">
        <ele>0.60000002384185791015625</ele>
        <time>2026-08-15T17:10:20.000Z</time>
        <extensions>
          <ns3:TrackPointExtension>
            <ns3:hr>141</ns3:hr>
          </ns3:TrackPointExtension>
        </extensions>
      </trkpt>
      <trkpt lat="47.5685388408601284027099609375" lon="-3.05676667951047420501708984375">
        <ele>0.60000002384185791015625</ele>
        <time>2026-08-15T17:10:21.000Z</time>
        <extensions>
          <ns3:TrackPointExtension>
            <ns3:hr>141</ns3:hr>
          </ns3:TrackPointExtension>
        </extensions>
      </trkpt>
      <trkpt lat="47.56852719001471996307373046875" lon="-3.05675779469311237335205078125">
        <ele>0.800000011920928955078125</ele>
        <time>2026-08-15T17:10:22.000Z</time>
        <extensions>
          <ns3:TrackPointExtension>
            <ns3:hr>141</ns3:hr>
          </ns3:TrackPointExtension>
        </extensions>
      </trkpt>
      <trkpt lat="47.56851352751255035400390625" lon="-3.056757040321826934814453125">
        <ele>0.800000011920928955078125</ele>
        <time>2026-08-15T17:10:23.000Z</time>
        <extensions>
          <ns3:TrackPointExtension>
            <ns3:hr>140</ns3:hr>
          </ns3:TrackPointExtension>
        </extensions>
      </trkpt>
      <trkpt lat="47.5684996135532855987548828125" lon="-3.05675108917057514190673828125">
        <ele>1</ele>
        <time>2026-08-15T17:10:24.000Z</time>
        <extensions>
          <ns3:TrackPointExtension>
            <ns3:hr>139</ns3:hr>
          </ns3:TrackPointExtension>
        </extensions>
      </trkpt>
      <trkpt lat="47.568489722907543182373046875" lon="-3.05675142444670200347900390625">
        <ele>1.2000000476837158203125</ele>
        <time>2026-08-15T17:10:25.000Z</time>
        <extensions>
          <ns3:TrackPointExtension>
            <ns3:hr>138</ns3:hr>
          </ns3:TrackPointExtension>
        </extensions>
      </trkpt>
      <trkpt lat="47.568477652966976165771484375" lon="-3.05675310082733631134033203125">
        <ele>1</ele>
        <time>2026-08-15T17:10:26.000Z</time>
        <extensions>
          <ns3:TrackPointExtension>
            <ns3:hr>137</ns3:hr>
          </ns3:TrackPointExtension>
        </extensions>
      </trkpt>
      <trkpt lat="47.5684620626270771026611328125" lon="-3.056753017008304595947265625">
        <ele>1</ele>
        <time>2026-08-15T17:10:27.000Z</time>
        <extensions>
          <ns3:TrackPointExtension>
            <ns3:hr>136</ns3:hr>
          </ns3:TrackPointExtension>
        </extensions>
      </trkpt>
      <trkpt lat="47.5684489868581295013427734375" lon="-3.05675528012216091156005859375">
        <ele>1</ele>
        <time>2026-08-15T17:10:28.000Z</time>
        <extensions>
          <ns3:TrackPointExtension>
            <ns3:hr>136</ns3:hr>
          </ns3:TrackPointExtension>
        </extensions>
      </trkpt>
      <trkpt lat="47.56843750365078449249267578125" lon="-3.05675494484603404998779296875">
        <ele>1</ele>
        <time>2026-08-15T17:10:29.000Z</time>
        <extensions>
          <ns3:TrackPointExtension>
            <ns3:hr>137</ns3:hr>
          </ns3:TrackPointExtension>
        </extensions>
      </trkpt>
      <trkpt lat="47.56842308677732944488525390625" lon="-3.05675175972282886505126953125">
        <ele>0.800000011920928955078125</ele>
        <time>2026-08-15T17:10:30.000Z</time>
        <extensions>
          <ns3:TrackPointExtension>
            <ns3:hr>138</ns3:hr>
          </ns3:TrackPointExtension>
        </extensions>
      </trkpt>
      <trkpt lat="47.5684114359319210052490234375" lon="-3.05674941278994083404541015625">
        <ele>0.800000011920928955078125</ele>
        <time>2026-08-15T17:10:31.000Z</time>
        <extensions>
          <ns3:TrackPointExtension>
            <ns3:hr>138</ns3:hr>
          </ns3:TrackPointExtension>
        </extensions>
      </trkpt>
      <trkpt lat="47.56839710287749767303466796875" lon="-3.05674974806606769561767578125">
        <ele>0.800000011920928955078125</ele>
        <time>2026-08-15T17:10:32.000Z</time>
        <extensions>
          <ns3:TrackPointExtension>
            <ns3:hr>137</ns3:hr>
          </ns3:TrackPointExtension>
        </extensions>
      </trkpt>
      <trkpt lat="47.56838369183242321014404296875" lon="-3.0567474849522113800048828125">
        <ele>0.800000011920928955078125</ele>
        <time>2026-08-15T17:10:33.000Z</time>
        <extensions>
          <ns3:TrackPointExtension>
            <ns3:hr>137</ns3:hr>
          </ns3:TrackPointExtension>
        </extensions>
      </trkpt>
      <trkpt lat="47.56836592219769954681396484375" lon="-3.056740276515483856201171875">
        <ele>0.800000011920928955078125</ele>
        <time>2026-08-15T17:10:34.000Z</time>
        <extensions>
          <ns3:TrackPointExtension>
            <ns3:hr>137</ns3:hr>
          </ns3:TrackPointExtension>
        </extensions>
      </trkpt>
      <trkpt lat="47.568348906934261322021484375" lon="-3.0567370913922786712646484375">
        <ele>1</ele>
        <time>2026-08-15T17:10:35.000Z</time>
        <extensions>
          <ns3:TrackPointExtension>
            <ns3:hr>137</ns3:hr>
          </ns3:TrackPointExtension>
        </extensions>
      </trkpt>
      <trkpt lat="47.568333148956298828125" lon="-3.056736923754215240478515625">
        <ele>1</ele>
        <time>2026-08-15T17:10:36.000Z</time>
        <extensions>
          <ns3:TrackPointExtension>
            <ns3:hr>137</ns3:hr>
          </ns3:TrackPointExtension>
        </extensions>
      </trkpt>
      <trkpt lat="47.5683145411312580108642578125" lon="-3.05673935450613498687744140625">
        <ele>1.2000000476837158203125</ele>
        <time>2026-08-15T17:10:37.000Z</time>
        <extensions>
          <ns3:TrackPointExtension>
            <ns3:hr>137</ns3:hr>
          </ns3:TrackPointExtension>
        </extensions>
      </trkpt>
      <trkpt lat="47.56829014979302883148193359375" lon="-3.056732900440692901611328125">
        <ele>1.2000000476837158203125</ele>
        <time>2026-08-15T17:10:38.000Z</time>
        <extensions>
          <ns3:TrackPointExtension>
            <ns3:hr>137</ns3:hr>
          </ns3:TrackPointExtension>
        </extensions>
      </trkpt>
      <trkpt lat="47.56826768629252910614013671875" lon="-3.05671739391982555389404296875">
        <ele>1.39999997615814208984375</ele>
        <time>2026-08-15T17:10:39.000Z</time>
        <extensions>
          <ns3:TrackPointExtension>
            <ns3:hr>136</ns3:hr>
          </ns3:TrackPointExtension>
        </extensions>
      </trkpt>
      <trkpt lat="47.56824488751590251922607421875" lon="-3.05670063011348247528076171875">
        <ele>1.39999997615814208984375</ele>
        <time>2026-08-15T17:10:40.000Z</time>
        <extensions>
          <ns3:TrackPointExtension>
            <ns3:hr>136</ns3:hr>
          </ns3:TrackPointExtension>
        </extensions>
      </trkpt>
      <trkpt lat="47.56821990944445133209228515625" lon="-3.05668587796390056610107421875">
        <ele>2</ele>
        <time>2026-08-15T17:10:41.000Z</time>
        <extensions>
          <ns3:TrackPointExtension>
            <ns3:hr>136</ns3:hr>
          </ns3:TrackPointExtension>
        </extensions>
      </trkpt>
      <trkpt lat="47.56819342263042926788330078125" lon="-3.05666659958660602569580078125">
        <ele>2.599999904632568359375</ele>
        <time>2026-08-15T17:10:42.000Z</time>
        <extensions>
          <ns3:TrackPointExtension>
            <ns3:hr>136</ns3:hr>
          </ns3:TrackPointExtension>
        </extensions>
      </trkpt>
      <trkpt lat="47.56816157139837741851806640625" lon="-3.0566599778831005096435546875">
        <ele>4.80000019073486328125</ele>
        <time>2026-08-15T17:10:43.000Z</time>
        <extensions>
          <ns3:TrackPointExtension>
            <ns3:hr>137</ns3:hr>
          </ns3:TrackPointExtension>
        </extensions>
      </trkpt>
      <trkpt lat="47.5681306421756744384765625" lon="-3.05666693486273288726806640625">
        <ele>5.400000095367431640625</ele>
        <time>2026-08-15T17:10:44.000Z</time>
        <extensions>
          <ns3:TrackPointExtension>
            <ns3:hr>136</ns3:hr>
          </ns3:TrackPointExtension>
        </extensions>
      </trkpt>
      <trkpt lat="47.56811396218836307525634765625" lon="-3.05667414329946041107177734375">
        <ele>5.80000019073486328125</ele>
        <time>2026-08-15T17:10:45.000Z</time>
        <extensions>
          <ns3:TrackPointExtension>
            <ns3:hr>136</ns3:hr>
          </ns3:TrackPointExtension>
        </extensions>
      </trkpt>
      <trkpt lat="47.56810172460973262786865234375" lon="-3.056673891842365264892578125">
        <ele>5.400000095367431640625</ele>
        <time>2026-08-15T17:10:46.000Z</time>
        <extensions>
          <ns3:TrackPointExtension>
            <ns3:hr>136</ns3:hr>
          </ns3:TrackPointExtension>
        </extensions>
      </trkpt>
      <trkpt lat="47.56808747537434101104736328125" lon="-3.05667146109044551849365234375">
        <ele>5</ele>
        <time>2026-08-15T17:10:47.000Z</time>
        <extensions>
          <ns3:TrackPointExtension>
            <ns3:hr>137</ns3:hr>
          </ns3:TrackPointExtension>
        </extensions>
      </trkpt>
      <trkpt lat="47.56807238794863224029541015625" lon="-3.05667347274720668792724609375">
        <ele>4.19999980926513671875</ele>
        <time>2026-08-15T17:10:48.000Z</time>
        <extensions>
          <ns3:TrackPointExtension>
            <ns3:hr>136</ns3:hr>
          </ns3:TrackPointExtension>
        </extensions>
      </trkpt>
      <trkpt lat="47.56805545650422573089599609375" lon="-3.05667498148977756500244140625">
        <ele>3</ele>
        <time>2026-08-15T17:10:49.000Z</time>
        <extensions>
          <ns3:TrackPointExtension>
            <ns3:hr>136</ns3:hr>
          </ns3:TrackPointExtension>
        </extensions>
      </trkpt>
      <trkpt lat="47.56804372183978557586669921875" lon="-3.05667129345238208770751953125">
        <ele>2.2000000476837158203125</ele>
        <time>2026-08-15T17:10:50.000Z</time>
        <extensions>
          <ns3:TrackPointExtension>
            <ns3:hr>136</ns3:hr>
          </ns3:TrackPointExtension>
        </extensions>
      </trkpt>
      <trkpt lat="47.56802712567150592803955078125" lon="-3.05667364038527011871337890625">
        <ele>1.2000000476837158203125</ele>
        <time>2026-08-15T17:10:51.000Z</time>
        <extensions>
          <ns3:TrackPointExtension>
            <ns3:hr>136</ns3:hr>
          </ns3:TrackPointExtension>
        </extensions>
      </trkpt>
      <trkpt lat="47.56801304407417774200439453125" lon="-3.056669197976589202880859375">
        <ele>0.800000011920928955078125</ele>
        <time>2026-08-15T17:10:52.000Z</time>
        <extensions>
          <ns3:TrackPointExtension>
            <ns3:hr>136</ns3:hr>
          </ns3:TrackPointExtension>
        </extensions>
      </trkpt>
      <trkpt lat="47.56800164468586444854736328125" lon="-3.05667020380496978759765625">
        <ele>0.4000000059604644775390625</ele>
        <time>2026-08-15T17:10:53.000Z</time>
        <extensions>
          <ns3:TrackPointExtension>
            <ns3:hr>134</ns3:hr>
          </ns3:TrackPointExtension>
        </extensions>
      </trkpt>
      <trkpt lat="47.5679869763553142547607421875" lon="-3.05666978470981121063232421875">
        <ele>0.4000000059604644775390625</ele>
        <time>2026-08-15T17:10:54.000Z</time>
        <extensions>
          <ns3:TrackPointExtension>
            <ns3:hr>133</ns3:hr>
          </ns3:TrackPointExtension>
        </extensions>
      </trkpt>
      <trkpt lat="47.5679739005863666534423828125" lon="-3.05666123516857624053955078125">
        <ele>0.4000000059604644775390625</ele>
        <time>2026-08-15T17:10:55.000Z</time>
        <extensions>
          <ns3:TrackPointExtension>
            <ns3:hr>132</ns3:hr>
          </ns3:TrackPointExtension>
        </extensions>
      </trkpt>
      <trkpt lat="47.56795831024646759033203125" lon="-3.05666006170213222503662109375">
        <ele>0.4000000059604644775390625</ele>
        <time>2026-08-15T17:10:56.000Z</time>
        <extensions>
          <ns3:TrackPointExtension>
            <ns3:hr>131</ns3:hr>
          </ns3:TrackPointExtension>
        </extensions>
      </trkpt>
      <trkpt lat="47.56793526001274585723876953125" lon="-3.05665570311248302459716796875">
        <ele>0.60000002384185791015625</ele>
        <time>2026-08-15T17:10:57.000Z</time>
        <extensions>
          <ns3:TrackPointExtension>
            <ns3:hr>130</ns3:hr>
          </ns3:TrackPointExtension>
        </extensions>
      </trkpt>
      <trkpt lat="47.56791883148252964019775390625" lon="-3.0566552840173244476318359375">
        <ele>0.60000002384185791015625</ele>
        <time>2026-08-15T17:10:58.000Z</time>
        <extensions>
          <ns3:TrackPointExtension>
            <ns3:hr>130</ns3:hr>
          </ns3:TrackPointExtension>
        </extensions>
      </trkpt>
      <trkpt lat="47.56790944375097751617431640625" lon="-3.0566562898457050323486328125">
        <ele>0.60000002384185791015625</ele>
        <time>2026-08-15T17:10:59.000Z</time>
        <extensions>
          <ns3:TrackPointExtension>
            <ns3:hr>127</ns3:hr>
          </ns3:TrackPointExtension>
        </extensions>
      </trkpt>
      <trkpt lat="47.567890919744968414306640625" lon="-3.0566536076366901397705078125">
        <ele>0.60000002384185791015625</ele>
        <time>2026-08-15T17:11:00.000Z</time>
        <extensions>
          <ns3:TrackPointExtension>
            <ns3:hr>126</ns3:hr>
          </ns3:TrackPointExtension>
        </extensions>
      </trkpt>
      <trkpt lat="47.5678656063973903656005859375" lon="-3.0566482432186603546142578125">
        <ele>0.800000011920928955078125</ele>
        <time>2026-08-15T17:11:01.000Z</time>
        <extensions>
          <ns3:TrackPointExtension>
            <ns3:hr>127</ns3:hr>
          </ns3:TrackPointExtension>
        </extensions>
      </trkpt>
      <trkpt lat="47.56783585064113140106201171875" lon="-3.0566388554871082305908203125">
        <ele>0.800000011920928955078125</ele>
        <time>2026-08-15T17:11:02.000Z</time>
        <extensions>
          <ns3:TrackPointExtension>
            <ns3:hr>128</ns3:hr>
          </ns3:TrackPointExtension>
        </extensions>
      </trkpt>
      <trkpt lat="47.56780450232326984405517578125" lon="-3.0566214211285114288330078125">
        <ele>1</ele>
        <time>2026-08-15T17:11:03.000Z</time>
        <extensions>
          <ns3:TrackPointExtension>
            <ns3:hr>128</ns3:hr>
          </ns3:TrackPointExtension>
        </extensions>
      </trkpt>
      <trkpt lat="47.56776921451091766357421875" lon="-3.05660608224570751190185546875">
        <ele>1.2000000476837158203125</ele>
        <time>2026-08-15T17:11:04.000Z</time>
        <extensions>
          <ns3:TrackPointExtension>
            <ns3:hr>129</ns3:hr>
          </ns3:TrackPointExtension>
        </extensions>
      </trkpt>
      <trkpt lat="47.567732669413089752197265625" lon="-3.056591413915157318115234375">
        <ele>1.2000000476837158203125</ele>
        <time>2026-08-15T17:11:05.000Z</time>
        <extensions>
          <ns3:TrackPointExtension>
            <ns3:hr>129</ns3:hr>
          </ns3:TrackPointExtension>
        </extensions>
      </trkpt>
      <trkpt lat="47.5676988065242767333984375" lon="-3.0565798468887805938720703125">
        <ele>1.39999997615814208984375</ele>
        <time>2026-08-15T17:11:06.000Z</time>
        <extensions>
          <ns3:TrackPointExtension>
            <ns3:hr>128</ns3:hr>
          </ns3:TrackPointExtension>
        </extensions>
      </trkpt>
      <trkpt lat="47.56765714846551418304443359375" lon="-3.05656819604337215423583984375">
        <ele>1.39999997615814208984375</ele>
        <time>2026-08-15T17:11:07.000Z</time>
        <extensions>
          <ns3:TrackPointExtension>
            <ns3:hr>129</ns3:hr>
          </ns3:TrackPointExtension>
        </extensions>
      </trkpt>
      <trkpt lat="47.56761322729289531707763671875" lon="-3.0565677769482135772705078125">
        <ele>1.60000002384185791015625</ele>
        <time>2026-08-15T17:11:08.000Z</time>
        <extensions>
          <ns3:TrackPointExtension>
            <ns3:hr>129</ns3:hr>
          </ns3:TrackPointExtension>
        </extensions>
      </trkpt>
      <trkpt lat="47.56756980903446674346923828125" lon="-3.05656869895756244659423828125">
        <ele>1.60000002384185791015625</ele>
        <time>2026-08-15T17:11:09.000Z</time>
        <extensions>
          <ns3:TrackPointExtension>
            <ns3:hr>128</ns3:hr>
          </ns3:TrackPointExtension>
        </extensions>
      </trkpt>
      <trkpt lat="47.56752588786184787750244140625" lon="-3.0565781705081462860107421875">
        <ele>1.7999999523162841796875</ele>
        <time>2026-08-15T17:11:10.000Z</time>
        <extensions>
          <ns3:TrackPointExtension>
            <ns3:hr>128</ns3:hr>
          </ns3:TrackPointExtension>
        </extensions>
      </trkpt>
      <trkpt lat="47.56748515181243419647216796875" lon="-3.0565823614597320556640625">
        <ele>2</ele>
        <time>2026-08-15T17:11:11.000Z</time>
        <extensions>
          <ns3:TrackPointExtension>
            <ns3:hr>128</ns3:hr>
          </ns3:TrackPointExtension>
        </extensions>
      </trkpt>
      <trkpt lat="47.56743452511727809906005859375" lon="-3.056596778333187103271484375">
        <ele>2.400000095367431640625</ele>
        <time>2026-08-15T17:11:12.000Z</time>
        <extensions>
          <ns3:TrackPointExtension>
            <ns3:hr>127</ns3:hr>
          </ns3:TrackPointExtension>
        </extensions>
      </trkpt>
      <trkpt lat="47.5673849880695343017578125" lon="-3.05660340003669261932373046875">
        <ele>2.599999904632568359375</ele>
        <time>2026-08-15T17:11:13.000Z</time>
        <extensions>
          <ns3:TrackPointExtension>
            <ns3:hr>126</ns3:hr>
          </ns3:TrackPointExtension>
        </extensions>
      </trkpt>
      <trkpt lat="47.5673358701169490814208984375" lon="-3.0566118657588958740234375">
        <ele>2.599999904632568359375</ele>
        <time>2026-08-15T17:11:14.000Z</time>
        <extensions>
          <ns3:TrackPointExtension>
            <ns3:hr>126</ns3:hr>
          </ns3:TrackPointExtension>
        </extensions>
      </trkpt>
      <trkpt lat="47.567282728850841522216796875" lon="-3.0566241033375263214111328125">
        <ele>2.599999904632568359375</ele>
        <time>2026-08-15T17:11:15.000Z</time>
        <extensions>
          <ns3:TrackPointExtension>
            <ns3:hr>126</ns3:hr>
          </ns3:TrackPointExtension>
        </extensions>
      </trkpt>
      <trkpt lat="47.56723277270793914794921875" lon="-3.05662837810814380645751953125">
        <ele>2.599999904632568359375</ele>
        <time>2026-08-15T17:11:16.000Z</time>
        <extensions>
          <ns3:TrackPointExtension>
            <ns3:hr>127</ns3:hr>
          </ns3:TrackPointExtension>
        </extensions>
      </trkpt>
      <trkpt lat="47.56718507967889308929443359375" lon="-3.05663038976490497589111328125">
        <ele>2.599999904632568359375</ele>
        <time>2026-08-15T17:11:17.000Z</time>
        <extensions>
          <ns3:TrackPointExtension>
            <ns3:hr>127</ns3:hr>
          </ns3:TrackPointExtension>
        </extensions>
      </trkpt>
      <trkpt lat="47.56713294424116611480712890625" lon="-3.05664145387709140777587890625">
        <ele>2.400000095367431640625</ele>
        <time>2026-08-15T17:11:18.000Z</time>
        <extensions>
          <ns3:TrackPointExtension>
            <ns3:hr>127</ns3:hr>
          </ns3:TrackPointExtension>
        </extensions>
      </trkpt>
      <trkpt lat="47.56707728840410709381103515625" lon="-3.05665369145572185516357421875">
        <ele>2.400000095367431640625</ele>
        <time>2026-08-15T17:11:19.000Z</time>
        <extensions>
          <ns3:TrackPointExtension>
            <ns3:hr>127</ns3:hr>
          </ns3:TrackPointExtension>
        </extensions>
      </trkpt>
      <trkpt lat="47.567020542919635772705078125" lon="-3.056672550737857818603515625">
        <ele>2.2000000476837158203125</ele>
        <time>2026-08-15T17:11:20.000Z</time>
        <extensions>
          <ns3:TrackPointExtension>
            <ns3:hr>127</ns3:hr>
          </ns3:TrackPointExtension>
        </extensions>
      </trkpt>
      <trkpt lat="47.5669680722057819366455078125" lon="-3.0566811002790927886962890625">
        <ele>2.2000000476837158203125</ele>
        <time>2026-08-15T17:11:21.000Z</time>
        <extensions>
          <ns3:TrackPointExtension>
            <ns3:hr>126</ns3:hr>
          </ns3:TrackPointExtension>
        </extensions>
      </trkpt>
      <trkpt lat="47.5669207982718944549560546875" lon="-3.05667481385171413421630859375">
        <ele>2.2000000476837158203125</ele>
        <time>2026-08-15T17:11:22.000Z</time>
        <extensions>
          <ns3:TrackPointExtension>
            <ns3:hr>127</ns3:hr>
          </ns3:TrackPointExtension>
        </extensions>
      </trkpt>
      <trkpt lat="47.5668688304722309112548828125" lon="-3.0566730536520481109619140625">
        <ele>2.2000000476837158203125</ele>
        <time>2026-08-15T17:11:23.000Z</time>
        <extensions>
          <ns3:TrackPointExtension>
            <ns3:hr>129</ns3:hr>
          </ns3:TrackPointExtension>
        </extensions>
      </trkpt>
      <trkpt lat="47.56682096980512142181396484375" lon="-3.0566660128533840179443359375">
        <ele>2.2000000476837158203125</ele>
        <time>2026-08-15T17:11:24.000Z</time>
        <extensions>
          <ns3:TrackPointExtension>
            <ns3:hr>130</ns3:hr>
          </ns3:TrackPointExtension>
        </extensions>
      </trkpt>
      <trkpt lat="47.56676514632999897003173828125" lon="-3.0566636659204959869384765625">
        <ele>2.400000095367431640625</ele>
        <time>2026-08-15T17:11:25.000Z</time>
        <extensions>
          <ns3:TrackPointExtension>
            <ns3:hr>131</ns3:hr>
          </ns3:TrackPointExtension>
        </extensions>
      </trkpt>
      <trkpt lat="47.566715441644191741943359375" lon="-3.05666022934019565582275390625">
        <ele>2.7999999523162841796875</ele>
        <time>2026-08-15T17:11:26.000Z</time>
        <extensions>
          <ns3:TrackPointExtension>
            <ns3:hr>133</ns3:hr>
          </ns3:TrackPointExtension>
        </extensions>
      </trkpt>
      <trkpt lat="47.5666646473109722137451171875" lon="-3.0566547811031341552734375">
        <ele>2.7999999523162841796875</ele>
        <time>2026-08-15T17:11:27.000Z</time>
        <extensions>
          <ns3:TrackPointExtension>
            <ns3:hr>133</ns3:hr>
          </ns3:TrackPointExtension>
        </extensions>
      </trkpt>
      <trkpt lat="47.566610164940357208251953125" lon="-3.05665251798927783966064453125">
        <ele>3</ele>
        <time>2026-08-15T17:11:28.000Z</time>
        <extensions>
          <ns3:TrackPointExtension>
            <ns3:hr>135</ns3:hr>
          </ns3:TrackPointExtension>
        </extensions>
      </trkpt>
      <trkpt lat="47.56656222045421600341796875" lon="-3.0566532723605632781982421875">
        <ele>3</ele>
        <time>2026-08-15T17:11:29.000Z</time>
        <extensions>
          <ns3:TrackPointExtension>
            <ns3:hr>136</ns3:hr>
          </ns3:TrackPointExtension>
        </extensions>
      </trkpt>
      <trkpt lat="47.5665164552628993988037109375" lon="-3.0566512607038021087646484375">
        <ele>2.7999999523162841796875</ele>
        <time>2026-08-15T17:11:30.000Z</time>
        <extensions>
          <ns3:TrackPointExtension>
            <ns3:hr>137</ns3:hr>
          </ns3:TrackPointExtension>
        </extensions>
      </trkpt>
      <trkpt lat="47.56646859459578990936279296875" lon="-3.05664874613285064697265625">
        <ele>2.7999999523162841796875</ele>
        <time>2026-08-15T17:11:31.000Z</time>
        <extensions>
          <ns3:TrackPointExtension>
            <ns3:hr>138</ns3:hr>
          </ns3:TrackPointExtension>
        </extensions>
      </trkpt>
      <trkpt lat="47.56642098538577556610107421875" lon="-3.05665075778961181640625">
        <ele>3</ele>
        <time>2026-08-15T17:11:32.000Z</time>
        <extensions>
          <ns3:TrackPointExtension>
            <ns3:hr>139</ns3:hr>
          </ns3:TrackPointExtension>
        </extensions>
      </trkpt>
      <trkpt lat="47.56637446582317352294921875" lon="-3.05664765648543834686279296875">
        <ele>3</ele>
        <time>2026-08-15T17:11:33.000Z</time>
        <extensions>
          <ns3:TrackPointExtension>
            <ns3:hr>137</ns3:hr>
          </ns3:TrackPointExtension>
        </extensions>
      </trkpt>
      <trkpt lat="47.5663300417363643646240234375" lon="-3.05663399398326873779296875">
        <ele>2.7999999523162841796875</ele>
        <time>2026-08-15T17:11:34.000Z</time>
        <extensions>
          <ns3:TrackPointExtension>
            <ns3:hr>136</ns3:hr>
          </ns3:TrackPointExtension>
        </extensions>
      </trkpt>
      <trkpt lat="47.56628469564020633697509765625" lon="-3.05662049911916255950927734375">
        <ele>2.7999999523162841796875</ele>
        <time>2026-08-15T17:11:35.000Z</time>
        <extensions>
          <ns3:TrackPointExtension>
            <ns3:hr>136</ns3:hr>
          </ns3:TrackPointExtension>
        </extensions>
      </trkpt>
      <trkpt lat="47.56623306311666965484619140625" lon="-3.0566123686730861663818359375">
        <ele>2.7999999523162841796875</ele>
        <time>2026-08-15T17:11:36.000Z</time>
        <extensions>
          <ns3:TrackPointExtension>
            <ns3:hr>137</ns3:hr>
          </ns3:TrackPointExtension>
        </extensions>
      </trkpt>
      <trkpt lat="47.566179335117340087890625" lon="-3.0566147156059741973876953125">
        <ele>2.7999999523162841796875</ele>
        <time>2026-08-15T17:11:37.000Z</time>
        <extensions>
          <ns3:TrackPointExtension>
            <ns3:hr>139</ns3:hr>
          </ns3:TrackPointExtension>
        </extensions>
      </trkpt>
      <trkpt lat="47.56613248027861118316650390625" lon="-3.0566220916807651519775390625">
        <ele>2.599999904632568359375</ele>
        <time>2026-08-15T17:11:38.000Z</time>
        <extensions>
          <ns3:TrackPointExtension>
            <ns3:hr>142</ns3:hr>
          </ns3:TrackPointExtension>
        </extensions>
      </trkpt>
      <trkpt lat="47.56608654744923114776611328125" lon="-3.056635670363903045654296875">
        <ele>2.7999999523162841796875</ele>
        <time>2026-08-15T17:11:39.000Z</time>
        <extensions>
          <ns3:TrackPointExtension>
            <ns3:hr>146</ns3:hr>
          </ns3:TrackPointExtension>
        </extensions>
      </trkpt>
      <trkpt lat="47.56603960879147052764892578125" lon="-3.0566442199051380157470703125">
        <ele>3</ele>
        <time>2026-08-15T17:11:40.000Z</time>
        <extensions>
          <ns3:TrackPointExtension>
            <ns3:hr>148</ns3:hr>
          </ns3:TrackPointExtension>
        </extensions>
      </trkpt>
      <trkpt lat="47.56599132902920246124267578125" lon="-3.05663692764937877655029296875">
        <ele>3</ele>
        <time>2026-08-15T17:11:41.000Z</time>
        <extensions>
          <ns3:TrackPointExtension>
            <ns3:hr>152</ns3:hr>
          </ns3:TrackPointExtension>
        </extensions>
      </trkpt>
      <trkpt lat="47.56594388745725154876708984375" lon="-3.056633658707141876220703125">
        <ele>3</ele>
        <time>2026-08-15T17:11:42.000Z</time>
        <extensions>
          <ns3:TrackPointExtension>
            <ns3:hr>154</ns3:hr>
          </ns3:TrackPointExtension>
        </extensions>
      </trkpt>
      <trkpt lat="47.56589292548596858978271484375" lon="-3.05663256905972957611083984375">
        <ele>2.7999999523162841796875</ele>
        <time>2026-08-15T17:11:43.000Z</time>
        <extensions>
          <ns3:TrackPointExtension>
            <ns3:hr>156</ns3:hr>
          </ns3:TrackPointExtension>
        </extensions>
      </trkpt>
      <trkpt lat="47.565848417580127716064453125" lon="-3.05662988685071468353271484375">
        <ele>2.599999904632568359375</ele>
        <time>2026-08-15T17:11:44.000Z</time>
        <extensions>
          <ns3:TrackPointExtension>
            <ns3:hr>156</ns3:hr>
          </ns3:TrackPointExtension>
        </extensions>
      </trkpt>
      <trkpt lat="47.5658026523888111114501953125" lon="-3.05662653408944606781005859375">
        <ele>2.599999904632568359375</ele>
        <time>2026-08-15T17:11:45.000Z</time>
        <extensions>
          <ns3:TrackPointExtension>
            <ns3:hr>157</ns3:hr>
          </ns3:TrackPointExtension>
        </extensions>
      </trkpt>
      <trkpt lat="47.5657557137310504913330078125" lon="-3.056623935699462890625">
        <ele>2.7999999523162841796875</ele>
        <time>2026-08-15T17:11:46.000Z</time>
        <extensions>
          <ns3:TrackPointExtension>
            <ns3:hr>156</ns3:hr>
          </ns3:TrackPointExtension>
        </extensions>
      </trkpt>
      <trkpt lat="47.56571036763489246368408203125" lon="-3.05662192404270172119140625">
        <ele>2.7999999523162841796875</ele>
        <time>2026-08-15T17:11:47.000Z</time>
        <extensions>
          <ns3:TrackPointExtension>
            <ns3:hr>156</ns3:hr>
          </ns3:TrackPointExtension>
        </extensions>
      </trkpt>
      <trkpt lat="47.56566292606294155120849609375" lon="-3.05661245249211788177490234375">
        <ele>2.7999999523162841796875</ele>
        <time>2026-08-15T17:11:48.000Z</time>
        <extensions>
          <ns3:TrackPointExtension>
            <ns3:hr>156</ns3:hr>
          </ns3:TrackPointExtension>
        </extensions>
      </trkpt>
      <trkpt lat="47.565618418157100677490234375" lon="-3.0566090159118175506591796875">
        <ele>2.599999904632568359375</ele>
        <time>2026-08-15T17:11:49.000Z</time>
        <extensions>
          <ns3:TrackPointExtension>
            <ns3:hr>155</ns3:hr>
          </ns3:TrackPointExtension>
        </extensions>
      </trkpt>
      <trkpt lat="47.565574161708354949951171875" lon="-3.05660055018961429595947265625">
        <ele>2.599999904632568359375</ele>
        <time>2026-08-15T17:11:50.000Z</time>
        <extensions>
          <ns3:TrackPointExtension>
            <ns3:hr>154</ns3:hr>
          </ns3:TrackPointExtension>
        </extensions>
      </trkpt>
      <trkpt lat="47.5655324198305606842041015625" lon="-3.05658814497292041778564453125">
        <ele>2.400000095367431640625</ele>
        <time>2026-08-15T17:11:51.000Z</time>
        <extensions>
          <ns3:TrackPointExtension>
            <ns3:hr>153</ns3:hr>
          </ns3:TrackPointExtension>
        </extensions>
      </trkpt>
      <trkpt lat="47.56548590026795864105224609375" lon="-3.05657456628978252410888671875">
        <ele>2.400000095367431640625</ele>
        <time>2026-08-15T17:11:52.000Z</time>
        <extensions>
          <ns3:TrackPointExtension>
            <ns3:hr>152</ns3:hr>
          </ns3:TrackPointExtension>
        </extensions>
      </trkpt>
      <trkpt lat="47.5654408894479274749755859375" lon="-3.0565604008734226226806640625">
        <ele>2.400000095367431640625</ele>
        <time>2026-08-15T17:11:53.000Z</time>
        <extensions>
          <ns3:TrackPointExtension>
            <ns3:hr>152</ns3:hr>
          </ns3:TrackPointExtension>
        </extensions>
      </trkpt>
      <trkpt lat="47.56539034657180309295654296875" lon="-3.05655419826507568359375">
        <ele>2.599999904632568359375</ele>
        <time>2026-08-15T17:11:54.000Z</time>
        <extensions>
          <ns3:TrackPointExtension>
            <ns3:hr>152</ns3:hr>
          </ns3:TrackPointExtension>
        </extensions>
      </trkpt>
      <trkpt lat="47.5653419829905033111572265625" lon="-3.05655444972217082977294921875">
        <ele>2.7999999523162841796875</ele>
        <time>2026-08-15T17:11:55.000Z</time>
        <extensions>
          <ns3:TrackPointExtension>
            <ns3:hr>151</ns3:hr>
          </ns3:TrackPointExtension>
        </extensions>
      </trkpt>
      <trkpt lat="47.565289847552776336669921875" lon="-3.05655084550380706787109375">
        <ele>3</ele>
        <time>2026-08-15T17:11:56.000Z</time>
        <extensions>
          <ns3:TrackPointExtension>
            <ns3:hr>150</ns3:hr>
          </ns3:TrackPointExtension>
        </extensions>
      </trkpt>
      <trkpt lat="47.5652383826673030853271484375" lon="-3.05654556490480899810791015625">
        <ele>2.7999999523162841796875</ele>
        <time>2026-08-15T17:11:57.000Z</time>
        <extensions>
          <ns3:TrackPointExtension>
            <ns3:hr>149</ns3:hr>
          </ns3:TrackPointExtension>
        </extensions>
      </trkpt>
      <trkpt lat="47.56517912261188030242919921875" lon="-3.05654422380030155181884765625">
        <ele>2.7999999523162841796875</ele>
        <time>2026-08-15T17:11:58.000Z</time>
        <extensions>
          <ns3:TrackPointExtension>
            <ns3:hr>149</ns3:hr>
          </ns3:TrackPointExtension>
        </extensions>
      </trkpt>
      <trkpt lat="47.5651207007467746734619140625" lon="-3.05654137395322322845458984375">
        <ele>2.7999999523162841796875</ele>
        <time>2026-08-15T17:11:59.000Z</time>
        <extensions>
          <ns3:TrackPointExtension>
            <ns3:hr>148</ns3:hr>
          </ns3:TrackPointExtension>
        </extensions>
      </trkpt>
      <trkpt lat="47.56507367826998233795166015625" lon="-3.05653751827776432037353515625">
        <ele>2.7999999523162841796875</ele>
        <time>2026-08-15T17:12:00.000Z</time>
        <extensions>
          <ns3:TrackPointExtension>
            <ns3:hr>147</ns3:hr>
          </ns3:TrackPointExtension>
        </extensions>
      </trkpt>
      <trkpt lat="47.565026991069316864013671875" lon="-3.05653215385973453521728515625">
        <ele>2.599999904632568359375</ele>
        <time>2026-08-15T17:12:01.000Z</time>
        <extensions>
          <ns3:TrackPointExtension>
            <ns3:hr>146</ns3:hr>
          </ns3:TrackPointExtension>
        </extensions>
      </trkpt>
      <trkpt lat="47.5649790465831756591796875" lon="-3.05652561597526073455810546875">
        <ele>2.599999904632568359375</ele>
        <time>2026-08-15T17:12:02.000Z</time>
        <extensions>
          <ns3:TrackPointExtension>
            <ns3:hr>145</ns3:hr>
          </ns3:TrackPointExtension>
        </extensions>
      </trkpt>
      <trkpt lat="47.56493604741990566253662109375" lon="-3.0565111152827739715576171875">
        <ele>2.7999999523162841796875</ele>
        <time>2026-08-15T17:12:03.000Z</time>
        <extensions>
          <ns3:TrackPointExtension>
            <ns3:hr>143</ns3:hr>
          </ns3:TrackPointExtension>
        </extensions>
      </trkpt>
      <trkpt lat="47.5648886896669864654541015625" lon="-3.05649007670581340789794921875">
        <ele>3</ele>
        <time>2026-08-15T17:12:04.000Z</time>
        <extensions>
          <ns3:TrackPointExtension>
            <ns3:hr>143</ns3:hr>
          </ns3:TrackPointExtension>
        </extensions>
      </trkpt>
      <trkpt lat="47.56483663804829120635986328125" lon="-3.0564839579164981842041015625">
        <ele>2.7999999523162841796875</ele>
        <time>2026-08-15T17:12:05.000Z</time>
        <extensions>
          <ns3:TrackPointExtension>
            <ns3:hr>142</ns3:hr>
          </ns3:TrackPointExtension>
        </extensions>
      </trkpt>
      <trkpt lat="47.5647911243140697479248046875" lon="-3.0564782582223415374755859375">
        <ele>2.599999904632568359375</ele>
        <time>2026-08-15T17:12:06.000Z</time>
        <extensions>
          <ns3:TrackPointExtension>
            <ns3:hr>142</ns3:hr>
          </ns3:TrackPointExtension>
        </extensions>
      </trkpt>
      <trkpt lat="47.5647478736937046051025390625" lon="-3.0564759112894535064697265625">
        <ele>2.7999999523162841796875</ele>
        <time>2026-08-15T17:12:07.000Z</time>
        <extensions>
          <ns3:TrackPointExtension>
            <ns3:hr>142</ns3:hr>
          </ns3:TrackPointExtension>
        </extensions>
      </trkpt>
      <trkpt lat="47.5647000968456268310546875" lon="-3.05647783912718296051025390625">
        <ele>2.7999999523162841796875</ele>
        <time>2026-08-15T17:12:08.000Z</time>
        <extensions>
          <ns3:TrackPointExtension>
            <ns3:hr>142</ns3:hr>
          </ns3:TrackPointExtension>
        </extensions>
      </trkpt>
      <trkpt lat="47.56465709768235683441162109375" lon="-3.05648253299295902252197265625">
        <ele>2.599999904632568359375</ele>
        <time>2026-08-15T17:12:09.000Z</time>
        <extensions>
          <ns3:TrackPointExtension>
            <ns3:hr>141</ns3:hr>
          </ns3:TrackPointExtension>
        </extensions>
      </trkpt>
      <trkpt lat="47.56461669690907001495361328125" lon="-3.05647800676524639129638671875">
        <ele>2.599999904632568359375</ele>
        <time>2026-08-15T17:12:10.000Z</time>
        <extensions>
          <ns3:TrackPointExtension>
            <ns3:hr>141</ns3:hr>
          </ns3:TrackPointExtension>
        </extensions>
      </trkpt>
      <trkpt lat="47.56457160227000713348388671875" lon="-3.056470714509487152099609375">
        <ele>2.599999904632568359375</ele>
        <time>2026-08-15T17:12:11.000Z</time>
        <extensions>
          <ns3:TrackPointExtension>
            <ns3:hr>141</ns3:hr>
          </ns3:TrackPointExtension>
        </extensions>
      </trkpt>
      <trkpt lat="47.56452265195548534393310546875" lon="-3.05646576918661594390869140625">
        <ele>2.599999904632568359375</ele>
        <time>2026-08-15T17:12:12.000Z</time>
        <extensions>
          <ns3:TrackPointExtension>
            <ns3:hr>140</ns3:hr>
          </ns3:TrackPointExtension>
        </extensions>
      </trkpt>
      <trkpt lat="47.5644773058593273162841796875" lon="-3.056460656225681304931640625">
        <ele>2.599999904632568359375</ele>
        <time>2026-08-15T17:12:13.000Z</time>
        <extensions>
          <ns3:TrackPointExtension>
            <ns3:hr>140</ns3:hr>
          </ns3:TrackPointExtension>
        </extensions>
      </trkpt>
      <trkpt lat="47.56443388760089874267578125" lon="-3.05645696818828582763671875">
        <ele>2.599999904632568359375</ele>
        <time>2026-08-15T17:12:14.000Z</time>
        <extensions>
          <ns3:TrackPointExtension>
            <ns3:hr>140</ns3:hr>
          </ns3:TrackPointExtension>
        </extensions>
      </trkpt>
      <trkpt lat="47.5643834285438060760498046875" lon="-3.056448586285114288330078125">
        <ele>2.7999999523162841796875</ele>
        <time>2026-08-15T17:12:15.000Z</time>
        <extensions>
          <ns3:TrackPointExtension>
            <ns3:hr>140</ns3:hr>
          </ns3:TrackPointExtension>
        </extensions>
      </trkpt>
      <trkpt lat="47.5643334724009037017822265625" lon="-3.05644095875322818756103515625">
        <ele>2.7999999523162841796875</ele>
        <time>2026-08-15T17:12:16.000Z</time>
        <extensions>
          <ns3:TrackPointExtension>
            <ns3:hr>140</ns3:hr>
          </ns3:TrackPointExtension>
        </extensions>
      </trkpt>
      <trkpt lat="47.56428544409573078155517578125" lon="-3.0564266256988048553466796875">
        <ele>2.7999999523162841796875</ele>
        <time>2026-08-15T17:12:17.000Z</time>
        <extensions>
          <ns3:TrackPointExtension>
            <ns3:hr>140</ns3:hr>
          </ns3:TrackPointExtension>
        </extensions>
      </trkpt>
      <trkpt lat="47.56423766724765300750732421875" lon="-3.05641732178628444671630859375">
        <ele>2.7999999523162841796875</ele>
        <time>2026-08-15T17:12:18.000Z</time>
        <extensions>
          <ns3:TrackPointExtension>
            <ns3:hr>140</ns3:hr>
          </ns3:TrackPointExtension>
        </extensions>
      </trkpt>
      <trkpt lat="47.56419274024665355682373046875" lon="-3.0564169026911258697509765625">
        <ele>2.7999999523162841796875</ele>
        <time>2026-08-15T17:12:19.000Z</time>
        <extensions>
          <ns3:TrackPointExtension>
            <ns3:hr>140</ns3:hr>
          </ns3:TrackPointExtension>
        </extensions>
      </trkpt>
      <trkpt lat="47.56414395757019519805908203125" lon="-3.05641128681600093841552734375">
        <ele>2.7999999523162841796875</ele>
        <time>2026-08-15T17:12:20.000Z</time>
        <extensions>
          <ns3:TrackPointExtension>
            <ns3:hr>140</ns3:hr>
          </ns3:TrackPointExtension>
        </extensions>
      </trkpt>
      <trkpt lat="47.5640974380075931549072265625" lon="-3.05640692822635173797607421875">
        <ele>3</ele>
        <time>2026-08-15T17:12:21.000Z</time>
        <extensions>
          <ns3:TrackPointExtension>
            <ns3:hr>139</ns3:hr>
          </ns3:TrackPointExtension>
        </extensions>
      </trkpt>
      <trkpt lat="47.56405343301594257354736328125" lon="-3.05640324018895626068115234375">
        <ele>2.7999999523162841796875</ele>
        <time>2026-08-15T17:12:22.000Z</time>
        <extensions>
          <ns3:TrackPointExtension>
            <ns3:hr>139</ns3:hr>
          </ns3:TrackPointExtension>
        </extensions>
      </trkpt>
      <trkpt lat="47.56400481797754764556884765625" lon="-3.05639888159930706024169921875">
        <ele>3</ele>
        <time>2026-08-15T17:12:23.000Z</time>
        <extensions>
          <ns3:TrackPointExtension>
            <ns3:hr>138</ns3:hr>
          </ns3:TrackPointExtension>
        </extensions>
      </trkpt>
      <trkpt lat="47.5639562867581844329833984375" lon="-3.0563914217054843902587890625">
        <ele>3</ele>
        <time>2026-08-15T17:12:24.000Z</time>
        <extensions>
          <ns3:TrackPointExtension>
            <ns3:hr>138</ns3:hr>
          </ns3:TrackPointExtension>
        </extensions>
      </trkpt>
      <trkpt lat="47.56390389986336231231689453125" lon="-3.0563850514590740203857421875">
        <ele>2.7999999523162841796875</ele>
        <time>2026-08-15T17:12:25.000Z</time>
        <extensions>
          <ns3:TrackPointExtension>
            <ns3:hr>138</ns3:hr>
          </ns3:TrackPointExtension>
        </extensions>
      </trkpt>
      <trkpt lat="47.563855536282062530517578125" lon="-3.05637004785239696502685546875">
        <ele>2.599999904632568359375</ele>
        <time>2026-08-15T17:12:26.000Z</time>
        <extensions>
          <ns3:TrackPointExtension>
            <ns3:hr>137</ns3:hr>
          </ns3:TrackPointExtension>
        </extensions>
      </trkpt>
      <trkpt lat="47.56381253711879253387451171875" lon="-3.056357391178607940673828125">
        <ele>2.599999904632568359375</ele>
        <time>2026-08-15T17:12:27.000Z</time>
        <extensions>
          <ns3:TrackPointExtension>
            <ns3:hr>137</ns3:hr>
          </ns3:TrackPointExtension>
        </extensions>
      </trkpt>
      <trkpt lat="47.5637705437839031219482421875" lon="-3.05636267177760601043701171875">
        <ele>2.400000095367431640625</ele>
        <time>2026-08-15T17:12:28.000Z</time>
        <extensions>
          <ns3:TrackPointExtension>
            <ns3:hr>136</ns3:hr>
          </ns3:TrackPointExtension>
        </extensions>
      </trkpt>
      <trkpt lat="47.5637313164770603179931640625" lon="-3.056370131671428680419921875">
        <ele>2.400000095367431640625</ele>
        <time>2026-08-15T17:12:29.000Z</time>
        <extensions>
          <ns3:TrackPointExtension>
            <ns3:hr>136</ns3:hr>
          </ns3:TrackPointExtension>
        </extensions>
      </trkpt>
      <trkpt lat="47.56369921378791332244873046875" lon="-3.056367449462413787841796875">
        <ele>2.400000095367431640625</ele>
        <time>2026-08-15T17:12:30.000Z</time>
        <extensions>
          <ns3:TrackPointExtension>
            <ns3:hr>135</ns3:hr>
          </ns3:TrackPointExtension>
        </extensions>
      </trkpt>
      <trkpt lat="47.56368110887706279754638671875" lon="-3.056356050074100494384765625">
        <ele>2.2000000476837158203125</ele>
        <time>2026-08-15T17:12:31.000Z</time>
        <extensions>
          <ns3:TrackPointExtension>
            <ns3:hr>135</ns3:hr>
          </ns3:TrackPointExtension>
        </extensions>
      </trkpt>
      <trkpt lat="47.56366820074617862701416015625" lon="-3.05634724907577037811279296875">
        <ele>2</ele>
        <time>2026-08-15T17:12:32.000Z</time>
        <extensions>
          <ns3:TrackPointExtension>
            <ns3:hr>135</ns3:hr>
          </ns3:TrackPointExtension>
        </extensions>
      </trkpt>
      <trkpt lat="47.5636692903935909271240234375" lon="-3.05635102093219757080078125">
        <ele>1.7999999523162841796875</ele>
        <time>2026-08-15T17:12:33.000Z</time>
        <extensions>
          <ns3:TrackPointExtension>
            <ns3:hr>135</ns3:hr>
          </ns3:TrackPointExtension>
        </extensions>
      </trkpt>
      <trkpt lat="47.56367146968841552734375" lon="-3.0563565529882907867431640625">
        <ele>-6.400000095367431640625</ele>
        <time>2026-08-15T17:12:34.000Z</time>
        <extensions>
          <ns3:TrackPointExtension>
            <ns3:hr>135</ns3:hr>
          </ns3:TrackPointExtension>
        </extensions>
      </trkpt>
      <trkpt lat="47.56367490626871585845947265625" lon="-3.0563599057495594024658203125">
        <ele>-14.6000003814697265625</ele>
        <time>2026-08-15T17:12:35.000Z</time>
        <extensions>
          <ns3:TrackPointExtension>
            <ns3:hr>136</ns3:hr>
          </ns3:TrackPointExtension>
        </extensions>
      </trkpt>
      <trkpt lat="47.563677839934825897216796875" lon="-3.05636334232985973358154296875">
        <ele>-22.799999237060546875</ele>
        <time>2026-08-15T17:12:36.000Z</time>
        <extensions>
          <ns3:TrackPointExtension>
            <ns3:hr>136</ns3:hr>
          </ns3:TrackPointExtension>
        </extensions>
      </trkpt>
      <trkpt lat="47.56367993541061878204345703125" lon="-3.0563656054437160491943359375">
        <ele>-31</ele>
        <time>2026-08-15T17:12:37.000Z</time>
        <extensions>
          <ns3:TrackPointExtension>
            <ns3:hr>136</ns3:hr>
          </ns3:TrackPointExtension>
        </extensions>
      </trkpt>
      <trkpt lat="47.56367892958223819732666015625" lon="-3.05637792684137821197509765625">
        <ele>-42.799999237060546875</ele>
        <time>2026-08-15T17:12:44.000Z</time>
        <extensions>
          <ns3:TrackPointExtension>
            <ns3:hr>133</ns3:hr>
          </ns3:TrackPointExtension>
        </extensions>
      </trkpt>
      <trkpt lat="47.56367188878357410430908203125" lon="-3.05638329125940799713134765625">
        <ele>-35.200000762939453125</ele>
        <time>2026-08-15T17:12:45.000Z</time>
        <extensions>
          <ns3:TrackPointExtension>
            <ns3:hr>133</ns3:hr>
          </ns3:TrackPointExtension>
        </extensions>
      </trkpt>
      <trkpt lat="47.56371128372848033905029296875" lon="-3.05643525905907154083251953125">
        <ele>3.599999904632568359375</ele>
        <time>2026-08-15T17:12:51.000Z</time>
        <extensions>
          <ns3:TrackPointExtension>
            <ns3:hr>135</ns3:hr>
          </ns3:TrackPointExtension>
        </extensions>
      </trkpt>
      <trkpt lat="47.563695609569549560546875" lon="-3.05637842975556850433349609375">
        <ele>3</ele>
        <time>2026-08-15T17:12:52.000Z</time>
        <extensions>
          <ns3:TrackPointExtension>
            <ns3:hr>135</ns3:hr>
          </ns3:TrackPointExtension>
        </extensions>
      </trkpt>
      <trkpt lat="47.5637023150920867919921875" lon="-3.056380189955234527587890625">
        <ele>2.599999904632568359375</ele>
        <time>2026-08-15T17:12:53.000Z</time>
        <extensions>
          <ns3:TrackPointExtension>
            <ns3:hr>135</ns3:hr>
          </ns3:TrackPointExtension>
        </extensions>
      </trkpt>
      <trkpt lat="47.563687227666378021240234375" lon="-3.0563431419432163238525390625">
        <ele>2.400000095367431640625</ele>
        <time>2026-08-15T17:12:54.000Z</time>
        <extensions>
          <ns3:TrackPointExtension>
            <ns3:hr>134</ns3:hr>
          </ns3:TrackPointExtension>
        </extensions>
      </trkpt>
      <trkpt lat="47.56368831731379032135009765625" lon="-3.05633333511650562286376953125">
        <ele>2</ele>
        <time>2026-08-15T17:12:55.000Z</time>
        <extensions>
          <ns3:TrackPointExtension>
            <ns3:hr>133</ns3:hr>
          </ns3:TrackPointExtension>
        </extensions>
      </trkpt>
      <trkpt lat="47.56369351409375667572021484375" lon="-3.0563267134130001068115234375">
        <ele>1.7999999523162841796875</ele>
        <time>2026-08-15T17:12:56.000Z</time>
        <extensions>
          <ns3:TrackPointExtension>
            <ns3:hr>133</ns3:hr>
          </ns3:TrackPointExtension>
        </extensions>
      </trkpt>
      <trkpt lat="47.5636994652450084686279296875" lon="-3.05631749331951141357421875">
        <ele>1.39999997615814208984375</ele>
        <time>2026-08-15T17:12:57.000Z</time>
        <extensions>
          <ns3:TrackPointExtension>
            <ns3:hr>132</ns3:hr>
          </ns3:TrackPointExtension>
        </extensions>
      </trkpt>
      <trkpt lat="47.5636994652450084686279296875" lon="-3.05631749331951141357421875">
        <ele>1.2000000476837158203125</ele>
        <time>2026-08-15T17:12:58.000Z</time>
        <extensions>
          <ns3:TrackPointExtension>
            <ns3:hr>130</ns3:hr>
          </ns3:TrackPointExtension>
        </extensions>
      </trkpt>
      <trkpt lat="47.56370441056787967681884765625" lon="-3.0563129670917987823486328125">
        <ele>1</ele>
        <time>2026-08-15T17:12:59.000Z</time>
        <extensions>
          <ns3:TrackPointExtension>
            <ns3:hr>129</ns3:hr>
          </ns3:TrackPointExtension>
        </extensions>
      </trkpt>
      <trkpt lat="47.56371212191879749298095703125" lon="-3.05630668066442012786865234375">
        <ele>0.60000002384185791015625</ele>
        <time>2026-08-15T17:13:00.000Z</time>
        <extensions>
          <ns3:TrackPointExtension>
            <ns3:hr>128</ns3:hr>
          </ns3:TrackPointExtension>
        </extensions>
      </trkpt>
      <trkpt lat="47.5637157261371612548828125" lon="-3.056298382580280303955078125">
        <ele>0.4000000059604644775390625</ele>
        <time>2026-08-15T17:13:01.000Z</time>
        <extensions>
          <ns3:TrackPointExtension>
            <ns3:hr>127</ns3:hr>
          </ns3:TrackPointExtension>
        </extensions>
      </trkpt>
      <trkpt lat="47.5637192465364933013916015625" lon="-3.05629192851483821868896484375">
        <ele>0.20000000298023223876953125</ele>
        <time>2026-08-15T17:13:02.000Z</time>
        <extensions>
          <ns3:TrackPointExtension>
            <ns3:hr>127</ns3:hr>
          </ns3:TrackPointExtension>
        </extensions>
      </trkpt>
      <trkpt lat="47.5637125410139560699462890625" lon="-3.05628597736358642578125">
        <ele>-0.20000000298023223876953125</ele>
        <time>2026-08-15T17:13:03.000Z</time>
        <extensions>
          <ns3:TrackPointExtension>
            <ns3:hr>126</ns3:hr>
          </ns3:TrackPointExtension>
        </extensions>
      </trkpt>
      <trkpt lat="47.56369703449308872222900390625" lon="-3.05628622882068157196044921875">
        <ele>-0.4000000059604644775390625</ele>
        <time>2026-08-15T17:13:04.000Z</time>
        <extensions>
          <ns3:TrackPointExtension>
            <ns3:hr>126</ns3:hr>
          </ns3:TrackPointExtension>
        </extensions>
      </trkpt>
      <trkpt lat="47.56369317881762981414794921875" lon="-3.05628455244004726409912109375">
        <ele>-0.800000011920928955078125</ele>
        <time>2026-08-15T17:13:05.000Z</time>
        <extensions>
          <ns3:TrackPointExtension>
            <ns3:hr>125</ns3:hr>
          </ns3:TrackPointExtension>
        </extensions>
      </trkpt>
      <trkpt lat="47.56369569338858127593994140625" lon="-3.05628287605941295623779296875">
        <ele>-1</ele>
        <time>2026-08-15T17:13:06.000Z</time>
        <extensions>
          <ns3:TrackPointExtension>
            <ns3:hr>125</ns3:hr>
          </ns3:TrackPointExtension>
        </extensions>
      </trkpt>
      <trkpt lat="47.563695944845676422119140625" lon="-3.05627399124205112457275390625">
        <ele>-0.800000011920928955078125</ele>
        <time>2026-08-15T17:13:07.000Z</time>
        <extensions>
          <ns3:TrackPointExtension>
            <ns3:hr>127</ns3:hr>
          </ns3:TrackPointExtension>
        </extensions>
      </trkpt>
      <trkpt lat="47.56368731148540973663330078125" lon="-3.05626611225306987762451171875">
        <ele>-0.800000011920928955078125</ele>
        <time>2026-08-15T17:13:08.000Z</time>
        <extensions>
          <ns3:TrackPointExtension>
            <ns3:hr>126</ns3:hr>
          </ns3:TrackPointExtension>
        </extensions>
      </trkpt>
      <trkpt lat="47.563684545457363128662109375" lon="-3.05626326240599155426025390625">
        <ele>-0.60000002384185791015625</ele>
        <time>2026-08-15T17:13:09.000Z</time>
        <extensions>
          <ns3:TrackPointExtension>
            <ns3:hr>125</ns3:hr>
          </ns3:TrackPointExtension>
        </extensions>
      </trkpt>
      <trkpt lat="47.56368094123899936676025390625" lon="-3.0562613345682621002197265625">
        <ele>-0.4000000059604644775390625</ele>
        <time>2026-08-15T17:13:10.000Z</time>
        <extensions>
          <ns3:TrackPointExtension>
            <ns3:hr>126</ns3:hr>
          </ns3:TrackPointExtension>
        </extensions>
      </trkpt>
      <trkpt lat="47.56367557682096958160400390625" lon="-3.05626192130148410797119140625">
        <ele>-0.20000000298023223876953125</ele>
        <time>2026-08-15T17:13:11.000Z</time>
        <extensions>
          <ns3:TrackPointExtension>
            <ns3:hr>127</ns3:hr>
          </ns3:TrackPointExtension>
        </extensions>
      </trkpt>
      <trkpt lat="47.5636669434607028961181640625" lon="-3.056268207728862762451171875">
        <ele>0.20000000298023223876953125</ele>
        <time>2026-08-15T17:13:12.000Z</time>
        <extensions>
          <ns3:TrackPointExtension>
            <ns3:hr>127</ns3:hr>
          </ns3:TrackPointExtension>
        </extensions>
      </trkpt>
      <trkpt lat="47.5636635906994342803955078125" lon="-3.05626627989113330841064453125">
        <ele>0.4000000059604644775390625</ele>
        <time>2026-08-15T17:13:13.000Z</time>
        <extensions>
          <ns3:TrackPointExtension>
            <ns3:hr>128</ns3:hr>
          </ns3:TrackPointExtension>
        </extensions>
      </trkpt>
      <trkpt lat="47.56366074085235595703125" lon="-3.05626711808145046234130859375">
        <ele>0.4000000059604644775390625</ele>
        <time>2026-08-15T17:13:14.000Z</time>
        <extensions>
          <ns3:TrackPointExtension>
            <ns3:hr>128</ns3:hr>
          </ns3:TrackPointExtension>
        </extensions>
      </trkpt>
      <trkpt lat="47.5636555440723896026611328125" lon="-3.05626250803470611572265625">
        <ele>0.800000011920928955078125</ele>
        <time>2026-08-15T17:13:15.000Z</time>
        <extensions>
          <ns3:TrackPointExtension>
            <ns3:hr>128</ns3:hr>
          </ns3:TrackPointExtension>
        </extensions>
      </trkpt>
      <trkpt lat="47.5636518560349941253662109375" lon="-3.05626208893954753875732421875">
        <ele>1.39999997615814208984375</ele>
        <time>2026-08-15T17:13:16.000Z</time>
        <extensions>
          <ns3:TrackPointExtension>
            <ns3:hr>128</ns3:hr>
          </ns3:TrackPointExtension>
        </extensions>
      </trkpt>
      <trkpt lat="47.5636488385498523712158203125" lon="-3.0562603287398815155029296875">
        <ele>1.7999999523162841796875</ele>
        <time>2026-08-15T17:13:17.000Z</time>
        <extensions>
          <ns3:TrackPointExtension>
            <ns3:hr>129</ns3:hr>
          </ns3:TrackPointExtension>
        </extensions>
      </trkpt>
      <trkpt lat="47.5636459887027740478515625" lon="-3.05625622160732746124267578125">
        <ele>2.400000095367431640625</ele>
        <time>2026-08-15T17:13:18.000Z</time>
        <extensions>
          <ns3:TrackPointExtension>
            <ns3:hr>128</ns3:hr>
          </ns3:TrackPointExtension>
        </extensions>
      </trkpt>
      <trkpt lat="47.56363903172314167022705078125" lon="-3.05626024492084980010986328125">
        <ele>2.7999999523162841796875</ele>
        <time>2026-08-15T17:13:19.000Z</time>
        <extensions>
          <ns3:TrackPointExtension>
            <ns3:hr>128</ns3:hr>
          </ns3:TrackPointExtension>
        </extensions>
      </trkpt>
      <trkpt lat="47.5636280514299869537353515625" lon="-3.05625538341701030731201171875">
        <ele>3</ele>
        <time>2026-08-15T17:13:20.000Z</time>
        <extensions>
          <ns3:TrackPointExtension>
            <ns3:hr>128</ns3:hr>
          </ns3:TrackPointExtension>
        </extensions>
      </trkpt>
      <trkpt lat="47.56361807696521282196044921875" lon="-3.0562569759786128997802734375">
        <ele>3</ele>
        <time>2026-08-15T17:13:21.000Z</time>
        <extensions>
          <ns3:TrackPointExtension>
            <ns3:hr>129</ns3:hr>
          </ns3:TrackPointExtension>
        </extensions>
      </trkpt>
      <trkpt lat="47.56360600702464580535888671875" lon="-3.05626527406275272369384765625">
        <ele>3</ele>
        <time>2026-08-15T17:13:22.000Z</time>
        <extensions>
          <ns3:TrackPointExtension>
            <ns3:hr>130</ns3:hr>
          </ns3:TrackPointExtension>
        </extensions>
      </trkpt>
      <trkpt lat="47.5635995529592037200927734375" lon="-3.056263513863086700439453125">
        <ele>3</ele>
        <time>2026-08-15T17:13:23.000Z</time>
        <extensions>
          <ns3:TrackPointExtension>
            <ns3:hr>130</ns3:hr>
          </ns3:TrackPointExtension>
        </extensions>
      </trkpt>
      <trkpt lat="47.56358320824801921844482421875" lon="-3.05625773034989833831787109375">
        <ele>3.2000000476837158203125</ele>
        <time>2026-08-15T17:13:24.000Z</time>
        <extensions>
          <ns3:TrackPointExtension>
            <ns3:hr>130</ns3:hr>
          </ns3:TrackPointExtension>
        </extensions>
      </trkpt>
      <trkpt lat="47.5635717250406742095947265625" lon="-3.05625370703637599945068359375">
        <ele>3.400000095367431640625</ele>
        <time>2026-08-15T17:13:25.000Z</time>
        <extensions>
          <ns3:TrackPointExtension>
            <ns3:hr>131</ns3:hr>
          </ns3:TrackPointExtension>
        </extensions>
      </trkpt>
      <trkpt lat="47.56356258876621723175048828125" lon="-3.0562596581876277923583984375">
        <ele>3.599999904632568359375</ele>
        <time>2026-08-15T17:13:26.000Z</time>
        <extensions>
          <ns3:TrackPointExtension>
            <ns3:hr>131</ns3:hr>
          </ns3:TrackPointExtension>
        </extensions>
      </trkpt>
      <trkpt lat="47.56355303339660167694091796875" lon="-3.056263513863086700439453125">
        <ele>3.400000095367431640625</ele>
        <time>2026-08-15T17:13:27.000Z</time>
        <extensions>
          <ns3:TrackPointExtension>
            <ns3:hr>131</ns3:hr>
          </ns3:TrackPointExtension>
        </extensions>
      </trkpt>
      <trkpt lat="47.56354079581797122955322265625" lon="-3.05626762099564075469970703125">
        <ele>3.599999904632568359375</ele>
        <time>2026-08-15T17:13:28.000Z</time>
        <extensions>
          <ns3:TrackPointExtension>
            <ns3:hr>131</ns3:hr>
          </ns3:TrackPointExtension>
        </extensions>
      </trkpt>
      <trkpt lat="47.56352419964969158172607421875" lon="-3.05627114139497280120849609375">
        <ele>3.400000095367431640625</ele>
        <time>2026-08-15T17:13:29.000Z</time>
        <extensions>
          <ns3:TrackPointExtension>
            <ns3:hr>131</ns3:hr>
          </ns3:TrackPointExtension>
        </extensions>
      </trkpt>
      <trkpt lat="47.56350408308207988739013671875" lon="-3.05627902038395404815673828125">
        <ele>4</ele>
        <time>2026-08-15T17:13:30.000Z</time>
        <extensions>
          <ns3:TrackPointExtension>
            <ns3:hr>131</ns3:hr>
          </ns3:TrackPointExtension>
        </extensions>
      </trkpt>
      <trkpt lat="47.56348178721964359283447265625" lon="-3.05627600289881229400634765625">
        <ele>4.599999904632568359375</ele>
        <time>2026-08-15T17:13:31.000Z</time>
        <extensions>
          <ns3:TrackPointExtension>
            <ns3:hr>131</ns3:hr>
          </ns3:TrackPointExtension>
        </extensions>
      </trkpt>
      <trkpt lat="47.5634557195007801055908203125" lon="-3.05627617053687572479248046875">
        <ele>5.19999980926513671875</ele>
        <time>2026-08-15T17:13:32.000Z</time>
        <extensions>
          <ns3:TrackPointExtension>
            <ns3:hr>131</ns3:hr>
          </ns3:TrackPointExtension>
        </extensions>
      </trkpt>
      <trkpt lat="47.563430406153202056884765625" lon="-3.05628069676458835601806640625">
        <ele>5.80000019073486328125</ele>
        <time>2026-08-15T17:13:33.000Z</time>
        <extensions>
          <ns3:TrackPointExtension>
            <ns3:hr>131</ns3:hr>
          </ns3:TrackPointExtension>
        </extensions>
      </trkpt>
      <trkpt lat="47.56340869702398777008056640625" lon="-3.056282959878444671630859375">
        <ele>9</ele>
        <time>2026-08-15T17:13:34.000Z</time>
        <extensions>
          <ns3:TrackPointExtension>
            <ns3:hr>131</ns3:hr>
          </ns3:TrackPointExtension>
        </extensions>
      </trkpt>
      <trkpt lat="47.56338707171380519866943359375" lon="-3.05627684108912944793701171875">
        <ele>9.19999980926513671875</ele>
        <time>2026-08-15T17:13:35.000Z</time>
        <extensions>
          <ns3:TrackPointExtension>
            <ns3:hr>132</ns3:hr>
          </ns3:TrackPointExtension>
        </extensions>
      </trkpt>
      <trkpt lat="47.56337516941130161285400390625" lon="-3.05628136731684207916259765625">
        <ele>9.19999980926513671875</ele>
        <time>2026-08-15T17:13:36.000Z</time>
        <extensions>
          <ns3:TrackPointExtension>
            <ns3:hr>132</ns3:hr>
          </ns3:TrackPointExtension>
        </extensions>
      </trkpt>
      <trkpt lat="47.56336159072816371917724609375" lon="-3.05628824047744274139404296875">
        <ele>9.3999996185302734375</ele>
        <time>2026-08-15T17:13:37.000Z</time>
        <extensions>
          <ns3:TrackPointExtension>
            <ns3:hr>131</ns3:hr>
          </ns3:TrackPointExtension>
        </extensions>
      </trkpt>
      <trkpt lat="47.5633554719388484954833984375" lon="-3.0562874861061573028564453125">
        <ele>9.80000019073486328125</ele>
        <time>2026-08-15T17:13:38.000Z</time>
        <extensions>
          <ns3:TrackPointExtension>
            <ns3:hr>131</ns3:hr>
          </ns3:TrackPointExtension>
        </extensions>
      </trkpt>
      <trkpt lat="47.56334734149277210235595703125" lon="-3.0562901683151721954345703125">
        <ele>9.80000019073486328125</ele>
        <time>2026-08-15T17:13:39.000Z</time>
        <extensions>
          <ns3:TrackPointExtension>
            <ns3:hr>131</ns3:hr>
          </ns3:TrackPointExtension>
        </extensions>
      </trkpt>
      <trkpt lat="47.56333778612315654754638671875" lon="-3.05629863403737545013427734375">
        <ele>9.6000003814697265625</ele>
        <time>2026-08-15T17:13:40.000Z</time>
        <extensions>
          <ns3:TrackPointExtension>
            <ns3:hr>131</ns3:hr>
          </ns3:TrackPointExtension>
        </extensions>
      </trkpt>
      <trkpt lat="47.563325129449367523193359375" lon="-3.05630542337894439697265625">
        <ele>9.6000003814697265625</ele>
        <time>2026-08-15T17:13:41.000Z</time>
        <extensions>
          <ns3:TrackPointExtension>
            <ns3:hr>129</ns3:hr>
          </ns3:TrackPointExtension>
        </extensions>
      </trkpt>
      <trkpt lat="47.56330065429210662841796875" lon="-3.0563153140246868133544921875">
        <ele>9</ele>
        <time>2026-08-15T17:13:42.000Z</time>
        <extensions>
          <ns3:TrackPointExtension>
            <ns3:hr>126</ns3:hr>
          </ns3:TrackPointExtension>
        </extensions>
      </trkpt>
      <trkpt lat="47.5632766820490360260009765625" lon="-3.05631481111049652099609375">
        <ele>8.80000019073486328125</ele>
        <time>2026-08-15T17:13:43.000Z</time>
        <extensions>
          <ns3:TrackPointExtension>
            <ns3:hr>124</ns3:hr>
          </ns3:TrackPointExtension>
        </extensions>
      </trkpt>
      <trkpt lat="47.56324809975922107696533203125" lon="-3.05631590075790882110595703125">
        <ele>8.6000003814697265625</ele>
        <time>2026-08-15T17:13:44.000Z</time>
        <extensions>
          <ns3:TrackPointExtension>
            <ns3:hr>123</ns3:hr>
          </ns3:TrackPointExtension>
        </extensions>
      </trkpt>
      <trkpt lat="47.563221193850040435791015625" lon="-3.0563082732260227203369140625">
        <ele>8.3999996185302734375</ele>
        <time>2026-08-15T17:13:45.000Z</time>
        <extensions>
          <ns3:TrackPointExtension>
            <ns3:hr>122</ns3:hr>
          </ns3:TrackPointExtension>
        </extensions>
      </trkpt>
      <trkpt lat="47.56319864653050899505615234375" lon="-3.05630114860832691192626953125">
        <ele>8.3999996185302734375</ele>
        <time>2026-08-15T17:13:46.000Z</time>
        <extensions>
          <ns3:TrackPointExtension>
            <ns3:hr>121</ns3:hr>
          </ns3:TrackPointExtension>
        </extensions>
      </trkpt>
      <trkpt lat="47.5631861574947834014892578125" lon="-3.056303076446056365966796875">
        <ele>8.6000003814697265625</ele>
        <time>2026-08-15T17:13:47.000Z</time>
        <extensions>
          <ns3:TrackPointExtension>
            <ns3:hr>121</ns3:hr>
          </ns3:TrackPointExtension>
        </extensions>
      </trkpt>
      <trkpt lat="47.5631861574947834014892578125" lon="-3.05630098097026348114013671875">
        <ele>8.6000003814697265625</ele>
        <time>2026-08-15T17:13:48.000Z</time>
        <extensions>
          <ns3:TrackPointExtension>
            <ns3:hr>121</ns3:hr>
          </ns3:TrackPointExtension>
        </extensions>
      </trkpt>
      <trkpt lat="47.563179619610309600830078125" lon="-3.05630349554121494293212890625">
        <ele>8.6000003814697265625</ele>
        <time>2026-08-15T17:13:49.000Z</time>
        <extensions>
          <ns3:TrackPointExtension>
            <ns3:hr>120</ns3:hr>
          </ns3:TrackPointExtension>
        </extensions>
      </trkpt>
      <trkpt lat="47.56316595710813999176025390625" lon="-3.0563072673976421356201171875">
        <ele>8.6000003814697265625</ele>
        <time>2026-08-15T17:13:50.000Z</time>
        <extensions>
          <ns3:TrackPointExtension>
            <ns3:hr>120</ns3:hr>
          </ns3:TrackPointExtension>
        </extensions>
      </trkpt>
      <trkpt lat="47.5631551444530487060546875" lon="-3.056309111416339874267578125">
        <ele>8.6000003814697265625</ele>
        <time>2026-08-15T17:13:51.000Z</time>
        <extensions>
          <ns3:TrackPointExtension>
            <ns3:hr>119</ns3:hr>
          </ns3:TrackPointExtension>
        </extensions>
      </trkpt>
      <trkpt lat="47.56314198486506938934326171875" lon="-3.05631070397794246673583984375">
        <ele>8.3999996185302734375</ele>
        <time>2026-08-15T17:13:52.000Z</time>
        <extensions>
          <ns3:TrackPointExtension>
            <ns3:hr>119</ns3:hr>
          </ns3:TrackPointExtension>
        </extensions>
      </trkpt>
      <trkpt lat="47.56312622688710689544677734375" lon="-3.0563122965395450592041015625">
        <ele>8.3999996185302734375</ele>
        <time>2026-08-15T17:13:53.000Z</time>
        <extensions>
          <ns3:TrackPointExtension>
            <ns3:hr>120</ns3:hr>
          </ns3:TrackPointExtension>
        </extensions>
      </trkpt>
      <trkpt lat="47.563116587698459625244140625" lon="-3.056315481662750244140625">
        <ele>8.3999996185302734375</ele>
        <time>2026-08-15T17:13:54.000Z</time>
        <extensions>
          <ns3:TrackPointExtension>
            <ns3:hr>121</ns3:hr>
          </ns3:TrackPointExtension>
        </extensions>
      </trkpt>
      <trkpt lat="47.563100159168243408203125" lon="-3.05631841532886028289794921875">
        <ele>8.3999996185302734375</ele>
        <time>2026-08-15T17:13:55.000Z</time>
        <extensions>
          <ns3:TrackPointExtension>
            <ns3:hr>121</ns3:hr>
          </ns3:TrackPointExtension>
        </extensions>
      </trkpt>
      <trkpt lat="47.5630825571715831756591796875" lon="-3.05631891824305057525634765625">
        <ele>8.19999980926513671875</ele>
        <time>2026-08-15T17:13:56.000Z</time>
        <extensions>
          <ns3:TrackPointExtension>
            <ns3:hr>119</ns3:hr>
          </ns3:TrackPointExtension>
        </extensions>
      </trkpt>
      <trkpt lat="47.56306755356490612030029296875" lon="-3.0563190020620822906494140625">
        <ele>8</ele>
        <time>2026-08-15T17:13:57.000Z</time>
        <extensions>
          <ns3:TrackPointExtension>
            <ns3:hr>117</ns3:hr>
          </ns3:TrackPointExtension>
        </extensions>
      </trkpt>
      <trkpt lat="47.5630505383014678955078125" lon="-3.0563156493008136749267578125">
        <ele>7.80000019073486328125</ele>
        <time>2026-08-15T17:13:58.000Z</time>
        <extensions>
          <ns3:TrackPointExtension>
            <ns3:hr>113</ns3:hr>
          </ns3:TrackPointExtension>
        </extensions>
      </trkpt>
      <trkpt lat="47.5630366243422031402587890625" lon="-3.056317828595638275146484375">
        <ele>7.599999904632568359375</ele>
        <time>2026-08-15T17:13:59.000Z</time>
        <extensions>
          <ns3:TrackPointExtension>
            <ns3:hr>109</ns3:hr>
          </ns3:TrackPointExtension>
        </extensions>
      </trkpt>
      <trkpt lat="47.56301759742200374603271484375" lon="-3.05631657131016254425048828125">
        <ele>5.80000019073486328125</ele>
        <time>2026-08-15T17:14:00.000Z</time>
        <extensions>
          <ns3:TrackPointExtension>
            <ns3:hr>105</ns3:hr>
          </ns3:TrackPointExtension>
        </extensions>
      </trkpt>
      <trkpt lat="47.56299949251115322113037109375" lon="-3.05631640367209911346435546875">
        <ele>3.599999904632568359375</ele>
        <time>2026-08-15T17:14:01.000Z</time>
        <extensions>
          <ns3:TrackPointExtension>
            <ns3:hr>101</ns3:hr>
          </ns3:TrackPointExtension>
        </extensions>
      </trkpt>
      <trkpt lat="47.5629834830760955810546875" lon="-3.0563156493008136749267578125">
        <ele>3.400000095367431640625</ele>
        <time>2026-08-15T17:14:02.000Z</time>
        <extensions>
          <ns3:TrackPointExtension>
            <ns3:hr>98</ns3:hr>
          </ns3:TrackPointExtension>
        </extensions>
      </trkpt>
      <trkpt lat="47.56296864710748195648193359375" lon="-3.05631757713854312896728515625">
        <ele>3.400000095367431640625</ele>
        <time>2026-08-15T17:14:03.000Z</time>
        <extensions>
          <ns3:TrackPointExtension>
            <ns3:hr>99</ns3:hr>
          </ns3:TrackPointExtension>
        </extensions>
      </trkpt>
      <trkpt lat="47.56295640952885150909423828125" lon="-3.0563149787485599517822265625">
        <ele>3.2000000476837158203125</ele>
        <time>2026-08-15T17:14:04.000Z</time>
        <extensions>
          <ns3:TrackPointExtension>
            <ns3:hr>104</ns3:hr>
          </ns3:TrackPointExtension>
        </extensions>
      </trkpt>
      <trkpt lat="47.56293931044638156890869140625" lon="-3.0563156493008136749267578125">
        <ele>3.2000000476837158203125</ele>
        <time>2026-08-15T17:14:05.000Z</time>
        <extensions>
          <ns3:TrackPointExtension>
            <ns3:hr>105</ns3:hr>
          </ns3:TrackPointExtension>
        </extensions>
      </trkpt>
      <trkpt lat="47.56292372010648250579833984375" lon="-3.05631808005273342132568359375">
        <ele>3.400000095367431640625</ele>
        <time>2026-08-15T17:14:06.000Z</time>
        <extensions>
          <ns3:TrackPointExtension>
            <ns3:hr>106</ns3:hr>
          </ns3:TrackPointExtension>
        </extensions>
      </trkpt>
      <trkpt lat="47.56291366182267665863037109375" lon="-3.05631154216825962066650390625">
        <ele>3.400000095367431640625</ele>
        <time>2026-08-15T17:14:07.000Z</time>
        <extensions>
          <ns3:TrackPointExtension>
            <ns3:hr>108</ns3:hr>
          </ns3:TrackPointExtension>
        </extensions>
      </trkpt>
      <trkpt lat="47.56289874203503131866455078125" lon="-3.0563119612634181976318359375">
        <ele>3.599999904632568359375</ele>
        <time>2026-08-15T17:14:08.000Z</time>
        <extensions>
          <ns3:TrackPointExtension>
            <ns3:hr>108</ns3:hr>
          </ns3:TrackPointExtension>
        </extensions>
      </trkpt>
      <trkpt lat="47.5628896057605743408203125" lon="-3.0563062615692615509033203125">
        <ele>3.7999999523162841796875</ele>
        <time>2026-08-15T17:14:09.000Z</time>
        <extensions>
          <ns3:TrackPointExtension>
            <ns3:hr>109</ns3:hr>
          </ns3:TrackPointExtension>
        </extensions>
      </trkpt>
      <trkpt lat="47.56287728436291217803955078125" lon="-3.05630885995924472808837890625">
        <ele>3.7999999523162841796875</ele>
        <time>2026-08-15T17:14:10.000Z</time>
        <extensions>
          <ns3:TrackPointExtension>
            <ns3:hr>112</ns3:hr>
          </ns3:TrackPointExtension>
        </extensions>
      </trkpt>
      <trkpt lat="47.56287292577326297760009765625" lon="-3.056300394237041473388671875">
        <ele>3.7999999523162841796875</ele>
        <time>2026-08-15T17:14:11.000Z</time>
        <extensions>
          <ns3:TrackPointExtension>
            <ns3:hr>115</ns3:hr>
          </ns3:TrackPointExtension>
        </extensions>
      </trkpt>
      <trkpt lat="47.56285817362368106842041015625" lon="-3.05629880167543888092041015625">
        <ele>3.599999904632568359375</ele>
        <time>2026-08-15T17:14:12.000Z</time>
        <extensions>
          <ns3:TrackPointExtension>
            <ns3:hr>117</ns3:hr>
          </ns3:TrackPointExtension>
        </extensions>
      </trkpt>
      <trkpt lat="47.562849707901477813720703125" lon="-3.0562965385615825653076171875">
        <ele>3.400000095367431640625</ele>
        <time>2026-08-15T17:14:13.000Z</time>
        <extensions>
          <ns3:TrackPointExtension>
            <ns3:hr>118</ns3:hr>
          </ns3:TrackPointExtension>
        </extensions>
      </trkpt>
      <trkpt lat="47.5628391467034816741943359375" lon="-3.05629427544772624969482421875">
        <ele>3.400000095367431640625</ele>
        <time>2026-08-15T17:14:14.000Z</time>
        <extensions>
          <ns3:TrackPointExtension>
            <ns3:hr>119</ns3:hr>
          </ns3:TrackPointExtension>
        </extensions>
      </trkpt>
      <trkpt lat="47.56282850168645381927490234375" lon="-3.05629159323871135711669921875">
        <ele>3.400000095367431640625</ele>
        <time>2026-08-15T17:14:15.000Z</time>
        <extensions>
          <ns3:TrackPointExtension>
            <ns3:hr>120</ns3:hr>
          </ns3:TrackPointExtension>
        </extensions>
      </trkpt>
      <trkpt lat="47.5628207065165042877197265625" lon="-3.05629461072385311126708984375">
        <ele>3.400000095367431640625</ele>
        <time>2026-08-15T17:14:16.000Z</time>
        <extensions>
          <ns3:TrackPointExtension>
            <ns3:hr>120</ns3:hr>
          </ns3:TrackPointExtension>
        </extensions>
      </trkpt>
      <trkpt lat="47.5628140009939670562744140625" lon="-3.0562951974570751190185546875">
        <ele>3.400000095367431640625</ele>
        <time>2026-08-15T17:14:17.000Z</time>
        <extensions>
          <ns3:TrackPointExtension>
            <ns3:hr>120</ns3:hr>
          </ns3:TrackPointExtension>
        </extensions>
      </trkpt>
      <trkpt lat="47.56280981004238128662109375" lon="-3.05629125796258449554443359375">
        <ele>3.599999904632568359375</ele>
        <time>2026-08-15T17:14:18.000Z</time>
        <extensions>
          <ns3:TrackPointExtension>
            <ns3:hr>117</ns3:hr>
          </ns3:TrackPointExtension>
        </extensions>
      </trkpt>
      <trkpt lat="47.56279832683503627777099609375" lon="-3.0562915094196796417236328125">
        <ele>3.400000095367431640625</ele>
        <time>2026-08-15T17:14:19.000Z</time>
        <extensions>
          <ns3:TrackPointExtension>
            <ns3:hr>113</ns3:hr>
          </ns3:TrackPointExtension>
        </extensions>
      </trkpt>
      <trkpt lat="47.5627938844263553619384765625" lon="-3.0562931858003139495849609375">
        <ele>3.400000095367431640625</ele>
        <time>2026-08-15T17:14:20.000Z</time>
        <extensions>
          <ns3:TrackPointExtension>
            <ns3:hr>109</ns3:hr>
          </ns3:TrackPointExtension>
        </extensions>
      </trkpt>
      <trkpt lat="47.562792040407657623291015625" lon="-3.05629963986575603485107421875">
        <ele>3.2000000476837158203125</ele>
        <time>2026-08-15T17:14:21.000Z</time>
        <extensions>
          <ns3:TrackPointExtension>
            <ns3:hr>108</ns3:hr>
          </ns3:TrackPointExtension>
        </extensions>
      </trkpt>
      <trkpt lat="47.56278374232351779937744140625" lon="-3.05628974922001361846923828125">
        <ele>3.2000000476837158203125</ele>
        <time>2026-08-15T17:14:22.000Z</time>
        <extensions>
          <ns3:TrackPointExtension>
            <ns3:hr>108</ns3:hr>
          </ns3:TrackPointExtension>
        </extensions>
      </trkpt>
      <trkpt lat="47.5627704150974750518798828125" lon="-3.05629746057093143463134765625">
        <ele>3.2000000476837158203125</ele>
        <time>2026-08-15T17:14:23.000Z</time>
        <extensions>
          <ns3:TrackPointExtension>
            <ns3:hr>108</ns3:hr>
          </ns3:TrackPointExtension>
        </extensions>
      </trkpt>
      <trkpt lat="47.562763206660747528076171875" lon="-3.0562955327332019805908203125">
        <ele>3</ele>
        <time>2026-08-15T17:14:24.000Z</time>
        <extensions>
          <ns3:TrackPointExtension>
            <ns3:hr>107</ns3:hr>
          </ns3:TrackPointExtension>
        </extensions>
      </trkpt>
      <trkpt lat="47.56275205872952938079833984375" lon="-3.05629578419029712677001953125">
        <ele>3</ele>
        <time>2026-08-15T17:14:25.000Z</time>
        <extensions>
          <ns3:TrackPointExtension>
            <ns3:hr>107</ns3:hr>
          </ns3:TrackPointExtension>
        </extensions>
      </trkpt>
      <trkpt lat="47.5627392344176769256591796875" lon="-3.0562968738377094268798828125">
        <ele>3.2000000476837158203125</ele>
        <time>2026-08-15T17:14:26.000Z</time>
        <extensions>
          <ns3:TrackPointExtension>
            <ns3:hr>107</ns3:hr>
          </ns3:TrackPointExtension>
        </extensions>
      </trkpt>
      <trkpt lat="47.562729679048061370849609375" lon="-3.056292347609996795654296875">
        <ele>3.2000000476837158203125</ele>
        <time>2026-08-15T17:14:27.000Z</time>
        <extensions>
          <ns3:TrackPointExtension>
            <ns3:hr>107</ns3:hr>
          </ns3:TrackPointExtension>
        </extensions>
      </trkpt>
      <trkpt lat="47.56271987222135066986083984375" lon="-3.05629326961934566497802734375">
        <ele>3.400000095367431640625</ele>
        <time>2026-08-15T17:14:28.000Z</time>
        <extensions>
          <ns3:TrackPointExtension>
            <ns3:hr>107</ns3:hr>
          </ns3:TrackPointExtension>
        </extensions>
      </trkpt>
      <trkpt lat="47.5627060420811176300048828125" lon="-3.05628941394388675689697265625">
        <ele>3.400000095367431640625</ele>
        <time>2026-08-15T17:14:29.000Z</time>
        <extensions>
          <ns3:TrackPointExtension>
            <ns3:hr>108</ns3:hr>
          </ns3:TrackPointExtension>
        </extensions>
      </trkpt>
      <trkpt lat="47.5626956485211849212646484375" lon="-3.0562848038971424102783203125">
        <ele>3.400000095367431640625</ele>
        <time>2026-08-15T17:14:30.000Z</time>
        <extensions>
          <ns3:TrackPointExtension>
            <ns3:hr>108</ns3:hr>
          </ns3:TrackPointExtension>
        </extensions>
      </trkpt>
      <trkpt lat="47.5626845844089984893798828125" lon="-3.05628270842134952545166015625">
        <ele>3.400000095367431640625</ele>
        <time>2026-08-15T17:14:31.000Z</time>
        <extensions>
          <ns3:TrackPointExtension>
            <ns3:hr>108</ns3:hr>
          </ns3:TrackPointExtension>
        </extensions>
      </trkpt>
      <trkpt lat="47.562671341001987457275390625" lon="-3.05628354661166667938232421875">
        <ele>3.400000095367431640625</ele>
        <time>2026-08-15T17:14:32.000Z</time>
        <extensions>
          <ns3:TrackPointExtension>
            <ns3:hr>109</ns3:hr>
          </ns3:TrackPointExtension>
        </extensions>
      </trkpt>
      <trkpt lat="47.562665306031703948974609375" lon="-3.05628220550715923309326171875">
        <ele>3.400000095367431640625</ele>
        <time>2026-08-15T17:14:33.000Z</time>
        <extensions>
          <ns3:TrackPointExtension>
            <ns3:hr>110</ns3:hr>
          </ns3:TrackPointExtension>
        </extensions>
      </trkpt>
      <trkpt lat="47.5626530684530735015869140625" lon="-3.05628773756325244903564453125">
        <ele>3.400000095367431640625</ele>
        <time>2026-08-15T17:14:34.000Z</time>
        <extensions>
          <ns3:TrackPointExtension>
            <ns3:hr>111</ns3:hr>
          </ns3:TrackPointExtension>
        </extensions>
      </trkpt>
      <trkpt lat="47.56264108233153820037841796875" lon="-3.0562911741435527801513671875">
        <ele>3.2000000476837158203125</ele>
        <time>2026-08-15T17:14:35.000Z</time>
        <extensions>
          <ns3:TrackPointExtension>
            <ns3:hr>111</ns3:hr>
          </ns3:TrackPointExtension>
        </extensions>
      </trkpt>
      <trkpt lat="47.56262599490582942962646484375" lon="-3.05629670619964599609375">
        <ele>3.2000000476837158203125</ele>
        <time>2026-08-15T17:14:36.000Z</time>
        <extensions>
          <ns3:TrackPointExtension>
            <ns3:hr>111</ns3:hr>
          </ns3:TrackPointExtension>
        </extensions>
      </trkpt>
      <trkpt lat="47.56261912174522876739501953125" lon="-3.0562948621809482574462890625">
        <ele>3.2000000476837158203125</ele>
        <time>2026-08-15T17:14:37.000Z</time>
        <extensions>
          <ns3:TrackPointExtension>
            <ns3:hr>111</ns3:hr>
          </ns3:TrackPointExtension>
        </extensions>
      </trkpt>
      <trkpt lat="47.5626037828624248504638671875" lon="-3.0563005618751049041748046875">
        <ele>3.2000000476837158203125</ele>
        <time>2026-08-15T17:14:38.000Z</time>
        <extensions>
          <ns3:TrackPointExtension>
            <ns3:hr>110</ns3:hr>
          </ns3:TrackPointExtension>
        </extensions>
      </trkpt>
      <trkpt lat="47.56258944980800151824951171875" lon="-3.05629779584705829620361328125">
        <ele>3</ele>
        <time>2026-08-15T17:14:39.000Z</time>
        <extensions>
          <ns3:TrackPointExtension>
            <ns3:hr>109</ns3:hr>
          </ns3:TrackPointExtension>
        </extensions>
      </trkpt>
      <trkpt lat="47.56258022971451282501220703125" lon="-3.05630081333220005035400390625">
        <ele>3</ele>
        <time>2026-08-15T17:14:40.000Z</time>
        <extensions>
          <ns3:TrackPointExtension>
            <ns3:hr>109</ns3:hr>
          </ns3:TrackPointExtension>
        </extensions>
      </trkpt>
      <trkpt lat="47.5625702552497386932373046875" lon="-3.05630282498896121978759765625">
        <ele>3</ele>
        <time>2026-08-15T17:14:41.000Z</time>
        <extensions>
          <ns3:TrackPointExtension>
            <ns3:hr>108</ns3:hr>
          </ns3:TrackPointExtension>
        </extensions>
      </trkpt>
      <trkpt lat="47.5625581853091716766357421875" lon="-3.05629762820899486541748046875">
        <ele>3</ele>
        <time>2026-08-15T17:14:42.000Z</time>
        <extensions>
          <ns3:TrackPointExtension>
            <ns3:hr>108</ns3:hr>
          </ns3:TrackPointExtension>
        </extensions>
      </trkpt>
      <trkpt lat="47.56254770793020725250244140625" lon="-3.05630114860832691192626953125">
        <ele>3</ele>
        <time>2026-08-15T17:14:43.000Z</time>
        <extensions>
          <ns3:TrackPointExtension>
            <ns3:hr>107</ns3:hr>
          </ns3:TrackPointExtension>
        </extensions>
      </trkpt>
      <trkpt lat="47.56253044120967388153076171875" lon="-3.05629737675189971923828125">
        <ele>3</ele>
        <time>2026-08-15T17:14:44.000Z</time>
        <extensions>
          <ns3:TrackPointExtension>
            <ns3:hr>106</ns3:hr>
          </ns3:TrackPointExtension>
        </extensions>
      </trkpt>
      <trkpt lat="47.56251803599298000335693359375" lon="-3.056293688714504241943359375">
        <ele>3.2000000476837158203125</ele>
        <time>2026-08-15T17:14:45.000Z</time>
        <extensions>
          <ns3:TrackPointExtension>
            <ns3:hr>106</ns3:hr>
          </ns3:TrackPointExtension>
        </extensions>
      </trkpt>
      <trkpt lat="47.56251208484172821044921875" lon="-3.05629528127610683441162109375">
        <ele>3.2000000476837158203125</ele>
        <time>2026-08-15T17:14:46.000Z</time>
        <extensions>
          <ns3:TrackPointExtension>
            <ns3:hr>106</ns3:hr>
          </ns3:TrackPointExtension>
        </extensions>
      </trkpt>
      <trkpt lat="47.56250361911952495574951171875" lon="-3.05629980750381946563720703125">
        <ele>3</ele>
        <time>2026-08-15T17:14:47.000Z</time>
        <extensions>
          <ns3:TrackPointExtension>
            <ns3:hr>106</ns3:hr>
          </ns3:TrackPointExtension>
        </extensions>
      </trkpt>
      <trkpt lat="47.562496997416019439697265625" lon="-3.056300394237041473388671875">
        <ele>3</ele>
        <time>2026-08-15T17:14:48.000Z</time>
        <extensions>
          <ns3:TrackPointExtension>
            <ns3:hr>106</ns3:hr>
          </ns3:TrackPointExtension>
        </extensions>
      </trkpt>
      <trkpt lat="47.5624899566173553466796875" lon="-3.0563005618751049041748046875">
        <ele>2.7999999523162841796875</ele>
        <time>2026-08-15T17:14:49.000Z</time>
        <extensions>
          <ns3:TrackPointExtension>
            <ns3:hr>105</ns3:hr>
          </ns3:TrackPointExtension>
        </extensions>
      </trkpt>
      <trkpt lat="47.5624757073819637298583984375" lon="-3.05630081333220005035400390625">
        <ele>2.7999999523162841796875</ele>
        <time>2026-08-15T17:14:50.000Z</time>
        <extensions>
          <ns3:TrackPointExtension>
            <ns3:hr>103</ns3:hr>
          </ns3:TrackPointExtension>
        </extensions>
      </trkpt>
      <trkpt lat="47.56246103905141353607177734375" lon="-3.0563035793602466583251953125">
        <ele>2.599999904632568359375</ele>
        <time>2026-08-15T17:14:51.000Z</time>
        <extensions>
          <ns3:TrackPointExtension>
            <ns3:hr>101</ns3:hr>
          </ns3:TrackPointExtension>
        </extensions>
      </trkpt>
      <trkpt lat="47.56244276650249958038330078125" lon="-3.05630131624639034271240234375">
        <ele>2.599999904632568359375</ele>
        <time>2026-08-15T17:14:52.000Z</time>
        <extensions>
          <ns3:TrackPointExtension>
            <ns3:hr>101</ns3:hr>
          </ns3:TrackPointExtension>
        </extensions>
      </trkpt>
      <trkpt lat="47.562418542802333831787109375" lon="-3.05629544891417026519775390625">
        <ele>2.599999904632568359375</ele>
        <time>2026-08-15T17:14:53.000Z</time>
        <extensions>
          <ns3:TrackPointExtension>
            <ns3:hr>100</ns3:hr>
          </ns3:TrackPointExtension>
        </extensions>
      </trkpt>
      <trkpt lat="47.56239431910216808319091796875" lon="-3.056288994848728179931640625">
        <ele>2.7999999523162841796875</ele>
        <time>2026-08-15T17:14:54.000Z</time>
        <extensions>
          <ns3:TrackPointExtension>
            <ns3:hr>100</ns3:hr>
          </ns3:TrackPointExtension>
        </extensions>
      </trkpt>
      <trkpt lat="47.5623674131929874420166015625" lon="-3.05628287605941295623779296875">
        <ele>2.7999999523162841796875</ele>
        <time>2026-08-15T17:14:55.000Z</time>
        <extensions>
          <ns3:TrackPointExtension>
            <ns3:hr>100</ns3:hr>
          </ns3:TrackPointExtension>
        </extensions>
      </trkpt>
      <trkpt lat="47.56234888918697834014892578125" lon="-3.05627633817493915557861328125">
        <ele>2.7999999523162841796875</ele>
        <time>2026-08-15T17:14:56.000Z</time>
        <extensions>
          <ns3:TrackPointExtension>
            <ns3:hr>100</ns3:hr>
          </ns3:TrackPointExtension>
        </extensions>
      </trkpt>
      <trkpt lat="47.56232541985809803009033203125" lon="-3.05626912973821163177490234375">
        <ele>2.7999999523162841796875</ele>
        <time>2026-08-15T17:14:57.000Z</time>
        <extensions>
          <ns3:TrackPointExtension>
            <ns3:hr>100</ns3:hr>
          </ns3:TrackPointExtension>
        </extensions>
      </trkpt>
      <trkpt lat="47.56229616701602935791015625" lon="-3.05625923909246921539306640625">
        <ele>2.7999999523162841796875</ele>
        <time>2026-08-15T17:14:58.000Z</time>
        <extensions>
          <ns3:TrackPointExtension>
            <ns3:hr>97</ns3:hr>
          </ns3:TrackPointExtension>
        </extensions>
      </trkpt>
      <trkpt lat="47.5622701831161975860595703125" lon="-3.0562492646276950836181640625">
        <ele>2.7999999523162841796875</ele>
        <time>2026-08-15T17:14:59.000Z</time>
        <extensions>
          <ns3:TrackPointExtension>
            <ns3:hr>97</ns3:hr>
          </ns3:TrackPointExtension>
        </extensions>
      </trkpt>
      <trkpt lat="47.56224830634891986846923828125" lon="-3.05624079890549182891845703125">
        <ele>3</ele>
        <time>2026-08-15T17:15:00.000Z</time>
        <extensions>
          <ns3:TrackPointExtension>
            <ns3:hr>97</ns3:hr>
          </ns3:TrackPointExtension>
        </extensions>
      </trkpt>
      <trkpt lat="47.56223087199032306671142578125" lon="-3.05623811669647693634033203125">
        <ele>3</ele>
        <time>2026-08-15T17:15:01.000Z</time>
        <extensions>
          <ns3:TrackPointExtension>
            <ns3:hr>97</ns3:hr>
          </ns3:TrackPointExtension>
        </extensions>
      </trkpt>
      <trkpt lat="47.56222500465810298919677734375" lon="-3.05623392574489116668701171875">
        <ele>3</ele>
        <time>2026-08-15T17:15:02.000Z</time>
        <extensions>
          <ns3:TrackPointExtension>
            <ns3:hr>97</ns3:hr>
          </ns3:TrackPointExtension>
        </extensions>
      </trkpt>
      <trkpt lat="47.5622131861746311187744140625" lon="-3.0562224425375461578369140625">
        <ele>3</ele>
        <time>2026-08-15T17:15:03.000Z</time>
        <extensions>
          <ns3:TrackPointExtension>
            <ns3:hr>98</ns3:hr>
          </ns3:TrackPointExtension>
        </extensions>
      </trkpt>
      <trkpt lat="47.56219960749149322509765625" lon="-3.056220598518848419189453125">
        <ele>2.7999999523162841796875</ele>
        <time>2026-08-15T17:15:04.000Z</time>
        <extensions>
          <ns3:TrackPointExtension>
            <ns3:hr>103</ns3:hr>
          </ns3:TrackPointExtension>
        </extensions>
      </trkpt>
      <trkpt lat="47.5621903873980045318603515625" lon="-3.05621900595724582672119140625">
        <ele>2.7999999523162841796875</ele>
        <time>2026-08-15T17:15:05.000Z</time>
        <extensions>
          <ns3:TrackPointExtension>
            <ns3:hr>108</ns3:hr>
          </ns3:TrackPointExtension>
        </extensions>
      </trkpt>
      <trkpt lat="47.5621893815696239471435546875" lon="-3.05620618164539337158203125">
        <ele>2.7999999523162841796875</ele>
        <time>2026-08-15T17:15:06.000Z</time>
        <extensions>
          <ns3:TrackPointExtension>
            <ns3:hr>110</ns3:hr>
          </ns3:TrackPointExtension>
        </extensions>
      </trkpt>
      <trkpt lat="47.56218996830284595489501953125" lon="-3.0561728216707706451416015625">
        <ele>3</ele>
        <time>2026-08-15T17:15:07.000Z</time>
        <extensions>
          <ns3:TrackPointExtension>
            <ns3:hr>112</ns3:hr>
          </ns3:TrackPointExtension>
        </extensions>
      </trkpt>
      <trkpt lat="47.5621920637786388397216796875" lon="-3.056145496666431427001953125">
        <ele>3</ele>
        <time>2026-08-15T17:15:08.000Z</time>
        <extensions>
          <ns3:TrackPointExtension>
            <ns3:hr>115</ns3:hr>
          </ns3:TrackPointExtension>
        </extensions>
      </trkpt>
      <trkpt lat="47.56219382397830486297607421875" lon="-3.05613786913454532623291015625">
        <ele>3.400000095367431640625</ele>
        <time>2026-08-15T17:15:09.000Z</time>
        <extensions>
          <ns3:TrackPointExtension>
            <ns3:hr>116</ns3:hr>
          </ns3:TrackPointExtension>
        </extensions>
      </trkpt>
      <trkpt lat="47.56219516508281230926513671875" lon="-3.0561567284166812896728515625">
        <ele>3.400000095367431640625</ele>
        <time>2026-08-15T17:15:10.000Z</time>
        <extensions>
          <ns3:TrackPointExtension>
            <ns3:hr>117</ns3:hr>
          </ns3:TrackPointExtension>
        </extensions>
      </trkpt>
      <trkpt lat="47.5621980987489223480224609375" lon="-3.05616603232920169830322265625">
        <ele>3.599999904632568359375</ele>
        <time>2026-08-15T17:15:11.000Z</time>
        <extensions>
          <ns3:TrackPointExtension>
            <ns3:hr>118</ns3:hr>
          </ns3:TrackPointExtension>
        </extensions>
      </trkpt>
      <trkpt lat="47.56220086477696895599365234375" lon="-3.0561684630811214447021484375">
        <ele>3.400000095367431640625</ele>
        <time>2026-08-15T17:15:12.000Z</time>
        <extensions>
          <ns3:TrackPointExtension>
            <ns3:hr>118</ns3:hr>
          </ns3:TrackPointExtension>
        </extensions>
      </trkpt>
      <trkpt lat="47.56219558417797088623046875" lon="-3.0561490170657634735107421875">
        <ele>3.400000095367431640625</ele>
        <time>2026-08-15T17:15:13.000Z</time>
        <extensions>
          <ns3:TrackPointExtension>
            <ns3:hr>119</ns3:hr>
          </ns3:TrackPointExtension>
        </extensions>
      </trkpt>
      <trkpt lat="47.56219600327312946319580078125" lon="-3.05614960379898548126220703125">
        <ele>3.400000095367431640625</ele>
        <time>2026-08-15T17:15:14.000Z</time>
        <extensions>
          <ns3:TrackPointExtension>
            <ns3:hr>119</ns3:hr>
          </ns3:TrackPointExtension>
        </extensions>
      </trkpt>
      <trkpt lat="47.5621949136257171630859375" lon="-3.0561560578644275665283203125">
        <ele>3.400000095367431640625</ele>
        <time>2026-08-15T17:15:15.000Z</time>
        <extensions>
          <ns3:TrackPointExtension>
            <ns3:hr>119</ns3:hr>
          </ns3:TrackPointExtension>
        </extensions>
      </trkpt>
      <trkpt lat="47.5621970929205417633056640625" lon="-3.05616083554923534393310546875">
        <ele>3.400000095367431640625</ele>
        <time>2026-08-15T17:15:16.000Z</time>
        <extensions>
          <ns3:TrackPointExtension>
            <ns3:hr>119</ns3:hr>
          </ns3:TrackPointExtension>
        </extensions>
      </trkpt>
      <trkpt lat="47.56219960749149322509765625" lon="-3.0561600811779499053955078125">
        <ele>2.7999999523162841796875</ele>
        <time>2026-08-15T17:15:17.000Z</time>
        <extensions>
          <ns3:TrackPointExtension>
            <ns3:hr>119</ns3:hr>
          </ns3:TrackPointExtension>
        </extensions>
      </trkpt>
      <trkpt lat="47.562203295528888702392578125" lon="-3.056154884397983551025390625">
        <ele>2.400000095367431640625</ele>
        <time>2026-08-15T17:15:18.000Z</time>
        <extensions>
          <ns3:TrackPointExtension>
            <ns3:hr>119</ns3:hr>
          </ns3:TrackPointExtension>
        </extensions>
      </trkpt>
      <trkpt lat="47.56220304407179355621337890625" lon="-3.05615848861634731292724609375">
        <ele>1.60000002384185791015625</ele>
        <time>2026-08-15T17:15:19.000Z</time>
        <extensions>
          <ns3:TrackPointExtension>
            <ns3:hr>119</ns3:hr>
          </ns3:TrackPointExtension>
        </extensions>
      </trkpt>
      <trkpt lat="47.56220036186277866363525390625" lon="-3.0561560578644275665283203125">
        <ele>1.2000000476837158203125</ele>
        <time>2026-08-15T17:15:20.000Z</time>
        <extensions>
          <ns3:TrackPointExtension>
            <ns3:hr>120</ns3:hr>
          </ns3:TrackPointExtension>
        </extensions>
      </trkpt>
      <trkpt lat="47.5621897168457508087158203125" lon="-3.056143820285797119140625">
        <ele>0.4000000059604644775390625</ele>
        <time>2026-08-15T17:15:21.000Z</time>
        <extensions>
          <ns3:TrackPointExtension>
            <ns3:hr>120</ns3:hr>
          </ns3:TrackPointExtension>
        </extensions>
      </trkpt>
      <trkpt lat="47.56217873655259609222412109375" lon="-3.056144826114177703857421875">
        <ele>0.20000000298023223876953125</ele>
        <time>2026-08-15T17:15:22.000Z</time>
        <extensions>
          <ns3:TrackPointExtension>
            <ns3:hr>124</ns3:hr>
          </ns3:TrackPointExtension>
        </extensions>
      </trkpt>
      <trkpt lat="47.562177479267120361328125" lon="-3.05614977143704891204833984375">
        <ele>-0.800000011920928955078125</ele>
        <time>2026-08-15T17:15:23.000Z</time>
        <extensions>
          <ns3:TrackPointExtension>
            <ns3:hr>129</ns3:hr>
          </ns3:TrackPointExtension>
        </extensions>
      </trkpt>
      <trkpt lat="47.5621809996664524078369140625" lon="-3.05613468401134014129638671875">
        <ele>-0.800000011920928955078125</ele>
        <time>2026-08-15T17:15:24.000Z</time>
        <extensions>
          <ns3:TrackPointExtension>
            <ns3:hr>131</ns3:hr>
          </ns3:TrackPointExtension>
        </extensions>
      </trkpt>
      <trkpt lat="47.562185861170291900634765625" lon="-3.056134767830371856689453125">
        <ele>-0.20000000298023223876953125</ele>
        <time>2026-08-15T17:15:25.000Z</time>
        <extensions>
          <ns3:TrackPointExtension>
            <ns3:hr>132</ns3:hr>
          </ns3:TrackPointExtension>
        </extensions>
      </trkpt>
      <trkpt lat="47.5621870346367359161376953125" lon="-3.0561322532594203948974609375">
        <ele>0.800000011920928955078125</ele>
        <time>2026-08-15T17:15:26.000Z</time>
        <extensions>
          <ns3:TrackPointExtension>
            <ns3:hr>133</ns3:hr>
          </ns3:TrackPointExtension>
        </extensions>
      </trkpt>
      <trkpt lat="47.5621890462934970855712890625" lon="-3.05612571537494659423828125">
        <ele>1.60000002384185791015625</ele>
        <time>2026-08-15T17:15:27.000Z</time>
        <extensions>
          <ns3:TrackPointExtension>
            <ns3:hr>133</ns3:hr>
          </ns3:TrackPointExtension>
        </extensions>
      </trkpt>
      <trkpt lat="47.562194578349590301513671875" lon="-3.056126721203327178955078125">
        <ele>1.7999999523162841796875</ele>
        <time>2026-08-15T17:15:28.000Z</time>
        <extensions>
          <ns3:TrackPointExtension>
            <ns3:hr>133</ns3:hr>
          </ns3:TrackPointExtension>
        </extensions>
      </trkpt>
      <trkpt lat="47.56219482980668544769287109375" lon="-3.05612965486943721771240234375">
        <ele>2.599999904632568359375</ele>
        <time>2026-08-15T17:15:29.000Z</time>
        <extensions>
          <ns3:TrackPointExtension>
            <ns3:hr>133</ns3:hr>
          </ns3:TrackPointExtension>
        </extensions>
      </trkpt>
      <trkpt lat="47.56220656447112560272216796875" lon="-3.0561317503452301025390625">
        <ele>3.400000095367431640625</ele>
        <time>2026-08-15T17:15:30.000Z</time>
        <extensions>
          <ns3:TrackPointExtension>
            <ns3:hr>133</ns3:hr>
          </ns3:TrackPointExtension>
        </extensions>
      </trkpt>
      <trkpt lat="47.5622068159282207489013671875" lon="-3.056126050651073455810546875">
        <ele>4</ele>
        <time>2026-08-15T17:15:31.000Z</time>
        <extensions>
          <ns3:TrackPointExtension>
            <ns3:hr>132</ns3:hr>
          </ns3:TrackPointExtension>
        </extensions>
      </trkpt>
      <trkpt lat="47.562211342155933380126953125" lon="-3.056119345128536224365234375">
        <ele>4.19999980926513671875</ele>
        <time>2026-08-15T17:15:32.000Z</time>
        <extensions>
          <ns3:TrackPointExtension>
            <ns3:hr>133</ns3:hr>
          </ns3:TrackPointExtension>
        </extensions>
      </trkpt>
      <trkpt lat="47.56221662275493144989013671875" lon="-3.05610828101634979248046875">
        <ele>4.599999904632568359375</ele>
        <time>2026-08-15T17:15:33.000Z</time>
        <extensions>
          <ns3:TrackPointExtension>
            <ns3:hr>134</ns3:hr>
          </ns3:TrackPointExtension>
        </extensions>
      </trkpt>
      <trkpt lat="47.56221762858331203460693359375" lon="-3.05610568262636661529541015625">
        <ele>4.599999904632568359375</ele>
        <time>2026-08-15T17:15:34.000Z</time>
        <extensions>
          <ns3:TrackPointExtension>
            <ns3:hr>135</ns3:hr>
          </ns3:TrackPointExtension>
        </extensions>
      </trkpt>
      <trkpt lat="47.5622299499809741973876953125" lon="-3.05609964765608310699462890625">
        <ele>4.80000019073486328125</ele>
        <time>2026-08-15T17:15:35.000Z</time>
        <extensions>
          <ns3:TrackPointExtension>
            <ns3:hr>136</ns3:hr>
          </ns3:TrackPointExtension>
        </extensions>
      </trkpt>
      <trkpt lat="47.56224227137863636016845703125" lon="-3.0560910142958164215087890625">
        <ele>4.80000019073486328125</ele>
        <time>2026-08-15T17:15:36.000Z</time>
        <extensions>
          <ns3:TrackPointExtension>
            <ns3:hr>136</ns3:hr>
          </ns3:TrackPointExtension>
        </extensions>
      </trkpt>
      <trkpt lat="47.562253586947917938232421875" lon="-3.05608288384974002838134765625">
        <ele>5</ele>
        <time>2026-08-15T17:15:37.000Z</time>
        <extensions>
          <ns3:TrackPointExtension>
            <ns3:hr>135</ns3:hr>
          </ns3:TrackPointExtension>
        </extensions>
      </trkpt>
      <trkpt lat="47.5622664950788021087646484375" lon="-3.05607114918529987335205078125">
        <ele>5</ele>
        <time>2026-08-15T17:15:38.000Z</time>
        <extensions>
          <ns3:TrackPointExtension>
            <ns3:hr>135</ns3:hr>
          </ns3:TrackPointExtension>
        </extensions>
      </trkpt>
      <trkpt lat="47.5622805766761302947998046875" lon="-3.0560605041682720184326171875">
        <ele>5</ele>
        <time>2026-08-15T17:15:39.000Z</time>
        <extensions>
          <ns3:TrackPointExtension>
            <ns3:hr>134</ns3:hr>
          </ns3:TrackPointExtension>
        </extensions>
      </trkpt>
      <trkpt lat="47.562292478978633880615234375" lon="-3.05604835040867328643798828125">
        <ele>5</ele>
        <time>2026-08-15T17:15:40.000Z</time>
        <extensions>
          <ns3:TrackPointExtension>
            <ns3:hr>133</ns3:hr>
          </ns3:TrackPointExtension>
        </extensions>
      </trkpt>
      <trkpt lat="47.5623035430908203125" lon="-3.0560353584587574005126953125">
        <ele>5</ele>
        <time>2026-08-15T17:15:41.000Z</time>
        <extensions>
          <ns3:TrackPointExtension>
            <ns3:hr>133</ns3:hr>
          </ns3:TrackPointExtension>
        </extensions>
      </trkpt>
      <trkpt lat="47.56232022307813167572021484375" lon="-3.05602152831852436065673828125">
        <ele>5</ele>
        <time>2026-08-15T17:15:42.000Z</time>
        <extensions>
          <ns3:TrackPointExtension>
            <ns3:hr>132</ns3:hr>
          </ns3:TrackPointExtension>
        </extensions>
      </trkpt>
      <trkpt lat="47.56233631633222103118896484375" lon="-3.05600593797862529754638671875">
        <ele>5</ele>
        <time>2026-08-15T17:15:43.000Z</time>
        <extensions>
          <ns3:TrackPointExtension>
            <ns3:hr>132</ns3:hr>
          </ns3:TrackPointExtension>
        </extensions>
      </trkpt>
      <trkpt lat="47.562354840338230133056640625" lon="-3.05598095990717411041259765625">
        <ele>5.19999980926513671875</ele>
        <time>2026-08-15T17:15:44.000Z</time>
        <extensions>
          <ns3:TrackPointExtension>
            <ns3:hr>132</ns3:hr>
          </ns3:TrackPointExtension>
        </extensions>
      </trkpt>
      <trkpt lat="47.562374956905841827392578125" lon="-3.0559481866657733917236328125">
        <ele>5.19999980926513671875</ele>
        <time>2026-08-15T17:15:45.000Z</time>
        <extensions>
          <ns3:TrackPointExtension>
            <ns3:hr>131</ns3:hr>
          </ns3:TrackPointExtension>
        </extensions>
      </trkpt>
      <trkpt lat="47.56239314563572406768798828125" lon="-3.05590904317796230316162109375">
        <ele>5</ele>
        <time>2026-08-15T17:15:46.000Z</time>
        <extensions>
          <ns3:TrackPointExtension>
            <ns3:hr>131</ns3:hr>
          </ns3:TrackPointExtension>
        </extensions>
      </trkpt>
      <trkpt lat="47.562416531145572662353515625" lon="-3.05586017668247222900390625">
        <ele>5</ele>
        <time>2026-08-15T17:15:47.000Z</time>
        <extensions>
          <ns3:TrackPointExtension>
            <ns3:hr>131</ns3:hr>
          </ns3:TrackPointExtension>
        </extensions>
      </trkpt>
      <trkpt lat="47.56243874318897724151611328125" lon="-3.05581969209015369415283203125">
        <ele>4.400000095367431640625</ele>
        <time>2026-08-15T17:15:48.000Z</time>
        <extensions>
          <ns3:TrackPointExtension>
            <ns3:hr>130</ns3:hr>
          </ns3:TrackPointExtension>
        </extensions>
      </trkpt>
      <trkpt lat="47.562462799251079559326171875" lon="-3.05578239262104034423828125">
        <ele>3.599999904632568359375</ele>
        <time>2026-08-15T17:15:49.000Z</time>
        <extensions>
          <ns3:TrackPointExtension>
            <ns3:hr>130</ns3:hr>
          </ns3:TrackPointExtension>
        </extensions>
      </trkpt>
      <trkpt lat="47.56249071098864078521728515625" lon="-3.05574475787580013275146484375">
        <ele>3.599999904632568359375</ele>
        <time>2026-08-15T17:15:50.000Z</time>
        <extensions>
          <ns3:TrackPointExtension>
            <ns3:hr>130</ns3:hr>
          </ns3:TrackPointExtension>
        </extensions>
      </trkpt>
      <trkpt lat="47.56252306513488292694091796875" lon="-3.05570385418832302093505859375">
        <ele>3.599999904632568359375</ele>
        <time>2026-08-15T17:15:51.000Z</time>
        <extensions>
          <ns3:TrackPointExtension>
            <ns3:hr>129</ns3:hr>
          </ns3:TrackPointExtension>
        </extensions>
      </trkpt>
      <trkpt lat="47.56255558691918849945068359375" lon="-3.055659346282482147216796875">
        <ele>3.599999904632568359375</ele>
        <time>2026-08-15T17:15:52.000Z</time>
        <extensions>
          <ns3:TrackPointExtension>
            <ns3:hr>129</ns3:hr>
          </ns3:TrackPointExtension>
        </extensions>
      </trkpt>
      <trkpt lat="47.5625917129218578338623046875" lon="-3.05561802349984645843505859375">
        <ele>3.7999999523162841796875</ele>
        <time>2026-08-15T17:15:53.000Z</time>
        <extensions>
          <ns3:TrackPointExtension>
            <ns3:hr>129</ns3:hr>
          </ns3:TrackPointExtension>
        </extensions>
      </trkpt>
      <trkpt lat="47.5626299344003200531005859375" lon="-3.0555770359933376312255859375">
        <ele>3.7999999523162841796875</ele>
        <time>2026-08-15T17:15:54.000Z</time>
        <extensions>
          <ns3:TrackPointExtension>
            <ns3:hr>129</ns3:hr>
          </ns3:TrackPointExtension>
        </extensions>
      </trkpt>
      <trkpt lat="47.56266891025006771087646484375" lon="-3.05552230216562747955322265625">
        <ele>4</ele>
        <time>2026-08-15T17:15:55.000Z</time>
        <extensions>
          <ns3:TrackPointExtension>
            <ns3:hr>129</ns3:hr>
          </ns3:TrackPointExtension>
        </extensions>
      </trkpt>
      <trkpt lat="47.5627077184617519378662109375" lon="-3.0554734356701374053955078125">
        <ele>4</ele>
        <time>2026-08-15T17:15:56.000Z</time>
        <extensions>
          <ns3:TrackPointExtension>
            <ns3:hr>129</ns3:hr>
          </ns3:TrackPointExtension>
        </extensions>
      </trkpt>
      <trkpt lat="47.56275574676692485809326171875" lon="-3.05543370544910430908203125">
        <ele>4.19999980926513671875</ele>
        <time>2026-08-15T17:15:57.000Z</time>
        <extensions>
          <ns3:TrackPointExtension>
            <ns3:hr>129</ns3:hr>
          </ns3:TrackPointExtension>
        </extensions>
      </trkpt>
      <trkpt lat="47.56280235014855861663818359375" lon="-3.05539674125611782073974609375">
        <ele>4.599999904632568359375</ele>
        <time>2026-08-15T17:15:58.000Z</time>
        <extensions>
          <ns3:TrackPointExtension>
            <ns3:hr>129</ns3:hr>
          </ns3:TrackPointExtension>
        </extensions>
      </trkpt>
      <trkpt lat="47.56284459494054317474365234375" lon="-3.05534896440804004669189453125">
        <ele>4.599999904632568359375</ele>
        <time>2026-08-15T17:15:59.000Z</time>
        <extensions>
          <ns3:TrackPointExtension>
            <ns3:hr>130</ns3:hr>
          </ns3:TrackPointExtension>
        </extensions>
      </trkpt>
      <trkpt lat="47.5628922879695892333984375" lon="-3.05530504323542118072509765625">
        <ele>4.599999904632568359375</ele>
        <time>2026-08-15T17:16:00.000Z</time>
        <extensions>
          <ns3:TrackPointExtension>
            <ns3:hr>131</ns3:hr>
          </ns3:TrackPointExtension>
        </extensions>
      </trkpt>
      <trkpt lat="47.56294819526374340057373046875" lon="-3.055266402661800384521484375">
        <ele>4.80000019073486328125</ele>
        <time>2026-08-15T17:16:01.000Z</time>
        <extensions>
          <ns3:TrackPointExtension>
            <ns3:hr>133</ns3:hr>
          </ns3:TrackPointExtension>
        </extensions>
      </trkpt>
      <trkpt lat="47.56300468929111957550048828125" lon="-3.05522960610687732696533203125">
        <ele>5</ele>
        <time>2026-08-15T17:16:02.000Z</time>
        <extensions>
          <ns3:TrackPointExtension>
            <ns3:hr>133</ns3:hr>
          </ns3:TrackPointExtension>
        </extensions>
      </trkpt>
      <trkpt lat="47.56306135095655918121337890625" lon="-3.05518652312457561492919921875">
        <ele>5</ele>
        <time>2026-08-15T17:16:03.000Z</time>
        <extensions>
          <ns3:TrackPointExtension>
            <ns3:hr>133</ns3:hr>
          </ns3:TrackPointExtension>
        </extensions>
      </trkpt>
      <trkpt lat="47.56311365403234958648681640625" lon="-3.05514268577098846435546875">
        <ele>5.19999980926513671875</ele>
        <time>2026-08-15T17:16:04.000Z</time>
        <extensions>
          <ns3:TrackPointExtension>
            <ns3:hr>133</ns3:hr>
          </ns3:TrackPointExtension>
        </extensions>
      </trkpt>
      <trkpt lat="47.56316713057458400726318359375" lon="-3.05509440600872039794921875">
        <ele>5.19999980926513671875</ele>
        <time>2026-08-15T17:16:05.000Z</time>
        <extensions>
          <ns3:TrackPointExtension>
            <ns3:hr>132</ns3:hr>
          </ns3:TrackPointExtension>
        </extensions>
      </trkpt>
      <trkpt lat="47.563222534954547882080078125" lon="-3.055044449865818023681640625">
        <ele>5</ele>
        <time>2026-08-15T17:16:06.000Z</time>
        <extensions>
          <ns3:TrackPointExtension>
            <ns3:hr>132</ns3:hr>
          </ns3:TrackPointExtension>
        </extensions>
      </trkpt>
      <trkpt lat="47.56327056325972080230712890625" lon="-3.05499440990388393402099609375">
        <ele>4.599999904632568359375</ele>
        <time>2026-08-15T17:16:07.000Z</time>
        <extensions>
          <ns3:TrackPointExtension>
            <ns3:hr>131</ns3:hr>
          </ns3:TrackPointExtension>
        </extensions>
      </trkpt>
      <trkpt lat="47.56332973949611186981201171875" lon="-3.05494763888418674468994140625">
        <ele>4.599999904632568359375</ele>
        <time>2026-08-15T17:16:08.000Z</time>
        <extensions>
          <ns3:TrackPointExtension>
            <ns3:hr>130</ns3:hr>
          </ns3:TrackPointExtension>
        </extensions>
      </trkpt>
      <trkpt lat="47.56338992156088352203369140625" lon="-3.0548994429409503936767578125">
        <ele>4.599999904632568359375</ele>
        <time>2026-08-15T17:16:09.000Z</time>
        <extensions>
          <ns3:TrackPointExtension>
            <ns3:hr>128</ns3:hr>
          </ns3:TrackPointExtension>
        </extensions>
      </trkpt>
      <trkpt lat="47.56344138644635677337646484375" lon="-3.05484169162809848785400390625">
        <ele>4.400000095367431640625</ele>
        <time>2026-08-15T17:16:10.000Z</time>
        <extensions>
          <ns3:TrackPointExtension>
            <ns3:hr>127</ns3:hr>
          </ns3:TrackPointExtension>
        </extensions>
      </trkpt>
      <trkpt lat="47.56349469535052776336669921875" lon="-3.05478486232459545135498046875">
        <ele>4.400000095367431640625</ele>
        <time>2026-08-15T17:16:11.000Z</time>
        <extensions>
          <ns3:TrackPointExtension>
            <ns3:hr>126</ns3:hr>
          </ns3:TrackPointExtension>
        </extensions>
      </trkpt>
      <trkpt lat="47.56355219520628452301025390625" lon="-3.0547341518104076385498046875">
        <ele>4.400000095367431640625</ele>
        <time>2026-08-15T17:16:12.000Z</time>
        <extensions>
          <ns3:TrackPointExtension>
            <ns3:hr>126</ns3:hr>
          </ns3:TrackPointExtension>
        </extensions>
      </trkpt>
      <trkpt lat="47.56361422128975391387939453125" lon="-3.054695092141628265380859375">
        <ele>4.599999904632568359375</ele>
        <time>2026-08-15T17:16:13.000Z</time>
        <extensions>
          <ns3:TrackPointExtension>
            <ns3:hr>125</ns3:hr>
          </ns3:TrackPointExtension>
        </extensions>
      </trkpt>
      <trkpt lat="47.5636786781251430511474609375" lon="-3.05465963669121265411376953125">
        <ele>4.599999904632568359375</ele>
        <time>2026-08-15T17:16:14.000Z</time>
        <extensions>
          <ns3:TrackPointExtension>
            <ns3:hr>125</ns3:hr>
          </ns3:TrackPointExtension>
        </extensions>
      </trkpt>
      <trkpt lat="47.563738860189914703369140625" lon="-3.05461722426116466522216796875">
        <ele>4.599999904632568359375</ele>
        <time>2026-08-15T17:16:15.000Z</time>
        <extensions>
          <ns3:TrackPointExtension>
            <ns3:hr>124</ns3:hr>
          </ns3:TrackPointExtension>
        </extensions>
      </trkpt>
      <trkpt lat="47.5638023950159549713134765625" lon="-3.05456827394664287567138671875">
        <ele>4.80000019073486328125</ele>
        <time>2026-08-15T17:16:16.000Z</time>
        <extensions>
          <ns3:TrackPointExtension>
            <ns3:hr>125</ns3:hr>
          </ns3:TrackPointExtension>
        </extensions>
      </trkpt>
      <trkpt lat="47.563867270946502685546875" lon="-3.05452016182243824005126953125">
        <ele>5</ele>
        <time>2026-08-15T17:16:17.000Z</time>
        <extensions>
          <ns3:TrackPointExtension>
            <ns3:hr>126</ns3:hr>
          </ns3:TrackPointExtension>
        </extensions>
      </trkpt>
      <trkpt lat="47.5639344938099384307861328125" lon="-3.05447624064981937408447265625">
        <ele>5</ele>
        <time>2026-08-15T17:16:18.000Z</time>
        <extensions>
          <ns3:TrackPointExtension>
            <ns3:hr>127</ns3:hr>
          </ns3:TrackPointExtension>
        </extensions>
      </trkpt>
      <trkpt lat="47.5639965198934078216552734375" lon="-3.0544307269155979156494140625">
        <ele>5</ele>
        <time>2026-08-15T17:16:19.000Z</time>
        <extensions>
          <ns3:TrackPointExtension>
            <ns3:hr>128</ns3:hr>
          </ns3:TrackPointExtension>
        </extensions>
      </trkpt>
      <trkpt lat="47.56405728869140148162841796875" lon="-3.05437834002077579498291015625">
        <ele>4.80000019073486328125</ele>
        <time>2026-08-15T17:16:20.000Z</time>
        <extensions>
          <ns3:TrackPointExtension>
            <ns3:hr>128</ns3:hr>
          </ns3:TrackPointExtension>
        </extensions>
      </trkpt>
      <trkpt lat="47.5641142018139362335205078125" lon="-3.05432318709790706634521484375">
        <ele>4.80000019073486328125</ele>
        <time>2026-08-15T17:16:21.000Z</time>
        <extensions>
          <ns3:TrackPointExtension>
            <ns3:hr>127</ns3:hr>
          </ns3:TrackPointExtension>
        </extensions>
      </trkpt>
      <trkpt lat="47.564175389707088470458984375" lon="-3.05427624844014644622802734375">
        <ele>4.80000019073486328125</ele>
        <time>2026-08-15T17:16:22.000Z</time>
        <extensions>
          <ns3:TrackPointExtension>
            <ns3:hr>127</ns3:hr>
          </ns3:TrackPointExtension>
        </extensions>
      </trkpt>
      <trkpt lat="47.564231045544147491455078125" lon="-3.0542312376201152801513671875">
        <ele>4.400000095367431640625</ele>
        <time>2026-08-15T17:16:23.000Z</time>
        <extensions>
          <ns3:TrackPointExtension>
            <ns3:hr>127</ns3:hr>
          </ns3:TrackPointExtension>
        </extensions>
      </trkpt>
      <trkpt lat="47.56428929977118968963623046875" lon="-3.0541903339326381683349609375">
        <ele>4.599999904632568359375</ele>
        <time>2026-08-15T17:16:24.000Z</time>
        <extensions>
          <ns3:TrackPointExtension>
            <ns3:hr>127</ns3:hr>
          </ns3:TrackPointExtension>
        </extensions>
      </trkpt>
      <trkpt lat="47.564348392188549041748046875" lon="-3.0541531182825565338134765625">
        <ele>4.599999904632568359375</ele>
        <time>2026-08-15T17:16:25.000Z</time>
        <extensions>
          <ns3:TrackPointExtension>
            <ns3:hr>127</ns3:hr>
          </ns3:TrackPointExtension>
        </extensions>
      </trkpt>
      <trkpt lat="47.564408741891384124755859375" lon="-3.05411162786185741424560546875">
        <ele>4.80000019073486328125</ele>
        <time>2026-08-15T17:16:26.000Z</time>
        <extensions>
          <ns3:TrackPointExtension>
            <ns3:hr>126</ns3:hr>
          </ns3:TrackPointExtension>
        </extensions>
      </trkpt>
      <trkpt lat="47.5644721090793609619140625" lon="-3.05407374165952205657958984375">
        <ele>5</ele>
        <time>2026-08-15T17:16:27.000Z</time>
        <extensions>
          <ns3:TrackPointExtension>
            <ns3:hr>125</ns3:hr>
          </ns3:TrackPointExtension>
        </extensions>
      </trkpt>
      <trkpt lat="47.5645343028008937835693359375" lon="-3.054033927619457244873046875">
        <ele>5</ele>
        <time>2026-08-15T17:16:28.000Z</time>
        <extensions>
          <ns3:TrackPointExtension>
            <ns3:hr>125</ns3:hr>
          </ns3:TrackPointExtension>
        </extensions>
      </trkpt>
      <trkpt lat="47.56459884345531463623046875" lon="-3.05400132201611995697021484375">
        <ele>4.599999904632568359375</ele>
        <time>2026-08-15T17:16:29.000Z</time>
        <extensions>
          <ns3:TrackPointExtension>
            <ns3:hr>128</ns3:hr>
          </ns3:TrackPointExtension>
        </extensions>
      </trkpt>
      <trkpt lat="47.5646664015948772430419921875" lon="-3.05396745912730693817138671875">
        <ele>4.400000095367431640625</ele>
        <time>2026-08-15T17:16:30.000Z</time>
        <extensions>
          <ns3:TrackPointExtension>
            <ns3:hr>133</ns3:hr>
          </ns3:TrackPointExtension>
        </extensions>
      </trkpt>
      <trkpt lat="47.5647297687828540802001953125" lon="-3.05392764508724212646484375">
        <ele>4</ele>
        <time>2026-08-15T17:16:31.000Z</time>
        <extensions>
          <ns3:TrackPointExtension>
            <ns3:hr>140</ns3:hr>
          </ns3:TrackPointExtension>
        </extensions>
      </trkpt>
      <trkpt lat="47.56478936411440372467041015625" lon="-3.0538808740675449371337890625">
        <ele>3.7999999523162841796875</ele>
        <time>2026-08-15T17:16:32.000Z</time>
        <extensions>
          <ns3:TrackPointExtension>
            <ns3:hr>144</ns3:hr>
          </ns3:TrackPointExtension>
        </extensions>
      </trkpt>
      <trkpt lat="47.56484962999820709228515625" lon="-3.05382932536303997039794921875">
        <ele>3.7999999523162841796875</ele>
        <time>2026-08-15T17:16:33.000Z</time>
        <extensions>
          <ns3:TrackPointExtension>
            <ns3:hr>150</ns3:hr>
          </ns3:TrackPointExtension>
        </extensions>
      </trkpt>
      <trkpt lat="47.56491023115813732147216796875" lon="-3.05377618409693241119384765625">
        <ele>3.7999999523162841796875</ele>
        <time>2026-08-15T17:16:34.000Z</time>
        <extensions>
          <ns3:TrackPointExtension>
            <ns3:hr>155</ns3:hr>
          </ns3:TrackPointExtension>
        </extensions>
      </trkpt>
      <trkpt lat="47.56497125141322612762451171875" lon="-3.0537231266498565673828125">
        <ele>3.7999999523162841796875</ele>
        <time>2026-08-15T17:16:35.000Z</time>
        <extensions>
          <ns3:TrackPointExtension>
            <ns3:hr>156</ns3:hr>
          </ns3:TrackPointExtension>
        </extensions>
      </trkpt>
      <trkpt lat="47.56503763608634471893310546875" lon="-3.053675852715969085693359375">
        <ele>3.7999999523162841796875</ele>
        <time>2026-08-15T17:16:36.000Z</time>
        <extensions>
          <ns3:TrackPointExtension>
            <ns3:hr>156</ns3:hr>
          </ns3:TrackPointExtension>
        </extensions>
      </trkpt>
      <trkpt lat="47.56509563885629177093505859375" lon="-3.053624220192432403564453125">
        <ele>3.7999999523162841796875</ele>
        <time>2026-08-15T17:16:37.000Z</time>
        <extensions>
          <ns3:TrackPointExtension>
            <ns3:hr>157</ns3:hr>
          </ns3:TrackPointExtension>
        </extensions>
      </trkpt>
      <trkpt lat="47.5651626102626323699951171875" lon="-3.0535707436501979827880859375">
        <ele>4</ele>
        <time>2026-08-15T17:16:38.000Z</time>
        <extensions>
          <ns3:TrackPointExtension>
            <ns3:hr>156</ns3:hr>
          </ns3:TrackPointExtension>
        </extensions>
      </trkpt>
      <trkpt lat="47.56522941403090953826904296875" lon="-3.0535197816789150238037109375">
        <ele>4.19999980926513671875</ele>
        <time>2026-08-15T17:16:39.000Z</time>
        <extensions>
          <ns3:TrackPointExtension>
            <ns3:hr>156</ns3:hr>
          </ns3:TrackPointExtension>
        </extensions>
      </trkpt>
      <trkpt lat="47.56529244594275951385498046875" lon="-3.05347141809761524200439453125">
        <ele>4.19999980926513671875</ele>
        <time>2026-08-15T17:16:40.000Z</time>
        <extensions>
          <ns3:TrackPointExtension>
            <ns3:hr>156</ns3:hr>
          </ns3:TrackPointExtension>
        </extensions>
      </trkpt>
      <trkpt lat="47.565352208912372589111328125" lon="-3.05342699401080608367919921875">
        <ele>4.19999980926513671875</ele>
        <time>2026-08-15T17:16:41.000Z</time>
        <extensions>
          <ns3:TrackPointExtension>
            <ns3:hr>156</ns3:hr>
          </ns3:TrackPointExtension>
        </extensions>
      </trkpt>
      <trkpt lat="47.5654144026339054107666015625" lon="-3.05337687022984027862548828125">
        <ele>4.400000095367431640625</ele>
        <time>2026-08-15T17:16:42.000Z</time>
        <extensions>
          <ns3:TrackPointExtension>
            <ns3:hr>156</ns3:hr>
          </ns3:TrackPointExtension>
        </extensions>
      </trkpt>
      <trkpt lat="47.56547634489834308624267578125" lon="-3.05333026684820652008056640625">
        <ele>4.19999980926513671875</ele>
        <time>2026-08-15T17:16:43.000Z</time>
        <extensions>
          <ns3:TrackPointExtension>
            <ns3:hr>156</ns3:hr>
          </ns3:TrackPointExtension>
        </extensions>
      </trkpt>
      <trkpt lat="47.56553669460117816925048828125" lon="-3.05327561683952808380126953125">
        <ele>4.19999980926513671875</ele>
        <time>2026-08-15T17:16:44.000Z</time>
        <extensions>
          <ns3:TrackPointExtension>
            <ns3:hr>155</ns3:hr>
          </ns3:TrackPointExtension>
        </extensions>
      </trkpt>
      <trkpt lat="47.56559536792337894439697265625" lon="-3.05322281084954738616943359375">
        <ele>4.19999980926513671875</ele>
        <time>2026-08-15T17:16:45.000Z</time>
        <extensions>
          <ns3:TrackPointExtension>
            <ns3:hr>155</ns3:hr>
          </ns3:TrackPointExtension>
        </extensions>
      </trkpt>
      <trkpt lat="47.56565538235008716583251953125" lon="-3.05316983722150325775146484375">
        <ele>4.400000095367431640625</ele>
        <time>2026-08-15T17:16:46.000Z</time>
        <extensions>
          <ns3:TrackPointExtension>
            <ns3:hr>155</ns3:hr>
          </ns3:TrackPointExtension>
        </extensions>
      </trkpt>
      <trkpt lat="47.56571573205292224884033203125" lon="-3.05311853997409343719482421875">
        <ele>4.400000095367431640625</ele>
        <time>2026-08-15T17:16:47.000Z</time>
        <extensions>
          <ns3:TrackPointExtension>
            <ns3:hr>152</ns3:hr>
          </ns3:TrackPointExtension>
        </extensions>
      </trkpt>
      <trkpt lat="47.56577691994607448577880859375" lon="-3.053061962127685546875">
        <ele>4.400000095367431640625</ele>
        <time>2026-08-15T17:16:48.000Z</time>
        <extensions>
          <ns3:TrackPointExtension>
            <ns3:hr>151</ns3:hr>
          </ns3:TrackPointExtension>
        </extensions>
      </trkpt>
      <trkpt lat="47.56583156995475292205810546875" lon="-3.053001947700977325439453125">
        <ele>4.599999904632568359375</ele>
        <time>2026-08-15T17:16:49.000Z</time>
        <extensions>
          <ns3:TrackPointExtension>
            <ns3:hr>150</ns3:hr>
          </ns3:TrackPointExtension>
        </extensions>
      </trkpt>
      <trkpt lat="47.56589342840015888214111328125" lon="-3.05294821970164775848388671875">
        <ele>4.80000019073486328125</ele>
        <time>2026-08-15T17:16:50.000Z</time>
        <extensions>
          <ns3:TrackPointExtension>
            <ns3:hr>150</ns3:hr>
          </ns3:TrackPointExtension>
        </extensions>
      </trkpt>
      <trkpt lat="47.5659580528736114501953125" lon="-3.0529042147099971771240234375">
        <ele>4.80000019073486328125</ele>
        <time>2026-08-15T17:16:51.000Z</time>
        <extensions>
          <ns3:TrackPointExtension>
            <ns3:hr>150</ns3:hr>
          </ns3:TrackPointExtension>
        </extensions>
      </trkpt>
      <trkpt lat="47.56602334789931774139404296875" lon="-3.0528669990599155426025390625">
        <ele>4.80000019073486328125</ele>
        <time>2026-08-15T17:16:52.000Z</time>
        <extensions>
          <ns3:TrackPointExtension>
            <ns3:hr>149</ns3:hr>
          </ns3:TrackPointExtension>
        </extensions>
      </trkpt>
      <trkpt lat="47.566089816391468048095703125" lon="-3.052823245525360107421875">
        <ele>5</ele>
        <time>2026-08-15T17:16:53.000Z</time>
        <extensions>
          <ns3:TrackPointExtension>
            <ns3:hr>149</ns3:hr>
          </ns3:TrackPointExtension>
        </extensions>
      </trkpt>
      <trkpt lat="47.56615192629396915435791015625" lon="-3.05277303792536258697509765625">
        <ele>5</ele>
        <time>2026-08-15T17:16:54.000Z</time>
        <extensions>
          <ns3:TrackPointExtension>
            <ns3:hr>148</ns3:hr>
          </ns3:TrackPointExtension>
        </extensions>
      </trkpt>
      <trkpt lat="47.56621261127293109893798828125" lon="-3.052716962993144989013671875">
        <ele>5</ele>
        <time>2026-08-15T17:16:55.000Z</time>
        <extensions>
          <ns3:TrackPointExtension>
            <ns3:hr>147</ns3:hr>
          </ns3:TrackPointExtension>
        </extensions>
      </trkpt>
      <trkpt lat="47.56627514027059078216552734375" lon="-3.0526668392121791839599609375">
        <ele>4.80000019073486328125</ele>
        <time>2026-08-15T17:16:56.000Z</time>
        <extensions>
          <ns3:TrackPointExtension>
            <ns3:hr>147</ns3:hr>
          </ns3:TrackPointExtension>
        </extensions>
      </trkpt>
      <trkpt lat="47.5663407705724239349365234375" lon="-3.0526235885918140411376953125">
        <ele>4.80000019073486328125</ele>
        <time>2026-08-15T17:16:57.000Z</time>
        <extensions>
          <ns3:TrackPointExtension>
            <ns3:hr>147</ns3:hr>
          </ns3:TrackPointExtension>
        </extensions>
      </trkpt>
      <trkpt lat="47.566404640674591064453125" lon="-3.05257715284824371337890625">
        <ele>4.80000019073486328125</ele>
        <time>2026-08-15T17:16:58.000Z</time>
        <extensions>
          <ns3:TrackPointExtension>
            <ns3:hr>146</ns3:hr>
          </ns3:TrackPointExtension>
        </extensions>
      </trkpt>
      <trkpt lat="47.56646725349128246307373046875" lon="-3.05252711288630962371826171875">
        <ele>4.80000019073486328125</ele>
        <time>2026-08-15T17:16:59.000Z</time>
        <extensions>
          <ns3:TrackPointExtension>
            <ns3:hr>146</ns3:hr>
          </ns3:TrackPointExtension>
        </extensions>
      </trkpt>
      <trkpt lat="47.5665298663079738616943359375" lon="-3.05248050950467586517333984375">
        <ele>4.80000019073486328125</ele>
        <time>2026-08-15T17:17:00.000Z</time>
        <extensions>
          <ns3:TrackPointExtension>
            <ns3:hr>145</ns3:hr>
          </ns3:TrackPointExtension>
        </extensions>
      </trkpt>
      <trkpt lat="47.56659583188593387603759765625" lon="-3.05244974792003631591796875">
        <ele>4.80000019073486328125</ele>
        <time>2026-08-15T17:17:01.000Z</time>
        <extensions>
          <ns3:TrackPointExtension>
            <ns3:hr>144</ns3:hr>
          </ns3:TrackPointExtension>
        </extensions>
      </trkpt>
      <trkpt lat="47.5666673295199871063232421875" lon="-3.05241487920284271240234375">
        <ele>4.599999904632568359375</ele>
        <time>2026-08-15T17:17:02.000Z</time>
        <extensions>
          <ns3:TrackPointExtension>
            <ns3:hr>144</ns3:hr>
          </ns3:TrackPointExtension>
        </extensions>
      </trkpt>
      <trkpt lat="47.5667340494692325592041015625" lon="-3.05237808264791965484619140625">
        <ele>4.400000095367431640625</ele>
        <time>2026-08-15T17:17:03.000Z</time>
        <extensions>
          <ns3:TrackPointExtension>
            <ns3:hr>143</ns3:hr>
          </ns3:TrackPointExtension>
        </extensions>
      </trkpt>
      <trkpt lat="47.56679632700979709625244140625" lon="-3.05233483202755451202392578125">
        <ele>4.400000095367431640625</ele>
        <time>2026-08-15T17:17:04.000Z</time>
        <extensions>
          <ns3:TrackPointExtension>
            <ns3:hr>142</ns3:hr>
          </ns3:TrackPointExtension>
        </extensions>
      </trkpt>
      <trkpt lat="47.5668617896735668182373046875" lon="-3.05229627527296543121337890625">
        <ele>4.400000095367431640625</ele>
        <time>2026-08-15T17:17:05.000Z</time>
        <extensions>
          <ns3:TrackPointExtension>
            <ns3:hr>142</ns3:hr>
          </ns3:TrackPointExtension>
        </extensions>
      </trkpt>
      <trkpt lat="47.56693010218441486358642578125" lon="-3.05225931107997894287109375">
        <ele>4.400000095367431640625</ele>
        <time>2026-08-15T17:17:06.000Z</time>
        <extensions>
          <ns3:TrackPointExtension>
            <ns3:hr>141</ns3:hr>
          </ns3:TrackPointExtension>
        </extensions>
      </trkpt>
      <trkpt lat="47.56699229590594768524169921875" lon="-3.05221664719283580780029296875">
        <ele>4.19999980926513671875</ele>
        <time>2026-08-15T17:17:07.000Z</time>
        <extensions>
          <ns3:TrackPointExtension>
            <ns3:hr>140</ns3:hr>
          </ns3:TrackPointExtension>
        </extensions>
      </trkpt>
      <trkpt lat="47.56705298088490962982177734375" lon="-3.05217272602021694183349609375">
        <ele>4.19999980926513671875</ele>
        <time>2026-08-15T17:17:08.000Z</time>
        <extensions>
          <ns3:TrackPointExtension>
            <ns3:hr>139</ns3:hr>
          </ns3:TrackPointExtension>
        </extensions>
      </trkpt>
      <trkpt lat="47.56711131893098354339599609375" lon="-3.0521263740956783294677734375">
        <ele>4.19999980926513671875</ele>
        <time>2026-08-15T17:17:09.000Z</time>
        <extensions>
          <ns3:TrackPointExtension>
            <ns3:hr>138</ns3:hr>
          </ns3:TrackPointExtension>
        </extensions>
      </trkpt>
      <trkpt lat="47.5671769492328166961669921875" lon="-3.0520911701023578643798828125">
        <ele>3.7999999523162841796875</ele>
        <time>2026-08-15T17:17:10.000Z</time>
        <extensions>
          <ns3:TrackPointExtension>
            <ns3:hr>138</ns3:hr>
          </ns3:TrackPointExtension>
        </extensions>
      </trkpt>
      <trkpt lat="47.567239142954349517822265625" lon="-3.0520495958626270294189453125">
        <ele>3.599999904632568359375</ele>
        <time>2026-08-15T17:17:11.000Z</time>
        <extensions>
          <ns3:TrackPointExtension>
            <ns3:hr>137</ns3:hr>
          </ns3:TrackPointExtension>
        </extensions>
      </trkpt>
      <trkpt lat="47.56730108521878719329833984375" lon="-3.05200718343257904052734375">
        <ele>3.400000095367431640625</ele>
        <time>2026-08-15T17:17:12.000Z</time>
        <extensions>
          <ns3:TrackPointExtension>
            <ns3:hr>137</ns3:hr>
          </ns3:TrackPointExtension>
        </extensions>
      </trkpt>
      <trkpt lat="47.56736596114933490753173828125" lon="-3.05196586064994335174560546875">
        <ele>3.400000095367431640625</ele>
        <time>2026-08-15T17:17:13.000Z</time>
        <extensions>
          <ns3:TrackPointExtension>
            <ns3:hr>136</ns3:hr>
          </ns3:TrackPointExtension>
        </extensions>
      </trkpt>
      <trkpt lat="47.567426227033138275146484375" lon="-3.05192311294376850128173828125">
        <ele>3.2000000476837158203125</ele>
        <time>2026-08-15T17:17:14.000Z</time>
        <extensions>
          <ns3:TrackPointExtension>
            <ns3:hr>136</ns3:hr>
          </ns3:TrackPointExtension>
        </extensions>
      </trkpt>
      <trkpt lat="47.56749093532562255859375" lon="-3.051880784332752227783203125">
        <ele>3.2000000476837158203125</ele>
        <time>2026-08-15T17:17:15.000Z</time>
        <extensions>
          <ns3:TrackPointExtension>
            <ns3:hr>136</ns3:hr>
          </ns3:TrackPointExtension>
        </extensions>
      </trkpt>
      <trkpt lat="47.56755354814231395721435546875" lon="-3.05184490978717803955078125">
        <ele>3.2000000476837158203125</ele>
        <time>2026-08-15T17:17:16.000Z</time>
        <extensions>
          <ns3:TrackPointExtension>
            <ns3:hr>136</ns3:hr>
          </ns3:TrackPointExtension>
        </extensions>
      </trkpt>
      <trkpt lat="47.56761574186384677886962890625" lon="-3.05180610157549381256103515625">
        <ele>3</ele>
        <time>2026-08-15T17:17:17.000Z</time>
        <extensions>
          <ns3:TrackPointExtension>
            <ns3:hr>135</ns3:hr>
          </ns3:TrackPointExtension>
        </extensions>
      </trkpt>
      <trkpt lat="47.5676773488521575927734375" lon="-3.05176905356347560882568359375">
        <ele>2.599999904632568359375</ele>
        <time>2026-08-15T17:17:18.000Z</time>
        <extensions>
          <ns3:TrackPointExtension>
            <ns3:hr>134</ns3:hr>
          </ns3:TrackPointExtension>
        </extensions>
      </trkpt>
      <trkpt lat="47.56773979403078556060791015625" lon="-3.05172597058117389678955078125">
        <ele>2.7999999523162841796875</ele>
        <time>2026-08-15T17:17:19.000Z</time>
        <extensions>
          <ns3:TrackPointExtension>
            <ns3:hr>134</ns3:hr>
          </ns3:TrackPointExtension>
        </extensions>
      </trkpt>
      <trkpt lat="47.56779930554330348968505859375" lon="-3.051683641970157623291015625">
        <ele>2.7999999523162841796875</ele>
        <time>2026-08-15T17:17:20.000Z</time>
        <extensions>
          <ns3:TrackPointExtension>
            <ns3:hr>134</ns3:hr>
          </ns3:TrackPointExtension>
        </extensions>
      </trkpt>
      <trkpt lat="47.567861415445804595947265625" lon="-3.05164231918752193450927734375">
        <ele>2.7999999523162841796875</ele>
        <time>2026-08-15T17:17:21.000Z</time>
        <extensions>
          <ns3:TrackPointExtension>
            <ns3:hr>133</ns3:hr>
          </ns3:TrackPointExtension>
        </extensions>
      </trkpt>
      <trkpt lat="47.56792603991925716400146484375" lon="-3.05160895921289920806884765625">
        <ele>3.2000000476837158203125</ele>
        <time>2026-08-15T17:17:22.000Z</time>
        <extensions>
          <ns3:TrackPointExtension>
            <ns3:hr>133</ns3:hr>
          </ns3:TrackPointExtension>
        </extensions>
      </trkpt>
      <trkpt lat="47.56799183785915374755859375" lon="-3.051576353609561920166015625">
        <ele>3.400000095367431640625</ele>
        <time>2026-08-15T17:17:23.000Z</time>
        <extensions>
          <ns3:TrackPointExtension>
            <ns3:hr>132</ns3:hr>
          </ns3:TrackPointExtension>
        </extensions>
      </trkpt>
      <trkpt lat="47.568053863942623138427734375" lon="-3.05153922177851200103759765625">
        <ele>3.2000000476837158203125</ele>
        <time>2026-08-15T17:17:24.000Z</time>
        <extensions>
          <ns3:TrackPointExtension>
            <ns3:hr>132</ns3:hr>
          </ns3:TrackPointExtension>
        </extensions>
      </trkpt>
      <trkpt lat="47.56811547093093395233154296875" lon="-3.05149697698652744293212890625">
        <ele>2.7999999523162841796875</ele>
        <time>2026-08-15T17:17:25.000Z</time>
        <extensions>
          <ns3:TrackPointExtension>
            <ns3:hr>131</ns3:hr>
          </ns3:TrackPointExtension>
        </extensions>
      </trkpt>
      <trkpt lat="47.56817045621573925018310546875" lon="-3.0514481104910373687744140625">
        <ele>2.7999999523162841796875</ele>
        <time>2026-08-15T17:17:26.000Z</time>
        <extensions>
          <ns3:TrackPointExtension>
            <ns3:hr>131</ns3:hr>
          </ns3:TrackPointExtension>
        </extensions>
      </trkpt>
      <trkpt lat="47.56823499687016010284423828125" lon="-3.0514110624790191650390625">
        <ele>2.7999999523162841796875</ele>
        <time>2026-08-15T17:17:27.000Z</time>
        <extensions>
          <ns3:TrackPointExtension>
            <ns3:hr>131</ns3:hr>
          </ns3:TrackPointExtension>
        </extensions>
      </trkpt>
      <trkpt lat="47.56830163300037384033203125" lon="-3.05138264782726764678955078125">
        <ele>2.599999904632568359375</ele>
        <time>2026-08-15T17:17:28.000Z</time>
        <extensions>
          <ns3:TrackPointExtension>
            <ns3:hr>130</ns3:hr>
          </ns3:TrackPointExtension>
        </extensions>
      </trkpt>
      <trkpt lat="47.56836424581706523895263671875" lon="-3.05134727619588375091552734375">
        <ele>2.599999904632568359375</ele>
        <time>2026-08-15T17:17:29.000Z</time>
        <extensions>
          <ns3:TrackPointExtension>
            <ns3:hr>130</ns3:hr>
          </ns3:TrackPointExtension>
        </extensions>
      </trkpt>
      <trkpt lat="47.56842610426247119903564453125" lon="-3.05130771361291408538818359375">
        <ele>2.599999904632568359375</ele>
        <time>2026-08-15T17:17:30.000Z</time>
        <extensions>
          <ns3:TrackPointExtension>
            <ns3:hr>131</ns3:hr>
          </ns3:TrackPointExtension>
        </extensions>
      </trkpt>
      <trkpt lat="47.5684888847172260284423828125" lon="-3.0512687377631664276123046875">
        <ele>2.599999904632568359375</ele>
        <time>2026-08-15T17:17:31.000Z</time>
        <extensions>
          <ns3:TrackPointExtension>
            <ns3:hr>130</ns3:hr>
          </ns3:TrackPointExtension>
        </extensions>
      </trkpt>
      <trkpt lat="47.56854571402072906494140625" lon="-3.05122892372310161590576171875">
        <ele>2.400000095367431640625</ele>
        <time>2026-08-15T17:17:32.000Z</time>
        <extensions>
          <ns3:TrackPointExtension>
            <ns3:hr>130</ns3:hr>
          </ns3:TrackPointExtension>
        </extensions>
      </trkpt>
      <trkpt lat="47.5686042197048664093017578125" lon="-3.05118634365499019622802734375">
        <ele>2.2000000476837158203125</ele>
        <time>2026-08-15T17:17:33.000Z</time>
        <extensions>
          <ns3:TrackPointExtension>
            <ns3:hr>130</ns3:hr>
          </ns3:TrackPointExtension>
        </extensions>
      </trkpt>
      <trkpt lat="47.5686632283031940460205078125" lon="-3.0511463619768619537353515625">
        <ele>2.2000000476837158203125</ele>
        <time>2026-08-15T17:17:34.000Z</time>
        <extensions>
          <ns3:TrackPointExtension>
            <ns3:hr>130</ns3:hr>
          </ns3:TrackPointExtension>
        </extensions>
      </trkpt>
      <trkpt lat="47.5687188841402530670166015625" lon="-3.05111509747803211212158203125">
        <ele>2</ele>
        <time>2026-08-15T17:17:35.000Z</time>
        <extensions>
          <ns3:TrackPointExtension>
            <ns3:hr>129</ns3:hr>
          </ns3:TrackPointExtension>
        </extensions>
      </trkpt>
      <trkpt lat="47.568775378167629241943359375" lon="-3.0510826595127582550048828125">
        <ele>2</ele>
        <time>2026-08-15T17:17:36.000Z</time>
        <extensions>
          <ns3:TrackPointExtension>
            <ns3:hr>129</ns3:hr>
          </ns3:TrackPointExtension>
        </extensions>
      </trkpt>
      <trkpt lat="47.56883547641336917877197265625" lon="-3.0510544963181018829345703125">
        <ele>1.7999999523162841796875</ele>
        <time>2026-08-15T17:17:37.000Z</time>
        <extensions>
          <ns3:TrackPointExtension>
            <ns3:hr>129</ns3:hr>
          </ns3:TrackPointExtension>
        </extensions>
      </trkpt>
      <trkpt lat="47.56889037787914276123046875" lon="-3.05102457292377948760986328125">
        <ele>2</ele>
        <time>2026-08-15T17:17:38.000Z</time>
        <extensions>
          <ns3:TrackPointExtension>
            <ns3:hr>128</ns3:hr>
          </ns3:TrackPointExtension>
        </extensions>
      </trkpt>
      <trkpt lat="47.56893790327012538909912109375" lon="-3.05099464952945709228515625">
        <ele>2</ele>
        <time>2026-08-15T17:17:39.000Z</time>
        <extensions>
          <ns3:TrackPointExtension>
            <ns3:hr>128</ns3:hr>
          </ns3:TrackPointExtension>
        </extensions>
      </trkpt>
      <trkpt lat="47.5689877755939960479736328125" lon="-3.0509757064282894134521484375">
        <ele>1.7999999523162841796875</ele>
        <time>2026-08-15T17:17:40.000Z</time>
        <extensions>
          <ns3:TrackPointExtension>
            <ns3:hr>128</ns3:hr>
          </ns3:TrackPointExtension>
        </extensions>
      </trkpt>
      <trkpt lat="47.569030188024044036865234375" lon="-3.050954751670360565185546875">
        <ele>1.60000002384185791015625</ele>
        <time>2026-08-15T17:17:41.000Z</time>
        <extensions>
          <ns3:TrackPointExtension>
            <ns3:hr>128</ns3:hr>
          </ns3:TrackPointExtension>
        </extensions>
      </trkpt>
      <trkpt lat="47.56906664930284023284912109375" lon="-3.05092399008572101593017578125">
        <ele>1.39999997615814208984375</ele>
        <time>2026-08-15T17:17:42.000Z</time>
        <extensions>
          <ns3:TrackPointExtension>
            <ns3:hr>128</ns3:hr>
          </ns3:TrackPointExtension>
        </extensions>
      </trkpt>
      <trkpt lat="47.5691007636487483978271484375" lon="-3.0509073100984096527099609375">
        <ele>1.2000000476837158203125</ele>
        <time>2026-08-15T17:17:43.000Z</time>
        <extensions>
          <ns3:TrackPointExtension>
            <ns3:hr>128</ns3:hr>
          </ns3:TrackPointExtension>
        </extensions>
      </trkpt>
      <trkpt lat="47.569127418100833892822265625" lon="-3.0508933961391448974609375">
        <ele>1.2000000476837158203125</ele>
        <time>2026-08-15T17:17:44.000Z</time>
        <extensions>
          <ns3:TrackPointExtension>
            <ns3:hr>128</ns3:hr>
          </ns3:TrackPointExtension>
        </extensions>
      </trkpt>
      <trkpt lat="47.56913973949849605560302734375" lon="-3.05088677443563938140869140625">
        <ele>1</ele>
        <time>2026-08-15T17:17:45.000Z</time>
        <extensions>
          <ns3:TrackPointExtension>
            <ns3:hr>128</ns3:hr>
          </ns3:TrackPointExtension>
        </extensions>
      </trkpt>
      <trkpt lat="47.56915281526744365692138671875" lon="-3.05089280940592288970947265625">
        <ele>0.60000002384185791015625</ele>
        <time>2026-08-15T17:17:46.000Z</time>
        <extensions>
          <ns3:TrackPointExtension>
            <ns3:hr>128</ns3:hr>
          </ns3:TrackPointExtension>
        </extensions>
      </trkpt>
      <trkpt lat="47.569166310131549835205078125" lon="-3.0508989281952381134033203125">
        <ele>0.4000000059604644775390625</ele>
        <time>2026-08-15T17:17:47.000Z</time>
        <extensions>
          <ns3:TrackPointExtension>
            <ns3:hr>128</ns3:hr>
          </ns3:TrackPointExtension>
        </extensions>
      </trkpt>
      <trkpt lat="47.56918148137629032135009765625" lon="-3.05090186186134815216064453125">
        <ele>0</ele>
        <time>2026-08-15T17:17:48.000Z</time>
        <extensions>
          <ns3:TrackPointExtension>
            <ns3:hr>129</ns3:hr>
          </ns3:TrackPointExtension>
        </extensions>
      </trkpt>
      <trkpt lat="47.56920176558196544647216796875" lon="-3.05090052075684070587158203125">
        <ele>-0.4000000059604644775390625</ele>
        <time>2026-08-15T17:17:49.000Z</time>
        <extensions>
          <ns3:TrackPointExtension>
            <ns3:hr>128</ns3:hr>
          </ns3:TrackPointExtension>
        </extensions>
      </trkpt>
      <trkpt lat="47.56922297179698944091796875" lon="-3.05089800618588924407958984375">
        <ele>-0.800000011920928955078125</ele>
        <time>2026-08-15T17:17:50.000Z</time>
        <extensions>
          <ns3:TrackPointExtension>
            <ns3:hr>128</ns3:hr>
          </ns3:TrackPointExtension>
        </extensions>
      </trkpt>
      <trkpt lat="47.5692437589168548583984375" lon="-3.05089406669139862060546875">
        <ele>-1</ele>
        <time>2026-08-15T17:17:51.000Z</time>
        <extensions>
          <ns3:TrackPointExtension>
            <ns3:hr>128</ns3:hr>
          </ns3:TrackPointExtension>
        </extensions>
      </trkpt>
      <trkpt lat="47.5692647136747837066650390625" lon="-3.0508880317211151123046875">
        <ele>-1.39999997615814208984375</ele>
        <time>2026-08-15T17:17:52.000Z</time>
        <extensions>
          <ns3:TrackPointExtension>
            <ns3:hr>128</ns3:hr>
          </ns3:TrackPointExtension>
        </extensions>
      </trkpt>
      <trkpt lat="47.5692871771752834320068359375" lon="-3.05088425986468791961669921875">
        <ele>-1.7999999523162841796875</ele>
        <time>2026-08-15T17:17:53.000Z</time>
        <extensions>
          <ns3:TrackPointExtension>
            <ns3:hr>127</ns3:hr>
          </ns3:TrackPointExtension>
        </extensions>
      </trkpt>
      <trkpt lat="47.56930620409548282623291015625" lon="-3.0508811585605144500732421875">
        <ele>-2.2000000476837158203125</ele>
        <time>2026-08-15T17:17:54.000Z</time>
        <extensions>
          <ns3:TrackPointExtension>
            <ns3:hr>127</ns3:hr>
          </ns3:TrackPointExtension>
        </extensions>
      </trkpt>
      <trkpt lat="47.56936739198863506317138671875" lon="-3.0509039573371410369873046875">
        <ele>-2.7999999523162841796875</ele>
        <time>2026-08-15T17:17:57.000Z</time>
        <extensions>
          <ns3:TrackPointExtension>
            <ns3:hr>127</ns3:hr>
          </ns3:TrackPointExtension>
        </extensions>
      </trkpt>
      <trkpt lat="47.569356076419353485107421875" lon="-3.05090974085032939910888671875">
        <ele>-3</ele>
        <time>2026-08-15T17:17:58.000Z</time>
        <extensions>
          <ns3:TrackPointExtension>
            <ns3:hr>127</ns3:hr>
          </ns3:TrackPointExtension>
        </extensions>
      </trkpt>
      <trkpt lat="47.569279633462429046630859375" lon="-3.0508531630039215087890625">
        <ele>-3</ele>
        <time>2026-08-15T17:17:59.000Z</time>
        <extensions>
          <ns3:TrackPointExtension>
            <ns3:hr>127</ns3:hr>
          </ns3:TrackPointExtension>
        </extensions>
      </trkpt>
      <trkpt lat="47.56928558461368083953857421875" lon="-3.05084251798689365386962890625">
        <ele>-3.2000000476837158203125</ele>
        <time>2026-08-15T17:18:00.000Z</time>
        <extensions>
          <ns3:TrackPointExtension>
            <ns3:hr>127</ns3:hr>
          </ns3:TrackPointExtension>
        </extensions>
      </trkpt>
      <trkpt lat="47.569291032850742340087890625" lon="-3.0508348904550075531005859375">
        <ele>-3.2000000476837158203125</ele>
        <time>2026-08-15T17:18:01.000Z</time>
        <extensions>
          <ns3:TrackPointExtension>
            <ns3:hr>127</ns3:hr>
          </ns3:TrackPointExtension>
        </extensions>
      </trkpt>
      <trkpt lat="47.569279633462429046630859375" lon="-3.0508513189852237701416015625">
        <ele>-3</ele>
        <time>2026-08-15T17:18:02.000Z</time>
        <extensions>
          <ns3:TrackPointExtension>
            <ns3:hr>127</ns3:hr>
          </ns3:TrackPointExtension>
        </extensions>
      </trkpt>
      <trkpt lat="47.56920696236193180084228515625" lon="-3.050854504108428955078125">
        <ele>-3</ele>
        <time>2026-08-15T17:18:03.000Z</time>
        <extensions>
          <ns3:TrackPointExtension>
            <ns3:hr>128</ns3:hr>
          </ns3:TrackPointExtension>
        </extensions>
      </trkpt>
      <trkpt lat="47.5691983290016651153564453125" lon="-3.05085240863263607025146484375">
        <ele>-2.7999999523162841796875</ele>
        <time>2026-08-15T17:18:04.000Z</time>
        <extensions>
          <ns3:TrackPointExtension>
            <ns3:hr>128</ns3:hr>
          </ns3:TrackPointExtension>
        </extensions>
      </trkpt>
      <trkpt lat="47.56918818689882755279541015625" lon="-3.050859533250331878662109375">
        <ele>-2.7999999523162841796875</ele>
        <time>2026-08-15T17:18:05.000Z</time>
        <extensions>
          <ns3:TrackPointExtension>
            <ns3:hr>129</ns3:hr>
          </ns3:TrackPointExtension>
        </extensions>
      </trkpt>
      <trkpt lat="47.56918550468981266021728515625" lon="-3.05086229927837848663330078125">
        <ele>-38.200000762939453125</ele>
        <time>2026-08-15T17:18:06.000Z</time>
        <extensions>
          <ns3:TrackPointExtension>
            <ns3:hr>129</ns3:hr>
          </ns3:TrackPointExtension>
        </extensions>
      </trkpt>
      <trkpt lat="47.56918667815625667572021484375" lon="-3.05086481384932994842529296875">
        <ele>-73.8000030517578125</ele>
        <time>2026-08-15T17:18:07.000Z</time>
        <extensions>
          <ns3:TrackPointExtension>
            <ns3:hr>130</ns3:hr>
          </ns3:TrackPointExtension>
        </extensions>
      </trkpt>
      <trkpt lat="47.569234706461429595947265625" lon="-3.05078904144465923309326171875">
        <ele>-239.600006103515625</ele>
        <time>2026-08-15T17:18:17.000Z</time>
        <extensions>
          <ns3:TrackPointExtension>
            <ns3:hr>126</ns3:hr>
          </ns3:TrackPointExtension>
        </extensions>
      </trkpt>
      <trkpt lat="47.56922221742570400238037109375" lon="-3.050823993980884552001953125">
        <ele>-231</ele>
        <time>2026-08-15T17:18:18.000Z</time>
        <extensions>
          <ns3:TrackPointExtension>
            <ns3:hr>124</ns3:hr>
          </ns3:TrackPointExtension>
        </extensions>
      </trkpt>
      <trkpt lat="47.56920712999999523162841796875" lon="-3.0508409254252910614013671875">
        <ele>-222.1999969482421875</ele>
        <time>2026-08-15T17:18:19.000Z</time>
        <extensions>
          <ns3:TrackPointExtension>
            <ns3:hr>122</ns3:hr>
          </ns3:TrackPointExtension>
        </extensions>
      </trkpt>
      <trkpt lat="47.5692057050764560699462890625" lon="-3.0508412607014179229736328125">
        <ele>-213.399993896484375</ele>
        <time>2026-08-15T17:18:20.000Z</time>
        <extensions>
          <ns3:TrackPointExtension>
            <ns3:hr>121</ns3:hr>
          </ns3:TrackPointExtension>
        </extensions>
      </trkpt>
      <trkpt lat="47.56920042447745800018310546875" lon="-3.0508415959775447845458984375">
        <ele>-204.8000030517578125</ele>
        <time>2026-08-15T17:18:21.000Z</time>
        <extensions>
          <ns3:TrackPointExtension>
            <ns3:hr>120</ns3:hr>
          </ns3:TrackPointExtension>
        </extensions>
      </trkpt>
      <trkpt lat="47.56919640116393566131591796875" lon="-3.0508385784924030303955078125">
        <ele>-196</ele>
        <time>2026-08-15T17:18:22.000Z</time>
        <extensions>
          <ns3:TrackPointExtension>
            <ns3:hr>120</ns3:hr>
          </ns3:TrackPointExtension>
        </extensions>
      </trkpt>
      <trkpt lat="47.569194138050079345703125" lon="-3.05083882994949817657470703125">
        <ele>-187.399993896484375</ele>
        <time>2026-08-15T17:18:23.000Z</time>
        <extensions>
          <ns3:TrackPointExtension>
            <ns3:hr>121</ns3:hr>
          </ns3:TrackPointExtension>
        </extensions>
      </trkpt>
      <trkpt lat="47.56918567232787609100341796875" lon="-3.05083639919757843017578125">
        <ele>-178.600006103515625</ele>
        <time>2026-08-15T17:18:24.000Z</time>
        <extensions>
          <ns3:TrackPointExtension>
            <ns3:hr>122</ns3:hr>
          </ns3:TrackPointExtension>
        </extensions>
      </trkpt>
      <trkpt lat="47.5691869296133518218994140625" lon="-3.05083371698856353759765625">
        <ele>-170</ele>
        <time>2026-08-15T17:18:25.000Z</time>
        <extensions>
          <ns3:TrackPointExtension>
            <ns3:hr>123</ns3:hr>
          </ns3:TrackPointExtension>
        </extensions>
      </trkpt>
      <trkpt lat="47.56918315775692462921142578125" lon="-3.0508317053318023681640625">
        <ele>-161.1999969482421875</ele>
        <time>2026-08-15T17:18:26.000Z</time>
        <extensions>
          <ns3:TrackPointExtension>
            <ns3:hr>125</ns3:hr>
          </ns3:TrackPointExtension>
        </extensions>
      </trkpt>
      <trkpt lat="47.5691847503185272216796875" lon="-3.05083371698856353759765625">
        <ele>-152.600006103515625</ele>
        <time>2026-08-15T17:18:27.000Z</time>
        <extensions>
          <ns3:TrackPointExtension>
            <ns3:hr>126</ns3:hr>
          </ns3:TrackPointExtension>
        </extensions>
      </trkpt>
      <trkpt lat="47.56918273866176605224609375" lon="-3.05082860402762889862060546875">
        <ele>-143.8000030517578125</ele>
        <time>2026-08-15T17:18:28.000Z</time>
        <extensions>
          <ns3:TrackPointExtension>
            <ns3:hr>126</ns3:hr>
          </ns3:TrackPointExtension>
        </extensions>
      </trkpt>
      <trkpt lat="47.569183409214019775390625" lon="-3.05082541890442371368408203125">
        <ele>-135.1999969482421875</ele>
        <time>2026-08-15T17:18:29.000Z</time>
        <extensions>
          <ns3:TrackPointExtension>
            <ns3:hr>126</ns3:hr>
          </ns3:TrackPointExtension>
        </extensions>
      </trkpt>
      <trkpt lat="47.5691859237849712371826171875" lon="-3.05082173086702823638916015625">
        <ele>-126.40000152587890625</ele>
        <time>2026-08-15T17:18:30.000Z</time>
        <extensions>
          <ns3:TrackPointExtension>
            <ns3:hr>127</ns3:hr>
          </ns3:TrackPointExtension>
        </extensions>
      </trkpt>
      <trkpt lat="47.569189108908176422119140625" lon="-3.05081586353480815887451171875">
        <ele>-117.8000030517578125</ele>
        <time>2026-08-15T17:18:31.000Z</time>
        <extensions>
          <ns3:TrackPointExtension>
            <ns3:hr>127</ns3:hr>
          </ns3:TrackPointExtension>
        </extensions>
      </trkpt>
      <trkpt lat="47.5691939704120159149169921875" lon="-3.050816953182220458984375">
        <ele>-109</ele>
        <time>2026-08-15T17:18:32.000Z</time>
        <extensions>
          <ns3:TrackPointExtension>
            <ns3:hr>127</ns3:hr>
          </ns3:TrackPointExtension>
        </extensions>
      </trkpt>
      <trkpt lat="47.569189108908176422119140625" lon="-3.05082156322896480560302734375">
        <ele>-100.40000152587890625</ele>
        <time>2026-08-15T17:18:33.000Z</time>
        <extensions>
          <ns3:TrackPointExtension>
            <ns3:hr>127</ns3:hr>
          </ns3:TrackPointExtension>
        </extensions>
      </trkpt>
      <trkpt lat="47.56918684579432010650634765625" lon="-3.05081804282963275909423828125">
        <ele>-91.59999847412109375</ele>
        <time>2026-08-15T17:18:34.000Z</time>
        <extensions>
          <ns3:TrackPointExtension>
            <ns3:hr>127</ns3:hr>
          </ns3:TrackPointExtension>
        </extensions>
      </trkpt>
      <trkpt lat="47.56918751634657382965087890625" lon="-3.05081225931644439697265625">
        <ele>-83</ele>
        <time>2026-08-15T17:18:35.000Z</time>
        <extensions>
          <ns3:TrackPointExtension>
            <ns3:hr>123</ns3:hr>
          </ns3:TrackPointExtension>
        </extensions>
      </trkpt>
      <trkpt lat="47.5691855885088443756103515625" lon="-3.05081494152545928955078125">
        <ele>-74.1999969482421875</ele>
        <time>2026-08-15T17:18:36.000Z</time>
        <extensions>
          <ns3:TrackPointExtension>
            <ns3:hr>120</ns3:hr>
          </ns3:TrackPointExtension>
        </extensions>
      </trkpt>
      <trkpt lat="47.56919438950717449188232421875" lon="-3.0508130975067615509033203125">
        <ele>-65.59999847412109375</ele>
        <time>2026-08-15T17:18:37.000Z</time>
        <extensions>
          <ns3:TrackPointExtension>
            <ns3:hr>119</ns3:hr>
          </ns3:TrackPointExtension>
        </extensions>
      </trkpt>
      <trkpt lat="47.5691939704120159149169921875" lon="-3.05081469006836414337158203125">
        <ele>-56.799999237060546875</ele>
        <time>2026-08-15T17:18:38.000Z</time>
        <extensions>
          <ns3:TrackPointExtension>
            <ns3:hr>118</ns3:hr>
          </ns3:TrackPointExtension>
        </extensions>
      </trkpt>
      <trkpt lat="47.56919472478330135345458984375" lon="-3.05081385187804698944091796875">
        <ele>-48.200000762939453125</ele>
        <time>2026-08-15T17:18:39.000Z</time>
        <extensions>
          <ns3:TrackPointExtension>
            <ns3:hr>117</ns3:hr>
          </ns3:TrackPointExtension>
        </extensions>
      </trkpt>
      <trkpt lat="47.56919522769749164581298828125" lon="-3.05080815218389034271240234375">
        <ele>-39.40000152587890625</ele>
        <time>2026-08-15T17:18:40.000Z</time>
        <extensions>
          <ns3:TrackPointExtension>
            <ns3:hr>117</ns3:hr>
          </ns3:TrackPointExtension>
        </extensions>
      </trkpt>
      <trkpt lat="47.56918751634657382965087890625" lon="-3.050790466368198394775390625">
        <ele>-30.799999237060546875</ele>
        <time>2026-08-15T17:18:41.000Z</time>
        <extensions>
          <ns3:TrackPointExtension>
            <ns3:hr>116</ns3:hr>
          </ns3:TrackPointExtension>
        </extensions>
      </trkpt>
      <trkpt lat="47.5691839121282100677490234375" lon="-3.0507852695882320404052734375">
        <ele>-22</ele>
        <time>2026-08-15T17:18:42.000Z</time>
        <extensions>
          <ns3:TrackPointExtension>
            <ns3:hr>115</ns3:hr>
          </ns3:TrackPointExtension>
        </extensions>
      </trkpt>
      <trkpt lat="47.5691839121282100677490234375" lon="-3.0507852695882320404052734375">
        <ele>-13.3999996185302734375</ele>
        <time>2026-08-15T17:18:43.000Z</time>
        <extensions>
          <ns3:TrackPointExtension>
            <ns3:hr>112</ns3:hr>
          </ns3:TrackPointExtension>
        </extensions>
      </trkpt>
      <trkpt lat="47.5691839121282100677490234375" lon="-3.0507852695882320404052734375">
        <ele>-9</ele>
        <time>2026-08-15T17:18:44.000Z</time>
        <extensions>
          <ns3:TrackPointExtension>
            <ns3:hr>108</ns3:hr>
          </ns3:TrackPointExtension>
        </extensions>
      </trkpt>
      <trkpt lat="47.5691839121282100677490234375" lon="-3.0507852695882320404052734375">
        <ele>-6.80000019073486328125</ele>
        <time>2026-08-15T17:18:45.000Z</time>
        <extensions>
          <ns3:TrackPointExtension>
            <ns3:hr>106</ns3:hr>
          </ns3:TrackPointExtension>
        </extensions>
      </trkpt>
      <trkpt lat="47.56918634288012981414794921875" lon="-3.05078434757888317108154296875">
        <ele>-5.599999904632568359375</ele>
        <time>2026-08-15T17:18:46.000Z</time>
        <extensions>
          <ns3:TrackPointExtension>
            <ns3:hr>106</ns3:hr>
          </ns3:TrackPointExtension>
        </extensions>
      </trkpt>
      <trkpt lat="47.569183409214019775390625" lon="-3.0507748760282993316650390625">
        <ele>-4.80000019073486328125</ele>
        <time>2026-08-15T17:18:47.000Z</time>
        <extensions>
          <ns3:TrackPointExtension>
            <ns3:hr>106</ns3:hr>
          </ns3:TrackPointExtension>
        </extensions>
      </trkpt>
      <trkpt lat="47.569184415042400360107421875" lon="-3.05076825432479381561279296875">
        <ele>-3</ele>
        <time>2026-08-15T17:18:48.000Z</time>
        <extensions>
          <ns3:TrackPointExtension>
            <ns3:hr>106</ns3:hr>
          </ns3:TrackPointExtension>
        </extensions>
      </trkpt>
      <trkpt lat="47.56918139755725860595703125" lon="-3.0507577769458293914794921875">
        <ele>-2</ele>
        <time>2026-08-15T17:18:49.000Z</time>
        <extensions>
          <ns3:TrackPointExtension>
            <ns3:hr>103</ns3:hr>
          </ns3:TrackPointExtension>
        </extensions>
      </trkpt>
      <trkpt lat="47.5691819004714488983154296875" lon="-3.05075199343264102935791015625">
        <ele>-1.60000002384185791015625</ele>
        <time>2026-08-15T17:18:50.000Z</time>
        <extensions>
          <ns3:TrackPointExtension>
            <ns3:hr>102</ns3:hr>
          </ns3:TrackPointExtension>
        </extensions>
      </trkpt>
      <trkpt lat="47.56917796097695827484130859375" lon="-3.0507487244904041290283203125">
        <ele>-1.2000000476837158203125</ele>
        <time>2026-08-15T17:18:51.000Z</time>
        <extensions>
          <ns3:TrackPointExtension>
            <ns3:hr>102</ns3:hr>
          </ns3:TrackPointExtension>
        </extensions>
      </trkpt>
      <trkpt lat="47.56917930208146572113037109375" lon="-3.05074042640626430511474609375">
        <ele>-1</ele>
        <time>2026-08-15T17:18:52.000Z</time>
        <extensions>
          <ns3:TrackPointExtension>
            <ns3:hr>104</ns3:hr>
          </ns3:TrackPointExtension>
        </extensions>
      </trkpt>
      <trkpt lat="47.5691825710237026214599609375" lon="-3.05073824711143970489501953125">
        <ele>-0.800000011920928955078125</ele>
        <time>2026-08-15T17:18:53.000Z</time>
        <extensions>
          <ns3:TrackPointExtension>
            <ns3:hr>107</ns3:hr>
          </ns3:TrackPointExtension>
        </extensions>
      </trkpt>
      <trkpt lat="47.56918609142303466796875" lon="-3.05073707364499568939208984375">
        <ele>-0.800000011920928955078125</ele>
        <time>2026-08-15T17:18:54.000Z</time>
        <extensions>
          <ns3:TrackPointExtension>
            <ns3:hr>109</ns3:hr>
          </ns3:TrackPointExtension>
        </extensions>
      </trkpt>
      <trkpt lat="47.56918609142303466796875" lon="-3.05073707364499568939208984375">
        <ele>-1</ele>
        <time>2026-08-15T17:18:55.000Z</time>
        <extensions>
          <ns3:TrackPointExtension>
            <ns3:hr>108</ns3:hr>
          </ns3:TrackPointExtension>
        </extensions>
      </trkpt>
      <trkpt lat="47.5691919587552547454833984375" lon="-3.050736486911773681640625">
        <ele>-1</ele>
        <time>2026-08-15T17:18:56.000Z</time>
        <extensions>
          <ns3:TrackPointExtension>
            <ns3:hr>108</ns3:hr>
          </ns3:TrackPointExtension>
        </extensions>
      </trkpt>
      <trkpt lat="47.56919355131685733795166015625" lon="-3.05073573254048824310302734375">
        <ele>-1.2000000476837158203125</ele>
        <time>2026-08-15T17:18:57.000Z</time>
        <extensions>
          <ns3:TrackPointExtension>
            <ns3:hr>108</ns3:hr>
          </ns3:TrackPointExtension>
        </extensions>
      </trkpt>
      <trkpt lat="47.5691983290016651153564453125" lon="-3.05073237977921962738037109375">
        <ele>-1.39999997615814208984375</ele>
        <time>2026-08-15T17:18:58.000Z</time>
        <extensions>
          <ns3:TrackPointExtension>
            <ns3:hr>108</ns3:hr>
          </ns3:TrackPointExtension>
        </extensions>
      </trkpt>
      <trkpt lat="47.5692036934196949005126953125" lon="-3.05073305033147335052490234375">
        <ele>-1.39999997615814208984375</ele>
        <time>2026-08-15T17:18:59.000Z</time>
        <extensions>
          <ns3:TrackPointExtension>
            <ns3:hr>109</ns3:hr>
          </ns3:TrackPointExtension>
        </extensions>
      </trkpt>
      <trkpt lat="47.569208554923534393310546875" lon="-3.0507363192737102508544921875">
        <ele>-2</ele>
        <time>2026-08-15T17:19:00.000Z</time>
        <extensions>
          <ns3:TrackPointExtension>
            <ns3:hr>109</ns3:hr>
          </ns3:TrackPointExtension>
        </extensions>
      </trkpt>
      <trkpt lat="47.5692160986363887786865234375" lon="-3.05073103867471218109130859375">
        <ele>-2.400000095367431640625</ele>
        <time>2026-08-15T17:19:01.000Z</time>
        <extensions>
          <ns3:TrackPointExtension>
            <ns3:hr>109</ns3:hr>
          </ns3:TrackPointExtension>
        </extensions>
      </trkpt>
      <trkpt lat="47.56921702064573764801025390625" lon="-3.0507262609899044036865234375">
        <ele>-3</ele>
        <time>2026-08-15T17:19:02.000Z</time>
        <extensions>
          <ns3:TrackPointExtension>
            <ns3:hr>109</ns3:hr>
          </ns3:TrackPointExtension>
        </extensions>
      </trkpt>
      <trkpt lat="47.56922121159732341766357421875" lon="-3.05072383023798465728759765625">
        <ele>-3.599999904632568359375</ele>
        <time>2026-08-15T17:19:03.000Z</time>
        <extensions>
          <ns3:TrackPointExtension>
            <ns3:hr>111</ns3:hr>
          </ns3:TrackPointExtension>
        </extensions>
      </trkpt>
      <trkpt lat="47.56923160515725612640380859375" lon="-3.0507217347621917724609375">
        <ele>-4</ele>
        <time>2026-08-15T17:19:04.000Z</time>
        <extensions>
          <ns3:TrackPointExtension>
            <ns3:hr>112</ns3:hr>
          </ns3:TrackPointExtension>
        </extensions>
      </trkpt>
      <trkpt lat="47.56923370063304901123046875" lon="-3.05071528069674968719482421875">
        <ele>-4.80000019073486328125</ele>
        <time>2026-08-15T17:19:05.000Z</time>
        <extensions>
          <ns3:TrackPointExtension>
            <ns3:hr>115</ns3:hr>
          </ns3:TrackPointExtension>
        </extensions>
      </trkpt>
      <trkpt lat="47.56923562847077846527099609375" lon="-3.05071544833481311798095703125">
        <ele>-5.400000095367431640625</ele>
        <time>2026-08-15T17:19:06.000Z</time>
        <extensions>
          <ns3:TrackPointExtension>
            <ns3:hr>118</ns3:hr>
          </ns3:TrackPointExtension>
        </extensions>
      </trkpt>
      <trkpt lat="47.56923495791852474212646484375" lon="-3.0507135204970836639404296875">
        <ele>-5.80000019073486328125</ele>
        <time>2026-08-15T17:19:07.000Z</time>
        <extensions>
          <ns3:TrackPointExtension>
            <ns3:hr>118</ns3:hr>
          </ns3:TrackPointExtension>
        </extensions>
      </trkpt>
      <trkpt lat="47.56923780776560306549072265625" lon="-3.05070471949875354766845703125">
        <ele>-6.400000095367431640625</ele>
        <time>2026-08-15T17:19:08.000Z</time>
        <extensions>
          <ns3:TrackPointExtension>
            <ns3:hr>117</ns3:hr>
          </ns3:TrackPointExtension>
        </extensions>
      </trkpt>
      <trkpt lat="47.5692291744053363800048828125" lon="-3.050695247948169708251953125">
        <ele>-7</ele>
        <time>2026-08-15T17:19:09.000Z</time>
        <extensions>
          <ns3:TrackPointExtension>
            <ns3:hr>118</ns3:hr>
          </ns3:TrackPointExtension>
        </extensions>
      </trkpt>
      <trkpt lat="47.56922992877662181854248046875" lon="-3.05068477056920528411865234375">
        <ele>-7.599999904632568359375</ele>
        <time>2026-08-15T17:19:10.000Z</time>
        <extensions>
          <ns3:TrackPointExtension>
            <ns3:hr>115</ns3:hr>
          </ns3:TrackPointExtension>
        </extensions>
      </trkpt>
      <trkpt lat="47.56923579610884189605712890625" lon="-3.0506863631308078765869140625">
        <ele>-8.19999980926513671875</ele>
        <time>2026-08-15T17:19:11.000Z</time>
        <extensions>
          <ns3:TrackPointExtension>
            <ns3:hr>107</ns3:hr>
          </ns3:TrackPointExtension>
        </extensions>
      </trkpt>
      <trkpt lat="47.569238059222698211669921875" lon="-3.050684519112110137939453125">
        <ele>-8.3999996185302734375</ele>
        <time>2026-08-15T17:19:12.000Z</time>
        <extensions>
          <ns3:TrackPointExtension>
            <ns3:hr>103</ns3:hr>
          </ns3:TrackPointExtension>
        </extensions>
      </trkpt>
      <trkpt lat="47.5692442618310451507568359375" lon="-3.05067739449441432952880859375">
        <ele>-8.80000019073486328125</ele>
        <time>2026-08-15T17:19:13.000Z</time>
        <extensions>
          <ns3:TrackPointExtension>
            <ns3:hr>98</ns3:hr>
          </ns3:TrackPointExtension>
        </extensions>
      </trkpt>
      <trkpt lat="47.56924250163137912750244140625" lon="-3.05066783912479877471923828125">
        <ele>-8.6000003814697265625</ele>
        <time>2026-08-15T17:19:14.000Z</time>
        <extensions>
          <ns3:TrackPointExtension>
            <ns3:hr>94</ns3:hr>
          </ns3:TrackPointExtension>
        </extensions>
      </trkpt>
      <trkpt lat="47.56923797540366649627685546875" lon="-3.05065576918423175811767578125">
        <ele>-8.19999980926513671875</ele>
        <time>2026-08-15T17:19:15.000Z</time>
        <extensions>
          <ns3:TrackPointExtension>
            <ns3:hr>94</ns3:hr>
          </ns3:TrackPointExtension>
        </extensions>
      </trkpt>
      <trkpt lat="47.5692338682711124420166015625" lon="-3.0506525002419948577880859375">
        <ele>-8</ele>
        <time>2026-08-15T17:19:16.000Z</time>
        <extensions>
          <ns3:TrackPointExtension>
            <ns3:hr>94</ns3:hr>
          </ns3:TrackPointExtension>
        </extensions>
      </trkpt>
      <trkpt lat="47.56923110224306583404541015625" lon="-3.05064998567104339599609375">
        <ele>-8</ele>
        <time>2026-08-15T17:19:17.000Z</time>
        <extensions>
          <ns3:TrackPointExtension>
            <ns3:hr>93</ns3:hr>
          </ns3:TrackPointExtension>
        </extensions>
      </trkpt>
      <trkpt lat="47.569231353700160980224609375" lon="-3.050645291805267333984375">
        <ele>-8.19999980926513671875</ele>
        <time>2026-08-15T17:19:18.000Z</time>
        <extensions>
          <ns3:TrackPointExtension>
            <ns3:hr>93</ns3:hr>
          </ns3:TrackPointExtension>
        </extensions>
      </trkpt>
      <trkpt lat="47.569231353700160980224609375" lon="-3.050645291805267333984375">
        <ele>-8.19999980926513671875</ele>
        <time>2026-08-15T17:19:19.000Z</time>
        <extensions>
          <ns3:TrackPointExtension>
            <ns3:hr>94</ns3:hr>
          </ns3:TrackPointExtension>
        </extensions>
      </trkpt>
      <trkpt lat="47.569231353700160980224609375" lon="-3.050645291805267333984375">
        <ele>-8.3999996185302734375</ele>
        <time>2026-08-15T17:19:20.000Z</time>
        <extensions>
          <ns3:TrackPointExtension>
            <ns3:hr>95</ns3:hr>
          </ns3:TrackPointExtension>
        </extensions>
      </trkpt>
      <trkpt lat="47.5692399032413959503173828125" lon="-3.05063791573047637939453125">
        <ele>-8.3999996185302734375</ele>
        <time>2026-08-15T17:19:21.000Z</time>
        <extensions>
          <ns3:TrackPointExtension>
            <ns3:hr>96</ns3:hr>
          </ns3:TrackPointExtension>
        </extensions>
      </trkpt>
      <trkpt lat="47.569247446954250335693359375" lon="-3.0506303720176219940185546875">
        <ele>-7.400000095367431640625</ele>
        <time>2026-08-15T17:19:22.000Z</time>
        <extensions>
          <ns3:TrackPointExtension>
            <ns3:hr>96</ns3:hr>
          </ns3:TrackPointExtension>
        </extensions>
      </trkpt>
      <trkpt lat="47.56925859488546848297119140625" lon="-3.0506300367414951324462890625">
        <ele>-6.19999980926513671875</ele>
        <time>2026-08-15T17:19:23.000Z</time>
        <extensions>
          <ns3:TrackPointExtension>
            <ns3:hr>96</ns3:hr>
          </ns3:TrackPointExtension>
        </extensions>
      </trkpt>
      <trkpt lat="47.56926127709448337554931640625" lon="-3.05062810890376567840576171875">
        <ele>-5.19999980926513671875</ele>
        <time>2026-08-15T17:19:24.000Z</time>
        <extensions>
          <ns3:TrackPointExtension>
            <ns3:hr>96</ns3:hr>
          </ns3:TrackPointExtension>
        </extensions>
      </trkpt>
      <trkpt lat="47.56926781497895717620849609375" lon="-3.05062911473214626312255859375">
        <ele>-4</ele>
        <time>2026-08-15T17:19:25.000Z</time>
        <extensions>
          <ns3:TrackPointExtension>
            <ns3:hr>96</ns3:hr>
          </ns3:TrackPointExtension>
        </extensions>
      </trkpt>
      <trkpt lat="47.56926848553121089935302734375" lon="-3.05061922408640384674072265625">
        <ele>-3.400000095367431640625</ele>
        <time>2026-08-15T17:19:26.000Z</time>
        <extensions>
          <ns3:TrackPointExtension>
            <ns3:hr>97</ns3:hr>
          </ns3:TrackPointExtension>
        </extensions>
      </trkpt>
      <trkpt lat="47.569270916283130645751953125" lon="-3.05061687715351581573486328125">
        <ele>-3.400000095367431640625</ele>
        <time>2026-08-15T17:19:27.000Z</time>
        <extensions>
          <ns3:TrackPointExtension>
            <ns3:hr>97</ns3:hr>
          </ns3:TrackPointExtension>
        </extensions>
      </trkpt>
      <trkpt lat="47.56927753798663616180419921875" lon="-3.05061419494450092315673828125">
        <ele>-3.400000095367431640625</ele>
        <time>2026-08-15T17:19:28.000Z</time>
        <extensions>
          <ns3:TrackPointExtension>
            <ns3:hr>97</ns3:hr>
          </ns3:TrackPointExtension>
        </extensions>
      </trkpt>
      <trkpt lat="47.56928239949047565460205078125" lon="-3.050610758364200592041015625">
        <ele>-3.400000095367431640625</ele>
        <time>2026-08-15T17:19:29.000Z</time>
        <extensions>
          <ns3:TrackPointExtension>
            <ns3:hr>98</ns3:hr>
          </ns3:TrackPointExtension>
        </extensions>
      </trkpt>
      <trkpt lat="47.569293044507503509521484375" lon="-3.05061184801161289215087890625">
        <ele>-3.400000095367431640625</ele>
        <time>2026-08-15T17:19:30.000Z</time>
        <extensions>
          <ns3:TrackPointExtension>
            <ns3:hr>101</ns3:hr>
          </ns3:TrackPointExtension>
        </extensions>
      </trkpt>
      <trkpt lat="47.569295056164264678955078125" lon="-3.05060531012713909149169921875">
        <ele>-3.599999904632568359375</ele>
        <time>2026-08-15T17:19:31.000Z</time>
        <extensions>
          <ns3:TrackPointExtension>
            <ns3:hr>100</ns3:hr>
          </ns3:TrackPointExtension>
        </extensions>
      </trkpt>
      <trkpt lat="47.56930067203938961029052734375" lon="-3.05060698650777339935302734375">
        <ele>-3.7999999523162841796875</ele>
        <time>2026-08-15T17:19:32.000Z</time>
        <extensions>
          <ns3:TrackPointExtension>
            <ns3:hr>100</ns3:hr>
          </ns3:TrackPointExtension>
        </extensions>
      </trkpt>
      <trkpt lat="47.56930436007678508758544921875" lon="-3.05060246028006076812744140625">
        <ele>-3.7999999523162841796875</ele>
        <time>2026-08-15T17:19:33.000Z</time>
        <extensions>
          <ns3:TrackPointExtension>
            <ns3:hr>101</ns3:hr>
          </ns3:TrackPointExtension>
        </extensions>
      </trkpt>
      <trkpt lat="47.569307126104831695556640625" lon="-3.05059726350009441375732421875">
        <ele>-4</ele>
        <time>2026-08-15T17:19:34.000Z</time>
        <extensions>
          <ns3:TrackPointExtension>
            <ns3:hr>102</ns3:hr>
          </ns3:TrackPointExtension>
        </extensions>
      </trkpt>
      <trkpt lat="47.569313161075115203857421875" lon="-3.0505956709384918212890625">
        <ele>-4</ele>
        <time>2026-08-15T17:19:35.000Z</time>
        <extensions>
          <ns3:TrackPointExtension>
            <ns3:hr>103</ns3:hr>
          </ns3:TrackPointExtension>
        </extensions>
      </trkpt>
      <trkpt lat="47.56931777112185955047607421875" lon="-3.05059039033949375152587890625">
        <ele>-4.19999980926513671875</ele>
        <time>2026-08-15T17:19:36.000Z</time>
        <extensions>
          <ns3:TrackPointExtension>
            <ns3:hr>104</ns3:hr>
          </ns3:TrackPointExtension>
        </extensions>
      </trkpt>
      <trkpt lat="47.56932699121534824371337890625" lon="-3.0505884625017642974853515625">
        <ele>-4.19999980926513671875</ele>
        <time>2026-08-15T17:19:37.000Z</time>
        <extensions>
          <ns3:TrackPointExtension>
            <ns3:hr>107</ns3:hr>
          </ns3:TrackPointExtension>
        </extensions>
      </trkpt>
      <trkpt lat="47.5693367980420589447021484375" lon="-3.05058695375919342041015625">
        <ele>-4.19999980926513671875</ele>
        <time>2026-08-15T17:19:38.000Z</time>
        <extensions>
          <ns3:TrackPointExtension>
            <ns3:hr>108</ns3:hr>
          </ns3:TrackPointExtension>
        </extensions>
      </trkpt>
      <trkpt lat="47.56934056989848613739013671875" lon="-3.0505849421024322509765625">
        <ele>-4.19999980926513671875</ele>
        <time>2026-08-15T17:19:39.000Z</time>
        <extensions>
          <ns3:TrackPointExtension>
            <ns3:hr>109</ns3:hr>
          </ns3:TrackPointExtension>
        </extensions>
      </trkpt>
      <trkpt lat="47.56934442557394504547119140625" lon="-3.05057781748473644256591796875">
        <ele>-4.19999980926513671875</ele>
        <time>2026-08-15T17:19:40.000Z</time>
        <extensions>
          <ns3:TrackPointExtension>
            <ns3:hr>109</ns3:hr>
          </ns3:TrackPointExtension>
        </extensions>
      </trkpt>
      <trkpt lat="47.5693471916019916534423828125" lon="-3.05057496763765811920166015625">
        <ele>-4.19999980926513671875</ele>
        <time>2026-08-15T17:19:41.000Z</time>
        <extensions>
          <ns3:TrackPointExtension>
            <ns3:hr>108</ns3:hr>
          </ns3:TrackPointExtension>
        </extensions>
      </trkpt>
      <trkpt lat="47.56935381330549716949462890625" lon="-3.050573207437992095947265625">
        <ele>-4.19999980926513671875</ele>
        <time>2026-08-15T17:19:42.000Z</time>
        <extensions>
          <ns3:TrackPointExtension>
            <ns3:hr>107</ns3:hr>
          </ns3:TrackPointExtension>
        </extensions>
      </trkpt>
      <trkpt lat="47.5693545676767826080322265625" lon="-3.05056943558156490325927734375">
        <ele>-4.19999980926513671875</ele>
        <time>2026-08-15T17:19:43.000Z</time>
        <extensions>
          <ns3:TrackPointExtension>
            <ns3:hr>108</ns3:hr>
          </ns3:TrackPointExtension>
        </extensions>
      </trkpt>
      <trkpt lat="47.56935766898095607757568359375" lon="-3.0505661666393280029296875">
        <ele>-4.400000095367431640625</ele>
        <time>2026-08-15T17:19:44.000Z</time>
        <extensions>
          <ns3:TrackPointExtension>
            <ns3:hr>110</ns3:hr>
          </ns3:TrackPointExtension>
        </extensions>
      </trkpt>
      <trkpt lat="47.56936185993254184722900390625" lon="-3.05056608282029628753662109375">
        <ele>-4.400000095367431640625</ele>
        <time>2026-08-15T17:19:45.000Z</time>
        <extensions>
          <ns3:TrackPointExtension>
            <ns3:hr>111</ns3:hr>
          </ns3:TrackPointExtension>
        </extensions>
      </trkpt>
      <trkpt lat="47.56936655379831790924072265625" lon="-3.050561137497425079345703125">
        <ele>-4.599999904632568359375</ele>
        <time>2026-08-15T17:19:46.000Z</time>
        <extensions>
          <ns3:TrackPointExtension>
            <ns3:hr>112</ns3:hr>
          </ns3:TrackPointExtension>
        </extensions>
      </trkpt>
      <trkpt lat="47.56937049329280853271484375" lon="-3.05055954493582248687744140625">
        <ele>-4.599999904632568359375</ele>
        <time>2026-08-15T17:19:47.000Z</time>
        <extensions>
          <ns3:TrackPointExtension>
            <ns3:hr>113</ns3:hr>
          </ns3:TrackPointExtension>
        </extensions>
      </trkpt>
      <trkpt lat="47.56937208585441112518310546875" lon="-3.0505542643368244171142578125">
        <ele>-4.599999904632568359375</ele>
        <time>2026-08-15T17:19:48.000Z</time>
        <extensions>
          <ns3:TrackPointExtension>
            <ns3:hr>114</ns3:hr>
          </ns3:TrackPointExtension>
        </extensions>
      </trkpt>
      <trkpt lat="47.56937359459698200225830078125" lon="-3.05054596625268459320068359375">
        <ele>-4.599999904632568359375</ele>
        <time>2026-08-15T17:19:49.000Z</time>
        <extensions>
          <ns3:TrackPointExtension>
            <ns3:hr>115</ns3:hr>
          </ns3:TrackPointExtension>
        </extensions>
      </trkpt>
      <trkpt lat="47.56937979720532894134521484375" lon="-3.05054395459592342376708984375">
        <ele>-4.599999904632568359375</ele>
        <time>2026-08-15T17:19:50.000Z</time>
        <extensions>
          <ns3:TrackPointExtension>
            <ns3:hr>115</ns3:hr>
          </ns3:TrackPointExtension>
        </extensions>
      </trkpt>
      <trkpt lat="47.56938348524272441864013671875" lon="-3.0505415238440036773681640625">
        <ele>-4.400000095367431640625</ele>
        <time>2026-08-15T17:19:51.000Z</time>
        <extensions>
          <ns3:TrackPointExtension>
            <ns3:hr>115</ns3:hr>
          </ns3:TrackPointExtension>
        </extensions>
      </trkpt>
      <trkpt lat="47.56938382051885128021240234375" lon="-3.05053599178791046142578125">
        <ele>-4.599999904632568359375</ele>
        <time>2026-08-15T17:19:52.000Z</time>
        <extensions>
          <ns3:TrackPointExtension>
            <ns3:hr>114</ns3:hr>
          </ns3:TrackPointExtension>
        </extensions>
      </trkpt>
      <trkpt lat="47.5693864189088344573974609375" lon="-3.05053305812180042266845703125">
        <ele>-4.599999904632568359375</ele>
        <time>2026-08-15T17:19:53.000Z</time>
        <extensions>
          <ns3:TrackPointExtension>
            <ns3:hr>114</ns3:hr>
          </ns3:TrackPointExtension>
        </extensions>
      </trkpt>
      <trkpt lat="47.569387257099151611328125" lon="-3.05052526295185089111328125">
        <ele>-4.80000019073486328125</ele>
        <time>2026-08-15T17:19:54.000Z</time>
        <extensions>
          <ns3:TrackPointExtension>
            <ns3:hr>114</ns3:hr>
          </ns3:TrackPointExtension>
        </extensions>
      </trkpt>
      <trkpt lat="47.56938851438462734222412109375" lon="-3.05051914416253566741943359375">
        <ele>-5</ele>
        <time>2026-08-15T17:19:55.000Z</time>
        <extensions>
          <ns3:TrackPointExtension>
            <ns3:hr>116</ns3:hr>
          </ns3:TrackPointExtension>
        </extensions>
      </trkpt>
      <trkpt lat="47.5693958066403865814208984375" lon="-3.05051428265869617462158203125">
        <ele>-5</ele>
        <time>2026-08-15T17:19:56.000Z</time>
        <extensions>
          <ns3:TrackPointExtension>
            <ns3:hr>118</ns3:hr>
          </ns3:TrackPointExtension>
        </extensions>
      </trkpt>
      <trkpt lat="47.56939857266843318939208984375" lon="-3.05050782859325408935546875">
        <ele>-4.80000019073486328125</ele>
        <time>2026-08-15T17:19:57.000Z</time>
        <extensions>
          <ns3:TrackPointExtension>
            <ns3:hr>122</ns3:hr>
          </ns3:TrackPointExtension>
        </extensions>
      </trkpt>
      <trkpt lat="47.5694021768867969512939453125" lon="-3.0505006201565265655517578125">
        <ele>-4.400000095367431640625</ele>
        <time>2026-08-15T17:19:58.000Z</time>
        <extensions>
          <ns3:TrackPointExtension>
            <ns3:hr>126</ns3:hr>
          </ns3:TrackPointExtension>
        </extensions>
      </trkpt>
      <trkpt lat="47.5694078765809535980224609375" lon="-3.05049634538590908050537109375">
        <ele>-4.19999980926513671875</ele>
        <time>2026-08-15T17:19:59.000Z</time>
        <extensions>
          <ns3:TrackPointExtension>
            <ns3:hr>128</ns3:hr>
          </ns3:TrackPointExtension>
        </extensions>
      </trkpt>
      <trkpt lat="47.56941248662769794464111328125" lon="-3.0504942499101161956787109375">
        <ele>-4</ele>
        <time>2026-08-15T17:20:00.000Z</time>
        <extensions>
          <ns3:TrackPointExtension>
            <ns3:hr>129</ns3:hr>
          </ns3:TrackPointExtension>
        </extensions>
      </trkpt>
      <trkpt lat="47.56941718049347400665283203125" lon="-3.0504937469959259033203125">
        <ele>-4</ele>
        <time>2026-08-15T17:20:01.000Z</time>
        <extensions>
          <ns3:TrackPointExtension>
            <ns3:hr>129</ns3:hr>
          </ns3:TrackPointExtension>
        </extensions>
      </trkpt>
      <trkpt lat="47.5694234669208526611328125" lon="-3.05048729293048381805419921875">
        <ele>-4.19999980926513671875</ele>
        <time>2026-08-15T17:20:02.000Z</time>
        <extensions>
          <ns3:TrackPointExtension>
            <ns3:hr>129</ns3:hr>
          </ns3:TrackPointExtension>
        </extensions>
      </trkpt>
      <trkpt lat="47.569426484405994415283203125" lon="-3.05047522298991680145263671875">
        <ele>-4.19999980926513671875</ele>
        <time>2026-08-15T17:20:03.000Z</time>
        <extensions>
          <ns3:TrackPointExtension>
            <ns3:hr>129</ns3:hr>
          </ns3:TrackPointExtension>
        </extensions>
      </trkpt>
      <trkpt lat="47.56943218410015106201171875" lon="-3.050467260181903839111328125">
        <ele>-4.400000095367431640625</ele>
        <time>2026-08-15T17:20:04.000Z</time>
        <extensions>
          <ns3:TrackPointExtension>
            <ns3:hr>129</ns3:hr>
          </ns3:TrackPointExtension>
        </extensions>
      </trkpt>
      <trkpt lat="47.5694383867084980010986328125" lon="-3.0504640750586986541748046875">
        <ele>-4.599999904632568359375</ele>
        <time>2026-08-15T17:20:05.000Z</time>
        <extensions>
          <ns3:TrackPointExtension>
            <ns3:hr>129</ns3:hr>
          </ns3:TrackPointExtension>
        </extensions>
      </trkpt>
      <trkpt lat="47.569439224898815155029296875" lon="-3.05045058019459247589111328125">
        <ele>-4.80000019073486328125</ele>
        <time>2026-08-15T17:20:06.000Z</time>
        <extensions>
          <ns3:TrackPointExtension>
            <ns3:hr>129</ns3:hr>
          </ns3:TrackPointExtension>
        </extensions>
      </trkpt>
      <trkpt lat="47.56943863816559314727783203125" lon="-3.0504419468343257904052734375">
        <ele>-4.80000019073486328125</ele>
        <time>2026-08-15T17:20:07.000Z</time>
        <extensions>
          <ns3:TrackPointExtension>
            <ns3:hr>130</ns3:hr>
          </ns3:TrackPointExtension>
        </extensions>
      </trkpt>
      <trkpt lat="47.56944064982235431671142578125" lon="-3.0504355765879154205322265625">
        <ele>-4.80000019073486328125</ele>
        <time>2026-08-15T17:20:08.000Z</time>
        <extensions>
          <ns3:TrackPointExtension>
            <ns3:hr>130</ns3:hr>
          </ns3:TrackPointExtension>
        </extensions>
      </trkpt>
      <trkpt lat="47.56944349966943264007568359375" lon="-3.05042870342731475830078125">
        <ele>-4.80000019073486328125</ele>
        <time>2026-08-15T17:20:09.000Z</time>
        <extensions>
          <ns3:TrackPointExtension>
            <ns3:hr>130</ns3:hr>
          </ns3:TrackPointExtension>
        </extensions>
      </trkpt>
      <trkpt lat="47.56944702006876468658447265625" lon="-3.05042065680027008056640625">
        <ele>-5</ele>
        <time>2026-08-15T17:20:10.000Z</time>
        <extensions>
          <ns3:TrackPointExtension>
            <ns3:hr>130</ns3:hr>
          </ns3:TrackPointExtension>
        </extensions>
      </trkpt>
      <trkpt lat="47.56944936700165271759033203125" lon="-3.05041805841028690338134765625">
        <ele>-4.80000019073486328125</ele>
        <time>2026-08-15T17:20:11.000Z</time>
        <extensions>
          <ns3:TrackPointExtension>
            <ns3:hr>130</ns3:hr>
          </ns3:TrackPointExtension>
        </extensions>
      </trkpt>
      <trkpt lat="47.569457329809665679931640625" lon="-3.05041638202965259552001953125">
        <ele>-4.599999904632568359375</ele>
        <time>2026-08-15T17:20:12.000Z</time>
        <extensions>
          <ns3:TrackPointExtension>
            <ns3:hr>130</ns3:hr>
          </ns3:TrackPointExtension>
        </extensions>
      </trkpt>
      <trkpt lat="47.56945808418095111846923828125" lon="-3.05041420273482799530029296875">
        <ele>-4.400000095367431640625</ele>
        <time>2026-08-15T17:20:13.000Z</time>
        <extensions>
          <ns3:TrackPointExtension>
            <ns3:hr>130</ns3:hr>
          </ns3:TrackPointExtension>
        </extensions>
      </trkpt>
      <trkpt lat="47.56946210749447345733642578125" lon="-3.05040649138391017913818359375">
        <ele>-4.19999980926513671875</ele>
        <time>2026-08-15T17:20:14.000Z</time>
        <extensions>
          <ns3:TrackPointExtension>
            <ns3:hr>129</ns3:hr>
          </ns3:TrackPointExtension>
        </extensions>
      </trkpt>
      <trkpt lat="47.569463364779949188232421875" lon="-3.05039785802364349365234375">
        <ele>-4</ele>
        <time>2026-08-15T17:20:15.000Z</time>
        <extensions>
          <ns3:TrackPointExtension>
            <ns3:hr>130</ns3:hr>
          </ns3:TrackPointExtension>
        </extensions>
      </trkpt>
      <trkpt lat="47.56946596316993236541748046875" lon="-3.0503852851688861846923828125">
        <ele>-4.19999980926513671875</ele>
        <time>2026-08-15T17:20:16.000Z</time>
        <extensions>
          <ns3:TrackPointExtension>
            <ns3:hr>130</ns3:hr>
          </ns3:TrackPointExtension>
        </extensions>
      </trkpt>
      <trkpt lat="47.56947065703570842742919921875" lon="-3.05037531070411205291748046875">
        <ele>-4.400000095367431640625</ele>
        <time>2026-08-15T17:20:17.000Z</time>
        <extensions>
          <ns3:TrackPointExtension>
            <ns3:hr>130</ns3:hr>
          </ns3:TrackPointExtension>
        </extensions>
      </trkpt>
      <trkpt lat="47.5694749318063259124755859375" lon="-3.050371706485748291015625">
        <ele>-4.599999904632568359375</ele>
        <time>2026-08-15T17:20:18.000Z</time>
        <extensions>
          <ns3:TrackPointExtension>
            <ns3:hr>129</ns3:hr>
          </ns3:TrackPointExtension>
        </extensions>
      </trkpt>
      <trkpt lat="47.56947585381567478179931640625" lon="-3.0503638274967670440673828125">
        <ele>-4.599999904632568359375</ele>
        <time>2026-08-15T17:20:19.000Z</time>
        <extensions>
          <ns3:TrackPointExtension>
            <ns3:hr>129</ns3:hr>
          </ns3:TrackPointExtension>
        </extensions>
      </trkpt>
      <trkpt lat="47.56947778165340423583984375" lon="-3.0503564514219760894775390625">
        <ele>-4.80000019073486328125</ele>
        <time>2026-08-15T17:20:20.000Z</time>
        <extensions>
          <ns3:TrackPointExtension>
            <ns3:hr>129</ns3:hr>
          </ns3:TrackPointExtension>
        </extensions>
      </trkpt>
      <trkpt lat="47.5694873370230197906494140625" lon="-3.05035360157489776611328125">
        <ele>-4.80000019073486328125</ele>
        <time>2026-08-15T17:20:21.000Z</time>
        <extensions>
          <ns3:TrackPointExtension>
            <ns3:hr>129</ns3:hr>
          </ns3:TrackPointExtension>
        </extensions>
      </trkpt>
      <trkpt lat="47.5694967247545719146728515625" lon="-3.05035335011780261993408203125">
        <ele>-4.599999904632568359375</ele>
        <time>2026-08-15T17:20:22.000Z</time>
        <extensions>
          <ns3:TrackPointExtension>
            <ns3:hr>129</ns3:hr>
          </ns3:TrackPointExtension>
        </extensions>
      </trkpt>
      <trkpt lat="47.5695024244487285614013671875" lon="-3.0503477342426776885986328125">
        <ele>-4.400000095367431640625</ele>
        <time>2026-08-15T17:20:23.000Z</time>
        <extensions>
          <ns3:TrackPointExtension>
            <ns3:hr>129</ns3:hr>
          </ns3:TrackPointExtension>
        </extensions>
      </trkpt>
      <trkpt lat="47.56950921379029750823974609375" lon="-3.0503408610820770263671875">
        <ele>-4.19999980926513671875</ele>
        <time>2026-08-15T17:20:24.000Z</time>
        <extensions>
          <ns3:TrackPointExtension>
            <ns3:hr>129</ns3:hr>
          </ns3:TrackPointExtension>
        </extensions>
      </trkpt>
      <trkpt lat="47.5695151649415493011474609375" lon="-3.05033306591212749481201171875">
        <ele>-4</ele>
        <time>2026-08-15T17:20:25.000Z</time>
        <extensions>
          <ns3:TrackPointExtension>
            <ns3:hr>130</ns3:hr>
          </ns3:TrackPointExtension>
        </extensions>
      </trkpt>
      <trkpt lat="47.56952899508178234100341796875" lon="-3.0503266118466854095458984375">
        <ele>-3.7999999523162841796875</ele>
        <time>2026-08-15T17:20:26.000Z</time>
        <extensions>
          <ns3:TrackPointExtension>
            <ns3:hr>130</ns3:hr>
          </ns3:TrackPointExtension>
        </extensions>
      </trkpt>
      <trkpt lat="47.5695409812033176422119140625" lon="-3.05033071897923946380615234375">
        <ele>-3.599999904632568359375</ele>
        <time>2026-08-15T17:20:27.000Z</time>
        <extensions>
          <ns3:TrackPointExtension>
            <ns3:hr>130</ns3:hr>
          </ns3:TrackPointExtension>
        </extensions>
      </trkpt>
      <trkpt lat="47.569556571543216705322265625" lon="-3.05033390410244464874267578125">
        <ele>-3.2000000476837158203125</ele>
        <time>2026-08-15T17:20:28.000Z</time>
        <extensions>
          <ns3:TrackPointExtension>
            <ns3:hr>130</ns3:hr>
          </ns3:TrackPointExtension>
        </extensions>
      </trkpt>
      <trkpt lat="47.569561935961246490478515625" lon="-3.05033708922564983367919921875">
        <ele>-3.2000000476837158203125</ele>
        <time>2026-08-15T17:20:29.000Z</time>
        <extensions>
          <ns3:TrackPointExtension>
            <ns3:hr>129</ns3:hr>
          </ns3:TrackPointExtension>
        </extensions>
      </trkpt>
      <trkpt lat="47.56956973113119602203369140625" lon="-3.05033138953149318695068359375">
        <ele>-3</ele>
        <time>2026-08-15T17:20:30.000Z</time>
        <extensions>
          <ns3:TrackPointExtension>
            <ns3:hr>129</ns3:hr>
          </ns3:TrackPointExtension>
        </extensions>
      </trkpt>
      <trkpt lat="47.56957895122468471527099609375" lon="-3.05032099597156047821044921875">
        <ele>-3</ele>
        <time>2026-08-15T17:20:31.000Z</time>
        <extensions>
          <ns3:TrackPointExtension>
            <ns3:hr>128</ns3:hr>
          </ns3:TrackPointExtension>
        </extensions>
      </trkpt>
      <trkpt lat="47.56958364509046077728271484375" lon="-3.05031697265803813934326171875">
        <ele>-3.2000000476837158203125</ele>
        <time>2026-08-15T17:20:32.000Z</time>
        <extensions>
          <ns3:TrackPointExtension>
            <ns3:hr>128</ns3:hr>
          </ns3:TrackPointExtension>
        </extensions>
      </trkpt>
      <trkpt lat="47.56958582438528537750244140625" lon="-3.050307333469390869140625">
        <ele>-3.400000095367431640625</ele>
        <time>2026-08-15T17:20:33.000Z</time>
        <extensions>
          <ns3:TrackPointExtension>
            <ns3:hr>128</ns3:hr>
          </ns3:TrackPointExtension>
        </extensions>
      </trkpt>
      <trkpt lat="47.5695983134210109710693359375" lon="-3.0502981133759021759033203125">
        <ele>-3.599999904632568359375</ele>
        <time>2026-08-15T17:20:34.000Z</time>
        <extensions>
          <ns3:TrackPointExtension>
            <ns3:hr>127</ns3:hr>
          </ns3:TrackPointExtension>
        </extensions>
      </trkpt>
      <trkpt lat="47.56961013190448284149169921875" lon="-3.050289563834667205810546875">
        <ele>-3.599999904632568359375</ele>
        <time>2026-08-15T17:20:35.000Z</time>
        <extensions>
          <ns3:TrackPointExtension>
            <ns3:hr>128</ns3:hr>
          </ns3:TrackPointExtension>
        </extensions>
      </trkpt>
      <trkpt lat="47.56962019018828868865966796875" lon="-3.0502925813198089599609375">
        <ele>-3.599999904632568359375</ele>
        <time>2026-08-15T17:20:36.000Z</time>
        <extensions>
          <ns3:TrackPointExtension>
            <ns3:hr>127</ns3:hr>
          </ns3:TrackPointExtension>
        </extensions>
      </trkpt>
      <trkpt lat="47.56962656043469905853271484375" lon="-3.05028042756021022796630859375">
        <ele>-3.7999999523162841796875</ele>
        <time>2026-08-15T17:20:37.000Z</time>
        <extensions>
          <ns3:TrackPointExtension>
            <ns3:hr>125</ns3:hr>
          </ns3:TrackPointExtension>
        </extensions>
      </trkpt>
      <trkpt lat="47.56963242776691913604736328125" lon="-3.05027388967573642730712890625">
        <ele>-3.7999999523162841796875</ele>
        <time>2026-08-15T17:20:38.000Z</time>
        <extensions>
          <ns3:TrackPointExtension>
            <ns3:hr>124</ns3:hr>
          </ns3:TrackPointExtension>
        </extensions>
      </trkpt>
      <trkpt lat="47.5696385465562343597412109375" lon="-3.05026852525770664215087890625">
        <ele>-3.599999904632568359375</ele>
        <time>2026-08-15T17:20:39.000Z</time>
        <extensions>
          <ns3:TrackPointExtension>
            <ns3:hr>123</ns3:hr>
          </ns3:TrackPointExtension>
        </extensions>
      </trkpt>
      <trkpt lat="47.56964080967009067535400390625" lon="-3.05026818998157978057861328125">
        <ele>-3.599999904632568359375</ele>
        <time>2026-08-15T17:20:40.000Z</time>
        <extensions>
          <ns3:TrackPointExtension>
            <ns3:hr>123</ns3:hr>
          </ns3:TrackPointExtension>
        </extensions>
      </trkpt>
      <trkpt lat="47.5696469284594058990478515625" lon="-3.0502649210393428802490234375">
        <ele>-3.400000095367431640625</ele>
        <time>2026-08-15T17:20:41.000Z</time>
        <extensions>
          <ns3:TrackPointExtension>
            <ns3:hr>122</ns3:hr>
          </ns3:TrackPointExtension>
        </extensions>
      </trkpt>
      <trkpt lat="47.56965338252484798431396484375" lon="-3.05026081390678882598876953125">
        <ele>-3.400000095367431640625</ele>
        <time>2026-08-15T17:20:42.000Z</time>
        <extensions>
          <ns3:TrackPointExtension>
            <ns3:hr>122</ns3:hr>
          </ns3:TrackPointExtension>
        </extensions>
      </trkpt>
      <trkpt lat="47.569663859903812408447265625" lon="-3.05025494657456874847412109375">
        <ele>-3.400000095367431640625</ele>
        <time>2026-08-15T17:20:43.000Z</time>
        <extensions>
          <ns3:TrackPointExtension>
            <ns3:hr>120</ns3:hr>
          </ns3:TrackPointExtension>
        </extensions>
      </trkpt>
      <trkpt lat="47.5696683861315250396728515625" lon="-3.05025125853717327117919921875">
        <ele>-3.400000095367431640625</ele>
        <time>2026-08-15T17:20:44.000Z</time>
        <extensions>
          <ns3:TrackPointExtension>
            <ns3:hr>118</ns3:hr>
          </ns3:TrackPointExtension>
        </extensions>
      </trkpt>
      <trkpt lat="47.569667883217334747314453125" lon="-3.05024656467139720916748046875">
        <ele>-3.400000095367431640625</ele>
        <time>2026-08-15T17:20:45.000Z</time>
        <extensions>
          <ns3:TrackPointExtension>
            <ns3:hr>117</ns3:hr>
          </ns3:TrackPointExtension>
        </extensions>
      </trkpt>
      <trkpt lat="47.5696781091392040252685546875" lon="-3.0502387695014476776123046875">
        <ele>-3.400000095367431640625</ele>
        <time>2026-08-15T17:20:46.000Z</time>
        <extensions>
          <ns3:TrackPointExtension>
            <ns3:hr>117</ns3:hr>
          </ns3:TrackPointExtension>
        </extensions>
      </trkpt>
      <trkpt lat="47.56968657486140727996826171875" lon="-3.0502337403595447540283203125">
        <ele>-3.400000095367431640625</ele>
        <time>2026-08-15T17:20:47.000Z</time>
        <extensions>
          <ns3:TrackPointExtension>
            <ns3:hr>117</ns3:hr>
          </ns3:TrackPointExtension>
        </extensions>
      </trkpt>
      <trkpt lat="47.56969143636524677276611328125" lon="-3.05023281835019588470458984375">
        <ele>-3.400000095367431640625</ele>
        <time>2026-08-15T17:20:48.000Z</time>
        <extensions>
          <ns3:TrackPointExtension>
            <ns3:hr>117</ns3:hr>
          </ns3:TrackPointExtension>
        </extensions>
      </trkpt>
      <trkpt lat="47.56969110108911991119384765625" lon="-3.05022762157022953033447265625">
        <ele>-3.400000095367431640625</ele>
        <time>2026-08-15T17:20:49.000Z</time>
        <extensions>
          <ns3:TrackPointExtension>
            <ns3:hr>117</ns3:hr>
          </ns3:TrackPointExtension>
        </extensions>
      </trkpt>
      <trkpt lat="47.569693364202976226806640625" lon="-3.0502240173518657684326171875">
        <ele>-3.400000095367431640625</ele>
        <time>2026-08-15T17:20:50.000Z</time>
        <extensions>
          <ns3:TrackPointExtension>
            <ns3:hr>116</ns3:hr>
          </ns3:TrackPointExtension>
        </extensions>
      </trkpt>
      <trkpt lat="47.5696970522403717041015625" lon="-3.05022753775119781494140625">
        <ele>-3.599999904632568359375</ele>
        <time>2026-08-15T17:20:51.000Z</time>
        <extensions>
          <ns3:TrackPointExtension>
            <ns3:hr>114</ns3:hr>
          </ns3:TrackPointExtension>
        </extensions>
      </trkpt>
      <trkpt lat="47.56970568560063838958740234375" lon="-3.05023021996021270751953125">
        <ele>-3.599999904632568359375</ele>
        <time>2026-08-15T17:20:52.000Z</time>
        <extensions>
          <ns3:TrackPointExtension>
            <ns3:hr>115</ns3:hr>
          </ns3:TrackPointExtension>
        </extensions>
      </trkpt>
      <trkpt lat="47.569707445800304412841796875" lon="-3.05022477172315120697021484375">
        <ele>-3.599999904632568359375</ele>
        <time>2026-08-15T17:20:53.000Z</time>
        <extensions>
          <ns3:TrackPointExtension>
            <ns3:hr>117</ns3:hr>
          </ns3:TrackPointExtension>
        </extensions>
      </trkpt>
      <trkpt lat="47.56970820017158985137939453125" lon="-3.05022074840962886810302734375">
        <ele>-3.599999904632568359375</ele>
        <time>2026-08-15T17:20:54.000Z</time>
        <extensions>
          <ns3:TrackPointExtension>
            <ns3:hr>119</ns3:hr>
          </ns3:TrackPointExtension>
        </extensions>
      </trkpt>
      <trkpt lat="47.56971247494220733642578125" lon="-3.0502156354486942291259765625">
        <ele>-3.599999904632568359375</ele>
        <time>2026-08-15T17:20:55.000Z</time>
        <extensions>
          <ns3:TrackPointExtension>
            <ns3:hr>121</ns3:hr>
          </ns3:TrackPointExtension>
        </extensions>
      </trkpt>
      <trkpt lat="47.56971775554120540618896484375" lon="-3.05020901374518871307373046875">
        <ele>-3.599999904632568359375</ele>
        <time>2026-08-15T17:20:56.000Z</time>
        <extensions>
          <ns3:TrackPointExtension>
            <ns3:hr>122</ns3:hr>
          </ns3:TrackPointExtension>
        </extensions>
      </trkpt>
      <trkpt lat="47.56972311995923519134521484375" lon="-3.05020230822265148162841796875">
        <ele>-3.599999904632568359375</ele>
        <time>2026-08-15T17:20:57.000Z</time>
        <extensions>
          <ns3:TrackPointExtension>
            <ns3:hr>123</ns3:hr>
          </ns3:TrackPointExtension>
        </extensions>
      </trkpt>
      <trkpt lat="47.569728232920169830322265625" lon="-3.0502039007842540740966796875">
        <ele>-3.7999999523162841796875</ele>
        <time>2026-08-15T17:20:58.000Z</time>
        <extensions>
          <ns3:TrackPointExtension>
            <ns3:hr>123</ns3:hr>
          </ns3:TrackPointExtension>
        </extensions>
      </trkpt>
      <trkpt lat="47.56973787210881710052490234375" lon="-3.0502042360603809356689453125">
        <ele>-3.7999999523162841796875</ele>
        <time>2026-08-15T17:20:59.000Z</time>
        <extensions>
          <ns3:TrackPointExtension>
            <ns3:hr>123</ns3:hr>
          </ns3:TrackPointExtension>
        </extensions>
      </trkpt>
      <trkpt lat="47.56974340416491031646728515625" lon="-3.050201721489429473876953125">
        <ele>-3.599999904632568359375</ele>
        <time>2026-08-15T17:21:00.000Z</time>
        <extensions>
          <ns3:TrackPointExtension>
            <ns3:hr>124</ns3:hr>
          </ns3:TrackPointExtension>
        </extensions>
      </trkpt>
      <trkpt lat="47.56975614465773105621337890625" lon="-3.05020029656589031219482421875">
        <ele>-3.599999904632568359375</ele>
        <time>2026-08-15T17:21:01.000Z</time>
        <extensions>
          <ns3:TrackPointExtension>
            <ns3:hr>123</ns3:hr>
          </ns3:TrackPointExtension>
        </extensions>
      </trkpt>
      <trkpt lat="47.5697609223425388336181640625" lon="-3.05019744671881198883056640625">
        <ele>-3.400000095367431640625</ele>
        <time>2026-08-15T17:21:02.000Z</time>
        <extensions>
          <ns3:TrackPointExtension>
            <ns3:hr>122</ns3:hr>
          </ns3:TrackPointExtension>
        </extensions>
      </trkpt>
      <trkpt lat="47.5697659514844417572021484375" lon="-3.0501968599855899810791015625">
        <ele>-3.400000095367431640625</ele>
        <time>2026-08-15T17:21:03.000Z</time>
        <extensions>
          <ns3:TrackPointExtension>
            <ns3:hr>123</ns3:hr>
          </ns3:TrackPointExtension>
        </extensions>
      </trkpt>
      <trkpt lat="47.5697739981114864349365234375" lon="-3.05019694380462169647216796875">
        <ele>-3.400000095367431640625</ele>
        <time>2026-08-15T17:21:04.000Z</time>
        <extensions>
          <ns3:TrackPointExtension>
            <ns3:hr>122</ns3:hr>
          </ns3:TrackPointExtension>
        </extensions>
      </trkpt>
      <trkpt lat="47.5697776861488819122314453125" lon="-3.050196357071399688720703125">
        <ele>-3.599999904632568359375</ele>
        <time>2026-08-15T17:21:05.000Z</time>
        <extensions>
          <ns3:TrackPointExtension>
            <ns3:hr>123</ns3:hr>
          </ns3:TrackPointExtension>
        </extensions>
      </trkpt>
      <trkpt lat="47.5697833858430385589599609375" lon="-3.05019828490912914276123046875">
        <ele>-3.599999904632568359375</ele>
        <time>2026-08-15T17:21:06.000Z</time>
        <extensions>
          <ns3:TrackPointExtension>
            <ns3:hr>124</ns3:hr>
          </ns3:TrackPointExtension>
        </extensions>
      </trkpt>
      <trkpt lat="47.5697897560894489288330078125" lon="-3.050193004310131072998046875">
        <ele>-3.7999999523162841796875</ele>
        <time>2026-08-15T17:21:07.000Z</time>
        <extensions>
          <ns3:TrackPointExtension>
            <ns3:hr>126</ns3:hr>
          </ns3:TrackPointExtension>
        </extensions>
      </trkpt>
      <trkpt lat="47.5697988085448741912841796875" lon="-3.05019124411046504974365234375">
        <ele>-3.7999999523162841796875</ele>
        <time>2026-08-15T17:21:08.000Z</time>
        <extensions>
          <ns3:TrackPointExtension>
            <ns3:hr>128</ns3:hr>
          </ns3:TrackPointExtension>
        </extensions>
      </trkpt>
      <trkpt lat="47.569805346429347991943359375" lon="-3.0501904897391796112060546875">
        <ele>-3.7999999523162841796875</ele>
        <time>2026-08-15T17:21:09.000Z</time>
        <extensions>
          <ns3:TrackPointExtension>
            <ns3:hr>130</ns3:hr>
          </ns3:TrackPointExtension>
        </extensions>
      </trkpt>
      <trkpt lat="47.56981146521866321563720703125" lon="-3.0501844547688961029052734375">
        <ele>-3.7999999523162841796875</ele>
        <time>2026-08-15T17:21:10.000Z</time>
        <extensions>
          <ns3:TrackPointExtension>
            <ns3:hr>131</ns3:hr>
          </ns3:TrackPointExtension>
        </extensions>
      </trkpt>
      <trkpt lat="47.56982118822634220123291015625" lon="-3.05018017999827861785888671875">
        <ele>-3.7999999523162841796875</ele>
        <time>2026-08-15T17:21:11.000Z</time>
        <extensions>
          <ns3:TrackPointExtension>
            <ns3:hr>132</ns3:hr>
          </ns3:TrackPointExtension>
        </extensions>
      </trkpt>
      <trkpt lat="47.56983124651014804840087890625" lon="-3.050178587436676025390625">
        <ele>-3.7999999523162841796875</ele>
        <time>2026-08-15T17:21:12.000Z</time>
        <extensions>
          <ns3:TrackPointExtension>
            <ns3:hr>133</ns3:hr>
          </ns3:TrackPointExtension>
        </extensions>
      </trkpt>
      <trkpt lat="47.569836191833019256591796875" lon="-3.0501730553805828094482421875">
        <ele>-3.7999999523162841796875</ele>
        <time>2026-08-15T17:21:13.000Z</time>
        <extensions>
          <ns3:TrackPointExtension>
            <ns3:hr>135</ns3:hr>
          </ns3:TrackPointExtension>
        </extensions>
      </trkpt>
      <trkpt lat="47.56984055042266845703125" lon="-3.0501713789999485015869140625">
        <ele>-3.7999999523162841796875</ele>
        <time>2026-08-15T17:21:14.000Z</time>
        <extensions>
          <ns3:TrackPointExtension>
            <ns3:hr>137</ns3:hr>
          </ns3:TrackPointExtension>
        </extensions>
      </trkpt>
      <trkpt lat="47.5698418915271759033203125" lon="-3.05016995407640933990478515625">
        <ele>-3.7999999523162841796875</ele>
        <time>2026-08-15T17:21:15.000Z</time>
        <extensions>
          <ns3:TrackPointExtension>
            <ns3:hr>138</ns3:hr>
          </ns3:TrackPointExtension>
        </extensions>
      </trkpt>
      <trkpt lat="47.56984968669712543487548828125" lon="-3.05016190744936466217041015625">
        <ele>-3.7999999523162841796875</ele>
        <time>2026-08-15T17:21:16.000Z</time>
        <extensions>
          <ns3:TrackPointExtension>
            <ns3:hr>139</ns3:hr>
          </ns3:TrackPointExtension>
        </extensions>
      </trkpt>
      <trkpt lat="47.56985236890614032745361328125" lon="-3.050152771174907684326171875">
        <ele>-3.7999999523162841796875</ele>
        <time>2026-08-15T17:21:17.000Z</time>
        <extensions>
          <ns3:TrackPointExtension>
            <ns3:hr>139</ns3:hr>
          </ns3:TrackPointExtension>
        </extensions>
      </trkpt>
      <trkpt lat="47.56985865533351898193359375" lon="-3.05014614947140216827392578125">
        <ele>-4</ele>
        <time>2026-08-15T17:21:18.000Z</time>
        <extensions>
          <ns3:TrackPointExtension>
            <ns3:hr>139</ns3:hr>
          </ns3:TrackPointExtension>
        </extensions>
      </trkpt>
      <trkpt lat="47.569859661161899566650390625" lon="-3.05013902485370635986328125">
        <ele>-4.19999980926513671875</ele>
        <time>2026-08-15T17:21:19.000Z</time>
        <extensions>
          <ns3:TrackPointExtension>
            <ns3:hr>140</ns3:hr>
          </ns3:TrackPointExtension>
        </extensions>
      </trkpt>
      <trkpt lat="47.56986225955188274383544921875" lon="-3.0501395277678966522216796875">
        <ele>-4.400000095367431640625</ele>
        <time>2026-08-15T17:21:20.000Z</time>
        <extensions>
          <ns3:TrackPointExtension>
            <ns3:hr>140</ns3:hr>
          </ns3:TrackPointExtension>
        </extensions>
      </trkpt>
      <trkpt lat="47.569872401654720306396484375" lon="-3.0501422099769115447998046875">
        <ele>-4.599999904632568359375</ele>
        <time>2026-08-15T17:21:21.000Z</time>
        <extensions>
          <ns3:TrackPointExtension>
            <ns3:hr>140</ns3:hr>
          </ns3:TrackPointExtension>
        </extensions>
      </trkpt>
      <trkpt lat="47.569884471595287322998046875" lon="-3.05014413781464099884033203125">
        <ele>-4.400000095367431640625</ele>
        <time>2026-08-15T17:21:22.000Z</time>
        <extensions>
          <ns3:TrackPointExtension>
            <ns3:hr>140</ns3:hr>
          </ns3:TrackPointExtension>
        </extensions>
      </trkpt>
      <trkpt lat="47.5698846392333507537841796875" lon="-3.05013726465404033660888671875">
        <ele>-4.400000095367431640625</ele>
        <time>2026-08-15T17:21:23.000Z</time>
        <extensions>
          <ns3:TrackPointExtension>
            <ns3:hr>139</ns3:hr>
          </ns3:TrackPointExtension>
        </extensions>
      </trkpt>
      <trkpt lat="47.5698883272707462310791015625" lon="-3.05013257078826427459716796875">
        <ele>-4.400000095367431640625</ele>
        <time>2026-08-15T17:21:24.000Z</time>
        <extensions>
          <ns3:TrackPointExtension>
            <ns3:hr>140</ns3:hr>
          </ns3:TrackPointExtension>
        </extensions>
      </trkpt>
      <trkpt lat="47.56989578716456890106201171875" lon="-3.05013039149343967437744140625">
        <ele>-4.19999980926513671875</ele>
        <time>2026-08-15T17:21:25.000Z</time>
        <extensions>
          <ns3:TrackPointExtension>
            <ns3:hr>140</ns3:hr>
          </ns3:TrackPointExtension>
        </extensions>
      </trkpt>
      <trkpt lat="47.56990048103034496307373046875" lon="-3.05013634264469146728515625">
        <ele>-4.19999980926513671875</ele>
        <time>2026-08-15T17:21:26.000Z</time>
        <extensions>
          <ns3:TrackPointExtension>
            <ns3:hr>140</ns3:hr>
          </ns3:TrackPointExtension>
        </extensions>
      </trkpt>
      <trkpt lat="47.5699067674577236175537109375" lon="-3.0501257814466953277587890625">
        <ele>-4.400000095367431640625</ele>
        <time>2026-08-15T17:21:27.000Z</time>
        <extensions>
          <ns3:TrackPointExtension>
            <ns3:hr>139</ns3:hr>
          </ns3:TrackPointExtension>
        </extensions>
      </trkpt>
      <trkpt lat="47.5699134729802608489990234375" lon="-3.05012536235153675079345703125">
        <ele>-4.400000095367431640625</ele>
        <time>2026-08-15T17:21:28.000Z</time>
        <extensions>
          <ns3:TrackPointExtension>
            <ns3:hr>140</ns3:hr>
          </ns3:TrackPointExtension>
        </extensions>
      </trkpt>
      <trkpt lat="47.56991892121732234954833984375" lon="-3.05012787692248821258544921875">
        <ele>-4.400000095367431640625</ele>
        <time>2026-08-15T17:21:29.000Z</time>
        <extensions>
          <ns3:TrackPointExtension>
            <ns3:hr>140</ns3:hr>
          </ns3:TrackPointExtension>
        </extensions>
      </trkpt>
      <trkpt lat="47.56992638111114501953125" lon="-3.05012762546539306640625">
        <ele>-4.19999980926513671875</ele>
        <time>2026-08-15T17:21:30.000Z</time>
        <extensions>
          <ns3:TrackPointExtension>
            <ns3:hr>140</ns3:hr>
          </ns3:TrackPointExtension>
        </extensions>
      </trkpt>
      <trkpt lat="47.56993803195655345916748046875" lon="-3.05012351833283901214599609375">
        <ele>-4.19999980926513671875</ele>
        <time>2026-08-15T17:21:31.000Z</time>
        <extensions>
          <ns3:TrackPointExtension>
            <ns3:hr>139</ns3:hr>
          </ns3:TrackPointExtension>
        </extensions>
      </trkpt>
      <trkpt lat="47.56995211355388164520263671875" lon="-3.0501180700957775115966796875">
        <ele>-4</ele>
        <time>2026-08-15T17:21:32.000Z</time>
        <extensions>
          <ns3:TrackPointExtension>
            <ns3:hr>140</ns3:hr>
          </ns3:TrackPointExtension>
        </extensions>
      </trkpt>
      <trkpt lat="47.5699664466083049774169921875" lon="-3.0501177348196506500244140625">
        <ele>-4</ele>
        <time>2026-08-15T17:21:33.000Z</time>
        <extensions>
          <ns3:TrackPointExtension>
            <ns3:hr>139</ns3:hr>
          </ns3:TrackPointExtension>
        </extensions>
      </trkpt>
      <trkpt lat="47.56997809745371341705322265625" lon="-3.05011983029544353485107421875">
        <ele>-3.7999999523162841796875</ele>
        <time>2026-08-15T17:21:34.000Z</time>
        <extensions>
          <ns3:TrackPointExtension>
            <ns3:hr>139</ns3:hr>
          </ns3:TrackPointExtension>
        </extensions>
      </trkpt>
      <trkpt lat="47.56999368779361248016357421875" lon="-3.0501187406480312347412109375">
        <ele>-3.7999999523162841796875</ele>
        <time>2026-08-15T17:21:35.000Z</time>
        <extensions>
          <ns3:TrackPointExtension>
            <ns3:hr>139</ns3:hr>
          </ns3:TrackPointExtension>
        </extensions>
      </trkpt>
      <trkpt lat="47.5700016506016254425048828125" lon="-3.05011731572449207305908203125">
        <ele>-3.7999999523162841796875</ele>
        <time>2026-08-15T17:21:36.000Z</time>
        <extensions>
          <ns3:TrackPointExtension>
            <ns3:hr>139</ns3:hr>
          </ns3:TrackPointExtension>
        </extensions>
      </trkpt>
      <trkpt lat="47.57001313380897045135498046875" lon="-3.05011547170579433441162109375">
        <ele>-4</ele>
        <time>2026-08-15T17:21:37.000Z</time>
        <extensions>
          <ns3:TrackPointExtension>
            <ns3:hr>139</ns3:hr>
          </ns3:TrackPointExtension>
        </extensions>
      </trkpt>
      <trkpt lat="47.57002520374953746795654296875" lon="-3.05011932738125324249267578125">
        <ele>-4</ele>
        <time>2026-08-15T17:21:38.000Z</time>
        <extensions>
          <ns3:TrackPointExtension>
            <ns3:hr>139</ns3:hr>
          </ns3:TrackPointExtension>
        </extensions>
      </trkpt>
      <trkpt lat="47.57003744132816791534423828125" lon="-3.050117902457714080810546875">
        <ele>-4</ele>
        <time>2026-08-15T17:21:39.000Z</time>
        <extensions>
          <ns3:TrackPointExtension>
            <ns3:hr>139</ns3:hr>
          </ns3:TrackPointExtension>
        </extensions>
      </trkpt>
      <trkpt lat="47.57005152292549610137939453125" lon="-3.05012335069477558135986328125">
        <ele>-4</ele>
        <time>2026-08-15T17:21:40.000Z</time>
        <extensions>
          <ns3:TrackPointExtension>
            <ns3:hr>138</ns3:hr>
          </ns3:TrackPointExtension>
        </extensions>
      </trkpt>
      <trkpt lat="47.5700603239238262176513671875" lon="-3.05012402124702930450439453125">
        <ele>-3.7999999523162841796875</ele>
        <time>2026-08-15T17:21:41.000Z</time>
        <extensions>
          <ns3:TrackPointExtension>
            <ns3:hr>139</ns3:hr>
          </ns3:TrackPointExtension>
        </extensions>
      </trkpt>
      <trkpt lat="47.5700723938643932342529296875" lon="-3.05012695491313934326171875">
        <ele>-3.7999999523162841796875</ele>
        <time>2026-08-15T17:21:42.000Z</time>
        <extensions>
          <ns3:TrackPointExtension>
            <ns3:hr>139</ns3:hr>
          </ns3:TrackPointExtension>
        </extensions>
      </trkpt>
      <trkpt lat="47.5700819492340087890625" lon="-3.05012502707540988922119140625">
        <ele>-3.7999999523162841796875</ele>
        <time>2026-08-15T17:21:43.000Z</time>
        <extensions>
          <ns3:TrackPointExtension>
            <ns3:hr>139</ns3:hr>
          </ns3:TrackPointExtension>
        </extensions>
      </trkpt>
      <trkpt lat="47.57009603083133697509765625" lon="-3.05012804456055164337158203125">
        <ele>-3.7999999523162841796875</ele>
        <time>2026-08-15T17:21:44.000Z</time>
        <extensions>
          <ns3:TrackPointExtension>
            <ns3:hr>139</ns3:hr>
          </ns3:TrackPointExtension>
        </extensions>
      </trkpt>
      <trkpt lat="47.57010248489677906036376953125" lon="-3.05012268014252185821533203125">
        <ele>-3.7999999523162841796875</ele>
        <time>2026-08-15T17:21:45.000Z</time>
        <extensions>
          <ns3:TrackPointExtension>
            <ns3:hr>138</ns3:hr>
          </ns3:TrackPointExtension>
        </extensions>
      </trkpt>
      <trkpt lat="47.57011153735220432281494140625" lon="-3.05011932738125324249267578125">
        <ele>-3.7999999523162841796875</ele>
        <time>2026-08-15T17:21:46.000Z</time>
        <extensions>
          <ns3:TrackPointExtension>
            <ns3:hr>138</ns3:hr>
          </ns3:TrackPointExtension>
        </extensions>
      </trkpt>
      <trkpt lat="47.57012126035988330841064453125" lon="-3.0501150526106357574462890625">
        <ele>-3.599999904632568359375</ele>
        <time>2026-08-15T17:21:47.000Z</time>
        <extensions>
          <ns3:TrackPointExtension>
            <ns3:hr>138</ns3:hr>
          </ns3:TrackPointExtension>
        </extensions>
      </trkpt>
      <trkpt lat="47.5701297260820865631103515625" lon="-3.0501140467822551727294921875">
        <ele>-3.7999999523162841796875</ele>
        <time>2026-08-15T17:21:48.000Z</time>
        <extensions>
          <ns3:TrackPointExtension>
            <ns3:hr>138</ns3:hr>
          </ns3:TrackPointExtension>
        </extensions>
      </trkpt>
      <trkpt lat="47.570134587585926055908203125" lon="-3.05010692216455936431884765625">
        <ele>-3.7999999523162841796875</ele>
        <time>2026-08-15T17:21:49.000Z</time>
        <extensions>
          <ns3:TrackPointExtension>
            <ns3:hr>138</ns3:hr>
          </ns3:TrackPointExtension>
        </extensions>
      </trkpt>
      <trkpt lat="47.5701397843658924102783203125" lon="-3.0501026473939418792724609375">
        <ele>-3.7999999523162841796875</ele>
        <time>2026-08-15T17:21:50.000Z</time>
        <extensions>
          <ns3:TrackPointExtension>
            <ns3:hr>138</ns3:hr>
          </ns3:TrackPointExtension>
        </extensions>
      </trkpt>
      <trkpt lat="47.57014858536422252655029296875" lon="-3.05010507814586162567138671875">
        <ele>-3.7999999523162841796875</ele>
        <time>2026-08-15T17:21:51.000Z</time>
        <extensions>
          <ns3:TrackPointExtension>
            <ns3:hr>138</ns3:hr>
          </ns3:TrackPointExtension>
        </extensions>
      </trkpt>
      <trkpt lat="47.570157386362552642822265625" lon="-3.050107173621654510498046875">
        <ele>-3.7999999523162841796875</ele>
        <time>2026-08-15T17:21:52.000Z</time>
        <extensions>
          <ns3:TrackPointExtension>
            <ns3:hr>137</ns3:hr>
          </ns3:TrackPointExtension>
        </extensions>
      </trkpt>
      <trkpt lat="47.5701615773141384124755859375" lon="-3.05010139010846614837646484375">
        <ele>-3.599999904632568359375</ele>
        <time>2026-08-15T17:21:53.000Z</time>
        <extensions>
          <ns3:TrackPointExtension>
            <ns3:hr>137</ns3:hr>
          </ns3:TrackPointExtension>
        </extensions>
      </trkpt>
      <trkpt lat="47.5701664388179779052734375" lon="-3.05009954608976840972900390625">
        <ele>-3.599999904632568359375</ele>
        <time>2026-08-15T17:21:54.000Z</time>
        <extensions>
          <ns3:TrackPointExtension>
            <ns3:hr>136</ns3:hr>
          </ns3:TrackPointExtension>
        </extensions>
      </trkpt>
      <trkpt lat="47.5701729767024517059326171875" lon="-3.05009636096656322479248046875">
        <ele>-3.599999904632568359375</ele>
        <time>2026-08-15T17:21:55.000Z</time>
        <extensions>
          <ns3:TrackPointExtension>
            <ns3:hr>135</ns3:hr>
          </ns3:TrackPointExtension>
        </extensions>
      </trkpt>
      <trkpt lat="47.57017557509243488311767578125" lon="-3.05009099654853343963623046875">
        <ele>-3.599999904632568359375</ele>
        <time>2026-08-15T17:21:56.000Z</time>
        <extensions>
          <ns3:TrackPointExtension>
            <ns3:hr>135</ns3:hr>
          </ns3:TrackPointExtension>
        </extensions>
      </trkpt>
      <trkpt lat="47.5701833702623844146728515625" lon="-3.050089739263057708740234375">
        <ele>-3.599999904632568359375</ele>
        <time>2026-08-15T17:21:57.000Z</time>
        <extensions>
          <ns3:TrackPointExtension>
            <ns3:hr>134</ns3:hr>
          </ns3:TrackPointExtension>
        </extensions>
      </trkpt>
      <trkpt lat="47.570190913975238800048828125" lon="-3.05008563213050365447998046875">
        <ele>-3.7999999523162841796875</ele>
        <time>2026-08-15T17:21:58.000Z</time>
        <extensions>
          <ns3:TrackPointExtension>
            <ns3:hr>133</ns3:hr>
          </ns3:TrackPointExtension>
        </extensions>
      </trkpt>
      <trkpt lat="47.57020072080194950103759765625" lon="-3.050085715949535369873046875">
        <ele>-3.599999904632568359375</ele>
        <time>2026-08-15T17:21:59.000Z</time>
        <extensions>
          <ns3:TrackPointExtension>
            <ns3:hr>133</ns3:hr>
          </ns3:TrackPointExtension>
        </extensions>
      </trkpt>
      <trkpt lat="47.57020541466772556304931640625" lon="-3.0500835366547107696533203125">
        <ele>-3.599999904632568359375</ele>
        <time>2026-08-15T17:22:00.000Z</time>
        <extensions>
          <ns3:TrackPointExtension>
            <ns3:hr>132</ns3:hr>
          </ns3:TrackPointExtension>
        </extensions>
      </trkpt>
      <trkpt lat="47.57020868360996246337890625" lon="-3.0500791780650615692138671875">
        <ele>-3.599999904632568359375</ele>
        <time>2026-08-15T17:22:01.000Z</time>
        <extensions>
          <ns3:TrackPointExtension>
            <ns3:hr>131</ns3:hr>
          </ns3:TrackPointExtension>
        </extensions>
      </trkpt>
      <trkpt lat="47.570219747722148895263671875" lon="-3.0500764958560466766357421875">
        <ele>-3.599999904632568359375</ele>
        <time>2026-08-15T17:22:02.000Z</time>
        <extensions>
          <ns3:TrackPointExtension>
            <ns3:hr>130</ns3:hr>
          </ns3:TrackPointExtension>
        </extensions>
      </trkpt>
      <trkpt lat="47.57022502832114696502685546875" lon="-3.05007331073284149169921875">
        <ele>-3.599999904632568359375</ele>
        <time>2026-08-15T17:22:03.000Z</time>
        <extensions>
          <ns3:TrackPointExtension>
            <ns3:hr>129</ns3:hr>
          </ns3:TrackPointExtension>
        </extensions>
      </trkpt>
      <trkpt lat="47.57023022510111331939697265625" lon="-3.05007440038025379180908203125">
        <ele>-3.7999999523162841796875</ele>
        <time>2026-08-15T17:22:04.000Z</time>
        <extensions>
          <ns3:TrackPointExtension>
            <ns3:hr>129</ns3:hr>
          </ns3:TrackPointExtension>
        </extensions>
      </trkpt>
      <trkpt lat="47.57024095393717288970947265625" lon="-3.05007523857057094573974609375">
        <ele>-3.7999999523162841796875</ele>
        <time>2026-08-15T17:22:05.000Z</time>
        <extensions>
          <ns3:TrackPointExtension>
            <ns3:hr>128</ns3:hr>
          </ns3:TrackPointExtension>
        </extensions>
      </trkpt>
      <trkpt lat="47.5702514313161373138427734375" lon="-3.05007398128509521484375">
        <ele>-4</ele>
        <time>2026-08-15T17:22:06.000Z</time>
        <extensions>
          <ns3:TrackPointExtension>
            <ns3:hr>128</ns3:hr>
          </ns3:TrackPointExtension>
        </extensions>
      </trkpt>
      <trkpt lat="47.57025872357189655303955078125" lon="-3.05007331073284149169921875">
        <ele>-4</ele>
        <time>2026-08-15T17:22:07.000Z</time>
        <extensions>
          <ns3:TrackPointExtension>
            <ns3:hr>127</ns3:hr>
          </ns3:TrackPointExtension>
        </extensions>
      </trkpt>
      <trkpt lat="47.570264004170894622802734375" lon="-3.05007641203701496124267578125">
        <ele>-4</ele>
        <time>2026-08-15T17:22:08.000Z</time>
        <extensions>
          <ns3:TrackPointExtension>
            <ns3:hr>126</ns3:hr>
          </ns3:TrackPointExtension>
        </extensions>
      </trkpt>
      <trkpt lat="47.57026291452348232269287109375" lon="-3.05007708258926868438720703125">
        <ele>-4</ele>
        <time>2026-08-15T17:22:09.000Z</time>
        <extensions>
          <ns3:TrackPointExtension>
            <ns3:hr>126</ns3:hr>
          </ns3:TrackPointExtension>
        </extensions>
      </trkpt>
      <trkpt lat="47.57026945240795612335205078125" lon="-3.050076328217983245849609375">
        <ele>-3.7999999523162841796875</ele>
        <time>2026-08-15T17:22:10.000Z</time>
        <extensions>
          <ns3:TrackPointExtension>
            <ns3:hr>125</ns3:hr>
          </ns3:TrackPointExtension>
        </extensions>
      </trkpt>
      <trkpt lat="47.57027749903500080108642578125" lon="-3.05007557384669780731201171875">
        <ele>-3.7999999523162841796875</ele>
        <time>2026-08-15T17:22:11.000Z</time>
        <extensions>
          <ns3:TrackPointExtension>
            <ns3:hr>124</ns3:hr>
          </ns3:TrackPointExtension>
        </extensions>
      </trkpt>
      <trkpt lat="47.570283114910125732421875" lon="-3.05007205344736576080322265625">
        <ele>-3.7999999523162841796875</ele>
        <time>2026-08-15T17:22:12.000Z</time>
        <extensions>
          <ns3:TrackPointExtension>
            <ns3:hr>124</ns3:hr>
          </ns3:TrackPointExtension>
        </extensions>
      </trkpt>
      <trkpt lat="47.57028378546237945556640625" lon="-3.05007507093250751495361328125">
        <ele>-3.7999999523162841796875</ele>
        <time>2026-08-15T17:22:13.000Z</time>
        <extensions>
          <ns3:TrackPointExtension>
            <ns3:hr>124</ns3:hr>
          </ns3:TrackPointExtension>
        </extensions>
      </trkpt>
      <trkpt lat="47.57028839550912380218505859375" lon="-3.05007372982800006866455078125">
        <ele>-3.7999999523162841796875</ele>
        <time>2026-08-15T17:22:14.000Z</time>
        <extensions>
          <ns3:TrackPointExtension>
            <ns3:hr>124</ns3:hr>
          </ns3:TrackPointExtension>
        </extensions>
      </trkpt>
      <trkpt lat="47.5702943466603755950927734375" lon="-3.05007222108542919158935546875">
        <ele>-4</ele>
        <time>2026-08-15T17:22:15.000Z</time>
        <extensions>
          <ns3:TrackPointExtension>
            <ns3:hr>124</ns3:hr>
          </ns3:TrackPointExtension>
        </extensions>
      </trkpt>
      <trkpt lat="47.5702990405261516571044921875" lon="-3.0500731430947780609130859375">
        <ele>-4</ele>
        <time>2026-08-15T17:22:16.000Z</time>
        <extensions>
          <ns3:TrackPointExtension>
            <ns3:hr>124</ns3:hr>
          </ns3:TrackPointExtension>
        </extensions>
      </trkpt>
      <trkpt lat="47.57030013017356395721435546875" lon="-3.05007087998092174530029296875">
        <ele>-4.19999980926513671875</ele>
        <time>2026-08-15T17:22:17.000Z</time>
        <extensions>
          <ns3:TrackPointExtension>
            <ns3:hr>123</ns3:hr>
          </ns3:TrackPointExtension>
        </extensions>
      </trkpt>
      <trkpt lat="47.57031069137156009674072265625" lon="-3.05007138289511203765869140625">
        <ele>-4.19999980926513671875</ele>
        <time>2026-08-15T17:22:18.000Z</time>
        <extensions>
          <ns3:TrackPointExtension>
            <ns3:hr>123</ns3:hr>
          </ns3:TrackPointExtension>
        </extensions>
      </trkpt>
      <trkpt lat="47.57031622342765331268310546875" lon="-3.05006333626806735992431640625">
        <ele>-4.19999980926513671875</ele>
        <time>2026-08-15T17:22:19.000Z</time>
        <extensions>
          <ns3:TrackPointExtension>
            <ns3:hr>124</ns3:hr>
          </ns3:TrackPointExtension>
        </extensions>
      </trkpt>
      <trkpt lat="47.57032074965536594390869140625" lon="-3.050060570240020751953125">
        <ele>-4.19999980926513671875</ele>
        <time>2026-08-15T17:22:20.000Z</time>
        <extensions>
          <ns3:TrackPointExtension>
            <ns3:hr>124</ns3:hr>
          </ns3:TrackPointExtension>
        </extensions>
      </trkpt>
      <trkpt lat="47.5703318975865840911865234375" lon="-3.05005545727908611297607421875">
        <ele>-4.19999980926513671875</ele>
        <time>2026-08-15T17:22:21.000Z</time>
        <extensions>
          <ns3:TrackPointExtension>
            <ns3:hr>124</ns3:hr>
          </ns3:TrackPointExtension>
        </extensions>
      </trkpt>
      <trkpt lat="47.5703312270343303680419921875" lon="-3.050052858889102935791015625">
        <ele>-4.19999980926513671875</ele>
        <time>2026-08-15T17:22:22.000Z</time>
        <extensions>
          <ns3:TrackPointExtension>
            <ns3:hr>124</ns3:hr>
          </ns3:TrackPointExtension>
        </extensions>
      </trkpt>
      <trkpt lat="47.570339106023311614990234375" lon="-3.0500547029078006744384765625">
        <ele>-4.19999980926513671875</ele>
        <time>2026-08-15T17:22:23.000Z</time>
        <extensions>
          <ns3:TrackPointExtension>
            <ns3:hr>124</ns3:hr>
          </ns3:TrackPointExtension>
        </extensions>
      </trkpt>
      <trkpt lat="47.5703489966690540313720703125" lon="-3.050054199993610382080078125">
        <ele>-4.19999980926513671875</ele>
        <time>2026-08-15T17:22:24.000Z</time>
        <extensions>
          <ns3:TrackPointExtension>
            <ns3:hr>124</ns3:hr>
          </ns3:TrackPointExtension>
        </extensions>
      </trkpt>
      <trkpt lat="47.5703541934490203857421875" lon="-3.0500567145645618438720703125">
        <ele>-4.19999980926513671875</ele>
        <time>2026-08-15T17:22:25.000Z</time>
        <extensions>
          <ns3:TrackPointExtension>
            <ns3:hr>124</ns3:hr>
          </ns3:TrackPointExtension>
        </extensions>
      </trkpt>
      <trkpt lat="47.57035561837255954742431640625" lon="-3.05005453526973724365234375">
        <ele>-4.19999980926513671875</ele>
        <time>2026-08-15T17:22:26.000Z</time>
        <extensions>
          <ns3:TrackPointExtension>
            <ns3:hr>124</ns3:hr>
          </ns3:TrackPointExtension>
        </extensions>
      </trkpt>
      <trkpt lat="47.57035997696220874786376953125" lon="-3.05005428381264209747314453125">
        <ele>-4.19999980926513671875</ele>
        <time>2026-08-15T17:22:27.000Z</time>
        <extensions>
          <ns3:TrackPointExtension>
            <ns3:hr>124</ns3:hr>
          </ns3:TrackPointExtension>
        </extensions>
      </trkpt>
      <trkpt lat="47.57036835886538028717041015625" lon="-3.05005076341331005096435546875">
        <ele>-4.19999980926513671875</ele>
        <time>2026-08-15T17:22:28.000Z</time>
        <extensions>
          <ns3:TrackPointExtension>
            <ns3:hr>124</ns3:hr>
          </ns3:TrackPointExtension>
        </extensions>
      </trkpt>
      <trkpt lat="47.57037187926471233367919921875" lon="-3.05005193687975406646728515625">
        <ele>-4.400000095367431640625</ele>
        <time>2026-08-15T17:22:29.000Z</time>
        <extensions>
          <ns3:TrackPointExtension>
            <ns3:hr>124</ns3:hr>
          </ns3:TrackPointExtension>
        </extensions>
      </trkpt>
      <trkpt lat="47.57038210518658161163330078125" lon="-3.050044812262058258056640625">
        <ele>-4.400000095367431640625</ele>
        <time>2026-08-15T17:22:30.000Z</time>
        <extensions>
          <ns3:TrackPointExtension>
            <ns3:hr>124</ns3:hr>
          </ns3:TrackPointExtension>
        </extensions>
      </trkpt>
      <trkpt lat="47.57039451040327548980712890625" lon="-3.05004120804369449615478515625">
        <ele>-4.400000095367431640625</ele>
        <time>2026-08-15T17:22:31.000Z</time>
        <extensions>
          <ns3:TrackPointExtension>
            <ns3:hr>123</ns3:hr>
          </ns3:TrackPointExtension>
        </extensions>
      </trkpt>
      <trkpt lat="47.57040138356387615203857421875" lon="-3.05004053749144077301025390625">
        <ele>-4.599999904632568359375</ele>
        <time>2026-08-15T17:22:32.000Z</time>
        <extensions>
          <ns3:TrackPointExtension>
            <ns3:hr>123</ns3:hr>
          </ns3:TrackPointExtension>
        </extensions>
      </trkpt>
      <trkpt lat="47.57041529752314090728759765625" lon="-3.05004154331982135772705078125">
        <ele>-4.80000019073486328125</ele>
        <time>2026-08-15T17:22:33.000Z</time>
        <extensions>
          <ns3:TrackPointExtension>
            <ns3:hr>123</ns3:hr>
          </ns3:TrackPointExtension>
        </extensions>
      </trkpt>
      <trkpt lat="47.5704217515885829925537109375" lon="-3.05003584362566471099853515625">
        <ele>-4.80000019073486328125</ele>
        <time>2026-08-15T17:22:34.000Z</time>
        <extensions>
          <ns3:TrackPointExtension>
            <ns3:hr>123</ns3:hr>
          </ns3:TrackPointExtension>
        </extensions>
      </trkpt>
      <trkpt lat="47.57042753510177135467529296875" lon="-3.05003098212182521820068359375">
        <ele>-4.80000019073486328125</ele>
        <time>2026-08-15T17:22:35.000Z</time>
        <extensions>
          <ns3:TrackPointExtension>
            <ns3:hr>124</ns3:hr>
          </ns3:TrackPointExtension>
        </extensions>
      </trkpt>
      <trkpt lat="47.5704348273575305938720703125" lon="-3.05002980865538120269775390625">
        <ele>-4.80000019073486328125</ele>
        <time>2026-08-15T17:22:36.000Z</time>
        <extensions>
          <ns3:TrackPointExtension>
            <ns3:hr>124</ns3:hr>
          </ns3:TrackPointExtension>
        </extensions>
      </trkpt>
      <trkpt lat="47.5704442150890827178955078125" lon="-3.050028719007968902587890625">
        <ele>-4.80000019073486328125</ele>
        <time>2026-08-15T17:22:37.000Z</time>
        <extensions>
          <ns3:TrackPointExtension>
            <ns3:hr>124</ns3:hr>
          </ns3:TrackPointExtension>
        </extensions>
      </trkpt>
      <trkpt lat="47.5704509206116199493408203125" lon="-3.0500265397131443023681640625">
        <ele>-5</ele>
        <time>2026-08-15T17:22:38.000Z</time>
        <extensions>
          <ns3:TrackPointExtension>
            <ns3:hr>124</ns3:hr>
          </ns3:TrackPointExtension>
        </extensions>
      </trkpt>
      <trkpt lat="47.5704603083431720733642578125" lon="-3.0500275455415248870849609375">
        <ele>-5</ele>
        <time>2026-08-15T17:22:39.000Z</time>
        <extensions>
          <ns3:TrackPointExtension>
            <ns3:hr>124</ns3:hr>
          </ns3:TrackPointExtension>
        </extensions>
      </trkpt>
      <trkpt lat="47.57046726532280445098876953125" lon="-3.05002645589411258697509765625">
        <ele>-4.80000019073486328125</ele>
        <time>2026-08-15T17:22:40.000Z</time>
        <extensions>
          <ns3:TrackPointExtension>
            <ns3:hr>124</ns3:hr>
          </ns3:TrackPointExtension>
        </extensions>
      </trkpt>
      <trkpt lat="47.57047154009342193603515625" lon="-3.05002008564770221710205078125">
        <ele>-4.599999904632568359375</ele>
        <time>2026-08-15T17:22:41.000Z</time>
        <extensions>
          <ns3:TrackPointExtension>
            <ns3:hr>123</ns3:hr>
          </ns3:TrackPointExtension>
        </extensions>
      </trkpt>
      <trkpt lat="47.57047916762530803680419921875" lon="-3.05001430213451385498046875">
        <ele>-4.599999904632568359375</ele>
        <time>2026-08-15T17:22:42.000Z</time>
        <extensions>
          <ns3:TrackPointExtension>
            <ns3:hr>123</ns3:hr>
          </ns3:TrackPointExtension>
        </extensions>
      </trkpt>
      <trkpt lat="47.5704854540526866912841796875" lon="-3.0500111170113086700439453125">
        <ele>-4.599999904632568359375</ele>
        <time>2026-08-15T17:22:43.000Z</time>
        <extensions>
          <ns3:TrackPointExtension>
            <ns3:hr>123</ns3:hr>
          </ns3:TrackPointExtension>
        </extensions>
      </trkpt>
      <trkpt lat="47.57049241103231906890869140625" lon="-3.05001002736389636993408203125">
        <ele>-4.400000095367431640625</ele>
        <time>2026-08-15T17:22:44.000Z</time>
        <extensions>
          <ns3:TrackPointExtension>
            <ns3:hr>123</ns3:hr>
          </ns3:TrackPointExtension>
        </extensions>
      </trkpt>
      <trkpt lat="47.5704965181648731231689453125" lon="-3.050007931888103485107421875">
        <ele>-4.400000095367431640625</ele>
        <time>2026-08-15T17:22:45.000Z</time>
        <extensions>
          <ns3:TrackPointExtension>
            <ns3:hr>123</ns3:hr>
          </ns3:TrackPointExtension>
        </extensions>
      </trkpt>
      <trkpt lat="47.57050096057355403900146484375" lon="-3.05000348947942256927490234375">
        <ele>-4.400000095367431640625</ele>
        <time>2026-08-15T17:22:46.000Z</time>
        <extensions>
          <ns3:TrackPointExtension>
            <ns3:hr>123</ns3:hr>
          </ns3:TrackPointExtension>
        </extensions>
      </trkpt>
      <trkpt lat="47.57050238549709320068359375" lon="-3.05000768043100833892822265625">
        <ele>-4.400000095367431640625</ele>
        <time>2026-08-15T17:22:47.000Z</time>
        <extensions>
          <ns3:TrackPointExtension>
            <ns3:hr>124</ns3:hr>
          </ns3:TrackPointExtension>
        </extensions>
      </trkpt>
      <trkpt lat="47.5705099292099475860595703125" lon="-3.0500054173171520233154296875">
        <ele>-4.400000095367431640625</ele>
        <time>2026-08-15T17:22:48.000Z</time>
        <extensions>
          <ns3:TrackPointExtension>
            <ns3:hr>123</ns3:hr>
          </ns3:TrackPointExtension>
        </extensions>
      </trkpt>
      <trkpt lat="47.57051621563732624053955078125" lon="-3.0500057525932788848876953125">
        <ele>-4.400000095367431640625</ele>
        <time>2026-08-15T17:22:49.000Z</time>
        <extensions>
          <ns3:TrackPointExtension>
            <ns3:hr>123</ns3:hr>
          </ns3:TrackPointExtension>
        </extensions>
      </trkpt>
      <trkpt lat="47.57051805965602397918701171875" lon="-3.049999214708805084228515625">
        <ele>-4.400000095367431640625</ele>
        <time>2026-08-15T17:22:50.000Z</time>
        <extensions>
          <ns3:TrackPointExtension>
            <ns3:hr>124</ns3:hr>
          </ns3:TrackPointExtension>
        </extensions>
      </trkpt>
      <trkpt lat="47.5705250166356563568115234375" lon="-3.04999443702399730682373046875">
        <ele>-4.400000095367431640625</ele>
        <time>2026-08-15T17:22:51.000Z</time>
        <extensions>
          <ns3:TrackPointExtension>
            <ns3:hr>125</ns3:hr>
          </ns3:TrackPointExtension>
        </extensions>
      </trkpt>
      <trkpt lat="47.57053281180560588836669921875" lon="-3.049989156424999237060546875">
        <ele>-4.400000095367431640625</ele>
        <time>2026-08-15T17:22:52.000Z</time>
        <extensions>
          <ns3:TrackPointExtension>
            <ns3:hr>125</ns3:hr>
          </ns3:TrackPointExtension>
        </extensions>
      </trkpt>
      <trkpt lat="47.5705407746136188507080078125" lon="-3.04998722858726978302001953125">
        <ele>-4.400000095367431640625</ele>
        <time>2026-08-15T17:22:53.000Z</time>
        <extensions>
          <ns3:TrackPointExtension>
            <ns3:hr>127</ns3:hr>
          </ns3:TrackPointExtension>
        </extensions>
      </trkpt>
      <trkpt lat="47.57054287008941173553466796875" lon="-3.0499787628650665283203125">
        <ele>-4.400000095367431640625</ele>
        <time>2026-08-15T17:22:54.000Z</time>
        <extensions>
          <ns3:TrackPointExtension>
            <ns3:hr>126</ns3:hr>
          </ns3:TrackPointExtension>
        </extensions>
      </trkpt>
      <trkpt lat="47.57055125199258327484130859375" lon="-3.04997809231281280517578125">
        <ele>-4.400000095367431640625</ele>
        <time>2026-08-15T17:22:55.000Z</time>
        <extensions>
          <ns3:TrackPointExtension>
            <ns3:hr>124</ns3:hr>
          </ns3:TrackPointExtension>
        </extensions>
      </trkpt>
      <trkpt lat="47.57056407630443572998046875" lon="-3.04997432045638561248779296875">
        <ele>-4.400000095367431640625</ele>
        <time>2026-08-15T17:22:56.000Z</time>
        <extensions>
          <ns3:TrackPointExtension>
            <ns3:hr>123</ns3:hr>
          </ns3:TrackPointExtension>
        </extensions>
      </trkpt>
      <trkpt lat="47.57057086564600467681884765625" lon="-3.04996677674353122711181640625">
        <ele>-4.400000095367431640625</ele>
        <time>2026-08-15T17:22:57.000Z</time>
        <extensions>
          <ns3:TrackPointExtension>
            <ns3:hr>122</ns3:hr>
          </ns3:TrackPointExtension>
        </extensions>
      </trkpt>
      <trkpt lat="47.57057857699692249298095703125" lon="-3.04996074177324771881103515625">
        <ele>-4.400000095367431640625</ele>
        <time>2026-08-15T17:22:58.000Z</time>
        <extensions>
          <ns3:TrackPointExtension>
            <ns3:hr>123</ns3:hr>
          </ns3:TrackPointExtension>
        </extensions>
      </trkpt>
      <trkpt lat="47.5705883838236331939697265625" lon="-3.04995621554553508758544921875">
        <ele>-4.400000095367431640625</ele>
        <time>2026-08-15T17:22:59.000Z</time>
        <extensions>
          <ns3:TrackPointExtension>
            <ns3:hr>125</ns3:hr>
          </ns3:TrackPointExtension>
        </extensions>
      </trkpt>
      <trkpt lat="47.57059969939291477203369140625" lon="-3.04994934238493442535400390625">
        <ele>-4.599999904632568359375</ele>
        <time>2026-08-15T17:23:00.000Z</time>
        <extensions>
          <ns3:TrackPointExtension>
            <ns3:hr>127</ns3:hr>
          </ns3:TrackPointExtension>
        </extensions>
      </trkpt>
      <trkpt lat="47.57060858421027660369873046875" lon="-3.04994590580463409423828125">
        <ele>-4.599999904632568359375</ele>
        <time>2026-08-15T17:23:01.000Z</time>
        <extensions>
          <ns3:TrackPointExtension>
            <ns3:hr>130</ns3:hr>
          </ns3:TrackPointExtension>
        </extensions>
      </trkpt>
      <trkpt lat="47.57061378099024295806884765625" lon="-3.04994163103401660919189453125">
        <ele>-4.599999904632568359375</ele>
        <time>2026-08-15T17:23:02.000Z</time>
        <extensions>
          <ns3:TrackPointExtension>
            <ns3:hr>132</ns3:hr>
          </ns3:TrackPointExtension>
        </extensions>
      </trkpt>
      <trkpt lat="47.57062585093080997467041015625" lon="-3.0499380268156528472900390625">
        <ele>-4.599999904632568359375</ele>
        <time>2026-08-15T17:23:03.000Z</time>
        <extensions>
          <ns3:TrackPointExtension>
            <ns3:hr>134</ns3:hr>
          </ns3:TrackPointExtension>
        </extensions>
      </trkpt>
      <trkpt lat="47.57063448429107666015625" lon="-3.04993115365505218505859375">
        <ele>-4.400000095367431640625</ele>
        <time>2026-08-15T17:23:04.000Z</time>
        <extensions>
          <ns3:TrackPointExtension>
            <ns3:hr>135</ns3:hr>
          </ns3:TrackPointExtension>
        </extensions>
      </trkpt>
      <trkpt lat="47.57064454257488250732421875" lon="-3.04992553777992725372314453125">
        <ele>-4.19999980926513671875</ele>
        <time>2026-08-15T17:23:05.000Z</time>
        <extensions>
          <ns3:TrackPointExtension>
            <ns3:hr>137</ns3:hr>
          </ns3:TrackPointExtension>
        </extensions>
      </trkpt>
      <trkpt lat="47.57065258920192718505859375" lon="-3.0499219335615634918212890625">
        <ele>-4</ele>
        <time>2026-08-15T17:23:06.000Z</time>
        <extensions>
          <ns3:TrackPointExtension>
            <ns3:hr>137</ns3:hr>
          </ns3:TrackPointExtension>
        </extensions>
      </trkpt>
      <trkpt lat="47.57066457532346248626708984375" lon="-3.04991832934319972991943359375">
        <ele>-3.7999999523162841796875</ele>
        <time>2026-08-15T17:23:07.000Z</time>
        <extensions>
          <ns3:TrackPointExtension>
            <ns3:hr>137</ns3:hr>
          </ns3:TrackPointExtension>
        </extensions>
      </trkpt>
      <trkpt lat="47.57067329250276088714599609375" lon="-3.049913384020328521728515625">
        <ele>-3.7999999523162841796875</ele>
        <time>2026-08-15T17:23:08.000Z</time>
        <extensions>
          <ns3:TrackPointExtension>
            <ns3:hr>137</ns3:hr>
          </ns3:TrackPointExtension>
        </extensions>
      </trkpt>
      <trkpt lat="47.57068812847137451171875" lon="-3.04990709759294986724853515625">
        <ele>-3.599999904632568359375</ele>
        <time>2026-08-15T17:23:09.000Z</time>
        <extensions>
          <ns3:TrackPointExtension>
            <ns3:hr>137</ns3:hr>
          </ns3:TrackPointExtension>
        </extensions>
      </trkpt>
      <trkpt lat="47.5707030482590198516845703125" lon="-3.04990726523101329803466796875">
        <ele>-3.599999904632568359375</ele>
        <time>2026-08-15T17:23:10.000Z</time>
        <extensions>
          <ns3:TrackPointExtension>
            <ns3:hr>138</ns3:hr>
          </ns3:TrackPointExtension>
        </extensions>
      </trkpt>
      <trkpt lat="47.57072140462696552276611328125" lon="-3.04990860633552074432373046875">
        <ele>-3.599999904632568359375</ele>
        <time>2026-08-15T17:23:11.000Z</time>
        <extensions>
          <ns3:TrackPointExtension>
            <ns3:hr>137</ns3:hr>
          </ns3:TrackPointExtension>
        </extensions>
      </trkpt>
      <trkpt lat="47.57073464803397655487060546875" lon="-3.049906678497791290283203125">
        <ele>-3.599999904632568359375</ele>
        <time>2026-08-15T17:23:12.000Z</time>
        <extensions>
          <ns3:TrackPointExtension>
            <ns3:hr>137</ns3:hr>
          </ns3:TrackPointExtension>
        </extensions>
      </trkpt>
      <trkpt lat="47.57074504159390926361083984375" lon="-3.04990324191749095916748046875">
        <ele>-3.599999904632568359375</ele>
        <time>2026-08-15T17:23:13.000Z</time>
        <extensions>
          <ns3:TrackPointExtension>
            <ns3:hr>137</ns3:hr>
          </ns3:TrackPointExtension>
        </extensions>
      </trkpt>
      <trkpt lat="47.57075325585901737213134765625" lon="-3.04990642704069614410400390625">
        <ele>-3.599999904632568359375</ele>
        <time>2026-08-15T17:23:14.000Z</time>
        <extensions>
          <ns3:TrackPointExtension>
            <ns3:hr>138</ns3:hr>
          </ns3:TrackPointExtension>
        </extensions>
      </trkpt>
      <trkpt lat="47.57076147012412548065185546875" lon="-3.0499058403074741363525390625">
        <ele>-3.599999904632568359375</ele>
        <time>2026-08-15T17:23:15.000Z</time>
        <extensions>
          <ns3:TrackPointExtension>
            <ns3:hr>137</ns3:hr>
          </ns3:TrackPointExtension>
        </extensions>
      </trkpt>
      <trkpt lat="47.57077060639858245849609375" lon="-3.04990164935588836669921875">
        <ele>-3.7999999523162841796875</ele>
        <time>2026-08-15T17:23:16.000Z</time>
        <extensions>
          <ns3:TrackPointExtension>
            <ns3:hr>137</ns3:hr>
          </ns3:TrackPointExtension>
        </extensions>
      </trkpt>
      <trkpt lat="47.57078460417687892913818359375" lon="-3.0498974584043025970458984375">
        <ele>-3.7999999523162841796875</ele>
        <time>2026-08-15T17:23:17.000Z</time>
        <extensions>
          <ns3:TrackPointExtension>
            <ns3:hr>137</ns3:hr>
          </ns3:TrackPointExtension>
        </extensions>
      </trkpt>
      <trkpt lat="47.57079633884131908416748046875" lon="-3.049888908863067626953125">
        <ele>-3.7999999523162841796875</ele>
        <time>2026-08-15T17:23:18.000Z</time>
        <extensions>
          <ns3:TrackPointExtension>
            <ns3:hr>137</ns3:hr>
          </ns3:TrackPointExtension>
        </extensions>
      </trkpt>
      <trkpt lat="47.57080815732479095458984375" lon="-3.0498820357024669647216796875">
        <ele>-3.599999904632568359375</ele>
        <time>2026-08-15T17:23:19.000Z</time>
        <extensions>
          <ns3:TrackPointExtension>
            <ns3:hr>137</ns3:hr>
          </ns3:TrackPointExtension>
        </extensions>
      </trkpt>
      <trkpt lat="47.57082399912178516387939453125" lon="-3.0498783476650714874267578125">
        <ele>-3.599999904632568359375</ele>
        <time>2026-08-15T17:23:20.000Z</time>
        <extensions>
          <ns3:TrackPointExtension>
            <ns3:hr>137</ns3:hr>
          </ns3:TrackPointExtension>
        </extensions>
      </trkpt>
      <trkpt lat="47.5708341412246227264404296875" lon="-3.04986409842967987060546875">
        <ele>-3.400000095367431640625</ele>
        <time>2026-08-15T17:23:21.000Z</time>
        <extensions>
          <ns3:TrackPointExtension>
            <ns3:hr>137</ns3:hr>
          </ns3:TrackPointExtension>
        </extensions>
      </trkpt>
      <trkpt lat="47.57084839046001434326171875" lon="-3.04985295049846172332763671875">
        <ele>-3.400000095367431640625</ele>
        <time>2026-08-15T17:23:22.000Z</time>
        <extensions>
          <ns3:TrackPointExtension>
            <ns3:hr>136</ns3:hr>
          </ns3:TrackPointExtension>
        </extensions>
      </trkpt>
      <trkpt lat="47.5708633102476596832275390625" lon="-3.04983534850180149078369140625">
        <ele>-3.400000095367431640625</ele>
        <time>2026-08-15T17:23:23.000Z</time>
        <extensions>
          <ns3:TrackPointExtension>
            <ns3:hr>136</ns3:hr>
          </ns3:TrackPointExtension>
        </extensions>
      </trkpt>
      <trkpt lat="47.57087663747370243072509765625" lon="-3.04982596077024936676025390625">
        <ele>-3.400000095367431640625</ele>
        <time>2026-08-15T17:23:24.000Z</time>
        <extensions>
          <ns3:TrackPointExtension>
            <ns3:hr>136</ns3:hr>
          </ns3:TrackPointExtension>
        </extensions>
      </trkpt>
      <trkpt lat="47.570894658565521240234375" lon="-3.04981372319161891937255859375">
        <ele>-3.599999904632568359375</ele>
        <time>2026-08-15T17:23:25.000Z</time>
        <extensions>
          <ns3:TrackPointExtension>
            <ns3:hr>136</ns3:hr>
          </ns3:TrackPointExtension>
        </extensions>
      </trkpt>
      <trkpt lat="47.57090848870575428009033203125" lon="-3.04979511536657810211181640625">
        <ele>-3.7999999523162841796875</ele>
        <time>2026-08-15T17:23:26.000Z</time>
        <extensions>
          <ns3:TrackPointExtension>
            <ns3:hr>136</ns3:hr>
          </ns3:TrackPointExtension>
        </extensions>
      </trkpt>
      <trkpt lat="47.57092374376952648162841796875" lon="-3.04978589527308940887451171875">
        <ele>-3.7999999523162841796875</ele>
        <time>2026-08-15T17:23:27.000Z</time>
        <extensions>
          <ns3:TrackPointExtension>
            <ns3:hr>136</ns3:hr>
          </ns3:TrackPointExtension>
        </extensions>
      </trkpt>
      <trkpt lat="47.57094101049005985260009765625" lon="-3.04978229105472564697265625">
        <ele>-3.7999999523162841796875</ele>
        <time>2026-08-15T17:23:28.000Z</time>
        <extensions>
          <ns3:TrackPointExtension>
            <ns3:hr>136</ns3:hr>
          </ns3:TrackPointExtension>
        </extensions>
      </trkpt>
      <trkpt lat="47.57095031440258026123046875" lon="-3.04977784864604473114013671875">
        <ele>-3.7999999523162841796875</ele>
        <time>2026-08-15T17:23:29.000Z</time>
        <extensions>
          <ns3:TrackPointExtension>
            <ns3:hr>136</ns3:hr>
          </ns3:TrackPointExtension>
        </extensions>
      </trkpt>
      <trkpt lat="47.570961378514766693115234375" lon="-3.04977265186607837677001953125">
        <ele>-3.7999999523162841796875</ele>
        <time>2026-08-15T17:23:30.000Z</time>
        <extensions>
          <ns3:TrackPointExtension>
            <ns3:hr>137</ns3:hr>
          </ns3:TrackPointExtension>
        </extensions>
      </trkpt>
      <trkpt lat="47.5709711015224456787109375" lon="-3.04976862855255603790283203125">
        <ele>-3.599999904632568359375</ele>
        <time>2026-08-15T17:23:31.000Z</time>
        <extensions>
          <ns3:TrackPointExtension>
            <ns3:hr>137</ns3:hr>
          </ns3:TrackPointExtension>
        </extensions>
      </trkpt>
      <trkpt lat="47.57098409347236156463623046875" lon="-3.04976024664938449859619140625">
        <ele>-3.599999904632568359375</ele>
        <time>2026-08-15T17:23:32.000Z</time>
        <extensions>
          <ns3:TrackPointExtension>
            <ns3:hr>138</ns3:hr>
          </ns3:TrackPointExtension>
        </extensions>
      </trkpt>
      <trkpt lat="47.57099398411810398101806640625" lon="-3.04975840263068675994873046875">
        <ele>-3.7999999523162841796875</ele>
        <time>2026-08-15T17:23:33.000Z</time>
        <extensions>
          <ns3:TrackPointExtension>
            <ns3:hr>142</ns3:hr>
          </ns3:TrackPointExtension>
        </extensions>
      </trkpt>
      <trkpt lat="47.57100454531610012054443359375" lon="-3.04975815117359161376953125">
        <ele>-3.7999999523162841796875</ele>
        <time>2026-08-15T17:23:34.000Z</time>
        <extensions>
          <ns3:TrackPointExtension>
            <ns3:hr>143</ns3:hr>
          </ns3:TrackPointExtension>
        </extensions>
      </trkpt>
      <trkpt lat="47.5710229016840457916259765625" lon="-3.04976083338260650634765625">
        <ele>-3.599999904632568359375</ele>
        <time>2026-08-15T17:23:35.000Z</time>
        <extensions>
          <ns3:TrackPointExtension>
            <ns3:hr>144</ns3:hr>
          </ns3:TrackPointExtension>
        </extensions>
      </trkpt>
      <trkpt lat="47.571038492023944854736328125" lon="-3.049760162830352783203125">
        <ele>-3.599999904632568359375</ele>
        <time>2026-08-15T17:23:36.000Z</time>
        <extensions>
          <ns3:TrackPointExtension>
            <ns3:hr>144</ns3:hr>
          </ns3:TrackPointExtension>
        </extensions>
      </trkpt>
      <trkpt lat="47.57105098105967044830322265625" lon="-3.04975840263068675994873046875">
        <ele>-3.599999904632568359375</ele>
        <time>2026-08-15T17:23:37.000Z</time>
        <extensions>
          <ns3:TrackPointExtension>
            <ns3:hr>144</ns3:hr>
          </ns3:TrackPointExtension>
        </extensions>
      </trkpt>
      <trkpt lat="47.571062631905078887939453125" lon="-3.04975412786006927490234375">
        <ele>-3.599999904632568359375</ele>
        <time>2026-08-15T17:23:38.000Z</time>
        <extensions>
          <ns3:TrackPointExtension>
            <ns3:hr>145</ns3:hr>
          </ns3:TrackPointExtension>
        </extensions>
      </trkpt>
      <trkpt lat="47.57108216173946857452392578125" lon="-3.04975370876491069793701171875">
        <ele>-3.400000095367431640625</ele>
        <time>2026-08-15T17:23:39.000Z</time>
        <extensions>
          <ns3:TrackPointExtension>
            <ns3:hr>144</ns3:hr>
          </ns3:TrackPointExtension>
        </extensions>
      </trkpt>
      <trkpt lat="47.5710946507751941680908203125" lon="-3.0497499369084835052490234375">
        <ele>-3.400000095367431640625</ele>
        <time>2026-08-15T17:23:40.000Z</time>
        <extensions>
          <ns3:TrackPointExtension>
            <ns3:hr>144</ns3:hr>
          </ns3:TrackPointExtension>
        </extensions>
      </trkpt>
      <trkpt lat="47.57111015729606151580810546875" lon="-3.0497519485652446746826171875">
        <ele>-3.2000000476837158203125</ele>
        <time>2026-08-15T17:23:41.000Z</time>
        <extensions>
          <ns3:TrackPointExtension>
            <ns3:hr>144</ns3:hr>
          </ns3:TrackPointExtension>
        </extensions>
      </trkpt>
      <trkpt lat="47.5711204670369625091552734375" lon="-3.049751110374927520751953125">
        <ele>-3</ele>
        <time>2026-08-15T17:23:42.000Z</time>
        <extensions>
          <ns3:TrackPointExtension>
            <ns3:hr>144</ns3:hr>
          </ns3:TrackPointExtension>
        </extensions>
      </trkpt>
      <trkpt lat="47.5711293518543243408203125" lon="-3.049749769270420074462890625">
        <ele>-3</ele>
        <time>2026-08-15T17:23:43.000Z</time>
        <extensions>
          <ns3:TrackPointExtension>
            <ns3:hr>143</ns3:hr>
          </ns3:TrackPointExtension>
        </extensions>
      </trkpt>
      <trkpt lat="47.57113345898687839508056640625" lon="-3.0497509427368640899658203125">
        <ele>-2.7999999523162841796875</ele>
        <time>2026-08-15T17:23:44.000Z</time>
        <extensions>
          <ns3:TrackPointExtension>
            <ns3:hr>143</ns3:hr>
          </ns3:TrackPointExtension>
        </extensions>
      </trkpt>
      <trkpt lat="47.57114754058420658111572265625" lon="-3.049751110374927520751953125">
        <ele>-3</ele>
        <time>2026-08-15T17:23:45.000Z</time>
        <extensions>
          <ns3:TrackPointExtension>
            <ns3:hr>142</ns3:hr>
          </ns3:TrackPointExtension>
        </extensions>
      </trkpt>
      <trkpt lat="47.5711580179631710052490234375" lon="-3.04974867962300777435302734375">
        <ele>-3</ele>
        <time>2026-08-15T17:23:46.000Z</time>
        <extensions>
          <ns3:TrackPointExtension>
            <ns3:hr>142</ns3:hr>
          </ns3:TrackPointExtension>
        </extensions>
      </trkpt>
      <trkpt lat="47.5711710937321186065673828125" lon="-3.049750439822673797607421875">
        <ele>-3</ele>
        <time>2026-08-15T17:23:47.000Z</time>
        <extensions>
          <ns3:TrackPointExtension>
            <ns3:hr>141</ns3:hr>
          </ns3:TrackPointExtension>
        </extensions>
      </trkpt>
      <trkpt lat="47.57118408568203449249267578125" lon="-3.049753122031688690185546875">
        <ele>-3</ele>
        <time>2026-08-15T17:23:48.000Z</time>
        <extensions>
          <ns3:TrackPointExtension>
            <ns3:hr>140</ns3:hr>
          </ns3:TrackPointExtension>
        </extensions>
      </trkpt>
      <trkpt lat="47.5712002627551555633544921875" lon="-3.04975211620330810546875">
        <ele>-3</ele>
        <time>2026-08-15T17:23:49.000Z</time>
        <extensions>
          <ns3:TrackPointExtension>
            <ns3:hr>140</ns3:hr>
          </ns3:TrackPointExtension>
        </extensions>
      </trkpt>
      <trkpt lat="47.57121291942894458770751953125" lon="-3.049754798412322998046875">
        <ele>-3</ele>
        <time>2026-08-15T17:23:50.000Z</time>
        <extensions>
          <ns3:TrackPointExtension>
            <ns3:hr>139</ns3:hr>
          </ns3:TrackPointExtension>
        </extensions>
      </trkpt>
      <trkpt lat="47.571222223341464996337890625" lon="-3.049754463136196136474609375">
        <ele>-2.7999999523162841796875</ele>
        <time>2026-08-15T17:23:51.000Z</time>
        <extensions>
          <ns3:TrackPointExtension>
            <ns3:hr>138</ns3:hr>
          </ns3:TrackPointExtension>
        </extensions>
      </trkpt>
      <trkpt lat="47.57123404182493686676025390625" lon="-3.049753122031688690185546875">
        <ele>-2.7999999523162841796875</ele>
        <time>2026-08-15T17:23:52.000Z</time>
        <extensions>
          <ns3:TrackPointExtension>
            <ns3:hr>138</ns3:hr>
          </ns3:TrackPointExtension>
        </extensions>
      </trkpt>
      <trkpt lat="47.571240998804569244384765625" lon="-3.04975681006908416748046875">
        <ele>-2.7999999523162841796875</ele>
        <time>2026-08-15T17:23:53.000Z</time>
        <extensions>
          <ns3:TrackPointExtension>
            <ns3:hr>137</ns3:hr>
          </ns3:TrackPointExtension>
        </extensions>
      </trkpt>
      <trkpt lat="47.57125340402126312255859375" lon="-3.04975546896457672119140625">
        <ele>-2.599999904632568359375</ele>
        <time>2026-08-15T17:23:54.000Z</time>
        <extensions>
          <ns3:TrackPointExtension>
            <ns3:hr>137</ns3:hr>
          </ns3:TrackPointExtension>
        </extensions>
      </trkpt>
      <trkpt lat="47.57126036100089550018310546875" lon="-3.04975370876491069793701171875">
        <ele>-2.7999999523162841796875</ele>
        <time>2026-08-15T17:23:55.000Z</time>
        <extensions>
          <ns3:TrackPointExtension>
            <ns3:hr>137</ns3:hr>
          </ns3:TrackPointExtension>
        </extensions>
      </trkpt>
      <trkpt lat="47.57126371376216411590576171875" lon="-3.04974767379462718963623046875">
        <ele>-2.7999999523162841796875</ele>
        <time>2026-08-15T17:23:56.000Z</time>
        <extensions>
          <ns3:TrackPointExtension>
            <ns3:hr>136</ns3:hr>
          </ns3:TrackPointExtension>
        </extensions>
      </trkpt>
      <trkpt lat="47.57127108983695507049560546875" lon="-3.049747757613658905029296875">
        <ele>-2.7999999523162841796875</ele>
        <time>2026-08-15T17:23:57.000Z</time>
        <extensions>
          <ns3:TrackPointExtension>
            <ns3:hr>136</ns3:hr>
          </ns3:TrackPointExtension>
        </extensions>
      </trkpt>
      <trkpt lat="47.57128156721591949462890625" lon="-3.0497465841472148895263671875">
        <ele>-3</ele>
        <time>2026-08-15T17:23:58.000Z</time>
        <extensions>
          <ns3:TrackPointExtension>
            <ns3:hr>136</ns3:hr>
          </ns3:TrackPointExtension>
        </extensions>
      </trkpt>
      <trkpt lat="47.571293301880359649658203125" lon="-3.0497455783188343048095703125">
        <ele>-3</ele>
        <time>2026-08-15T17:23:59.000Z</time>
        <extensions>
          <ns3:TrackPointExtension>
            <ns3:hr>136</ns3:hr>
          </ns3:TrackPointExtension>
        </extensions>
      </trkpt>
      <trkpt lat="47.5713105686008930206298828125" lon="-3.04974264465272426605224609375">
        <ele>-3</ele>
        <time>2026-08-15T17:24:00.000Z</time>
        <extensions>
          <ns3:TrackPointExtension>
            <ns3:hr>136</ns3:hr>
          </ns3:TrackPointExtension>
        </extensions>
      </trkpt>
      <trkpt lat="47.571319453418254852294921875" lon="-3.04973778314888477325439453125">
        <ele>-3</ele>
        <time>2026-08-15T17:24:01.000Z</time>
        <extensions>
          <ns3:TrackPointExtension>
            <ns3:hr>135</ns3:hr>
          </ns3:TrackPointExtension>
        </extensions>
      </trkpt>
      <trkpt lat="47.57133177481591701507568359375" lon="-3.0497348494827747344970703125">
        <ele>-3</ele>
        <time>2026-08-15T17:24:02.000Z</time>
        <extensions>
          <ns3:TrackPointExtension>
            <ns3:hr>135</ns3:hr>
          </ns3:TrackPointExtension>
        </extensions>
      </trkpt>
      <trkpt lat="47.5713424198329448699951171875" lon="-3.04973593913018703460693359375">
        <ele>-3.2000000476837158203125</ele>
        <time>2026-08-15T17:24:03.000Z</time>
        <extensions>
          <ns3:TrackPointExtension>
            <ns3:hr>134</ns3:hr>
          </ns3:TrackPointExtension>
        </extensions>
      </trkpt>
      <trkpt lat="47.5713565014302730560302734375" lon="-3.04973124526441097259521484375">
        <ele>-3.400000095367431640625</ele>
        <time>2026-08-15T17:24:04.000Z</time>
        <extensions>
          <ns3:TrackPointExtension>
            <ns3:hr>134</ns3:hr>
          </ns3:TrackPointExtension>
        </extensions>
      </trkpt>
      <trkpt lat="47.5713668949902057647705078125" lon="-3.04972873069345951080322265625">
        <ele>-3.599999904632568359375</ele>
        <time>2026-08-15T17:24:05.000Z</time>
        <extensions>
          <ns3:TrackPointExtension>
            <ns3:hr>134</ns3:hr>
          </ns3:TrackPointExtension>
        </extensions>
      </trkpt>
      <trkpt lat="47.57138189859688282012939453125" lon="-3.049727641046047210693359375">
        <ele>-3.599999904632568359375</ele>
        <time>2026-08-15T17:24:06.000Z</time>
        <extensions>
          <ns3:TrackPointExtension>
            <ns3:hr>134</ns3:hr>
          </ns3:TrackPointExtension>
        </extensions>
      </trkpt>
      <trkpt lat="47.57139463908970355987548828125" lon="-3.0497266352176666259765625">
        <ele>-3.7999999523162841796875</ele>
        <time>2026-08-15T17:24:07.000Z</time>
        <extensions>
          <ns3:TrackPointExtension>
            <ns3:hr>134</ns3:hr>
          </ns3:TrackPointExtension>
        </extensions>
      </trkpt>
      <trkpt lat="47.5714064575731754302978515625" lon="-3.0497271381318569183349609375">
        <ele>-4</ele>
        <time>2026-08-15T17:24:08.000Z</time>
        <extensions>
          <ns3:TrackPointExtension>
            <ns3:hr>134</ns3:hr>
          </ns3:TrackPointExtension>
        </extensions>
      </trkpt>
      <trkpt lat="47.57141961716115474700927734375" lon="-3.04972873069345951080322265625">
        <ele>-4</ele>
        <time>2026-08-15T17:24:09.000Z</time>
        <extensions>
          <ns3:TrackPointExtension>
            <ns3:hr>133</ns3:hr>
          </ns3:TrackPointExtension>
        </extensions>
      </trkpt>
      <trkpt lat="47.5714324414730072021484375" lon="-3.04972403682768344879150390625">
        <ele>-4.19999980926513671875</ele>
        <time>2026-08-15T17:24:10.000Z</time>
        <extensions>
          <ns3:TrackPointExtension>
            <ns3:hr>134</ns3:hr>
          </ns3:TrackPointExtension>
        </extensions>
      </trkpt>
      <trkpt lat="47.57144141010940074920654296875" lon="-3.04972336627542972564697265625">
        <ele>-4.19999980926513671875</ele>
        <time>2026-08-15T17:24:11.000Z</time>
        <extensions>
          <ns3:TrackPointExtension>
            <ns3:hr>134</ns3:hr>
          </ns3:TrackPointExtension>
        </extensions>
      </trkpt>
      <trkpt lat="47.5714580900967121124267578125" lon="-3.0497207678854465484619140625">
        <ele>-4.19999980926513671875</ele>
        <time>2026-08-15T17:24:12.000Z</time>
        <extensions>
          <ns3:TrackPointExtension>
            <ns3:hr>134</ns3:hr>
          </ns3:TrackPointExtension>
        </extensions>
      </trkpt>
      <trkpt lat="47.5714694894850254058837890625" lon="-3.0497167445719242095947265625">
        <ele>-4.19999980926513671875</ele>
        <time>2026-08-15T17:24:13.000Z</time>
        <extensions>
          <ns3:TrackPointExtension>
            <ns3:hr>133</ns3:hr>
          </ns3:TrackPointExtension>
        </extensions>
      </trkpt>
      <trkpt lat="47.57148214615881443023681640625" lon="-3.0497100390493869781494140625">
        <ele>-4.19999980926513671875</ele>
        <time>2026-08-15T17:24:14.000Z</time>
        <extensions>
          <ns3:TrackPointExtension>
            <ns3:hr>133</ns3:hr>
          </ns3:TrackPointExtension>
        </extensions>
      </trkpt>
      <trkpt lat="47.57149253971874713897705078125" lon="-3.04970727302134037017822265625">
        <ele>-4</ele>
        <time>2026-08-15T17:24:15.000Z</time>
        <extensions>
          <ns3:TrackPointExtension>
            <ns3:hr>133</ns3:hr>
          </ns3:TrackPointExtension>
        </extensions>
      </trkpt>
      <trkpt lat="47.571506537497043609619140625" lon="-3.049702160060405731201171875">
        <ele>-4</ele>
        <time>2026-08-15T17:24:16.000Z</time>
        <extensions>
          <ns3:TrackPointExtension>
            <ns3:hr>132</ns3:hr>
          </ns3:TrackPointExtension>
        </extensions>
      </trkpt>
      <trkpt lat="47.57151701487600803375244140625" lon="-3.0496946163475513458251953125">
        <ele>-4</ele>
        <time>2026-08-15T17:24:17.000Z</time>
        <extensions>
          <ns3:TrackPointExtension>
            <ns3:hr>133</ns3:hr>
          </ns3:TrackPointExtension>
        </extensions>
      </trkpt>
      <trkpt lat="47.57152623496949672698974609375" lon="-3.0496936105191707611083984375">
        <ele>-3.7999999523162841796875</ele>
        <time>2026-08-15T17:24:18.000Z</time>
        <extensions>
          <ns3:TrackPointExtension>
            <ns3:hr>133</ns3:hr>
          </ns3:TrackPointExtension>
        </extensions>
      </trkpt>
      <trkpt lat="47.57154182530939579010009765625" lon="-3.0496872402727603912353515625">
        <ele>-3.7999999523162841796875</ele>
        <time>2026-08-15T17:24:19.000Z</time>
        <extensions>
          <ns3:TrackPointExtension>
            <ns3:hr>133</ns3:hr>
          </ns3:TrackPointExtension>
        </extensions>
      </trkpt>
      <trkpt lat="47.5715620256960391998291015625" lon="-3.04967927746474742889404296875">
        <ele>-4</ele>
        <time>2026-08-15T17:24:20.000Z</time>
        <extensions>
          <ns3:TrackPointExtension>
            <ns3:hr>133</ns3:hr>
          </ns3:TrackPointExtension>
        </extensions>
      </trkpt>
      <trkpt lat="47.5715772807598114013671875" lon="-3.0496765114367008209228515625">
        <ele>-4</ele>
        <time>2026-08-15T17:24:21.000Z</time>
        <extensions>
          <ns3:TrackPointExtension>
            <ns3:hr>134</ns3:hr>
          </ns3:TrackPointExtension>
        </extensions>
      </trkpt>
      <trkpt lat="47.57159144617617130279541015625" lon="-3.04967357777059078216552734375">
        <ele>-4.19999980926513671875</ele>
        <time>2026-08-15T17:24:22.000Z</time>
        <extensions>
          <ns3:TrackPointExtension>
            <ns3:hr>134</ns3:hr>
          </ns3:TrackPointExtension>
        </extensions>
      </trkpt>
      <trkpt lat="47.57160485722124576568603515625" lon="-3.04966620169579982757568359375">
        <ele>-4.400000095367431640625</ele>
        <time>2026-08-15T17:24:23.000Z</time>
        <extensions>
          <ns3:TrackPointExtension>
            <ns3:hr>134</ns3:hr>
          </ns3:TrackPointExtension>
        </extensions>
      </trkpt>
      <trkpt lat="47.57161977700889110565185546875" lon="-3.04966561496257781982421875">
        <ele>-4.19999980926513671875</ele>
        <time>2026-08-15T17:24:24.000Z</time>
        <extensions>
          <ns3:TrackPointExtension>
            <ns3:hr>134</ns3:hr>
          </ns3:TrackPointExtension>
        </extensions>
      </trkpt>
      <trkpt lat="47.5716331042349338531494140625" lon="-3.0496698059141635894775390625">
        <ele>-4.19999980926513671875</ele>
        <time>2026-08-15T17:24:25.000Z</time>
        <extensions>
          <ns3:TrackPointExtension>
            <ns3:hr>134</ns3:hr>
          </ns3:TrackPointExtension>
        </extensions>
      </trkpt>
      <trkpt lat="47.57164592854678630828857421875" lon="-3.04966435767710208892822265625">
        <ele>-3.7999999523162841796875</ele>
        <time>2026-08-15T17:24:26.000Z</time>
        <extensions>
          <ns3:TrackPointExtension>
            <ns3:hr>134</ns3:hr>
          </ns3:TrackPointExtension>
        </extensions>
      </trkpt>
      <trkpt lat="47.57166285999119281768798828125" lon="-3.049665950238704681396484375">
        <ele>-3.400000095367431640625</ele>
        <time>2026-08-15T17:24:27.000Z</time>
        <extensions>
          <ns3:TrackPointExtension>
            <ns3:hr>134</ns3:hr>
          </ns3:TrackPointExtension>
        </extensions>
      </trkpt>
      <trkpt lat="47.57167342118918895721435546875" lon="-3.04966268129646778106689453125">
        <ele>-3.2000000476837158203125</ele>
        <time>2026-08-15T17:24:28.000Z</time>
        <extensions>
          <ns3:TrackPointExtension>
            <ns3:hr>134</ns3:hr>
          </ns3:TrackPointExtension>
        </extensions>
      </trkpt>
      <trkpt lat="47.571686916053295135498046875" lon="-3.049661256372928619384765625">
        <ele>-3</ele>
        <time>2026-08-15T17:24:29.000Z</time>
        <extensions>
          <ns3:TrackPointExtension>
            <ns3:hr>134</ns3:hr>
          </ns3:TrackPointExtension>
        </extensions>
      </trkpt>
      <trkpt lat="47.57170259021222591400146484375" lon="-3.04966150783002376556396484375">
        <ele>-3</ele>
        <time>2026-08-15T17:24:30.000Z</time>
        <extensions>
          <ns3:TrackPointExtension>
            <ns3:hr>134</ns3:hr>
          </ns3:TrackPointExtension>
        </extensions>
      </trkpt>
      <trkpt lat="47.57171968929469585418701171875" lon="-3.0496590770781040191650390625">
        <ele>-3.2000000476837158203125</ele>
        <time>2026-08-15T17:24:31.000Z</time>
        <extensions>
          <ns3:TrackPointExtension>
            <ns3:hr>134</ns3:hr>
          </ns3:TrackPointExtension>
        </extensions>
      </trkpt>
      <trkpt lat="47.5717326812446117401123046875" lon="-3.04965698160231113433837890625">
        <ele>-3.2000000476837158203125</ele>
        <time>2026-08-15T17:24:32.000Z</time>
        <extensions>
          <ns3:TrackPointExtension>
            <ns3:hr>134</ns3:hr>
          </ns3:TrackPointExtension>
        </extensions>
      </trkpt>
      <trkpt lat="47.57174651138484477996826171875" lon="-3.04965614341199398040771484375">
        <ele>-3.2000000476837158203125</ele>
        <time>2026-08-15T17:24:33.000Z</time>
        <extensions>
          <ns3:TrackPointExtension>
            <ns3:hr>135</ns3:hr>
          </ns3:TrackPointExtension>
        </extensions>
      </trkpt>
      <trkpt lat="47.57176260463893413543701171875" lon="-3.04965413175523281097412109375">
        <ele>-3.400000095367431640625</ele>
        <time>2026-08-15T17:24:34.000Z</time>
        <extensions>
          <ns3:TrackPointExtension>
            <ns3:hr>135</ns3:hr>
          </ns3:TrackPointExtension>
        </extensions>
      </trkpt>
      <trkpt lat="47.57177668623626232147216796875" lon="-3.049653209745883941650390625">
        <ele>-3.400000095367431640625</ele>
        <time>2026-08-15T17:24:35.000Z</time>
        <extensions>
          <ns3:TrackPointExtension>
            <ns3:hr>135</ns3:hr>
          </ns3:TrackPointExtension>
        </extensions>
      </trkpt>
      <trkpt lat="47.571790851652622222900390625" lon="-3.049648515880107879638671875">
        <ele>-3.400000095367431640625</ele>
        <time>2026-08-15T17:24:36.000Z</time>
        <extensions>
          <ns3:TrackPointExtension>
            <ns3:hr>136</ns3:hr>
          </ns3:TrackPointExtension>
        </extensions>
      </trkpt>
      <trkpt lat="47.57180501706898212432861328125" lon="-3.04965312592685222625732421875">
        <ele>-3.400000095367431640625</ele>
        <time>2026-08-15T17:24:37.000Z</time>
        <extensions>
          <ns3:TrackPointExtension>
            <ns3:hr>136</ns3:hr>
          </ns3:TrackPointExtension>
        </extensions>
      </trkpt>
      <trkpt lat="47.57182194851338863372802734375" lon="-3.04964910261332988739013671875">
        <ele>-3.400000095367431640625</ele>
        <time>2026-08-15T17:24:38.000Z</time>
        <extensions>
          <ns3:TrackPointExtension>
            <ns3:hr>136</ns3:hr>
          </ns3:TrackPointExtension>
        </extensions>
      </trkpt>
      <trkpt lat="47.5718376226723194122314453125" lon="-3.0496426485478878021240234375">
        <ele>-3.400000095367431640625</ele>
        <time>2026-08-15T17:24:39.000Z</time>
        <extensions>
          <ns3:TrackPointExtension>
            <ns3:hr>136</ns3:hr>
          </ns3:TrackPointExtension>
        </extensions>
      </trkpt>
      <trkpt lat="47.57184893824160099029541015625" lon="-3.0496359430253505706787109375">
        <ele>-3.400000095367431640625</ele>
        <time>2026-08-15T17:24:40.000Z</time>
        <extensions>
          <ns3:TrackPointExtension>
            <ns3:hr>136</ns3:hr>
          </ns3:TrackPointExtension>
        </extensions>
      </trkpt>
      <trkpt lat="47.57186494767665863037109375" lon="-3.049628734588623046875">
        <ele>-3.2000000476837158203125</ele>
        <time>2026-08-15T17:24:41.000Z</time>
        <extensions>
          <ns3:TrackPointExtension>
            <ns3:hr>137</ns3:hr>
          </ns3:TrackPointExtension>
        </extensions>
      </trkpt>
      <trkpt lat="47.57187944836914539337158203125" lon="-3.04962546564638614654541015625">
        <ele>-3.2000000476837158203125</ele>
        <time>2026-08-15T17:24:42.000Z</time>
        <extensions>
          <ns3:TrackPointExtension>
            <ns3:hr>136</ns3:hr>
          </ns3:TrackPointExtension>
        </extensions>
      </trkpt>
      <trkpt lat="47.57189445197582244873046875" lon="-3.0496191792190074920654296875">
        <ele>-3.2000000476837158203125</ele>
        <time>2026-08-15T17:24:43.000Z</time>
        <extensions>
          <ns3:TrackPointExtension>
            <ns3:hr>136</ns3:hr>
          </ns3:TrackPointExtension>
        </extensions>
      </trkpt>
      <trkpt lat="47.57190979085862636566162109375" lon="-3.04961599409580230712890625">
        <ele>-3.2000000476837158203125</ele>
        <time>2026-08-15T17:24:44.000Z</time>
        <extensions>
          <ns3:TrackPointExtension>
            <ns3:hr>136</ns3:hr>
          </ns3:TrackPointExtension>
        </extensions>
      </trkpt>
      <trkpt lat="47.57192404009401798248291015625" lon="-3.04960803128778934478759765625">
        <ele>-3.400000095367431640625</ele>
        <time>2026-08-15T17:24:45.000Z</time>
        <extensions>
          <ns3:TrackPointExtension>
            <ns3:hr>136</ns3:hr>
          </ns3:TrackPointExtension>
        </extensions>
      </trkpt>
      <trkpt lat="47.571940720081329345703125" lon="-3.04960132576525211334228515625">
        <ele>-3.400000095367431640625</ele>
        <time>2026-08-15T17:24:46.000Z</time>
        <extensions>
          <ns3:TrackPointExtension>
            <ns3:hr>137</ns3:hr>
          </ns3:TrackPointExtension>
        </extensions>
      </trkpt>
      <trkpt lat="47.57195505313575267791748046875" lon="-3.0496007390320301055908203125">
        <ele>-3.400000095367431640625</ele>
        <time>2026-08-15T17:24:47.000Z</time>
        <extensions>
          <ns3:TrackPointExtension>
            <ns3:hr>136</ns3:hr>
          </ns3:TrackPointExtension>
        </extensions>
      </trkpt>
      <trkpt lat="47.571969889104366302490234375" lon="-3.0496040917932987213134765625">
        <ele>-3.599999904632568359375</ele>
        <time>2026-08-15T17:24:48.000Z</time>
        <extensions>
          <ns3:TrackPointExtension>
            <ns3:hr>136</ns3:hr>
          </ns3:TrackPointExtension>
        </extensions>
      </trkpt>
      <trkpt lat="47.57197986356914043426513671875" lon="-3.049600906670093536376953125">
        <ele>-3.599999904632568359375</ele>
        <time>2026-08-15T17:24:49.000Z</time>
        <extensions>
          <ns3:TrackPointExtension>
            <ns3:hr>136</ns3:hr>
          </ns3:TrackPointExtension>
        </extensions>
      </trkpt>
      <trkpt lat="47.5719891674816608428955078125" lon="-3.04959679953753948211669921875">
        <ele>-3.400000095367431640625</ele>
        <time>2026-08-15T17:24:50.000Z</time>
        <extensions>
          <ns3:TrackPointExtension>
            <ns3:hr>136</ns3:hr>
          </ns3:TrackPointExtension>
        </extensions>
      </trkpt>
      <trkpt lat="47.57200282998383045196533203125" lon="-3.04959160275757312774658203125">
        <ele>-3.400000095367431640625</ele>
        <time>2026-08-15T17:24:51.000Z</time>
        <extensions>
          <ns3:TrackPointExtension>
            <ns3:hr>136</ns3:hr>
          </ns3:TrackPointExtension>
        </extensions>
      </trkpt>
      <trkpt lat="47.57201842032372951507568359375" lon="-3.0495893396437168121337890625">
        <ele>-3.400000095367431640625</ele>
        <time>2026-08-15T17:24:52.000Z</time>
        <extensions>
          <ns3:TrackPointExtension>
            <ns3:hr>136</ns3:hr>
          </ns3:TrackPointExtension>
        </extensions>
      </trkpt>
      <trkpt lat="47.57202361710369586944580078125" lon="-3.0495873279869556427001953125">
        <ele>-3.2000000476837158203125</ele>
        <time>2026-08-15T17:24:53.000Z</time>
        <extensions>
          <ns3:TrackPointExtension>
            <ns3:hr>136</ns3:hr>
          </ns3:TrackPointExtension>
        </extensions>
      </trkpt>
      <trkpt lat="47.57203132845461368560791015625" lon="-3.04959587752819061279296875">
        <ele>-3</ele>
        <time>2026-08-15T17:24:54.000Z</time>
        <extensions>
          <ns3:TrackPointExtension>
            <ns3:hr>136</ns3:hr>
          </ns3:TrackPointExtension>
        </extensions>
      </trkpt>
      <trkpt lat="47.572044320404529571533203125" lon="-3.049591518938541412353515625">
        <ele>-3</ele>
        <time>2026-08-15T17:24:55.000Z</time>
        <extensions>
          <ns3:TrackPointExtension>
            <ns3:hr>136</ns3:hr>
          </ns3:TrackPointExtension>
        </extensions>
      </trkpt>
      <trkpt lat="47.57205538451671600341796875" lon="-3.04958690889179706573486328125">
        <ele>-3</ele>
        <time>2026-08-15T17:24:56.000Z</time>
        <extensions>
          <ns3:TrackPointExtension>
            <ns3:hr>136</ns3:hr>
          </ns3:TrackPointExtension>
        </extensions>
      </trkpt>
      <trkpt lat="47.5720654428005218505859375" lon="-3.04958523251116275787353515625">
        <ele>-3</ele>
        <time>2026-08-15T17:24:57.000Z</time>
        <extensions>
          <ns3:TrackPointExtension>
            <ns3:hr>135</ns3:hr>
          </ns3:TrackPointExtension>
        </extensions>
      </trkpt>
      <trkpt lat="47.57207592017948627471923828125" lon="-3.049586825072765350341796875">
        <ele>-3</ele>
        <time>2026-08-15T17:24:58.000Z</time>
        <extensions>
          <ns3:TrackPointExtension>
            <ns3:hr>135</ns3:hr>
          </ns3:TrackPointExtension>
        </extensions>
      </trkpt>
      <trkpt lat="47.57208581082522869110107421875" lon="-3.0495906807482242584228515625">
        <ele>-3</ele>
        <time>2026-08-15T17:24:59.000Z</time>
        <extensions>
          <ns3:TrackPointExtension>
            <ns3:hr>133</ns3:hr>
          </ns3:TrackPointExtension>
        </extensions>
      </trkpt>
      <trkpt lat="47.57209704257547855377197265625" lon="-3.04959378205239772796630859375">
        <ele>-3</ele>
        <time>2026-08-15T17:25:00.000Z</time>
        <extensions>
          <ns3:TrackPointExtension>
            <ns3:hr>134</ns3:hr>
          </ns3:TrackPointExtension>
        </extensions>
      </trkpt>
      <trkpt lat="47.57210542447865009307861328125" lon="-3.04959780536592006683349609375">
        <ele>-3.2000000476837158203125</ele>
        <time>2026-08-15T17:25:01.000Z</time>
        <extensions>
          <ns3:TrackPointExtension>
            <ns3:hr>134</ns3:hr>
          </ns3:TrackPointExtension>
        </extensions>
      </trkpt>
      <trkpt lat="47.5721115432679653167724609375" lon="-3.04959629662334918975830078125">
        <ele>-3.2000000476837158203125</ele>
        <time>2026-08-15T17:25:02.000Z</time>
        <extensions>
          <ns3:TrackPointExtension>
            <ns3:hr>138</ns3:hr>
          </ns3:TrackPointExtension>
        </extensions>
      </trkpt>
      <trkpt lat="47.57212202064692974090576171875" lon="-3.04959797300398349761962890625">
        <ele>-3.2000000476837158203125</ele>
        <time>2026-08-15T17:25:03.000Z</time>
        <extensions>
          <ns3:TrackPointExtension>
            <ns3:hr>139</ns3:hr>
          </ns3:TrackPointExtension>
        </extensions>
      </trkpt>
      <trkpt lat="47.572133503854274749755859375" lon="-3.04959990084171295166015625">
        <ele>-3.2000000476837158203125</ele>
        <time>2026-08-15T17:25:04.000Z</time>
        <extensions>
          <ns3:TrackPointExtension>
            <ns3:hr>139</ns3:hr>
          </ns3:TrackPointExtension>
        </extensions>
      </trkpt>
      <trkpt lat="47.5721423886716365814208984375" lon="-3.0496054328978061676025390625">
        <ele>-3.2000000476837158203125</ele>
        <time>2026-08-15T17:25:05.000Z</time>
        <extensions>
          <ns3:TrackPointExtension>
            <ns3:hr>139</ns3:hr>
          </ns3:TrackPointExtension>
        </extensions>
      </trkpt>
      <trkpt lat="47.5721534527838230133056640625" lon="-3.0496077798306941986083984375">
        <ele>-3.2000000476837158203125</ele>
        <time>2026-08-15T17:25:06.000Z</time>
        <extensions>
          <ns3:TrackPointExtension>
            <ns3:hr>140</ns3:hr>
          </ns3:TrackPointExtension>
        </extensions>
      </trkpt>
      <trkpt lat="47.572160996496677398681640625" lon="-3.049606271088123321533203125">
        <ele>-3.400000095367431640625</ele>
        <time>2026-08-15T17:25:07.000Z</time>
        <extensions>
          <ns3:TrackPointExtension>
            <ns3:hr>141</ns3:hr>
          </ns3:TrackPointExtension>
        </extensions>
      </trkpt>
      <trkpt lat="47.572170384228229522705078125" lon="-3.049602918326854705810546875">
        <ele>-3.400000095367431640625</ele>
        <time>2026-08-15T17:25:08.000Z</time>
        <extensions>
          <ns3:TrackPointExtension>
            <ns3:hr>139</ns3:hr>
          </ns3:TrackPointExtension>
        </extensions>
      </trkpt>
      <trkpt lat="47.572182118892669677734375" lon="-3.04960534907877445220947265625">
        <ele>-3.400000095367431640625</ele>
        <time>2026-08-15T17:25:09.000Z</time>
        <extensions>
          <ns3:TrackPointExtension>
            <ns3:hr>137</ns3:hr>
          </ns3:TrackPointExtension>
        </extensions>
      </trkpt>
      <trkpt lat="47.57218890823423862457275390625" lon="-3.04960886947810649871826171875">
        <ele>-3.599999904632568359375</ele>
        <time>2026-08-15T17:25:10.000Z</time>
        <extensions>
          <ns3:TrackPointExtension>
            <ns3:hr>134</ns3:hr>
          </ns3:TrackPointExtension>
        </extensions>
      </trkpt>
      <trkpt lat="47.57220181636512279510498046875" lon="-3.04961088113486766815185546875">
        <ele>-3.7999999523162841796875</ele>
        <time>2026-08-15T17:25:11.000Z</time>
        <extensions>
          <ns3:TrackPointExtension>
            <ns3:hr>133</ns3:hr>
          </ns3:TrackPointExtension>
        </extensions>
      </trkpt>
      <trkpt lat="47.57221438921988010406494140625" lon="-3.04960903711616992950439453125">
        <ele>-3.7999999523162841796875</ele>
        <time>2026-08-15T17:25:12.000Z</time>
        <extensions>
          <ns3:TrackPointExtension>
            <ns3:hr>132</ns3:hr>
          </ns3:TrackPointExtension>
        </extensions>
      </trkpt>
      <trkpt lat="47.57222704589366912841796875" lon="-3.0496032536029815673828125">
        <ele>-3.7999999523162841796875</ele>
        <time>2026-08-15T17:25:13.000Z</time>
        <extensions>
          <ns3:TrackPointExtension>
            <ns3:hr>131</ns3:hr>
          </ns3:TrackPointExtension>
        </extensions>
      </trkpt>
      <trkpt lat="47.5722325779497623443603515625" lon="-3.049600236117839813232421875">
        <ele>-3.599999904632568359375</ele>
        <time>2026-08-15T17:25:14.000Z</time>
        <extensions>
          <ns3:TrackPointExtension>
            <ns3:hr>131</ns3:hr>
          </ns3:TrackPointExtension>
        </extensions>
      </trkpt>
      <trkpt lat="47.5722359307110309600830078125" lon="-3.04959914647042751312255859375">
        <ele>-3.400000095367431640625</ele>
        <time>2026-08-15T17:25:15.000Z</time>
        <extensions>
          <ns3:TrackPointExtension>
            <ns3:hr>131</ns3:hr>
          </ns3:TrackPointExtension>
        </extensions>
      </trkpt>
      <trkpt lat="47.5722503475844860076904296875" lon="-3.04959612898528575897216796875">
        <ele>-3.400000095367431640625</ele>
        <time>2026-08-15T17:25:16.000Z</time>
        <extensions>
          <ns3:TrackPointExtension>
            <ns3:hr>130</ns3:hr>
          </ns3:TrackPointExtension>
        </extensions>
      </trkpt>
      <trkpt lat="47.5722644291818141937255859375" lon="-3.04959453642368316650390625">
        <ele>-3.400000095367431640625</ele>
        <time>2026-08-15T17:25:17.000Z</time>
        <extensions>
          <ns3:TrackPointExtension>
            <ns3:hr>130</ns3:hr>
          </ns3:TrackPointExtension>
        </extensions>
      </trkpt>
      <trkpt lat="47.57227507419884204864501953125" lon="-3.04959160275757312774658203125">
        <ele>-3.400000095367431640625</ele>
        <time>2026-08-15T17:25:18.000Z</time>
        <extensions>
          <ns3:TrackPointExtension>
            <ns3:hr>130</ns3:hr>
          </ns3:TrackPointExtension>
        </extensions>
      </trkpt>
      <trkpt lat="47.57228814996778964996337890625" lon="-3.04958858527243137359619140625">
        <ele>-3.400000095367431640625</ele>
        <time>2026-08-15T17:25:19.000Z</time>
        <extensions>
          <ns3:TrackPointExtension>
            <ns3:hr>130</ns3:hr>
          </ns3:TrackPointExtension>
        </extensions>
      </trkpt>
      <trkpt lat="47.572300136089324951171875" lon="-3.04959042929112911224365234375">
        <ele>-3.7999999523162841796875</ele>
        <time>2026-08-15T17:25:20.000Z</time>
        <extensions>
          <ns3:TrackPointExtension>
            <ns3:hr>130</ns3:hr>
          </ns3:TrackPointExtension>
        </extensions>
      </trkpt>
      <trkpt lat="47.57231287658214569091796875" lon="-3.049588166177272796630859375">
        <ele>-3.7999999523162841796875</ele>
        <time>2026-08-15T17:25:21.000Z</time>
        <extensions>
          <ns3:TrackPointExtension>
            <ns3:hr>130</ns3:hr>
          </ns3:TrackPointExtension>
        </extensions>
      </trkpt>
      <trkpt lat="47.5723210908472537994384765625" lon="-3.04959051311016082763671875">
        <ele>-3.7999999523162841796875</ele>
        <time>2026-08-15T17:25:22.000Z</time>
        <extensions>
          <ns3:TrackPointExtension>
            <ns3:hr>130</ns3:hr>
          </ns3:TrackPointExtension>
        </extensions>
      </trkpt>
      <trkpt lat="47.57233207114040851593017578125" lon="-3.04959679953753948211669921875">
        <ele>-3.599999904632568359375</ele>
        <time>2026-08-15T17:25:23.000Z</time>
        <extensions>
          <ns3:TrackPointExtension>
            <ns3:hr>130</ns3:hr>
          </ns3:TrackPointExtension>
        </extensions>
      </trkpt>
      <trkpt lat="47.57234036922454833984375" lon="-3.0495952069759368896484375">
        <ele>-3.599999904632568359375</ele>
        <time>2026-08-15T17:25:24.000Z</time>
        <extensions>
          <ns3:TrackPointExtension>
            <ns3:hr>131</ns3:hr>
          </ns3:TrackPointExtension>
        </extensions>
      </trkpt>
      <trkpt lat="47.57234816439449787139892578125" lon="-3.0495903454720973968505859375">
        <ele>-3.400000095367431640625</ele>
        <time>2026-08-15T17:25:25.000Z</time>
        <extensions>
          <ns3:TrackPointExtension>
            <ns3:hr>132</ns3:hr>
          </ns3:TrackPointExtension>
        </extensions>
      </trkpt>
      <trkpt lat="47.57235151715576648712158203125" lon="-3.0495876632630825042724609375">
        <ele>-3.400000095367431640625</ele>
        <time>2026-08-15T17:25:26.000Z</time>
        <extensions>
          <ns3:TrackPointExtension>
            <ns3:hr>132</ns3:hr>
          </ns3:TrackPointExtension>
        </extensions>
      </trkpt>
      <trkpt lat="47.572360150516033172607421875" lon="-3.0495802871882915496826171875">
        <ele>-3.2000000476837158203125</ele>
        <time>2026-08-15T17:25:27.000Z</time>
        <extensions>
          <ns3:TrackPointExtension>
            <ns3:hr>132</ns3:hr>
          </ns3:TrackPointExtension>
        </extensions>
      </trkpt>
      <trkpt lat="47.57236794568598270416259765625" lon="-3.049574084579944610595703125">
        <ele>-3.2000000476837158203125</ele>
        <time>2026-08-15T17:25:28.000Z</time>
        <extensions>
          <ns3:TrackPointExtension>
            <ns3:hr>131</ns3:hr>
          </ns3:TrackPointExtension>
        </extensions>
      </trkpt>
      <trkpt lat="47.57237833924591541290283203125" lon="-3.04956779815256595611572265625">
        <ele>-3.2000000476837158203125</ele>
        <time>2026-08-15T17:25:29.000Z</time>
        <extensions>
          <ns3:TrackPointExtension>
            <ns3:hr>130</ns3:hr>
          </ns3:TrackPointExtension>
        </extensions>
      </trkpt>
      <trkpt lat="47.5723847933113574981689453125" lon="-3.0495564825832843780517578125">
        <ele>-3</ele>
        <time>2026-08-15T17:25:30.000Z</time>
        <extensions>
          <ns3:TrackPointExtension>
            <ns3:hr>130</ns3:hr>
          </ns3:TrackPointExtension>
        </extensions>
      </trkpt>
      <trkpt lat="47.572397701442241668701171875" lon="-3.04954768158495426177978515625">
        <ele>-2.7999999523162841796875</ele>
        <time>2026-08-15T17:25:31.000Z</time>
        <extensions>
          <ns3:TrackPointExtension>
            <ns3:hr>130</ns3:hr>
          </ns3:TrackPointExtension>
        </extensions>
      </trkpt>
      <trkpt lat="47.572411783039569854736328125" lon="-3.04953913204371929168701171875">
        <ele>-2.7999999523162841796875</ele>
        <time>2026-08-15T17:25:32.000Z</time>
        <extensions>
          <ns3:TrackPointExtension>
            <ns3:hr>130</ns3:hr>
          </ns3:TrackPointExtension>
        </extensions>
      </trkpt>
      <trkpt lat="47.5724260322749614715576171875" lon="-3.04952706210315227508544921875">
        <ele>-2.599999904632568359375</ele>
        <time>2026-08-15T17:25:33.000Z</time>
        <extensions>
          <ns3:TrackPointExtension>
            <ns3:hr>129</ns3:hr>
          </ns3:TrackPointExtension>
        </extensions>
      </trkpt>
      <trkpt lat="47.5724381022155284881591796875" lon="-3.04951432161033153533935546875">
        <ele>-2.599999904632568359375</ele>
        <time>2026-08-15T17:25:34.000Z</time>
        <extensions>
          <ns3:TrackPointExtension>
            <ns3:hr>129</ns3:hr>
          </ns3:TrackPointExtension>
        </extensions>
      </trkpt>
      <trkpt lat="47.5724516808986663818359375" lon="-3.0494964681565761566162109375">
        <ele>-2.2000000476837158203125</ele>
        <time>2026-08-15T17:25:35.000Z</time>
        <extensions>
          <ns3:TrackPointExtension>
            <ns3:hr>128</ns3:hr>
          </ns3:TrackPointExtension>
        </extensions>
      </trkpt>
      <trkpt lat="47.572470791637897491455078125" lon="-3.0494743399322032928466796875">
        <ele>-2</ele>
        <time>2026-08-15T17:25:36.000Z</time>
        <extensions>
          <ns3:TrackPointExtension>
            <ns3:hr>128</ns3:hr>
          </ns3:TrackPointExtension>
        </extensions>
      </trkpt>
      <trkpt lat="47.5724910758435726165771484375" lon="-3.04944475181400775909423828125">
        <ele>-1.7999999523162841796875</ele>
        <time>2026-08-15T17:25:37.000Z</time>
        <extensions>
          <ns3:TrackPointExtension>
            <ns3:hr>128</ns3:hr>
          </ns3:TrackPointExtension>
        </extensions>
      </trkpt>
      <trkpt lat="47.57251831702888011932373046875" lon="-3.04941122420132160186767578125">
        <ele>-1.60000002384185791015625</ele>
        <time>2026-08-15T17:25:38.000Z</time>
        <extensions>
          <ns3:TrackPointExtension>
            <ns3:hr>128</ns3:hr>
          </ns3:TrackPointExtension>
        </extensions>
      </trkpt>
      <trkpt lat="47.57254488766193389892578125" lon="-3.04937652312219142913818359375">
        <ele>-1.60000002384185791015625</ele>
        <time>2026-08-15T17:25:39.000Z</time>
        <extensions>
          <ns3:TrackPointExtension>
            <ns3:hr>128</ns3:hr>
          </ns3:TrackPointExtension>
        </extensions>
      </trkpt>
      <trkpt lat="47.5725812651216983795166015625" lon="-3.04935179650783538818359375">
        <ele>-1.7999999523162841796875</ele>
        <time>2026-08-15T17:25:40.000Z</time>
        <extensions>
          <ns3:TrackPointExtension>
            <ns3:hr>128</ns3:hr>
          </ns3:TrackPointExtension>
        </extensions>
      </trkpt>
      <trkpt lat="47.57262443192303180694580078125" lon="-3.04933830164372920989990234375">
        <ele>-2.2000000476837158203125</ele>
        <time>2026-08-15T17:25:41.000Z</time>
        <extensions>
          <ns3:TrackPointExtension>
            <ns3:hr>128</ns3:hr>
          </ns3:TrackPointExtension>
        </extensions>
      </trkpt>
      <trkpt lat="47.572664581239223480224609375" lon="-3.0493216216564178466796875">
        <ele>-2.400000095367431640625</ele>
        <time>2026-08-15T17:25:42.000Z</time>
        <extensions>
          <ns3:TrackPointExtension>
            <ns3:hr>128</ns3:hr>
          </ns3:TrackPointExtension>
        </extensions>
      </trkpt>
      <trkpt lat="47.5727113522589206695556640625" lon="-3.04930754005908966064453125">
        <ele>-2.400000095367431640625</ele>
        <time>2026-08-15T17:25:43.000Z</time>
        <extensions>
          <ns3:TrackPointExtension>
            <ns3:hr>128</ns3:hr>
          </ns3:TrackPointExtension>
        </extensions>
      </trkpt>
      <trkpt lat="47.572755776345729827880859375" lon="-3.0492966435849666595458984375">
        <ele>-2.400000095367431640625</ele>
        <time>2026-08-15T17:25:44.000Z</time>
        <extensions>
          <ns3:TrackPointExtension>
            <ns3:hr>128</ns3:hr>
          </ns3:TrackPointExtension>
        </extensions>
      </trkpt>
      <trkpt lat="47.572804056107997894287109375" lon="-3.04929354228079319000244140625">
        <ele>-2.400000095367431640625</ele>
        <time>2026-08-15T17:25:45.000Z</time>
        <extensions>
          <ns3:TrackPointExtension>
            <ns3:hr>128</ns3:hr>
          </ns3:TrackPointExtension>
        </extensions>
      </trkpt>
      <trkpt lat="47.57285241968929767608642578125" lon="-3.0492989905178546905517578125">
        <ele>-2.400000095367431640625</ele>
        <time>2026-08-15T17:25:46.000Z</time>
        <extensions>
          <ns3:TrackPointExtension>
            <ns3:hr>128</ns3:hr>
          </ns3:TrackPointExtension>
        </extensions>
      </trkpt>
      <trkpt lat="47.57290019653737545013427734375" lon="-3.04930577985942363739013671875">
        <ele>-1.7999999523162841796875</ele>
        <time>2026-08-15T17:25:47.000Z</time>
        <extensions>
          <ns3:TrackPointExtension>
            <ns3:hr>127</ns3:hr>
          </ns3:TrackPointExtension>
        </extensions>
      </trkpt>
      <trkpt lat="47.5729544274508953094482421875" lon="-3.04931198246777057647705078125">
        <ele>-1.2000000476837158203125</ele>
        <time>2026-08-15T17:25:48.000Z</time>
        <extensions>
          <ns3:TrackPointExtension>
            <ns3:hr>126</ns3:hr>
          </ns3:TrackPointExtension>
        </extensions>
      </trkpt>
      <trkpt lat="47.57301033474504947662353515625" lon="-3.04932271130383014678955078125">
        <ele>-0.60000002384185791015625</ele>
        <time>2026-08-15T17:25:49.000Z</time>
        <extensions>
          <ns3:TrackPointExtension>
            <ns3:hr>124</ns3:hr>
          </ns3:TrackPointExtension>
        </extensions>
      </trkpt>
      <trkpt lat="47.5730685889720916748046875" lon="-3.0493435822427272796630859375">
        <ele>0</ele>
        <time>2026-08-15T17:25:50.000Z</time>
        <extensions>
          <ns3:TrackPointExtension>
            <ns3:hr>123</ns3:hr>
          </ns3:TrackPointExtension>
        </extensions>
      </trkpt>
      <trkpt lat="47.57312416099011898040771484375" lon="-3.04937191307544708251953125">
        <ele>0.4000000059604644775390625</ele>
        <time>2026-08-15T17:25:51.000Z</time>
        <extensions>
          <ns3:TrackPointExtension>
            <ns3:hr>122</ns3:hr>
          </ns3:TrackPointExtension>
        </extensions>
      </trkpt>
      <trkpt lat="47.573179565370082855224609375" lon="-3.04940787144005298614501953125">
        <ele>1</ele>
        <time>2026-08-15T17:25:52.000Z</time>
        <extensions>
          <ns3:TrackPointExtension>
            <ns3:hr>120</ns3:hr>
          </ns3:TrackPointExtension>
        </extensions>
      </trkpt>
      <trkpt lat="47.57323781959712505340576171875" lon="-3.0494401417672634124755859375">
        <ele>1.2000000476837158203125</ele>
        <time>2026-08-15T17:25:53.000Z</time>
        <extensions>
          <ns3:TrackPointExtension>
            <ns3:hr>119</ns3:hr>
          </ns3:TrackPointExtension>
        </extensions>
      </trkpt>
      <trkpt lat="47.57329062558710575103759765625" lon="-3.04946822114288806915283203125">
        <ele>1.39999997615814208984375</ele>
        <time>2026-08-15T17:25:54.000Z</time>
        <extensions>
          <ns3:TrackPointExtension>
            <ns3:hr>119</ns3:hr>
          </ns3:TrackPointExtension>
        </extensions>
      </trkpt>
      <trkpt lat="47.573345191776752471923828125" lon="-3.04949101991951465606689453125">
        <ele>1.2000000476837158203125</ele>
        <time>2026-08-15T17:25:55.000Z</time>
        <extensions>
          <ns3:TrackPointExtension>
            <ns3:hr>119</ns3:hr>
          </ns3:TrackPointExtension>
        </extensions>
      </trkpt>
      <trkpt lat="47.57339405827224254608154296875" lon="-3.04952203296124935150146484375">
        <ele>0.800000011920928955078125</ele>
        <time>2026-08-15T17:25:56.000Z</time>
        <extensions>
          <ns3:TrackPointExtension>
            <ns3:hr>120</ns3:hr>
          </ns3:TrackPointExtension>
        </extensions>
      </trkpt>
      <trkpt lat="47.57344837300479412078857421875" lon="-3.04953980259597301483154296875">
        <ele>0.60000002384185791015625</ele>
        <time>2026-08-15T17:25:57.000Z</time>
        <extensions>
          <ns3:TrackPointExtension>
            <ns3:hr>124</ns3:hr>
          </ns3:TrackPointExtension>
        </extensions>
      </trkpt>
      <trkpt lat="47.57350570522248744964599609375" lon="-3.04955539293587207794189453125">
        <ele>0.60000002384185791015625</ele>
        <time>2026-08-15T17:25:58.000Z</time>
        <extensions>
          <ns3:TrackPointExtension>
            <ns3:hr>126</ns3:hr>
          </ns3:TrackPointExtension>
        </extensions>
      </trkpt>
      <trkpt lat="47.57356278598308563232421875" lon="-3.04957919754087924957275390625">
        <ele>0</ele>
        <time>2026-08-15T17:25:59.000Z</time>
        <extensions>
          <ns3:TrackPointExtension>
            <ns3:hr>132</ns3:hr>
          </ns3:TrackPointExtension>
        </extensions>
      </trkpt>
      <trkpt lat="47.5736155919730663299560546875" lon="-3.04960660636425018310546875">
        <ele>-0.20000000298023223876953125</ele>
        <time>2026-08-15T17:26:00.000Z</time>
        <extensions>
          <ns3:TrackPointExtension>
            <ns3:hr>137</ns3:hr>
          </ns3:TrackPointExtension>
        </extensions>
      </trkpt>
      <trkpt lat="47.57366177625954151153564453125" lon="-3.049627058207988739013671875">
        <ele>-0.20000000298023223876953125</ele>
        <time>2026-08-15T17:26:01.000Z</time>
        <extensions>
          <ns3:TrackPointExtension>
            <ns3:hr>143</ns3:hr>
          </ns3:TrackPointExtension>
        </extensions>
      </trkpt>
      <trkpt lat="47.57371039129793643951416015625" lon="-3.04965086281299591064453125">
        <ele>-0.60000002384185791015625</ele>
        <time>2026-08-15T17:26:02.000Z</time>
        <extensions>
          <ns3:TrackPointExtension>
            <ns3:hr>144</ns3:hr>
          </ns3:TrackPointExtension>
        </extensions>
      </trkpt>
      <trkpt lat="47.57375213317573070526123046875" lon="-3.04967257194221019744873046875">
        <ele>-1</ele>
        <time>2026-08-15T17:26:03.000Z</time>
        <extensions>
          <ns3:TrackPointExtension>
            <ns3:hr>145</ns3:hr>
          </ns3:TrackPointExtension>
        </extensions>
      </trkpt>
      <trkpt lat="47.57379622198641300201416015625" lon="-3.04968548007309436798095703125">
        <ele>-1</ele>
        <time>2026-08-15T17:26:04.000Z</time>
        <extensions>
          <ns3:TrackPointExtension>
            <ns3:hr>145</ns3:hr>
          </ns3:TrackPointExtension>
        </extensions>
      </trkpt>
      <trkpt lat="47.5738378800451755523681640625" lon="-3.04969268850982189178466796875">
        <ele>-1.2000000476837158203125</ele>
        <time>2026-08-15T17:26:05.000Z</time>
        <extensions>
          <ns3:TrackPointExtension>
            <ns3:hr>146</ns3:hr>
          </ns3:TrackPointExtension>
        </extensions>
      </trkpt>
      <trkpt lat="47.57387232966721057891845703125" lon="-3.0496959574520587921142578125">
        <ele>-1.39999997615814208984375</ele>
        <time>2026-08-15T17:26:06.000Z</time>
        <extensions>
          <ns3:TrackPointExtension>
            <ns3:hr>146</ns3:hr>
          </ns3:TrackPointExtension>
        </extensions>
      </trkpt>
      <trkpt lat="47.57390820421278476715087890625" lon="-3.04970492608845233917236328125">
        <ele>-1.60000002384185791015625</ele>
        <time>2026-08-15T17:26:07.000Z</time>
        <extensions>
          <ns3:TrackPointExtension>
            <ns3:hr>146</ns3:hr>
          </ns3:TrackPointExtension>
        </extensions>
      </trkpt>
      <trkpt lat="47.5739398039877414703369140625" lon="-3.049717247486114501953125">
        <ele>-1.60000002384185791015625</ele>
        <time>2026-08-15T17:26:08.000Z</time>
        <extensions>
          <ns3:TrackPointExtension>
            <ns3:hr>147</ns3:hr>
          </ns3:TrackPointExtension>
        </extensions>
      </trkpt>
      <trkpt lat="47.57396000437438488006591796875" lon="-3.04972596466541290283203125">
        <ele>-1.7999999523162841796875</ele>
        <time>2026-08-15T17:26:09.000Z</time>
        <extensions>
          <ns3:TrackPointExtension>
            <ns3:hr>147</ns3:hr>
          </ns3:TrackPointExtension>
        </extensions>
      </trkpt>
      <trkpt lat="47.57396587170660495758056640625" lon="-3.04972286336123943328857421875">
        <ele>-2</ele>
        <time>2026-08-15T17:26:10.000Z</time>
        <extensions>
          <ns3:TrackPointExtension>
            <ns3:hr>148</ns3:hr>
          </ns3:TrackPointExtension>
        </extensions>
      </trkpt>
      <trkpt lat="47.57397358305752277374267578125" lon="-3.04971649311482906341552734375">
        <ele>-2</ele>
        <time>2026-08-15T17:26:11.000Z</time>
        <extensions>
          <ns3:TrackPointExtension>
            <ns3:hr>148</ns3:hr>
          </ns3:TrackPointExtension>
        </extensions>
      </trkpt>
      <trkpt lat="47.57399319671094417572021484375" lon="-3.04972420446574687957763671875">
        <ele>-2.2000000476837158203125</ele>
        <time>2026-08-15T17:26:12.000Z</time>
        <extensions>
          <ns3:TrackPointExtension>
            <ns3:hr>148</ns3:hr>
          </ns3:TrackPointExtension>
        </extensions>
      </trkpt>
      <trkpt lat="47.57400828413665294647216796875" lon="-3.04972638376057147979736328125">
        <ele>-2.2000000476837158203125</ele>
        <time>2026-08-15T17:26:13.000Z</time>
        <extensions>
          <ns3:TrackPointExtension>
            <ns3:hr>146</ns3:hr>
          </ns3:TrackPointExtension>
        </extensions>
      </trkpt>
      <trkpt lat="47.5740182586014270782470703125" lon="-3.0497271381318569183349609375">
        <ele>-2.2000000476837158203125</ele>
        <time>2026-08-15T17:26:14.000Z</time>
        <extensions>
          <ns3:TrackPointExtension>
            <ns3:hr>144</ns3:hr>
          </ns3:TrackPointExtension>
        </extensions>
      </trkpt>
      <trkpt lat="47.57402219809591770172119140625" lon="-3.04972269572317600250244140625">
        <ele>-2.2000000476837158203125</ele>
        <time>2026-08-15T17:26:15.000Z</time>
        <extensions>
          <ns3:TrackPointExtension>
            <ns3:hr>141</ns3:hr>
          </ns3:TrackPointExtension>
        </extensions>
      </trkpt>
      <trkpt lat="47.57403057999908924102783203125" lon="-3.0497237853705883026123046875">
        <ele>-2.2000000476837158203125</ele>
        <time>2026-08-15T17:26:16.000Z</time>
        <extensions>
          <ns3:TrackPointExtension>
            <ns3:hr>135</ns3:hr>
          </ns3:TrackPointExtension>
        </extensions>
      </trkpt>
      <trkpt lat="47.57403879426419734954833984375" lon="-3.04972118698060512542724609375">
        <ele>-2.2000000476837158203125</ele>
        <time>2026-08-15T17:26:17.000Z</time>
        <extensions>
          <ns3:TrackPointExtension>
            <ns3:hr>126</ns3:hr>
          </ns3:TrackPointExtension>
        </extensions>
      </trkpt>
      <trkpt lat="47.5740491040050983428955078125" lon="-3.0497157387435436248779296875">
        <ele>-2.400000095367431640625</ele>
        <time>2026-08-15T17:26:18.000Z</time>
        <extensions>
          <ns3:TrackPointExtension>
            <ns3:hr>121</ns3:hr>
          </ns3:TrackPointExtension>
        </extensions>
      </trkpt>
      <trkpt lat="47.5740581564605236053466796875" lon="-3.049714900553226470947265625">
        <ele>-2.400000095367431640625</ele>
        <time>2026-08-15T17:26:19.000Z</time>
        <extensions>
          <ns3:TrackPointExtension>
            <ns3:hr>122</ns3:hr>
          </ns3:TrackPointExtension>
        </extensions>
      </trkpt>
      <trkpt lat="47.57406561635434627532958984375" lon="-3.04971112869679927825927734375">
        <ele>-2.599999904632568359375</ele>
        <time>2026-08-15T17:26:20.000Z</time>
        <extensions>
          <ns3:TrackPointExtension>
            <ns3:hr>124</ns3:hr>
          </ns3:TrackPointExtension>
        </extensions>
      </trkpt>
      <trkpt lat="47.57407299242913722991943359375" lon="-3.04971029050648212432861328125">
        <ele>-2.7999999523162841796875</ele>
        <time>2026-08-15T17:26:21.000Z</time>
        <extensions>
          <ns3:TrackPointExtension>
            <ns3:hr>126</ns3:hr>
          </ns3:TrackPointExtension>
        </extensions>
      </trkpt>
      <trkpt lat="47.57408338598906993865966796875" lon="-3.04971121251583099365234375">
        <ele>-2.7999999523162841796875</ele>
        <time>2026-08-15T17:26:22.000Z</time>
        <extensions>
          <ns3:TrackPointExtension>
            <ns3:hr>127</ns3:hr>
          </ns3:TrackPointExtension>
        </extensions>
      </trkpt>
      <trkpt lat="47.57409227080643177032470703125" lon="-3.04971121251583099365234375">
        <ele>-3</ele>
        <time>2026-08-15T17:26:23.000Z</time>
        <extensions>
          <ns3:TrackPointExtension>
            <ns3:hr>128</ns3:hr>
          </ns3:TrackPointExtension>
        </extensions>
      </trkpt>
      <trkpt lat="47.57409411482512950897216796875" lon="-3.04971029050648212432861328125">
        <ele>-3</ele>
        <time>2026-08-15T17:26:24.000Z</time>
        <extensions>
          <ns3:TrackPointExtension>
            <ns3:hr>126</ns3:hr>
          </ns3:TrackPointExtension>
        </extensions>
      </trkpt>
      <trkpt lat="47.5741039216518402099609375" lon="-3.04971230216324329376220703125">
        <ele>-3</ele>
        <time>2026-08-15T17:26:25.000Z</time>
        <extensions>
          <ns3:TrackPointExtension>
            <ns3:hr>126</ns3:hr>
          </ns3:TrackPointExtension>
        </extensions>
      </trkpt>
      <trkpt lat="47.5741154886782169342041015625" lon="-3.0497154034674167633056640625">
        <ele>-3.2000000476837158203125</ele>
        <time>2026-08-15T17:26:26.000Z</time>
        <extensions>
          <ns3:TrackPointExtension>
            <ns3:hr>128</ns3:hr>
          </ns3:TrackPointExtension>
        </extensions>
      </trkpt>
      <trkpt lat="47.5741181708872318267822265625" lon="-3.0497207678854465484619140625">
        <ele>-3.2000000476837158203125</ele>
        <time>2026-08-15T17:26:27.000Z</time>
        <extensions>
          <ns3:TrackPointExtension>
            <ns3:hr>131</ns3:hr>
          </ns3:TrackPointExtension>
        </extensions>
      </trkpt>
      <trkpt lat="47.574122361838817596435546875" lon="-3.0497281439602375030517578125">
        <ele>-3.2000000476837158203125</ele>
        <time>2026-08-15T17:26:28.000Z</time>
        <extensions>
          <ns3:TrackPointExtension>
            <ns3:hr>133</ns3:hr>
          </ns3:TrackPointExtension>
        </extensions>
      </trkpt>
      <trkpt lat="47.57413116283714771270751953125" lon="-3.04972370155155658721923828125">
        <ele>-3.2000000476837158203125</ele>
        <time>2026-08-15T17:26:29.000Z</time>
        <extensions>
          <ns3:TrackPointExtension>
            <ns3:hr>135</ns3:hr>
          </ns3:TrackPointExtension>
        </extensions>
      </trkpt>
      <trkpt lat="47.5741332583129405975341796875" lon="-3.04971800185739994049072265625">
        <ele>-3.2000000476837158203125</ele>
        <time>2026-08-15T17:26:30.000Z</time>
        <extensions>
          <ns3:TrackPointExtension>
            <ns3:hr>136</ns3:hr>
          </ns3:TrackPointExtension>
        </extensions>
      </trkpt>
      <trkpt lat="47.57414373569190502166748046875" lon="-3.04971992969512939453125">
        <ele>-3.2000000476837158203125</ele>
        <time>2026-08-15T17:26:31.000Z</time>
        <extensions>
          <ns3:TrackPointExtension>
            <ns3:hr>137</ns3:hr>
          </ns3:TrackPointExtension>
        </extensions>
      </trkpt>
      <trkpt lat="47.57414910010993480682373046875" lon="-3.04972135461866855621337890625">
        <ele>-3</ele>
        <time>2026-08-15T17:26:32.000Z</time>
        <extensions>
          <ns3:TrackPointExtension>
            <ns3:hr>137</ns3:hr>
          </ns3:TrackPointExtension>
        </extensions>
      </trkpt>
      <trkpt lat="47.57415689527988433837890625" lon="-3.0497190915048122406005859375">
        <ele>-2.7999999523162841796875</ele>
        <time>2026-08-15T17:26:33.000Z</time>
        <extensions>
          <ns3:TrackPointExtension>
            <ns3:hr>137</ns3:hr>
          </ns3:TrackPointExtension>
        </extensions>
      </trkpt>
      <trkpt lat="47.5741610862314701080322265625" lon="-3.04971984587609767913818359375">
        <ele>-2.7999999523162841796875</ele>
        <time>2026-08-15T17:26:34.000Z</time>
        <extensions>
          <ns3:TrackPointExtension>
            <ns3:hr>137</ns3:hr>
          </ns3:TrackPointExtension>
        </extensions>
      </trkpt>
      <trkpt lat="47.57417407818138599395751953125" lon="-3.04971179924905300140380859375">
        <ele>-2.7999999523162841796875</ele>
        <time>2026-08-15T17:26:35.000Z</time>
        <extensions>
          <ns3:TrackPointExtension>
            <ns3:hr>138</ns3:hr>
          </ns3:TrackPointExtension>
        </extensions>
      </trkpt>
      <trkpt lat="47.57417810149490833282470703125" lon="-3.04971263743937015533447265625">
        <ele>-2.7999999523162841796875</ele>
        <time>2026-08-15T17:26:36.000Z</time>
        <extensions>
          <ns3:TrackPointExtension>
            <ns3:hr>138</ns3:hr>
          </ns3:TrackPointExtension>
        </extensions>
      </trkpt>
      <trkpt lat="47.57418614812195301055908203125" lon="-3.0497086979448795318603515625">
        <ele>-2.7999999523162841796875</ele>
        <time>2026-08-15T17:26:37.000Z</time>
        <extensions>
          <ns3:TrackPointExtension>
            <ns3:hr>138</ns3:hr>
          </ns3:TrackPointExtension>
        </extensions>
      </trkpt>
      <trkpt lat="47.5741951167583465576171875" lon="-3.049701154232025146484375">
        <ele>-2.7999999523162841796875</ele>
        <time>2026-08-15T17:26:38.000Z</time>
        <extensions>
          <ns3:TrackPointExtension>
            <ns3:hr>138</ns3:hr>
          </ns3:TrackPointExtension>
        </extensions>
      </trkpt>
      <trkpt lat="47.5742004811763763427734375" lon="-3.04969780147075653076171875">
        <ele>-2.7999999523162841796875</ele>
        <time>2026-08-15T17:26:39.000Z</time>
        <extensions>
          <ns3:TrackPointExtension>
            <ns3:hr>138</ns3:hr>
          </ns3:TrackPointExtension>
        </extensions>
      </trkpt>
      <trkpt lat="47.57420944981276988983154296875" lon="-3.049696125090122222900390625">
        <ele>-3</ele>
        <time>2026-08-15T17:26:40.000Z</time>
        <extensions>
          <ns3:TrackPointExtension>
            <ns3:hr>139</ns3:hr>
          </ns3:TrackPointExtension>
        </extensions>
      </trkpt>
      <trkpt lat="47.57421699352562427520751953125" lon="-3.0496946163475513458251953125">
        <ele>-2.7999999523162841796875</ele>
        <time>2026-08-15T17:26:41.000Z</time>
        <extensions>
          <ns3:TrackPointExtension>
            <ns3:hr>138</ns3:hr>
          </ns3:TrackPointExtension>
        </extensions>
      </trkpt>
      <trkpt lat="47.5742247886955738067626953125" lon="-3.04968983866274356842041015625">
        <ele>-2.7999999523162841796875</ele>
        <time>2026-08-15T17:26:42.000Z</time>
        <extensions>
          <ns3:TrackPointExtension>
            <ns3:hr>138</ns3:hr>
          </ns3:TrackPointExtension>
        </extensions>
      </trkpt>
      <trkpt lat="47.5742351822555065155029296875" lon="-3.04968313314020633697509765625">
        <ele>-3</ele>
        <time>2026-08-15T17:26:43.000Z</time>
        <extensions>
          <ns3:TrackPointExtension>
            <ns3:hr>138</ns3:hr>
          </ns3:TrackPointExtension>
        </extensions>
      </trkpt>
      <trkpt lat="47.57424633018672466278076171875" lon="-3.0496835522353649139404296875">
        <ele>-3</ele>
        <time>2026-08-15T17:26:44.000Z</time>
        <extensions>
          <ns3:TrackPointExtension>
            <ns3:hr>138</ns3:hr>
          </ns3:TrackPointExtension>
        </extensions>
      </trkpt>
      <trkpt lat="47.57425337098538875579833984375" lon="-3.04967525415122509002685546875">
        <ele>-3.2000000476837158203125</ele>
        <time>2026-08-15T17:26:45.000Z</time>
        <extensions>
          <ns3:TrackPointExtension>
            <ns3:hr>137</ns3:hr>
          </ns3:TrackPointExtension>
        </extensions>
      </trkpt>
      <trkpt lat="47.57426158525049686431884765625" lon="-3.049676008522510528564453125">
        <ele>-3.2000000476837158203125</ele>
        <time>2026-08-15T17:26:46.000Z</time>
        <extensions>
          <ns3:TrackPointExtension>
            <ns3:hr>137</ns3:hr>
          </ns3:TrackPointExtension>
        </extensions>
      </trkpt>
      <trkpt lat="47.57427264936268329620361328125" lon="-3.04966804571449756622314453125">
        <ele>-3.400000095367431640625</ele>
        <time>2026-08-15T17:26:47.000Z</time>
        <extensions>
          <ns3:TrackPointExtension>
            <ns3:hr>136</ns3:hr>
          </ns3:TrackPointExtension>
        </extensions>
      </trkpt>
      <trkpt lat="47.574281282722949981689453125" lon="-3.04966519586741924285888671875">
        <ele>-3.400000095367431640625</ele>
        <time>2026-08-15T17:26:48.000Z</time>
        <extensions>
          <ns3:TrackPointExtension>
            <ns3:hr>136</ns3:hr>
          </ns3:TrackPointExtension>
        </extensions>
      </trkpt>
      <trkpt lat="47.574293352663516998291015625" lon="-3.0496634356677532196044921875">
        <ele>-3.2000000476837158203125</ele>
        <time>2026-08-15T17:26:49.000Z</time>
        <extensions>
          <ns3:TrackPointExtension>
            <ns3:hr>136</ns3:hr>
          </ns3:TrackPointExtension>
        </extensions>
      </trkpt>
      <trkpt lat="47.57430064491927623748779296875" lon="-3.04966318421065807342529296875">
        <ele>-3.2000000476837158203125</ele>
        <time>2026-08-15T17:26:50.000Z</time>
        <extensions>
          <ns3:TrackPointExtension>
            <ns3:hr>134</ns3:hr>
          </ns3:TrackPointExtension>
        </extensions>
      </trkpt>
      <trkpt lat="47.5743099488317966461181640625" lon="-3.04965597577393054962158203125">
        <ele>-3</ele>
        <time>2026-08-15T17:26:51.000Z</time>
        <extensions>
          <ns3:TrackPointExtension>
            <ns3:hr>133</ns3:hr>
          </ns3:TrackPointExtension>
        </extensions>
      </trkpt>
      <trkpt lat="47.5743183307349681854248046875" lon="-3.04965614341199398040771484375">
        <ele>-3</ele>
        <time>2026-08-15T17:26:52.000Z</time>
        <extensions>
          <ns3:TrackPointExtension>
            <ns3:hr>132</ns3:hr>
          </ns3:TrackPointExtension>
        </extensions>
      </trkpt>
      <trkpt lat="47.57432847283780574798583984375" lon="-3.04965463466942310333251953125">
        <ele>-3</ele>
        <time>2026-08-15T17:26:53.000Z</time>
        <extensions>
          <ns3:TrackPointExtension>
            <ns3:hr>132</ns3:hr>
          </ns3:TrackPointExtension>
        </extensions>
      </trkpt>
      <trkpt lat="47.57433601655066013336181640625" lon="-3.049649856984615325927734375">
        <ele>-3</ele>
        <time>2026-08-15T17:26:54.000Z</time>
        <extensions>
          <ns3:TrackPointExtension>
            <ns3:hr>132</ns3:hr>
          </ns3:TrackPointExtension>
        </extensions>
      </trkpt>
      <trkpt lat="47.57433953694999217987060546875" lon="-3.04965220391750335693359375">
        <ele>-3</ele>
        <time>2026-08-15T17:26:55.000Z</time>
        <extensions>
          <ns3:TrackPointExtension>
            <ns3:hr>131</ns3:hr>
          </ns3:TrackPointExtension>
        </extensions>
      </trkpt>
      <trkpt lat="47.57434842176735401153564453125" lon="-3.0496547184884548187255859375">
        <ele>-3</ele>
        <time>2026-08-15T17:26:56.000Z</time>
        <extensions>
          <ns3:TrackPointExtension>
            <ns3:hr>131</ns3:hr>
          </ns3:TrackPointExtension>
        </extensions>
      </trkpt>
      <trkpt lat="47.57435646839439868927001953125" lon="-3.04965346120297908782958984375">
        <ele>-3</ele>
        <time>2026-08-15T17:26:57.000Z</time>
        <extensions>
          <ns3:TrackPointExtension>
            <ns3:hr>132</ns3:hr>
          </ns3:TrackPointExtension>
        </extensions>
      </trkpt>
      <trkpt lat="47.5743642635643482208251953125" lon="-3.0496533773839473724365234375">
        <ele>-3</ele>
        <time>2026-08-15T17:26:58.000Z</time>
        <extensions>
          <ns3:TrackPointExtension>
            <ns3:hr>132</ns3:hr>
          </ns3:TrackPointExtension>
        </extensions>
      </trkpt>
      <trkpt lat="47.5743721425533294677734375" lon="-3.04964952170848846435546875">
        <ele>-3.2000000476837158203125</ele>
        <time>2026-08-15T17:26:59.000Z</time>
        <extensions>
          <ns3:TrackPointExtension>
            <ns3:hr>134</ns3:hr>
          </ns3:TrackPointExtension>
        </extensions>
      </trkpt>
      <trkpt lat="47.5743749924004077911376953125" lon="-3.04964977316558361053466796875">
        <ele>-3.2000000476837158203125</ele>
        <time>2026-08-15T17:27:00.000Z</time>
        <extensions>
          <ns3:TrackPointExtension>
            <ns3:hr>135</ns3:hr>
          </ns3:TrackPointExtension>
        </extensions>
      </trkpt>
      <trkpt lat="47.5743790157139301300048828125" lon="-3.0496631003916263580322265625">
        <ele>-3.2000000476837158203125</ele>
        <time>2026-08-15T17:27:01.000Z</time>
        <extensions>
          <ns3:TrackPointExtension>
            <ns3:hr>136</ns3:hr>
          </ns3:TrackPointExtension>
        </extensions>
      </trkpt>
      <trkpt lat="47.5743827037513256072998046875" lon="-3.04967139847576618194580078125">
        <ele>-3.400000095367431640625</ele>
        <time>2026-08-15T17:27:02.000Z</time>
        <extensions>
          <ns3:TrackPointExtension>
            <ns3:hr>136</ns3:hr>
          </ns3:TrackPointExtension>
        </extensions>
      </trkpt>
      <trkpt lat="47.57439158856868743896484375" lon="-3.0497078597545623779296875">
        <ele>-3.7999999523162841796875</ele>
        <time>2026-08-15T17:27:06.000Z</time>
        <extensions>
          <ns3:TrackPointExtension>
            <ns3:hr>136</ns3:hr>
          </ns3:TrackPointExtension>
        </extensions>
      </trkpt>
      <trkpt lat="47.5743904151022434234619140625" lon="-3.04970048367977142333984375">
        <ele>-3.7999999523162841796875</ele>
        <time>2026-08-15T17:27:07.000Z</time>
        <extensions>
          <ns3:TrackPointExtension>
            <ns3:hr>135</ns3:hr>
          </ns3:TrackPointExtension>
        </extensions>
      </trkpt>
      <trkpt lat="47.57439351640641689300537109375" lon="-3.04968774318695068359375">
        <ele>-4</ele>
        <time>2026-08-15T17:27:08.000Z</time>
        <extensions>
          <ns3:TrackPointExtension>
            <ns3:hr>135</ns3:hr>
          </ns3:TrackPointExtension>
        </extensions>
      </trkpt>
      <trkpt lat="47.57439653389155864715576171875" lon="-3.04968128912150859832763671875">
        <ele>-4</ele>
        <time>2026-08-15T17:27:09.000Z</time>
        <extensions>
          <ns3:TrackPointExtension>
            <ns3:hr>135</ns3:hr>
          </ns3:TrackPointExtension>
        </extensions>
      </trkpt>
      <trkpt lat="47.5743981264531612396240234375" lon="-3.04966268129646778106689453125">
        <ele>-4</ele>
        <time>2026-08-15T17:27:10.000Z</time>
        <extensions>
          <ns3:TrackPointExtension>
            <ns3:hr>135</ns3:hr>
          </ns3:TrackPointExtension>
        </extensions>
      </trkpt>
      <trkpt lat="47.57439024746417999267578125" lon="-3.0496560595929622650146484375">
        <ele>-4.19999980926513671875</ele>
        <time>2026-08-15T17:27:11.000Z</time>
        <extensions>
          <ns3:TrackPointExtension>
            <ns3:hr>133</ns3:hr>
          </ns3:TrackPointExtension>
        </extensions>
      </trkpt>
      <trkpt lat="47.57439267821609973907470703125" lon="-3.04966184310615062713623046875">
        <ele>-4.19999980926513671875</ele>
        <time>2026-08-15T17:27:12.000Z</time>
        <extensions>
          <ns3:TrackPointExtension>
            <ns3:hr>132</ns3:hr>
          </ns3:TrackPointExtension>
        </extensions>
      </trkpt>
      <trkpt lat="47.574397288262844085693359375" lon="-3.0496698059141635894775390625">
        <ele>-4.400000095367431640625</ele>
        <time>2026-08-15T17:27:13.000Z</time>
        <extensions>
          <ns3:TrackPointExtension>
            <ns3:hr>129</ns3:hr>
          </ns3:TrackPointExtension>
        </extensions>
      </trkpt>
      <trkpt lat="47.5744101963937282562255859375" lon="-3.0496783554553985595703125">
        <ele>-4.400000095367431640625</ele>
        <time>2026-08-15T17:27:14.000Z</time>
        <extensions>
          <ns3:TrackPointExtension>
            <ns3:hr>129</ns3:hr>
          </ns3:TrackPointExtension>
        </extensions>
      </trkpt>
      <trkpt lat="47.57442243397235870361328125" lon="-3.04968749172985553741455078125">
        <ele>-4.599999904632568359375</ele>
        <time>2026-08-15T17:27:15.000Z</time>
        <extensions>
          <ns3:TrackPointExtension>
            <ns3:hr>129</ns3:hr>
          </ns3:TrackPointExtension>
        </extensions>
      </trkpt>
      <trkpt lat="47.57443726994097232818603515625" lon="-3.04969218559563159942626953125">
        <ele>-4.599999904632568359375</ele>
        <time>2026-08-15T17:27:16.000Z</time>
        <extensions>
          <ns3:TrackPointExtension>
            <ns3:hr>128</ns3:hr>
          </ns3:TrackPointExtension>
        </extensions>
      </trkpt>
      <trkpt lat="47.57445462048053741455078125" lon="-3.0496993102133274078369140625">
        <ele>-4.599999904632568359375</ele>
        <time>2026-08-15T17:27:17.000Z</time>
        <extensions>
          <ns3:TrackPointExtension>
            <ns3:hr>129</ns3:hr>
          </ns3:TrackPointExtension>
        </extensions>
      </trkpt>
      <trkpt lat="47.574472390115261077880859375" lon="-3.04970827884972095489501953125">
        <ele>-4.599999904632568359375</ele>
        <time>2026-08-15T17:27:18.000Z</time>
        <extensions>
          <ns3:TrackPointExtension>
            <ns3:hr>129</ns3:hr>
          </ns3:TrackPointExtension>
        </extensions>
      </trkpt>
      <trkpt lat="47.5744846276938915252685546875" lon="-3.04971783421933650970458984375">
        <ele>-4.599999904632568359375</ele>
        <time>2026-08-15T17:27:19.000Z</time>
        <extensions>
          <ns3:TrackPointExtension>
            <ns3:hr>127</ns3:hr>
          </ns3:TrackPointExtension>
        </extensions>
      </trkpt>
      <trkpt lat="47.57449644617736339569091796875" lon="-3.0497264675796031951904296875">
        <ele>-4</ele>
        <time>2026-08-15T17:27:20.000Z</time>
        <extensions>
          <ns3:TrackPointExtension>
            <ns3:hr>125</ns3:hr>
          </ns3:TrackPointExtension>
        </extensions>
      </trkpt>
      <trkpt lat="47.57451052777469158172607421875" lon="-3.0497341789305210113525390625">
        <ele>-3.7999999523162841796875</ele>
        <time>2026-08-15T17:27:21.000Z</time>
        <extensions>
          <ns3:TrackPointExtension>
            <ns3:hr>123</ns3:hr>
          </ns3:TrackPointExtension>
        </extensions>
      </trkpt>
      <trkpt lat="47.57452360354363918304443359375" lon="-3.04974147118628025054931640625">
        <ele>-3.400000095367431640625</ele>
        <time>2026-08-15T17:27:22.000Z</time>
        <extensions>
          <ns3:TrackPointExtension>
            <ns3:hr>123</ns3:hr>
          </ns3:TrackPointExtension>
        </extensions>
      </trkpt>
      <trkpt lat="47.57453030906617641448974609375" lon="-3.049744404852390289306640625">
        <ele>-3</ele>
        <time>2026-08-15T17:27:23.000Z</time>
        <extensions>
          <ns3:TrackPointExtension>
            <ns3:hr>122</ns3:hr>
          </ns3:TrackPointExtension>
        </extensions>
      </trkpt>
      <trkpt lat="47.57454154081642627716064453125" lon="-3.04975303821265697479248046875">
        <ele>-2.400000095367431640625</ele>
        <time>2026-08-15T17:27:24.000Z</time>
        <extensions>
          <ns3:TrackPointExtension>
            <ns3:hr>122</ns3:hr>
          </ns3:TrackPointExtension>
        </extensions>
      </trkpt>
      <trkpt lat="47.5745493359863758087158203125" lon="-3.04976510815322399139404296875">
        <ele>-2</ele>
        <time>2026-08-15T17:27:25.000Z</time>
        <extensions>
          <ns3:TrackPointExtension>
            <ns3:hr>122</ns3:hr>
          </ns3:TrackPointExtension>
        </extensions>
      </trkpt>
      <trkpt lat="47.5745545327663421630859375" lon="-3.0497713945806026458740234375">
        <ele>-1.2000000476837158203125</ele>
        <time>2026-08-15T17:27:26.000Z</time>
        <extensions>
          <ns3:TrackPointExtension>
            <ns3:hr>123</ns3:hr>
          </ns3:TrackPointExtension>
        </extensions>
      </trkpt>
      <trkpt lat="47.57455696351826190948486328125" lon="-3.04977198131382465362548828125">
        <ele>-1</ele>
        <time>2026-08-15T17:27:27.000Z</time>
        <extensions>
          <ns3:TrackPointExtension>
            <ns3:hr>123</ns3:hr>
          </ns3:TrackPointExtension>
        </extensions>
      </trkpt>
      <trkpt lat="47.57456769235432147979736328125" lon="-3.0497797764837741851806640625">
        <ele>-0.60000002384185791015625</ele>
        <time>2026-08-15T17:27:28.000Z</time>
        <extensions>
          <ns3:TrackPointExtension>
            <ns3:hr>123</ns3:hr>
          </ns3:TrackPointExtension>
        </extensions>
      </trkpt>
      <trkpt lat="47.57457188330590724945068359375" lon="-3.0497821234166622161865234375">
        <ele>-0.20000000298023223876953125</ele>
        <time>2026-08-15T17:27:29.000Z</time>
        <extensions>
          <ns3:TrackPointExtension>
            <ns3:hr>123</ns3:hr>
          </ns3:TrackPointExtension>
        </extensions>
      </trkpt>
      <trkpt lat="47.57457121275365352630615234375" lon="-3.04978170432150363922119140625">
        <ele>0</ele>
        <time>2026-08-15T17:27:30.000Z</time>
        <extensions>
          <ns3:TrackPointExtension>
            <ns3:hr>124</ns3:hr>
          </ns3:TrackPointExtension>
        </extensions>
      </trkpt>
      <trkpt lat="47.5745744816958904266357421875" lon="-3.0497854761779308319091796875">
        <ele>0.4000000059604644775390625</ele>
        <time>2026-08-15T17:27:31.000Z</time>
        <extensions>
          <ns3:TrackPointExtension>
            <ns3:hr>124</ns3:hr>
          </ns3:TrackPointExtension>
        </extensions>
      </trkpt>
      <trkpt lat="47.57458026520907878875732421875" lon="-3.04978924803435802459716796875">
        <ele>0.800000011920928955078125</ele>
        <time>2026-08-15T17:27:32.000Z</time>
        <extensions>
          <ns3:TrackPointExtension>
            <ns3:hr>124</ns3:hr>
          </ns3:TrackPointExtension>
        </extensions>
      </trkpt>
      <trkpt lat="47.57459677755832672119140625" lon="-3.04979838430881500244140625">
        <ele>1</ele>
        <time>2026-08-15T17:27:33.000Z</time>
        <extensions>
          <ns3:TrackPointExtension>
            <ns3:hr>123</ns3:hr>
          </ns3:TrackPointExtension>
        </extensions>
      </trkpt>
      <trkpt lat="47.5746103562414646148681640625" lon="-3.04980567656457424163818359375">
        <ele>1.2000000476837158203125</ele>
        <time>2026-08-15T17:27:34.000Z</time>
        <extensions>
          <ns3:TrackPointExtension>
            <ns3:hr>123</ns3:hr>
          </ns3:TrackPointExtension>
        </extensions>
      </trkpt>
      <trkpt lat="47.57462024688720703125" lon="-3.04981271736323833465576171875">
        <ele>1.39999997615814208984375</ele>
        <time>2026-08-15T17:27:35.000Z</time>
        <extensions>
          <ns3:TrackPointExtension>
            <ns3:hr>123</ns3:hr>
          </ns3:TrackPointExtension>
        </extensions>
      </trkpt>
      <trkpt lat="47.57462955079972743988037109375" lon="-3.04981858469545841217041015625">
        <ele>1.60000002384185791015625</ele>
        <time>2026-08-15T17:27:36.000Z</time>
        <extensions>
          <ns3:TrackPointExtension>
            <ns3:hr>123</ns3:hr>
          </ns3:TrackPointExtension>
        </extensions>
      </trkpt>
      <trkpt lat="47.574634663760662078857421875" lon="-3.0498205125331878662109375">
        <ele>1.60000002384185791015625</ele>
        <time>2026-08-15T17:27:37.000Z</time>
        <extensions>
          <ns3:TrackPointExtension>
            <ns3:hr>122</ns3:hr>
          </ns3:TrackPointExtension>
        </extensions>
      </trkpt>
      <trkpt lat="47.57463994435966014862060546875" lon="-3.0498258769512176513671875">
        <ele>1.39999997615814208984375</ele>
        <time>2026-08-15T17:27:38.000Z</time>
        <extensions>
          <ns3:TrackPointExtension>
            <ns3:hr>120</ns3:hr>
          </ns3:TrackPointExtension>
        </extensions>
      </trkpt>
      <trkpt lat="47.57463960908353328704833984375" lon="-3.04982596077024936676025390625">
        <ele>1.39999997615814208984375</ele>
        <time>2026-08-15T17:27:39.000Z</time>
        <extensions>
          <ns3:TrackPointExtension>
            <ns3:hr>120</ns3:hr>
          </ns3:TrackPointExtension>
        </extensions>
      </trkpt>
      <trkpt lat="47.574638016521930694580078125" lon="-3.04983367212116718292236328125">
        <ele>1</ele>
        <time>2026-08-15T17:27:40.000Z</time>
        <extensions>
          <ns3:TrackPointExtension>
            <ns3:hr>119</ns3:hr>
          </ns3:TrackPointExtension>
        </extensions>
      </trkpt>
      <trkpt lat="47.57463759742677211761474609375" lon="-3.049845993518829345703125">
        <ele>0.4000000059604644775390625</ele>
        <time>2026-08-15T17:27:41.000Z</time>
        <extensions>
          <ns3:TrackPointExtension>
            <ns3:hr>119</ns3:hr>
          </ns3:TrackPointExtension>
        </extensions>
      </trkpt>
      <trkpt lat="47.57463290356099605560302734375" lon="-3.04986250586807727813720703125">
        <ele>0.20000000298023223876953125</ele>
        <time>2026-08-15T17:27:42.000Z</time>
        <extensions>
          <ns3:TrackPointExtension>
            <ns3:hr>120</ns3:hr>
          </ns3:TrackPointExtension>
        </extensions>
      </trkpt>
      <trkpt lat="47.5746241025626659393310546875" lon="-3.04986946284770965576171875">
        <ele>0</ele>
        <time>2026-08-15T17:27:43.000Z</time>
        <extensions>
          <ns3:TrackPointExtension>
            <ns3:hr>120</ns3:hr>
          </ns3:TrackPointExtension>
        </extensions>
      </trkpt>
      <trkpt lat="47.57461932487785816192626953125" lon="-3.04986921139061450958251953125">
        <ele>-0.60000002384185791015625</ele>
        <time>2026-08-15T17:27:44.000Z</time>
        <extensions>
          <ns3:TrackPointExtension>
            <ns3:hr>121</ns3:hr>
          </ns3:TrackPointExtension>
        </extensions>
      </trkpt>
      <trkpt lat="47.5746095180511474609375" lon="-3.04985068738460540771484375">
        <ele>-0.800000011920928955078125</ele>
        <time>2026-08-15T17:27:45.000Z</time>
        <extensions>
          <ns3:TrackPointExtension>
            <ns3:hr>122</ns3:hr>
          </ns3:TrackPointExtension>
        </extensions>
      </trkpt>
      <trkpt lat="47.57460272870957851409912109375" lon="-3.0498521961271762847900390625">
        <ele>-1.39999997615814208984375</ele>
        <time>2026-08-15T17:27:46.000Z</time>
        <extensions>
          <ns3:TrackPointExtension>
            <ns3:hr>123</ns3:hr>
          </ns3:TrackPointExtension>
        </extensions>
      </trkpt>
      <trkpt lat="47.574601471424102783203125" lon="-3.049845993518829345703125">
        <ele>-1.7999999523162841796875</ele>
        <time>2026-08-15T17:27:47.000Z</time>
        <extensions>
          <ns3:TrackPointExtension>
            <ns3:hr>124</ns3:hr>
          </ns3:TrackPointExtension>
        </extensions>
      </trkpt>
      <trkpt lat="47.57459887303411960601806640625" lon="-3.0498220212757587432861328125">
        <ele>-1.7999999523162841796875</ele>
        <time>2026-08-15T17:27:48.000Z</time>
        <extensions>
          <ns3:TrackPointExtension>
            <ns3:hr>124</ns3:hr>
          </ns3:TrackPointExtension>
        </extensions>
      </trkpt>
      <trkpt lat="47.57459753192961215972900390625" lon="-3.04981271736323833465576171875">
        <ele>-1.7999999523162841796875</ele>
        <time>2026-08-15T17:27:49.000Z</time>
        <extensions>
          <ns3:TrackPointExtension>
            <ns3:hr>124</ns3:hr>
          </ns3:TrackPointExtension>
        </extensions>
      </trkpt>
      <trkpt lat="47.574596107006072998046875" lon="-3.0498052574694156646728515625">
        <ele>-1.60000002384185791015625</ele>
        <time>2026-08-15T17:27:50.000Z</time>
        <extensions>
          <ns3:TrackPointExtension>
            <ns3:hr>124</ns3:hr>
          </ns3:TrackPointExtension>
        </extensions>
      </trkpt>
      <trkpt lat="47.574596442282199859619140625" lon="-3.04979444481432437896728515625">
        <ele>-1.60000002384185791015625</ele>
        <time>2026-08-15T17:27:51.000Z</time>
        <extensions>
          <ns3:TrackPointExtension>
            <ns3:hr>124</ns3:hr>
          </ns3:TrackPointExtension>
        </extensions>
      </trkpt>
      <trkpt lat="47.5745935924351215362548828125" lon="-3.04978430271148681640625">
        <ele>-1.39999997615814208984375</ele>
        <time>2026-08-15T17:27:52.000Z</time>
        <extensions>
          <ns3:TrackPointExtension>
            <ns3:hr>125</ns3:hr>
          </ns3:TrackPointExtension>
        </extensions>
      </trkpt>
      <trkpt lat="47.57460038177669048309326171875" lon="-3.04978522472083568572998046875">
        <ele>-1.39999997615814208984375</ele>
        <time>2026-08-15T17:27:53.000Z</time>
        <extensions>
          <ns3:TrackPointExtension>
            <ns3:hr>126</ns3:hr>
          </ns3:TrackPointExtension>
        </extensions>
      </trkpt>
      <trkpt lat="47.5746113620698451995849609375" lon="-3.04978405125439167022705078125">
        <ele>-1.2000000476837158203125</ele>
        <time>2026-08-15T17:27:54.000Z</time>
        <extensions>
          <ns3:TrackPointExtension>
            <ns3:hr>127</ns3:hr>
          </ns3:TrackPointExtension>
        </extensions>
      </trkpt>
      <trkpt lat="47.57462401874363422393798828125" lon="-3.049789331853389739990234375">
        <ele>-0.4000000059604644775390625</ele>
        <time>2026-08-15T17:27:55.000Z</time>
        <extensions>
          <ns3:TrackPointExtension>
            <ns3:hr>126</ns3:hr>
          </ns3:TrackPointExtension>
        </extensions>
      </trkpt>
      <trkpt lat="47.57462401874363422393798828125" lon="-3.049789331853389739990234375">
        <ele>0.4000000059604644775390625</ele>
        <time>2026-08-15T17:27:56.000Z</time>
        <extensions>
          <ns3:TrackPointExtension>
            <ns3:hr>126</ns3:hr>
          </ns3:TrackPointExtension>
        </extensions>
      </trkpt>
      <trkpt lat="47.5746247731149196624755859375" lon="-3.04979964159429073333740234375">
        <ele>1.2000000476837158203125</ele>
        <time>2026-08-15T17:27:57.000Z</time>
        <extensions>
          <ns3:TrackPointExtension>
            <ns3:hr>125</ns3:hr>
          </ns3:TrackPointExtension>
        </extensions>
      </trkpt>
      <trkpt lat="47.5746287964284420013427734375" lon="-3.049798719584941864013671875">
        <ele>1.2000000476837158203125</ele>
        <time>2026-08-15T17:27:58.000Z</time>
        <extensions>
          <ns3:TrackPointExtension>
            <ns3:hr>124</ns3:hr>
          </ns3:TrackPointExtension>
        </extensions>
      </trkpt>
      <trkpt lat="47.57463022135198116302490234375" lon="-3.04978656582534313201904296875">
        <ele>1.2000000476837158203125</ele>
        <time>2026-08-15T17:27:59.000Z</time>
        <extensions>
          <ns3:TrackPointExtension>
            <ns3:hr>124</ns3:hr>
          </ns3:TrackPointExtension>
        </extensions>
      </trkpt>
      <trkpt lat="47.574633322656154632568359375" lon="-3.04977550171315670013427734375">
        <ele>1</ele>
        <time>2026-08-15T17:28:00.000Z</time>
        <extensions>
          <ns3:TrackPointExtension>
            <ns3:hr>123</ns3:hr>
          </ns3:TrackPointExtension>
        </extensions>
      </trkpt>
      <trkpt lat="47.57462720386683940887451171875" lon="-3.049777932465076446533203125">
        <ele>0.60000002384185791015625</ele>
        <time>2026-08-15T17:28:01.000Z</time>
        <extensions>
          <ns3:TrackPointExtension>
            <ns3:hr>123</ns3:hr>
          </ns3:TrackPointExtension>
        </extensions>
      </trkpt>
      <trkpt lat="47.5746341608464717864990234375" lon="-3.04977432824671268463134765625">
        <ele>0</ele>
        <time>2026-08-15T17:28:02.000Z</time>
        <extensions>
          <ns3:TrackPointExtension>
            <ns3:hr>122</ns3:hr>
          </ns3:TrackPointExtension>
        </extensions>
      </trkpt>
      <trkpt lat="47.57462401874363422393798828125" lon="-3.049789331853389739990234375">
        <ele>-0.20000000298023223876953125</ele>
        <time>2026-08-15T17:28:03.000Z</time>
        <extensions>
          <ns3:TrackPointExtension>
            <ns3:hr>122</ns3:hr>
          </ns3:TrackPointExtension>
        </extensions>
      </trkpt>
      <trkpt lat="47.57462628185749053955078125" lon="-3.0497787706553936004638671875">
        <ele>-0.20000000298023223876953125</ele>
        <time>2026-08-15T17:28:04.000Z</time>
        <extensions>
          <ns3:TrackPointExtension>
            <ns3:hr>122</ns3:hr>
          </ns3:TrackPointExtension>
        </extensions>
      </trkpt>
      <trkpt lat="47.57462787441909313201904296875" lon="-3.049790002405643463134765625">
        <ele>0</ele>
        <time>2026-08-15T17:28:05.000Z</time>
        <extensions>
          <ns3:TrackPointExtension>
            <ns3:hr>122</ns3:hr>
          </ns3:TrackPointExtension>
        </extensions>
      </trkpt>
      <trkpt lat="47.57462552748620510101318359375" lon="-3.04979545064270496368408203125">
        <ele>0.4000000059604644775390625</ele>
        <time>2026-08-15T17:28:06.000Z</time>
        <extensions>
          <ns3:TrackPointExtension>
            <ns3:hr>122</ns3:hr>
          </ns3:TrackPointExtension>
        </extensions>
      </trkpt>
      <trkpt lat="47.57462167181074619293212890625" lon="-3.04979662410914897918701171875">
        <ele>0.60000002384185791015625</ele>
        <time>2026-08-15T17:28:07.000Z</time>
        <extensions>
          <ns3:TrackPointExtension>
            <ns3:hr>121</ns3:hr>
          </ns3:TrackPointExtension>
        </extensions>
      </trkpt>
      <trkpt lat="47.57462318055331707000732421875" lon="-3.049796707928180694580078125">
        <ele>1</ele>
        <time>2026-08-15T17:28:08.000Z</time>
        <extensions>
          <ns3:TrackPointExtension>
            <ns3:hr>122</ns3:hr>
          </ns3:TrackPointExtension>
        </extensions>
      </trkpt>
      <trkpt lat="47.57462200708687305450439453125" lon="-3.0497891642153263092041015625">
        <ele>1</ele>
        <time>2026-08-15T17:28:09.000Z</time>
        <extensions>
          <ns3:TrackPointExtension>
            <ns3:hr>123</ns3:hr>
          </ns3:TrackPointExtension>
        </extensions>
      </trkpt>
      <trkpt lat="47.57462251000106334686279296875" lon="-3.04978321306407451629638671875">
        <ele>1.2000000476837158203125</ele>
        <time>2026-08-15T17:28:10.000Z</time>
        <extensions>
          <ns3:TrackPointExtension>
            <ns3:hr>124</ns3:hr>
          </ns3:TrackPointExtension>
        </extensions>
      </trkpt>
      <trkpt lat="47.57461915723979473114013671875" lon="-3.04977516643702983856201171875">
        <ele>1.39999997615814208984375</ele>
        <time>2026-08-15T17:28:11.000Z</time>
        <extensions>
          <ns3:TrackPointExtension>
            <ns3:hr>124</ns3:hr>
          </ns3:TrackPointExtension>
        </extensions>
      </trkpt>
      <trkpt lat="47.5746217556297779083251953125" lon="-3.04977147839963436126708984375">
        <ele>1.60000002384185791015625</ele>
        <time>2026-08-15T17:28:12.000Z</time>
        <extensions>
          <ns3:TrackPointExtension>
            <ns3:hr>124</ns3:hr>
          </ns3:TrackPointExtension>
        </extensions>
      </trkpt>
      <trkpt lat="47.5746296346187591552734375" lon="-3.04976888000965118408203125">
        <ele>1.60000002384185791015625</ele>
        <time>2026-08-15T17:28:13.000Z</time>
        <extensions>
          <ns3:TrackPointExtension>
            <ns3:hr>124</ns3:hr>
          </ns3:TrackPointExtension>
        </extensions>
      </trkpt>
      <trkpt lat="47.5746314786374568939208984375" lon="-3.0497616715729236602783203125">
        <ele>1.60000002384185791015625</ele>
        <time>2026-08-15T17:28:14.000Z</time>
        <extensions>
          <ns3:TrackPointExtension>
            <ns3:hr>123</ns3:hr>
          </ns3:TrackPointExtension>
        </extensions>
      </trkpt>
      <trkpt lat="47.574629969894886016845703125" lon="-3.04975681006908416748046875">
        <ele>1.60000002384185791015625</ele>
        <time>2026-08-15T17:28:15.000Z</time>
        <extensions>
          <ns3:TrackPointExtension>
            <ns3:hr>123</ns3:hr>
          </ns3:TrackPointExtension>
        </extensions>
      </trkpt>
      <trkpt lat="47.57463206537067890167236328125" lon="-3.04974918253719806671142578125">
        <ele>1.60000002384185791015625</ele>
        <time>2026-08-15T17:28:16.000Z</time>
        <extensions>
          <ns3:TrackPointExtension>
            <ns3:hr>123</ns3:hr>
          </ns3:TrackPointExtension>
        </extensions>
      </trkpt>
      <trkpt lat="47.574634663760662078857421875" lon="-3.0497459135949611663818359375">
        <ele>1.60000002384185791015625</ele>
        <time>2026-08-15T17:28:17.000Z</time>
        <extensions>
          <ns3:TrackPointExtension>
            <ns3:hr>122</ns3:hr>
          </ns3:TrackPointExtension>
        </extensions>
      </trkpt>
      <trkpt lat="47.574639022350311279296875" lon="-3.04974138736724853515625">
        <ele>1.60000002384185791015625</ele>
        <time>2026-08-15T17:28:18.000Z</time>
        <extensions>
          <ns3:TrackPointExtension>
            <ns3:hr>123</ns3:hr>
          </ns3:TrackPointExtension>
        </extensions>
      </trkpt>
      <trkpt lat="47.574641369283199310302734375" lon="-3.04973577149212360382080078125">
        <ele>1.60000002384185791015625</ele>
        <time>2026-08-15T17:28:19.000Z</time>
        <extensions>
          <ns3:TrackPointExtension>
            <ns3:hr>122</ns3:hr>
          </ns3:TrackPointExtension>
        </extensions>
      </trkpt>
      <trkpt lat="47.5746479071676731109619140625" lon="-3.04973141290247440338134765625">
        <ele>1.60000002384185791015625</ele>
        <time>2026-08-15T17:28:20.000Z</time>
        <extensions>
          <ns3:TrackPointExtension>
            <ns3:hr>123</ns3:hr>
          </ns3:TrackPointExtension>
        </extensions>
      </trkpt>
      <trkpt lat="47.57465201430022716522216796875" lon="-3.0497328378260135650634765625">
        <ele>1.60000002384185791015625</ele>
        <time>2026-08-15T17:28:21.000Z</time>
        <extensions>
          <ns3:TrackPointExtension>
            <ns3:hr>122</ns3:hr>
          </ns3:TrackPointExtension>
        </extensions>
      </trkpt>
      <trkpt lat="47.57465519942343235015869140625" lon="-3.04972596466541290283203125">
        <ele>1.60000002384185791015625</ele>
        <time>2026-08-15T17:28:22.000Z</time>
        <extensions>
          <ns3:TrackPointExtension>
            <ns3:hr>122</ns3:hr>
          </ns3:TrackPointExtension>
        </extensions>
      </trkpt>
      <trkpt lat="47.57466106675565242767333984375" lon="-3.0497227795422077178955078125">
        <ele>1.60000002384185791015625</ele>
        <time>2026-08-15T17:28:23.000Z</time>
        <extensions>
          <ns3:TrackPointExtension>
            <ns3:hr>121</ns3:hr>
          </ns3:TrackPointExtension>
        </extensions>
      </trkpt>
      <trkpt lat="47.5746703706681728363037109375" lon="-3.04971582256257534027099609375">
        <ele>1.7999999523162841796875</ele>
        <time>2026-08-15T17:28:24.000Z</time>
        <extensions>
          <ns3:TrackPointExtension>
            <ns3:hr>120</ns3:hr>
          </ns3:TrackPointExtension>
        </extensions>
      </trkpt>
      <trkpt lat="47.57467330433428287506103515625" lon="-3.0497063510119915008544921875">
        <ele>1.7999999523162841796875</ele>
        <time>2026-08-15T17:28:25.000Z</time>
        <extensions>
          <ns3:TrackPointExtension>
            <ns3:hr>120</ns3:hr>
          </ns3:TrackPointExtension>
        </extensions>
      </trkpt>
      <trkpt lat="47.57467900402843952178955078125" lon="-3.0497029982507228851318359375">
        <ele>2</ele>
        <time>2026-08-15T17:28:26.000Z</time>
        <extensions>
          <ns3:TrackPointExtension>
            <ns3:hr>120</ns3:hr>
          </ns3:TrackPointExtension>
        </extensions>
      </trkpt>
      <trkpt lat="47.57468671537935733795166015625" lon="-3.0497040040791034698486328125">
        <ele>2</ele>
        <time>2026-08-15T17:28:27.000Z</time>
        <extensions>
          <ns3:TrackPointExtension>
            <ns3:hr>120</ns3:hr>
          </ns3:TrackPointExtension>
        </extensions>
      </trkpt>
      <trkpt lat="47.57469224743545055389404296875" lon="-3.049706853926181793212890625">
        <ele>2</ele>
        <time>2026-08-15T17:28:28.000Z</time>
        <extensions>
          <ns3:TrackPointExtension>
            <ns3:hr>119</ns3:hr>
          </ns3:TrackPointExtension>
        </extensions>
      </trkpt>
      <trkpt lat="47.57470381446182727813720703125" lon="-3.0497105419635772705078125">
        <ele>2.2000000476837158203125</ele>
        <time>2026-08-15T17:28:29.000Z</time>
        <extensions>
          <ns3:TrackPointExtension>
            <ns3:hr>119</ns3:hr>
          </ns3:TrackPointExtension>
        </extensions>
      </trkpt>
      <trkpt lat="47.57471571676433086395263671875" lon="-3.049709536135196685791015625">
        <ele>2.2000000476837158203125</ele>
        <time>2026-08-15T17:28:30.000Z</time>
        <extensions>
          <ns3:TrackPointExtension>
            <ns3:hr>119</ns3:hr>
          </ns3:TrackPointExtension>
        </extensions>
      </trkpt>
      <trkpt lat="47.57472577504813671112060546875" lon="-3.04971523582935333251953125">
        <ele>2.2000000476837158203125</ele>
        <time>2026-08-15T17:28:31.000Z</time>
        <extensions>
          <ns3:TrackPointExtension>
            <ns3:hr>120</ns3:hr>
          </ns3:TrackPointExtension>
        </extensions>
      </trkpt>
      <trkpt lat="47.574737928807735443115234375" lon="-3.04972722195088863372802734375">
        <ele>2.2000000476837158203125</ele>
        <time>2026-08-15T17:28:32.000Z</time>
        <extensions>
          <ns3:TrackPointExtension>
            <ns3:hr>119</ns3:hr>
          </ns3:TrackPointExtension>
        </extensions>
      </trkpt>
      <trkpt lat="47.5747454725205898284912109375" lon="-3.04973375983536243438720703125">
        <ele>2.2000000476837158203125</ele>
        <time>2026-08-15T17:28:33.000Z</time>
        <extensions>
          <ns3:TrackPointExtension>
            <ns3:hr>119</ns3:hr>
          </ns3:TrackPointExtension>
        </extensions>
      </trkpt>
      <trkpt lat="47.574759386479854583740234375" lon="-3.0497388727962970733642578125">
        <ele>2.2000000476837158203125</ele>
        <time>2026-08-15T17:28:34.000Z</time>
        <extensions>
          <ns3:TrackPointExtension>
            <ns3:hr>119</ns3:hr>
          </ns3:TrackPointExtension>
        </extensions>
      </trkpt>
      <trkpt lat="47.57476919330656528472900390625" lon="-3.0497405491769313812255859375">
        <ele>2</ele>
        <time>2026-08-15T17:28:35.000Z</time>
        <extensions>
          <ns3:TrackPointExtension>
            <ns3:hr>119</ns3:hr>
          </ns3:TrackPointExtension>
        </extensions>
      </trkpt>
      <trkpt lat="47.57478143088519573211669921875" lon="-3.04974080063402652740478515625">
        <ele>2</ele>
        <time>2026-08-15T17:28:36.000Z</time>
        <extensions>
          <ns3:TrackPointExtension>
            <ns3:hr>119</ns3:hr>
          </ns3:TrackPointExtension>
        </extensions>
      </trkpt>
      <trkpt lat="47.5747920759022235870361328125" lon="-3.049741722643375396728515625">
        <ele>2</ele>
        <time>2026-08-15T17:28:37.000Z</time>
        <extensions>
          <ns3:TrackPointExtension>
            <ns3:hr>119</ns3:hr>
          </ns3:TrackPointExtension>
        </extensions>
      </trkpt>
      <trkpt lat="47.5748074986040592193603515625" lon="-3.04974013008177280426025390625">
        <ele>2</ele>
        <time>2026-08-15T17:28:38.000Z</time>
        <extensions>
          <ns3:TrackPointExtension>
            <ns3:hr>118</ns3:hr>
          </ns3:TrackPointExtension>
        </extensions>
      </trkpt>
      <trkpt lat="47.5748262740671634674072265625" lon="-3.0497358553111553192138671875">
        <ele>2</ele>
        <time>2026-08-15T17:28:39.000Z</time>
        <extensions>
          <ns3:TrackPointExtension>
            <ns3:hr>118</ns3:hr>
          </ns3:TrackPointExtension>
        </extensions>
      </trkpt>
      <trkpt lat="47.57484831847250461578369140625" lon="-3.0497281439602375030517578125">
        <ele>2</ele>
        <time>2026-08-15T17:28:40.000Z</time>
        <extensions>
          <ns3:TrackPointExtension>
            <ns3:hr>119</ns3:hr>
          </ns3:TrackPointExtension>
        </extensions>
      </trkpt>
      <trkpt lat="47.5748655013740062713623046875" lon="-3.049727641046047210693359375">
        <ele>2</ele>
        <time>2026-08-15T17:28:41.000Z</time>
        <extensions>
          <ns3:TrackPointExtension>
            <ns3:hr>121</ns3:hr>
          </ns3:TrackPointExtension>
        </extensions>
      </trkpt>
      <trkpt lat="47.5748844444751739501953125" lon="-3.0497271381318569183349609375">
        <ele>2</ele>
        <time>2026-08-15T17:28:42.000Z</time>
        <extensions>
          <ns3:TrackPointExtension>
            <ns3:hr>122</ns3:hr>
          </ns3:TrackPointExtension>
        </extensions>
      </trkpt>
      <trkpt lat="47.57490162737667560577392578125" lon="-3.04972403682768344879150390625">
        <ele>2</ele>
        <time>2026-08-15T17:28:43.000Z</time>
        <extensions>
          <ns3:TrackPointExtension>
            <ns3:hr>123</ns3:hr>
          </ns3:TrackPointExtension>
        </extensions>
      </trkpt>
      <trkpt lat="47.5749184750020503997802734375" lon="-3.0497177504003047943115234375">
        <ele>2</ele>
        <time>2026-08-15T17:28:44.000Z</time>
        <extensions>
          <ns3:TrackPointExtension>
            <ns3:hr>124</ns3:hr>
          </ns3:TrackPointExtension>
        </extensions>
      </trkpt>
      <trkpt lat="47.57493632845580577850341796875" lon="-3.0497184209525585174560546875">
        <ele>2</ele>
        <time>2026-08-15T17:28:45.000Z</time>
        <extensions>
          <ns3:TrackPointExtension>
            <ns3:hr>125</ns3:hr>
          </ns3:TrackPointExtension>
        </extensions>
      </trkpt>
      <trkpt lat="47.57495342753827571868896484375" lon="-3.04972001351416110992431640625">
        <ele>2.2000000476837158203125</ele>
        <time>2026-08-15T17:28:46.000Z</time>
        <extensions>
          <ns3:TrackPointExtension>
            <ns3:hr>125</ns3:hr>
          </ns3:TrackPointExtension>
        </extensions>
      </trkpt>
      <trkpt lat="47.57497170008718967437744140625" lon="-3.04971917532384395599365234375">
        <ele>2.400000095367431640625</ele>
        <time>2026-08-15T17:28:47.000Z</time>
        <extensions>
          <ns3:TrackPointExtension>
            <ns3:hr>125</ns3:hr>
          </ns3:TrackPointExtension>
        </extensions>
      </trkpt>
      <trkpt lat="47.57499131374061107635498046875" lon="-3.04972328245639801025390625">
        <ele>2.400000095367431640625</ele>
        <time>2026-08-15T17:28:48.000Z</time>
        <extensions>
          <ns3:TrackPointExtension>
            <ns3:hr>125</ns3:hr>
          </ns3:TrackPointExtension>
        </extensions>
      </trkpt>
      <trkpt lat="47.57500723935663700103759765625" lon="-3.04972370155155658721923828125">
        <ele>2.599999904632568359375</ele>
        <time>2026-08-15T17:28:49.000Z</time>
        <extensions>
          <ns3:TrackPointExtension>
            <ns3:hr>124</ns3:hr>
          </ns3:TrackPointExtension>
        </extensions>
      </trkpt>
      <trkpt lat="47.57502215914428234100341796875" lon="-3.0497200973331928253173828125">
        <ele>2.7999999523162841796875</ele>
        <time>2026-08-15T17:28:50.000Z</time>
        <extensions>
          <ns3:TrackPointExtension>
            <ns3:hr>124</ns3:hr>
          </ns3:TrackPointExtension>
        </extensions>
      </trkpt>
      <trkpt lat="47.57503624074161052703857421875" lon="-3.04971833713352680206298828125">
        <ele>2.7999999523162841796875</ele>
        <time>2026-08-15T17:28:51.000Z</time>
        <extensions>
          <ns3:TrackPointExtension>
            <ns3:hr>123</ns3:hr>
          </ns3:TrackPointExtension>
        </extensions>
      </trkpt>
      <trkpt lat="47.57505367510020732879638671875" lon="-3.049720264971256256103515625">
        <ele>3</ele>
        <time>2026-08-15T17:28:52.000Z</time>
        <extensions>
          <ns3:TrackPointExtension>
            <ns3:hr>123</ns3:hr>
          </ns3:TrackPointExtension>
        </extensions>
      </trkpt>
      <trkpt lat="47.57506884634494781494140625" lon="-3.0497237853705883026123046875">
        <ele>3.2000000476837158203125</ele>
        <time>2026-08-15T17:28:53.000Z</time>
        <extensions>
          <ns3:TrackPointExtension>
            <ns3:hr>123</ns3:hr>
          </ns3:TrackPointExtension>
        </extensions>
      </trkpt>
      <trkpt lat="47.5750790722668170928955078125" lon="-3.049726299941539764404296875">
        <ele>3.2000000476837158203125</ele>
        <time>2026-08-15T17:28:54.000Z</time>
        <extensions>
          <ns3:TrackPointExtension>
            <ns3:hr>122</ns3:hr>
          </ns3:TrackPointExtension>
        </extensions>
      </trkpt>
      <trkpt lat="47.57508686743676662445068359375" lon="-3.04972822777926921844482421875">
        <ele>3.2000000476837158203125</ele>
        <time>2026-08-15T17:28:55.000Z</time>
        <extensions>
          <ns3:TrackPointExtension>
            <ns3:hr>123</ns3:hr>
          </ns3:TrackPointExtension>
        </extensions>
      </trkpt>
      <trkpt lat="47.57509742863476276397705078125" lon="-3.04973711259663105010986328125">
        <ele>3.2000000476837158203125</ele>
        <time>2026-08-15T17:28:56.000Z</time>
        <extensions>
          <ns3:TrackPointExtension>
            <ns3:hr>124</ns3:hr>
          </ns3:TrackPointExtension>
        </extensions>
      </trkpt>
      <trkpt lat="47.57510748691856861114501953125" lon="-3.04974281229078769683837890625">
        <ele>3</ele>
        <time>2026-08-15T17:28:57.000Z</time>
        <extensions>
          <ns3:TrackPointExtension>
            <ns3:hr>125</ns3:hr>
          </ns3:TrackPointExtension>
        </extensions>
      </trkpt>
      <trkpt lat="47.5751166231930255889892578125" lon="-3.049748428165912628173828125">
        <ele>2.7999999523162841796875</ele>
        <time>2026-08-15T17:28:58.000Z</time>
        <extensions>
          <ns3:TrackPointExtension>
            <ns3:hr>127</ns3:hr>
          </ns3:TrackPointExtension>
        </extensions>
      </trkpt>
      <trkpt lat="47.57512651383876800537109375" lon="-3.0497452430427074432373046875">
        <ele>2.599999904632568359375</ele>
        <time>2026-08-15T17:28:59.000Z</time>
        <extensions>
          <ns3:TrackPointExtension>
            <ns3:hr>129</ns3:hr>
          </ns3:TrackPointExtension>
        </extensions>
      </trkpt>
      <trkpt lat="47.575134225189685821533203125" lon="-3.04975236766040325164794921875">
        <ele>2.599999904632568359375</ele>
        <time>2026-08-15T17:29:00.000Z</time>
        <extensions>
          <ns3:TrackPointExtension>
            <ns3:hr>130</ns3:hr>
          </ns3:TrackPointExtension>
        </extensions>
      </trkpt>
      <trkpt lat="47.57514403201639652252197265625" lon="-3.04975337348878383636474609375">
        <ele>2.599999904632568359375</ele>
        <time>2026-08-15T17:29:01.000Z</time>
        <extensions>
          <ns3:TrackPointExtension>
            <ns3:hr>129</ns3:hr>
          </ns3:TrackPointExtension>
        </extensions>
      </trkpt>
      <trkpt lat="47.57515375502407550811767578125" lon="-3.04975681006908416748046875">
        <ele>2.599999904632568359375</ele>
        <time>2026-08-15T17:29:02.000Z</time>
        <extensions>
          <ns3:TrackPointExtension>
            <ns3:hr>128</ns3:hr>
          </ns3:TrackPointExtension>
        </extensions>
      </trkpt>
      <trkpt lat="47.57516548968851566314697265625" lon="-3.04976058192551136016845703125">
        <ele>2.7999999523162841796875</ele>
        <time>2026-08-15T17:29:03.000Z</time>
        <extensions>
          <ns3:TrackPointExtension>
            <ns3:hr>126</ns3:hr>
          </ns3:TrackPointExtension>
        </extensions>
      </trkpt>
      <trkpt lat="47.57518275640904903411865234375" lon="-3.04976175539195537567138671875">
        <ele>3</ele>
        <time>2026-08-15T17:29:04.000Z</time>
        <extensions>
          <ns3:TrackPointExtension>
            <ns3:hr>126</ns3:hr>
          </ns3:TrackPointExtension>
        </extensions>
      </trkpt>
      <trkpt lat="47.5751955807209014892578125" lon="-3.049765191972255706787109375">
        <ele>3</ele>
        <time>2026-08-15T17:29:05.000Z</time>
        <extensions>
          <ns3:TrackPointExtension>
            <ns3:hr>125</ns3:hr>
          </ns3:TrackPointExtension>
        </extensions>
      </trkpt>
      <trkpt lat="47.5752105005085468292236328125" lon="-3.049770556390285491943359375">
        <ele>3.2000000476837158203125</ele>
        <time>2026-08-15T17:29:06.000Z</time>
        <extensions>
          <ns3:TrackPointExtension>
            <ns3:hr>124</ns3:hr>
          </ns3:TrackPointExtension>
        </extensions>
      </trkpt>
      <trkpt lat="47.57522416301071643829345703125" lon="-3.049781955778598785400390625">
        <ele>3.2000000476837158203125</ele>
        <time>2026-08-15T17:29:07.000Z</time>
        <extensions>
          <ns3:TrackPointExtension>
            <ns3:hr>123</ns3:hr>
          </ns3:TrackPointExtension>
        </extensions>
      </trkpt>
      <trkpt lat="47.5752358138561248779296875" lon="-3.0497910082340240478515625">
        <ele>3.2000000476837158203125</ele>
        <time>2026-08-15T17:29:08.000Z</time>
        <extensions>
          <ns3:TrackPointExtension>
            <ns3:hr>122</ns3:hr>
          </ns3:TrackPointExtension>
        </extensions>
      </trkpt>
      <trkpt lat="47.575246877968311309814453125" lon="-3.049802742898464202880859375">
        <ele>3</ele>
        <time>2026-08-15T17:29:09.000Z</time>
        <extensions>
          <ns3:TrackPointExtension>
            <ns3:hr>122</ns3:hr>
          </ns3:TrackPointExtension>
        </extensions>
      </trkpt>
      <trkpt lat="47.57525785826146602630615234375" lon="-3.049809448421001434326171875">
        <ele>2.7999999523162841796875</ele>
        <time>2026-08-15T17:29:10.000Z</time>
        <extensions>
          <ns3:TrackPointExtension>
            <ns3:hr>122</ns3:hr>
          </ns3:TrackPointExtension>
        </extensions>
      </trkpt>
      <trkpt lat="47.57527411915361881256103515625" lon="-3.0498096160590648651123046875">
        <ele>2.599999904632568359375</ele>
        <time>2026-08-15T17:29:11.000Z</time>
        <extensions>
          <ns3:TrackPointExtension>
            <ns3:hr>122</ns3:hr>
          </ns3:TrackPointExtension>
        </extensions>
      </trkpt>
      <trkpt lat="47.5752902962267398834228515625" lon="-3.04980752058327198028564453125">
        <ele>2.400000095367431640625</ele>
        <time>2026-08-15T17:29:12.000Z</time>
        <extensions>
          <ns3:TrackPointExtension>
            <ns3:hr>122</ns3:hr>
          </ns3:TrackPointExtension>
        </extensions>
      </trkpt>
      <trkpt lat="47.5753050483763217926025390625" lon="-3.04980835877358913421630859375">
        <ele>2.400000095367431640625</ele>
        <time>2026-08-15T17:29:13.000Z</time>
        <extensions>
          <ns3:TrackPointExtension>
            <ns3:hr>122</ns3:hr>
          </ns3:TrackPointExtension>
        </extensions>
      </trkpt>
      <trkpt lat="47.575326673686504364013671875" lon="-3.049809448421001434326171875">
        <ele>2.400000095367431640625</ele>
        <time>2026-08-15T17:29:14.000Z</time>
        <extensions>
          <ns3:TrackPointExtension>
            <ns3:hr>122</ns3:hr>
          </ns3:TrackPointExtension>
        </extensions>
      </trkpt>
      <trkpt lat="47.57534779608249664306640625" lon="-3.04980374872684478759765625">
        <ele>2.2000000476837158203125</ele>
        <time>2026-08-15T17:29:15.000Z</time>
        <extensions>
          <ns3:TrackPointExtension>
            <ns3:hr>122</ns3:hr>
          </ns3:TrackPointExtension>
        </extensions>
      </trkpt>
      <trkpt lat="47.575371265411376953125" lon="-3.04979645647108554840087890625">
        <ele>2.400000095367431640625</ele>
        <time>2026-08-15T17:29:16.000Z</time>
        <extensions>
          <ns3:TrackPointExtension>
            <ns3:hr>122</ns3:hr>
          </ns3:TrackPointExtension>
        </extensions>
      </trkpt>
      <trkpt lat="47.57539465092122554779052734375" lon="-3.0497837997972965240478515625">
        <ele>3.599999904632568359375</ele>
        <time>2026-08-15T17:29:17.000Z</time>
        <extensions>
          <ns3:TrackPointExtension>
            <ns3:hr>121</ns3:hr>
          </ns3:TrackPointExtension>
        </extensions>
      </trkpt>
      <trkpt lat="47.5754254125058650970458984375" lon="-3.049774579703807830810546875">
        <ele>5</ele>
        <time>2026-08-15T17:29:18.000Z</time>
        <extensions>
          <ns3:TrackPointExtension>
            <ns3:hr>122</ns3:hr>
          </ns3:TrackPointExtension>
        </extensions>
      </trkpt>
      <trkpt lat="47.57545734755694866180419921875" lon="-3.0497677065432071685791015625">
        <ele>6.19999980926513671875</ele>
        <time>2026-08-15T17:29:19.000Z</time>
        <extensions>
          <ns3:TrackPointExtension>
            <ns3:hr>121</ns3:hr>
          </ns3:TrackPointExtension>
        </extensions>
      </trkpt>
      <trkpt lat="47.57548995316028594970703125" lon="-3.04975991137325763702392578125">
        <ele>10.19999980926513671875</ele>
        <time>2026-08-15T17:29:20.000Z</time>
        <extensions>
          <ns3:TrackPointExtension>
            <ns3:hr>121</ns3:hr>
          </ns3:TrackPointExtension>
        </extensions>
      </trkpt>
      <trkpt lat="47.5755249895155429840087890625" lon="-3.0497559718787670135498046875">
        <ele>12.3999996185302734375</ele>
        <time>2026-08-15T17:29:21.000Z</time>
        <extensions>
          <ns3:TrackPointExtension>
            <ns3:hr>121</ns3:hr>
          </ns3:TrackPointExtension>
        </extensions>
      </trkpt>
      <trkpt lat="47.57555105723440647125244140625" lon="-3.04976846091449260711669921875">
        <ele>13</ele>
        <time>2026-08-15T17:29:22.000Z</time>
        <extensions>
          <ns3:TrackPointExtension>
            <ns3:hr>121</ns3:hr>
          </ns3:TrackPointExtension>
        </extensions>
      </trkpt>
      <trkpt lat="47.5755712576210498809814453125" lon="-3.04977835156023502349853515625">
        <ele>13</ele>
        <time>2026-08-15T17:29:23.000Z</time>
        <extensions>
          <ns3:TrackPointExtension>
            <ns3:hr>121</ns3:hr>
          </ns3:TrackPointExtension>
        </extensions>
      </trkpt>
      <trkpt lat="47.575584836304187774658203125" lon="-3.0497794412076473236083984375">
        <ele>13.19999980926513671875</ele>
        <time>2026-08-15T17:29:24.000Z</time>
        <extensions>
          <ns3:TrackPointExtension>
            <ns3:hr>122</ns3:hr>
          </ns3:TrackPointExtension>
        </extensions>
      </trkpt>
      <trkpt lat="47.57559858262538909912109375" lon="-3.04977399297058582305908203125">
        <ele>12.80000019073486328125</ele>
        <time>2026-08-15T17:29:25.000Z</time>
        <extensions>
          <ns3:TrackPointExtension>
            <ns3:hr>122</ns3:hr>
          </ns3:TrackPointExtension>
        </extensions>
      </trkpt>
      <trkpt lat="47.5756128318607807159423828125" lon="-3.04977114312350749969482421875">
        <ele>12.3999996185302734375</ele>
        <time>2026-08-15T17:29:26.000Z</time>
        <extensions>
          <ns3:TrackPointExtension>
            <ns3:hr>122</ns3:hr>
          </ns3:TrackPointExtension>
        </extensions>
      </trkpt>
      <trkpt lat="47.575631104409694671630859375" lon="-3.04976996965706348419189453125">
        <ele>12</ele>
        <time>2026-08-15T17:29:27.000Z</time>
        <extensions>
          <ns3:TrackPointExtension>
            <ns3:hr>122</ns3:hr>
          </ns3:TrackPointExtension>
        </extensions>
      </trkpt>
      <trkpt lat="47.5756416656076908111572265625" lon="-3.04977198131382465362548828125">
        <ele>11.6000003814697265625</ele>
        <time>2026-08-15T17:29:28.000Z</time>
        <extensions>
          <ns3:TrackPointExtension>
            <ns3:hr>122</ns3:hr>
          </ns3:TrackPointExtension>
        </extensions>
      </trkpt>
      <trkpt lat="47.57565080188214778900146484375" lon="-3.04977667517960071563720703125">
        <ele>11.3999996185302734375</ele>
        <time>2026-08-15T17:29:29.000Z</time>
        <extensions>
          <ns3:TrackPointExtension>
            <ns3:hr>122</ns3:hr>
          </ns3:TrackPointExtension>
        </extensions>
      </trkpt>
      <trkpt lat="47.5756641291081905364990234375" lon="-3.04978002794086933135986328125">
        <ele>11.19999980926513671875</ele>
        <time>2026-08-15T17:29:30.000Z</time>
        <extensions>
          <ns3:TrackPointExtension>
            <ns3:hr>122</ns3:hr>
          </ns3:TrackPointExtension>
        </extensions>
      </trkpt>
      <trkpt lat="47.575680054724216461181640625" lon="-3.0497881583869457244873046875">
        <ele>11.19999980926513671875</ele>
        <time>2026-08-15T17:29:31.000Z</time>
        <extensions>
          <ns3:TrackPointExtension>
            <ns3:hr>122</ns3:hr>
          </ns3:TrackPointExtension>
        </extensions>
      </trkpt>
      <trkpt lat="47.57569120265543460845947265625" lon="-3.049796707928180694580078125">
        <ele>11</ele>
        <time>2026-08-15T17:29:32.000Z</time>
        <extensions>
          <ns3:TrackPointExtension>
            <ns3:hr>123</ns3:hr>
          </ns3:TrackPointExtension>
        </extensions>
      </trkpt>
      <trkpt lat="47.5757046975195407867431640625" lon="-3.0498069338500499725341796875">
        <ele>10.80000019073486328125</ele>
        <time>2026-08-15T17:29:33.000Z</time>
        <extensions>
          <ns3:TrackPointExtension>
            <ns3:hr>124</ns3:hr>
          </ns3:TrackPointExtension>
        </extensions>
      </trkpt>
      <trkpt lat="47.575716935098171234130859375" lon="-3.04981305263936519622802734375">
        <ele>10.6000003814697265625</ele>
        <time>2026-08-15T17:29:34.000Z</time>
        <extensions>
          <ns3:TrackPointExtension>
            <ns3:hr>123</ns3:hr>
          </ns3:TrackPointExtension>
        </extensions>
      </trkpt>
      <trkpt lat="47.57572925649583339691162109375" lon="-3.04981422610580921173095703125">
        <ele>10.6000003814697265625</ele>
        <time>2026-08-15T17:29:35.000Z</time>
        <extensions>
          <ns3:TrackPointExtension>
            <ns3:hr>123</ns3:hr>
          </ns3:TrackPointExtension>
        </extensions>
      </trkpt>
      <trkpt lat="47.57574501447379589080810546875" lon="-3.04982545785605907440185546875">
        <ele>10.3999996185302734375</ele>
        <time>2026-08-15T17:29:36.000Z</time>
        <extensions>
          <ns3:TrackPointExtension>
            <ns3:hr>122</ns3:hr>
          </ns3:TrackPointExtension>
        </extensions>
      </trkpt>
      <trkpt lat="47.57575792260468006134033203125" lon="-3.04983182810246944427490234375">
        <ele>10.3999996185302734375</ele>
        <time>2026-08-15T17:29:37.000Z</time>
        <extensions>
          <ns3:TrackPointExtension>
            <ns3:hr>122</ns3:hr>
          </ns3:TrackPointExtension>
        </extensions>
      </trkpt>
      <trkpt lat="47.57577150128781795501708984375" lon="-3.04984264075756072998046875">
        <ele>10.3999996185302734375</ele>
        <time>2026-08-15T17:29:38.000Z</time>
        <extensions>
          <ns3:TrackPointExtension>
            <ns3:hr>122</ns3:hr>
          </ns3:TrackPointExtension>
        </extensions>
      </trkpt>
      <trkpt lat="47.57578432559967041015625" lon="-3.04984423331916332244873046875">
        <ele>10.3999996185302734375</ele>
        <time>2026-08-15T17:29:39.000Z</time>
        <extensions>
          <ns3:TrackPointExtension>
            <ns3:hr>121</ns3:hr>
          </ns3:TrackPointExtension>
        </extensions>
      </trkpt>
      <trkpt lat="47.5757935456931591033935546875" lon="-3.0498404614627361297607421875">
        <ele>10.19999980926513671875</ele>
        <time>2026-08-15T17:29:40.000Z</time>
        <extensions>
          <ns3:TrackPointExtension>
            <ns3:hr>120</ns3:hr>
          </ns3:TrackPointExtension>
        </extensions>
      </trkpt>
      <trkpt lat="47.575802095234394073486328125" lon="-3.04984037764370441436767578125">
        <ele>10.19999980926513671875</ele>
        <time>2026-08-15T17:29:41.000Z</time>
        <extensions>
          <ns3:TrackPointExtension>
            <ns3:hr>119</ns3:hr>
          </ns3:TrackPointExtension>
        </extensions>
      </trkpt>
      <trkpt lat="47.57581173442304134368896484375" lon="-3.04984440095722675323486328125">
        <ele>10.19999980926513671875</ele>
        <time>2026-08-15T17:29:42.000Z</time>
        <extensions>
          <ns3:TrackPointExtension>
            <ns3:hr>118</ns3:hr>
          </ns3:TrackPointExtension>
        </extensions>
      </trkpt>
      <trkpt lat="47.57582631893455982208251953125" lon="-3.0498491786420345306396484375">
        <ele>10.19999980926513671875</ele>
        <time>2026-08-15T17:29:43.000Z</time>
        <extensions>
          <ns3:TrackPointExtension>
            <ns3:hr>117</ns3:hr>
          </ns3:TrackPointExtension>
        </extensions>
      </trkpt>
      <trkpt lat="47.57584123872220516204833984375" lon="-3.04985747672617435455322265625">
        <ele>10.19999980926513671875</ele>
        <time>2026-08-15T17:29:44.000Z</time>
        <extensions>
          <ns3:TrackPointExtension>
            <ns3:hr>117</ns3:hr>
          </ns3:TrackPointExtension>
        </extensions>
      </trkpt>
      <trkpt lat="47.575855068862438201904296875" lon="-3.04986133240163326263427734375">
        <ele>10.19999980926513671875</ele>
        <time>2026-08-15T17:29:45.000Z</time>
        <extensions>
          <ns3:TrackPointExtension>
            <ns3:hr>116</ns3:hr>
          </ns3:TrackPointExtension>
        </extensions>
      </trkpt>
      <trkpt lat="47.57586353458464145660400390625" lon="-3.04987105540931224822998046875">
        <ele>10</ele>
        <time>2026-08-15T17:29:46.000Z</time>
        <extensions>
          <ns3:TrackPointExtension>
            <ns3:hr>117</ns3:hr>
          </ns3:TrackPointExtension>
        </extensions>
      </trkpt>
      <trkpt lat="47.57586755789816379547119140625" lon="-3.04987390525639057159423828125">
        <ele>10</ele>
        <time>2026-08-15T17:29:47.000Z</time>
        <extensions>
          <ns3:TrackPointExtension>
            <ns3:hr>117</ns3:hr>
          </ns3:TrackPointExtension>
        </extensions>
      </trkpt>
      <trkpt lat="47.57587158121168613433837890625" lon="-3.04987558163702487945556640625">
        <ele>9.80000019073486328125</ele>
        <time>2026-08-15T17:29:48.000Z</time>
        <extensions>
          <ns3:TrackPointExtension>
            <ns3:hr>118</ns3:hr>
          </ns3:TrackPointExtension>
        </extensions>
      </trkpt>
      <trkpt lat="47.57587661035358905792236328125" lon="-3.04988044314086437225341796875">
        <ele>9.80000019073486328125</ele>
        <time>2026-08-15T17:29:49.000Z</time>
        <extensions>
          <ns3:TrackPointExtension>
            <ns3:hr>118</ns3:hr>
          </ns3:TrackPointExtension>
        </extensions>
      </trkpt>
      <trkpt lat="47.57588692009449005126953125" lon="-3.04987859912216663360595703125">
        <ele>9.6000003814697265625</ele>
        <time>2026-08-15T17:29:50.000Z</time>
        <extensions>
          <ns3:TrackPointExtension>
            <ns3:hr>119</ns3:hr>
          </ns3:TrackPointExtension>
        </extensions>
      </trkpt>
      <trkpt lat="47.575896643102169036865234375" lon="-3.0498741567134857177734375">
        <ele>9.80000019073486328125</ele>
        <time>2026-08-15T17:29:51.000Z</time>
        <extensions>
          <ns3:TrackPointExtension>
            <ns3:hr>121</ns3:hr>
          </ns3:TrackPointExtension>
        </extensions>
      </trkpt>
      <trkpt lat="47.5759078748524188995361328125" lon="-3.0498699657618999481201171875">
        <ele>9.80000019073486328125</ele>
        <time>2026-08-15T17:29:52.000Z</time>
        <extensions>
          <ns3:TrackPointExtension>
            <ns3:hr>121</ns3:hr>
          </ns3:TrackPointExtension>
        </extensions>
      </trkpt>
      <trkpt lat="47.5759209506213665008544921875" lon="-3.04987289942800998687744140625">
        <ele>10</ele>
        <time>2026-08-15T17:29:53.000Z</time>
        <extensions>
          <ns3:TrackPointExtension>
            <ns3:hr>122</ns3:hr>
          </ns3:TrackPointExtension>
        </extensions>
      </trkpt>
      <trkpt lat="47.575936205685138702392578125" lon="-3.0498726479709148406982421875">
        <ele>10</ele>
        <time>2026-08-15T17:29:54.000Z</time>
        <extensions>
          <ns3:TrackPointExtension>
            <ns3:hr>122</ns3:hr>
          </ns3:TrackPointExtension>
        </extensions>
      </trkpt>
      <trkpt lat="47.5759521313011646270751953125" lon="-3.0498746596276760101318359375">
        <ele>9.80000019073486328125</ele>
        <time>2026-08-15T17:29:55.000Z</time>
        <extensions>
          <ns3:TrackPointExtension>
            <ns3:hr>122</ns3:hr>
          </ns3:TrackPointExtension>
        </extensions>
      </trkpt>
      <trkpt lat="47.57596612907946109771728515625" lon="-3.04987189359962940216064453125">
        <ele>9.80000019073486328125</ele>
        <time>2026-08-15T17:29:56.000Z</time>
        <extensions>
          <ns3:TrackPointExtension>
            <ns3:hr>122</ns3:hr>
          </ns3:TrackPointExtension>
        </extensions>
      </trkpt>
      <trkpt lat="47.5759792886674404144287109375" lon="-3.04986887611448764801025390625">
        <ele>9.6000003814697265625</ele>
        <time>2026-08-15T17:29:57.000Z</time>
        <extensions>
          <ns3:TrackPointExtension>
            <ns3:hr>121</ns3:hr>
          </ns3:TrackPointExtension>
        </extensions>
      </trkpt>
      <trkpt lat="47.575987167656421661376953125" lon="-3.049867115914821624755859375">
        <ele>9.6000003814697265625</ele>
        <time>2026-08-15T17:29:58.000Z</time>
        <extensions>
          <ns3:TrackPointExtension>
            <ns3:hr>121</ns3:hr>
          </ns3:TrackPointExtension>
        </extensions>
      </trkpt>
      <trkpt lat="47.57599663920700550079345703125" lon="-3.04986904375255107879638671875">
        <ele>9.6000003814697265625</ele>
        <time>2026-08-15T17:29:59.000Z</time>
        <extensions>
          <ns3:TrackPointExtension>
            <ns3:hr>120</ns3:hr>
          </ns3:TrackPointExtension>
        </extensions>
      </trkpt>
      <trkpt lat="47.57600761950016021728515625" lon="-3.04986703209578990936279296875">
        <ele>9.80000019073486328125</ele>
        <time>2026-08-15T17:30:00.000Z</time>
        <extensions>
          <ns3:TrackPointExtension>
            <ns3:hr>119</ns3:hr>
          </ns3:TrackPointExtension>
        </extensions>
      </trkpt>
      <trkpt lat="47.57602547295391559600830078125" lon="-3.04986485280096530914306640625">
        <ele>9.80000019073486328125</ele>
        <time>2026-08-15T17:30:01.000Z</time>
        <extensions>
          <ns3:TrackPointExtension>
            <ns3:hr>118</ns3:hr>
          </ns3:TrackPointExtension>
        </extensions>
      </trkpt>
      <trkpt lat="47.57603888399899005889892578125" lon="-3.049869127571582794189453125">
        <ele>10</ele>
        <time>2026-08-15T17:30:02.000Z</time>
        <extensions>
          <ns3:TrackPointExtension>
            <ns3:hr>117</ns3:hr>
          </ns3:TrackPointExtension>
        </extensions>
      </trkpt>
      <trkpt lat="47.57604919373989105224609375" lon="-3.04987206123769283294677734375">
        <ele>10</ele>
        <time>2026-08-15T17:30:03.000Z</time>
        <extensions>
          <ns3:TrackPointExtension>
            <ns3:hr>117</ns3:hr>
          </ns3:TrackPointExtension>
        </extensions>
      </trkpt>
      <trkpt lat="47.57606755010783672332763671875" lon="-3.0498659424483776092529296875">
        <ele>10</ele>
        <time>2026-08-15T17:30:04.000Z</time>
        <extensions>
          <ns3:TrackPointExtension>
            <ns3:hr>118</ns3:hr>
          </ns3:TrackPointExtension>
        </extensions>
      </trkpt>
      <trkpt lat="47.57607710547745227813720703125" lon="-3.04985529743134975433349609375">
        <ele>10</ele>
        <time>2026-08-15T17:30:05.000Z</time>
        <extensions>
          <ns3:TrackPointExtension>
            <ns3:hr>117</ns3:hr>
          </ns3:TrackPointExtension>
        </extensions>
      </trkpt>
      <trkpt lat="47.57608783431351184844970703125" lon="-3.0498428083956241607666015625">
        <ele>10.19999980926513671875</ele>
        <time>2026-08-15T17:30:06.000Z</time>
        <extensions>
          <ns3:TrackPointExtension>
            <ns3:hr>117</ns3:hr>
          </ns3:TrackPointExtension>
        </extensions>
      </trkpt>
      <trkpt lat="47.57610258646309375762939453125" lon="-3.0498257093131542205810546875">
        <ele>10.3999996185302734375</ele>
        <time>2026-08-15T17:30:07.000Z</time>
        <extensions>
          <ns3:TrackPointExtension>
            <ns3:hr>117</ns3:hr>
          </ns3:TrackPointExtension>
        </extensions>
      </trkpt>
      <trkpt lat="47.57611515931785106658935546875" lon="-3.04980349726974964141845703125">
        <ele>10.80000019073486328125</ele>
        <time>2026-08-15T17:30:08.000Z</time>
        <extensions>
          <ns3:TrackPointExtension>
            <ns3:hr>119</ns3:hr>
          </ns3:TrackPointExtension>
        </extensions>
      </trkpt>
      <trkpt lat="47.57613502442836761474609375" lon="-3.0497764237225055694580078125">
        <ele>11</ele>
        <time>2026-08-15T17:30:09.000Z</time>
        <extensions>
          <ns3:TrackPointExtension>
            <ns3:hr>119</ns3:hr>
          </ns3:TrackPointExtension>
        </extensions>
      </trkpt>
      <trkpt lat="47.57615153677761554718017578125" lon="-3.04974046535789966583251953125">
        <ele>11.19999980926513671875</ele>
        <time>2026-08-15T17:30:10.000Z</time>
        <extensions>
          <ns3:TrackPointExtension>
            <ns3:hr>119</ns3:hr>
          </ns3:TrackPointExtension>
        </extensions>
      </trkpt>
      <trkpt lat="47.57617182098329067230224609375" lon="-3.04968832992017269134521484375">
        <ele>10.6000003814697265625</ele>
        <time>2026-08-15T17:30:11.000Z</time>
        <extensions>
          <ns3:TrackPointExtension>
            <ns3:hr>118</ns3:hr>
          </ns3:TrackPointExtension>
        </extensions>
      </trkpt>
      <trkpt lat="47.57619646377861499786376953125" lon="-3.04963988251984119415283203125">
        <ele>10.3999996185302734375</ele>
        <time>2026-08-15T17:30:12.000Z</time>
        <extensions>
          <ns3:TrackPointExtension>
            <ns3:hr>119</ns3:hr>
          </ns3:TrackPointExtension>
        </extensions>
      </trkpt>
      <trkpt lat="47.5762237049639225006103515625" lon="-3.0495896749198436737060546875">
        <ele>10.19999980926513671875</ele>
        <time>2026-08-15T17:30:13.000Z</time>
        <extensions>
          <ns3:TrackPointExtension>
            <ns3:hr>118</ns3:hr>
          </ns3:TrackPointExtension>
        </extensions>
      </trkpt>
      <trkpt lat="47.57625647820532321929931640625" lon="-3.04954734630882740020751953125">
        <ele>10</ele>
        <time>2026-08-15T17:30:14.000Z</time>
        <extensions>
          <ns3:TrackPointExtension>
            <ns3:hr>120</ns3:hr>
          </ns3:TrackPointExtension>
        </extensions>
      </trkpt>
      <trkpt lat="47.576291263103485107421875" lon="-3.04949755780398845672607421875">
        <ele>10</ele>
        <time>2026-08-15T17:30:15.000Z</time>
        <extensions>
          <ns3:TrackPointExtension>
            <ns3:hr>120</ns3:hr>
          </ns3:TrackPointExtension>
        </extensions>
      </trkpt>
      <trkpt lat="47.576321773231029510498046875" lon="-3.049442656338214874267578125">
        <ele>9.6000003814697265625</ele>
        <time>2026-08-15T17:30:16.000Z</time>
        <extensions>
          <ns3:TrackPointExtension>
            <ns3:hr>119</ns3:hr>
          </ns3:TrackPointExtension>
        </extensions>
      </trkpt>
      <trkpt lat="47.576355971395969390869140625" lon="-3.04938775487244129180908203125">
        <ele>9.6000003814697265625</ele>
        <time>2026-08-15T17:30:17.000Z</time>
        <extensions>
          <ns3:TrackPointExtension>
            <ns3:hr>121</ns3:hr>
          </ns3:TrackPointExtension>
        </extensions>
      </trkpt>
      <trkpt lat="47.57639444433152675628662109375" lon="-3.04933578707277774810791015625">
        <ele>9.6000003814697265625</ele>
        <time>2026-08-15T17:30:18.000Z</time>
        <extensions>
          <ns3:TrackPointExtension>
            <ns3:hr>122</ns3:hr>
          </ns3:TrackPointExtension>
        </extensions>
      </trkpt>
      <trkpt lat="47.576429732143878936767578125" lon="-3.0492849089205265045166015625">
        <ele>9.6000003814697265625</ele>
        <time>2026-08-15T17:30:19.000Z</time>
        <extensions>
          <ns3:TrackPointExtension>
            <ns3:hr>122</ns3:hr>
          </ns3:TrackPointExtension>
        </extensions>
      </trkpt>
      <trkpt lat="47.576467953622341156005859375" lon="-3.04923285730183124542236328125">
        <ele>9.6000003814697265625</ele>
        <time>2026-08-15T17:30:20.000Z</time>
        <extensions>
          <ns3:TrackPointExtension>
            <ns3:hr>121</ns3:hr>
          </ns3:TrackPointExtension>
        </extensions>
      </trkpt>
      <trkpt lat="47.57650776766240596771240234375" lon="-3.04916881956160068511962890625">
        <ele>10</ele>
        <time>2026-08-15T17:30:21.000Z</time>
        <extensions>
          <ns3:TrackPointExtension>
            <ns3:hr>121</ns3:hr>
          </ns3:TrackPointExtension>
        </extensions>
      </trkpt>
      <trkpt lat="47.57655018009245395660400390625" lon="-3.0491068772971630096435546875">
        <ele>10</ele>
        <time>2026-08-15T17:30:22.000Z</time>
        <extensions>
          <ns3:TrackPointExtension>
            <ns3:hr>121</ns3:hr>
          </ns3:TrackPointExtension>
        </extensions>
      </trkpt>
      <trkpt lat="47.57659770548343658447265625" lon="-3.04904627613723278045654296875">
        <ele>10</ele>
        <time>2026-08-15T17:30:23.000Z</time>
        <extensions>
          <ns3:TrackPointExtension>
            <ns3:hr>124</ns3:hr>
          </ns3:TrackPointExtension>
        </extensions>
      </trkpt>
      <trkpt lat="47.57664908654987812042236328125" lon="-3.04900621064007282257080078125">
        <ele>10</ele>
        <time>2026-08-15T17:30:24.000Z</time>
        <extensions>
          <ns3:TrackPointExtension>
            <ns3:hr>127</ns3:hr>
          </ns3:TrackPointExtension>
        </extensions>
      </trkpt>
      <trkpt lat="47.57669921033084392547607421875" lon="-3.04897762835025787353515625">
        <ele>10</ele>
        <time>2026-08-15T17:30:25.000Z</time>
        <extensions>
          <ns3:TrackPointExtension>
            <ns3:hr>131</ns3:hr>
          </ns3:TrackPointExtension>
        </extensions>
      </trkpt>
      <trkpt lat="47.57675193250179290771484375" lon="-3.0489375628530979156494140625">
        <ele>10</ele>
        <time>2026-08-15T17:30:26.000Z</time>
        <extensions>
          <ns3:TrackPointExtension>
            <ns3:hr>138</ns3:hr>
          </ns3:TrackPointExtension>
        </extensions>
      </trkpt>
      <trkpt lat="47.5767993740737438201904296875" lon="-3.0488978326320648193359375">
        <ele>10</ele>
        <time>2026-08-15T17:30:27.000Z</time>
        <extensions>
          <ns3:TrackPointExtension>
            <ns3:hr>143</ns3:hr>
          </ns3:TrackPointExtension>
        </extensions>
      </trkpt>
      <trkpt lat="47.57685360498726367950439453125" lon="-3.04887025617063045501708984375">
        <ele>10.19999980926513671875</ele>
        <time>2026-08-15T17:30:28.000Z</time>
        <extensions>
          <ns3:TrackPointExtension>
            <ns3:hr>146</ns3:hr>
          </ns3:TrackPointExtension>
        </extensions>
      </trkpt>
      <trkpt lat="47.57690926082432270050048828125" lon="-3.0488480441272258758544921875">
        <ele>10.3999996185302734375</ele>
        <time>2026-08-15T17:30:29.000Z</time>
        <extensions>
          <ns3:TrackPointExtension>
            <ns3:hr>147</ns3:hr>
          </ns3:TrackPointExtension>
        </extensions>
      </trkpt>
      <trkpt lat="47.57696785032749176025390625" lon="-3.04884075187146663665771484375">
        <ele>10.6000003814697265625</ele>
        <time>2026-08-15T17:30:30.000Z</time>
        <extensions>
          <ns3:TrackPointExtension>
            <ns3:hr>148</ns3:hr>
          </ns3:TrackPointExtension>
        </extensions>
      </trkpt>
      <trkpt lat="47.5770287029445171356201171875" lon="-3.04883052594959735870361328125">
        <ele>11</ele>
        <time>2026-08-15T17:30:31.000Z</time>
        <extensions>
          <ns3:TrackPointExtension>
            <ns3:hr>148</ns3:hr>
          </ns3:TrackPointExtension>
        </extensions>
      </trkpt>
      <trkpt lat="47.577085532248020172119140625" lon="-3.04882097057998180389404296875">
        <ele>11</ele>
        <time>2026-08-15T17:30:32.000Z</time>
        <extensions>
          <ns3:TrackPointExtension>
            <ns3:hr>148</ns3:hr>
          </ns3:TrackPointExtension>
        </extensions>
      </trkpt>
      <trkpt lat="47.57714244537055492401123046875" lon="-3.04880730807781219482421875">
        <ele>11</ele>
        <time>2026-08-15T17:30:33.000Z</time>
        <extensions>
          <ns3:TrackPointExtension>
            <ns3:hr>148</ns3:hr>
          </ns3:TrackPointExtension>
        </extensions>
      </trkpt>
      <trkpt lat="47.577198185026645660400390625" lon="-3.04879213683307170867919921875">
        <ele>11.3999996185302734375</ele>
        <time>2026-08-15T17:30:34.000Z</time>
        <extensions>
          <ns3:TrackPointExtension>
            <ns3:hr>148</ns3:hr>
          </ns3:TrackPointExtension>
        </extensions>
      </trkpt>
      <trkpt lat="47.577255181968212127685546875" lon="-3.04878660477697849273681640625">
        <ele>11.19999980926513671875</ele>
        <time>2026-08-15T17:30:35.000Z</time>
        <extensions>
          <ns3:TrackPointExtension>
            <ns3:hr>148</ns3:hr>
          </ns3:TrackPointExtension>
        </extensions>
      </trkpt>
      <trkpt lat="47.57730606012046337127685546875" lon="-3.0487927235662937164306640625">
        <ele>11</ele>
        <time>2026-08-15T17:30:36.000Z</time>
        <extensions>
          <ns3:TrackPointExtension>
            <ns3:hr>148</ns3:hr>
          </ns3:TrackPointExtension>
        </extensions>
      </trkpt>
      <trkpt lat="47.57735635153949260711669921875" lon="-3.04880102165043354034423828125">
        <ele>10.80000019073486328125</ele>
        <time>2026-08-15T17:30:37.000Z</time>
        <extensions>
          <ns3:TrackPointExtension>
            <ns3:hr>147</ns3:hr>
          </ns3:TrackPointExtension>
        </extensions>
      </trkpt>
      <trkpt lat="47.57740748114883899688720703125" lon="-3.0487990938127040863037109375">
        <ele>10.6000003814697265625</ele>
        <time>2026-08-15T17:30:38.000Z</time>
        <extensions>
          <ns3:TrackPointExtension>
            <ns3:hr>147</ns3:hr>
          </ns3:TrackPointExtension>
        </extensions>
      </trkpt>
      <trkpt lat="47.5774581916630268096923828125" lon="-3.048792220652103424072265625">
        <ele>10.3999996185302734375</ele>
        <time>2026-08-15T17:30:39.000Z</time>
        <extensions>
          <ns3:TrackPointExtension>
            <ns3:hr>146</ns3:hr>
          </ns3:TrackPointExtension>
        </extensions>
      </trkpt>
      <trkpt lat="47.577505297958850860595703125" lon="-3.04878828115761280059814453125">
        <ele>10.19999980926513671875</ele>
        <time>2026-08-15T17:30:40.000Z</time>
        <extensions>
          <ns3:TrackPointExtension>
            <ns3:hr>145</ns3:hr>
          </ns3:TrackPointExtension>
        </extensions>
      </trkpt>
      <trkpt lat="47.57755550555884838104248046875" lon="-3.0487806536257266998291015625">
        <ele>10</ele>
        <time>2026-08-15T17:30:41.000Z</time>
        <extensions>
          <ns3:TrackPointExtension>
            <ns3:hr>144</ns3:hr>
          </ns3:TrackPointExtension>
        </extensions>
      </trkpt>
      <trkpt lat="47.5776042044162750244140625" lon="-3.04877637885510921478271484375">
        <ele>10.19999980926513671875</ele>
        <time>2026-08-15T17:30:42.000Z</time>
        <extensions>
          <ns3:TrackPointExtension>
            <ns3:hr>144</ns3:hr>
          </ns3:TrackPointExtension>
        </extensions>
      </trkpt>
      <trkpt lat="47.57765315473079681396484375" lon="-3.048774786293506622314453125">
        <ele>10</ele>
        <time>2026-08-15T17:30:43.000Z</time>
        <extensions>
          <ns3:TrackPointExtension>
            <ns3:hr>144</ns3:hr>
          </ns3:TrackPointExtension>
        </extensions>
      </trkpt>
      <trkpt lat="47.57770252414047718048095703125" lon="-3.04877604357898235321044921875">
        <ele>9.80000019073486328125</ele>
        <time>2026-08-15T17:30:44.000Z</time>
        <extensions>
          <ns3:TrackPointExtension>
            <ns3:hr>143</ns3:hr>
          </ns3:TrackPointExtension>
        </extensions>
      </trkpt>
      <trkpt lat="47.5777485407888889312744140625" lon="-3.0487702600657939910888671875">
        <ele>9.6000003814697265625</ele>
        <time>2026-08-15T17:30:45.000Z</time>
        <extensions>
          <ns3:TrackPointExtension>
            <ns3:hr>144</ns3:hr>
          </ns3:TrackPointExtension>
        </extensions>
      </trkpt>
      <trkpt lat="47.5777897797524929046630859375" lon="-3.04876263253390789031982421875">
        <ele>9.6000003814697265625</ele>
        <time>2026-08-15T17:30:46.000Z</time>
        <extensions>
          <ns3:TrackPointExtension>
            <ns3:hr>143</ns3:hr>
          </ns3:TrackPointExtension>
        </extensions>
      </trkpt>
      <trkpt lat="47.577830851078033447265625" lon="-3.048758693039417266845703125">
        <ele>9.3999996185302734375</ele>
        <time>2026-08-15T17:30:47.000Z</time>
        <extensions>
          <ns3:TrackPointExtension>
            <ns3:hr>143</ns3:hr>
          </ns3:TrackPointExtension>
        </extensions>
      </trkpt>
      <trkpt lat="47.577872760593891143798828125" lon="-3.048762381076812744140625">
        <ele>9.19999980926513671875</ele>
        <time>2026-08-15T17:30:48.000Z</time>
        <extensions>
          <ns3:TrackPointExtension>
            <ns3:hr>143</ns3:hr>
          </ns3:TrackPointExtension>
        </extensions>
      </trkpt>
      <trkpt lat="47.57790955714881420135498046875" lon="-3.0487612076103687286376953125">
        <ele>8.80000019073486328125</ele>
        <time>2026-08-15T17:30:49.000Z</time>
        <extensions>
          <ns3:TrackPointExtension>
            <ns3:hr>142</ns3:hr>
          </ns3:TrackPointExtension>
        </extensions>
      </trkpt>
      <trkpt lat="47.57794023491442203521728515625" lon="-3.0487662367522716522216796875">
        <ele>8.6000003814697265625</ele>
        <time>2026-08-15T17:30:50.000Z</time>
        <extensions>
          <ns3:TrackPointExtension>
            <ns3:hr>141</ns3:hr>
          </ns3:TrackPointExtension>
        </extensions>
      </trkpt>
      <trkpt lat="47.57796697318553924560546875" lon="-3.0487705953419208526611328125">
        <ele>8.19999980926513671875</ele>
        <time>2026-08-15T17:30:51.000Z</time>
        <extensions>
          <ns3:TrackPointExtension>
            <ns3:hr>140</ns3:hr>
          </ns3:TrackPointExtension>
        </extensions>
      </trkpt>
      <trkpt lat="47.5779839046299457550048828125" lon="-3.048770762979984283447265625">
        <ele>8</ele>
        <time>2026-08-15T17:30:52.000Z</time>
        <extensions>
          <ns3:TrackPointExtension>
            <ns3:hr>139</ns3:hr>
          </ns3:TrackPointExtension>
        </extensions>
      </trkpt>
      <trkpt lat="47.57799647748470306396484375" lon="-3.0487637221813201904296875">
        <ele>7.599999904632568359375</ele>
        <time>2026-08-15T17:30:53.000Z</time>
        <extensions>
          <ns3:TrackPointExtension>
            <ns3:hr>138</ns3:hr>
          </ns3:TrackPointExtension>
        </extensions>
      </trkpt>
      <trkpt lat="47.57800896652042865753173828125" lon="-3.04875710047781467437744140625">
        <ele>7.599999904632568359375</ele>
        <time>2026-08-15T17:30:54.000Z</time>
        <extensions>
          <ns3:TrackPointExtension>
            <ns3:hr>137</ns3:hr>
          </ns3:TrackPointExtension>
        </extensions>
      </trkpt>
      <trkpt lat="47.5780221261084079742431640625" lon="-3.04875877685844898223876953125">
        <ele>7.80000019073486328125</ele>
        <time>2026-08-15T17:30:55.000Z</time>
        <extensions>
          <ns3:TrackPointExtension>
            <ns3:hr>136</ns3:hr>
          </ns3:TrackPointExtension>
        </extensions>
      </trkpt>
      <trkpt lat="47.57803679443895816802978515625" lon="-3.048754669725894927978515625">
        <ele>8</ele>
        <time>2026-08-15T17:30:56.000Z</time>
        <extensions>
          <ns3:TrackPointExtension>
            <ns3:hr>135</ns3:hr>
          </ns3:TrackPointExtension>
        </extensions>
      </trkpt>
      <trkpt lat="47.57804609835147857666015625" lon="-3.04875156842172145843505859375">
        <ele>8.19999980926513671875</ele>
        <time>2026-08-15T17:30:57.000Z</time>
        <extensions>
          <ns3:TrackPointExtension>
            <ns3:hr>134</ns3:hr>
          </ns3:TrackPointExtension>
        </extensions>
      </trkpt>
      <trkpt lat="47.57805808447301387786865234375" lon="-3.04875140078365802764892578125">
        <ele>8.3999996185302734375</ele>
        <time>2026-08-15T17:30:58.000Z</time>
        <extensions>
          <ns3:TrackPointExtension>
            <ns3:hr>134</ns3:hr>
          </ns3:TrackPointExtension>
        </extensions>
      </trkpt>
      <trkpt lat="47.57807023823261260986328125" lon="-3.048757016658782958984375">
        <ele>8.3999996185302734375</ele>
        <time>2026-08-15T17:30:59.000Z</time>
        <extensions>
          <ns3:TrackPointExtension>
            <ns3:hr>134</ns3:hr>
          </ns3:TrackPointExtension>
        </extensions>
      </trkpt>
      <trkpt lat="47.5780807994306087493896484375" lon="-3.04875223897397518157958984375">
        <ele>8.3999996185302734375</ele>
        <time>2026-08-15T17:31:00.000Z</time>
        <extensions>
          <ns3:TrackPointExtension>
            <ns3:hr>134</ns3:hr>
          </ns3:TrackPointExtension>
        </extensions>
      </trkpt>
      <trkpt lat="47.57809395901858806610107421875" lon="-3.048751652240753173828125">
        <ele>8.19999980926513671875</ele>
        <time>2026-08-15T17:31:01.000Z</time>
        <extensions>
          <ns3:TrackPointExtension>
            <ns3:hr>134</ns3:hr>
          </ns3:TrackPointExtension>
        </extensions>
      </trkpt>
      <trkpt lat="47.57811005227267742156982421875" lon="-3.0487541668117046356201171875">
        <ele>8</ele>
        <time>2026-08-15T17:31:02.000Z</time>
        <extensions>
          <ns3:TrackPointExtension>
            <ns3:hr>133</ns3:hr>
          </ns3:TrackPointExtension>
        </extensions>
      </trkpt>
      <trkpt lat="47.5781243853271007537841796875" lon="-3.0487501434981822967529296875">
        <ele>7.80000019073486328125</ele>
        <time>2026-08-15T17:31:03.000Z</time>
        <extensions>
          <ns3:TrackPointExtension>
            <ns3:hr>132</ns3:hr>
          </ns3:TrackPointExtension>
        </extensions>
      </trkpt>
      <trkpt lat="47.57813687436282634735107421875" lon="-3.04874301888048648834228515625">
        <ele>7.80000019073486328125</ele>
        <time>2026-08-15T17:31:04.000Z</time>
        <extensions>
          <ns3:TrackPointExtension>
            <ns3:hr>132</ns3:hr>
          </ns3:TrackPointExtension>
        </extensions>
      </trkpt>
      <trkpt lat="47.578153051435947418212890625" lon="-3.0487347207963466644287109375">
        <ele>7.80000019073486328125</ele>
        <time>2026-08-15T17:31:05.000Z</time>
        <extensions>
          <ns3:TrackPointExtension>
            <ns3:hr>131</ns3:hr>
          </ns3:TrackPointExtension>
        </extensions>
      </trkpt>
      <trkpt lat="47.57816277444362640380859375" lon="-3.04873178713023662567138671875">
        <ele>8</ele>
        <time>2026-08-15T17:31:06.000Z</time>
        <extensions>
          <ns3:TrackPointExtension>
            <ns3:hr>130</ns3:hr>
          </ns3:TrackPointExtension>
        </extensions>
      </trkpt>
      <trkpt lat="47.5781723298132419586181640625" lon="-3.048729188740253448486328125">
        <ele>8.19999980926513671875</ele>
        <time>2026-08-15T17:31:07.000Z</time>
        <extensions>
          <ns3:TrackPointExtension>
            <ns3:hr>129</ns3:hr>
          </ns3:TrackPointExtension>
        </extensions>
      </trkpt>
      <trkpt lat="47.57818414829671382904052734375" lon="-3.048731870949268341064453125">
        <ele>8.3999996185302734375</ele>
        <time>2026-08-15T17:31:08.000Z</time>
        <extensions>
          <ns3:TrackPointExtension>
            <ns3:hr>126</ns3:hr>
          </ns3:TrackPointExtension>
        </extensions>
      </trkpt>
      <trkpt lat="47.578198648989200592041015625" lon="-3.048741258680820465087890625">
        <ele>8.3999996185302734375</ele>
        <time>2026-08-15T17:31:09.000Z</time>
        <extensions>
          <ns3:TrackPointExtension>
            <ns3:hr>126</ns3:hr>
          </ns3:TrackPointExtension>
        </extensions>
      </trkpt>
      <trkpt lat="47.578210718929767608642578125" lon="-3.0487488023936748504638671875">
        <ele>8.3999996185302734375</ele>
        <time>2026-08-15T17:31:10.000Z</time>
        <extensions>
          <ns3:TrackPointExtension>
            <ns3:hr>126</ns3:hr>
          </ns3:TrackPointExtension>
        </extensions>
      </trkpt>
      <trkpt lat="47.5782259739935398101806640625" lon="-3.048752658069133758544921875">
        <ele>8.19999980926513671875</ele>
        <time>2026-08-15T17:31:11.000Z</time>
        <extensions>
          <ns3:TrackPointExtension>
            <ns3:hr>127</ns3:hr>
          </ns3:TrackPointExtension>
        </extensions>
      </trkpt>
      <trkpt lat="47.57823728956282138824462890625" lon="-3.048752658069133758544921875">
        <ele>8.19999980926513671875</ele>
        <time>2026-08-15T17:31:12.000Z</time>
        <extensions>
          <ns3:TrackPointExtension>
            <ns3:hr>127</ns3:hr>
          </ns3:TrackPointExtension>
        </extensions>
      </trkpt>
      <trkpt lat="47.57824483327567577362060546875" lon="-3.048760034143924713134765625">
        <ele>8</ele>
        <time>2026-08-15T17:31:13.000Z</time>
        <extensions>
          <ns3:TrackPointExtension>
            <ns3:hr>127</ns3:hr>
          </ns3:TrackPointExtension>
        </extensions>
      </trkpt>
      <trkpt lat="47.57825572974979877471923828125" lon="-3.048760034143924713134765625">
        <ele>8</ele>
        <time>2026-08-15T17:31:14.000Z</time>
        <extensions>
          <ns3:TrackPointExtension>
            <ns3:hr>127</ns3:hr>
          </ns3:TrackPointExtension>
        </extensions>
      </trkpt>
      <trkpt lat="47.57826872169971466064453125" lon="-3.0487655662000179290771484375">
        <ele>8</ele>
        <time>2026-08-15T17:31:15.000Z</time>
        <extensions>
          <ns3:TrackPointExtension>
            <ns3:hr>127</ns3:hr>
          </ns3:TrackPointExtension>
        </extensions>
      </trkpt>
      <trkpt lat="47.578277103602886199951171875" lon="-3.04876598529517650604248046875">
        <ele>7.80000019073486328125</ele>
        <time>2026-08-15T17:31:16.000Z</time>
        <extensions>
          <ns3:TrackPointExtension>
            <ns3:hr>126</ns3:hr>
          </ns3:TrackPointExtension>
        </extensions>
      </trkpt>
      <trkpt lat="47.57828020490705966949462890625" lon="-3.04877621121704578399658203125">
        <ele>7.599999904632568359375</ele>
        <time>2026-08-15T17:31:17.000Z</time>
        <extensions>
          <ns3:TrackPointExtension>
            <ns3:hr>126</ns3:hr>
          </ns3:TrackPointExtension>
        </extensions>
      </trkpt>
      <trkpt lat="47.57828959263861179351806640625" lon="-3.04877202026546001434326171875">
        <ele>7.400000095367431640625</ele>
        <time>2026-08-15T17:31:18.000Z</time>
        <extensions>
          <ns3:TrackPointExtension>
            <ns3:hr>126</ns3:hr>
          </ns3:TrackPointExtension>
        </extensions>
      </trkpt>
      <trkpt lat="47.578299902379512786865234375" lon="-3.0487648956477642059326171875">
        <ele>7.400000095367431640625</ele>
        <time>2026-08-15T17:31:19.000Z</time>
        <extensions>
          <ns3:TrackPointExtension>
            <ns3:hr>126</ns3:hr>
          </ns3:TrackPointExtension>
        </extensions>
      </trkpt>
      <trkpt lat="47.5783107988536357879638671875" lon="-3.04875693283975124359130859375">
        <ele>7.19999980926513671875</ele>
        <time>2026-08-15T17:31:20.000Z</time>
        <extensions>
          <ns3:TrackPointExtension>
            <ns3:hr>125</ns3:hr>
          </ns3:TrackPointExtension>
        </extensions>
      </trkpt>
      <trkpt lat="47.5783203542232513427734375" lon="-3.048749975860118865966796875">
        <ele>7</ele>
        <time>2026-08-15T17:31:21.000Z</time>
        <extensions>
          <ns3:TrackPointExtension>
            <ns3:hr>125</ns3:hr>
          </ns3:TrackPointExtension>
        </extensions>
      </trkpt>
      <trkpt lat="47.57832597009837627410888671875" lon="-3.04875425063073635101318359375">
        <ele>6.80000019073486328125</ele>
        <time>2026-08-15T17:31:22.000Z</time>
        <extensions>
          <ns3:TrackPointExtension>
            <ns3:hr>124</ns3:hr>
          </ns3:TrackPointExtension>
        </extensions>
      </trkpt>
      <trkpt lat="47.578323371708393096923828125" lon="-3.04877067916095256805419921875">
        <ele>6.80000019073486328125</ele>
        <time>2026-08-15T17:31:23.000Z</time>
        <extensions>
          <ns3:TrackPointExtension>
            <ns3:hr>123</ns3:hr>
          </ns3:TrackPointExtension>
        </extensions>
      </trkpt>
      <trkpt lat="47.57831121794879436492919921875" lon="-3.04878962226212024688720703125">
        <ele>6.599999904632568359375</ele>
        <time>2026-08-15T17:31:24.000Z</time>
        <extensions>
          <ns3:TrackPointExtension>
            <ns3:hr>123</ns3:hr>
          </ns3:TrackPointExtension>
        </extensions>
      </trkpt>
      <trkpt lat="47.57830702699720859527587890625" lon="-3.04879297502338886260986328125">
        <ele>6.599999904632568359375</ele>
        <time>2026-08-15T17:31:25.000Z</time>
        <extensions>
          <ns3:TrackPointExtension>
            <ns3:hr>122</ns3:hr>
          </ns3:TrackPointExtension>
        </extensions>
      </trkpt>
      <trkpt lat="47.578302919864654541015625" lon="-3.04879263974726200103759765625">
        <ele>6.400000095367431640625</ele>
        <time>2026-08-15T17:31:26.000Z</time>
        <extensions>
          <ns3:TrackPointExtension>
            <ns3:hr>122</ns3:hr>
          </ns3:TrackPointExtension>
        </extensions>
      </trkpt>
      <trkpt lat="47.5782963819801807403564453125" lon="-3.0487860180437564849853515625">
        <ele>6.19999980926513671875</ele>
        <time>2026-08-15T17:31:27.000Z</time>
        <extensions>
          <ns3:TrackPointExtension>
            <ns3:hr>122</ns3:hr>
          </ns3:TrackPointExtension>
        </extensions>
      </trkpt>
      <trkpt lat="47.5782970525324344635009765625" lon="-3.04878375492990016937255859375">
        <ele>6.19999980926513671875</ele>
        <time>2026-08-15T17:31:28.000Z</time>
        <extensions>
          <ns3:TrackPointExtension>
            <ns3:hr>122</ns3:hr>
          </ns3:TrackPointExtension>
        </extensions>
      </trkpt>
      <trkpt lat="47.57829914800822734832763671875" lon="-3.048784844577312469482421875">
        <ele>6</ele>
        <time>2026-08-15T17:31:29.000Z</time>
        <extensions>
          <ns3:TrackPointExtension>
            <ns3:hr>122</ns3:hr>
          </ns3:TrackPointExtension>
        </extensions>
      </trkpt>
    </trkseg>
  </trk>
</gpx>
